<?xml version='1.0' encoding='UTF-8'?><gpx version="1.1" creator="JPX - https://github.com/jenetics/jpx" xmlns="http://www.topografix.com/GPX/1/1"><trk><trkseg><trkpt lat="43.7794877" lon="7.6668897"><ele>11.0</ele><time>2026-04-18T06:16:11.979Z</time></trkpt><trkpt lat="43.7795138" lon="7.6669975"><ele>11.0</ele><time>2026-04-18T06:16:13.979Z</time></trkpt><trkpt lat="43.7794467" lon="7.6670333"><ele>11.0</ele><time>2026-04-18T06:16:20.979Z</time></trkpt><trkpt lat="43.7793906" lon="7.666989"><ele>11.0</ele><time>2026-04-18T06:16:21.979Z</time></trkpt><trkpt lat="43.7793339" lon="7.6669393"><ele>11.0</ele><time>2026-04-18T06:16:22.979Z</time></trkpt><trkpt lat="43.7792674" lon="7.6669007"><ele>11.0</ele><time>2026-04-18T06:16:23.979Z</time></trkpt><trkpt lat="43.7791911" lon="7.6668721"><ele>11.0</ele><time>2026-04-18T06:16:24.978Z</time></trkpt><trkpt lat="43.7791158" lon="7.6668442"><ele>11.333333333333332</ele><time>2026-04-18T06:16:25.979Z</time></trkpt><trkpt lat="43.7790452" lon="7.666808"><ele>11.666666666666666</ele><time>2026-04-18T06:16:26.979Z</time></trkpt><trkpt lat="43.7789812" lon="7.6667681"><ele>12.0</ele><time>2026-04-18T06:16:27.979Z</time></trkpt><trkpt lat="43.7789198" lon="7.6667323"><ele>12.333333333333332</ele><time>2026-04-18T06:16:28.979Z</time></trkpt><trkpt lat="43.7788043" lon="7.6666931"><ele>12.666666666666666</ele><time>2026-04-18T06:16:30.979Z</time></trkpt><trkpt lat="43.77872" lon="7.6666438"><ele>13.0</ele><time>2026-04-18T06:16:32.979Z</time></trkpt><trkpt lat="43.7786567" lon="7.6665614"><ele>12.999999999999998</ele><time>2026-04-18T06:16:34.979Z</time></trkpt><trkpt lat="43.778589" lon="7.6664226"><ele>13.0</ele><time>2026-04-18T06:16:36.979Z</time></trkpt><trkpt lat="43.778571" lon="7.6663269"><ele>13.0</ele><time>2026-04-18T06:16:37.979Z</time></trkpt><trkpt lat="43.7785744" lon="7.666224"><ele>13.0</ele><time>2026-04-18T06:16:38.979Z</time></trkpt><trkpt lat="43.7786098" lon="7.6661027"><ele>12.999999999999998</ele><time>2026-04-18T06:16:40.979Z</time></trkpt><trkpt lat="43.7786301" lon="7.665995"><ele>13.0</ele><time>2026-04-18T06:16:42.979Z</time></trkpt><trkpt lat="43.7786588" lon="7.6658478"><ele>12.833333333333332</ele><time>2026-04-18T06:16:44.979Z</time></trkpt><trkpt lat="43.7786838" lon="7.665756"><ele>12.666666666666666</ele><time>2026-04-18T06:16:45.979Z</time></trkpt><trkpt lat="43.7786998" lon="7.6656515"><ele>12.5</ele><time>2026-04-18T06:16:46.979Z</time></trkpt><trkpt lat="43.7787221" lon="7.6655442"><ele>12.333333333333332</ele><time>2026-04-18T06:16:47.979Z</time></trkpt><trkpt lat="43.7787485" lon="7.6654223"><ele>12.166666666666666</ele><time>2026-04-18T06:16:48.979Z</time></trkpt><trkpt lat="43.7787793" lon="7.6652918"><ele>12.0</ele><time>2026-04-18T06:16:49.979Z</time></trkpt><trkpt lat="43.7788113" lon="7.6651548"><ele>11.8</ele><time>2026-04-18T06:16:50.979Z</time></trkpt><trkpt lat="43.7788367" lon="7.6650143"><ele>11.6</ele><time>2026-04-18T06:16:51.978Z</time></trkpt><trkpt lat="43.7788652" lon="7.6648754"><ele>11.4</ele><time>2026-04-18T06:16:52.979Z</time></trkpt><trkpt lat="43.7788867" lon="7.664748"><ele>11.200000000000001</ele><time>2026-04-18T06:16:53.979Z</time></trkpt><trkpt lat="43.7789226" lon="7.6646164"><ele>11.0</ele><time>2026-04-18T06:16:54.979Z</time></trkpt><trkpt lat="43.7789565" lon="7.6644774"><ele>11.4</ele><time>2026-04-18T06:16:55.979Z</time></trkpt><trkpt lat="43.7789866" lon="7.664341"><ele>11.8</ele><time>2026-04-18T06:16:56.979Z</time></trkpt><trkpt lat="43.7790191" lon="7.6642113"><ele>12.200000000000001</ele><time>2026-04-18T06:16:57.979Z</time></trkpt><trkpt lat="43.7790575" lon="7.6640683"><ele>12.600000000000001</ele><time>2026-04-18T06:16:58.979Z</time></trkpt><trkpt lat="43.7790859" lon="7.663922"><ele>13.0</ele><time>2026-04-18T06:16:59.979Z</time></trkpt><trkpt lat="43.7791128" lon="7.6637746"><ele>13.0</ele><time>2026-04-18T06:17:00.979Z</time></trkpt><trkpt lat="43.7791515" lon="7.6636328"><ele>13.0</ele><time>2026-04-18T06:17:01.979Z</time></trkpt><trkpt lat="43.7791886" lon="7.6635023"><ele>13.0</ele><time>2026-04-18T06:17:02.979Z</time></trkpt><trkpt lat="43.7792313" lon="7.6633483"><ele>13.0</ele><time>2026-04-18T06:17:03.979Z</time></trkpt><trkpt lat="43.7792694" lon="7.6632061"><ele>13.0</ele><time>2026-04-18T06:17:04.979Z</time></trkpt><trkpt lat="43.7793104" lon="7.6630747"><ele>13.0</ele><time>2026-04-18T06:17:05.979Z</time></trkpt><trkpt lat="43.7793423" lon="7.6629389"><ele>13.0</ele><time>2026-04-18T06:17:06.979Z</time></trkpt><trkpt lat="43.7793786" lon="7.662808"><ele>13.0</ele><time>2026-04-18T06:17:07.979Z</time></trkpt><trkpt lat="43.779413" lon="7.6626703"><ele>13.0</ele><time>2026-04-18T06:17:08.979Z</time></trkpt><trkpt lat="43.7794465" lon="7.66253"><ele>13.0</ele><time>2026-04-18T06:17:09.979Z</time></trkpt><trkpt lat="43.7794877" lon="7.6623811"><ele>12.75</ele><time>2026-04-18T06:17:10.979Z</time></trkpt><trkpt lat="43.7795211" lon="7.6622221"><ele>12.5</ele><time>2026-04-18T06:17:11.979Z</time></trkpt><trkpt lat="43.7795543" lon="7.6620692"><ele>12.25</ele><time>2026-04-18T06:17:12.979Z</time></trkpt><trkpt lat="43.7795908" lon="7.6619164"><ele>12.0</ele><time>2026-04-18T06:17:13.979Z</time></trkpt><trkpt lat="43.7796245" lon="7.6617566"><ele>12.0</ele><time>2026-04-18T06:17:14.979Z</time></trkpt><trkpt lat="43.7796609" lon="7.6616035"><ele>12.0</ele><time>2026-04-18T06:17:15.979Z</time></trkpt><trkpt lat="43.7796873" lon="7.6614544"><ele>12.0</ele><time>2026-04-18T06:17:16.979Z</time></trkpt><trkpt lat="43.7797241" lon="7.6613102"><ele>12.0</ele><time>2026-04-18T06:17:17.979Z</time></trkpt><trkpt lat="43.7797735" lon="7.6611722"><ele>12.0</ele><time>2026-04-18T06:17:18.979Z</time></trkpt><trkpt lat="43.7798157" lon="7.6610175"><ele>12.2</ele><time>2026-04-18T06:17:19.979Z</time></trkpt><trkpt lat="43.7798518" lon="7.6608743"><ele>12.399999999999999</ele><time>2026-04-18T06:17:20.979Z</time></trkpt><trkpt lat="43.7798847" lon="7.6607345"><ele>12.600000000000001</ele><time>2026-04-18T06:17:21.979Z</time></trkpt><trkpt lat="43.7799268" lon="7.6605943"><ele>12.8</ele><time>2026-04-18T06:17:22.979Z</time></trkpt><trkpt lat="43.7799667" lon="7.6604426"><ele>13.0</ele><time>2026-04-18T06:17:23.979Z</time></trkpt><trkpt lat="43.780015" lon="7.66028"><ele>13.2</ele><time>2026-04-18T06:17:24.978Z</time></trkpt><trkpt lat="43.7800614" lon="7.6601182"><ele>13.4</ele><time>2026-04-18T06:17:25.979Z</time></trkpt><trkpt lat="43.7800932" lon="7.6599713"><ele>13.599999999999998</ele><time>2026-04-18T06:17:26.979Z</time></trkpt><trkpt lat="43.7801218" lon="7.6598325"><ele>13.799999999999999</ele><time>2026-04-18T06:17:27.979Z</time></trkpt><trkpt lat="43.7801539" lon="7.6597025"><ele>14.0</ele><time>2026-04-18T06:17:28.979Z</time></trkpt><trkpt lat="43.7801819" lon="7.6595617"><ele>13.399999999999999</ele><time>2026-04-18T06:17:29.979Z</time></trkpt><trkpt lat="43.7802173" lon="7.6594147"><ele>12.799999999999999</ele><time>2026-04-18T06:17:30.978Z</time></trkpt><trkpt lat="43.7802505" lon="7.6592684"><ele>12.2</ele><time>2026-04-18T06:17:31.979Z</time></trkpt><trkpt lat="43.780286" lon="7.6591274"><ele>11.600000000000001</ele><time>2026-04-18T06:17:32.979Z</time></trkpt><trkpt lat="43.7803272" lon="7.658981"><ele>11.0</ele><time>2026-04-18T06:17:33.978Z</time></trkpt><trkpt lat="43.7803589" lon="7.6588223"><ele>11.0</ele><time>2026-04-18T06:17:34.979Z</time></trkpt><trkpt lat="43.7804006" lon="7.6586685"><ele>11.0</ele><time>2026-04-18T06:17:35.979Z</time></trkpt><trkpt lat="43.7804465" lon="7.6585127"><ele>11.0</ele><time>2026-04-18T06:17:36.979Z</time></trkpt><trkpt lat="43.7804892" lon="7.6583495"><ele>11.0</ele><time>2026-04-18T06:17:37.979Z</time></trkpt><trkpt lat="43.7805239" lon="7.6581896"><ele>11.0</ele><time>2026-04-18T06:17:38.979Z</time></trkpt><trkpt lat="43.7805603" lon="7.6580405"><ele>11.0</ele><time>2026-04-18T06:17:39.979Z</time></trkpt><trkpt lat="43.7805876" lon="7.6578742"><ele>11.0</ele><time>2026-04-18T06:17:40.979Z</time></trkpt><trkpt lat="43.7806286" lon="7.6577149"><ele>11.0</ele><time>2026-04-18T06:17:41.979Z</time></trkpt><trkpt lat="43.7806646" lon="7.6575544"><ele>10.75</ele><time>2026-04-18T06:17:42.979Z</time></trkpt><trkpt lat="43.7807033" lon="7.6573917"><ele>10.5</ele><time>2026-04-18T06:17:43.978Z</time></trkpt><trkpt lat="43.7807437" lon="7.657235"><ele>10.25</ele><time>2026-04-18T06:17:44.979Z</time></trkpt><trkpt lat="43.7807768" lon="7.6570734"><ele>10.0</ele><time>2026-04-18T06:17:45.979Z</time></trkpt><trkpt lat="43.7808195" lon="7.6569132"><ele>9.75</ele><time>2026-04-18T06:17:46.979Z</time></trkpt><trkpt lat="43.7808582" lon="7.6567598"><ele>9.5</ele><time>2026-04-18T06:17:47.979Z</time></trkpt><trkpt lat="43.7808987" lon="7.6566013"><ele>9.25</ele><time>2026-04-18T06:17:48.979Z</time></trkpt><trkpt lat="43.7809317" lon="7.656438"><ele>9.0</ele><time>2026-04-18T06:17:49.979Z</time></trkpt><trkpt lat="43.7809669" lon="7.6562757"><ele>8.75</ele><time>2026-04-18T06:17:50.979Z</time></trkpt><trkpt lat="43.7809993" lon="7.6561125"><ele>8.5</ele><time>2026-04-18T06:17:51.979Z</time></trkpt><trkpt lat="43.7810385" lon="7.6559484"><ele>8.25</ele><time>2026-04-18T06:17:52.979Z</time></trkpt><trkpt lat="43.7810757" lon="7.6557832"><ele>8.0</ele><time>2026-04-18T06:17:53.979Z</time></trkpt><trkpt lat="43.7811156" lon="7.6556069"><ele>8.25</ele><time>2026-04-18T06:17:54.978Z</time></trkpt><trkpt lat="43.7811532" lon="7.6554362"><ele>8.5</ele><time>2026-04-18T06:17:55.978Z</time></trkpt><trkpt lat="43.7811957" lon="7.6552735"><ele>8.75</ele><time>2026-04-18T06:17:56.979Z</time></trkpt><trkpt lat="43.7812311" lon="7.6551304"><ele>9.0</ele><time>2026-04-18T06:17:57.979Z</time></trkpt><trkpt lat="43.7812672" lon="7.6549883"><ele>9.0</ele><time>2026-04-18T06:17:58.979Z</time></trkpt><trkpt lat="43.7812982" lon="7.6548512"><ele>9.0</ele><time>2026-04-18T06:17:59.979Z</time></trkpt><trkpt lat="43.7813261" lon="7.6547233"><ele>9.0</ele><time>2026-04-18T06:18:00.979Z</time></trkpt><trkpt lat="43.7813535" lon="7.6546101"><ele>9.0</ele><time>2026-04-18T06:18:01.979Z</time></trkpt><trkpt lat="43.7813746" lon="7.6545131"><ele>9.0</ele><time>2026-04-18T06:18:02.979Z</time></trkpt><trkpt lat="43.7813942" lon="7.6544261"><ele>9.0</ele><time>2026-04-18T06:18:03.979Z</time></trkpt><trkpt lat="43.7814368" lon="7.6542765"><ele>9.166666666666666</ele><time>2026-04-18T06:18:05.979Z</time></trkpt><trkpt lat="43.7814757" lon="7.6541239"><ele>9.333333333333334</ele><time>2026-04-18T06:18:07.979Z</time></trkpt><trkpt lat="43.7815035" lon="7.6540261"><ele>9.5</ele><time>2026-04-18T06:18:08.979Z</time></trkpt><trkpt lat="43.7815174" lon="7.6539259"><ele>9.666666666666668</ele><time>2026-04-18T06:18:09.979Z</time></trkpt><trkpt lat="43.781538" lon="7.6538073"><ele>9.833333333333334</ele><time>2026-04-18T06:18:10.978Z</time></trkpt><trkpt lat="43.7815591" lon="7.6536891"><ele>10.0</ele><time>2026-04-18T06:18:11.979Z</time></trkpt><trkpt lat="43.781586" lon="7.6535528"><ele>10.5</ele><time>2026-04-18T06:18:12.979Z</time></trkpt><trkpt lat="43.7816159" lon="7.6534042"><ele>11.0</ele><time>2026-04-18T06:18:13.979Z</time></trkpt><trkpt lat="43.781651" lon="7.6532418"><ele>11.5</ele><time>2026-04-18T06:18:14.979Z</time></trkpt><trkpt lat="43.7816961" lon="7.6530632"><ele>12.0</ele><time>2026-04-18T06:18:15.979Z</time></trkpt><trkpt lat="43.7817506" lon="7.6528786"><ele>11.5</ele><time>2026-04-18T06:18:16.979Z</time></trkpt><trkpt lat="43.781806" lon="7.6526865"><ele>11.0</ele><time>2026-04-18T06:18:17.979Z</time></trkpt><trkpt lat="43.7818608" lon="7.6524921"><ele>10.5</ele><time>2026-04-18T06:18:18.979Z</time></trkpt><trkpt lat="43.7818994" lon="7.6522979"><ele>10.0</ele><time>2026-04-18T06:18:19.979Z</time></trkpt><trkpt lat="43.7819459" lon="7.6520993"><ele>10.0</ele><time>2026-04-18T06:18:20.979Z</time></trkpt><trkpt lat="43.7819906" lon="7.6519066"><ele>10.0</ele><time>2026-04-18T06:18:21.979Z</time></trkpt><trkpt lat="43.7820282" lon="7.6517214"><ele>10.0</ele><time>2026-04-18T06:18:22.979Z</time></trkpt><trkpt lat="43.7820723" lon="7.6515357"><ele>10.0</ele><time>2026-04-18T06:18:23.979Z</time></trkpt><trkpt lat="43.7821198" lon="7.6513531"><ele>10.0</ele><time>2026-04-18T06:18:24.979Z</time></trkpt><trkpt lat="43.7821631" lon="7.6511707"><ele>10.0</ele><time>2026-04-18T06:18:25.978Z</time></trkpt><trkpt lat="43.7821997" lon="7.6509877"><ele>10.0</ele><time>2026-04-18T06:18:26.979Z</time></trkpt><trkpt lat="43.7822401" lon="7.6508054"><ele>10.0</ele><time>2026-04-18T06:18:27.979Z</time></trkpt><trkpt lat="43.782284" lon="7.6506185"><ele>10.25</ele><time>2026-04-18T06:18:28.979Z</time></trkpt><trkpt lat="43.7823314" lon="7.6504352"><ele>10.5</ele><time>2026-04-18T06:18:29.979Z</time></trkpt><trkpt lat="43.7823767" lon="7.6502509"><ele>10.75</ele><time>2026-04-18T06:18:30.979Z</time></trkpt><trkpt lat="43.7824208" lon="7.6500689"><ele>11.0</ele><time>2026-04-18T06:18:31.979Z</time></trkpt><trkpt lat="43.7824642" lon="7.649889"><ele>11.0</ele><time>2026-04-18T06:18:32.979Z</time></trkpt><trkpt lat="43.7825045" lon="7.6497065"><ele>11.0</ele><time>2026-04-18T06:18:33.979Z</time></trkpt><trkpt lat="43.7825442" lon="7.6495362"><ele>11.0</ele><time>2026-04-18T06:18:34.979Z</time></trkpt><trkpt lat="43.7825874" lon="7.6493692"><ele>11.0</ele><time>2026-04-18T06:18:35.979Z</time></trkpt><trkpt lat="43.7826225" lon="7.6492114"><ele>10.4</ele><time>2026-04-18T06:18:36.979Z</time></trkpt><trkpt lat="43.7826534" lon="7.649073"><ele>9.8</ele><time>2026-04-18T06:18:37.978Z</time></trkpt><trkpt lat="43.7826814" lon="7.6489336"><ele>9.200000000000001</ele><time>2026-04-18T06:18:38.979Z</time></trkpt><trkpt lat="43.7827133" lon="7.6488075"><ele>8.600000000000001</ele><time>2026-04-18T06:18:39.979Z</time></trkpt><trkpt lat="43.7827468" lon="7.6486932"><ele>8.0</ele><time>2026-04-18T06:18:40.979Z</time></trkpt><trkpt lat="43.7827745" lon="7.6485815"><ele>7.4</ele><time>2026-04-18T06:18:41.979Z</time></trkpt><trkpt lat="43.7827954" lon="7.6484676"><ele>6.800000000000001</ele><time>2026-04-18T06:18:42.979Z</time></trkpt><trkpt lat="43.7828176" lon="7.6483456"><ele>6.2</ele><time>2026-04-18T06:18:43.979Z</time></trkpt><trkpt lat="43.7828469" lon="7.6482171"><ele>5.6</ele><time>2026-04-18T06:18:44.979Z</time></trkpt><trkpt lat="43.7828748" lon="7.648079"><ele>5.0</ele><time>2026-04-18T06:18:45.978Z</time></trkpt><trkpt lat="43.7829109" lon="7.6479428"><ele>5.0</ele><time>2026-04-18T06:18:46.979Z</time></trkpt><trkpt lat="43.7829463" lon="7.6477989"><ele>5.0</ele><time>2026-04-18T06:18:47.979Z</time></trkpt><trkpt lat="43.7829791" lon="7.6476601"><ele>5.0</ele><time>2026-04-18T06:18:48.979Z</time></trkpt><trkpt lat="43.7830142" lon="7.6475155"><ele>5.0</ele><time>2026-04-18T06:18:49.979Z</time></trkpt><trkpt lat="43.7830484" lon="7.6473718"><ele>5.0</ele><time>2026-04-18T06:18:50.979Z</time></trkpt><trkpt lat="43.783081" lon="7.6472254"><ele>5.4</ele><time>2026-04-18T06:18:51.979Z</time></trkpt><trkpt lat="43.7831164" lon="7.6470873"><ele>5.8</ele><time>2026-04-18T06:18:52.979Z</time></trkpt><trkpt lat="43.7831498" lon="7.6469452"><ele>6.199999999999999</ele><time>2026-04-18T06:18:53.979Z</time></trkpt><trkpt lat="43.7831844" lon="7.6468048"><ele>6.6</ele><time>2026-04-18T06:18:54.979Z</time></trkpt><trkpt lat="43.7832214" lon="7.6466602"><ele>7.0</ele><time>2026-04-18T06:18:55.979Z</time></trkpt><trkpt lat="43.7832568" lon="7.6465229"><ele>7.6</ele><time>2026-04-18T06:18:56.979Z</time></trkpt><trkpt lat="43.7832991" lon="7.6463747"><ele>8.2</ele><time>2026-04-18T06:18:57.979Z</time></trkpt><trkpt lat="43.7833317" lon="7.6462351"><ele>8.8</ele><time>2026-04-18T06:18:58.979Z</time></trkpt><trkpt lat="43.7833776" lon="7.6460944"><ele>9.4</ele><time>2026-04-18T06:18:59.979Z</time></trkpt><trkpt lat="43.7834153" lon="7.6459419"><ele>10.0</ele><time>2026-04-18T06:19:00.979Z</time></trkpt><trkpt lat="43.7834537" lon="7.6457831"><ele>10.0</ele><time>2026-04-18T06:19:01.979Z</time></trkpt><trkpt lat="43.7834953" lon="7.6456337"><ele>10.0</ele><time>2026-04-18T06:19:02.979Z</time></trkpt><trkpt lat="43.78355" lon="7.6454891"><ele>10.0</ele><time>2026-04-18T06:19:03.978Z</time></trkpt><trkpt lat="43.7836163" lon="7.6453501"><ele>10.0</ele><time>2026-04-18T06:19:04.979Z</time></trkpt><trkpt lat="43.7836741" lon="7.6452132"><ele>10.0</ele><time>2026-04-18T06:19:05.979Z</time></trkpt><trkpt lat="43.7837265" lon="7.6450865"><ele>10.0</ele><time>2026-04-18T06:19:06.979Z</time></trkpt><trkpt lat="43.7837728" lon="7.6449601"><ele>10.0</ele><time>2026-04-18T06:19:07.979Z</time></trkpt><trkpt lat="43.7838233" lon="7.6448339"><ele>10.0</ele><time>2026-04-18T06:19:08.979Z</time></trkpt><trkpt lat="43.7838741" lon="7.6447091"><ele>10.0</ele><time>2026-04-18T06:19:09.979Z</time></trkpt><trkpt lat="43.7839252" lon="7.6445866"><ele>10.0</ele><time>2026-04-18T06:19:10.979Z</time></trkpt><trkpt lat="43.7839805" lon="7.6444632"><ele>10.0</ele><time>2026-04-18T06:19:11.979Z</time></trkpt><trkpt lat="43.7840368" lon="7.6443423"><ele>10.0</ele><time>2026-04-18T06:19:12.979Z</time></trkpt><trkpt lat="43.7840924" lon="7.6442252"><ele>10.0</ele><time>2026-04-18T06:19:13.979Z</time></trkpt><trkpt lat="43.7841463" lon="7.6441051"><ele>10.0</ele><time>2026-04-18T06:19:14.979Z</time></trkpt><trkpt lat="43.7841996" lon="7.6439874"><ele>10.0</ele><time>2026-04-18T06:19:15.979Z</time></trkpt><trkpt lat="43.7842586" lon="7.6438741"><ele>10.0</ele><time>2026-04-18T06:19:16.979Z</time></trkpt><trkpt lat="43.7843156" lon="7.6437503"><ele>10.0</ele><time>2026-04-18T06:19:17.979Z</time></trkpt><trkpt lat="43.7843691" lon="7.6436267"><ele>10.0</ele><time>2026-04-18T06:19:18.979Z</time></trkpt><trkpt lat="43.7844278" lon="7.6434989"><ele>10.0</ele><time>2026-04-18T06:19:19.979Z</time></trkpt><trkpt lat="43.7844812" lon="7.6433716"><ele>10.0</ele><time>2026-04-18T06:19:20.979Z</time></trkpt><trkpt lat="43.7845343" lon="7.6432511"><ele>10.0</ele><time>2026-04-18T06:19:21.979Z</time></trkpt><trkpt lat="43.7845765" lon="7.6431381"><ele>10.0</ele><time>2026-04-18T06:19:22.979Z</time></trkpt><trkpt lat="43.7846229" lon="7.6430306"><ele>10.0</ele><time>2026-04-18T06:19:23.979Z</time></trkpt><trkpt lat="43.7846687" lon="7.6429166"><ele>10.0</ele><time>2026-04-18T06:19:24.979Z</time></trkpt><trkpt lat="43.784716" lon="7.6427947"><ele>9.6</ele><time>2026-04-18T06:19:25.979Z</time></trkpt><trkpt lat="43.7847652" lon="7.6426861"><ele>9.2</ele><time>2026-04-18T06:19:26.979Z</time></trkpt><trkpt lat="43.7848124" lon="7.6425762"><ele>8.8</ele><time>2026-04-18T06:19:27.979Z</time></trkpt><trkpt lat="43.7848619" lon="7.6424613"><ele>8.4</ele><time>2026-04-18T06:19:28.978Z</time></trkpt><trkpt lat="43.7849092" lon="7.6423437"><ele>8.0</ele><time>2026-04-18T06:19:29.979Z</time></trkpt><trkpt lat="43.7849609" lon="7.6422341"><ele>7.999999999999999</ele><time>2026-04-18T06:19:30.979Z</time></trkpt><trkpt lat="43.7850096" lon="7.6421294"><ele>8.0</ele><time>2026-04-18T06:19:31.979Z</time></trkpt><trkpt lat="43.785055" lon="7.6420207"><ele>8.0</ele><time>2026-04-18T06:19:32.979Z</time></trkpt><trkpt lat="43.785103" lon="7.6419214"><ele>8.0</ele><time>2026-04-18T06:19:33.979Z</time></trkpt><trkpt lat="43.7851427" lon="7.64183"><ele>7.999999999999999</ele><time>2026-04-18T06:19:34.979Z</time></trkpt><trkpt lat="43.7851808" lon="7.6417432"><ele>8.0</ele><time>2026-04-18T06:19:35.979Z</time></trkpt><trkpt lat="43.7852266" lon="7.6416454"><ele>8.166666666666666</ele><time>2026-04-18T06:19:36.979Z</time></trkpt><trkpt lat="43.785265" lon="7.6415523"><ele>8.333333333333332</ele><time>2026-04-18T06:19:37.979Z</time></trkpt><trkpt lat="43.7853044" lon="7.641455"><ele>8.5</ele><time>2026-04-18T06:19:38.979Z</time></trkpt><trkpt lat="43.7853482" lon="7.6413514"><ele>8.666666666666666</ele><time>2026-04-18T06:19:39.979Z</time></trkpt><trkpt lat="43.7853963" lon="7.6412453"><ele>8.833333333333334</ele><time>2026-04-18T06:19:40.979Z</time></trkpt><trkpt lat="43.7854468" lon="7.6411285"><ele>9.0</ele><time>2026-04-18T06:19:41.979Z</time></trkpt><trkpt lat="43.7855064" lon="7.6410073"><ele>9.6</ele><time>2026-04-18T06:19:42.979Z</time></trkpt><trkpt lat="43.785559" lon="7.6408788"><ele>10.2</ele><time>2026-04-18T06:19:43.979Z</time></trkpt><trkpt lat="43.7856153" lon="7.6407413"><ele>10.799999999999999</ele><time>2026-04-18T06:19:44.979Z</time></trkpt><trkpt lat="43.7856721" lon="7.6406102"><ele>11.4</ele><time>2026-04-18T06:19:45.979Z</time></trkpt><trkpt lat="43.7857285" lon="7.64048"><ele>12.0</ele><time>2026-04-18T06:19:46.979Z</time></trkpt><trkpt lat="43.7857864" lon="7.6403479"><ele>11.8</ele><time>2026-04-18T06:19:47.979Z</time></trkpt><trkpt lat="43.78584" lon="7.6402199"><ele>11.6</ele><time>2026-04-18T06:19:48.979Z</time></trkpt><trkpt lat="43.7858879" lon="7.640094"><ele>11.4</ele><time>2026-04-18T06:19:49.979Z</time></trkpt><trkpt lat="43.7859541" lon="7.6399838"><ele>11.200000000000001</ele><time>2026-04-18T06:19:50.979Z</time></trkpt><trkpt lat="43.7860038" lon="7.6398726"><ele>11.0</ele><time>2026-04-18T06:19:51.979Z</time></trkpt><trkpt lat="43.7860482" lon="7.6397682"><ele>11.0</ele><time>2026-04-18T06:19:52.979Z</time></trkpt><trkpt lat="43.7860966" lon="7.6396498"><ele>11.0</ele><time>2026-04-18T06:19:53.979Z</time></trkpt><trkpt lat="43.7861508" lon="7.6395253"><ele>11.0</ele><time>2026-04-18T06:19:54.979Z</time></trkpt><trkpt lat="43.7862002" lon="7.6393998"><ele>11.0</ele><time>2026-04-18T06:19:55.979Z</time></trkpt><trkpt lat="43.7862466" lon="7.6392896"><ele>11.0</ele><time>2026-04-18T06:19:56.978Z</time></trkpt><trkpt lat="43.7862947" lon="7.6391825"><ele>11.200000000000001</ele><time>2026-04-18T06:19:57.979Z</time></trkpt><trkpt lat="43.7863475" lon="7.639063"><ele>11.4</ele><time>2026-04-18T06:19:58.979Z</time></trkpt><trkpt lat="43.7863939" lon="7.6389444"><ele>11.6</ele><time>2026-04-18T06:19:59.979Z</time></trkpt><trkpt lat="43.7864423" lon="7.6388279"><ele>11.8</ele><time>2026-04-18T06:20:00.979Z</time></trkpt><trkpt lat="43.7864896" lon="7.6387162"><ele>12.0</ele><time>2026-04-18T06:20:01.979Z</time></trkpt><trkpt lat="43.7865424" lon="7.6385977"><ele>12.166666666666666</ele><time>2026-04-18T06:20:02.979Z</time></trkpt><trkpt lat="43.7865855" lon="7.6384958"><ele>12.333333333333332</ele><time>2026-04-18T06:20:03.979Z</time></trkpt><trkpt lat="43.7866274" lon="7.6384072"><ele>12.5</ele><time>2026-04-18T06:20:04.979Z</time></trkpt><trkpt lat="43.7866673" lon="7.6383182"><ele>12.666666666666666</ele><time>2026-04-18T06:20:05.979Z</time></trkpt><trkpt lat="43.786702" lon="7.6382259"><ele>12.833333333333332</ele><time>2026-04-18T06:20:06.979Z</time></trkpt><trkpt lat="43.7867459" lon="7.638119"><ele>13.0</ele><time>2026-04-18T06:20:07.979Z</time></trkpt><trkpt lat="43.7867875" lon="7.6380259"><ele>12.999999999999998</ele><time>2026-04-18T06:20:08.979Z</time></trkpt><trkpt lat="43.7868335" lon="7.6379406"><ele>13.0</ele><time>2026-04-18T06:20:09.979Z</time></trkpt><trkpt lat="43.7868827" lon="7.6378561"><ele>13.0</ele><time>2026-04-18T06:20:10.979Z</time></trkpt><trkpt lat="43.7869277" lon="7.637761"><ele>13.0</ele><time>2026-04-18T06:20:11.979Z</time></trkpt><trkpt lat="43.7869721" lon="7.6376662"><ele>12.999999999999998</ele><time>2026-04-18T06:20:12.979Z</time></trkpt><trkpt lat="43.7870226" lon="7.6375732"><ele>13.0</ele><time>2026-04-18T06:20:13.978Z</time></trkpt><trkpt lat="43.787059" lon="7.6374882"><ele>13.0</ele><time>2026-04-18T06:20:14.979Z</time></trkpt><trkpt lat="43.7871066" lon="7.6373973"><ele>13.0</ele><time>2026-04-18T06:20:15.979Z</time></trkpt><trkpt lat="43.7871548" lon="7.6372962"><ele>13.0</ele><time>2026-04-18T06:20:16.979Z</time></trkpt><trkpt lat="43.787198" lon="7.6372171"><ele>13.0</ele><time>2026-04-18T06:20:17.979Z</time></trkpt><trkpt lat="43.7872392" lon="7.6371488"><ele>13.0</ele><time>2026-04-18T06:20:18.979Z</time></trkpt><trkpt lat="43.7872791" lon="7.6370672"><ele>13.0</ele><time>2026-04-18T06:20:19.979Z</time></trkpt><trkpt lat="43.7873132" lon="7.6369917"><ele>13.0</ele><time>2026-04-18T06:20:20.979Z</time></trkpt><trkpt lat="43.787375" lon="7.6368562"><ele>12.666666666666666</ele><time>2026-04-18T06:20:22.979Z</time></trkpt><trkpt lat="43.7874097" lon="7.6367824"><ele>12.333333333333332</ele><time>2026-04-18T06:20:23.979Z</time></trkpt><trkpt lat="43.7874438" lon="7.636696"><ele>12.0</ele><time>2026-04-18T06:20:24.979Z</time></trkpt><trkpt lat="43.7874854" lon="7.6366128"><ele>11.666666666666666</ele><time>2026-04-18T06:20:25.979Z</time></trkpt><trkpt lat="43.7875335" lon="7.6365022"><ele>11.333333333333332</ele><time>2026-04-18T06:20:26.979Z</time></trkpt><trkpt lat="43.7875828" lon="7.6363829"><ele>11.0</ele><time>2026-04-18T06:20:27.979Z</time></trkpt><trkpt lat="43.7876329" lon="7.6362684"><ele>11.0</ele><time>2026-04-18T06:20:28.979Z</time></trkpt><trkpt lat="43.7876803" lon="7.6361662"><ele>11.0</ele><time>2026-04-18T06:20:29.979Z</time></trkpt><trkpt lat="43.7877186" lon="7.6360635"><ele>11.0</ele><time>2026-04-18T06:20:30.979Z</time></trkpt><trkpt lat="43.7877582" lon="7.6359671"><ele>11.0</ele><time>2026-04-18T06:20:31.979Z</time></trkpt><trkpt lat="43.7877932" lon="7.6358746"><ele>11.0</ele><time>2026-04-18T06:20:32.979Z</time></trkpt><trkpt lat="43.787855" lon="7.6357365"><ele>11.0</ele><time>2026-04-18T06:20:34.979Z</time></trkpt><trkpt lat="43.7879102" lon="7.6356013"><ele>11.0</ele><time>2026-04-18T06:20:36.979Z</time></trkpt><trkpt lat="43.7879738" lon="7.6354461"><ele>11.0</ele><time>2026-04-18T06:20:38.979Z</time></trkpt><trkpt lat="43.788012" lon="7.6353706"><ele>11.0</ele><time>2026-04-18T06:20:39.979Z</time></trkpt><trkpt lat="43.7880754" lon="7.6352245"><ele>11.0</ele><time>2026-04-18T06:20:41.979Z</time></trkpt><trkpt lat="43.7881126" lon="7.6351506"><ele>11.0</ele><time>2026-04-18T06:20:42.979Z</time></trkpt><trkpt lat="43.788155" lon="7.6350632"><ele>10.833333333333332</ele><time>2026-04-18T06:20:43.978Z</time></trkpt><trkpt lat="43.7882004" lon="7.6349685"><ele>10.666666666666666</ele><time>2026-04-18T06:20:44.979Z</time></trkpt><trkpt lat="43.7882434" lon="7.6348711"><ele>10.5</ele><time>2026-04-18T06:20:45.979Z</time></trkpt><trkpt lat="43.7882812" lon="7.6347753"><ele>10.333333333333334</ele><time>2026-04-18T06:20:46.979Z</time></trkpt><trkpt lat="43.7883223" lon="7.63468"><ele>10.166666666666668</ele><time>2026-04-18T06:20:47.979Z</time></trkpt><trkpt lat="43.7883637" lon="7.6345793"><ele>10.0</ele><time>2026-04-18T06:20:48.978Z</time></trkpt><trkpt lat="43.7884071" lon="7.6344757"><ele>10.0</ele><time>2026-04-18T06:20:49.979Z</time></trkpt><trkpt lat="43.7884515" lon="7.6343792"><ele>10.0</ele><time>2026-04-18T06:20:50.979Z</time></trkpt><trkpt lat="43.78849" lon="7.634287"><ele>10.0</ele><time>2026-04-18T06:20:51.979Z</time></trkpt><trkpt lat="43.7885244" lon="7.6342029"><ele>10.0</ele><time>2026-04-18T06:20:52.979Z</time></trkpt><trkpt lat="43.7885823" lon="7.6340867"><ele>10.0</ele><time>2026-04-18T06:20:54.978Z</time></trkpt><trkpt lat="43.7886215" lon="7.6340162"><ele>10.0</ele><time>2026-04-18T06:20:57.979Z</time></trkpt><trkpt lat="43.7886681" lon="7.6339067"><ele>10.0</ele><time>2026-04-18T06:20:59.978Z</time></trkpt><trkpt lat="43.7887018" lon="7.6338325"><ele>10.0</ele><time>2026-04-18T06:21:00.979Z</time></trkpt><trkpt lat="43.7887356" lon="7.6337501"><ele>10.0</ele><time>2026-04-18T06:21:01.979Z</time></trkpt><trkpt lat="43.7888023" lon="7.6336131"><ele>10.0</ele><time>2026-04-18T06:21:03.978Z</time></trkpt><trkpt lat="43.7888526" lon="7.6334976"><ele>10.0</ele><time>2026-04-18T06:21:05.979Z</time></trkpt><trkpt lat="43.7889068" lon="7.6333706"><ele>9.8</ele><time>2026-04-18T06:21:07.979Z</time></trkpt><trkpt lat="43.7889602" lon="7.6332342"><ele>9.6</ele><time>2026-04-18T06:21:09.978Z</time></trkpt><trkpt lat="43.7890231" lon="7.6331035"><ele>9.4</ele><time>2026-04-18T06:21:11.979Z</time></trkpt><trkpt lat="43.78915" lon="7.6330948"><ele>9.2</ele><time>2026-04-18T06:21:13.979Z</time></trkpt><trkpt lat="43.789229" lon="7.6331352"><ele>9.0</ele><time>2026-04-18T06:21:14.979Z</time></trkpt><trkpt lat="43.7893354" lon="7.6331652"><ele>9.0</ele><time>2026-04-18T06:21:15.979Z</time></trkpt><trkpt lat="43.7894308" lon="7.6331883"><ele>9.0</ele><time>2026-04-18T06:21:16.979Z</time></trkpt><trkpt lat="43.7895375" lon="7.6332245"><ele>9.0</ele><time>2026-04-18T06:21:17.979Z</time></trkpt><trkpt lat="43.7896466" lon="7.6332669"><ele>9.0</ele><time>2026-04-18T06:21:18.979Z</time></trkpt><trkpt lat="43.7897567" lon="7.6333225"><ele>9.0</ele><time>2026-04-18T06:21:19.978Z</time></trkpt><trkpt lat="43.78986" lon="7.6333945"><ele>9.0</ele><time>2026-04-18T06:21:20.979Z</time></trkpt><trkpt lat="43.7899534" lon="7.6334824"><ele>9.0</ele><time>2026-04-18T06:21:21.979Z</time></trkpt><trkpt lat="43.7900422" lon="7.6335718"><ele>9.0</ele><time>2026-04-18T06:21:22.979Z</time></trkpt><trkpt lat="43.79012" lon="7.6336608"><ele>9.0</ele><time>2026-04-18T06:21:23.979Z</time></trkpt><trkpt lat="43.7902018" lon="7.6337437"><ele>9.0</ele><time>2026-04-18T06:21:24.979Z</time></trkpt><trkpt lat="43.7902762" lon="7.6338267"><ele>8.666666666666666</ele><time>2026-04-18T06:21:25.979Z</time></trkpt><trkpt lat="43.7903462" lon="7.6339036"><ele>8.333333333333334</ele><time>2026-04-18T06:21:26.979Z</time></trkpt><trkpt lat="43.7904132" lon="7.6339692"><ele>8.0</ele><time>2026-04-18T06:21:27.979Z</time></trkpt><trkpt lat="43.7904714" lon="7.6340369"><ele>7.666666666666667</ele><time>2026-04-18T06:21:28.979Z</time></trkpt><trkpt lat="43.7905238" lon="7.6340928"><ele>7.333333333333334</ele><time>2026-04-18T06:21:29.979Z</time></trkpt><trkpt lat="43.7906149" lon="7.6342024"><ele>7.0</ele><time>2026-04-18T06:21:31.979Z</time></trkpt><trkpt lat="43.7906671" lon="7.6342657"><ele>7.000000000000001</ele><time>2026-04-18T06:21:32.979Z</time></trkpt><trkpt lat="43.7907207" lon="7.6343187"><ele>7.0</ele><time>2026-04-18T06:21:33.979Z</time></trkpt><trkpt lat="43.7908026" lon="7.6343118"><ele>7.0</ele><time>2026-04-18T06:21:34.979Z</time></trkpt><trkpt lat="43.790885" lon="7.6342956"><ele>7.0</ele><time>2026-04-18T06:21:35.979Z</time></trkpt><trkpt lat="43.7909634" lon="7.6342772"><ele>7.000000000000001</ele><time>2026-04-18T06:21:36.979Z</time></trkpt><trkpt lat="43.7910576" lon="7.6342616"><ele>7.0</ele><time>2026-04-18T06:21:37.979Z</time></trkpt><trkpt lat="43.7911599" lon="7.6342459"><ele>6.5</ele><time>2026-04-18T06:21:38.979Z</time></trkpt><trkpt lat="43.7912752" lon="7.6342283"><ele>6.0</ele><time>2026-04-18T06:21:39.979Z</time></trkpt><trkpt lat="43.7913926" lon="7.6342025"><ele>5.5</ele><time>2026-04-18T06:21:40.979Z</time></trkpt><trkpt lat="43.791515" lon="7.6341918"><ele>5.0</ele><time>2026-04-18T06:21:41.979Z</time></trkpt><trkpt lat="43.7916377" lon="7.634179"><ele>5.0</ele><time>2026-04-18T06:21:42.979Z</time></trkpt><trkpt lat="43.7917672" lon="7.634169"><ele>5.0</ele><time>2026-04-18T06:21:43.979Z</time></trkpt><trkpt lat="43.7918999" lon="7.6341639"><ele>5.0</ele><time>2026-04-18T06:21:44.979Z</time></trkpt><trkpt lat="43.7920366" lon="7.6341564"><ele>5.0</ele><time>2026-04-18T06:21:45.979Z</time></trkpt><trkpt lat="43.7921738" lon="7.6341567"><ele>5.25</ele><time>2026-04-18T06:21:46.978Z</time></trkpt><trkpt lat="43.7923163" lon="7.6341655"><ele>5.5</ele><time>2026-04-18T06:21:47.979Z</time></trkpt><trkpt lat="43.7924649" lon="7.6341726"><ele>5.75</ele><time>2026-04-18T06:21:48.979Z</time></trkpt><trkpt lat="43.7926081" lon="7.634184"><ele>6.0</ele><time>2026-04-18T06:21:49.979Z</time></trkpt><trkpt lat="43.7927567" lon="7.6341942"><ele>6.5</ele><time>2026-04-18T06:21:50.979Z</time></trkpt><trkpt lat="43.7929045" lon="7.6342061"><ele>7.0</ele><time>2026-04-18T06:21:51.979Z</time></trkpt><trkpt lat="43.7930548" lon="7.6342128"><ele>7.5</ele><time>2026-04-18T06:21:52.979Z</time></trkpt><trkpt lat="43.7932058" lon="7.6342118"><ele>8.0</ele><time>2026-04-18T06:21:53.979Z</time></trkpt><trkpt lat="43.7933605" lon="7.6341934"><ele>8.0</ele><time>2026-04-18T06:21:54.979Z</time></trkpt><trkpt lat="43.7935019" lon="7.6341702"><ele>8.0</ele><time>2026-04-18T06:21:55.979Z</time></trkpt><trkpt lat="43.7936301" lon="7.6341376"><ele>8.0</ele><time>2026-04-18T06:21:56.978Z</time></trkpt><trkpt lat="43.7937572" lon="7.6340857"><ele>8.0</ele><time>2026-04-18T06:21:57.979Z</time></trkpt><trkpt lat="43.7938795" lon="7.6340057"><ele>8.25</ele><time>2026-04-18T06:21:58.979Z</time></trkpt><trkpt lat="43.7939931" lon="7.633903"><ele>8.5</ele><time>2026-04-18T06:21:59.979Z</time></trkpt><trkpt lat="43.7941087" lon="7.63379"><ele>8.75</ele><time>2026-04-18T06:22:00.979Z</time></trkpt><trkpt lat="43.7942177" lon="7.6336753"><ele>9.0</ele><time>2026-04-18T06:22:01.979Z</time></trkpt><trkpt lat="43.7943384" lon="7.633556"><ele>9.0</ele><time>2026-04-18T06:22:02.979Z</time></trkpt><trkpt lat="43.7944615" lon="7.633436"><ele>9.0</ele><time>2026-04-18T06:22:03.978Z</time></trkpt><trkpt lat="43.7945848" lon="7.6333177"><ele>9.0</ele><time>2026-04-18T06:22:04.978Z</time></trkpt><trkpt lat="43.7947078" lon="7.6331984"><ele>9.0</ele><time>2026-04-18T06:22:05.979Z</time></trkpt><trkpt lat="43.7948327" lon="7.6330951"><ele>9.0</ele><time>2026-04-18T06:22:06.979Z</time></trkpt><trkpt lat="43.7949633" lon="7.6330158"><ele>9.0</ele><time>2026-04-18T06:22:07.979Z</time></trkpt><trkpt lat="43.7950971" lon="7.6329505"><ele>9.0</ele><time>2026-04-18T06:22:08.979Z</time></trkpt><trkpt lat="43.7952379" lon="7.6328994"><ele>9.0</ele><time>2026-04-18T06:22:09.979Z</time></trkpt><trkpt lat="43.7953721" lon="7.6328306"><ele>9.0</ele><time>2026-04-18T06:22:10.979Z</time></trkpt><trkpt lat="43.7954987" lon="7.6327448"><ele>9.0</ele><time>2026-04-18T06:22:11.979Z</time></trkpt><trkpt lat="43.7956175" lon="7.6326387"><ele>9.0</ele><time>2026-04-18T06:22:12.979Z</time></trkpt><trkpt lat="43.7957278" lon="7.6325227"><ele>9.0</ele><time>2026-04-18T06:22:13.979Z</time></trkpt><trkpt lat="43.7958316" lon="7.63241"><ele>9.0</ele><time>2026-04-18T06:22:14.979Z</time></trkpt><trkpt lat="43.7959373" lon="7.6323056"><ele>9.0</ele><time>2026-04-18T06:22:15.979Z</time></trkpt><trkpt lat="43.7960308" lon="7.6322129"><ele>9.0</ele><time>2026-04-18T06:22:16.979Z</time></trkpt><trkpt lat="43.7961137" lon="7.6321219"><ele>9.0</ele><time>2026-04-18T06:22:17.979Z</time></trkpt><trkpt lat="43.7961964" lon="7.6320262"><ele>9.0</ele><time>2026-04-18T06:22:18.979Z</time></trkpt><trkpt lat="43.7962762" lon="7.6319368"><ele>9.0</ele><time>2026-04-18T06:22:19.979Z</time></trkpt><trkpt lat="43.7963573" lon="7.6318402"><ele>9.0</ele><time>2026-04-18T06:22:20.979Z</time></trkpt><trkpt lat="43.796439" lon="7.631745"><ele>9.0</ele><time>2026-04-18T06:22:21.978Z</time></trkpt><trkpt lat="43.7965176" lon="7.6316418"><ele>9.0</ele><time>2026-04-18T06:22:22.979Z</time></trkpt><trkpt lat="43.7965987" lon="7.6315341"><ele>9.0</ele><time>2026-04-18T06:22:23.979Z</time></trkpt><trkpt lat="43.7966782" lon="7.6314216"><ele>9.0</ele><time>2026-04-18T06:22:24.979Z</time></trkpt><trkpt lat="43.7967459" lon="7.6313141"><ele>9.0</ele><time>2026-04-18T06:22:25.979Z</time></trkpt><trkpt lat="43.7968145" lon="7.6312098"><ele>9.0</ele><time>2026-04-18T06:22:26.979Z</time></trkpt><trkpt lat="43.7968854" lon="7.6311072"><ele>9.0</ele><time>2026-04-18T06:22:27.978Z</time></trkpt><trkpt lat="43.7969714" lon="7.6310116"><ele>9.0</ele><time>2026-04-18T06:22:28.979Z</time></trkpt><trkpt lat="43.7970725" lon="7.6309298"><ele>9.0</ele><time>2026-04-18T06:22:29.979Z</time></trkpt><trkpt lat="43.7971721" lon="7.6308596"><ele>9.0</ele><time>2026-04-18T06:22:30.979Z</time></trkpt><trkpt lat="43.7972694" lon="7.6308014"><ele>9.0</ele><time>2026-04-18T06:22:31.979Z</time></trkpt><trkpt lat="43.7973633" lon="7.6307504"><ele>9.0</ele><time>2026-04-18T06:22:32.978Z</time></trkpt><trkpt lat="43.7974594" lon="7.6306964"><ele>9.0</ele><time>2026-04-18T06:22:33.979Z</time></trkpt><trkpt lat="43.7975606" lon="7.6306466"><ele>9.0</ele><time>2026-04-18T06:22:34.979Z</time></trkpt><trkpt lat="43.7976609" lon="7.6305981"><ele>9.0</ele><time>2026-04-18T06:22:35.979Z</time></trkpt><trkpt lat="43.7977629" lon="7.63054"><ele>9.0</ele><time>2026-04-18T06:22:36.979Z</time></trkpt><trkpt lat="43.7978639" lon="7.630487"><ele>9.2</ele><time>2026-04-18T06:22:37.979Z</time></trkpt><trkpt lat="43.7979599" lon="7.6304349"><ele>9.4</ele><time>2026-04-18T06:22:38.979Z</time></trkpt><trkpt lat="43.7980559" lon="7.6303822"><ele>9.6</ele><time>2026-04-18T06:22:39.979Z</time></trkpt><trkpt lat="43.7981432" lon="7.6303256"><ele>9.8</ele><time>2026-04-18T06:22:40.979Z</time></trkpt><trkpt lat="43.7982259" lon="7.630268"><ele>10.0</ele><time>2026-04-18T06:22:41.979Z</time></trkpt><trkpt lat="43.7982987" lon="7.6302182"><ele>10.166666666666668</ele><time>2026-04-18T06:22:42.979Z</time></trkpt><trkpt lat="43.798374" lon="7.6301661"><ele>10.333333333333334</ele><time>2026-04-18T06:22:43.979Z</time></trkpt><trkpt lat="43.7984524" lon="7.6301079"><ele>10.5</ele><time>2026-04-18T06:22:44.979Z</time></trkpt><trkpt lat="43.798532" lon="7.6300457"><ele>10.666666666666666</ele><time>2026-04-18T06:22:45.979Z</time></trkpt><trkpt lat="43.7986058" lon="7.6299796"><ele>10.833333333333332</ele><time>2026-04-18T06:22:46.979Z</time></trkpt><trkpt lat="43.7986839" lon="7.6299196"><ele>11.0</ele><time>2026-04-18T06:22:47.979Z</time></trkpt><trkpt lat="43.7987574" lon="7.6298645"><ele>11.0</ele><time>2026-04-18T06:22:48.979Z</time></trkpt><trkpt lat="43.7988323" lon="7.62981"><ele>11.0</ele><time>2026-04-18T06:22:49.979Z</time></trkpt><trkpt lat="43.7989088" lon="7.6297476"><ele>11.0</ele><time>2026-04-18T06:22:50.979Z</time></trkpt><trkpt lat="43.7989902" lon="7.6296801"><ele>11.0</ele><time>2026-04-18T06:22:51.979Z</time></trkpt><trkpt lat="43.7990789" lon="7.6296102"><ele>11.0</ele><time>2026-04-18T06:22:52.979Z</time></trkpt><trkpt lat="43.7991635" lon="7.629546"><ele>11.0</ele><time>2026-04-18T06:22:53.979Z</time></trkpt><trkpt lat="43.7992642" lon="7.6294727"><ele>11.0</ele><time>2026-04-18T06:22:54.979Z</time></trkpt><trkpt lat="43.7993584" lon="7.6293982"><ele>11.0</ele><time>2026-04-18T06:22:55.979Z</time></trkpt><trkpt lat="43.7994535" lon="7.6293146"><ele>11.0</ele><time>2026-04-18T06:22:56.979Z</time></trkpt><trkpt lat="43.7995454" lon="7.6292351"><ele>11.0</ele><time>2026-04-18T06:22:57.979Z</time></trkpt><trkpt lat="43.7996539" lon="7.6291574"><ele>11.0</ele><time>2026-04-18T06:22:58.979Z</time></trkpt><trkpt lat="43.799741" lon="7.6290873"><ele>11.0</ele><time>2026-04-18T06:22:59.979Z</time></trkpt><trkpt lat="43.7998274" lon="7.6290219"><ele>11.0</ele><time>2026-04-18T06:23:00.979Z</time></trkpt><trkpt lat="43.7999269" lon="7.6289712"><ele>11.0</ele><time>2026-04-18T06:23:01.979Z</time></trkpt><trkpt lat="43.8000259" lon="7.6289348"><ele>11.0</ele><time>2026-04-18T06:23:02.979Z</time></trkpt><trkpt lat="43.8001234" lon="7.628899"><ele>11.600000000000001</ele><time>2026-04-18T06:23:03.979Z</time></trkpt><trkpt lat="43.800221" lon="7.6288711"><ele>12.2</ele><time>2026-04-18T06:23:04.979Z</time></trkpt><trkpt lat="43.8003115" lon="7.6288464"><ele>12.799999999999999</ele><time>2026-04-18T06:23:05.979Z</time></trkpt><trkpt lat="43.8004064" lon="7.6288259"><ele>13.399999999999999</ele><time>2026-04-18T06:23:06.979Z</time></trkpt><trkpt lat="43.8005003" lon="7.6288011"><ele>14.0</ele><time>2026-04-18T06:23:07.979Z</time></trkpt><trkpt lat="43.8006008" lon="7.6287746"><ele>14.0</ele><time>2026-04-18T06:23:08.978Z</time></trkpt><trkpt lat="43.8006972" lon="7.6287518"><ele>13.999999999999998</ele><time>2026-04-18T06:23:09.979Z</time></trkpt><trkpt lat="43.800797" lon="7.6287339"><ele>13.999999999999998</ele><time>2026-04-18T06:23:10.979Z</time></trkpt><trkpt lat="43.8009" lon="7.6287136"><ele>14.0</ele><time>2026-04-18T06:23:11.979Z</time></trkpt><trkpt lat="43.8010065" lon="7.6286986"><ele>14.0</ele><time>2026-04-18T06:23:12.979Z</time></trkpt><trkpt lat="43.8011145" lon="7.6286882"><ele>14.0</ele><time>2026-04-18T06:23:13.979Z</time></trkpt><trkpt lat="43.8012221" lon="7.6286734"><ele>13.999999999999998</ele><time>2026-04-18T06:23:14.979Z</time></trkpt><trkpt lat="43.8013327" lon="7.6286554"><ele>13.999999999999998</ele><time>2026-04-18T06:23:15.979Z</time></trkpt><trkpt lat="43.8014396" lon="7.6286371"><ele>14.0</ele><time>2026-04-18T06:23:16.979Z</time></trkpt><trkpt lat="43.801511" lon="7.6286282"><ele>14.0</ele><time>2026-04-18T06:23:17.979Z</time></trkpt><trkpt lat="43.8016076" lon="7.6286197"><ele>14.2</ele><time>2026-04-18T06:23:19.979Z</time></trkpt><trkpt lat="43.8017113" lon="7.6286053"><ele>14.399999999999999</ele><time>2026-04-18T06:23:21.979Z</time></trkpt><trkpt lat="43.8018385" lon="7.6285918"><ele>14.6</ele><time>2026-04-18T06:23:23.979Z</time></trkpt><trkpt lat="43.8019219" lon="7.6285757"><ele>14.8</ele><time>2026-04-18T06:23:24.979Z</time></trkpt><trkpt lat="43.8020116" lon="7.6285493"><ele>15.0</ele><time>2026-04-18T06:23:25.979Z</time></trkpt><trkpt lat="43.8020878" lon="7.6285305"><ele>14.666666666666666</ele><time>2026-04-18T06:23:26.979Z</time></trkpt><trkpt lat="43.8021586" lon="7.6285134"><ele>14.333333333333332</ele><time>2026-04-18T06:23:27.979Z</time></trkpt><trkpt lat="43.8022317" lon="7.6284943"><ele>14.0</ele><time>2026-04-18T06:23:28.979Z</time></trkpt><trkpt lat="43.8023109" lon="7.6284875"><ele>13.666666666666666</ele><time>2026-04-18T06:23:29.978Z</time></trkpt><trkpt lat="43.8023858" lon="7.6284726"><ele>13.333333333333332</ele><time>2026-04-18T06:23:30.979Z</time></trkpt><trkpt lat="43.8024593" lon="7.628461"><ele>13.0</ele><time>2026-04-18T06:23:31.979Z</time></trkpt><trkpt lat="43.8025335" lon="7.6284456"><ele>12.999999999999998</ele><time>2026-04-18T06:23:32.979Z</time></trkpt><trkpt lat="43.8026161" lon="7.6284407"><ele>13.0</ele><time>2026-04-18T06:23:33.979Z</time></trkpt><trkpt lat="43.802697" lon="7.628424"><ele>13.0</ele><time>2026-04-18T06:23:34.978Z</time></trkpt><trkpt lat="43.8027851" lon="7.6284104"><ele>13.0</ele><time>2026-04-18T06:23:35.979Z</time></trkpt><trkpt lat="43.8028744" lon="7.6283961"><ele>12.999999999999998</ele><time>2026-04-18T06:23:36.979Z</time></trkpt><trkpt lat="43.8029712" lon="7.628387"><ele>13.0</ele><time>2026-04-18T06:23:37.979Z</time></trkpt><trkpt lat="43.803065" lon="7.6283876"><ele>13.166666666666666</ele><time>2026-04-18T06:23:38.979Z</time></trkpt><trkpt lat="43.8031528" lon="7.6283923"><ele>13.333333333333332</ele><time>2026-04-18T06:23:39.979Z</time></trkpt><trkpt lat="43.8032428" lon="7.6283926"><ele>13.5</ele><time>2026-04-18T06:23:40.979Z</time></trkpt><trkpt lat="43.8033243" lon="7.6284029"><ele>13.666666666666668</ele><time>2026-04-18T06:23:41.979Z</time></trkpt><trkpt lat="43.8034053" lon="7.6284083"><ele>13.833333333333334</ele><time>2026-04-18T06:23:42.979Z</time></trkpt><trkpt lat="43.8034882" lon="7.6284055"><ele>14.0</ele><time>2026-04-18T06:23:43.979Z</time></trkpt><trkpt lat="43.8035714" lon="7.6283991"><ele>14.166666666666668</ele><time>2026-04-18T06:23:44.979Z</time></trkpt><trkpt lat="43.8036546" lon="7.6283936"><ele>14.333333333333334</ele><time>2026-04-18T06:23:45.979Z</time></trkpt><trkpt lat="43.803737" lon="7.6283984"><ele>14.5</ele><time>2026-04-18T06:23:46.979Z</time></trkpt><trkpt lat="43.8038168" lon="7.6284005"><ele>14.666666666666668</ele><time>2026-04-18T06:23:47.979Z</time></trkpt><trkpt lat="43.8038871" lon="7.6284017"><ele>14.833333333333334</ele><time>2026-04-18T06:23:48.979Z</time></trkpt><trkpt lat="43.8039672" lon="7.628399"><ele>15.0</ele><time>2026-04-18T06:23:49.979Z</time></trkpt><trkpt lat="43.8040304" lon="7.6284011"><ele>15.0</ele><time>2026-04-18T06:23:50.979Z</time></trkpt><trkpt lat="43.8041417" lon="7.628398"><ele>15.0</ele><time>2026-04-18T06:23:52.979Z</time></trkpt><trkpt lat="43.8042544" lon="7.6284001"><ele>15.0</ele><time>2026-04-18T06:23:54.979Z</time></trkpt><trkpt lat="43.8043285" lon="7.628388"><ele>15.0</ele><time>2026-04-18T06:23:55.979Z</time></trkpt><trkpt lat="43.8043994" lon="7.6283379"><ele>15.0</ele><time>2026-04-18T06:23:56.978Z</time></trkpt><trkpt lat="43.8044565" lon="7.6282814"><ele>15.0</ele><time>2026-04-18T06:23:57.979Z</time></trkpt><trkpt lat="43.8045102" lon="7.6282036"><ele>15.2</ele><time>2026-04-18T06:23:58.978Z</time></trkpt><trkpt lat="43.8045701" lon="7.628036"><ele>15.4</ele><time>2026-04-18T06:24:00.979Z</time></trkpt><trkpt lat="43.8046077" lon="7.6279525"><ele>15.600000000000001</ele><time>2026-04-18T06:24:01.979Z</time></trkpt><trkpt lat="43.8046563" lon="7.6278596"><ele>15.8</ele><time>2026-04-18T06:24:02.979Z</time></trkpt><trkpt lat="43.8046965" lon="7.627755"><ele>16.0</ele><time>2026-04-18T06:24:03.979Z</time></trkpt><trkpt lat="43.8047261" lon="7.6276318"><ele>16.2</ele><time>2026-04-18T06:24:04.979Z</time></trkpt><trkpt lat="43.8047344" lon="7.6275051"><ele>16.400000000000002</ele><time>2026-04-18T06:24:05.979Z</time></trkpt><trkpt lat="43.8047432" lon="7.6273826"><ele>16.6</ele><time>2026-04-18T06:24:06.979Z</time></trkpt><trkpt lat="43.8047562" lon="7.6272481"><ele>16.8</ele><time>2026-04-18T06:24:07.979Z</time></trkpt><trkpt lat="43.8047761" lon="7.6271045"><ele>17.0</ele><time>2026-04-18T06:24:08.979Z</time></trkpt><trkpt lat="43.8048012" lon="7.6269675"><ele>16.333333333333336</ele><time>2026-04-18T06:24:09.979Z</time></trkpt><trkpt lat="43.8048238" lon="7.6268456"><ele>15.666666666666668</ele><time>2026-04-18T06:24:10.978Z</time></trkpt><trkpt lat="43.8048387" lon="7.6267384"><ele>15.0</ele><time>2026-04-18T06:24:11.979Z</time></trkpt><trkpt lat="43.8048537" lon="7.6266378"><ele>14.333333333333332</ele><time>2026-04-18T06:24:12.979Z</time></trkpt><trkpt lat="43.8048633" lon="7.6265366"><ele>13.666666666666666</ele><time>2026-04-18T06:24:13.979Z</time></trkpt><trkpt lat="43.8048729" lon="7.6264341"><ele>13.0</ele><time>2026-04-18T06:24:14.979Z</time></trkpt><trkpt lat="43.8048911" lon="7.6263362"><ele>12.999999999999998</ele><time>2026-04-18T06:24:15.979Z</time></trkpt><trkpt lat="43.8049042" lon="7.6262328"><ele>13.0</ele><time>2026-04-18T06:24:16.979Z</time></trkpt><trkpt lat="43.8049271" lon="7.6261224"><ele>13.0</ele><time>2026-04-18T06:24:17.979Z</time></trkpt><trkpt lat="43.8049408" lon="7.626019"><ele>13.0</ele><time>2026-04-18T06:24:18.979Z</time></trkpt><trkpt lat="43.8049478" lon="7.6259218"><ele>12.999999999999998</ele><time>2026-04-18T06:24:19.979Z</time></trkpt><trkpt lat="43.8049612" lon="7.6258115"><ele>13.0</ele><time>2026-04-18T06:24:20.979Z</time></trkpt><trkpt lat="43.8049742" lon="7.6256962"><ele>12.833333333333332</ele><time>2026-04-18T06:24:21.979Z</time></trkpt><trkpt lat="43.8049884" lon="7.6255871"><ele>12.666666666666666</ele><time>2026-04-18T06:24:22.979Z</time></trkpt><trkpt lat="43.804999" lon="7.6254954"><ele>12.5</ele><time>2026-04-18T06:24:23.979Z</time></trkpt><trkpt lat="43.8050196" lon="7.6253484"><ele>12.333333333333332</ele><time>2026-04-18T06:24:25.979Z</time></trkpt><trkpt lat="43.8050434" lon="7.6252385"><ele>12.166666666666666</ele><time>2026-04-18T06:24:27.979Z</time></trkpt><trkpt lat="43.8050698" lon="7.6251333"><ele>12.0</ele><time>2026-04-18T06:24:29.979Z</time></trkpt><trkpt lat="43.8051633" lon="7.6250111"><ele>14.166666666666668</ele><time>2026-04-18T06:24:31.979Z</time></trkpt><trkpt lat="43.8052321" lon="7.6249506"><ele>16.333333333333336</ele><time>2026-04-18T06:24:32.979Z</time></trkpt><trkpt lat="43.8052998" lon="7.6249031"><ele>18.5</ele><time>2026-04-18T06:24:33.979Z</time></trkpt><trkpt lat="43.805367" lon="7.62487"><ele>20.666666666666668</ele><time>2026-04-18T06:24:34.979Z</time></trkpt><trkpt lat="43.8054396" lon="7.6248444"><ele>22.833333333333336</ele><time>2026-04-18T06:24:35.979Z</time></trkpt><trkpt lat="43.8055161" lon="7.6248416"><ele>25.0</ele><time>2026-04-18T06:24:36.979Z</time></trkpt><trkpt lat="43.8055976" lon="7.6248518"><ele>25.000000000000004</ele><time>2026-04-18T06:24:37.979Z</time></trkpt><trkpt lat="43.8056813" lon="7.6248587"><ele>25.0</ele><time>2026-04-18T06:24:38.979Z</time></trkpt><trkpt lat="43.8057602" lon="7.6248739"><ele>25.0</ele><time>2026-04-18T06:24:39.979Z</time></trkpt><trkpt lat="43.805848" lon="7.6248772"><ele>25.0</ele><time>2026-04-18T06:24:40.979Z</time></trkpt><trkpt lat="43.8059377" lon="7.6248809"><ele>25.000000000000004</ele><time>2026-04-18T06:24:41.979Z</time></trkpt><trkpt lat="43.8060278" lon="7.624888"><ele>25.0</ele><time>2026-04-18T06:24:42.979Z</time></trkpt><trkpt lat="43.8061212" lon="7.6248936"><ele>25.2</ele><time>2026-04-18T06:24:43.979Z</time></trkpt><trkpt lat="43.8061983" lon="7.6249001"><ele>25.4</ele><time>2026-04-18T06:24:44.979Z</time></trkpt><trkpt lat="43.806288" lon="7.6249118"><ele>25.6</ele><time>2026-04-18T06:24:45.979Z</time></trkpt><trkpt lat="43.8063824" lon="7.6249224"><ele>25.8</ele><time>2026-04-18T06:24:46.979Z</time></trkpt><trkpt lat="43.8064774" lon="7.624929"><ele>26.0</ele><time>2026-04-18T06:24:47.979Z</time></trkpt><trkpt lat="43.8065774" lon="7.6249354"><ele>26.0</ele><time>2026-04-18T06:24:48.979Z</time></trkpt><trkpt lat="43.806681" lon="7.6249449"><ele>26.0</ele><time>2026-04-18T06:24:49.979Z</time></trkpt><trkpt lat="43.8067867" lon="7.6249501"><ele>26.0</ele><time>2026-04-18T06:24:50.979Z</time></trkpt><trkpt lat="43.8068807" lon="7.624958"><ele>26.0</ele><time>2026-04-18T06:24:51.979Z</time></trkpt><trkpt lat="43.8069757" lon="7.6249674"><ele>26.0</ele><time>2026-04-18T06:24:52.979Z</time></trkpt><trkpt lat="43.8070669" lon="7.6249752"><ele>25.200000000000003</ele><time>2026-04-18T06:24:53.979Z</time></trkpt><trkpt lat="43.8071545" lon="7.6249804"><ele>24.400000000000002</ele><time>2026-04-18T06:24:54.979Z</time></trkpt><trkpt lat="43.8072546" lon="7.6249978"><ele>23.6</ele><time>2026-04-18T06:24:55.979Z</time></trkpt><trkpt lat="43.8073473" lon="7.6250217"><ele>22.8</ele><time>2026-04-18T06:24:56.979Z</time></trkpt><trkpt lat="43.8074516" lon="7.6250435"><ele>22.0</ele><time>2026-04-18T06:24:57.979Z</time></trkpt><trkpt lat="43.8075593" lon="7.6250771"><ele>21.400000000000002</ele><time>2026-04-18T06:24:58.979Z</time></trkpt><trkpt lat="43.807666" lon="7.625107"><ele>20.8</ele><time>2026-04-18T06:24:59.979Z</time></trkpt><trkpt lat="43.8077742" lon="7.6251481"><ele>20.2</ele><time>2026-04-18T06:25:00.979Z</time></trkpt><trkpt lat="43.8078719" lon="7.6251918"><ele>19.6</ele><time>2026-04-18T06:25:01.979Z</time></trkpt><trkpt lat="43.8079708" lon="7.6252313"><ele>19.0</ele><time>2026-04-18T06:25:02.979Z</time></trkpt><trkpt lat="43.808063" lon="7.625277"><ele>18.833333333333332</ele><time>2026-04-18T06:25:03.978Z</time></trkpt><trkpt lat="43.8081599" lon="7.6253268"><ele>18.666666666666664</ele><time>2026-04-18T06:25:04.979Z</time></trkpt><trkpt lat="43.808245" lon="7.6253793"><ele>18.5</ele><time>2026-04-18T06:25:05.979Z</time></trkpt><trkpt lat="43.8083109" lon="7.6254255"><ele>18.333333333333332</ele><time>2026-04-18T06:25:06.979Z</time></trkpt><trkpt lat="43.8083728" lon="7.6254664"><ele>18.166666666666668</ele><time>2026-04-18T06:25:07.979Z</time></trkpt><trkpt lat="43.8084613" lon="7.6255416"><ele>18.0</ele><time>2026-04-18T06:25:09.979Z</time></trkpt><trkpt lat="43.8085218" lon="7.6255872"><ele>18.0</ele><time>2026-04-18T06:25:11.979Z</time></trkpt><trkpt lat="43.8085784" lon="7.6256379"><ele>18.0</ele><time>2026-04-18T06:25:15.979Z</time></trkpt><trkpt lat="43.8086425" lon="7.6256606"><ele>18.0</ele><time>2026-04-18T06:25:38.979Z</time></trkpt><trkpt lat="43.8087203" lon="7.6257283"><ele>18.0</ele><time>2026-04-18T06:25:41.979Z</time></trkpt><trkpt lat="43.8087882" lon="7.6257969"><ele>18.0</ele><time>2026-04-18T06:25:43.979Z</time></trkpt><trkpt lat="43.8088836" lon="7.6258903"><ele>18.0</ele><time>2026-04-18T06:25:45.978Z</time></trkpt><trkpt lat="43.8089389" lon="7.6259374"><ele>18.0</ele><time>2026-04-18T06:25:46.979Z</time></trkpt><trkpt lat="43.8090043" lon="7.6260015"><ele>18.0</ele><time>2026-04-18T06:25:47.979Z</time></trkpt><trkpt lat="43.8090728" lon="7.626071"><ele>18.0</ele><time>2026-04-18T06:25:48.978Z</time></trkpt><trkpt lat="43.8091349" lon="7.6261358"><ele>18.0</ele><time>2026-04-18T06:25:49.979Z</time></trkpt><trkpt lat="43.8091975" lon="7.6261985"><ele>18.0</ele><time>2026-04-18T06:25:50.979Z</time></trkpt><trkpt lat="43.8092681" lon="7.6262618"><ele>18.0</ele><time>2026-04-18T06:25:51.979Z</time></trkpt><trkpt lat="43.8093414" lon="7.6263437"><ele>18.2</ele><time>2026-04-18T06:25:52.979Z</time></trkpt><trkpt lat="43.809425" lon="7.6264138"><ele>18.4</ele><time>2026-04-18T06:25:53.979Z</time></trkpt><trkpt lat="43.8095035" lon="7.6264952"><ele>18.599999999999998</ele><time>2026-04-18T06:25:54.979Z</time></trkpt><trkpt lat="43.8095894" lon="7.6265799"><ele>18.8</ele><time>2026-04-18T06:25:55.979Z</time></trkpt><trkpt lat="43.8096682" lon="7.6266543"><ele>19.0</ele><time>2026-04-18T06:25:56.979Z</time></trkpt><trkpt lat="43.8097515" lon="7.6267298"><ele>19.0</ele><time>2026-04-18T06:25:57.979Z</time></trkpt><trkpt lat="43.8098161" lon="7.6268008"><ele>19.0</ele><time>2026-04-18T06:25:58.979Z</time></trkpt><trkpt lat="43.8098705" lon="7.6268556"><ele>19.0</ele><time>2026-04-18T06:25:59.979Z</time></trkpt><trkpt lat="43.8099485" lon="7.6269463"><ele>19.0</ele><time>2026-04-18T06:26:01.979Z</time></trkpt><trkpt lat="43.8100249" lon="7.6270298"><ele>19.0</ele><time>2026-04-18T06:26:03.979Z</time></trkpt><trkpt lat="43.8101274" lon="7.627135"><ele>18.833333333333332</ele><time>2026-04-18T06:26:05.979Z</time></trkpt><trkpt lat="43.8101969" lon="7.6271881"><ele>18.666666666666664</ele><time>2026-04-18T06:26:06.979Z</time></trkpt><trkpt lat="43.8102671" lon="7.6272513"><ele>18.5</ele><time>2026-04-18T06:26:07.979Z</time></trkpt><trkpt lat="43.8103338" lon="7.6273198"><ele>18.333333333333332</ele><time>2026-04-18T06:26:08.979Z</time></trkpt><trkpt lat="43.8104045" lon="7.6273885"><ele>18.166666666666668</ele><time>2026-04-18T06:26:09.979Z</time></trkpt><trkpt lat="43.8104804" lon="7.6274617"><ele>18.0</ele><time>2026-04-18T06:26:10.978Z</time></trkpt><trkpt lat="43.810553" lon="7.6275346"><ele>18.0</ele><time>2026-04-18T06:26:11.979Z</time></trkpt><trkpt lat="43.810611" lon="7.627587"><ele>18.0</ele><time>2026-04-18T06:26:12.979Z</time></trkpt><trkpt lat="43.8106676" lon="7.6276318"><ele>18.0</ele><time>2026-04-18T06:26:13.978Z</time></trkpt><trkpt lat="43.8107585" lon="7.627705"><ele>18.0</ele><time>2026-04-18T06:26:15.979Z</time></trkpt><trkpt lat="43.8108418" lon="7.6277779"><ele>18.0</ele><time>2026-04-18T06:26:18.979Z</time></trkpt><trkpt lat="43.8109405" lon="7.6278588"><ele>18.5</ele><time>2026-04-18T06:26:20.979Z</time></trkpt><trkpt lat="43.81101" lon="7.6279147"><ele>19.0</ele><time>2026-04-18T06:26:21.979Z</time></trkpt><trkpt lat="43.8111339" lon="7.6279741"><ele>19.5</ele><time>2026-04-18T06:26:22.979Z</time></trkpt><trkpt lat="43.811261" lon="7.6280415"><ele>20.0</ele><time>2026-04-18T06:26:23.979Z</time></trkpt><trkpt lat="43.8113959" lon="7.6281067"><ele>20.0</ele><time>2026-04-18T06:26:24.979Z</time></trkpt><trkpt lat="43.8115398" lon="7.6281756"><ele>20.0</ele><time>2026-04-18T06:26:25.979Z</time></trkpt><trkpt lat="43.8116823" lon="7.6282405"><ele>20.0</ele><time>2026-04-18T06:26:26.979Z</time></trkpt><trkpt lat="43.8118012" lon="7.6282981"><ele>20.0</ele><time>2026-04-18T06:26:27.979Z</time></trkpt><trkpt lat="43.8119227" lon="7.6283509"><ele>21.25</ele><time>2026-04-18T06:26:28.979Z</time></trkpt><trkpt lat="43.8120503" lon="7.6283988"><ele>22.5</ele><time>2026-04-18T06:26:29.979Z</time></trkpt><trkpt lat="43.8121799" lon="7.6284576"><ele>23.75</ele><time>2026-04-18T06:26:30.979Z</time></trkpt><trkpt lat="43.8123043" lon="7.6285196"><ele>25.0</ele><time>2026-04-18T06:26:31.979Z</time></trkpt><trkpt lat="43.8124204" lon="7.6285781"><ele>25.0</ele><time>2026-04-18T06:26:32.979Z</time></trkpt><trkpt lat="43.8125278" lon="7.6286296"><ele>25.0</ele><time>2026-04-18T06:26:33.979Z</time></trkpt><trkpt lat="43.812625" lon="7.6286722"><ele>25.0</ele><time>2026-04-18T06:26:34.979Z</time></trkpt><trkpt lat="43.812715" lon="7.6287121"><ele>25.0</ele><time>2026-04-18T06:26:35.979Z</time></trkpt><trkpt lat="43.8128088" lon="7.6287469"><ele>25.0</ele><time>2026-04-18T06:26:36.979Z</time></trkpt><trkpt lat="43.8128897" lon="7.6287842"><ele>25.0</ele><time>2026-04-18T06:26:37.979Z</time></trkpt><trkpt lat="43.8129816" lon="7.6288335"><ele>25.0</ele><time>2026-04-18T06:26:38.979Z</time></trkpt><trkpt lat="43.8130755" lon="7.6288896"><ele>25.0</ele><time>2026-04-18T06:26:39.979Z</time></trkpt><trkpt lat="43.8131759" lon="7.6289345"><ele>25.0</ele><time>2026-04-18T06:26:40.979Z</time></trkpt><trkpt lat="43.8132539" lon="7.6289807"><ele>25.0</ele><time>2026-04-18T06:26:41.979Z</time></trkpt><trkpt lat="43.8133478" lon="7.6290015"><ele>25.000000000000004</ele><time>2026-04-18T06:26:42.979Z</time></trkpt><trkpt lat="43.8134475" lon="7.6290063"><ele>25.0</ele><time>2026-04-18T06:26:43.979Z</time></trkpt><trkpt lat="43.8135118" lon="7.6289894"><ele>25.0</ele><time>2026-04-18T06:26:44.979Z</time></trkpt><trkpt lat="43.8135819" lon="7.6289706"><ele>25.0</ele><time>2026-04-18T06:26:45.979Z</time></trkpt><trkpt lat="43.8136566" lon="7.6289495"><ele>25.000000000000004</ele><time>2026-04-18T06:26:46.979Z</time></trkpt><trkpt lat="43.8137211" lon="7.6289265"><ele>25.0</ele><time>2026-04-18T06:26:47.979Z</time></trkpt><trkpt lat="43.8137933" lon="7.6289036"><ele>25.166666666666668</ele><time>2026-04-18T06:26:48.979Z</time></trkpt><trkpt lat="43.8138557" lon="7.6288736"><ele>25.333333333333336</ele><time>2026-04-18T06:26:49.978Z</time></trkpt><trkpt lat="43.8139195" lon="7.6288558"><ele>25.5</ele><time>2026-04-18T06:26:50.978Z</time></trkpt><trkpt lat="43.8140267" lon="7.6288045"><ele>25.666666666666664</ele><time>2026-04-18T06:26:52.979Z</time></trkpt><trkpt lat="43.8140893" lon="7.6287696"><ele>25.833333333333332</ele><time>2026-04-18T06:26:53.979Z</time></trkpt><trkpt lat="43.8141532" lon="7.6287035"><ele>26.0</ele><time>2026-04-18T06:26:54.979Z</time></trkpt><trkpt lat="43.8142056" lon="7.6286182"><ele>26.25</ele><time>2026-04-18T06:26:55.979Z</time></trkpt><trkpt lat="43.8142658" lon="7.6285153"><ele>26.5</ele><time>2026-04-18T06:26:56.979Z</time></trkpt><trkpt lat="43.8143424" lon="7.6283811"><ele>26.75</ele><time>2026-04-18T06:26:57.979Z</time></trkpt><trkpt lat="43.8144337" lon="7.6282438"><ele>27.0</ele><time>2026-04-18T06:26:58.979Z</time></trkpt><trkpt lat="43.814546" lon="7.6281275"><ele>28.25</ele><time>2026-04-18T06:26:59.979Z</time></trkpt><trkpt lat="43.8146782" lon="7.6280014"><ele>29.5</ele><time>2026-04-18T06:27:00.979Z</time></trkpt><trkpt lat="43.8147974" lon="7.6279066"><ele>30.75</ele><time>2026-04-18T06:27:01.979Z</time></trkpt><trkpt lat="43.8149153" lon="7.6277875"><ele>32.0</ele><time>2026-04-18T06:27:02.979Z</time></trkpt><trkpt lat="43.8150309" lon="7.6276694"><ele>32.0</ele><time>2026-04-18T06:27:03.979Z</time></trkpt><trkpt lat="43.8151405" lon="7.627571"><ele>32.0</ele><time>2026-04-18T06:27:04.979Z</time></trkpt><trkpt lat="43.8152513" lon="7.6274842"><ele>32.0</ele><time>2026-04-18T06:27:05.978Z</time></trkpt><trkpt lat="43.8153673" lon="7.6274227"><ele>32.0</ele><time>2026-04-18T06:27:06.979Z</time></trkpt><trkpt lat="43.8154914" lon="7.6274057"><ele>33.5</ele><time>2026-04-18T06:27:07.979Z</time></trkpt><trkpt lat="43.8156191" lon="7.6274165"><ele>35.0</ele><time>2026-04-18T06:27:08.979Z</time></trkpt><trkpt lat="43.8157451" lon="7.6274259"><ele>36.5</ele><time>2026-04-18T06:27:09.979Z</time></trkpt><trkpt lat="43.8158563" lon="7.6274376"><ele>38.0</ele><time>2026-04-18T06:27:10.979Z</time></trkpt><trkpt lat="43.8159378" lon="7.6275103"><ele>37.8</ele><time>2026-04-18T06:27:11.979Z</time></trkpt><trkpt lat="43.816031" lon="7.6275903"><ele>37.599999999999994</ele><time>2026-04-18T06:27:12.979Z</time></trkpt><trkpt lat="43.8160993" lon="7.627708"><ele>37.400000000000006</ele><time>2026-04-18T06:27:13.979Z</time></trkpt><trkpt lat="43.8161925" lon="7.6277986"><ele>37.2</ele><time>2026-04-18T06:27:14.979Z</time></trkpt><trkpt lat="43.8162997" lon="7.6278553"><ele>37.0</ele><time>2026-04-18T06:27:15.979Z</time></trkpt><trkpt lat="43.8164131" lon="7.6278824"><ele>37.0</ele><time>2026-04-18T06:27:16.979Z</time></trkpt><trkpt lat="43.8165494" lon="7.6278504"><ele>37.0</ele><time>2026-04-18T06:27:17.979Z</time></trkpt><trkpt lat="43.8167051" lon="7.6278234"><ele>37.0</ele><time>2026-04-18T06:27:18.979Z</time></trkpt><trkpt lat="43.8168658" lon="7.6277967"><ele>38.66666666666667</ele><time>2026-04-18T06:27:19.979Z</time></trkpt><trkpt lat="43.8170335" lon="7.6277775"><ele>40.333333333333336</ele><time>2026-04-18T06:27:20.979Z</time></trkpt><trkpt lat="43.8172005" lon="7.6277548"><ele>42.0</ele><time>2026-04-18T06:27:21.979Z</time></trkpt><trkpt lat="43.8173638" lon="7.6277325"><ele>42.0</ele><time>2026-04-18T06:27:22.979Z</time></trkpt><trkpt lat="43.8175155" lon="7.6277221"><ele>42.0</ele><time>2026-04-18T06:27:23.979Z</time></trkpt><trkpt lat="43.8176639" lon="7.6277067"><ele>42.0</ele><time>2026-04-18T06:27:24.979Z</time></trkpt><trkpt lat="43.8178151" lon="7.6276872"><ele>42.0</ele><time>2026-04-18T06:27:25.979Z</time></trkpt><trkpt lat="43.8179617" lon="7.6276622"><ele>42.0</ele><time>2026-04-18T06:27:26.979Z</time></trkpt><trkpt lat="43.8181216" lon="7.6276453"><ele>42.0</ele><time>2026-04-18T06:27:27.979Z</time></trkpt><trkpt lat="43.8182867" lon="7.6276277"><ele>42.0</ele><time>2026-04-18T06:27:28.979Z</time></trkpt><trkpt lat="43.8184651" lon="7.6276076"><ele>42.0</ele><time>2026-04-18T06:27:29.979Z</time></trkpt><trkpt lat="43.8186437" lon="7.627585"><ele>42.0</ele><time>2026-04-18T06:27:30.979Z</time></trkpt><trkpt lat="43.8188126" lon="7.6275621"><ele>42.0</ele><time>2026-04-18T06:27:31.978Z</time></trkpt><trkpt lat="43.8189827" lon="7.6275441"><ele>42.0</ele><time>2026-04-18T06:27:32.979Z</time></trkpt><trkpt lat="43.8191588" lon="7.6275333"><ele>42.0</ele><time>2026-04-18T06:27:33.979Z</time></trkpt><trkpt lat="43.819333" lon="7.6275254"><ele>42.0</ele><time>2026-04-18T06:27:34.979Z</time></trkpt><trkpt lat="43.8195048" lon="7.6275174"><ele>42.0</ele><time>2026-04-18T06:27:35.979Z</time></trkpt><trkpt lat="43.8196817" lon="7.6275216"><ele>42.0</ele><time>2026-04-18T06:27:36.979Z</time></trkpt><trkpt lat="43.8198499" lon="7.6275578"><ele>42.0</ele><time>2026-04-18T06:27:37.979Z</time></trkpt><trkpt lat="43.8200227" lon="7.6276075"><ele>42.0</ele><time>2026-04-18T06:27:38.979Z</time></trkpt><trkpt lat="43.8201804" lon="7.6276705"><ele>42.0</ele><time>2026-04-18T06:27:39.979Z</time></trkpt><trkpt lat="43.8203274" lon="7.6277234"><ele>42.0</ele><time>2026-04-18T06:27:40.979Z</time></trkpt><trkpt lat="43.8204666" lon="7.6277673"><ele>42.0</ele><time>2026-04-18T06:27:41.979Z</time></trkpt><trkpt lat="43.8205989" lon="7.62782"><ele>42.0</ele><time>2026-04-18T06:27:42.978Z</time></trkpt><trkpt lat="43.8207311" lon="7.6278784"><ele>42.0</ele><time>2026-04-18T06:27:43.979Z</time></trkpt><trkpt lat="43.8208643" lon="7.6279325"><ele>42.0</ele><time>2026-04-18T06:27:44.979Z</time></trkpt><trkpt lat="43.8209972" lon="7.6279837"><ele>42.0</ele><time>2026-04-18T06:27:45.979Z</time></trkpt><trkpt lat="43.8211268" lon="7.6280313"><ele>42.0</ele><time>2026-04-18T06:27:46.979Z</time></trkpt><trkpt lat="43.8212489" lon="7.6280779"><ele>42.0</ele><time>2026-04-18T06:27:47.979Z</time></trkpt><trkpt lat="43.8213667" lon="7.628129"><ele>42.0</ele><time>2026-04-18T06:27:48.979Z</time></trkpt><trkpt lat="43.8214839" lon="7.6281804"><ele>42.0</ele><time>2026-04-18T06:27:49.979Z</time></trkpt><trkpt lat="43.8216047" lon="7.628227"><ele>42.0</ele><time>2026-04-18T06:27:50.979Z</time></trkpt><trkpt lat="43.8217345" lon="7.6282672"><ele>42.0</ele><time>2026-04-18T06:27:51.978Z</time></trkpt><trkpt lat="43.8218676" lon="7.6282967"><ele>42.0</ele><time>2026-04-18T06:27:52.979Z</time></trkpt><trkpt lat="43.8220087" lon="7.6283082"><ele>42.0</ele><time>2026-04-18T06:27:53.979Z</time></trkpt><trkpt lat="43.8221547" lon="7.6283179"><ele>42.0</ele><time>2026-04-18T06:27:54.978Z</time></trkpt><trkpt lat="43.8223085" lon="7.628318"><ele>42.0</ele><time>2026-04-18T06:27:55.979Z</time></trkpt><trkpt lat="43.8224695" lon="7.6283168"><ele>42.0</ele><time>2026-04-18T06:27:56.978Z</time></trkpt><trkpt lat="43.8226377" lon="7.6283214"><ele>42.0</ele><time>2026-04-18T06:27:57.979Z</time></trkpt><trkpt lat="43.822809" lon="7.6283278"><ele>42.0</ele><time>2026-04-18T06:27:58.979Z</time></trkpt><trkpt lat="43.8229754" lon="7.6283395"><ele>42.0</ele><time>2026-04-18T06:27:59.979Z</time></trkpt><trkpt lat="43.8231368" lon="7.6283512"><ele>42.0</ele><time>2026-04-18T06:28:00.979Z</time></trkpt><trkpt lat="43.8232949" lon="7.6283659"><ele>42.0</ele><time>2026-04-18T06:28:01.978Z</time></trkpt><trkpt lat="43.8234623" lon="7.6283793"><ele>41.666666666666664</ele><time>2026-04-18T06:28:02.979Z</time></trkpt><trkpt lat="43.8236325" lon="7.6283885"><ele>41.33333333333333</ele><time>2026-04-18T06:28:03.979Z</time></trkpt><trkpt lat="43.8237976" lon="7.6283966"><ele>41.0</ele><time>2026-04-18T06:28:04.979Z</time></trkpt><trkpt lat="43.8239675" lon="7.628404"><ele>41.0</ele><time>2026-04-18T06:28:05.979Z</time></trkpt><trkpt lat="43.8241313" lon="7.6284109"><ele>41.0</ele><time>2026-04-18T06:28:06.979Z</time></trkpt><trkpt lat="43.8242855" lon="7.6284219"><ele>41.0</ele><time>2026-04-18T06:28:07.979Z</time></trkpt><trkpt lat="43.8244338" lon="7.6284337"><ele>40.666666666666664</ele><time>2026-04-18T06:28:08.978Z</time></trkpt><trkpt lat="43.8245844" lon="7.6284426"><ele>40.333333333333336</ele><time>2026-04-18T06:28:09.979Z</time></trkpt><trkpt lat="43.8247379" lon="7.6284476"><ele>40.0</ele><time>2026-04-18T06:28:10.979Z</time></trkpt><trkpt lat="43.8248936" lon="7.6284441"><ele>40.0</ele><time>2026-04-18T06:28:11.979Z</time></trkpt><trkpt lat="43.8250575" lon="7.6284278"><ele>40.0</ele><time>2026-04-18T06:28:12.979Z</time></trkpt><trkpt lat="43.8252144" lon="7.6283949"><ele>40.0</ele><time>2026-04-18T06:28:13.979Z</time></trkpt><trkpt lat="43.8253709" lon="7.6283456"><ele>40.333333333333336</ele><time>2026-04-18T06:28:14.979Z</time></trkpt><trkpt lat="43.8255505" lon="7.6282781"><ele>40.666666666666664</ele><time>2026-04-18T06:28:15.979Z</time></trkpt><trkpt lat="43.8257277" lon="7.6281945"><ele>41.0</ele><time>2026-04-18T06:28:16.979Z</time></trkpt><trkpt lat="43.8259136" lon="7.628107"><ele>39.666666666666664</ele><time>2026-04-18T06:28:17.979Z</time></trkpt><trkpt lat="43.8261045" lon="7.6280242"><ele>38.333333333333336</ele><time>2026-04-18T06:28:18.979Z</time></trkpt><trkpt lat="43.8262952" lon="7.6279517"><ele>37.0</ele><time>2026-04-18T06:28:19.979Z</time></trkpt><trkpt lat="43.8264745" lon="7.6278805"><ele>39.66666666666667</ele><time>2026-04-18T06:28:20.978Z</time></trkpt><trkpt lat="43.8266543" lon="7.6278057"><ele>42.333333333333336</ele><time>2026-04-18T06:28:21.979Z</time></trkpt><trkpt lat="43.8268278" lon="7.6277316"><ele>45.0</ele><time>2026-04-18T06:28:22.979Z</time></trkpt><trkpt lat="43.827004" lon="7.627683"><ele>47.0</ele><time>2026-04-18T06:28:23.979Z</time></trkpt><trkpt lat="43.8271772" lon="7.6276677"><ele>49.0</ele><time>2026-04-18T06:28:24.979Z</time></trkpt><trkpt lat="43.8273467" lon="7.6276836"><ele>51.0</ele><time>2026-04-18T06:28:25.979Z</time></trkpt><trkpt lat="43.8275173" lon="7.6277179"><ele>48.666666666666664</ele><time>2026-04-18T06:28:26.979Z</time></trkpt><trkpt lat="43.8276833" lon="7.6277577"><ele>46.33333333333333</ele><time>2026-04-18T06:28:27.979Z</time></trkpt><trkpt lat="43.8278485" lon="7.6278017"><ele>44.0</ele><time>2026-04-18T06:28:28.979Z</time></trkpt><trkpt lat="43.8280135" lon="7.6278472"><ele>44.0</ele><time>2026-04-18T06:28:29.979Z</time></trkpt><trkpt lat="43.8281721" lon="7.6278909"><ele>44.0</ele><time>2026-04-18T06:28:30.979Z</time></trkpt><trkpt lat="43.8283258" lon="7.6279284"><ele>44.0</ele><time>2026-04-18T06:28:31.979Z</time></trkpt><trkpt lat="43.8284759" lon="7.6279554"><ele>45.25</ele><time>2026-04-18T06:28:32.979Z</time></trkpt><trkpt lat="43.8286198" lon="7.6279672"><ele>46.5</ele><time>2026-04-18T06:28:33.979Z</time></trkpt><trkpt lat="43.8287535" lon="7.6279772"><ele>47.75</ele><time>2026-04-18T06:28:34.978Z</time></trkpt><trkpt lat="43.8288797" lon="7.6279838"><ele>49.0</ele><time>2026-04-18T06:28:35.979Z</time></trkpt><trkpt lat="43.8290123" lon="7.6279844"><ele>49.0</ele><time>2026-04-18T06:28:36.979Z</time></trkpt><trkpt lat="43.829143" lon="7.6279882"><ele>49.0</ele><time>2026-04-18T06:28:37.979Z</time></trkpt><trkpt lat="43.8292754" lon="7.6279877"><ele>49.0</ele><time>2026-04-18T06:28:38.979Z</time></trkpt><trkpt lat="43.8294084" lon="7.6279848"><ele>49.0</ele><time>2026-04-18T06:28:39.979Z</time></trkpt><trkpt lat="43.8295367" lon="7.6279787"><ele>50.0</ele><time>2026-04-18T06:28:40.979Z</time></trkpt><trkpt lat="43.8296597" lon="7.6279744"><ele>51.0</ele><time>2026-04-18T06:28:41.979Z</time></trkpt><trkpt lat="43.82978" lon="7.6279583"><ele>52.0</ele><time>2026-04-18T06:28:42.979Z</time></trkpt><trkpt lat="43.8298988" lon="7.6279155"><ele>53.0</ele><time>2026-04-18T06:28:43.979Z</time></trkpt><trkpt lat="43.8300196" lon="7.6278676"><ele>53.0</ele><time>2026-04-18T06:28:44.979Z</time></trkpt><trkpt lat="43.8301379" lon="7.6278136"><ele>53.0</ele><time>2026-04-18T06:28:45.979Z</time></trkpt><trkpt lat="43.8302544" lon="7.6277668"><ele>53.0</ele><time>2026-04-18T06:28:46.979Z</time></trkpt><trkpt lat="43.8303736" lon="7.6277289"><ele>53.0</ele><time>2026-04-18T06:28:47.979Z</time></trkpt><trkpt lat="43.8304918" lon="7.6277165"><ele>54.599999999999994</ele><time>2026-04-18T06:28:48.979Z</time></trkpt><trkpt lat="43.8306112" lon="7.6277105"><ele>56.199999999999996</ele><time>2026-04-18T06:28:49.979Z</time></trkpt><trkpt lat="43.8307171" lon="7.6277196"><ele>57.8</ele><time>2026-04-18T06:28:50.979Z</time></trkpt><trkpt lat="43.8308255" lon="7.6277318"><ele>59.4</ele><time>2026-04-18T06:28:51.979Z</time></trkpt><trkpt lat="43.8309369" lon="7.6277436"><ele>61.0</ele><time>2026-04-18T06:28:52.979Z</time></trkpt><trkpt lat="43.8310475" lon="7.6277459"><ele>61.0</ele><time>2026-04-18T06:28:53.979Z</time></trkpt><trkpt lat="43.8311572" lon="7.6277327"><ele>60.99999999999999</ele><time>2026-04-18T06:28:54.979Z</time></trkpt><trkpt lat="43.8312688" lon="7.6277122"><ele>60.99999999999999</ele><time>2026-04-18T06:28:55.979Z</time></trkpt><trkpt lat="43.831383" lon="7.6276859"><ele>61.0</ele><time>2026-04-18T06:28:56.979Z</time></trkpt><trkpt lat="43.8314834" lon="7.6276548"><ele>61.0</ele><time>2026-04-18T06:28:57.979Z</time></trkpt><trkpt lat="43.8315931" lon="7.627619"><ele>61.0</ele><time>2026-04-18T06:28:58.979Z</time></trkpt><trkpt lat="43.8317023" lon="7.6275638"><ele>61.0</ele><time>2026-04-18T06:28:59.979Z</time></trkpt><trkpt lat="43.8318113" lon="7.6274835"><ele>61.0</ele><time>2026-04-18T06:29:00.979Z</time></trkpt><trkpt lat="43.8319225" lon="7.6273919"><ele>61.0</ele><time>2026-04-18T06:29:01.979Z</time></trkpt><trkpt lat="43.8320326" lon="7.6272951"><ele>62.5</ele><time>2026-04-18T06:29:02.979Z</time></trkpt><trkpt lat="43.8321431" lon="7.6271894"><ele>64.0</ele><time>2026-04-18T06:29:03.979Z</time></trkpt><trkpt lat="43.8322521" lon="7.6270845"><ele>65.5</ele><time>2026-04-18T06:29:04.979Z</time></trkpt><trkpt lat="43.8323626" lon="7.6269957"><ele>67.0</ele><time>2026-04-18T06:29:05.979Z</time></trkpt><trkpt lat="43.8324867" lon="7.626938"><ele>67.0</ele><time>2026-04-18T06:29:06.979Z</time></trkpt><trkpt lat="43.8326122" lon="7.6269021"><ele>67.0</ele><time>2026-04-18T06:29:07.978Z</time></trkpt><trkpt lat="43.8327397" lon="7.6268826"><ele>67.0</ele><time>2026-04-18T06:29:08.979Z</time></trkpt><trkpt lat="43.8328728" lon="7.6268903"><ele>67.0</ele><time>2026-04-18T06:29:09.979Z</time></trkpt><trkpt lat="43.8330041" lon="7.6269025"><ele>66.25</ele><time>2026-04-18T06:29:10.978Z</time></trkpt><trkpt lat="43.8331341" lon="7.6269161"><ele>65.5</ele><time>2026-04-18T06:29:11.979Z</time></trkpt><trkpt lat="43.833259" lon="7.6269202"><ele>64.75</ele><time>2026-04-18T06:29:12.979Z</time></trkpt><trkpt lat="43.8333835" lon="7.6269221"><ele>64.0</ele><time>2026-04-18T06:29:13.979Z</time></trkpt><trkpt lat="43.8335021" lon="7.6269224"><ele>64.0</ele><time>2026-04-18T06:29:14.979Z</time></trkpt><trkpt lat="43.8336214" lon="7.6269136"><ele>64.0</ele><time>2026-04-18T06:29:15.979Z</time></trkpt><trkpt lat="43.833738" lon="7.6269015"><ele>64.0</ele><time>2026-04-18T06:29:16.978Z</time></trkpt><trkpt lat="43.8338554" lon="7.6268849"><ele>64.0</ele><time>2026-04-18T06:29:17.979Z</time></trkpt><trkpt lat="43.8339696" lon="7.6268609"><ele>64.0</ele><time>2026-04-18T06:29:18.979Z</time></trkpt><trkpt lat="43.8340821" lon="7.6268349"><ele>64.0</ele><time>2026-04-18T06:29:19.979Z</time></trkpt><trkpt lat="43.8341922" lon="7.6268131"><ele>64.0</ele><time>2026-04-18T06:29:20.979Z</time></trkpt><trkpt lat="43.8343064" lon="7.6267858"><ele>64.0</ele><time>2026-04-18T06:29:21.979Z</time></trkpt><trkpt lat="43.8344207" lon="7.6267535"><ele>62.75</ele><time>2026-04-18T06:29:22.979Z</time></trkpt><trkpt lat="43.8345384" lon="7.6267239"><ele>61.5</ele><time>2026-04-18T06:29:23.979Z</time></trkpt><trkpt lat="43.8346577" lon="7.6267083"><ele>60.25</ele><time>2026-04-18T06:29:24.979Z</time></trkpt><trkpt lat="43.8347813" lon="7.6266864"><ele>59.0</ele><time>2026-04-18T06:29:25.979Z</time></trkpt><trkpt lat="43.8349037" lon="7.6266669"><ele>59.0</ele><time>2026-04-18T06:29:26.979Z</time></trkpt><trkpt lat="43.8350213" lon="7.626646"><ele>59.0</ele><time>2026-04-18T06:29:27.978Z</time></trkpt><trkpt lat="43.8351368" lon="7.6266282"><ele>59.0</ele><time>2026-04-18T06:29:28.979Z</time></trkpt><trkpt lat="43.8352439" lon="7.6266128"><ele>59.0</ele><time>2026-04-18T06:29:29.979Z</time></trkpt><trkpt lat="43.8353553" lon="7.626598"><ele>58.25</ele><time>2026-04-18T06:29:30.979Z</time></trkpt><trkpt lat="43.8354679" lon="7.6265829"><ele>57.5</ele><time>2026-04-18T06:29:31.979Z</time></trkpt><trkpt lat="43.8355822" lon="7.6265801"><ele>56.75</ele><time>2026-04-18T06:29:32.979Z</time></trkpt><trkpt lat="43.8357013" lon="7.6265921"><ele>56.0</ele><time>2026-04-18T06:29:33.979Z</time></trkpt><trkpt lat="43.8358239" lon="7.6266244"><ele>56.0</ele><time>2026-04-18T06:29:34.979Z</time></trkpt><trkpt lat="43.8359366" lon="7.6266741"><ele>56.0</ele><time>2026-04-18T06:29:35.979Z</time></trkpt><trkpt lat="43.8360463" lon="7.6267276"><ele>56.0</ele><time>2026-04-18T06:29:36.979Z</time></trkpt><trkpt lat="43.8361558" lon="7.6267886"><ele>56.0</ele><time>2026-04-18T06:29:37.979Z</time></trkpt><trkpt lat="43.8362615" lon="7.6268375"><ele>58.0</ele><time>2026-04-18T06:29:38.979Z</time></trkpt><trkpt lat="43.8363758" lon="7.6268718"><ele>60.0</ele><time>2026-04-18T06:29:39.979Z</time></trkpt><trkpt lat="43.8364999" lon="7.6268834"><ele>62.0</ele><time>2026-04-18T06:29:40.979Z</time></trkpt><trkpt lat="43.8366216" lon="7.6268739"><ele>64.0</ele><time>2026-04-18T06:29:41.979Z</time></trkpt><trkpt lat="43.8367433" lon="7.6268474"><ele>63.5</ele><time>2026-04-18T06:29:42.979Z</time></trkpt><trkpt lat="43.8368632" lon="7.6268151"><ele>63.0</ele><time>2026-04-18T06:29:43.979Z</time></trkpt><trkpt lat="43.8369837" lon="7.626789"><ele>62.5</ele><time>2026-04-18T06:29:44.979Z</time></trkpt><trkpt lat="43.8371001" lon="7.6267568"><ele>62.0</ele><time>2026-04-18T06:29:45.979Z</time></trkpt><trkpt lat="43.8372211" lon="7.6267306"><ele>62.0</ele><time>2026-04-18T06:29:46.979Z</time></trkpt><trkpt lat="43.8373401" lon="7.6267056"><ele>62.0</ele><time>2026-04-18T06:29:47.979Z</time></trkpt><trkpt lat="43.8374583" lon="7.6266806"><ele>62.0</ele><time>2026-04-18T06:29:48.979Z</time></trkpt><trkpt lat="43.8375736" lon="7.6266526"><ele>62.0</ele><time>2026-04-18T06:29:49.979Z</time></trkpt><trkpt lat="43.8376891" lon="7.6266278"><ele>62.5</ele><time>2026-04-18T06:29:50.979Z</time></trkpt><trkpt lat="43.8378054" lon="7.626627"><ele>63.0</ele><time>2026-04-18T06:29:51.979Z</time></trkpt><trkpt lat="43.837921" lon="7.6266488"><ele>63.5</ele><time>2026-04-18T06:29:52.979Z</time></trkpt><trkpt lat="43.8380241" lon="7.6266979"><ele>64.0</ele><time>2026-04-18T06:29:53.979Z</time></trkpt><trkpt lat="43.8381309" lon="7.62675"><ele>64.0</ele><time>2026-04-18T06:29:54.979Z</time></trkpt><trkpt lat="43.8382368" lon="7.6267991"><ele>64.0</ele><time>2026-04-18T06:29:55.979Z</time></trkpt><trkpt lat="43.8383329" lon="7.6268385"><ele>64.0</ele><time>2026-04-18T06:29:56.979Z</time></trkpt><trkpt lat="43.8384304" lon="7.6268574"><ele>64.0</ele><time>2026-04-18T06:29:57.979Z</time></trkpt><trkpt lat="43.8385298" lon="7.6268637"><ele>64.0</ele><time>2026-04-18T06:29:58.979Z</time></trkpt><trkpt lat="43.8386282" lon="7.6268608"><ele>64.4</ele><time>2026-04-18T06:29:59.979Z</time></trkpt><trkpt lat="43.8387267" lon="7.6268554"><ele>64.80000000000001</ele><time>2026-04-18T06:30:00.979Z</time></trkpt><trkpt lat="43.838826" lon="7.6268482"><ele>65.19999999999999</ele><time>2026-04-18T06:30:01.979Z</time></trkpt><trkpt lat="43.8389297" lon="7.6268374"><ele>65.6</ele><time>2026-04-18T06:30:02.979Z</time></trkpt><trkpt lat="43.8390348" lon="7.6268188"><ele>66.0</ele><time>2026-04-18T06:30:03.979Z</time></trkpt><trkpt lat="43.8391354" lon="7.6267888"><ele>66.0</ele><time>2026-04-18T06:30:04.979Z</time></trkpt><trkpt lat="43.8392354" lon="7.6267387"><ele>66.0</ele><time>2026-04-18T06:30:05.979Z</time></trkpt><trkpt lat="43.8393392" lon="7.6266815"><ele>66.0</ele><time>2026-04-18T06:30:06.979Z</time></trkpt><trkpt lat="43.8394452" lon="7.6266156"><ele>66.0</ele><time>2026-04-18T06:30:07.979Z</time></trkpt><trkpt lat="43.8395411" lon="7.6265337"><ele>66.0</ele><time>2026-04-18T06:30:08.978Z</time></trkpt><trkpt lat="43.8396243" lon="7.6264313"><ele>67.6</ele><time>2026-04-18T06:30:09.979Z</time></trkpt><trkpt lat="43.8397014" lon="7.6263209"><ele>69.19999999999999</ele><time>2026-04-18T06:30:10.979Z</time></trkpt><trkpt lat="43.8397786" lon="7.6262101"><ele>70.80000000000001</ele><time>2026-04-18T06:30:11.979Z</time></trkpt><trkpt lat="43.8398681" lon="7.6261159"><ele>72.4</ele><time>2026-04-18T06:30:12.979Z</time></trkpt><trkpt lat="43.8399725" lon="7.6260508"><ele>74.0</ele><time>2026-04-18T06:30:13.979Z</time></trkpt><trkpt lat="43.8400787" lon="7.6260084"><ele>71.25</ele><time>2026-04-18T06:30:14.979Z</time></trkpt><trkpt lat="43.8401889" lon="7.6259706"><ele>68.5</ele><time>2026-04-18T06:30:15.979Z</time></trkpt><trkpt lat="43.8403033" lon="7.6259411"><ele>65.75</ele><time>2026-04-18T06:30:16.979Z</time></trkpt><trkpt lat="43.840423" lon="7.6259173"><ele>63.0</ele><time>2026-04-18T06:30:17.979Z</time></trkpt><trkpt lat="43.8405519" lon="7.6258944"><ele>63.0</ele><time>2026-04-18T06:30:18.979Z</time></trkpt><trkpt lat="43.8406833" lon="7.6258921"><ele>63.0</ele><time>2026-04-18T06:30:19.979Z</time></trkpt><trkpt lat="43.8408203" lon="7.6259013"><ele>63.0</ele><time>2026-04-18T06:30:20.979Z</time></trkpt><trkpt lat="43.840959" lon="7.6259162"><ele>63.0</ele><time>2026-04-18T06:30:21.979Z</time></trkpt><trkpt lat="43.841093" lon="7.6259249"><ele>62.75</ele><time>2026-04-18T06:30:22.979Z</time></trkpt><trkpt lat="43.8412259" lon="7.6259263"><ele>62.5</ele><time>2026-04-18T06:30:23.979Z</time></trkpt><trkpt lat="43.8413596" lon="7.6259227"><ele>62.25</ele><time>2026-04-18T06:30:24.979Z</time></trkpt><trkpt lat="43.8414889" lon="7.6259141"><ele>62.0</ele><time>2026-04-18T06:30:25.979Z</time></trkpt><trkpt lat="43.8416142" lon="7.6258999"><ele>62.0</ele><time>2026-04-18T06:30:26.979Z</time></trkpt><trkpt lat="43.8417424" lon="7.6258797"><ele>62.0</ele><time>2026-04-18T06:30:27.979Z</time></trkpt><trkpt lat="43.8418668" lon="7.6258603"><ele>62.0</ele><time>2026-04-18T06:30:28.979Z</time></trkpt><trkpt lat="43.841984" lon="7.6258437"><ele>62.0</ele><time>2026-04-18T06:30:29.979Z</time></trkpt><trkpt lat="43.8421024" lon="7.6258185"><ele>61.0</ele><time>2026-04-18T06:30:30.979Z</time></trkpt><trkpt lat="43.8422202" lon="7.6257914"><ele>60.0</ele><time>2026-04-18T06:30:31.979Z</time></trkpt><trkpt lat="43.8423366" lon="7.6257602"><ele>59.0</ele><time>2026-04-18T06:30:32.979Z</time></trkpt><trkpt lat="43.8424502" lon="7.6257058"><ele>58.0</ele><time>2026-04-18T06:30:33.979Z</time></trkpt><trkpt lat="43.8425605" lon="7.6256382"><ele>56.25</ele><time>2026-04-18T06:30:34.979Z</time></trkpt><trkpt lat="43.8426632" lon="7.625565"><ele>54.5</ele><time>2026-04-18T06:30:35.979Z</time></trkpt><trkpt lat="43.8427661" lon="7.6254863"><ele>52.75</ele><time>2026-04-18T06:30:36.979Z</time></trkpt><trkpt lat="43.8428725" lon="7.6254064"><ele>51.0</ele><time>2026-04-18T06:30:37.979Z</time></trkpt><trkpt lat="43.8429814" lon="7.625321"><ele>53.25</ele><time>2026-04-18T06:30:38.979Z</time></trkpt><trkpt lat="43.84309" lon="7.6252393"><ele>55.5</ele><time>2026-04-18T06:30:39.979Z</time></trkpt><trkpt lat="43.8431957" lon="7.6251611"><ele>57.75</ele><time>2026-04-18T06:30:40.978Z</time></trkpt><trkpt lat="43.8433027" lon="7.6250874"><ele>60.0</ele><time>2026-04-18T06:30:41.979Z</time></trkpt><trkpt lat="43.8434252" lon="7.62502"><ele>59.5</ele><time>2026-04-18T06:30:42.979Z</time></trkpt><trkpt lat="43.8435444" lon="7.624962"><ele>59.0</ele><time>2026-04-18T06:30:43.979Z</time></trkpt><trkpt lat="43.8436692" lon="7.6249196"><ele>58.5</ele><time>2026-04-18T06:30:44.979Z</time></trkpt><trkpt lat="43.8437898" lon="7.6248873"><ele>58.0</ele><time>2026-04-18T06:30:45.979Z</time></trkpt><trkpt lat="43.8439012" lon="7.6248538"><ele>58.0</ele><time>2026-04-18T06:30:46.978Z</time></trkpt><trkpt lat="43.8440121" lon="7.624819"><ele>58.0</ele><time>2026-04-18T06:30:47.979Z</time></trkpt><trkpt lat="43.8441269" lon="7.6247852"><ele>58.0</ele><time>2026-04-18T06:30:48.979Z</time></trkpt><trkpt lat="43.8442315" lon="7.6247504"><ele>58.0</ele><time>2026-04-18T06:30:49.979Z</time></trkpt><trkpt lat="43.8443417" lon="7.6247171"><ele>57.5</ele><time>2026-04-18T06:30:50.979Z</time></trkpt><trkpt lat="43.8444552" lon="7.6246811"><ele>57.0</ele><time>2026-04-18T06:30:51.979Z</time></trkpt><trkpt lat="43.8445727" lon="7.6246492"><ele>56.5</ele><time>2026-04-18T06:30:52.979Z</time></trkpt><trkpt lat="43.844696" lon="7.6246217"><ele>56.0</ele><time>2026-04-18T06:30:53.979Z</time></trkpt><trkpt lat="43.8448237" lon="7.6245965"><ele>56.0</ele><time>2026-04-18T06:30:54.979Z</time></trkpt><trkpt lat="43.8449503" lon="7.6245777"><ele>56.0</ele><time>2026-04-18T06:30:55.979Z</time></trkpt><trkpt lat="43.8450754" lon="7.624552"><ele>56.0</ele><time>2026-04-18T06:30:56.979Z</time></trkpt><trkpt lat="43.8452023" lon="7.6245305"><ele>56.0</ele><time>2026-04-18T06:30:57.979Z</time></trkpt><trkpt lat="43.845325" lon="7.6244997"><ele>56.75</ele><time>2026-04-18T06:30:58.979Z</time></trkpt><trkpt lat="43.8454364" lon="7.6244711"><ele>57.5</ele><time>2026-04-18T06:30:59.978Z</time></trkpt><trkpt lat="43.8455579" lon="7.6244212"><ele>58.25</ele><time>2026-04-18T06:31:00.979Z</time></trkpt><trkpt lat="43.845679" lon="7.6243703"><ele>59.0</ele><time>2026-04-18T06:31:01.979Z</time></trkpt><trkpt lat="43.8457872" lon="7.6243319"><ele>59.0</ele><time>2026-04-18T06:31:02.979Z</time></trkpt><trkpt lat="43.8458923" lon="7.6242971"><ele>59.00000000000001</ele><time>2026-04-18T06:31:03.979Z</time></trkpt><trkpt lat="43.8459943" lon="7.6242589"><ele>59.00000000000001</ele><time>2026-04-18T06:31:04.979Z</time></trkpt><trkpt lat="43.846096" lon="7.6242222"><ele>59.0</ele><time>2026-04-18T06:31:05.979Z</time></trkpt><trkpt lat="43.8461941" lon="7.6241811"><ele>59.0</ele><time>2026-04-18T06:31:06.979Z</time></trkpt><trkpt lat="43.8462736" lon="7.6241616"><ele>58.333333333333336</ele><time>2026-04-18T06:31:07.979Z</time></trkpt><trkpt lat="43.8463906" lon="7.6241365"><ele>57.66666666666667</ele><time>2026-04-18T06:31:09.979Z</time></trkpt><trkpt lat="43.8464545" lon="7.6241218"><ele>57.0</ele><time>2026-04-18T06:31:10.979Z</time></trkpt><trkpt lat="43.8465674" lon="7.6240986"><ele>56.33333333333333</ele><time>2026-04-18T06:31:12.979Z</time></trkpt><trkpt lat="43.846632" lon="7.6240872"><ele>55.666666666666664</ele><time>2026-04-18T06:31:13.979Z</time></trkpt><trkpt lat="43.8467064" lon="7.6240742"><ele>55.0</ele><time>2026-04-18T06:31:14.978Z</time></trkpt><trkpt lat="43.8467785" lon="7.6240568"><ele>54.6</ele><time>2026-04-18T06:31:15.979Z</time></trkpt><trkpt lat="43.8468534" lon="7.6240329"><ele>54.2</ele><time>2026-04-18T06:31:16.979Z</time></trkpt><trkpt lat="43.846946" lon="7.6240159"><ele>53.8</ele><time>2026-04-18T06:31:17.979Z</time></trkpt><trkpt lat="43.8470661" lon="7.6240037"><ele>53.4</ele><time>2026-04-18T06:31:18.979Z</time></trkpt><trkpt lat="43.8471707" lon="7.623986"><ele>53.0</ele><time>2026-04-18T06:31:19.979Z</time></trkpt><trkpt lat="43.8472626" lon="7.6239745"><ele>53.0</ele><time>2026-04-18T06:31:20.979Z</time></trkpt><trkpt lat="43.8473532" lon="7.6239593"><ele>53.0</ele><time>2026-04-18T06:31:21.979Z</time></trkpt><trkpt lat="43.8474498" lon="7.6239484"><ele>53.0</ele><time>2026-04-18T06:31:22.979Z</time></trkpt><trkpt lat="43.8475412" lon="7.6239395"><ele>53.0</ele><time>2026-04-18T06:31:23.979Z</time></trkpt><trkpt lat="43.8476331" lon="7.6239227"><ele>53.0</ele><time>2026-04-18T06:31:24.979Z</time></trkpt><trkpt lat="43.8477265" lon="7.6239064"><ele>53.16666666666667</ele><time>2026-04-18T06:31:25.979Z</time></trkpt><trkpt lat="43.8478211" lon="7.6238884"><ele>53.333333333333336</ele><time>2026-04-18T06:31:26.979Z</time></trkpt><trkpt lat="43.8479075" lon="7.6238759"><ele>53.5</ele><time>2026-04-18T06:31:27.979Z</time></trkpt><trkpt lat="43.847987" lon="7.6238657"><ele>53.66666666666667</ele><time>2026-04-18T06:31:28.979Z</time></trkpt><trkpt lat="43.8480611" lon="7.6238545"><ele>53.833333333333336</ele><time>2026-04-18T06:31:29.979Z</time></trkpt><trkpt lat="43.8481375" lon="7.6238398"><ele>54.0</ele><time>2026-04-18T06:31:30.979Z</time></trkpt><trkpt lat="43.8482143" lon="7.6238184"><ele>54.0</ele><time>2026-04-18T06:31:31.979Z</time></trkpt><trkpt lat="43.8482951" lon="7.6238042"><ele>54.0</ele><time>2026-04-18T06:31:32.978Z</time></trkpt><trkpt lat="43.8483775" lon="7.6237879"><ele>54.0</ele><time>2026-04-18T06:31:33.979Z</time></trkpt><trkpt lat="43.8484625" lon="7.6237748"><ele>54.0</ele><time>2026-04-18T06:31:34.979Z</time></trkpt><trkpt lat="43.8485578" lon="7.623761"><ele>54.0</ele><time>2026-04-18T06:31:35.978Z</time></trkpt><trkpt lat="43.8486569" lon="7.6237434"><ele>54.0</ele><time>2026-04-18T06:31:36.979Z</time></trkpt><trkpt lat="43.8487521" lon="7.6237263"><ele>53.800000000000004</ele><time>2026-04-18T06:31:37.979Z</time></trkpt><trkpt lat="43.8488482" lon="7.6237097"><ele>53.60000000000001</ele><time>2026-04-18T06:31:38.979Z</time></trkpt><trkpt lat="43.8489494" lon="7.6237062"><ele>53.4</ele><time>2026-04-18T06:31:39.979Z</time></trkpt><trkpt lat="43.8490424" lon="7.6236943"><ele>53.2</ele><time>2026-04-18T06:31:40.979Z</time></trkpt><trkpt lat="43.8491352" lon="7.6236831"><ele>53.0</ele><time>2026-04-18T06:31:41.978Z</time></trkpt><trkpt lat="43.8492274" lon="7.6236455"><ele>54.333333333333336</ele><time>2026-04-18T06:31:42.979Z</time></trkpt><trkpt lat="43.8493182" lon="7.6236079"><ele>55.66666666666667</ele><time>2026-04-18T06:31:43.979Z</time></trkpt><trkpt lat="43.8494055" lon="7.6235745"><ele>57.0</ele><time>2026-04-18T06:31:44.979Z</time></trkpt><trkpt lat="43.8494868" lon="7.6235455"><ele>58.33333333333333</ele><time>2026-04-18T06:31:45.978Z</time></trkpt><trkpt lat="43.8495655" lon="7.6235066"><ele>59.666666666666664</ele><time>2026-04-18T06:31:46.979Z</time></trkpt><trkpt lat="43.8496535" lon="7.6234583"><ele>61.0</ele><time>2026-04-18T06:31:47.979Z</time></trkpt><trkpt lat="43.8497413" lon="7.6234288"><ele>61.0</ele><time>2026-04-18T06:31:48.979Z</time></trkpt><trkpt lat="43.8498116" lon="7.6233994"><ele>60.99999999999999</ele><time>2026-04-18T06:31:49.979Z</time></trkpt><trkpt lat="43.8499208" lon="7.6233309"><ele>60.99999999999999</ele><time>2026-04-18T06:31:51.979Z</time></trkpt><trkpt lat="43.8500347" lon="7.6232662"><ele>61.0</ele><time>2026-04-18T06:31:53.979Z</time></trkpt><trkpt lat="43.8501028" lon="7.6232315"><ele>61.0</ele><time>2026-04-18T06:31:54.979Z</time></trkpt><trkpt lat="43.8501785" lon="7.6231871"><ele>60.99999999999999</ele><time>2026-04-18T06:31:55.979Z</time></trkpt><trkpt lat="43.850243" lon="7.623144"><ele>61.0</ele><time>2026-04-18T06:31:56.979Z</time></trkpt><trkpt lat="43.8503519" lon="7.6230636"><ele>61.0</ele><time>2026-04-18T06:31:58.979Z</time></trkpt><trkpt lat="43.8504227" lon="7.6230186"><ele>61.0</ele><time>2026-04-18T06:31:59.979Z</time></trkpt><trkpt lat="43.8504953" lon="7.6229822"><ele>60.99999999999999</ele><time>2026-04-18T06:32:00.979Z</time></trkpt><trkpt lat="43.8505657" lon="7.6229673"><ele>61.0</ele><time>2026-04-18T06:32:01.979Z</time></trkpt><trkpt lat="43.8506287" lon="7.6229627"><ele>60.99999999999999</ele><time>2026-04-18T06:32:02.979Z</time></trkpt><trkpt lat="43.8506937" lon="7.6229668"><ele>61.0</ele><time>2026-04-18T06:32:03.979Z</time></trkpt><trkpt lat="43.8508062" lon="7.6230258"><ele>61.0</ele><time>2026-04-18T06:32:05.979Z</time></trkpt><trkpt lat="43.8508728" lon="7.6230682"><ele>61.0</ele><time>2026-04-18T06:32:06.979Z</time></trkpt><trkpt lat="43.8509316" lon="7.6231022"><ele>60.99999999999999</ele><time>2026-04-18T06:32:07.979Z</time></trkpt><trkpt lat="43.850994" lon="7.6231394"><ele>61.0</ele><time>2026-04-18T06:32:08.979Z</time></trkpt><trkpt lat="43.851051" lon="7.623183"><ele>61.49999999999999</ele><time>2026-04-18T06:32:09.979Z</time></trkpt><trkpt lat="43.8511066" lon="7.6232243"><ele>62.0</ele><time>2026-04-18T06:32:10.979Z</time></trkpt><trkpt lat="43.8511722" lon="7.6232617"><ele>62.5</ele><time>2026-04-18T06:32:11.979Z</time></trkpt><trkpt lat="43.8512361" lon="7.6233015"><ele>63.0</ele><time>2026-04-18T06:32:12.979Z</time></trkpt><trkpt lat="43.8512917" lon="7.6233443"><ele>63.49999999999999</ele><time>2026-04-18T06:32:13.979Z</time></trkpt><trkpt lat="43.8513838" lon="7.6234159"><ele>64.0</ele><time>2026-04-18T06:32:15.979Z</time></trkpt><trkpt lat="43.8514779" lon="7.6234754"><ele>64.0</ele><time>2026-04-18T06:32:17.979Z</time></trkpt><trkpt lat="43.8515734" lon="7.6235157"><ele>64.0</ele><time>2026-04-18T06:32:19.979Z</time></trkpt><trkpt lat="43.851682" lon="7.6235788"><ele>64.0</ele><time>2026-04-18T06:32:21.979Z</time></trkpt><trkpt lat="43.8517445" lon="7.6236161"><ele>64.0</ele><time>2026-04-18T06:32:22.979Z</time></trkpt><trkpt lat="43.8518047" lon="7.6236616"><ele>64.0</ele><time>2026-04-18T06:32:23.978Z</time></trkpt><trkpt lat="43.8519026" lon="7.623739"><ele>63.49999999999999</ele><time>2026-04-18T06:32:25.979Z</time></trkpt><trkpt lat="43.8519799" lon="7.6237749"><ele>63.0</ele><time>2026-04-18T06:32:28.978Z</time></trkpt><trkpt lat="43.852044" lon="7.6238464"><ele>62.5</ele><time>2026-04-18T06:32:31.979Z</time></trkpt><trkpt lat="43.8521027" lon="7.6239025"><ele>62.0</ele><time>2026-04-18T06:32:33.979Z</time></trkpt><trkpt lat="43.852205" lon="7.6239922"><ele>61.49999999999999</ele><time>2026-04-18T06:32:35.979Z</time></trkpt><trkpt lat="43.8522651" lon="7.6240435"><ele>61.0</ele><time>2026-04-18T06:32:36.979Z</time></trkpt><trkpt lat="43.852348" lon="7.6240957"><ele>61.0</ele><time>2026-04-18T06:32:37.979Z</time></trkpt><trkpt lat="43.8524226" lon="7.6241508"><ele>60.99999999999999</ele><time>2026-04-18T06:32:38.979Z</time></trkpt><trkpt lat="43.8524944" lon="7.6241994"><ele>60.99999999999999</ele><time>2026-04-18T06:32:39.979Z</time></trkpt><trkpt lat="43.8525673" lon="7.6242374"><ele>61.0</ele><time>2026-04-18T06:32:40.979Z</time></trkpt><trkpt lat="43.8527165" lon="7.624278"><ele>61.0</ele><time>2026-04-18T06:32:42.979Z</time></trkpt><trkpt lat="43.8527974" lon="7.6242996"><ele>61.5</ele><time>2026-04-18T06:32:43.979Z</time></trkpt><trkpt lat="43.8528934" lon="7.624311"><ele>62.0</ele><time>2026-04-18T06:32:44.979Z</time></trkpt><trkpt lat="43.8529892" lon="7.6243034"><ele>62.5</ele><time>2026-04-18T06:32:45.979Z</time></trkpt><trkpt lat="43.8531038" lon="7.6242714"><ele>63.0</ele><time>2026-04-18T06:32:46.979Z</time></trkpt><trkpt lat="43.8532523" lon="7.6242372"><ele>63.0</ele><time>2026-04-18T06:32:47.979Z</time></trkpt><trkpt lat="43.8534064" lon="7.6242075"><ele>63.0</ele><time>2026-04-18T06:32:48.979Z</time></trkpt><trkpt lat="43.8535733" lon="7.6241762"><ele>63.0</ele><time>2026-04-18T06:32:49.979Z</time></trkpt><trkpt lat="43.8537499" lon="7.6241424"><ele>62.0</ele><time>2026-04-18T06:32:50.979Z</time></trkpt><trkpt lat="43.8539193" lon="7.624113"><ele>61.0</ele><time>2026-04-18T06:32:51.979Z</time></trkpt><trkpt lat="43.8540808" lon="7.6240814"><ele>60.0</ele><time>2026-04-18T06:32:52.979Z</time></trkpt><trkpt lat="43.85424" lon="7.6240417"><ele>61.33333333333333</ele><time>2026-04-18T06:32:53.979Z</time></trkpt><trkpt lat="43.8543906" lon="7.6240121"><ele>62.666666666666664</ele><time>2026-04-18T06:32:54.979Z</time></trkpt><trkpt lat="43.8545407" lon="7.6239869"><ele>64.0</ele><time>2026-04-18T06:32:55.979Z</time></trkpt><trkpt lat="43.8546873" lon="7.6239527"><ele>64.0</ele><time>2026-04-18T06:32:56.979Z</time></trkpt><trkpt lat="43.8548488" lon="7.6239186"><ele>64.0</ele><time>2026-04-18T06:32:57.979Z</time></trkpt><trkpt lat="43.8550076" lon="7.6238874"><ele>64.0</ele><time>2026-04-18T06:32:58.979Z</time></trkpt><trkpt lat="43.8551774" lon="7.6238467"><ele>63.33333333333333</ele><time>2026-04-18T06:32:59.979Z</time></trkpt><trkpt lat="43.85536" lon="7.623814"><ele>62.66666666666667</ele><time>2026-04-18T06:33:00.979Z</time></trkpt><trkpt lat="43.8555373" lon="7.6237798"><ele>62.0</ele><time>2026-04-18T06:33:01.979Z</time></trkpt><trkpt lat="43.8557096" lon="7.6237482"><ele>62.0</ele><time>2026-04-18T06:33:02.979Z</time></trkpt><trkpt lat="43.8558846" lon="7.6237167"><ele>62.0</ele><time>2026-04-18T06:33:03.979Z</time></trkpt><trkpt lat="43.8560659" lon="7.6236969"><ele>62.0</ele><time>2026-04-18T06:33:04.979Z</time></trkpt><trkpt lat="43.8562536" lon="7.6236972"><ele>62.333333333333336</ele><time>2026-04-18T06:33:05.979Z</time></trkpt><trkpt lat="43.8564482" lon="7.623717"><ele>62.66666666666667</ele><time>2026-04-18T06:33:06.979Z</time></trkpt><trkpt lat="43.8566418" lon="7.6237496"><ele>63.0</ele><time>2026-04-18T06:33:07.979Z</time></trkpt><trkpt lat="43.8568284" lon="7.6237871"><ele>63.0</ele><time>2026-04-18T06:33:08.979Z</time></trkpt><trkpt lat="43.8569981" lon="7.6238223"><ele>63.0</ele><time>2026-04-18T06:33:09.979Z</time></trkpt><trkpt lat="43.8571627" lon="7.6238584"><ele>63.0</ele><time>2026-04-18T06:33:10.979Z</time></trkpt><trkpt lat="43.8573187" lon="7.6238987"><ele>63.0</ele><time>2026-04-18T06:33:11.979Z</time></trkpt><trkpt lat="43.857463" lon="7.6239324"><ele>63.0</ele><time>2026-04-18T06:33:12.979Z</time></trkpt><trkpt lat="43.8576093" lon="7.6239622"><ele>63.0</ele><time>2026-04-18T06:33:13.979Z</time></trkpt><trkpt lat="43.8577484" lon="7.6239814"><ele>63.0</ele><time>2026-04-18T06:33:14.979Z</time></trkpt><trkpt lat="43.8578659" lon="7.623995"><ele>62.8</ele><time>2026-04-18T06:33:15.979Z</time></trkpt><trkpt lat="43.8579396" lon="7.6239821"><ele>62.599999999999994</ele><time>2026-04-18T06:33:16.979Z</time></trkpt><trkpt lat="43.8580448" lon="7.6239919"><ele>62.400000000000006</ele><time>2026-04-18T06:33:18.978Z</time></trkpt><trkpt lat="43.8581172" lon="7.6239687"><ele>62.2</ele><time>2026-04-18T06:33:19.979Z</time></trkpt><trkpt lat="43.8582292" lon="7.6239551"><ele>62.0</ele><time>2026-04-18T06:33:20.979Z</time></trkpt><trkpt lat="43.8583544" lon="7.6239422"><ele>62.75</ele><time>2026-04-18T06:33:21.979Z</time></trkpt><trkpt lat="43.8585048" lon="7.6239202"><ele>63.5</ele><time>2026-04-18T06:33:22.978Z</time></trkpt><trkpt lat="43.8586521" lon="7.6239063"><ele>64.25</ele><time>2026-04-18T06:33:23.979Z</time></trkpt><trkpt lat="43.8587849" lon="7.623896"><ele>65.0</ele><time>2026-04-18T06:33:24.979Z</time></trkpt><trkpt lat="43.8589077" lon="7.6238847"><ele>65.0</ele><time>2026-04-18T06:33:25.979Z</time></trkpt><trkpt lat="43.8590239" lon="7.6238734"><ele>65.0</ele><time>2026-04-18T06:33:26.979Z</time></trkpt><trkpt lat="43.8591272" lon="7.6238642"><ele>65.0</ele><time>2026-04-18T06:33:27.979Z</time></trkpt><trkpt lat="43.8592247" lon="7.6238546"><ele>65.0</ele><time>2026-04-18T06:33:28.979Z</time></trkpt><trkpt lat="43.8593135" lon="7.6238485"><ele>65.0</ele><time>2026-04-18T06:33:29.979Z</time></trkpt><trkpt lat="43.8593954" lon="7.6238463"><ele>65.16666666666667</ele><time>2026-04-18T06:33:30.978Z</time></trkpt><trkpt lat="43.8594619" lon="7.6238399"><ele>65.33333333333334</ele><time>2026-04-18T06:33:31.979Z</time></trkpt><trkpt lat="43.8595504" lon="7.6238289"><ele>65.5</ele><time>2026-04-18T06:33:33.979Z</time></trkpt><trkpt lat="43.8596447" lon="7.6238264"><ele>65.66666666666667</ele><time>2026-04-18T06:34:30.979Z</time></trkpt><trkpt lat="43.859733" lon="7.6238032"><ele>65.83333333333333</ele><time>2026-04-18T06:34:32.979Z</time></trkpt><trkpt lat="43.8598363" lon="7.6237842"><ele>66.0</ele><time>2026-04-18T06:34:34.979Z</time></trkpt><trkpt lat="43.8599031" lon="7.6237712"><ele>66.0</ele><time>2026-04-18T06:34:35.979Z</time></trkpt><trkpt lat="43.8599777" lon="7.6237528"><ele>66.0</ele><time>2026-04-18T06:34:36.979Z</time></trkpt><trkpt lat="43.8600552" lon="7.623742"><ele>66.0</ele><time>2026-04-18T06:34:37.979Z</time></trkpt><trkpt lat="43.8601377" lon="7.6237289"><ele>66.0</ele><time>2026-04-18T06:34:38.979Z</time></trkpt><trkpt lat="43.8602172" lon="7.6237126"><ele>66.0</ele><time>2026-04-18T06:34:39.979Z</time></trkpt><trkpt lat="43.860296" lon="7.6236884"><ele>66.0</ele><time>2026-04-18T06:34:40.979Z</time></trkpt><trkpt lat="43.8603772" lon="7.6236506"><ele>67.2</ele><time>2026-04-18T06:34:41.979Z</time></trkpt><trkpt lat="43.8604658" lon="7.6236031"><ele>68.39999999999999</ele><time>2026-04-18T06:34:42.979Z</time></trkpt><trkpt lat="43.8605615" lon="7.6235419"><ele>69.6</ele><time>2026-04-18T06:34:43.979Z</time></trkpt><trkpt lat="43.8606592" lon="7.6234758"><ele>70.8</ele><time>2026-04-18T06:34:44.979Z</time></trkpt><trkpt lat="43.8607571" lon="7.6234019"><ele>72.0</ele><time>2026-04-18T06:34:45.978Z</time></trkpt><trkpt lat="43.8608433" lon="7.6233316"><ele>72.0</ele><time>2026-04-18T06:34:46.979Z</time></trkpt><trkpt lat="43.8609196" lon="7.6232653"><ele>72.0</ele><time>2026-04-18T06:34:47.979Z</time></trkpt><trkpt lat="43.8609915" lon="7.6232036"><ele>72.0</ele><time>2026-04-18T06:34:48.979Z</time></trkpt><trkpt lat="43.8610791" lon="7.6231392"><ele>72.0</ele><time>2026-04-18T06:34:49.979Z</time></trkpt><trkpt lat="43.8611648" lon="7.623056"><ele>72.0</ele><time>2026-04-18T06:34:50.978Z</time></trkpt><trkpt lat="43.8612345" lon="7.6229486"><ele>71.8</ele><time>2026-04-18T06:34:51.979Z</time></trkpt><trkpt lat="43.8612875" lon="7.6228264"><ele>71.6</ele><time>2026-04-18T06:34:52.979Z</time></trkpt><trkpt lat="43.8613254" lon="7.6226968"><ele>71.39999999999999</ele><time>2026-04-18T06:34:53.979Z</time></trkpt><trkpt lat="43.8613499" lon="7.6225706"><ele>71.2</ele><time>2026-04-18T06:34:54.978Z</time></trkpt><trkpt lat="43.8613748" lon="7.6224497"><ele>71.0</ele><time>2026-04-18T06:34:55.979Z</time></trkpt><trkpt lat="43.8614134" lon="7.622344"><ele>70.66666666666667</ele><time>2026-04-18T06:34:56.979Z</time></trkpt><trkpt lat="43.8614644" lon="7.6222491"><ele>70.33333333333334</ele><time>2026-04-18T06:34:57.979Z</time></trkpt><trkpt lat="43.8615212" lon="7.6221697"><ele>70.0</ele><time>2026-04-18T06:34:58.979Z</time></trkpt><trkpt lat="43.8615933" lon="7.6221117"><ele>69.66666666666667</ele><time>2026-04-18T06:34:59.979Z</time></trkpt><trkpt lat="43.8616752" lon="7.6220863"><ele>69.33333333333333</ele><time>2026-04-18T06:35:00.979Z</time></trkpt><trkpt lat="43.8617526" lon="7.6220865"><ele>69.0</ele><time>2026-04-18T06:35:01.978Z</time></trkpt><trkpt lat="43.8618351" lon="7.6220924"><ele>70.2</ele><time>2026-04-18T06:35:02.979Z</time></trkpt><trkpt lat="43.8619163" lon="7.6220949"><ele>71.4</ele><time>2026-04-18T06:35:03.979Z</time></trkpt><trkpt lat="43.8620239" lon="7.6220582"><ele>72.6</ele><time>2026-04-18T06:35:05.979Z</time></trkpt><trkpt lat="43.8620982" lon="7.6219405"><ele>73.8</ele><time>2026-04-18T06:35:07.978Z</time></trkpt><trkpt lat="43.8621147" lon="7.6218372"><ele>75.0</ele><time>2026-04-18T06:35:08.979Z</time></trkpt><trkpt lat="43.8621246" lon="7.6217186"><ele>77.5</ele><time>2026-04-18T06:35:09.979Z</time></trkpt><trkpt lat="43.8621344" lon="7.6215726"><ele>80.0</ele><time>2026-04-18T06:35:10.979Z</time></trkpt><trkpt lat="43.8621425" lon="7.6214121"><ele>82.5</ele><time>2026-04-18T06:35:11.979Z</time></trkpt><trkpt lat="43.8621443" lon="7.6212086"><ele>85.0</ele><time>2026-04-18T06:35:12.979Z</time></trkpt><trkpt lat="43.8621405" lon="7.6210084"><ele>84.5</ele><time>2026-04-18T06:35:13.978Z</time></trkpt><trkpt lat="43.8621409" lon="7.6208165"><ele>84.0</ele><time>2026-04-18T06:35:14.979Z</time></trkpt><trkpt lat="43.8621433" lon="7.6206217"><ele>83.5</ele><time>2026-04-18T06:35:15.979Z</time></trkpt><trkpt lat="43.8621285" lon="7.6204361"><ele>83.0</ele><time>2026-04-18T06:35:16.979Z</time></trkpt><trkpt lat="43.862127" lon="7.6202643"><ele>83.0</ele><time>2026-04-18T06:35:17.979Z</time></trkpt><trkpt lat="43.862131" lon="7.6200873"><ele>83.0</ele><time>2026-04-18T06:35:18.979Z</time></trkpt><trkpt lat="43.8621408" lon="7.6199262"><ele>83.0</ele><time>2026-04-18T06:35:19.979Z</time></trkpt><trkpt lat="43.8621568" lon="7.619786"><ele>83.0</ele><time>2026-04-18T06:35:20.979Z</time></trkpt><trkpt lat="43.8622002" lon="7.619675"><ele>83.0</ele><time>2026-04-18T06:35:21.979Z</time></trkpt><trkpt lat="43.8622415" lon="7.6195779"><ele>83.0</ele><time>2026-04-18T06:35:22.979Z</time></trkpt><trkpt lat="43.8623223" lon="7.6194891"><ele>83.0</ele><time>2026-04-18T06:35:23.979Z</time></trkpt><trkpt lat="43.8624178" lon="7.6193834"><ele>83.0</ele><time>2026-04-18T06:35:24.979Z</time></trkpt><trkpt lat="43.8625047" lon="7.6192698"><ele>83.0</ele><time>2026-04-18T06:35:25.979Z</time></trkpt><trkpt lat="43.8625877" lon="7.619167"><ele>83.60000000000001</ele><time>2026-04-18T06:35:26.979Z</time></trkpt><trkpt lat="43.862668" lon="7.6190855"><ele>84.2</ele><time>2026-04-18T06:35:27.979Z</time></trkpt><trkpt lat="43.8627552" lon="7.6190277"><ele>84.8</ele><time>2026-04-18T06:35:28.979Z</time></trkpt><trkpt lat="43.8628499" lon="7.6190028"><ele>85.4</ele><time>2026-04-18T06:35:29.979Z</time></trkpt><trkpt lat="43.8629688" lon="7.6189948"><ele>86.0</ele><time>2026-04-18T06:35:30.979Z</time></trkpt><trkpt lat="43.8630718" lon="7.6189676"><ele>86.0</ele><time>2026-04-18T06:35:31.979Z</time></trkpt><trkpt lat="43.8631634" lon="7.6189073"><ele>86.0</ele><time>2026-04-18T06:35:32.979Z</time></trkpt><trkpt lat="43.8632402" lon="7.6188126"><ele>86.0</ele><time>2026-04-18T06:35:33.978Z</time></trkpt><trkpt lat="43.8633122" lon="7.6186862"><ele>86.0</ele><time>2026-04-18T06:35:34.978Z</time></trkpt><trkpt lat="43.8633772" lon="7.6185282"><ele>88.0</ele><time>2026-04-18T06:35:35.979Z</time></trkpt><trkpt lat="43.8634396" lon="7.6183445"><ele>90.0</ele><time>2026-04-18T06:35:36.979Z</time></trkpt><trkpt lat="43.8635035" lon="7.6181615"><ele>92.0</ele><time>2026-04-18T06:35:37.979Z</time></trkpt><trkpt lat="43.8635634" lon="7.6179714"><ele>94.0</ele><time>2026-04-18T06:35:38.979Z</time></trkpt><trkpt lat="43.8636283" lon="7.617785"><ele>94.0</ele><time>2026-04-18T06:35:39.979Z</time></trkpt><trkpt lat="43.8636884" lon="7.6175941"><ele>94.0</ele><time>2026-04-18T06:35:40.979Z</time></trkpt><trkpt lat="43.8637328" lon="7.6174104"><ele>94.0</ele><time>2026-04-18T06:35:41.978Z</time></trkpt><trkpt lat="43.8637926" lon="7.6172496"><ele>94.0</ele><time>2026-04-18T06:35:42.979Z</time></trkpt><trkpt lat="43.8638689" lon="7.6170995"><ele>94.5</ele><time>2026-04-18T06:35:43.979Z</time></trkpt><trkpt lat="43.8639578" lon="7.6169577"><ele>95.0</ele><time>2026-04-18T06:35:44.979Z</time></trkpt><trkpt lat="43.8640605" lon="7.6168424"><ele>95.5</ele><time>2026-04-18T06:35:45.979Z</time></trkpt><trkpt lat="43.8641684" lon="7.6167417"><ele>96.0</ele><time>2026-04-18T06:35:46.979Z</time></trkpt><trkpt lat="43.8642939" lon="7.6166469"><ele>96.0</ele><time>2026-04-18T06:35:47.979Z</time></trkpt><trkpt lat="43.8644234" lon="7.6165347"><ele>96.0</ele><time>2026-04-18T06:35:48.979Z</time></trkpt><trkpt lat="43.8645378" lon="7.6164288"><ele>96.0</ele><time>2026-04-18T06:35:49.979Z</time></trkpt><trkpt lat="43.8646611" lon="7.6163439"><ele>96.0</ele><time>2026-04-18T06:35:50.978Z</time></trkpt><trkpt lat="43.8647893" lon="7.6162817"><ele>96.0</ele><time>2026-04-18T06:35:51.979Z</time></trkpt><trkpt lat="43.8649414" lon="7.616236"><ele>96.0</ele><time>2026-04-18T06:35:52.979Z</time></trkpt><trkpt lat="43.8650948" lon="7.6161897"><ele>96.0</ele><time>2026-04-18T06:35:53.979Z</time></trkpt><trkpt lat="43.8652537" lon="7.616142"><ele>101.0</ele><time>2026-04-18T06:35:54.978Z</time></trkpt><trkpt lat="43.865407" lon="7.6160956"><ele>106.0</ele><time>2026-04-18T06:35:55.979Z</time></trkpt><trkpt lat="43.8655549" lon="7.6160473"><ele>111.0</ele><time>2026-04-18T06:35:56.979Z</time></trkpt><trkpt lat="43.8657119" lon="7.6159983"><ele>111.0</ele><time>2026-04-18T06:35:57.979Z</time></trkpt><trkpt lat="43.8658708" lon="7.6159566"><ele>111.0</ele><time>2026-04-18T06:35:58.979Z</time></trkpt><trkpt lat="43.8660215" lon="7.615925"><ele>111.0</ele><time>2026-04-18T06:35:59.979Z</time></trkpt><trkpt lat="43.8661574" lon="7.6158872"><ele>110.0</ele><time>2026-04-18T06:36:00.979Z</time></trkpt><trkpt lat="43.8663062" lon="7.6158631"><ele>109.0</ele><time>2026-04-18T06:36:01.979Z</time></trkpt><trkpt lat="43.8664481" lon="7.6158371"><ele>108.0</ele><time>2026-04-18T06:36:02.978Z</time></trkpt><trkpt lat="43.8665951" lon="7.6158152"><ele>107.0</ele><time>2026-04-18T06:36:03.979Z</time></trkpt><trkpt lat="43.8667238" lon="7.6157877"><ele>106.5</ele><time>2026-04-18T06:36:04.979Z</time></trkpt><trkpt lat="43.8668576" lon="7.6157696"><ele>106.0</ele><time>2026-04-18T06:36:05.979Z</time></trkpt><trkpt lat="43.8669797" lon="7.6157405"><ele>105.5</ele><time>2026-04-18T06:36:06.978Z</time></trkpt><trkpt lat="43.8671129" lon="7.6156918"><ele>105.0</ele><time>2026-04-18T06:36:07.979Z</time></trkpt><trkpt lat="43.8672462" lon="7.6156127"><ele>105.0</ele><time>2026-04-18T06:36:08.979Z</time></trkpt><trkpt lat="43.8673627" lon="7.615504"><ele>105.0</ele><time>2026-04-18T06:36:09.979Z</time></trkpt><trkpt lat="43.8674803" lon="7.6153687"><ele>105.0</ele><time>2026-04-18T06:36:10.979Z</time></trkpt><trkpt lat="43.8675842" lon="7.6152217"><ele>105.0</ele><time>2026-04-18T06:36:11.979Z</time></trkpt><trkpt lat="43.8676925" lon="7.61507"><ele>106.33333333333334</ele><time>2026-04-18T06:36:12.979Z</time></trkpt><trkpt lat="43.8678033" lon="7.6149189"><ele>107.66666666666667</ele><time>2026-04-18T06:36:13.979Z</time></trkpt><trkpt lat="43.8679221" lon="7.6147975"><ele>109.0</ele><time>2026-04-18T06:36:14.979Z</time></trkpt><trkpt lat="43.8680485" lon="7.6146882"><ele>109.0</ele><time>2026-04-18T06:36:15.979Z</time></trkpt><trkpt lat="43.8681572" lon="7.6145766"><ele>109.0</ele><time>2026-04-18T06:36:16.979Z</time></trkpt><trkpt lat="43.8682687" lon="7.6144789"><ele>109.0</ele><time>2026-04-18T06:36:17.979Z</time></trkpt><trkpt lat="43.8683866" lon="7.6143913"><ele>109.0</ele><time>2026-04-18T06:36:18.979Z</time></trkpt><trkpt lat="43.8685097" lon="7.6143235"><ele>111.0</ele><time>2026-04-18T06:36:19.979Z</time></trkpt><trkpt lat="43.8686418" lon="7.6142777"><ele>113.0</ele><time>2026-04-18T06:36:20.979Z</time></trkpt><trkpt lat="43.8687786" lon="7.6142422"><ele>115.0</ele><time>2026-04-18T06:36:21.979Z</time></trkpt><trkpt lat="43.86891" lon="7.614205"><ele>117.0</ele><time>2026-04-18T06:36:22.979Z</time></trkpt><trkpt lat="43.8690356" lon="7.6141797"><ele>117.0</ele><time>2026-04-18T06:36:23.979Z</time></trkpt><trkpt lat="43.8691504" lon="7.6141683"><ele>117.0</ele><time>2026-04-18T06:36:24.979Z</time></trkpt><trkpt lat="43.8692843" lon="7.6141797"><ele>117.0</ele><time>2026-04-18T06:36:25.979Z</time></trkpt><trkpt lat="43.8694175" lon="7.6142339"><ele>117.0</ele><time>2026-04-18T06:36:26.979Z</time></trkpt><trkpt lat="43.8695447" lon="7.614295"><ele>118.0</ele><time>2026-04-18T06:36:27.979Z</time></trkpt><trkpt lat="43.8696678" lon="7.6143353"><ele>119.0</ele><time>2026-04-18T06:36:28.979Z</time></trkpt><trkpt lat="43.8697878" lon="7.6143415"><ele>120.0</ele><time>2026-04-18T06:36:29.979Z</time></trkpt><trkpt lat="43.8698906" lon="7.6142964"><ele>121.0</ele><time>2026-04-18T06:36:30.979Z</time></trkpt><trkpt lat="43.8699922" lon="7.6142175"><ele>121.0</ele><time>2026-04-18T06:36:31.979Z</time></trkpt><trkpt lat="43.870108" lon="7.6141214"><ele>121.0</ele><time>2026-04-18T06:36:32.979Z</time></trkpt><trkpt lat="43.8702246" lon="7.6140076"><ele>121.0</ele><time>2026-04-18T06:36:33.979Z</time></trkpt><trkpt lat="43.8703434" lon="7.6138835"><ele>121.0</ele><time>2026-04-18T06:36:34.979Z</time></trkpt><trkpt lat="43.8704551" lon="7.6137333"><ele>121.66666666666667</ele><time>2026-04-18T06:36:35.979Z</time></trkpt><trkpt lat="43.8705332" lon="7.6135327"><ele>122.33333333333334</ele><time>2026-04-18T06:36:36.979Z</time></trkpt><trkpt lat="43.870623" lon="7.6133584"><ele>123.0</ele><time>2026-04-18T06:36:37.979Z</time></trkpt><trkpt lat="43.870705" lon="7.6131966"><ele>123.0</ele><time>2026-04-18T06:36:38.979Z</time></trkpt><trkpt lat="43.8707857" lon="7.6130498"><ele>123.0</ele><time>2026-04-18T06:36:39.979Z</time></trkpt><trkpt lat="43.8708576" lon="7.6129048"><ele>123.0</ele><time>2026-04-18T06:36:40.979Z</time></trkpt><trkpt lat="43.870953" lon="7.6128111"><ele>123.0</ele><time>2026-04-18T06:36:41.979Z</time></trkpt><trkpt lat="43.8710611" lon="7.6127449"><ele>125.25</ele><time>2026-04-18T06:36:42.979Z</time></trkpt><trkpt lat="43.8711661" lon="7.612679"><ele>127.5</ele><time>2026-04-18T06:36:43.979Z</time></trkpt><trkpt lat="43.8712823" lon="7.6126506"><ele>129.75</ele><time>2026-04-18T06:36:44.979Z</time></trkpt><trkpt lat="43.8713979" lon="7.6126838"><ele>132.0</ele><time>2026-04-18T06:36:45.979Z</time></trkpt><trkpt lat="43.8715464" lon="7.6127313"><ele>132.0</ele><time>2026-04-18T06:36:46.978Z</time></trkpt><trkpt lat="43.8716827" lon="7.6127628"><ele>132.0</ele><time>2026-04-18T06:36:47.978Z</time></trkpt><trkpt lat="43.8718143" lon="7.6127537"><ele>132.0</ele><time>2026-04-18T06:36:48.979Z</time></trkpt><trkpt lat="43.8719429" lon="7.6127113"><ele>132.0</ele><time>2026-04-18T06:36:49.979Z</time></trkpt><trkpt lat="43.8720668" lon="7.6126273"><ele>130.5</ele><time>2026-04-18T06:36:50.979Z</time></trkpt><trkpt lat="43.8721779" lon="7.6125026"><ele>129.0</ele><time>2026-04-18T06:36:51.979Z</time></trkpt><trkpt lat="43.8723028" lon="7.6123867"><ele>127.5</ele><time>2026-04-18T06:36:52.979Z</time></trkpt><trkpt lat="43.8724143" lon="7.6122702"><ele>126.0</ele><time>2026-04-18T06:36:53.979Z</time></trkpt><trkpt lat="43.8724972" lon="7.612134"><ele>126.0</ele><time>2026-04-18T06:36:54.979Z</time></trkpt><trkpt lat="43.8726007" lon="7.6119912"><ele>126.0</ele><time>2026-04-18T06:36:55.979Z</time></trkpt><trkpt lat="43.8726954" lon="7.6118241"><ele>126.0</ele><time>2026-04-18T06:36:56.979Z</time></trkpt><trkpt lat="43.8727828" lon="7.611636"><ele>127.0</ele><time>2026-04-18T06:36:57.979Z</time></trkpt><trkpt lat="43.8728145" lon="7.6114205"><ele>128.0</ele><time>2026-04-18T06:36:58.979Z</time></trkpt><trkpt lat="43.8728826" lon="7.6112181"><ele>129.0</ele><time>2026-04-18T06:36:59.979Z</time></trkpt><trkpt lat="43.8729331" lon="7.6110289"><ele>129.0</ele><time>2026-04-18T06:37:00.979Z</time></trkpt><trkpt lat="43.8729934" lon="7.6108455"><ele>129.0</ele><time>2026-04-18T06:37:01.979Z</time></trkpt><trkpt lat="43.8730799" lon="7.6106753"><ele>129.0</ele><time>2026-04-18T06:37:02.979Z</time></trkpt><trkpt lat="43.8731722" lon="7.6105023"><ele>129.0</ele><time>2026-04-18T06:37:03.979Z</time></trkpt><trkpt lat="43.8732701" lon="7.6103445"><ele>129.0</ele><time>2026-04-18T06:37:04.979Z</time></trkpt><trkpt lat="43.8733637" lon="7.6101985"><ele>129.0</ele><time>2026-04-18T06:37:05.979Z</time></trkpt><trkpt lat="43.8734619" lon="7.6100633"><ele>129.0</ele><time>2026-04-18T06:37:06.979Z</time></trkpt><trkpt lat="43.8735453" lon="7.6099399"><ele>130.75</ele><time>2026-04-18T06:37:07.979Z</time></trkpt><trkpt lat="43.8736386" lon="7.6098295"><ele>132.5</ele><time>2026-04-18T06:37:08.978Z</time></trkpt><trkpt lat="43.8737358" lon="7.609733"><ele>134.25</ele><time>2026-04-18T06:37:09.979Z</time></trkpt><trkpt lat="43.8738481" lon="7.609658"><ele>136.0</ele><time>2026-04-18T06:37:10.979Z</time></trkpt><trkpt lat="43.8739731" lon="7.609585"><ele>137.25</ele><time>2026-04-18T06:37:11.979Z</time></trkpt><trkpt lat="43.8741058" lon="7.609487"><ele>138.5</ele><time>2026-04-18T06:37:12.979Z</time></trkpt><trkpt lat="43.8742423" lon="7.6094363"><ele>139.75</ele><time>2026-04-18T06:37:13.979Z</time></trkpt><trkpt lat="43.8743764" lon="7.6093612"><ele>141.0</ele><time>2026-04-18T06:37:14.978Z</time></trkpt><trkpt lat="43.8745142" lon="7.6092804"><ele>141.0</ele><time>2026-04-18T06:37:15.979Z</time></trkpt><trkpt lat="43.8746491" lon="7.6092013"><ele>141.0</ele><time>2026-04-18T06:37:16.979Z</time></trkpt><trkpt lat="43.8747963" lon="7.6091339"><ele>141.0</ele><time>2026-04-18T06:37:17.979Z</time></trkpt><trkpt lat="43.8749498" lon="7.6090742"><ele>141.0</ele><time>2026-04-18T06:37:18.979Z</time></trkpt><trkpt lat="43.8750982" lon="7.6090152"><ele>141.0</ele><time>2026-04-18T06:37:19.979Z</time></trkpt><trkpt lat="43.8752401" lon="7.6089645"><ele>141.0</ele><time>2026-04-18T06:37:20.979Z</time></trkpt><trkpt lat="43.8753784" lon="7.608914"><ele>141.0</ele><time>2026-04-18T06:37:21.979Z</time></trkpt><trkpt lat="43.8755159" lon="7.6088614"><ele>141.0</ele><time>2026-04-18T06:37:22.979Z</time></trkpt><trkpt lat="43.875637" lon="7.6087946"><ele>141.0</ele><time>2026-04-18T06:37:23.979Z</time></trkpt><trkpt lat="43.8757555" lon="7.6087099"><ele>141.0</ele><time>2026-04-18T06:37:24.979Z</time></trkpt><trkpt lat="43.8758648" lon="7.608594"><ele>141.0</ele><time>2026-04-18T06:37:25.979Z</time></trkpt><trkpt lat="43.8759763" lon="7.6084566"><ele>141.0</ele><time>2026-04-18T06:37:26.979Z</time></trkpt><trkpt lat="43.8760901" lon="7.6083122"><ele>141.0</ele><time>2026-04-18T06:37:27.979Z</time></trkpt><trkpt lat="43.8761902" lon="7.6081466"><ele>141.0</ele><time>2026-04-18T06:37:28.979Z</time></trkpt><trkpt lat="43.8762744" lon="7.6079709"><ele>143.0</ele><time>2026-04-18T06:37:29.979Z</time></trkpt><trkpt lat="43.8763461" lon="7.6077902"><ele>145.0</ele><time>2026-04-18T06:37:30.978Z</time></trkpt><trkpt lat="43.8764109" lon="7.6076211"><ele>147.0</ele><time>2026-04-18T06:37:31.979Z</time></trkpt><trkpt lat="43.8764882" lon="7.607468"><ele>149.0</ele><time>2026-04-18T06:37:32.978Z</time></trkpt><trkpt lat="43.8765793" lon="7.6073234"><ele>149.0</ele><time>2026-04-18T06:37:33.979Z</time></trkpt><trkpt lat="43.876683" lon="7.6071894"><ele>149.0</ele><time>2026-04-18T06:37:34.979Z</time></trkpt><trkpt lat="43.8767872" lon="7.6070635"><ele>149.0</ele><time>2026-04-18T06:37:35.979Z</time></trkpt><trkpt lat="43.8768914" lon="7.6069471"><ele>149.0</ele><time>2026-04-18T06:37:36.979Z</time></trkpt><trkpt lat="43.877002" lon="7.6068536"><ele>151.25</ele><time>2026-04-18T06:37:37.979Z</time></trkpt><trkpt lat="43.8771184" lon="7.6067737"><ele>153.5</ele><time>2026-04-18T06:37:38.979Z</time></trkpt><trkpt lat="43.8772659" lon="7.6066975"><ele>155.75</ele><time>2026-04-18T06:37:39.979Z</time></trkpt><trkpt lat="43.8774025" lon="7.6066283"><ele>158.0</ele><time>2026-04-18T06:37:40.978Z</time></trkpt><trkpt lat="43.8775301" lon="7.6065663"><ele>156.5</ele><time>2026-04-18T06:37:41.979Z</time></trkpt><trkpt lat="43.877657" lon="7.6065076"><ele>155.0</ele><time>2026-04-18T06:37:42.979Z</time></trkpt><trkpt lat="43.8777843" lon="7.6064449"><ele>153.5</ele><time>2026-04-18T06:37:43.979Z</time></trkpt><trkpt lat="43.8779138" lon="7.606395"><ele>152.0</ele><time>2026-04-18T06:37:44.979Z</time></trkpt><trkpt lat="43.8780488" lon="7.6063421"><ele>152.0</ele><time>2026-04-18T06:37:45.979Z</time></trkpt><trkpt lat="43.8781819" lon="7.6062913"><ele>152.0</ele><time>2026-04-18T06:37:46.979Z</time></trkpt><trkpt lat="43.8783115" lon="7.6062411"><ele>152.0</ele><time>2026-04-18T06:37:47.979Z</time></trkpt><trkpt lat="43.8784309" lon="7.6061928"><ele>152.0</ele><time>2026-04-18T06:37:48.979Z</time></trkpt><trkpt lat="43.8785422" lon="7.6061486"><ele>153.0</ele><time>2026-04-18T06:37:49.979Z</time></trkpt><trkpt lat="43.8786489" lon="7.6061036"><ele>154.0</ele><time>2026-04-18T06:37:50.979Z</time></trkpt><trkpt lat="43.878745" lon="7.60605"><ele>155.0</ele><time>2026-04-18T06:37:51.979Z</time></trkpt><trkpt lat="43.8788284" lon="7.605978"><ele>156.0</ele><time>2026-04-18T06:37:52.979Z</time></trkpt><trkpt lat="43.878919" lon="7.6058882"><ele>157.0</ele><time>2026-04-18T06:37:53.978Z</time></trkpt><trkpt lat="43.8789847" lon="7.6057816"><ele>157.0</ele><time>2026-04-18T06:37:54.979Z</time></trkpt><trkpt lat="43.879041" lon="7.6056507"><ele>157.0</ele><time>2026-04-18T06:37:55.979Z</time></trkpt><trkpt lat="43.8790643" lon="7.6055099"><ele>157.0</ele><time>2026-04-18T06:37:56.978Z</time></trkpt><trkpt lat="43.8790815" lon="7.6053555"><ele>157.0</ele><time>2026-04-18T06:37:57.979Z</time></trkpt><trkpt lat="43.8790825" lon="7.6051982"><ele>157.0</ele><time>2026-04-18T06:37:58.979Z</time></trkpt><trkpt lat="43.879053" lon="7.6050359"><ele>158.5</ele><time>2026-04-18T06:37:59.979Z</time></trkpt><trkpt lat="43.8790032" lon="7.6048759"><ele>160.0</ele><time>2026-04-18T06:38:00.979Z</time></trkpt><trkpt lat="43.8789429" lon="7.6047287"><ele>161.5</ele><time>2026-04-18T06:38:01.979Z</time></trkpt><trkpt lat="43.87889" lon="7.6045868"><ele>163.0</ele><time>2026-04-18T06:38:02.979Z</time></trkpt><trkpt lat="43.8788493" lon="7.6044558"><ele>164.83333333333334</ele><time>2026-04-18T06:38:03.979Z</time></trkpt><trkpt lat="43.8788334" lon="7.6043367"><ele>166.66666666666669</ele><time>2026-04-18T06:38:04.979Z</time></trkpt><trkpt lat="43.8788534" lon="7.6042206"><ele>168.5</ele><time>2026-04-18T06:38:05.979Z</time></trkpt><trkpt lat="43.8788891" lon="7.6041112"><ele>170.33333333333334</ele><time>2026-04-18T06:38:06.979Z</time></trkpt><trkpt lat="43.8789372" lon="7.6040247"><ele>172.16666666666666</ele><time>2026-04-18T06:38:07.979Z</time></trkpt><trkpt lat="43.878993" lon="7.6039762"><ele>174.0</ele><time>2026-04-18T06:38:08.979Z</time></trkpt><trkpt lat="43.8791113" lon="7.6039924"><ele>174.0</ele><time>2026-04-18T06:38:10.979Z</time></trkpt><trkpt lat="43.8791642" lon="7.6040713"><ele>174.0</ele><time>2026-04-18T06:38:11.979Z</time></trkpt><trkpt lat="43.8792173" lon="7.6041809"><ele>174.0</ele><time>2026-04-18T06:38:12.979Z</time></trkpt><trkpt lat="43.8792848" lon="7.6042901"><ele>174.0</ele><time>2026-04-18T06:38:13.979Z</time></trkpt><trkpt lat="43.8793681" lon="7.6043888"><ele>174.0</ele><time>2026-04-18T06:38:14.979Z</time></trkpt><trkpt lat="43.8794616" lon="7.6044743"><ele>175.6</ele><time>2026-04-18T06:38:15.978Z</time></trkpt><trkpt lat="43.8795563" lon="7.6045345"><ele>177.2</ele><time>2026-04-18T06:38:16.979Z</time></trkpt><trkpt lat="43.8796539" lon="7.6045557"><ele>178.79999999999998</ele><time>2026-04-18T06:38:17.979Z</time></trkpt><trkpt lat="43.8797524" lon="7.6045361"><ele>180.39999999999998</ele><time>2026-04-18T06:38:18.979Z</time></trkpt><trkpt lat="43.8798531" lon="7.6044947"><ele>182.0</ele><time>2026-04-18T06:38:19.979Z</time></trkpt><trkpt lat="43.8799637" lon="7.6044483"><ele>182.0</ele><time>2026-04-18T06:38:20.979Z</time></trkpt><trkpt lat="43.8800806" lon="7.6044023"><ele>182.0</ele><time>2026-04-18T06:38:21.979Z</time></trkpt><trkpt lat="43.8802053" lon="7.6043615"><ele>182.0</ele><time>2026-04-18T06:38:22.979Z</time></trkpt><trkpt lat="43.8803386" lon="7.6043436"><ele>182.0</ele><time>2026-04-18T06:38:23.978Z</time></trkpt><trkpt lat="43.8804763" lon="7.6043327"><ele>183.25</ele><time>2026-04-18T06:38:24.979Z</time></trkpt><trkpt lat="43.8806188" lon="7.6043298"><ele>184.5</ele><time>2026-04-18T06:38:25.979Z</time></trkpt><trkpt lat="43.8807428" lon="7.604326"><ele>185.75</ele><time>2026-04-18T06:38:26.979Z</time></trkpt><trkpt lat="43.8808611" lon="7.6043354"><ele>187.0</ele><time>2026-04-18T06:38:27.979Z</time></trkpt><trkpt lat="43.8809771" lon="7.6043721"><ele>189.75</ele><time>2026-04-18T06:38:28.979Z</time></trkpt><trkpt lat="43.8810779" lon="7.6044551"><ele>192.5</ele><time>2026-04-18T06:38:29.979Z</time></trkpt><trkpt lat="43.8811803" lon="7.6045162"><ele>195.25</ele><time>2026-04-18T06:38:30.979Z</time></trkpt><trkpt lat="43.8813037" lon="7.6045497"><ele>198.0</ele><time>2026-04-18T06:38:31.979Z</time></trkpt><trkpt lat="43.8814251" lon="7.6045771"><ele>191.5</ele><time>2026-04-18T06:38:32.979Z</time></trkpt><trkpt lat="43.8815477" lon="7.6046085"><ele>185.0</ele><time>2026-04-18T06:38:33.979Z</time></trkpt><trkpt lat="43.8816703" lon="7.6046251"><ele>178.5</ele><time>2026-04-18T06:38:34.979Z</time></trkpt><trkpt lat="43.881787" lon="7.6046241"><ele>172.0</ele><time>2026-04-18T06:38:35.979Z</time></trkpt><trkpt lat="43.8819017" lon="7.6046172"><ele>171.0</ele><time>2026-04-18T06:38:36.979Z</time></trkpt><trkpt lat="43.8820025" lon="7.6045557"><ele>170.0</ele><time>2026-04-18T06:38:37.979Z</time></trkpt><trkpt lat="43.8820843" lon="7.6044677"><ele>169.0</ele><time>2026-04-18T06:38:38.979Z</time></trkpt><trkpt lat="43.882172" lon="7.6043509"><ele>168.0</ele><time>2026-04-18T06:38:39.979Z</time></trkpt><trkpt lat="43.8822488" lon="7.6042128"><ele>171.4</ele><time>2026-04-18T06:38:40.979Z</time></trkpt><trkpt lat="43.882329" lon="7.6040681"><ele>174.8</ele><time>2026-04-18T06:38:41.979Z</time></trkpt><trkpt lat="43.8824033" lon="7.6039319"><ele>178.2</ele><time>2026-04-18T06:38:42.979Z</time></trkpt><trkpt lat="43.8824674" lon="7.6038349"><ele>181.6</ele><time>2026-04-18T06:38:43.979Z</time></trkpt><trkpt lat="43.882528" lon="7.6037699"><ele>185.0</ele><time>2026-04-18T06:38:44.979Z</time></trkpt><trkpt lat="43.882595" lon="7.6037361"><ele>184.8</ele><time>2026-04-18T06:38:45.979Z</time></trkpt><trkpt lat="43.8826766" lon="7.6037302"><ele>184.6</ele><time>2026-04-18T06:38:46.979Z</time></trkpt><trkpt lat="43.8827477" lon="7.6037952"><ele>184.39999999999998</ele><time>2026-04-18T06:38:47.979Z</time></trkpt><trkpt lat="43.8828263" lon="7.6038341"><ele>184.2</ele><time>2026-04-18T06:38:48.979Z</time></trkpt><trkpt lat="43.882926" lon="7.6038399"><ele>184.0</ele><time>2026-04-18T06:38:49.979Z</time></trkpt><trkpt lat="43.8830394" lon="7.6038189"><ele>184.0</ele><time>2026-04-18T06:38:50.979Z</time></trkpt><trkpt lat="43.883142" lon="7.6037885"><ele>184.0</ele><time>2026-04-18T06:38:51.979Z</time></trkpt><trkpt lat="43.8832551" lon="7.6037382"><ele>184.0</ele><time>2026-04-18T06:38:52.979Z</time></trkpt><trkpt lat="43.8833672" lon="7.6036722"><ele>184.0</ele><time>2026-04-18T06:38:53.979Z</time></trkpt><trkpt lat="43.8834649" lon="7.6035837"><ele>185.2</ele><time>2026-04-18T06:38:54.979Z</time></trkpt><trkpt lat="43.883548" lon="7.6034882"><ele>186.39999999999998</ele><time>2026-04-18T06:38:55.979Z</time></trkpt><trkpt lat="43.8836166" lon="7.6034164"><ele>187.6</ele><time>2026-04-18T06:38:56.979Z</time></trkpt><trkpt lat="43.8836875" lon="7.6033846"><ele>188.8</ele><time>2026-04-18T06:38:57.979Z</time></trkpt><trkpt lat="43.8837943" lon="7.6033958"><ele>190.0</ele><time>2026-04-18T06:38:58.979Z</time></trkpt><trkpt lat="43.883889" lon="7.6034221"><ele>190.0</ele><time>2026-04-18T06:38:59.979Z</time></trkpt><trkpt lat="43.883984" lon="7.603457"><ele>190.0</ele><time>2026-04-18T06:39:00.979Z</time></trkpt><trkpt lat="43.8840954" lon="7.6035121"><ele>190.0</ele><time>2026-04-18T06:39:01.979Z</time></trkpt><trkpt lat="43.8841961" lon="7.603578"><ele>190.0</ele><time>2026-04-18T06:39:02.979Z</time></trkpt><trkpt lat="43.8842817" lon="7.6036185"><ele>190.0</ele><time>2026-04-18T06:39:03.978Z</time></trkpt><trkpt lat="43.8843683" lon="7.6036412"><ele>191.0</ele><time>2026-04-18T06:39:04.979Z</time></trkpt><trkpt lat="43.884463" lon="7.6036305"><ele>192.0</ele><time>2026-04-18T06:39:05.979Z</time></trkpt><trkpt lat="43.884563" lon="7.6036092"><ele>193.0</ele><time>2026-04-18T06:39:06.979Z</time></trkpt><trkpt lat="43.8846584" lon="7.6035944"><ele>194.0</ele><time>2026-04-18T06:39:07.979Z</time></trkpt><trkpt lat="43.884775" lon="7.6035776"><ele>195.0</ele><time>2026-04-18T06:39:08.979Z</time></trkpt><trkpt lat="43.8848968" lon="7.6035646"><ele>195.0</ele><time>2026-04-18T06:39:09.979Z</time></trkpt><trkpt lat="43.8850229" lon="7.6035457"><ele>195.0</ele><time>2026-04-18T06:39:10.979Z</time></trkpt><trkpt lat="43.8851575" lon="7.6035228"><ele>195.0</ele><time>2026-04-18T06:39:11.979Z</time></trkpt><trkpt lat="43.8852876" lon="7.6035158"><ele>195.0</ele><time>2026-04-18T06:39:12.979Z</time></trkpt><trkpt lat="43.8854099" lon="7.6035338"><ele>195.5</ele><time>2026-04-18T06:39:13.979Z</time></trkpt><trkpt lat="43.8855176" lon="7.6035615"><ele>196.0</ele><time>2026-04-18T06:39:14.979Z</time></trkpt><trkpt lat="43.8856142" lon="7.6035863"><ele>196.5</ele><time>2026-04-18T06:39:15.979Z</time></trkpt><trkpt lat="43.8857037" lon="7.6036044"><ele>197.0</ele><time>2026-04-18T06:39:16.979Z</time></trkpt><trkpt lat="43.8857766" lon="7.6036179"><ele>197.5</ele><time>2026-04-18T06:39:17.979Z</time></trkpt><trkpt lat="43.8858406" lon="7.6036233"><ele>198.0</ele><time>2026-04-18T06:39:18.979Z</time></trkpt><trkpt lat="43.8859663" lon="7.603608"><ele>196.66666666666666</ele><time>2026-04-18T06:39:20.979Z</time></trkpt><trkpt lat="43.8860302" lon="7.6035831"><ele>195.33333333333334</ele><time>2026-04-18T06:39:21.979Z</time></trkpt><trkpt lat="43.8860987" lon="7.603527"><ele>194.0</ele><time>2026-04-18T06:39:23.978Z</time></trkpt><trkpt lat="43.8861611" lon="7.6034572"><ele>192.66666666666669</ele><time>2026-04-18T06:41:57.979Z</time></trkpt><trkpt lat="43.8862273" lon="7.6033657"><ele>191.33333333333334</ele><time>2026-04-18T06:42:00.979Z</time></trkpt><trkpt lat="43.886296" lon="7.6034079"><ele>190.0</ele><time>2026-04-18T06:42:02.979Z</time></trkpt><trkpt lat="43.8863086" lon="7.603504"><ele>190.0</ele><time>2026-04-18T06:42:03.978Z</time></trkpt><trkpt lat="43.886338" lon="7.6035939"><ele>190.0</ele><time>2026-04-18T06:42:04.979Z</time></trkpt><trkpt lat="43.8863754" lon="7.6037546"><ele>190.0</ele><time>2026-04-18T06:42:06.979Z</time></trkpt><trkpt lat="43.8863706" lon="7.6039226"><ele>190.0</ele><time>2026-04-18T06:42:08.979Z</time></trkpt><trkpt lat="43.8863251" lon="7.6040343"><ele>190.0</ele><time>2026-04-18T06:42:10.979Z</time></trkpt><trkpt lat="43.886223" lon="7.6040667"><ele>191.8</ele><time>2026-04-18T06:42:12.979Z</time></trkpt><trkpt lat="43.886101" lon="7.6040239"><ele>193.6</ele><time>2026-04-18T06:42:14.979Z</time></trkpt><trkpt lat="43.88603" lon="7.6040042"><ele>195.39999999999998</ele><time>2026-04-18T06:42:15.979Z</time></trkpt><trkpt lat="43.8859102" lon="7.6040186"><ele>197.2</ele><time>2026-04-18T06:42:17.978Z</time></trkpt><trkpt lat="43.8858479" lon="7.604035"><ele>199.0</ele><time>2026-04-18T06:42:18.979Z</time></trkpt><trkpt lat="43.8857956" lon="7.6041095"><ele>195.99999999999997</ele><time>2026-04-18T06:42:19.979Z</time></trkpt><trkpt lat="43.885749" lon="7.6041945"><ele>193.0</ele><time>2026-04-18T06:42:20.979Z</time></trkpt><trkpt lat="43.8856912" lon="7.6042714"><ele>190.0</ele><time>2026-04-18T06:42:21.979Z</time></trkpt><trkpt lat="43.8856242" lon="7.604334"><ele>187.0</ele><time>2026-04-18T06:42:22.979Z</time></trkpt><trkpt lat="43.8855437" lon="7.6043758"><ele>184.0</ele><time>2026-04-18T06:42:23.979Z</time></trkpt><trkpt lat="43.8854616" lon="7.6044165"><ele>181.0</ele><time>2026-04-18T06:42:24.979Z</time></trkpt><trkpt lat="43.8853709" lon="7.6044547"><ele>181.0</ele><time>2026-04-18T06:42:25.978Z</time></trkpt><trkpt lat="43.885275" lon="7.6044853"><ele>181.0</ele><time>2026-04-18T06:42:26.978Z</time></trkpt><trkpt lat="43.8851848" lon="7.6045141"><ele>181.0</ele><time>2026-04-18T06:42:27.979Z</time></trkpt><trkpt lat="43.8850948" lon="7.6045417"><ele>181.0</ele><time>2026-04-18T06:42:28.979Z</time></trkpt><trkpt lat="43.8850015" lon="7.6045869"><ele>181.0</ele><time>2026-04-18T06:42:29.979Z</time></trkpt><trkpt lat="43.884913" lon="7.604643"><ele>185.8</ele><time>2026-04-18T06:42:30.979Z</time></trkpt><trkpt lat="43.8848196" lon="7.6047263"><ele>190.60000000000002</ele><time>2026-04-18T06:42:31.979Z</time></trkpt><trkpt lat="43.8847295" lon="7.604819"><ele>195.4</ele><time>2026-04-18T06:42:32.979Z</time></trkpt><trkpt lat="43.8846472" lon="7.6049177"><ele>200.2</ele><time>2026-04-18T06:42:33.979Z</time></trkpt><trkpt lat="43.8845723" lon="7.6050025"><ele>205.0</ele><time>2026-04-18T06:42:34.979Z</time></trkpt><trkpt lat="43.884505" lon="7.6050757"><ele>204.99999999999997</ele><time>2026-04-18T06:42:35.979Z</time></trkpt><trkpt lat="43.8844458" lon="7.6051373"><ele>205.0</ele><time>2026-04-18T06:42:36.979Z</time></trkpt><trkpt lat="43.8843922" lon="7.605243"><ele>205.0</ele><time>2026-04-18T06:42:38.979Z</time></trkpt><trkpt lat="43.8844444" lon="7.6053278"><ele>205.0</ele><time>2026-04-18T06:42:40.979Z</time></trkpt><trkpt lat="43.8845609" lon="7.6052951"><ele>204.99999999999997</ele><time>2026-04-18T06:42:42.979Z</time></trkpt><trkpt lat="43.8846278" lon="7.6052543"><ele>205.0</ele><time>2026-04-18T06:42:43.979Z</time></trkpt><trkpt lat="43.8847074" lon="7.6052255"><ele>204.99999999999997</ele><time>2026-04-18T06:42:44.979Z</time></trkpt><trkpt lat="43.8847843" lon="7.6051751"><ele>205.0</ele><time>2026-04-18T06:42:45.979Z</time></trkpt><trkpt lat="43.8848591" lon="7.6051192"><ele>205.0</ele><time>2026-04-18T06:42:46.979Z</time></trkpt><trkpt lat="43.8849354" lon="7.6050762"><ele>205.0</ele><time>2026-04-18T06:42:47.979Z</time></trkpt><trkpt lat="43.8850018" lon="7.6050331"><ele>204.99999999999997</ele><time>2026-04-18T06:42:48.979Z</time></trkpt><trkpt lat="43.8850745" lon="7.6050009"><ele>205.0</ele><time>2026-04-18T06:42:49.979Z</time></trkpt><trkpt lat="43.8851616" lon="7.6049758"><ele>208.0</ele><time>2026-04-18T06:42:50.978Z</time></trkpt><trkpt lat="43.8852522" lon="7.6049731"><ele>211.0</ele><time>2026-04-18T06:42:51.979Z</time></trkpt><trkpt lat="43.88534" lon="7.6049803"><ele>214.0</ele><time>2026-04-18T06:42:52.979Z</time></trkpt><trkpt lat="43.8854274" lon="7.6049936"><ele>217.0</ele><time>2026-04-18T06:42:53.979Z</time></trkpt><trkpt lat="43.8855239" lon="7.6050106"><ele>220.0</ele><time>2026-04-18T06:42:54.979Z</time></trkpt><trkpt lat="43.8856144" lon="7.6050239"><ele>220.0</ele><time>2026-04-18T06:42:55.979Z</time></trkpt><trkpt lat="43.8856837" lon="7.605019"><ele>220.0</ele><time>2026-04-18T06:42:56.979Z</time></trkpt><trkpt lat="43.8857874" lon="7.604947"><ele>220.0</ele><time>2026-04-18T06:42:58.979Z</time></trkpt><trkpt lat="43.8859162" lon="7.604917"><ele>220.0</ele><time>2026-04-18T06:43:00.979Z</time></trkpt><trkpt lat="43.8859862" lon="7.604921"><ele>220.0</ele><time>2026-04-18T06:43:01.979Z</time></trkpt><trkpt lat="43.8860508" lon="7.6049097"><ele>222.0</ele><time>2026-04-18T06:43:02.979Z</time></trkpt><trkpt lat="43.8861138" lon="7.6048952"><ele>224.0</ele><time>2026-04-18T06:43:03.979Z</time></trkpt><trkpt lat="43.8862308" lon="7.6049107"><ele>226.0</ele><time>2026-04-18T06:43:05.979Z</time></trkpt><trkpt lat="43.8863005" lon="7.605012"><ele>228.0</ele><time>2026-04-18T06:43:07.979Z</time></trkpt><trkpt lat="43.886306" lon="7.6051653"><ele>230.0</ele><time>2026-04-18T06:43:09.979Z</time></trkpt><trkpt lat="43.8863126" lon="7.6052533"><ele>230.00000000000003</ele><time>2026-04-18T06:43:10.979Z</time></trkpt><trkpt lat="43.8863317" lon="7.6053413"><ele>230.0</ele><time>2026-04-18T06:43:11.979Z</time></trkpt><trkpt lat="43.8863708" lon="7.6054187"><ele>230.0</ele><time>2026-04-18T06:43:12.979Z</time></trkpt><trkpt lat="43.8864741" lon="7.6054365"><ele>230.0</ele><time>2026-04-18T06:43:14.979Z</time></trkpt><trkpt lat="43.8865653" lon="7.6053466"><ele>230.00000000000003</ele><time>2026-04-18T06:43:16.979Z</time></trkpt><trkpt lat="43.8866129" lon="7.6052509"><ele>230.0</ele><time>2026-04-18T06:43:17.979Z</time></trkpt><trkpt lat="43.8866552" lon="7.6051503"><ele>230.00000000000003</ele><time>2026-04-18T06:43:18.979Z</time></trkpt><trkpt lat="43.8867181" lon="7.6050517"><ele>230.0</ele><time>2026-04-18T06:43:19.979Z</time></trkpt><trkpt lat="43.8867684" lon="7.6049551"><ele>230.0</ele><time>2026-04-18T06:43:20.979Z</time></trkpt><trkpt lat="43.8868289" lon="7.6048566"><ele>230.0</ele><time>2026-04-18T06:43:21.979Z</time></trkpt><trkpt lat="43.8868836" lon="7.6047732"><ele>230.00000000000003</ele><time>2026-04-18T06:43:22.979Z</time></trkpt><trkpt lat="43.8869386" lon="7.6046916"><ele>230.0</ele><time>2026-04-18T06:43:23.979Z</time></trkpt><trkpt lat="43.8870089" lon="7.6046111"><ele>231.83333333333334</ele><time>2026-04-18T06:43:24.978Z</time></trkpt><trkpt lat="43.8870812" lon="7.6045423"><ele>233.66666666666669</ele><time>2026-04-18T06:43:25.979Z</time></trkpt><trkpt lat="43.8871325" lon="7.6044817"><ele>235.5</ele><time>2026-04-18T06:43:26.979Z</time></trkpt><trkpt lat="43.8871662" lon="7.604402"><ele>237.33333333333331</ele><time>2026-04-18T06:43:27.979Z</time></trkpt><trkpt lat="43.887188" lon="7.6043063"><ele>239.16666666666666</ele><time>2026-04-18T06:43:28.979Z</time></trkpt><trkpt lat="43.8872114" lon="7.6041999"><ele>241.0</ele><time>2026-04-18T06:43:29.979Z</time></trkpt><trkpt lat="43.8872379" lon="7.604089"><ele>240.99999999999997</ele><time>2026-04-18T06:43:30.979Z</time></trkpt><trkpt lat="43.8872773" lon="7.6039865"><ele>241.0</ele><time>2026-04-18T06:43:31.979Z</time></trkpt><trkpt lat="43.8873108" lon="7.6038895"><ele>241.0</ele><time>2026-04-18T06:43:32.979Z</time></trkpt><trkpt lat="43.8873481" lon="7.6037972"><ele>241.0</ele><time>2026-04-18T06:43:33.978Z</time></trkpt><trkpt lat="43.8873967" lon="7.6037057"><ele>240.99999999999997</ele><time>2026-04-18T06:43:34.979Z</time></trkpt><trkpt lat="43.8874554" lon="7.6036199"><ele>241.0</ele><time>2026-04-18T06:43:35.979Z</time></trkpt><trkpt lat="43.8875087" lon="7.6035596"><ele>231.75</ele><time>2026-04-18T06:43:36.979Z</time></trkpt><trkpt lat="43.8875955" lon="7.6034552"><ele>222.5</ele><time>2026-04-18T06:43:38.979Z</time></trkpt><trkpt lat="43.8877068" lon="7.6034378"><ele>213.25</ele><time>2026-04-18T06:43:40.979Z</time></trkpt><trkpt lat="43.8878282" lon="7.6035249"><ele>204.0</ele><time>2026-04-18T06:43:42.979Z</time></trkpt><trkpt lat="43.8879196" lon="7.6036136"><ele>212.0</ele><time>2026-04-18T06:43:43.979Z</time></trkpt><trkpt lat="43.8880156" lon="7.6036993"><ele>220.0</ele><time>2026-04-18T06:43:44.979Z</time></trkpt><trkpt lat="43.8880975" lon="7.6037614"><ele>227.99999999999997</ele><time>2026-04-18T06:43:45.979Z</time></trkpt><trkpt lat="43.88817" lon="7.6038063"><ele>236.0</ele><time>2026-04-18T06:43:46.979Z</time></trkpt><trkpt lat="43.888245" lon="7.6038558"><ele>244.0</ele><time>2026-04-18T06:43:47.979Z</time></trkpt><trkpt lat="43.8883206" lon="7.6039337"><ele>243.99999999999997</ele><time>2026-04-18T06:43:48.979Z</time></trkpt><trkpt lat="43.8883854" lon="7.6040134"><ele>244.0</ele><time>2026-04-18T06:43:49.979Z</time></trkpt><trkpt lat="43.888447" lon="7.6040949"><ele>244.0</ele><time>2026-04-18T06:43:50.978Z</time></trkpt><trkpt lat="43.8885197" lon="7.6041494"><ele>244.0</ele><time>2026-04-18T06:43:51.979Z</time></trkpt><trkpt lat="43.8885895" lon="7.6041906"><ele>243.99999999999997</ele><time>2026-04-18T06:43:52.979Z</time></trkpt><trkpt lat="43.8886615" lon="7.6042448"><ele>244.0</ele><time>2026-04-18T06:43:53.979Z</time></trkpt><trkpt lat="43.8887223" lon="7.6043297"><ele>245.33333333333331</ele><time>2026-04-18T06:43:54.979Z</time></trkpt><trkpt lat="43.8887792" lon="7.60442"><ele>246.66666666666666</ele><time>2026-04-18T06:43:55.979Z</time></trkpt><trkpt lat="43.888815" lon="7.6045132"><ele>248.0</ele><time>2026-04-18T06:43:56.979Z</time></trkpt><trkpt lat="43.888856" lon="7.6046095"><ele>249.33333333333331</ele><time>2026-04-18T06:43:57.979Z</time></trkpt><trkpt lat="43.8889145" lon="7.6047043"><ele>250.66666666666666</ele><time>2026-04-18T06:43:58.979Z</time></trkpt><trkpt lat="43.8889906" lon="7.6047941"><ele>252.0</ele><time>2026-04-18T06:43:59.979Z</time></trkpt><trkpt lat="43.8890694" lon="7.6048723"><ele>252.0</ele><time>2026-04-18T06:44:00.979Z</time></trkpt><trkpt lat="43.889127" lon="7.6049537"><ele>252.0</ele><time>2026-04-18T06:44:01.979Z</time></trkpt><trkpt lat="43.8891804" lon="7.6050339"><ele>252.0</ele><time>2026-04-18T06:44:02.978Z</time></trkpt><trkpt lat="43.8892494" lon="7.6051218"><ele>252.0</ele><time>2026-04-18T06:44:03.979Z</time></trkpt><trkpt lat="43.8892918" lon="7.6052095"><ele>252.0</ele><time>2026-04-18T06:44:04.979Z</time></trkpt><trkpt lat="43.8893259" lon="7.6053668"><ele>252.0</ele><time>2026-04-18T06:44:06.979Z</time></trkpt><trkpt lat="43.8893969" lon="7.6054149"><ele>254.5</ele><time>2026-04-18T06:44:08.979Z</time></trkpt><trkpt lat="43.889467" lon="7.6052871"><ele>257.0</ele><time>2026-04-18T06:44:10.979Z</time></trkpt><trkpt lat="43.8894862" lon="7.6052036"><ele>259.5</ele><time>2026-04-18T06:44:11.979Z</time></trkpt><trkpt lat="43.8895051" lon="7.605103"><ele>262.0</ele><time>2026-04-18T06:44:12.979Z</time></trkpt><trkpt lat="43.8895195" lon="7.6049964"><ele>264.5</ele><time>2026-04-18T06:44:13.979Z</time></trkpt><trkpt lat="43.8894995" lon="7.6048875"><ele>267.0</ele><time>2026-04-18T06:44:14.979Z</time></trkpt><trkpt lat="43.8894916" lon="7.6047899"><ele>267.0</ele><time>2026-04-18T06:44:15.978Z</time></trkpt><trkpt lat="43.8894994" lon="7.6047001"><ele>267.0</ele><time>2026-04-18T06:44:16.979Z</time></trkpt><trkpt lat="43.8895607" lon="7.6045702"><ele>267.0</ele><time>2026-04-18T06:44:18.979Z</time></trkpt><trkpt lat="43.8896764" lon="7.6045213"><ele>267.0</ele><time>2026-04-18T06:44:20.978Z</time></trkpt><trkpt lat="43.8897459" lon="7.6045062"><ele>267.0</ele><time>2026-04-18T06:44:21.979Z</time></trkpt><trkpt lat="43.8898315" lon="7.6045195"><ele>267.0</ele><time>2026-04-18T06:44:22.979Z</time></trkpt><trkpt lat="43.8899093" lon="7.6045182"><ele>267.0</ele><time>2026-04-18T06:44:23.979Z</time></trkpt><trkpt lat="43.8899759" lon="7.6045038"><ele>267.0</ele><time>2026-04-18T06:44:24.979Z</time></trkpt><trkpt lat="43.8901022" lon="7.6045224"><ele>267.0</ele><time>2026-04-18T06:44:26.979Z</time></trkpt><trkpt lat="43.8901699" lon="7.6045636"><ele>267.0</ele><time>2026-04-18T06:44:27.979Z</time></trkpt><trkpt lat="43.8902287" lon="7.6046199"><ele>267.0</ele><time>2026-04-18T06:44:28.979Z</time></trkpt><trkpt lat="43.8902901" lon="7.6046474"><ele>266.0</ele><time>2026-04-18T06:44:29.979Z</time></trkpt><trkpt lat="43.8903617" lon="7.6046533"><ele>265.0</ele><time>2026-04-18T06:44:30.979Z</time></trkpt><trkpt lat="43.8904338" lon="7.6044991"><ele>264.0</ele><time>2026-04-18T06:44:32.979Z</time></trkpt><trkpt lat="43.8904798" lon="7.6044099"><ele>263.0</ele><time>2026-04-18T06:44:33.979Z</time></trkpt><trkpt lat="43.8905195" lon="7.6043353"><ele>262.0</ele><time>2026-04-18T06:44:34.979Z</time></trkpt><trkpt lat="43.8905703" lon="7.6042823"><ele>261.0</ele><time>2026-04-18T06:44:35.979Z</time></trkpt><trkpt lat="43.8906639" lon="7.6042675"><ele>261.0</ele><time>2026-04-18T06:44:37.979Z</time></trkpt><trkpt lat="43.8907431" lon="7.6043299"><ele>261.0</ele><time>2026-04-18T06:44:39.979Z</time></trkpt><trkpt lat="43.8908006" lon="7.6043864"><ele>261.0</ele><time>2026-04-18T06:44:40.979Z</time></trkpt><trkpt lat="43.8908763" lon="7.6044477"><ele>261.0</ele><time>2026-04-18T06:44:41.979Z</time></trkpt><trkpt lat="43.8909352" lon="7.6045253"><ele>261.0</ele><time>2026-04-18T06:44:42.979Z</time></trkpt><trkpt lat="43.8909781" lon="7.6045944"><ele>261.0</ele><time>2026-04-18T06:44:43.979Z</time></trkpt><trkpt lat="43.891029" lon="7.604662"><ele>269.2</ele><time>2026-04-18T06:44:44.979Z</time></trkpt><trkpt lat="43.8910808" lon="7.6047407"><ele>277.40000000000003</ele><time>2026-04-18T06:44:45.979Z</time></trkpt><trkpt lat="43.8911086" lon="7.6048338"><ele>285.6</ele><time>2026-04-18T06:44:46.978Z</time></trkpt><trkpt lat="43.8911517" lon="7.6049735"><ele>293.8</ele><time>2026-04-18T06:44:48.979Z</time></trkpt><trkpt lat="43.8912216" lon="7.605063"><ele>302.0</ele><time>2026-04-18T06:44:50.979Z</time></trkpt><trkpt lat="43.8913283" lon="7.605025"><ele>302.0</ele><time>2026-04-18T06:44:52.979Z</time></trkpt><trkpt lat="43.8913889" lon="7.6049575"><ele>302.0</ele><time>2026-04-18T06:44:53.979Z</time></trkpt><trkpt lat="43.8914426" lon="7.604885"><ele>302.0</ele><time>2026-04-18T06:44:54.979Z</time></trkpt><trkpt lat="43.8914653" lon="7.6047619"><ele>302.0</ele><time>2026-04-18T06:44:55.978Z</time></trkpt><trkpt lat="43.891495" lon="7.6046713"><ele>302.0</ele><time>2026-04-18T06:44:56.979Z</time></trkpt><trkpt lat="43.8915086" lon="7.6045017"><ele>302.0</ele><time>2026-04-18T06:44:58.979Z</time></trkpt><trkpt lat="43.8915187" lon="7.6044048"><ele>300.2</ele><time>2026-04-18T06:44:59.979Z</time></trkpt><trkpt lat="43.8915248" lon="7.6043143"><ele>298.4</ele><time>2026-04-18T06:45:00.979Z</time></trkpt><trkpt lat="43.8915263" lon="7.6041591"><ele>296.6</ele><time>2026-04-18T06:45:02.979Z</time></trkpt><trkpt lat="43.8915304" lon="7.6039832"><ele>294.8</ele><time>2026-04-18T06:45:04.979Z</time></trkpt><trkpt lat="43.8915455" lon="7.6038718"><ele>293.0</ele><time>2026-04-18T06:45:05.979Z</time></trkpt><trkpt lat="43.8915615" lon="7.6037572"><ele>291.0</ele><time>2026-04-18T06:45:06.979Z</time></trkpt><trkpt lat="43.8915723" lon="7.6036595"><ele>289.0</ele><time>2026-04-18T06:45:07.979Z</time></trkpt><trkpt lat="43.8915902" lon="7.6034841"><ele>287.0</ele><time>2026-04-18T06:45:09.979Z</time></trkpt><trkpt lat="43.8916548" lon="7.6033311"><ele>285.0</ele><time>2026-04-18T06:45:11.979Z</time></trkpt><trkpt lat="43.8917035" lon="7.6032741"><ele>283.0</ele><time>2026-04-18T06:45:12.979Z</time></trkpt><trkpt lat="43.8917959" lon="7.6031868"><ele>283.0</ele><time>2026-04-18T06:45:14.979Z</time></trkpt><trkpt lat="43.8919149" lon="7.6031792"><ele>283.0</ele><time>2026-04-18T06:45:16.979Z</time></trkpt><trkpt lat="43.8919797" lon="7.6031901"><ele>283.0</ele><time>2026-04-18T06:45:17.979Z</time></trkpt><trkpt lat="43.8920432" lon="7.6032086"><ele>283.0</ele><time>2026-04-18T06:45:18.978Z</time></trkpt><trkpt lat="43.8921297" lon="7.6032654"><ele>283.0</ele><time>2026-04-18T06:45:20.979Z</time></trkpt><trkpt lat="43.8922095" lon="7.6033462"><ele>283.0</ele><time>2026-04-18T06:45:22.979Z</time></trkpt><trkpt lat="43.8922842" lon="7.6034956"><ele>283.0</ele><time>2026-04-18T06:45:24.979Z</time></trkpt><trkpt lat="43.8923258" lon="7.6035717"><ele>283.0</ele><time>2026-04-18T06:45:25.979Z</time></trkpt><trkpt lat="43.8923637" lon="7.6036461"><ele>283.0</ele><time>2026-04-18T06:45:26.979Z</time></trkpt><trkpt lat="43.892399" lon="7.6037362"><ele>283.0</ele><time>2026-04-18T06:45:27.979Z</time></trkpt><trkpt lat="43.8924297" lon="7.6038257"><ele>283.0</ele><time>2026-04-18T06:45:28.979Z</time></trkpt><trkpt lat="43.8924546" lon="7.6039396"><ele>283.0</ele><time>2026-04-18T06:45:29.979Z</time></trkpt><trkpt lat="43.8924917" lon="7.6040434"><ele>283.0</ele><time>2026-04-18T06:45:30.978Z</time></trkpt><trkpt lat="43.8925329" lon="7.6041325"><ele>286.2857142857143</ele><time>2026-04-18T06:45:31.979Z</time></trkpt><trkpt lat="43.8925564" lon="7.6042291"><ele>289.5714285714286</ele><time>2026-04-18T06:45:32.979Z</time></trkpt><trkpt lat="43.8925923" lon="7.6043165"><ele>292.8571428571429</ele><time>2026-04-18T06:45:33.979Z</time></trkpt><trkpt lat="43.8926444" lon="7.6043778"><ele>296.14285714285717</ele><time>2026-04-18T06:45:34.979Z</time></trkpt><trkpt lat="43.8926985" lon="7.6044308"><ele>299.42857142857144</ele><time>2026-04-18T06:45:35.978Z</time></trkpt><trkpt lat="43.8927619" lon="7.6044256"><ele>302.7142857142857</ele><time>2026-04-18T06:45:37.979Z</time></trkpt><trkpt lat="43.8928612" lon="7.6044301"><ele>306.0</ele><time>2026-04-18T06:45:39.979Z</time></trkpt><trkpt lat="43.8929098" lon="7.604293"><ele>310.8</ele><time>2026-04-18T06:45:40.978Z</time></trkpt><trkpt lat="43.8929342" lon="7.6041572"><ele>315.6</ele><time>2026-04-18T06:45:41.979Z</time></trkpt><trkpt lat="43.8929664" lon="7.6040473"><ele>320.4</ele><time>2026-04-18T06:45:42.979Z</time></trkpt><trkpt lat="43.8929981" lon="7.6039292"><ele>325.2</ele><time>2026-04-18T06:45:43.979Z</time></trkpt><trkpt lat="43.8930419" lon="7.6037991"><ele>330.0</ele><time>2026-04-18T06:45:44.979Z</time></trkpt><trkpt lat="43.8930854" lon="7.6036736"><ele>326.0</ele><time>2026-04-18T06:45:45.979Z</time></trkpt><trkpt lat="43.893121" lon="7.6035502"><ele>322.0</ele><time>2026-04-18T06:45:46.978Z</time></trkpt><trkpt lat="43.8931592" lon="7.6034358"><ele>318.0</ele><time>2026-04-18T06:45:47.979Z</time></trkpt><trkpt lat="43.8931984" lon="7.6033336"><ele>314.0</ele><time>2026-04-18T06:45:48.979Z</time></trkpt><trkpt lat="43.8932357" lon="7.6032443"><ele>310.0</ele><time>2026-04-18T06:45:49.979Z</time></trkpt><trkpt lat="43.8932748" lon="7.6031544"><ele>306.0</ele><time>2026-04-18T06:45:50.979Z</time></trkpt><trkpt lat="43.893311" lon="7.6030771"><ele>306.0</ele><time>2026-04-18T06:45:51.979Z</time></trkpt><trkpt lat="43.8933956" lon="7.6029994"><ele>306.0</ele><time>2026-04-18T06:45:53.979Z</time></trkpt><trkpt lat="43.8935107" lon="7.6029448"><ele>306.0</ele><time>2026-04-18T06:45:55.979Z</time></trkpt><trkpt lat="43.8936022" lon="7.6029325"><ele>306.0</ele><time>2026-04-18T06:45:57.979Z</time></trkpt><trkpt lat="43.8937172" lon="7.602954"><ele>306.0</ele><time>2026-04-18T06:45:59.979Z</time></trkpt><trkpt lat="43.8938179" lon="7.6030139"><ele>310.20000000000005</ele><time>2026-04-18T06:46:01.979Z</time></trkpt><trkpt lat="43.8939187" lon="7.6030197"><ele>314.40000000000003</ele><time>2026-04-18T06:46:03.979Z</time></trkpt><trkpt lat="43.8940429" lon="7.6030652"><ele>318.6</ele><time>2026-04-18T06:46:05.979Z</time></trkpt><trkpt lat="43.894138" lon="7.6031123"><ele>322.8</ele><time>2026-04-18T06:46:06.979Z</time></trkpt><trkpt lat="43.8942203" lon="7.6031464"><ele>327.0</ele><time>2026-04-18T06:46:07.979Z</time></trkpt><trkpt lat="43.8942988" lon="7.6031632"><ele>328.40000000000003</ele><time>2026-04-18T06:46:08.979Z</time></trkpt><trkpt lat="43.8943803" lon="7.6031759"><ele>329.8</ele><time>2026-04-18T06:46:09.979Z</time></trkpt><trkpt lat="43.8944646" lon="7.603167"><ele>331.2</ele><time>2026-04-18T06:46:10.979Z</time></trkpt><trkpt lat="43.8945708" lon="7.6031508"><ele>332.6</ele><time>2026-04-18T06:46:11.979Z</time></trkpt><trkpt lat="43.8946785" lon="7.6031173"><ele>334.0</ele><time>2026-04-18T06:46:12.979Z</time></trkpt><trkpt lat="43.8947636" lon="7.6030979"><ele>334.0</ele><time>2026-04-18T06:46:13.979Z</time></trkpt><trkpt lat="43.8948462" lon="7.6030623"><ele>334.0</ele><time>2026-04-18T06:46:14.979Z</time></trkpt><trkpt lat="43.8949224" lon="7.6030419"><ele>334.0</ele><time>2026-04-18T06:46:15.979Z</time></trkpt><trkpt lat="43.8950053" lon="7.6030195"><ele>334.0</ele><time>2026-04-18T06:46:16.979Z</time></trkpt><trkpt lat="43.8951423" lon="7.6029881"><ele>334.0</ele><time>2026-04-18T06:46:18.979Z</time></trkpt><trkpt lat="43.8952039" lon="7.6029696"><ele>328.8333333333333</ele><time>2026-04-18T06:46:19.979Z</time></trkpt><trkpt lat="43.8952684" lon="7.6029608"><ele>323.66666666666663</ele><time>2026-04-18T06:46:20.979Z</time></trkpt><trkpt lat="43.8953342" lon="7.6029674"><ele>318.5</ele><time>2026-04-18T06:46:21.979Z</time></trkpt><trkpt lat="43.8953965" lon="7.6029953"><ele>313.3333333333333</ele><time>2026-04-18T06:46:22.979Z</time></trkpt><trkpt lat="43.8955034" lon="7.6030688"><ele>308.1666666666667</ele><time>2026-04-18T06:46:24.979Z</time></trkpt><trkpt lat="43.8955509" lon="7.6031917"><ele>303.0</ele><time>2026-04-18T06:46:26.979Z</time></trkpt><trkpt lat="43.8955608" lon="7.6032792"><ele>303.0</ele><time>2026-04-18T06:46:27.979Z</time></trkpt><trkpt lat="43.8955583" lon="7.6033817"><ele>303.0</ele><time>2026-04-18T06:46:28.979Z</time></trkpt><trkpt lat="43.8955621" lon="7.603482"><ele>303.0</ele><time>2026-04-18T06:46:29.979Z</time></trkpt><trkpt lat="43.8955746" lon="7.6035792"><ele>303.0</ele><time>2026-04-18T06:46:30.979Z</time></trkpt><trkpt lat="43.8955894" lon="7.6036643"><ele>303.0</ele><time>2026-04-18T06:46:31.979Z</time></trkpt><trkpt lat="43.8956033" lon="7.6038059"><ele>303.0</ele><time>2026-04-18T06:46:33.979Z</time></trkpt><trkpt lat="43.8955627" lon="7.603936"><ele>303.8333333333333</ele><time>2026-04-18T06:46:35.979Z</time></trkpt><trkpt lat="43.8955065" lon="7.6040178"><ele>304.6666666666667</ele><time>2026-04-18T06:46:36.979Z</time></trkpt><trkpt lat="43.8954653" lon="7.6040917"><ele>305.5</ele><time>2026-04-18T06:46:37.979Z</time></trkpt><trkpt lat="43.8954127" lon="7.6041986"><ele>306.33333333333337</ele><time>2026-04-18T06:46:38.979Z</time></trkpt><trkpt lat="43.8953604" lon="7.6043199"><ele>307.1666666666667</ele><time>2026-04-18T06:46:39.979Z</time></trkpt><trkpt lat="43.8953099" lon="7.6044279"><ele>308.0</ele><time>2026-04-18T06:46:40.978Z</time></trkpt><trkpt lat="43.8952638" lon="7.6045234"><ele>310.0</ele><time>2026-04-18T06:46:41.979Z</time></trkpt><trkpt lat="43.8952316" lon="7.6046179"><ele>312.0</ele><time>2026-04-18T06:46:42.979Z</time></trkpt><trkpt lat="43.8951926" lon="7.6047069"><ele>314.0</ele><time>2026-04-18T06:46:43.979Z</time></trkpt><trkpt lat="43.8951279" lon="7.6047969"><ele>316.0</ele><time>2026-04-18T06:46:44.979Z</time></trkpt><trkpt lat="43.8950571" lon="7.604884"><ele>318.0</ele><time>2026-04-18T06:46:45.979Z</time></trkpt><trkpt lat="43.8949954" lon="7.6049677"><ele>320.0</ele><time>2026-04-18T06:46:46.979Z</time></trkpt><trkpt lat="43.8949185" lon="7.6050731"><ele>323.6</ele><time>2026-04-18T06:46:47.979Z</time></trkpt><trkpt lat="43.8948593" lon="7.6051858"><ele>327.2</ele><time>2026-04-18T06:46:48.979Z</time></trkpt><trkpt lat="43.8947999" lon="7.6052819"><ele>330.79999999999995</ele><time>2026-04-18T06:46:49.979Z</time></trkpt><trkpt lat="43.8947422" lon="7.6053813"><ele>334.4</ele><time>2026-04-18T06:46:50.979Z</time></trkpt><trkpt lat="43.8946937" lon="7.6054808"><ele>338.0</ele><time>2026-04-18T06:46:51.979Z</time></trkpt><trkpt lat="43.8946475" lon="7.6055999"><ele>338.0</ele><time>2026-04-18T06:46:52.979Z</time></trkpt><trkpt lat="43.8945951" lon="7.6057331"><ele>338.0</ele><time>2026-04-18T06:46:53.979Z</time></trkpt><trkpt lat="43.8945526" lon="7.6058619"><ele>338.0</ele><time>2026-04-18T06:46:54.979Z</time></trkpt><trkpt lat="43.8945216" lon="7.6059826"><ele>338.0</ele><time>2026-04-18T06:46:55.979Z</time></trkpt><trkpt lat="43.8944971" lon="7.6061172"><ele>338.0</ele><time>2026-04-18T06:46:56.978Z</time></trkpt><trkpt lat="43.894468" lon="7.6062415"><ele>341.33333333333337</ele><time>2026-04-18T06:46:57.979Z</time></trkpt><trkpt lat="43.894434" lon="7.6063501"><ele>344.6666666666667</ele><time>2026-04-18T06:46:58.979Z</time></trkpt><trkpt lat="43.894408" lon="7.6064514"><ele>348.0</ele><time>2026-04-18T06:46:59.979Z</time></trkpt><trkpt lat="43.8943698" lon="7.6065661"><ele>351.3333333333333</ele><time>2026-04-18T06:47:00.979Z</time></trkpt><trkpt lat="43.894335" lon="7.6066821"><ele>354.66666666666663</ele><time>2026-04-18T06:47:01.979Z</time></trkpt><trkpt lat="43.8943107" lon="7.6067735"><ele>358.0</ele><time>2026-04-18T06:47:02.979Z</time></trkpt><trkpt lat="43.8943028" lon="7.6069081"><ele>358.0</ele><time>2026-04-18T06:47:04.979Z</time></trkpt><trkpt lat="43.8943335" lon="7.6069941"><ele>358.0</ele><time>2026-04-18T06:47:06.978Z</time></trkpt><trkpt lat="43.8944318" lon="7.6069613"><ele>358.0</ele><time>2026-04-18T06:47:08.979Z</time></trkpt><trkpt lat="43.8944886" lon="7.6069125"><ele>358.0</ele><time>2026-04-18T06:47:09.979Z</time></trkpt><trkpt lat="43.8945402" lon="7.6068408"><ele>358.0</ele><time>2026-04-18T06:47:10.978Z</time></trkpt><trkpt lat="43.8946022" lon="7.6067752"><ele>358.0</ele><time>2026-04-18T06:47:11.979Z</time></trkpt><trkpt lat="43.8946568" lon="7.6067116"><ele>358.0</ele><time>2026-04-18T06:47:12.979Z</time></trkpt><trkpt lat="43.8947176" lon="7.6066785"><ele>358.0</ele><time>2026-04-18T06:47:13.979Z</time></trkpt><trkpt lat="43.8947861" lon="7.6066298"><ele>358.0</ele><time>2026-04-18T06:47:14.979Z</time></trkpt><trkpt lat="43.8948523" lon="7.6065776"><ele>358.0</ele><time>2026-04-18T06:47:15.979Z</time></trkpt><trkpt lat="43.8949008" lon="7.6065076"><ele>358.0</ele><time>2026-04-18T06:47:16.979Z</time></trkpt><trkpt lat="43.8949419" lon="7.606438"><ele>358.0</ele><time>2026-04-18T06:47:17.979Z</time></trkpt><trkpt lat="43.8950534" lon="7.6063763"><ele>357.00000000000006</ele><time>2026-04-18T06:47:19.979Z</time></trkpt><trkpt lat="43.8951199" lon="7.6063685"><ele>356.0</ele><time>2026-04-18T06:47:20.979Z</time></trkpt><trkpt lat="43.8951867" lon="7.6063729"><ele>355.0</ele><time>2026-04-18T06:47:21.979Z</time></trkpt><trkpt lat="43.8952523" lon="7.6063645"><ele>354.0</ele><time>2026-04-18T06:47:22.979Z</time></trkpt><trkpt lat="43.8953172" lon="7.6063302"><ele>353.0</ele><time>2026-04-18T06:47:23.978Z</time></trkpt><trkpt lat="43.895371" lon="7.6062588"><ele>352.00000000000006</ele><time>2026-04-18T06:47:24.979Z</time></trkpt><trkpt lat="43.8954222" lon="7.6061913"><ele>351.0</ele><time>2026-04-18T06:47:25.979Z</time></trkpt><trkpt lat="43.895535" lon="7.6061319"><ele>351.00000000000006</ele><time>2026-04-18T06:47:27.979Z</time></trkpt><trkpt lat="43.8956033" lon="7.6060989"><ele>351.0</ele><time>2026-04-18T06:47:28.979Z</time></trkpt><trkpt lat="43.8956783" lon="7.6060839"><ele>351.0</ele><time>2026-04-18T06:47:29.979Z</time></trkpt><trkpt lat="43.8957542" lon="7.6060716"><ele>351.0</ele><time>2026-04-18T06:47:30.978Z</time></trkpt><trkpt lat="43.8958272" lon="7.6060513"><ele>351.0</ele><time>2026-04-18T06:47:31.979Z</time></trkpt><trkpt lat="43.8958955" lon="7.6060297"><ele>351.00000000000006</ele><time>2026-04-18T06:47:32.979Z</time></trkpt><trkpt lat="43.8959667" lon="7.6060066"><ele>351.0</ele><time>2026-04-18T06:47:33.979Z</time></trkpt><trkpt lat="43.8960258" lon="7.6059746"><ele>353.8</ele><time>2026-04-18T06:47:34.979Z</time></trkpt><trkpt lat="43.8961395" lon="7.6059107"><ele>356.6</ele><time>2026-04-18T06:47:36.979Z</time></trkpt><trkpt lat="43.8962485" lon="7.6058156"><ele>359.4</ele><time>2026-04-18T06:47:38.979Z</time></trkpt><trkpt lat="43.8963144" lon="7.6057634"><ele>362.2</ele><time>2026-04-18T06:47:39.979Z</time></trkpt><trkpt lat="43.8963862" lon="7.6057194"><ele>365.0</ele><time>2026-04-18T06:47:40.979Z</time></trkpt><trkpt lat="43.8964563" lon="7.6056733"><ele>365.0</ele><time>2026-04-18T06:47:41.979Z</time></trkpt><trkpt lat="43.8965179" lon="7.6056351"><ele>365.0</ele><time>2026-04-18T06:47:42.979Z</time></trkpt><trkpt lat="43.896579" lon="7.6055945"><ele>365.0</ele><time>2026-04-18T06:47:43.979Z</time></trkpt><trkpt lat="43.8966335" lon="7.6055383"><ele>365.0</ele><time>2026-04-18T06:47:44.979Z</time></trkpt><trkpt lat="43.8966939" lon="7.6054975"><ele>365.0</ele><time>2026-04-18T06:47:45.979Z</time></trkpt><trkpt lat="43.8967748" lon="7.6054111"><ele>365.0</ele><time>2026-04-18T06:47:47.979Z</time></trkpt><trkpt lat="43.8968542" lon="7.6054354"><ele>358.6666666666667</ele><time>2026-04-18T06:47:49.979Z</time></trkpt><trkpt lat="43.8968953" lon="7.6055225"><ele>352.33333333333337</ele><time>2026-04-18T06:47:51.979Z</time></trkpt><trkpt lat="43.896904" lon="7.6056741"><ele>346.0</ele><time>2026-04-18T06:47:53.979Z</time></trkpt><trkpt lat="43.8968999" lon="7.6057749"><ele>339.6666666666667</ele><time>2026-04-18T06:47:54.979Z</time></trkpt><trkpt lat="43.8969021" lon="7.6058717"><ele>333.3333333333333</ele><time>2026-04-18T06:47:55.979Z</time></trkpt><trkpt lat="43.896903" lon="7.6059652"><ele>327.0</ele><time>2026-04-18T06:47:56.979Z</time></trkpt><trkpt lat="43.8969229" lon="7.6060507"><ele>327.0</ele><time>2026-04-18T06:47:57.979Z</time></trkpt><trkpt lat="43.8969375" lon="7.6061454"><ele>327.0</ele><time>2026-04-18T06:47:58.979Z</time></trkpt><trkpt lat="43.8969305" lon="7.6062364"><ele>327.0</ele><time>2026-04-18T06:47:59.979Z</time></trkpt><trkpt lat="43.8969134" lon="7.6063854"><ele>327.0</ele><time>2026-04-18T06:48:01.979Z</time></trkpt><trkpt lat="43.8968506" lon="7.6065293"><ele>327.0</ele><time>2026-04-18T06:48:03.979Z</time></trkpt><trkpt lat="43.8968064" lon="7.6066002"><ele>327.0</ele><time>2026-04-18T06:48:04.979Z</time></trkpt><trkpt lat="43.8967664" lon="7.6066875"><ele>334.57142857142856</ele><time>2026-04-18T06:48:05.974Z</time></trkpt><trkpt lat="43.8967307" lon="7.6067753"><ele>342.14285714285717</ele><time>2026-04-18T06:48:06.979Z</time></trkpt><trkpt lat="43.8966975" lon="7.6068681"><ele>349.7142857142857</ele><time>2026-04-18T06:48:07.979Z</time></trkpt><trkpt lat="43.8966799" lon="7.6069679"><ele>357.2857142857143</ele><time>2026-04-18T06:48:08.979Z</time></trkpt><trkpt lat="43.8966695" lon="7.6070672"><ele>364.8571428571429</ele><time>2026-04-18T06:48:09.979Z</time></trkpt><trkpt lat="43.8966598" lon="7.6071742"><ele>372.42857142857144</ele><time>2026-04-18T06:48:10.979Z</time></trkpt><trkpt lat="43.8966477" lon="7.6072733"><ele>380.0</ele><time>2026-04-18T06:48:11.978Z</time></trkpt><trkpt lat="43.8966402" lon="7.6073635"><ele>381.1666666666667</ele><time>2026-04-18T06:48:12.978Z</time></trkpt><trkpt lat="43.8966447" lon="7.6075061"><ele>382.33333333333337</ele><time>2026-04-18T06:48:14.979Z</time></trkpt><trkpt lat="43.8966934" lon="7.6075901"><ele>383.5</ele><time>2026-04-18T06:48:16.978Z</time></trkpt><trkpt lat="43.8967763" lon="7.6075951"><ele>384.6666666666667</ele><time>2026-04-18T06:48:18.979Z</time></trkpt><trkpt lat="43.8968306" lon="7.6075403"><ele>385.8333333333333</ele><time>2026-04-18T06:48:19.979Z</time></trkpt><trkpt lat="43.8969111" lon="7.6074806"><ele>387.0</ele><time>2026-04-18T06:48:20.979Z</time></trkpt><trkpt lat="43.8969895" lon="7.6074326"><ele>383.0</ele><time>2026-04-18T06:48:21.979Z</time></trkpt><trkpt lat="43.8970936" lon="7.6074424"><ele>379.0</ele><time>2026-04-18T06:48:22.979Z</time></trkpt><trkpt lat="43.8971946" lon="7.6074459"><ele>375.0</ele><time>2026-04-18T06:48:23.979Z</time></trkpt><trkpt lat="43.8972749" lon="7.6074493"><ele>371.0</ele><time>2026-04-18T06:48:24.979Z</time></trkpt><trkpt lat="43.89734" lon="7.6074478"><ele>367.0</ele><time>2026-04-18T06:48:25.979Z</time></trkpt><trkpt lat="43.8974043" lon="7.6074595"><ele>363.0</ele><time>2026-04-18T06:48:26.979Z</time></trkpt><trkpt lat="43.8974824" lon="7.6075344"><ele>363.0</ele><time>2026-04-18T06:48:28.979Z</time></trkpt><trkpt lat="43.8975014" lon="7.6076762"><ele>363.0</ele><time>2026-04-18T06:48:30.979Z</time></trkpt><trkpt lat="43.8974893" lon="7.6077685"><ele>363.0</ele><time>2026-04-18T06:48:31.979Z</time></trkpt><trkpt lat="43.897473" lon="7.6078825"><ele>363.0</ele><time>2026-04-18T06:48:32.979Z</time></trkpt><trkpt lat="43.897477" lon="7.6080158"><ele>363.0</ele><time>2026-04-18T06:48:33.979Z</time></trkpt><trkpt lat="43.8974916" lon="7.6081558"><ele>366.1666666666667</ele><time>2026-04-18T06:48:34.979Z</time></trkpt><trkpt lat="43.8975135" lon="7.6082736"><ele>369.3333333333333</ele><time>2026-04-18T06:48:35.979Z</time></trkpt><trkpt lat="43.8975301" lon="7.6083706"><ele>372.5</ele><time>2026-04-18T06:48:36.979Z</time></trkpt><trkpt lat="43.8975388" lon="7.608462"><ele>375.66666666666663</ele><time>2026-04-18T06:48:37.979Z</time></trkpt><trkpt lat="43.8975414" lon="7.6085509"><ele>378.8333333333333</ele><time>2026-04-18T06:48:38.979Z</time></trkpt><trkpt lat="43.8975817" lon="7.6086662"><ele>382.0</ele><time>2026-04-18T06:48:40.979Z</time></trkpt><trkpt lat="43.8976459" lon="7.6087303"><ele>379.8</ele><time>2026-04-18T06:48:42.979Z</time></trkpt><trkpt lat="43.8977443" lon="7.6087023"><ele>377.6</ele><time>2026-04-18T06:48:43.979Z</time></trkpt><trkpt lat="43.8978468" lon="7.6086291"><ele>375.40000000000003</ele><time>2026-04-18T06:48:44.978Z</time></trkpt><trkpt lat="43.8978994" lon="7.6085455"><ele>373.20000000000005</ele><time>2026-04-18T06:48:45.979Z</time></trkpt><trkpt lat="43.8979654" lon="7.608458"><ele>371.0</ele><time>2026-04-18T06:48:46.979Z</time></trkpt><trkpt lat="43.8980277" lon="7.6083778"><ele>371.0</ele><time>2026-04-18T06:48:47.978Z</time></trkpt><trkpt lat="43.8980865" lon="7.6083101"><ele>371.0</ele><time>2026-04-18T06:48:48.979Z</time></trkpt><trkpt lat="43.8981375" lon="7.6082263"><ele>371.0</ele><time>2026-04-18T06:48:49.978Z</time></trkpt><trkpt lat="43.8981997" lon="7.6081116"><ele>371.0</ele><time>2026-04-18T06:48:50.979Z</time></trkpt><trkpt lat="43.8982627" lon="7.6080309"><ele>371.0</ele><time>2026-04-18T06:48:51.979Z</time></trkpt><trkpt lat="43.8983126" lon="7.6079639"><ele>371.0</ele><time>2026-04-18T06:48:52.979Z</time></trkpt><trkpt lat="43.8983853" lon="7.6078521"><ele>366.0</ele><time>2026-04-18T06:48:54.979Z</time></trkpt><trkpt lat="43.8984476" lon="7.6078246"><ele>361.0</ele><time>2026-04-18T06:48:56.979Z</time></trkpt><trkpt lat="43.8984956" lon="7.6078973"><ele>356.0</ele><time>2026-04-18T06:48:58.979Z</time></trkpt><trkpt lat="43.8985003" lon="7.6080783"><ele>351.0</ele><time>2026-04-18T06:49:00.979Z</time></trkpt><trkpt lat="43.8985066" lon="7.6081846"><ele>346.0</ele><time>2026-04-18T06:49:01.979Z</time></trkpt><trkpt lat="43.8985252" lon="7.6082877"><ele>341.0</ele><time>2026-04-18T06:49:02.979Z</time></trkpt><trkpt lat="43.8985492" lon="7.6083935"><ele>341.0</ele><time>2026-04-18T06:49:03.979Z</time></trkpt><trkpt lat="43.8985747" lon="7.6084779"><ele>341.0</ele><time>2026-04-18T06:49:04.979Z</time></trkpt><trkpt lat="43.8985966" lon="7.608563"><ele>341.0</ele><time>2026-04-18T06:49:05.978Z</time></trkpt><trkpt lat="43.8986164" lon="7.6086538"><ele>341.0</ele><time>2026-04-18T06:49:06.979Z</time></trkpt><trkpt lat="43.8986287" lon="7.6087458"><ele>341.0</ele><time>2026-04-18T06:49:07.979Z</time></trkpt><trkpt lat="43.8986356" lon="7.6088386"><ele>341.0</ele><time>2026-04-18T06:49:08.979Z</time></trkpt><trkpt lat="43.8986702" lon="7.6089956"><ele>344.0</ele><time>2026-04-18T06:49:10.979Z</time></trkpt><trkpt lat="43.8987414" lon="7.6091359"><ele>347.0</ele><time>2026-04-18T06:49:12.979Z</time></trkpt><trkpt lat="43.8988156" lon="7.6092863"><ele>350.0</ele><time>2026-04-18T06:49:14.979Z</time></trkpt><trkpt lat="43.8988377" lon="7.6093742"><ele>353.0</ele><time>2026-04-18T06:49:15.979Z</time></trkpt><trkpt lat="43.8988535" lon="7.6094639"><ele>356.0</ele><time>2026-04-18T06:49:16.979Z</time></trkpt><trkpt lat="43.8988706" lon="7.6095486"><ele>358.0</ele><time>2026-04-18T06:49:17.979Z</time></trkpt><trkpt lat="43.8988862" lon="7.6096429"><ele>360.0</ele><time>2026-04-18T06:49:18.979Z</time></trkpt><trkpt lat="43.8989023" lon="7.6097317"><ele>362.0</ele><time>2026-04-18T06:49:19.979Z</time></trkpt><trkpt lat="43.8989353" lon="7.6098975"><ele>364.0</ele><time>2026-04-18T06:49:21.978Z</time></trkpt><trkpt lat="43.8989491" lon="7.6099872"><ele>366.0</ele><time>2026-04-18T06:49:22.979Z</time></trkpt><trkpt lat="43.8989944" lon="7.6101371"><ele>368.0</ele><time>2026-04-18T06:49:24.979Z</time></trkpt><trkpt lat="43.8990486" lon="7.610293"><ele>370.2</ele><time>2026-04-18T06:49:26.979Z</time></trkpt><trkpt lat="43.8991138" lon="7.6104401"><ele>372.4</ele><time>2026-04-18T06:49:28.979Z</time></trkpt><trkpt lat="43.8991725" lon="7.610566"><ele>374.59999999999997</ele><time>2026-04-18T06:49:30.979Z</time></trkpt><trkpt lat="43.8992099" lon="7.6106606"><ele>376.79999999999995</ele><time>2026-04-18T06:49:32.979Z</time></trkpt><trkpt lat="43.8992683" lon="7.6106985"><ele>379.0</ele><time>2026-04-18T06:49:36.979Z</time></trkpt><trkpt lat="43.8993072" lon="7.6105887"><ele>382.66666666666663</ele><time>2026-04-18T06:49:38.979Z</time></trkpt><trkpt lat="43.8993289" lon="7.6104977"><ele>386.3333333333333</ele><time>2026-04-18T06:49:39.979Z</time></trkpt><trkpt lat="43.8993426" lon="7.6103835"><ele>390.0</ele><time>2026-04-18T06:49:40.979Z</time></trkpt><trkpt lat="43.899362" lon="7.610265"><ele>393.66666666666663</ele><time>2026-04-18T06:49:41.979Z</time></trkpt><trkpt lat="43.8993898" lon="7.6101301"><ele>397.3333333333333</ele><time>2026-04-18T06:49:42.979Z</time></trkpt><trkpt lat="43.899419" lon="7.6099996"><ele>401.0</ele><time>2026-04-18T06:49:43.979Z</time></trkpt><trkpt lat="43.8994374" lon="7.6098893"><ele>400.99999999999994</ele><time>2026-04-18T06:49:44.979Z</time></trkpt><trkpt lat="43.8994678" lon="7.6097903"><ele>401.0</ele><time>2026-04-18T06:49:45.979Z</time></trkpt><trkpt lat="43.8995003" lon="7.6096916"><ele>401.0</ele><time>2026-04-18T06:49:46.979Z</time></trkpt><trkpt lat="43.8995324" lon="7.6096027"><ele>401.0</ele><time>2026-04-18T06:49:47.979Z</time></trkpt><trkpt lat="43.8995583" lon="7.6095111"><ele>400.99999999999994</ele><time>2026-04-18T06:49:48.979Z</time></trkpt><trkpt lat="43.8995865" lon="7.6094132"><ele>401.0</ele><time>2026-04-18T06:49:49.979Z</time></trkpt><trkpt lat="43.8996213" lon="7.6093197"><ele>396.20000000000005</ele><time>2026-04-18T06:49:50.979Z</time></trkpt><trkpt lat="43.8996541" lon="7.6092309"><ele>391.40000000000003</ele><time>2026-04-18T06:49:51.979Z</time></trkpt><trkpt lat="43.8996767" lon="7.609142"><ele>386.6</ele><time>2026-04-18T06:49:52.978Z</time></trkpt><trkpt lat="43.899718" lon="7.6089977"><ele>381.8</ele><time>2026-04-18T06:49:54.979Z</time></trkpt><trkpt lat="43.8998008" lon="7.6089215"><ele>377.0</ele><time>2026-04-18T06:49:56.979Z</time></trkpt><trkpt lat="43.899909" lon="7.6089167"><ele>376.99999999999994</ele><time>2026-04-18T06:49:58.979Z</time></trkpt><trkpt lat="43.8999758" lon="7.6089338"><ele>377.0</ele><time>2026-04-18T06:49:59.979Z</time></trkpt><trkpt lat="43.9000393" lon="7.6089707"><ele>377.0</ele><time>2026-04-18T06:50:00.979Z</time></trkpt><trkpt lat="43.9000949" lon="7.6090164"><ele>377.0</ele><time>2026-04-18T06:50:01.979Z</time></trkpt><trkpt lat="43.9001657" lon="7.6090488"><ele>377.0</ele><time>2026-04-18T06:50:02.979Z</time></trkpt><trkpt lat="43.9002277" lon="7.609078"><ele>376.99999999999994</ele><time>2026-04-18T06:50:03.979Z</time></trkpt><trkpt lat="43.9002973" lon="7.6090966"><ele>377.0</ele><time>2026-04-18T06:50:04.979Z</time></trkpt><trkpt lat="43.9003763" lon="7.6091011"><ele>380.0</ele><time>2026-04-18T06:50:05.979Z</time></trkpt><trkpt lat="43.9005006" lon="7.6090975"><ele>383.0</ele><time>2026-04-18T06:50:07.979Z</time></trkpt><trkpt lat="43.9005917" lon="7.6090388"><ele>386.0</ele><time>2026-04-18T06:50:09.978Z</time></trkpt><trkpt lat="43.9006191" lon="7.6088959"><ele>389.0</ele><time>2026-04-18T06:50:11.979Z</time></trkpt><trkpt lat="43.900596" lon="7.6087508"><ele>392.0</ele><time>2026-04-18T06:50:13.979Z</time></trkpt><trkpt lat="43.9006402" lon="7.6086446"><ele>392.0</ele><time>2026-04-18T06:50:15.979Z</time></trkpt><trkpt lat="43.9007144" lon="7.6085841"><ele>392.0</ele><time>2026-04-18T06:50:17.979Z</time></trkpt><trkpt lat="43.9007384" lon="7.6084302"><ele>392.0</ele><time>2026-04-18T06:50:19.979Z</time></trkpt><trkpt lat="43.9007366" lon="7.6083126"><ele>392.0</ele><time>2026-04-18T06:50:20.979Z</time></trkpt><trkpt lat="43.9007039" lon="7.6081977"><ele>392.0</ele><time>2026-04-18T06:50:21.978Z</time></trkpt><trkpt lat="43.9006573" lon="7.6081103"><ele>392.0</ele><time>2026-04-18T06:50:22.979Z</time></trkpt><trkpt lat="43.9006136" lon="7.6079594"><ele>392.0</ele><time>2026-04-18T06:50:24.979Z</time></trkpt><trkpt lat="43.9006144" lon="7.6077983"><ele>392.0</ele><time>2026-04-18T06:50:26.978Z</time></trkpt><trkpt lat="43.9006722" lon="7.6076814"><ele>392.0</ele><time>2026-04-18T06:50:28.979Z</time></trkpt><trkpt lat="43.9007714" lon="7.6075949"><ele>391.14285714285717</ele><time>2026-04-18T06:50:30.979Z</time></trkpt><trkpt lat="43.9008399" lon="7.6075747"><ele>390.2857142857143</ele><time>2026-04-18T06:50:31.979Z</time></trkpt><trkpt lat="43.9009151" lon="7.6075411"><ele>389.42857142857144</ele><time>2026-04-18T06:50:32.979Z</time></trkpt><trkpt lat="43.9009797" lon="7.6074898"><ele>388.57142857142856</ele><time>2026-04-18T06:50:33.979Z</time></trkpt><trkpt lat="43.9010379" lon="7.6074407"><ele>387.7142857142857</ele><time>2026-04-18T06:50:34.978Z</time></trkpt><trkpt lat="43.9010812" lon="7.6073618"><ele>386.8571428571429</ele><time>2026-04-18T06:50:35.979Z</time></trkpt><trkpt lat="43.9011128" lon="7.6072658"><ele>386.0</ele><time>2026-04-18T06:50:36.979Z</time></trkpt><trkpt lat="43.9011303" lon="7.6071719"><ele>391.7142857142857</ele><time>2026-04-18T06:50:37.979Z</time></trkpt><trkpt lat="43.901145" lon="7.607075"><ele>397.42857142857144</ele><time>2026-04-18T06:50:38.979Z</time></trkpt><trkpt lat="43.901159" lon="7.6069735"><ele>403.1428571428571</ele><time>2026-04-18T06:50:39.979Z</time></trkpt><trkpt lat="43.9011601" lon="7.6068774"><ele>408.8571428571429</ele><time>2026-04-18T06:50:40.979Z</time></trkpt><trkpt lat="43.9011625" lon="7.6067727"><ele>414.57142857142856</ele><time>2026-04-18T06:50:41.979Z</time></trkpt><trkpt lat="43.9011319" lon="7.6066746"><ele>420.2857142857143</ele><time>2026-04-18T06:50:42.979Z</time></trkpt><trkpt lat="43.9010992" lon="7.6065763"><ele>426.0</ele><time>2026-04-18T06:50:43.979Z</time></trkpt><trkpt lat="43.9010312" lon="7.606498"><ele>426.0</ele><time>2026-04-18T06:50:44.979Z</time></trkpt><trkpt lat="43.9009671" lon="7.606422"><ele>426.0</ele><time>2026-04-18T06:50:45.979Z</time></trkpt><trkpt lat="43.9009127" lon="7.6063398"><ele>426.0</ele><time>2026-04-18T06:50:46.979Z</time></trkpt><trkpt lat="43.9008552" lon="7.6062583"><ele>426.0</ele><time>2026-04-18T06:50:47.979Z</time></trkpt><trkpt lat="43.9008126" lon="7.6061759"><ele>426.0</ele><time>2026-04-18T06:50:48.979Z</time></trkpt><trkpt lat="43.9007841" lon="7.6060827"><ele>426.0</ele><time>2026-04-18T06:50:49.979Z</time></trkpt><trkpt lat="43.9007621" lon="7.6059148"><ele>426.0</ele><time>2026-04-18T06:50:51.979Z</time></trkpt><trkpt lat="43.9007968" lon="7.6057763"><ele>426.0</ele><time>2026-04-18T06:50:53.979Z</time></trkpt><trkpt lat="43.9008935" lon="7.6056568"><ele>426.0</ele><time>2026-04-18T06:50:55.979Z</time></trkpt><trkpt lat="43.9009538" lon="7.6056018"><ele>426.0</ele><time>2026-04-18T06:50:56.978Z</time></trkpt><trkpt lat="43.9010156" lon="7.6055428"><ele>426.0</ele><time>2026-04-18T06:50:57.979Z</time></trkpt><trkpt lat="43.9010823" lon="7.605481"><ele>426.0</ele><time>2026-04-18T06:50:58.979Z</time></trkpt><trkpt lat="43.9011357" lon="7.605422"><ele>426.0</ele><time>2026-04-18T06:50:59.979Z</time></trkpt><trkpt lat="43.9011774" lon="7.6053506"><ele>426.0</ele><time>2026-04-18T06:51:00.979Z</time></trkpt><trkpt lat="43.9012356" lon="7.6052279"><ele>426.0</ele><time>2026-04-18T06:51:02.979Z</time></trkpt><trkpt lat="43.9012332" lon="7.6051272"><ele>426.0</ele><time>2026-04-18T06:51:03.979Z</time></trkpt><trkpt lat="43.9012043" lon="7.6049769"><ele>426.0</ele><time>2026-04-18T06:51:04.979Z</time></trkpt><trkpt lat="43.9011811" lon="7.6048419"><ele>423.8333333333333</ele><time>2026-04-18T06:51:05.979Z</time></trkpt><trkpt lat="43.901158" lon="7.6047218"><ele>421.66666666666663</ele><time>2026-04-18T06:51:06.979Z</time></trkpt><trkpt lat="43.9011329" lon="7.6046317"><ele>419.5</ele><time>2026-04-18T06:51:07.979Z</time></trkpt><trkpt lat="43.901116" lon="7.6045075"><ele>417.3333333333333</ele><time>2026-04-18T06:51:09.979Z</time></trkpt><trkpt lat="43.9011685" lon="7.6044513"><ele>415.16666666666663</ele><time>2026-04-18T06:51:12.979Z</time></trkpt><trkpt lat="43.9011997" lon="7.6045464"><ele>413.0</ele><time>2026-04-18T06:51:14.979Z</time></trkpt><trkpt lat="43.901258" lon="7.6047109"><ele>412.99999999999994</ele><time>2026-04-18T06:51:16.979Z</time></trkpt><trkpt lat="43.9013023" lon="7.6047856"><ele>413.0</ele><time>2026-04-18T06:51:17.979Z</time></trkpt><trkpt lat="43.9013551" lon="7.6048665"><ele>413.0</ele><time>2026-04-18T06:51:18.978Z</time></trkpt><trkpt lat="43.901407" lon="7.604952"><ele>413.0</ele><time>2026-04-18T06:51:19.979Z</time></trkpt><trkpt lat="43.9014555" lon="7.6050346"><ele>412.99999999999994</ele><time>2026-04-18T06:51:20.979Z</time></trkpt><trkpt lat="43.9015041" lon="7.6051108"><ele>413.0</ele><time>2026-04-18T06:51:21.979Z</time></trkpt><trkpt lat="43.9015753" lon="7.6052336"><ele>415.59999999999997</ele><time>2026-04-18T06:51:23.979Z</time></trkpt><trkpt lat="43.9016435" lon="7.6053453"><ele>418.2</ele><time>2026-04-18T06:51:25.979Z</time></trkpt><trkpt lat="43.9016688" lon="7.6054668"><ele>420.8</ele><time>2026-04-18T06:51:27.979Z</time></trkpt><trkpt lat="43.9016828" lon="7.6056401"><ele>423.4</ele><time>2026-04-18T06:51:29.979Z</time></trkpt><trkpt lat="43.9016979" lon="7.6057282"><ele>426.0</ele><time>2026-04-18T06:51:30.979Z</time></trkpt><trkpt lat="43.9017082" lon="7.6058173"><ele>426.0</ele><time>2026-04-18T06:51:31.979Z</time></trkpt><trkpt lat="43.901711" lon="7.6059879"><ele>426.0</ele><time>2026-04-18T06:51:33.979Z</time></trkpt><trkpt lat="43.9017297" lon="7.606088"><ele>426.0</ele><time>2026-04-18T06:51:34.979Z</time></trkpt><trkpt lat="43.9017475" lon="7.6061907"><ele>426.0</ele><time>2026-04-18T06:51:35.979Z</time></trkpt><trkpt lat="43.9017676" lon="7.6062856"><ele>426.0</ele><time>2026-04-18T06:51:36.979Z</time></trkpt><trkpt lat="43.901798" lon="7.6063797"><ele>426.0</ele><time>2026-04-18T06:51:37.979Z</time></trkpt><trkpt lat="43.901839" lon="7.6064704"><ele>427.3333333333333</ele><time>2026-04-18T06:51:38.978Z</time></trkpt><trkpt lat="43.9018742" lon="7.6065746"><ele>428.66666666666663</ele><time>2026-04-18T06:51:39.979Z</time></trkpt><trkpt lat="43.9019095" lon="7.606687"><ele>430.0</ele><time>2026-04-18T06:51:40.979Z</time></trkpt><trkpt lat="43.9019462" lon="7.6067948"><ele>431.3333333333333</ele><time>2026-04-18T06:51:41.979Z</time></trkpt><trkpt lat="43.9019907" lon="7.6068945"><ele>432.66666666666663</ele><time>2026-04-18T06:51:42.979Z</time></trkpt><trkpt lat="43.9020405" lon="7.606992"><ele>434.0</ele><time>2026-04-18T06:51:43.979Z</time></trkpt><trkpt lat="43.90209" lon="7.6070834"><ele>433.99999999999994</ele><time>2026-04-18T06:51:44.979Z</time></trkpt><trkpt lat="43.9021383" lon="7.607165"><ele>434.0</ele><time>2026-04-18T06:51:45.979Z</time></trkpt><trkpt lat="43.9021921" lon="7.6072449"><ele>434.0</ele><time>2026-04-18T06:51:46.979Z</time></trkpt><trkpt lat="43.9022464" lon="7.607329"><ele>434.0</ele><time>2026-04-18T06:51:47.979Z</time></trkpt><trkpt lat="43.902299" lon="7.607417"><ele>433.99999999999994</ele><time>2026-04-18T06:51:48.979Z</time></trkpt><trkpt lat="43.9023576" lon="7.6075151"><ele>434.0</ele><time>2026-04-18T06:51:49.979Z</time></trkpt><trkpt lat="43.9024105" lon="7.6076068"><ele>433.99999999999994</ele><time>2026-04-18T06:51:50.979Z</time></trkpt><trkpt lat="43.9024571" lon="7.6077"><ele>434.0</ele><time>2026-04-18T06:51:51.979Z</time></trkpt><trkpt lat="43.9025016" lon="7.6077798"><ele>434.0</ele><time>2026-04-18T06:51:52.979Z</time></trkpt><trkpt lat="43.902563" lon="7.6078532"><ele>434.0</ele><time>2026-04-18T06:51:53.979Z</time></trkpt><trkpt lat="43.9026284" lon="7.6079224"><ele>433.99999999999994</ele><time>2026-04-18T06:51:54.979Z</time></trkpt><trkpt lat="43.9027477" lon="7.6079892"><ele>434.0</ele><time>2026-04-18T06:51:56.979Z</time></trkpt><trkpt lat="43.9028106" lon="7.6080456"><ele>433.66666666666663</ele><time>2026-04-18T06:51:57.978Z</time></trkpt><trkpt lat="43.9028756" lon="7.608096"><ele>433.3333333333333</ele><time>2026-04-18T06:51:58.979Z</time></trkpt><trkpt lat="43.9029402" lon="7.6081601"><ele>433.0</ele><time>2026-04-18T06:51:59.979Z</time></trkpt><trkpt lat="43.9030031" lon="7.6081997"><ele>432.66666666666663</ele><time>2026-04-18T06:52:00.978Z</time></trkpt><trkpt lat="43.9030777" lon="7.6082545"><ele>432.3333333333333</ele><time>2026-04-18T06:52:01.979Z</time></trkpt><trkpt lat="43.9031481" lon="7.6083048"><ele>432.0</ele><time>2026-04-18T06:52:02.979Z</time></trkpt><trkpt lat="43.9032183" lon="7.6083528"><ele>432.0</ele><time>2026-04-18T06:52:03.979Z</time></trkpt><trkpt lat="43.9032889" lon="7.6084019"><ele>432.0</ele><time>2026-04-18T06:52:04.979Z</time></trkpt><trkpt lat="43.9033576" lon="7.6084518"><ele>432.0</ele><time>2026-04-18T06:52:05.979Z</time></trkpt><trkpt lat="43.9034378" lon="7.6085072"><ele>432.0</ele><time>2026-04-18T06:52:06.979Z</time></trkpt><trkpt lat="43.903502" lon="7.6085811"><ele>432.0</ele><time>2026-04-18T06:52:07.979Z</time></trkpt><trkpt lat="43.9035581" lon="7.6086407"><ele>432.0</ele><time>2026-04-18T06:52:08.979Z</time></trkpt><trkpt lat="43.9036064" lon="7.6087138"><ele>432.1666666666667</ele><time>2026-04-18T06:52:09.978Z</time></trkpt><trkpt lat="43.9036714" lon="7.6087912"><ele>432.33333333333337</ele><time>2026-04-18T06:52:10.979Z</time></trkpt><trkpt lat="43.9037399" lon="7.6088549"><ele>432.5</ele><time>2026-04-18T06:52:11.979Z</time></trkpt><trkpt lat="43.9037983" lon="7.6089199"><ele>432.6666666666667</ele><time>2026-04-18T06:52:12.979Z</time></trkpt><trkpt lat="43.9038514" lon="7.6089843"><ele>432.83333333333337</ele><time>2026-04-18T06:52:13.979Z</time></trkpt><trkpt lat="43.9038964" lon="7.6090553"><ele>433.0</ele><time>2026-04-18T06:52:14.979Z</time></trkpt><trkpt lat="43.9039409" lon="7.6091319"><ele>432.99999999999994</ele><time>2026-04-18T06:52:15.979Z</time></trkpt><trkpt lat="43.903976" lon="7.6092096"><ele>433.0</ele><time>2026-04-18T06:52:16.979Z</time></trkpt><trkpt lat="43.9040114" lon="7.6092989"><ele>433.0</ele><time>2026-04-18T06:52:17.979Z</time></trkpt><trkpt lat="43.9040339" lon="7.6093866"><ele>433.0</ele><time>2026-04-18T06:52:18.979Z</time></trkpt><trkpt lat="43.9040517" lon="7.6094768"><ele>433.0</ele><time>2026-04-18T06:52:19.979Z</time></trkpt><trkpt lat="43.9040675" lon="7.6095891"><ele>432.99999999999994</ele><time>2026-04-18T06:52:20.979Z</time></trkpt><trkpt lat="43.9040876" lon="7.6096801"><ele>433.0</ele><time>2026-04-18T06:52:21.979Z</time></trkpt><trkpt lat="43.9041103" lon="7.6097827"><ele>435.0</ele><time>2026-04-18T06:52:22.978Z</time></trkpt><trkpt lat="43.9041523" lon="7.6098777"><ele>436.99999999999994</ele><time>2026-04-18T06:52:23.979Z</time></trkpt><trkpt lat="43.9041897" lon="7.6099619"><ele>438.99999999999994</ele><time>2026-04-18T06:52:24.979Z</time></trkpt><trkpt lat="43.9042146" lon="7.610052"><ele>441.0</ele><time>2026-04-18T06:52:25.979Z</time></trkpt><trkpt lat="43.904229" lon="7.6102246"><ele>443.0</ele><time>2026-04-18T06:52:27.979Z</time></trkpt><trkpt lat="43.9042241" lon="7.6103761"><ele>445.8333333333333</ele><time>2026-04-18T06:52:29.979Z</time></trkpt><trkpt lat="43.9042599" lon="7.6105125"><ele>448.66666666666663</ele><time>2026-04-18T06:52:31.979Z</time></trkpt><trkpt lat="43.9043106" lon="7.6105918"><ele>451.5</ele><time>2026-04-18T06:52:32.979Z</time></trkpt><trkpt lat="43.9043729" lon="7.6106721"><ele>454.33333333333337</ele><time>2026-04-18T06:52:33.979Z</time></trkpt><trkpt lat="43.90443" lon="7.6107471"><ele>457.1666666666667</ele><time>2026-04-18T06:52:34.979Z</time></trkpt><trkpt lat="43.904476" lon="7.6108122"><ele>460.0</ele><time>2026-04-18T06:52:35.979Z</time></trkpt><trkpt lat="43.9045337" lon="7.6109093"><ele>460.00000000000006</ele><time>2026-04-18T06:52:37.979Z</time></trkpt><trkpt lat="43.9046079" lon="7.6109347"><ele>460.0</ele><time>2026-04-18T06:52:39.979Z</time></trkpt><trkpt lat="43.9046918" lon="7.6108758"><ele>460.0</ele><time>2026-04-18T06:52:41.979Z</time></trkpt><trkpt lat="43.9046777" lon="7.6107171"><ele>460.0</ele><time>2026-04-18T06:52:43.979Z</time></trkpt><trkpt lat="43.9046763" lon="7.6106131"><ele>460.00000000000006</ele><time>2026-04-18T06:52:44.979Z</time></trkpt><trkpt lat="43.9046287" lon="7.6105323"><ele>460.0</ele><time>2026-04-18T06:52:45.979Z</time></trkpt><trkpt lat="43.9045862" lon="7.6103931"><ele>460.1428571428571</ele><time>2026-04-18T06:52:47.979Z</time></trkpt><trkpt lat="43.9046097" lon="7.6103116"><ele>460.2857142857143</ele><time>2026-04-18T06:52:48.979Z</time></trkpt><trkpt lat="43.9046318" lon="7.6102153"><ele>460.42857142857144</ele><time>2026-04-18T06:52:49.979Z</time></trkpt><trkpt lat="43.9046682" lon="7.6101302"><ele>460.57142857142856</ele><time>2026-04-18T06:52:50.979Z</time></trkpt><trkpt lat="43.9046809" lon="7.6100438"><ele>460.7142857142858</ele><time>2026-04-18T06:52:51.979Z</time></trkpt><trkpt lat="43.9046813" lon="7.609952"><ele>460.8571428571429</ele><time>2026-04-18T06:52:52.979Z</time></trkpt><trkpt lat="43.9046983" lon="7.6098652"><ele>461.0</ele><time>2026-04-18T06:52:53.979Z</time></trkpt><trkpt lat="43.9047181" lon="7.6097811"><ele>460.99999999999994</ele><time>2026-04-18T06:52:54.979Z</time></trkpt><trkpt lat="43.9047328" lon="7.6096803"><ele>461.0</ele><time>2026-04-18T06:52:55.978Z</time></trkpt><trkpt lat="43.9047506" lon="7.6095824"><ele>461.0</ele><time>2026-04-18T06:52:56.979Z</time></trkpt><trkpt lat="43.9047667" lon="7.6094019"><ele>461.0</ele><time>2026-04-18T06:52:58.979Z</time></trkpt><trkpt lat="43.9047417" lon="7.6092984"><ele>460.99999999999994</ele><time>2026-04-18T06:52:59.979Z</time></trkpt><trkpt lat="43.904707" lon="7.6092075"><ele>461.0</ele><time>2026-04-18T06:53:00.979Z</time></trkpt><trkpt lat="43.9046874" lon="7.6091124"><ele>460.49999999999994</ele><time>2026-04-18T06:53:01.979Z</time></trkpt><trkpt lat="43.9046935" lon="7.6090062"><ele>460.0</ele><time>2026-04-18T06:53:02.979Z</time></trkpt><trkpt lat="43.9047011" lon="7.6089021"><ele>459.5</ele><time>2026-04-18T06:53:03.979Z</time></trkpt><trkpt lat="43.9047215" lon="7.6087323"><ele>459.0</ele><time>2026-04-18T06:53:05.979Z</time></trkpt><trkpt lat="43.9047818" lon="7.6086586"><ele>458.49999999999994</ele><time>2026-04-18T06:53:06.978Z</time></trkpt><trkpt lat="43.9048393" lon="7.6085855"><ele>458.0</ele><time>2026-04-18T06:53:07.979Z</time></trkpt><trkpt lat="43.9048953" lon="7.6085118"><ele>457.2</ele><time>2026-04-18T06:53:08.979Z</time></trkpt><trkpt lat="43.9049443" lon="7.6084227"><ele>456.4</ele><time>2026-04-18T06:53:09.979Z</time></trkpt><trkpt lat="43.9049915" lon="7.6083343"><ele>455.59999999999997</ele><time>2026-04-18T06:53:10.979Z</time></trkpt><trkpt lat="43.9050275" lon="7.6082465"><ele>454.79999999999995</ele><time>2026-04-18T06:53:11.979Z</time></trkpt><trkpt lat="43.9050704" lon="7.6080948"><ele>454.0</ele><time>2026-04-18T06:53:13.979Z</time></trkpt><trkpt lat="43.905049" lon="7.6079585"><ele>454.0</ele><time>2026-04-18T06:53:15.979Z</time></trkpt><trkpt lat="43.9049636" lon="7.6078566"><ele>454.0</ele><time>2026-04-18T06:53:17.979Z</time></trkpt><trkpt lat="43.9049034" lon="7.6078227"><ele>454.0</ele><time>2026-04-18T06:53:18.979Z</time></trkpt><trkpt lat="43.9047508" lon="7.6078001"><ele>454.0</ele><time>2026-04-18T06:53:20.979Z</time></trkpt><trkpt lat="43.9046759" lon="7.6077728"><ele>454.0</ele><time>2026-04-18T06:53:21.979Z</time></trkpt><trkpt lat="43.9046007" lon="7.6077191"><ele>456.6666666666667</ele><time>2026-04-18T06:53:22.979Z</time></trkpt><trkpt lat="43.9045331" lon="7.6076647"><ele>459.33333333333337</ele><time>2026-04-18T06:53:23.979Z</time></trkpt><trkpt lat="43.9044856" lon="7.6075823"><ele>462.0</ele><time>2026-04-18T06:53:24.979Z</time></trkpt><trkpt lat="43.9044403" lon="7.6074939"><ele>464.66666666666663</ele><time>2026-04-18T06:53:25.979Z</time></trkpt><trkpt lat="43.9043966" lon="7.6074083"><ele>467.3333333333333</ele><time>2026-04-18T06:53:26.979Z</time></trkpt><trkpt lat="43.904344" lon="7.6072764"><ele>470.0</ele><time>2026-04-18T06:53:28.979Z</time></trkpt><trkpt lat="43.9043701" lon="7.607114"><ele>469.99999999999994</ele><time>2026-04-18T06:53:30.979Z</time></trkpt><trkpt lat="43.9043891" lon="7.607018"><ele>470.0</ele><time>2026-04-18T06:53:31.979Z</time></trkpt><trkpt lat="43.9044024" lon="7.6069272"><ele>470.0</ele><time>2026-04-18T06:53:32.979Z</time></trkpt><trkpt lat="43.9044098" lon="7.6068272"><ele>470.0</ele><time>2026-04-18T06:53:33.979Z</time></trkpt><trkpt lat="43.9043503" lon="7.6066879"><ele>469.99999999999994</ele><time>2026-04-18T06:53:35.979Z</time></trkpt><trkpt lat="43.9042567" lon="7.6066034"><ele>470.0</ele><time>2026-04-18T06:53:37.979Z</time></trkpt><trkpt lat="43.9041942" lon="7.6065106"><ele>470.75</ele><time>2026-04-18T06:53:39.979Z</time></trkpt><trkpt lat="43.9041608" lon="7.606375"><ele>471.5</ele><time>2026-04-18T06:53:41.979Z</time></trkpt><trkpt lat="43.9041301" lon="7.6062037"><ele>472.25</ele><time>2026-04-18T06:53:43.979Z</time></trkpt><trkpt lat="43.9041168" lon="7.6060353"><ele>473.0</ele><time>2026-04-18T06:53:45.978Z</time></trkpt><trkpt lat="43.9040993" lon="7.6058842"><ele>473.0</ele><time>2026-04-18T06:53:47.979Z</time></trkpt><trkpt lat="43.9040433" lon="7.6057648"><ele>472.99999999999994</ele><time>2026-04-18T06:53:49.979Z</time></trkpt><trkpt lat="43.9039631" lon="7.6056785"><ele>472.99999999999994</ele><time>2026-04-18T06:53:51.979Z</time></trkpt><trkpt lat="43.9038635" lon="7.6056023"><ele>473.0</ele><time>2026-04-18T06:53:53.979Z</time></trkpt><trkpt lat="43.9037771" lon="7.6055131"><ele>473.0</ele><time>2026-04-18T06:53:55.979Z</time></trkpt><trkpt lat="43.9037315" lon="7.605378"><ele>475.8333333333333</ele><time>2026-04-18T06:53:57.978Z</time></trkpt><trkpt lat="43.9037116" lon="7.6052265"><ele>478.66666666666663</ele><time>2026-04-18T06:53:59.979Z</time></trkpt><trkpt lat="43.9037203" lon="7.6051298"><ele>481.5</ele><time>2026-04-18T06:54:00.979Z</time></trkpt><trkpt lat="43.9037198" lon="7.6050413"><ele>484.33333333333337</ele><time>2026-04-18T06:54:01.979Z</time></trkpt><trkpt lat="43.9037202" lon="7.6049483"><ele>487.1666666666667</ele><time>2026-04-18T06:54:02.979Z</time></trkpt><trkpt lat="43.9037197" lon="7.6048577"><ele>490.0</ele><time>2026-04-18T06:54:03.979Z</time></trkpt><trkpt lat="43.903735" lon="7.604758"><ele>490.00000000000006</ele><time>2026-04-18T06:54:04.978Z</time></trkpt><trkpt lat="43.9037622" lon="7.6046608"><ele>490.0</ele><time>2026-04-18T06:54:05.979Z</time></trkpt><trkpt lat="43.9037813" lon="7.6045599"><ele>490.0</ele><time>2026-04-18T06:54:06.979Z</time></trkpt><trkpt lat="43.903776" lon="7.6043894"><ele>490.0</ele><time>2026-04-18T06:54:08.979Z</time></trkpt><trkpt lat="43.9037668" lon="7.6042919"><ele>490.00000000000006</ele><time>2026-04-18T06:54:09.979Z</time></trkpt><trkpt lat="43.9037676" lon="7.6042044"><ele>490.0</ele><time>2026-04-18T06:54:10.979Z</time></trkpt><trkpt lat="43.9038084" lon="7.6040655"><ele>489.83333333333337</ele><time>2026-04-18T06:54:12.979Z</time></trkpt><trkpt lat="43.903861" lon="7.6039218"><ele>489.6666666666667</ele><time>2026-04-18T06:54:14.979Z</time></trkpt><trkpt lat="43.9038907" lon="7.6038405"><ele>489.5</ele><time>2026-04-18T06:54:15.979Z</time></trkpt><trkpt lat="43.9039051" lon="7.6037417"><ele>489.33333333333337</ele><time>2026-04-18T06:54:16.979Z</time></trkpt><trkpt lat="43.903926" lon="7.6036378"><ele>489.1666666666667</ele><time>2026-04-18T06:54:17.979Z</time></trkpt><trkpt lat="43.9039521" lon="7.6035389"><ele>489.0</ele><time>2026-04-18T06:54:18.979Z</time></trkpt><trkpt lat="43.9039682" lon="7.6034392"><ele>489.0</ele><time>2026-04-18T06:54:19.979Z</time></trkpt><trkpt lat="43.9040058" lon="7.6033465"><ele>489.0</ele><time>2026-04-18T06:54:20.978Z</time></trkpt><trkpt lat="43.9040364" lon="7.6032548"><ele>489.0</ele><time>2026-04-18T06:54:21.979Z</time></trkpt><trkpt lat="43.9040546" lon="7.6031676"><ele>489.0</ele><time>2026-04-18T06:54:22.979Z</time></trkpt><trkpt lat="43.9040831" lon="7.6030329"><ele>489.0</ele><time>2026-04-18T06:54:24.979Z</time></trkpt><trkpt lat="43.9041481" lon="7.6029926"><ele>489.0</ele><time>2026-04-18T06:54:26.979Z</time></trkpt><trkpt lat="43.9042652" lon="7.6029379"><ele>488.4</ele><time>2026-04-18T06:54:28.979Z</time></trkpt><trkpt lat="43.9043359" lon="7.6029232"><ele>487.79999999999995</ele><time>2026-04-18T06:54:29.979Z</time></trkpt><trkpt lat="43.9044094" lon="7.6028798"><ele>487.20000000000005</ele><time>2026-04-18T06:54:30.979Z</time></trkpt><trkpt lat="43.9044707" lon="7.6028406"><ele>486.6</ele><time>2026-04-18T06:54:31.979Z</time></trkpt><trkpt lat="43.9045707" lon="7.6027487"><ele>486.0</ele><time>2026-04-18T06:54:33.978Z</time></trkpt><trkpt lat="43.9046865" lon="7.6027033"><ele>486.0</ele><time>2026-04-18T06:54:35.979Z</time></trkpt><trkpt lat="43.9047896" lon="7.6027019"><ele>486.0</ele><time>2026-04-18T06:54:37.979Z</time></trkpt><trkpt lat="43.9048873" lon="7.6027527"><ele>486.0</ele><time>2026-04-18T06:54:39.979Z</time></trkpt><trkpt lat="43.9050021" lon="7.6028015"><ele>486.0</ele><time>2026-04-18T06:54:41.979Z</time></trkpt><trkpt lat="43.9051064" lon="7.6028634"><ele>486.0</ele><time>2026-04-18T06:54:43.979Z</time></trkpt><trkpt lat="43.9051656" lon="7.602909"><ele>491.0</ele><time>2026-04-18T06:54:44.979Z</time></trkpt><trkpt lat="43.9052266" lon="7.6029583"><ele>496.0</ele><time>2026-04-18T06:54:45.978Z</time></trkpt><trkpt lat="43.9052857" lon="7.6030077"><ele>501.0</ele><time>2026-04-18T06:54:46.978Z</time></trkpt><trkpt lat="43.9053549" lon="7.6030468"><ele>506.0</ele><time>2026-04-18T06:54:47.979Z</time></trkpt><trkpt lat="43.9054375" lon="7.6030808"><ele>511.0</ele><time>2026-04-18T06:54:48.979Z</time></trkpt><trkpt lat="43.9055199" lon="7.6031014"><ele>516.0</ele><time>2026-04-18T06:54:49.979Z</time></trkpt><trkpt lat="43.9056351" lon="7.6031371"><ele>516.0</ele><time>2026-04-18T06:54:51.979Z</time></trkpt><trkpt lat="43.9057212" lon="7.6031331"><ele>516.0</ele><time>2026-04-18T06:54:53.979Z</time></trkpt><trkpt lat="43.9057913" lon="7.603171"><ele>516.0</ele><time>2026-04-18T06:54:56.979Z</time></trkpt><trkpt lat="43.9057861" lon="7.6032678"><ele>516.0</ele><time>2026-04-18T06:54:59.979Z</time></trkpt><trkpt lat="43.9057135" lon="7.6032623"><ele>516.0</ele><time>2026-04-18T06:55:01.978Z</time></trkpt><trkpt lat="43.9056497" lon="7.6032515"><ele>516.0</ele><time>2026-04-18T06:55:02.979Z</time></trkpt><trkpt lat="43.9055166" lon="7.6032507"><ele>516.0</ele><time>2026-04-18T06:55:04.979Z</time></trkpt><trkpt lat="43.9053842" lon="7.6032214"><ele>516.0</ele><time>2026-04-18T06:55:05.979Z</time></trkpt><trkpt lat="43.9052219" lon="7.6031476"><ele>516.0</ele><time>2026-04-18T06:55:06.979Z</time></trkpt><trkpt lat="43.9051128" lon="7.6030937"><ele>516.0</ele><time>2026-04-18T06:55:07.979Z</time></trkpt><trkpt lat="43.90502" lon="7.6030546"><ele>515.5</ele><time>2026-04-18T06:55:08.979Z</time></trkpt><trkpt lat="43.9049419" lon="7.6030298"><ele>515.0</ele><time>2026-04-18T06:55:09.979Z</time></trkpt><trkpt lat="43.904875" lon="7.6030492"><ele>514.5</ele><time>2026-04-18T06:55:10.979Z</time></trkpt><trkpt lat="43.9048108" lon="7.6030981"><ele>514.0</ele><time>2026-04-18T06:55:11.979Z</time></trkpt><trkpt lat="43.9047558" lon="7.6031636"><ele>513.5</ele><time>2026-04-18T06:55:12.979Z</time></trkpt><trkpt lat="43.9046729" lon="7.6031933"><ele>513.0</ele><time>2026-04-18T06:55:13.979Z</time></trkpt><trkpt lat="43.9045899" lon="7.6032486"><ele>513.0</ele><time>2026-04-18T06:55:14.979Z</time></trkpt><trkpt lat="43.9045219" lon="7.603312"><ele>513.0</ele><time>2026-04-18T06:55:15.979Z</time></trkpt><trkpt lat="43.904473" lon="7.6034046"><ele>513.0</ele><time>2026-04-18T06:55:16.979Z</time></trkpt><trkpt lat="43.9044345" lon="7.6035044"><ele>513.0</ele><time>2026-04-18T06:55:17.979Z</time></trkpt><trkpt lat="43.9044087" lon="7.6035841"><ele>513.0</ele><time>2026-04-18T06:55:18.978Z</time></trkpt><trkpt lat="43.9043802" lon="7.6036707"><ele>513.0</ele><time>2026-04-18T06:55:19.979Z</time></trkpt><trkpt lat="43.9043631" lon="7.6037842"><ele>515.3333333333334</ele><time>2026-04-18T06:55:20.979Z</time></trkpt><trkpt lat="43.9043462" lon="7.6038794"><ele>517.6666666666666</ele><time>2026-04-18T06:55:21.979Z</time></trkpt><trkpt lat="43.9043555" lon="7.6039802"><ele>520.0</ele><time>2026-04-18T06:55:22.979Z</time></trkpt><trkpt lat="43.9043653" lon="7.6040734"><ele>522.3333333333333</ele><time>2026-04-18T06:55:23.979Z</time></trkpt><trkpt lat="43.9043812" lon="7.6042454"><ele>524.6666666666666</ele><time>2026-04-18T06:55:25.979Z</time></trkpt><trkpt lat="43.9043924" lon="7.6043407"><ele>527.0</ele><time>2026-04-18T06:55:26.978Z</time></trkpt><trkpt lat="43.904433" lon="7.6045016"><ele>527.0</ele><time>2026-04-18T06:55:28.979Z</time></trkpt><trkpt lat="43.9045087" lon="7.6046272"><ele>527.0</ele><time>2026-04-18T06:55:30.979Z</time></trkpt><trkpt lat="43.9045604" lon="7.6046823"><ele>527.0</ele><time>2026-04-18T06:55:31.979Z</time></trkpt><trkpt lat="43.9046223" lon="7.6047382"><ele>527.0</ele><time>2026-04-18T06:55:32.979Z</time></trkpt><trkpt lat="43.904692" lon="7.6047917"><ele>527.0</ele><time>2026-04-18T06:55:33.979Z</time></trkpt><trkpt lat="43.9047595" lon="7.6048492"><ele>527.0</ele><time>2026-04-18T06:55:34.979Z</time></trkpt><trkpt lat="43.9048238" lon="7.6049077"><ele>527.0</ele><time>2026-04-18T06:55:35.979Z</time></trkpt><trkpt lat="43.9048801" lon="7.6049648"><ele>527.0</ele><time>2026-04-18T06:55:36.979Z</time></trkpt><trkpt lat="43.9049494" lon="7.6051016"><ele>527.0</ele><time>2026-04-18T06:55:38.979Z</time></trkpt><trkpt lat="43.9049891" lon="7.6051806"><ele>527.0</ele><time>2026-04-18T06:55:39.979Z</time></trkpt><trkpt lat="43.9050127" lon="7.6052732"><ele>527.0</ele><time>2026-04-18T06:55:40.979Z</time></trkpt><trkpt lat="43.9050504" lon="7.6053523"><ele>527.0</ele><time>2026-04-18T06:55:41.979Z</time></trkpt><trkpt lat="43.9050762" lon="7.6054501"><ele>529.3333333333333</ele><time>2026-04-18T06:55:42.979Z</time></trkpt><trkpt lat="43.9050999" lon="7.6055348"><ele>531.6666666666666</ele><time>2026-04-18T06:55:43.979Z</time></trkpt><trkpt lat="43.9051657" lon="7.6056839"><ele>534.0</ele><time>2026-04-18T06:55:45.979Z</time></trkpt><trkpt lat="43.9052207" lon="7.6057402"><ele>536.3333333333334</ele><time>2026-04-18T06:55:46.979Z</time></trkpt><trkpt lat="43.9052922" lon="7.605788"><ele>538.6666666666667</ele><time>2026-04-18T06:55:47.979Z</time></trkpt><trkpt lat="43.9053686" lon="7.60583"><ele>541.0</ele><time>2026-04-18T06:55:48.979Z</time></trkpt><trkpt lat="43.9054478" lon="7.6058682"><ele>541.0</ele><time>2026-04-18T06:55:49.979Z</time></trkpt><trkpt lat="43.9055301" lon="7.6059152"><ele>541.0</ele><time>2026-04-18T06:55:50.979Z</time></trkpt><trkpt lat="43.9056091" lon="7.6059767"><ele>541.0</ele><time>2026-04-18T06:55:51.979Z</time></trkpt><trkpt lat="43.9056784" lon="7.6060371"><ele>541.0</ele><time>2026-04-18T06:55:52.979Z</time></trkpt><trkpt lat="43.9057468" lon="7.6060843"><ele>541.0</ele><time>2026-04-18T06:55:53.979Z</time></trkpt><trkpt lat="43.9058131" lon="7.6061295"><ele>541.0</ele><time>2026-04-18T06:55:54.978Z</time></trkpt><trkpt lat="43.9058718" lon="7.6061744"><ele>542.5714285714287</ele><time>2026-04-18T06:55:55.979Z</time></trkpt><trkpt lat="43.9059328" lon="7.606234"><ele>544.1428571428571</ele><time>2026-04-18T06:55:56.979Z</time></trkpt><trkpt lat="43.9059869" lon="7.6062979"><ele>545.7142857142858</ele><time>2026-04-18T06:55:57.979Z</time></trkpt><trkpt lat="43.9060413" lon="7.6063673"><ele>547.2857142857143</ele><time>2026-04-18T06:55:58.979Z</time></trkpt><trkpt lat="43.9060834" lon="7.6064447"><ele>548.8571428571429</ele><time>2026-04-18T06:55:59.979Z</time></trkpt><trkpt lat="43.9061259" lon="7.6065107"><ele>550.4285714285714</ele><time>2026-04-18T06:56:00.979Z</time></trkpt><trkpt lat="43.9061836" lon="7.6065634"><ele>552.0</ele><time>2026-04-18T06:56:01.979Z</time></trkpt><trkpt lat="43.9062459" lon="7.6066171"><ele>552.0</ele><time>2026-04-18T06:56:02.978Z</time></trkpt><trkpt lat="43.906312" lon="7.6066695"><ele>552.0</ele><time>2026-04-18T06:56:03.979Z</time></trkpt><trkpt lat="43.9063811" lon="7.6067337"><ele>552.0</ele><time>2026-04-18T06:56:04.979Z</time></trkpt><trkpt lat="43.906451" lon="7.6067963"><ele>552.0</ele><time>2026-04-18T06:56:05.979Z</time></trkpt><trkpt lat="43.9065131" lon="7.6068606"><ele>552.0</ele><time>2026-04-18T06:56:06.979Z</time></trkpt><trkpt lat="43.9065728" lon="7.6069139"><ele>552.0</ele><time>2026-04-18T06:56:07.979Z</time></trkpt><trkpt lat="43.9066307" lon="7.6069646"><ele>549.6</ele><time>2026-04-18T06:56:08.979Z</time></trkpt><trkpt lat="43.9067303" lon="7.6070385"><ele>547.2</ele><time>2026-04-18T06:56:10.979Z</time></trkpt><trkpt lat="43.9067527" lon="7.6071379"><ele>544.8</ele><time>2026-04-18T06:56:11.979Z</time></trkpt><trkpt lat="43.9067548" lon="7.6072454"><ele>542.4</ele><time>2026-04-18T06:56:12.979Z</time></trkpt><trkpt lat="43.9067311" lon="7.607387"><ele>540.0</ele><time>2026-04-18T06:56:13.979Z</time></trkpt><trkpt lat="43.9067232" lon="7.6075027"><ele>540.0</ele><time>2026-04-18T06:56:14.979Z</time></trkpt><trkpt lat="43.9067194" lon="7.6076118"><ele>540.0</ele><time>2026-04-18T06:56:15.979Z</time></trkpt><trkpt lat="43.9067155" lon="7.6077571"><ele>540.0</ele><time>2026-04-18T06:56:16.979Z</time></trkpt><trkpt lat="43.9067121" lon="7.607876"><ele>540.0</ele><time>2026-04-18T06:56:17.979Z</time></trkpt><trkpt lat="43.906666" lon="7.6080182"><ele>540.0</ele><time>2026-04-18T06:56:19.979Z</time></trkpt><trkpt lat="43.9065963" lon="7.6081459"><ele>542.5</ele><time>2026-04-18T06:56:21.979Z</time></trkpt><trkpt lat="43.9065076" lon="7.6082564"><ele>545.0</ele><time>2026-04-18T06:56:23.978Z</time></trkpt><trkpt lat="43.9064542" lon="7.608315"><ele>547.5</ele><time>2026-04-18T06:56:24.979Z</time></trkpt><trkpt lat="43.9064047" lon="7.6083694"><ele>550.0</ele><time>2026-04-18T06:56:25.979Z</time></trkpt><trkpt lat="43.9063409" lon="7.6084146"><ele>552.5</ele><time>2026-04-18T06:56:26.979Z</time></trkpt><trkpt lat="43.9062979" lon="7.6085472"><ele>555.0</ele><time>2026-04-18T06:56:28.979Z</time></trkpt><trkpt lat="43.9063051" lon="7.6086346"><ele>556.2</ele><time>2026-04-18T06:56:29.979Z</time></trkpt><trkpt lat="43.9063368" lon="7.608806"><ele>557.4</ele><time>2026-04-18T06:56:31.979Z</time></trkpt><trkpt lat="43.9063496" lon="7.6088928"><ele>558.6</ele><time>2026-04-18T06:56:32.979Z</time></trkpt><trkpt lat="43.9063836" lon="7.6090231"><ele>559.8</ele><time>2026-04-18T06:56:34.979Z</time></trkpt><trkpt lat="43.906377" lon="7.6091637"><ele>561.0</ele><time>2026-04-18T06:56:36.979Z</time></trkpt><trkpt lat="43.9063538" lon="7.609261"><ele>561.0</ele><time>2026-04-18T06:56:37.979Z</time></trkpt><trkpt lat="43.9063235" lon="7.6093701"><ele>561.0</ele><time>2026-04-18T06:56:38.979Z</time></trkpt><trkpt lat="43.9062917" lon="7.6094774"><ele>561.0</ele><time>2026-04-18T06:56:39.979Z</time></trkpt><trkpt lat="43.9062699" lon="7.6095638"><ele>561.0</ele><time>2026-04-18T06:56:40.979Z</time></trkpt><trkpt lat="43.9062467" lon="7.6096497"><ele>561.0</ele><time>2026-04-18T06:56:41.979Z</time></trkpt><trkpt lat="43.9061667" lon="7.609784"><ele>561.0</ele><time>2026-04-18T06:56:43.979Z</time></trkpt><trkpt lat="43.9061128" lon="7.6099128"><ele>561.0</ele><time>2026-04-18T06:56:45.979Z</time></trkpt><trkpt lat="43.9061233" lon="7.6100098"><ele>561.0</ele><time>2026-04-18T06:56:46.978Z</time></trkpt><trkpt lat="43.9061383" lon="7.6101096"><ele>561.0</ele><time>2026-04-18T06:56:47.979Z</time></trkpt><trkpt lat="43.906162" lon="7.610203"><ele>561.0</ele><time>2026-04-18T06:56:48.979Z</time></trkpt><trkpt lat="43.9061956" lon="7.6102894"><ele>561.0</ele><time>2026-04-18T06:56:49.979Z</time></trkpt><trkpt lat="43.9062334" lon="7.6103624"><ele>561.0</ele><time>2026-04-18T06:56:50.979Z</time></trkpt><trkpt lat="43.9063222" lon="7.6104812"><ele>558.0</ele><time>2026-04-18T06:56:52.979Z</time></trkpt><trkpt lat="43.906419" lon="7.6105672"><ele>555.0</ele><time>2026-04-18T06:56:54.979Z</time></trkpt><trkpt lat="43.90651" lon="7.6106478"><ele>552.0</ele><time>2026-04-18T06:56:56.979Z</time></trkpt><trkpt lat="43.9065698" lon="7.610779"><ele>549.0</ele><time>2026-04-18T06:56:58.978Z</time></trkpt><trkpt lat="43.9066355" lon="7.6109205"><ele>549.0</ele><time>2026-04-18T06:57:00.979Z</time></trkpt><trkpt lat="43.9067235" lon="7.6110269"><ele>549.0</ele><time>2026-04-18T06:57:02.979Z</time></trkpt><trkpt lat="43.9067647" lon="7.6110947"><ele>549.0</ele><time>2026-04-18T06:57:03.978Z</time></trkpt><trkpt lat="43.9068118" lon="7.6111597"><ele>549.0</ele><time>2026-04-18T06:57:04.979Z</time></trkpt><trkpt lat="43.9069219" lon="7.6112201"><ele>549.0</ele><time>2026-04-18T06:57:06.979Z</time></trkpt><trkpt lat="43.9069904" lon="7.6112255"><ele>549.0</ele><time>2026-04-18T06:57:07.979Z</time></trkpt><trkpt lat="43.907056" lon="7.6112479"><ele>550.0</ele><time>2026-04-18T06:57:08.978Z</time></trkpt><trkpt lat="43.9071207" lon="7.6112829"><ele>551.0</ele><time>2026-04-18T06:57:09.979Z</time></trkpt><trkpt lat="43.9071901" lon="7.611323"><ele>552.0</ele><time>2026-04-18T06:57:10.979Z</time></trkpt><trkpt lat="43.9072538" lon="7.6113545"><ele>553.0</ele><time>2026-04-18T06:57:11.979Z</time></trkpt><trkpt lat="43.9073502" lon="7.6114281"><ele>554.0</ele><time>2026-04-18T06:57:13.979Z</time></trkpt><trkpt lat="43.9073876" lon="7.6115338"><ele>555.0</ele><time>2026-04-18T06:57:15.978Z</time></trkpt><trkpt lat="43.9073492" lon="7.6116597"><ele>555.0</ele><time>2026-04-18T06:57:17.979Z</time></trkpt><trkpt lat="43.9073302" lon="7.6118191"><ele>555.0</ele><time>2026-04-18T06:57:19.979Z</time></trkpt><trkpt lat="43.9073458" lon="7.6119949"><ele>555.0</ele><time>2026-04-18T06:57:21.979Z</time></trkpt><trkpt lat="43.9073532" lon="7.6120818"><ele>555.0</ele><time>2026-04-18T06:57:22.979Z</time></trkpt><trkpt lat="43.907374" lon="7.6121702"><ele>555.0</ele><time>2026-04-18T06:57:23.979Z</time></trkpt><trkpt lat="43.9074103" lon="7.6122474"><ele>555.0</ele><time>2026-04-18T06:57:24.978Z</time></trkpt><trkpt lat="43.9074524" lon="7.612313"><ele>556.6</ele><time>2026-04-18T06:57:25.979Z</time></trkpt><trkpt lat="43.907544" lon="7.6124158"><ele>558.2</ele><time>2026-04-18T06:57:27.979Z</time></trkpt><trkpt lat="43.9076319" lon="7.6124835"><ele>559.8</ele><time>2026-04-18T06:57:29.979Z</time></trkpt><trkpt lat="43.9077405" lon="7.6125631"><ele>561.4</ele><time>2026-04-18T06:57:31.979Z</time></trkpt><trkpt lat="43.907807" lon="7.6125816"><ele>563.0</ele><time>2026-04-18T06:57:32.979Z</time></trkpt><trkpt lat="43.9078778" lon="7.612591"><ele>563.0</ele><time>2026-04-18T06:57:33.979Z</time></trkpt><trkpt lat="43.9079481" lon="7.6125936"><ele>563.0</ele><time>2026-04-18T06:57:34.979Z</time></trkpt><trkpt lat="43.9080139" lon="7.6125933"><ele>563.0</ele><time>2026-04-18T06:57:35.979Z</time></trkpt><trkpt lat="43.9081139" lon="7.6126044"><ele>563.0</ele><time>2026-04-18T06:57:37.979Z</time></trkpt><trkpt lat="43.908222" lon="7.6126495"><ele>563.0</ele><time>2026-04-18T06:57:39.979Z</time></trkpt><trkpt lat="43.9082865" lon="7.6126765"><ele>563.0</ele><time>2026-04-18T06:57:40.978Z</time></trkpt><trkpt lat="43.9083512" lon="7.6127037"><ele>562.5</ele><time>2026-04-18T06:57:41.979Z</time></trkpt><trkpt lat="43.9084625" lon="7.6127713"><ele>562.0</ele><time>2026-04-18T06:57:43.979Z</time></trkpt><trkpt lat="43.9085222" lon="7.6128073"><ele>561.5</ele><time>2026-04-18T06:57:44.979Z</time></trkpt><trkpt lat="43.9085888" lon="7.6128458"><ele>561.0</ele><time>2026-04-18T06:57:45.979Z</time></trkpt><trkpt lat="43.9086499" lon="7.6128728"><ele>560.5</ele><time>2026-04-18T06:57:46.979Z</time></trkpt><trkpt lat="43.9087108" lon="7.6129051"><ele>560.0</ele><time>2026-04-18T06:57:47.979Z</time></trkpt><trkpt lat="43.9087733" lon="7.612931"><ele>560.0</ele><time>2026-04-18T06:57:48.979Z</time></trkpt><trkpt lat="43.9088446" lon="7.6129569"><ele>560.0</ele><time>2026-04-18T06:57:49.979Z</time></trkpt><trkpt lat="43.908915" lon="7.6129885"><ele>560.0</ele><time>2026-04-18T06:57:50.979Z</time></trkpt><trkpt lat="43.9090171" lon="7.6130562"><ele>560.0</ele><time>2026-04-18T06:57:52.979Z</time></trkpt><trkpt lat="43.9090751" lon="7.6130946"><ele>560.0</ele><time>2026-04-18T06:57:53.979Z</time></trkpt><trkpt lat="43.9091474" lon="7.6131103"><ele>560.0</ele><time>2026-04-18T06:57:54.979Z</time></trkpt><trkpt lat="43.9092505" lon="7.6131498"><ele>564.0</ele><time>2026-04-18T06:57:56.979Z</time></trkpt><trkpt lat="43.909364" lon="7.6132184"><ele>568.0</ele><time>2026-04-18T06:57:58.979Z</time></trkpt><trkpt lat="43.9094272" lon="7.613242"><ele>572.0</ele><time>2026-04-18T06:57:59.979Z</time></trkpt><trkpt lat="43.9095174" lon="7.6132286"><ele>576.0</ele><time>2026-04-18T06:58:01.979Z</time></trkpt><trkpt lat="43.9095893" lon="7.613196"><ele>580.0</ele><time>2026-04-18T06:58:03.979Z</time></trkpt><trkpt lat="43.9096591" lon="7.6132133"><ele>584.0</ele><time>2026-04-18T06:58:05.979Z</time></trkpt><trkpt lat="43.9097064" lon="7.613279"><ele>584.0</ele><time>2026-04-18T06:58:07.979Z</time></trkpt><trkpt lat="43.909787" lon="7.6133317"><ele>584.0</ele><time>2026-04-18T06:58:09.979Z</time></trkpt><trkpt lat="43.9098601" lon="7.613402"><ele>584.0</ele><time>2026-04-18T06:58:11.979Z</time></trkpt><trkpt lat="43.9099467" lon="7.6134864"><ele>584.0</ele><time>2026-04-18T06:58:13.979Z</time></trkpt><trkpt lat="43.9100395" lon="7.6135585"><ele>584.0</ele><time>2026-04-18T06:58:15.979Z</time></trkpt><trkpt lat="43.9101416" lon="7.613645"><ele>585.0</ele><time>2026-04-18T06:58:17.979Z</time></trkpt><trkpt lat="43.9101957" lon="7.6136975"><ele>586.0</ele><time>2026-04-18T06:58:18.979Z</time></trkpt><trkpt lat="43.9102922" lon="7.6137985"><ele>587.0</ele><time>2026-04-18T06:58:20.979Z</time></trkpt><trkpt lat="43.9103968" lon="7.6138694"><ele>588.0</ele><time>2026-04-18T06:58:22.978Z</time></trkpt><trkpt lat="43.9105008" lon="7.6139307"><ele>589.0</ele><time>2026-04-18T06:58:24.979Z</time></trkpt><trkpt lat="43.910621" lon="7.6140004"><ele>589.0</ele><time>2026-04-18T06:58:26.979Z</time></trkpt><trkpt lat="43.9107181" lon="7.6140835"><ele>589.0</ele><time>2026-04-18T06:58:28.979Z</time></trkpt><trkpt lat="43.9108344" lon="7.6141443"><ele>589.0</ele><time>2026-04-18T06:58:30.979Z</time></trkpt><trkpt lat="43.9109514" lon="7.6142172"><ele>589.0</ele><time>2026-04-18T06:58:32.979Z</time></trkpt><trkpt lat="43.91106" lon="7.6142662"><ele>591.2</ele><time>2026-04-18T06:58:34.979Z</time></trkpt><trkpt lat="43.9111674" lon="7.6143245"><ele>593.4</ele><time>2026-04-18T06:58:36.979Z</time></trkpt><trkpt lat="43.9112523" lon="7.6143686"><ele>595.6</ele><time>2026-04-18T06:58:38.979Z</time></trkpt><trkpt lat="43.9113299" lon="7.6144268"><ele>597.8</ele><time>2026-04-18T06:58:40.979Z</time></trkpt><trkpt lat="43.9114379" lon="7.6143996"><ele>600.0</ele><time>2026-04-18T06:58:42.979Z</time></trkpt><trkpt lat="43.9115136" lon="7.6143375"><ele>600.0</ele><time>2026-04-18T06:58:44.979Z</time></trkpt><trkpt lat="43.9115605" lon="7.6142382"><ele>600.0</ele><time>2026-04-18T06:59:17.979Z</time></trkpt><trkpt lat="43.9115556" lon="7.6141355"><ele>600.0</ele><time>2026-04-18T06:59:19.979Z</time></trkpt><trkpt lat="43.9114956" lon="7.6140314"><ele>600.0</ele><time>2026-04-18T06:59:21.979Z</time></trkpt><trkpt lat="43.9114347" lon="7.6139855"><ele>600.0</ele><time>2026-04-18T06:59:22.979Z</time></trkpt><trkpt lat="43.9113696" lon="7.6138867"><ele>600.0</ele><time>2026-04-18T06:59:24.979Z</time></trkpt><trkpt lat="43.9113094" lon="7.6137963"><ele>600.0</ele><time>2026-04-18T06:59:26.979Z</time></trkpt><trkpt lat="43.9112425" lon="7.6137086"><ele>600.0</ele><time>2026-04-18T06:59:28.979Z</time></trkpt><trkpt lat="43.9111893" lon="7.6136273"><ele>600.0</ele><time>2026-04-18T06:59:30.979Z</time></trkpt><trkpt lat="43.9111002" lon="7.6136122"><ele>600.0</ele><time>2026-04-18T06:59:32.979Z</time></trkpt><trkpt lat="43.9110134" lon="7.6135658"><ele>600.0</ele><time>2026-04-18T06:59:34.979Z</time></trkpt><trkpt lat="43.9109499" lon="7.613538"><ele>600.0</ele><time>2026-04-18T06:59:35.979Z</time></trkpt><trkpt lat="43.9108415" lon="7.6134746"><ele>601.4</ele><time>2026-04-18T06:59:37.979Z</time></trkpt><trkpt lat="43.910794" lon="7.613381"><ele>602.8</ele><time>2026-04-18T06:59:39.979Z</time></trkpt><trkpt lat="43.9108417" lon="7.6132716"><ele>604.2</ele><time>2026-04-18T06:59:41.979Z</time></trkpt><trkpt lat="43.910941" lon="7.6132536"><ele>605.6</ele><time>2026-04-18T06:59:43.979Z</time></trkpt><trkpt lat="43.9110483" lon="7.6132668"><ele>607.0</ele><time>2026-04-18T06:59:45.979Z</time></trkpt><trkpt lat="43.91116" lon="7.6132481"><ele>609.0</ele><time>2026-04-18T06:59:47.979Z</time></trkpt><trkpt lat="43.9112713" lon="7.6132195"><ele>611.0</ele><time>2026-04-18T06:59:49.979Z</time></trkpt><trkpt lat="43.9113616" lon="7.6132115"><ele>613.0</ele><time>2026-04-18T06:59:51.979Z</time></trkpt><trkpt lat="43.9114452" lon="7.6132465"><ele>615.0</ele><time>2026-04-18T06:59:53.979Z</time></trkpt><trkpt lat="43.9115726" lon="7.6132839"><ele>617.0</ele><time>2026-04-18T06:59:55.979Z</time></trkpt><trkpt lat="43.9116364" lon="7.6133262"><ele>617.0</ele><time>2026-04-18T06:59:56.978Z</time></trkpt><trkpt lat="43.9117017" lon="7.613366"><ele>617.0</ele><time>2026-04-18T06:59:57.979Z</time></trkpt><trkpt lat="43.9118131" lon="7.6133548"><ele>617.0</ele><time>2026-04-18T06:59:59.979Z</time></trkpt><trkpt lat="43.9118953" lon="7.6133175"><ele>617.0</ele><time>2026-04-18T07:00:01.979Z</time></trkpt><trkpt lat="43.9118998" lon="7.6131952"><ele>617.0</ele><time>2026-04-18T07:00:02.979Z</time></trkpt><trkpt lat="43.9118989" lon="7.6130973"><ele>617.0</ele><time>2026-04-18T07:00:03.979Z</time></trkpt><trkpt lat="43.9118578" lon="7.6129444"><ele>617.0</ele><time>2026-04-18T07:00:05.979Z</time></trkpt><trkpt lat="43.9117565" lon="7.6128676"><ele>617.0</ele><time>2026-04-18T07:00:07.979Z</time></trkpt><trkpt lat="43.9116875" lon="7.6128501"><ele>617.0</ele><time>2026-04-18T07:00:08.979Z</time></trkpt><trkpt lat="43.9116222" lon="7.6128393"><ele>617.0</ele><time>2026-04-18T07:00:09.979Z</time></trkpt><trkpt lat="43.9115586" lon="7.6128224"><ele>617.0</ele><time>2026-04-18T07:00:10.979Z</time></trkpt><trkpt lat="43.9114965" lon="7.6127993"><ele>617.0</ele><time>2026-04-18T07:00:11.979Z</time></trkpt><trkpt lat="43.9114291" lon="7.6127801"><ele>617.0</ele><time>2026-04-18T07:00:12.978Z</time></trkpt><trkpt lat="43.9113292" lon="7.6127212"><ele>620.6</ele><time>2026-04-18T07:00:14.979Z</time></trkpt><trkpt lat="43.9112404" lon="7.6126179"><ele>624.2</ele><time>2026-04-18T07:00:16.979Z</time></trkpt><trkpt lat="43.9111388" lon="7.6125175"><ele>627.8</ele><time>2026-04-18T07:00:18.979Z</time></trkpt><trkpt lat="43.9110678" lon="7.6124663"><ele>631.4</ele><time>2026-04-18T07:00:19.979Z</time></trkpt><trkpt lat="43.9110067" lon="7.6124059"><ele>635.0</ele><time>2026-04-18T07:00:20.979Z</time></trkpt><trkpt lat="43.9109538" lon="7.6123422"><ele>634.0</ele><time>2026-04-18T07:00:21.979Z</time></trkpt><trkpt lat="43.9109044" lon="7.6122657"><ele>633.0</ele><time>2026-04-18T07:00:22.979Z</time></trkpt><trkpt lat="43.9108548" lon="7.6121901"><ele>632.0</ele><time>2026-04-18T07:00:23.979Z</time></trkpt><trkpt lat="43.9107976" lon="7.6121213"><ele>631.0</ele><time>2026-04-18T07:00:24.979Z</time></trkpt><trkpt lat="43.9107357" lon="7.61204"><ele>630.0</ele><time>2026-04-18T07:00:25.979Z</time></trkpt><trkpt lat="43.9106907" lon="7.6119767"><ele>629.0</ele><time>2026-04-18T07:00:26.979Z</time></trkpt><trkpt lat="43.910605" lon="7.6118501"><ele>632.6</ele><time>2026-04-18T07:00:28.979Z</time></trkpt><trkpt lat="43.9105245" lon="7.6117571"><ele>636.2</ele><time>2026-04-18T07:00:30.979Z</time></trkpt><trkpt lat="43.9104442" lon="7.6116865"><ele>639.8000000000001</ele><time>2026-04-18T07:00:53.979Z</time></trkpt><trkpt lat="43.9103475" lon="7.6115859"><ele>643.4</ele><time>2026-04-18T07:00:55.979Z</time></trkpt><trkpt lat="43.9102627" lon="7.6115154"><ele>647.0</ele><time>2026-04-18T07:00:57.979Z</time></trkpt><trkpt lat="43.9103054" lon="7.6114082"><ele>647.0</ele><time>2026-04-18T07:01:00.979Z</time></trkpt><trkpt lat="43.9103789" lon="7.6114215"><ele>647.0</ele><time>2026-04-18T07:01:02.979Z</time></trkpt><trkpt lat="43.910472" lon="7.6114533"><ele>647.0</ele><time>2026-04-18T07:01:04.979Z</time></trkpt><trkpt lat="43.9105754" lon="7.611477"><ele>647.0</ele><time>2026-04-18T07:01:06.979Z</time></trkpt><trkpt lat="43.9106803" lon="7.6115109"><ele>647.0</ele><time>2026-04-18T07:01:08.979Z</time></trkpt><trkpt lat="43.9107956" lon="7.6115086"><ele>648.1666666666666</ele><time>2026-04-18T07:01:10.979Z</time></trkpt><trkpt lat="43.9109155" lon="7.611518"><ele>649.3333333333333</ele><time>2026-04-18T07:01:12.979Z</time></trkpt><trkpt lat="43.9109774" lon="7.6115404"><ele>650.5</ele><time>2026-04-18T07:01:13.979Z</time></trkpt><trkpt lat="43.911037" lon="7.6115767"><ele>651.6666666666666</ele><time>2026-04-18T07:01:14.979Z</time></trkpt><trkpt lat="43.9110959" lon="7.611614"><ele>652.8333333333334</ele><time>2026-04-18T07:01:15.979Z</time></trkpt><trkpt lat="43.9111584" lon="7.6116355"><ele>654.0</ele><time>2026-04-18T07:01:16.979Z</time></trkpt><trkpt lat="43.9112287" lon="7.6116712"><ele>654.0</ele><time>2026-04-18T07:01:17.979Z</time></trkpt><trkpt lat="43.9113589" lon="7.6116821"><ele>654.0</ele><time>2026-04-18T07:01:19.979Z</time></trkpt><trkpt lat="43.9114208" lon="7.6116528"><ele>654.0</ele><time>2026-04-18T07:01:20.979Z</time></trkpt><trkpt lat="43.9115313" lon="7.6115446"><ele>654.0</ele><time>2026-04-18T07:01:22.979Z</time></trkpt><trkpt lat="43.9116182" lon="7.611491"><ele>654.0</ele><time>2026-04-18T07:01:24.979Z</time></trkpt><trkpt lat="43.9117336" lon="7.6114877"><ele>654.8000000000001</ele><time>2026-04-18T07:01:26.978Z</time></trkpt><trkpt lat="43.9118417" lon="7.61144"><ele>655.6</ele><time>2026-04-18T07:01:28.979Z</time></trkpt><trkpt lat="43.9119377" lon="7.6114113"><ele>656.4</ele><time>2026-04-18T07:01:30.979Z</time></trkpt><trkpt lat="43.9120538" lon="7.6114151"><ele>657.2</ele><time>2026-04-18T07:01:32.979Z</time></trkpt><trkpt lat="43.9121524" lon="7.6114102"><ele>658.0</ele><time>2026-04-18T07:01:34.979Z</time></trkpt><trkpt lat="43.9122254" lon="7.6114125"><ele>658.0</ele><time>2026-04-18T07:01:35.979Z</time></trkpt><trkpt lat="43.9122934" lon="7.6113998"><ele>658.0</ele><time>2026-04-18T07:01:36.979Z</time></trkpt><trkpt lat="43.9123567" lon="7.6114024"><ele>658.0</ele><time>2026-04-18T07:01:37.979Z</time></trkpt><trkpt lat="43.912474" lon="7.6114176"><ele>658.0</ele><time>2026-04-18T07:01:39.979Z</time></trkpt><trkpt lat="43.9126006" lon="7.6113992"><ele>658.0</ele><time>2026-04-18T07:01:41.978Z</time></trkpt><trkpt lat="43.9127039" lon="7.6113646"><ele>660.2</ele><time>2026-04-18T07:01:43.979Z</time></trkpt><trkpt lat="43.9127894" lon="7.6112699"><ele>662.4</ele><time>2026-04-18T07:01:45.979Z</time></trkpt><trkpt lat="43.9129003" lon="7.6112674"><ele>664.6</ele><time>2026-04-18T07:01:47.978Z</time></trkpt><trkpt lat="43.9130072" lon="7.6113002"><ele>666.8000000000001</ele><time>2026-04-18T07:01:49.978Z</time></trkpt><trkpt lat="43.9130635" lon="7.6113622"><ele>669.0</ele><time>2026-04-18T07:01:50.979Z</time></trkpt><trkpt lat="43.9131855" lon="7.6113927"><ele>669.0</ele><time>2026-04-18T07:01:52.979Z</time></trkpt><trkpt lat="43.9132601" lon="7.6113441"><ele>669.0</ele><time>2026-04-18T07:01:53.979Z</time></trkpt><trkpt lat="43.9133351" lon="7.611309"><ele>669.0</ele><time>2026-04-18T07:01:54.979Z</time></trkpt><trkpt lat="43.9134013" lon="7.6112697"><ele>669.0</ele><time>2026-04-18T07:01:55.979Z</time></trkpt><trkpt lat="43.9134705" lon="7.6112745"><ele>669.0</ele><time>2026-04-18T07:01:56.979Z</time></trkpt><trkpt lat="43.9135881" lon="7.611264"><ele>669.0</ele><time>2026-04-18T07:01:58.979Z</time></trkpt><trkpt lat="43.9137032" lon="7.6112609"><ele>670.8000000000001</ele><time>2026-04-18T07:02:00.978Z</time></trkpt><trkpt lat="43.9138241" lon="7.6112621"><ele>672.6</ele><time>2026-04-18T07:02:02.979Z</time></trkpt><trkpt lat="43.9139395" lon="7.6113086"><ele>674.4</ele><time>2026-04-18T07:02:04.979Z</time></trkpt><trkpt lat="43.914059" lon="7.6113723"><ele>676.2</ele><time>2026-04-18T07:02:06.979Z</time></trkpt><trkpt lat="43.9141228" lon="7.6113954"><ele>678.0</ele><time>2026-04-18T07:02:07.979Z</time></trkpt><trkpt lat="43.914194" lon="7.6114304"><ele>678.0</ele><time>2026-04-18T07:02:08.979Z</time></trkpt><trkpt lat="43.9142622" lon="7.611443"><ele>678.0</ele><time>2026-04-18T07:02:09.978Z</time></trkpt><trkpt lat="43.9143263" lon="7.6114362"><ele>678.0</ele><time>2026-04-18T07:02:10.979Z</time></trkpt><trkpt lat="43.9144341" lon="7.6113867"><ele>678.0</ele><time>2026-04-18T07:02:12.979Z</time></trkpt><trkpt lat="43.914523" lon="7.6112842"><ele>678.0</ele><time>2026-04-18T07:02:14.979Z</time></trkpt><trkpt lat="43.9145918" lon="7.6111744"><ele>678.0</ele><time>2026-04-18T07:02:16.979Z</time></trkpt><trkpt lat="43.9146911" lon="7.6111309"><ele>678.0</ele><time>2026-04-18T07:02:18.978Z</time></trkpt><trkpt lat="43.9147922" lon="7.6111728"><ele>678.0</ele><time>2026-04-18T07:02:20.979Z</time></trkpt><trkpt lat="43.9148961" lon="7.6111666"><ele>678.0</ele><time>2026-04-18T07:02:22.979Z</time></trkpt><trkpt lat="43.9149842" lon="7.6110821"><ele>678.0</ele><time>2026-04-18T07:02:24.979Z</time></trkpt><trkpt lat="43.9150733" lon="7.6109733"><ele>684.2</ele><time>2026-04-18T07:02:26.979Z</time></trkpt><trkpt lat="43.9151665" lon="7.6108872"><ele>690.4</ele><time>2026-04-18T07:02:28.979Z</time></trkpt><trkpt lat="43.9152822" lon="7.6108808"><ele>696.6</ele><time>2026-04-18T07:02:30.979Z</time></trkpt><trkpt lat="43.9153856" lon="7.610922"><ele>702.8000000000001</ele><time>2026-04-18T07:02:32.979Z</time></trkpt><trkpt lat="43.9154901" lon="7.6109601"><ele>709.0</ele><time>2026-04-18T07:02:34.979Z</time></trkpt><trkpt lat="43.9155956" lon="7.6109301"><ele>709.0</ele><time>2026-04-18T07:02:36.979Z</time></trkpt><trkpt lat="43.9157184" lon="7.6108909"><ele>709.0</ele><time>2026-04-18T07:02:38.979Z</time></trkpt><trkpt lat="43.9158431" lon="7.6108733"><ele>709.0</ele><time>2026-04-18T07:02:40.979Z</time></trkpt><trkpt lat="43.9159504" lon="7.6108285"><ele>709.0</ele><time>2026-04-18T07:02:42.979Z</time></trkpt><trkpt lat="43.9160184" lon="7.6107918"><ele>709.0</ele><time>2026-04-18T07:02:43.979Z</time></trkpt><trkpt lat="43.9160859" lon="7.6107691"><ele>707.8000000000001</ele><time>2026-04-18T07:02:44.979Z</time></trkpt><trkpt lat="43.9162061" lon="7.6106844"><ele>706.6</ele><time>2026-04-18T07:02:46.979Z</time></trkpt><trkpt lat="43.9162769" lon="7.6106287"><ele>705.4</ele><time>2026-04-18T07:02:48.979Z</time></trkpt><trkpt lat="43.9163665" lon="7.6106293"><ele>704.2</ele><time>2026-04-18T07:02:50.979Z</time></trkpt><trkpt lat="43.9164465" lon="7.6105622"><ele>703.0</ele><time>2026-04-18T07:02:52.979Z</time></trkpt><trkpt lat="43.9165243" lon="7.6104649"><ele>703.0</ele><time>2026-04-18T07:02:54.979Z</time></trkpt><trkpt lat="43.9166112" lon="7.6104033"><ele>703.0</ele><time>2026-04-18T07:02:56.979Z</time></trkpt><trkpt lat="43.9166714" lon="7.610361"><ele>703.0</ele><time>2026-04-18T07:02:57.979Z</time></trkpt><trkpt lat="43.9167309" lon="7.6103254"><ele>703.0</ele><time>2026-04-18T07:02:58.979Z</time></trkpt><trkpt lat="43.9168164" lon="7.6101826"><ele>703.0</ele><time>2026-04-18T07:03:00.979Z</time></trkpt><trkpt lat="43.9168648" lon="7.6100891"><ele>703.0</ele><time>2026-04-18T07:03:01.979Z</time></trkpt><trkpt lat="43.9168936" lon="7.609996"><ele>706.0</ele><time>2026-04-18T07:03:02.979Z</time></trkpt><trkpt lat="43.9169451" lon="7.6099353"><ele>709.0</ele><time>2026-04-18T07:03:03.978Z</time></trkpt><trkpt lat="43.9170035" lon="7.6098864"><ele>712.0</ele><time>2026-04-18T07:03:04.979Z</time></trkpt><trkpt lat="43.9170623" lon="7.6098471"><ele>715.0</ele><time>2026-04-18T07:03:05.979Z</time></trkpt><trkpt lat="43.9171241" lon="7.6097958"><ele>718.0</ele><time>2026-04-18T07:03:06.979Z</time></trkpt><trkpt lat="43.9171797" lon="7.6097348"><ele>721.0</ele><time>2026-04-18T07:03:07.979Z</time></trkpt><trkpt lat="43.9172355" lon="7.6096822"><ele>724.0</ele><time>2026-04-18T07:03:08.979Z</time></trkpt><trkpt lat="43.9172877" lon="7.6096273"><ele>724.0</ele><time>2026-04-18T07:03:09.979Z</time></trkpt><trkpt lat="43.9173861" lon="7.6095422"><ele>724.0</ele><time>2026-04-18T07:03:11.979Z</time></trkpt><trkpt lat="43.9174768" lon="7.6094928"><ele>724.0</ele><time>2026-04-18T07:03:13.979Z</time></trkpt><trkpt lat="43.9175601" lon="7.6094535"><ele>724.0</ele><time>2026-04-18T07:03:15.979Z</time></trkpt><trkpt lat="43.9177061" lon="7.6094655"><ele>724.0</ele><time>2026-04-18T07:03:17.979Z</time></trkpt><trkpt lat="43.9178153" lon="7.6094746"><ele>728.0</ele><time>2026-04-18T07:03:18.979Z</time></trkpt><trkpt lat="43.9179267" lon="7.6095208"><ele>732.0</ele><time>2026-04-18T07:03:20.978Z</time></trkpt><trkpt lat="43.9179747" lon="7.6096048"><ele>736.0</ele><time>2026-04-18T07:03:22.979Z</time></trkpt><trkpt lat="43.917954" lon="7.609719"><ele>740.0</ele><time>2026-04-18T07:03:24.979Z</time></trkpt><trkpt lat="43.9179044" lon="7.6098257"><ele>744.0</ele><time>2026-04-18T07:03:26.979Z</time></trkpt><trkpt lat="43.9178132" lon="7.6099235"><ele>744.0</ele><time>2026-04-18T07:03:28.979Z</time></trkpt><trkpt lat="43.9177086" lon="7.6100184"><ele>744.0</ele><time>2026-04-18T07:03:30.979Z</time></trkpt><trkpt lat="43.917624" lon="7.6100978"><ele>744.0</ele><time>2026-04-18T07:03:32.979Z</time></trkpt><trkpt lat="43.9175835" lon="7.6101825"><ele>744.0</ele><time>2026-04-18T07:03:34.979Z</time></trkpt><trkpt lat="43.9176088" lon="7.6102879"><ele>744.0</ele><time>2026-04-18T07:03:36.979Z</time></trkpt><trkpt lat="43.9176276" lon="7.6104532"><ele>748.6</ele><time>2026-04-18T07:03:38.979Z</time></trkpt><trkpt lat="43.9176253" lon="7.6106115"><ele>753.2</ele><time>2026-04-18T07:03:40.978Z</time></trkpt><trkpt lat="43.9175918" lon="7.6107644"><ele>757.8000000000001</ele><time>2026-04-18T07:03:42.979Z</time></trkpt><trkpt lat="43.9175491" lon="7.6109138"><ele>762.4000000000001</ele><time>2026-04-18T07:03:44.979Z</time></trkpt><trkpt lat="43.9175596" lon="7.6110387"><ele>767.0</ele><time>2026-04-18T07:03:46.979Z</time></trkpt><trkpt lat="43.9175919" lon="7.6111955"><ele>768.8333333333333</ele><time>2026-04-18T07:03:48.979Z</time></trkpt><trkpt lat="43.9176191" lon="7.6112749"><ele>770.6666666666666</ele><time>2026-04-18T07:03:49.978Z</time></trkpt><trkpt lat="43.917647" lon="7.611363"><ele>772.5</ele><time>2026-04-18T07:03:50.979Z</time></trkpt><trkpt lat="43.9176805" lon="7.6114575"><ele>774.3333333333333</ele><time>2026-04-18T07:03:51.979Z</time></trkpt><trkpt lat="43.9177128" lon="7.61154"><ele>776.1666666666666</ele><time>2026-04-18T07:03:52.979Z</time></trkpt><trkpt lat="43.9177366" lon="7.6116229"><ele>778.0</ele><time>2026-04-18T07:03:53.979Z</time></trkpt><trkpt lat="43.9176943" lon="7.6117831"><ele>778.0</ele><time>2026-04-18T07:03:55.979Z</time></trkpt><trkpt lat="43.9176344" lon="7.611856"><ele>778.0</ele><time>2026-04-18T07:03:57.979Z</time></trkpt><trkpt lat="43.9175227" lon="7.6119071"><ele>778.0</ele><time>2026-04-18T07:03:59.979Z</time></trkpt><trkpt lat="43.9174589" lon="7.6119305"><ele>778.0</ele><time>2026-04-18T07:04:00.978Z</time></trkpt><trkpt lat="43.9173529" lon="7.6119623"><ele>778.0</ele><time>2026-04-18T07:04:02.979Z</time></trkpt><trkpt lat="43.9172671" lon="7.6120692"><ele>773.8333333333333</ele><time>2026-04-18T07:04:04.979Z</time></trkpt><trkpt lat="43.9172202" lon="7.6121424"><ele>769.6666666666666</ele><time>2026-04-18T07:04:05.979Z</time></trkpt><trkpt lat="43.9171709" lon="7.6122059"><ele>765.5</ele><time>2026-04-18T07:04:06.979Z</time></trkpt><trkpt lat="43.9171239" lon="7.6122693"><ele>761.3333333333333</ele><time>2026-04-18T07:04:07.978Z</time></trkpt><trkpt lat="43.9170512" lon="7.6124098"><ele>757.1666666666666</ele><time>2026-04-18T07:04:09.979Z</time></trkpt><trkpt lat="43.9170136" lon="7.6124805"><ele>753.0</ele><time>2026-04-18T07:04:10.979Z</time></trkpt><trkpt lat="43.916936" lon="7.6125968"><ele>753.0</ele><time>2026-04-18T07:04:12.979Z</time></trkpt><trkpt lat="43.9168769" lon="7.6126467"><ele>753.0</ele><time>2026-04-18T07:04:13.979Z</time></trkpt><trkpt lat="43.916805" lon="7.6126919"><ele>753.0</ele><time>2026-04-18T07:04:14.979Z</time></trkpt><trkpt lat="43.9167336" lon="7.6127327"><ele>753.0</ele><time>2026-04-18T07:04:15.979Z</time></trkpt><trkpt lat="43.9166721" lon="7.612769"><ele>753.0</ele><time>2026-04-18T07:04:16.979Z</time></trkpt><trkpt lat="43.9165753" lon="7.6128313"><ele>753.0</ele><time>2026-04-18T07:04:18.979Z</time></trkpt><trkpt lat="43.9165013" lon="7.6129331"><ele>751.2</ele><time>2026-04-18T07:04:20.979Z</time></trkpt><trkpt lat="43.91647" lon="7.6130617"><ele>749.4</ele><time>2026-04-18T07:04:22.979Z</time></trkpt><trkpt lat="43.9164357" lon="7.6131968"><ele>747.6</ele><time>2026-04-18T07:04:24.979Z</time></trkpt><trkpt lat="43.9164367" lon="7.6133354"><ele>745.8000000000001</ele><time>2026-04-18T07:04:26.979Z</time></trkpt><trkpt lat="43.916486" lon="7.6134618"><ele>744.0</ele><time>2026-04-18T07:04:28.979Z</time></trkpt><trkpt lat="43.9165058" lon="7.6135841"><ele>746.25</ele><time>2026-04-18T07:04:30.979Z</time></trkpt><trkpt lat="43.9164602" lon="7.6137344"><ele>748.5</ele><time>2026-04-18T07:04:32.979Z</time></trkpt><trkpt lat="43.9164233" lon="7.6138666"><ele>750.75</ele><time>2026-04-18T07:04:34.979Z</time></trkpt><trkpt lat="43.9163963" lon="7.6140363"><ele>753.0</ele><time>2026-04-18T07:04:36.978Z</time></trkpt><trkpt lat="43.916361" lon="7.6141883"><ele>753.0</ele><time>2026-04-18T07:04:38.979Z</time></trkpt><trkpt lat="43.9163247" lon="7.6142616"><ele>753.0</ele><time>2026-04-18T07:04:39.979Z</time></trkpt><trkpt lat="43.9162416" lon="7.6143847"><ele>753.0</ele><time>2026-04-18T07:04:41.979Z</time></trkpt><trkpt lat="43.9161514" lon="7.6145024"><ele>753.0</ele><time>2026-04-18T07:04:43.979Z</time></trkpt><trkpt lat="43.9160553" lon="7.6145711"><ele>753.0</ele><time>2026-04-18T07:04:45.979Z</time></trkpt><trkpt lat="43.9159697" lon="7.6146696"><ele>751.1666666666666</ele><time>2026-04-18T07:04:47.979Z</time></trkpt><trkpt lat="43.9158753" lon="7.6147714"><ele>749.3333333333334</ele><time>2026-04-18T07:04:49.979Z</time></trkpt><trkpt lat="43.9158162" lon="7.6148217"><ele>747.5</ele><time>2026-04-18T07:04:50.979Z</time></trkpt><trkpt lat="43.9157302" lon="7.6148527"><ele>745.6666666666667</ele><time>2026-04-18T07:04:51.979Z</time></trkpt><trkpt lat="43.9156565" lon="7.6148903"><ele>743.8333333333334</ele><time>2026-04-18T07:04:52.979Z</time></trkpt><trkpt lat="43.9155806" lon="7.6149192"><ele>742.0</ele><time>2026-04-18T07:04:53.979Z</time></trkpt><trkpt lat="43.9155136" lon="7.6149518"><ele>742.0</ele><time>2026-04-18T07:04:54.978Z</time></trkpt><trkpt lat="43.9154443" lon="7.6149847"><ele>742.0</ele><time>2026-04-18T07:04:55.979Z</time></trkpt><trkpt lat="43.9153239" lon="7.6150391"><ele>742.0</ele><time>2026-04-18T07:04:57.979Z</time></trkpt><trkpt lat="43.9152028" lon="7.6150572"><ele>742.0</ele><time>2026-04-18T07:04:59.979Z</time></trkpt><trkpt lat="43.9151363" lon="7.6150687"><ele>742.0</ele><time>2026-04-18T07:05:00.979Z</time></trkpt><trkpt lat="43.9150678" lon="7.6151137"><ele>740.0</ele><time>2026-04-18T07:05:01.979Z</time></trkpt><trkpt lat="43.914962" lon="7.6151975"><ele>738.0</ele><time>2026-04-18T07:05:03.979Z</time></trkpt><trkpt lat="43.914884" lon="7.6153072"><ele>736.0</ele><time>2026-04-18T07:05:05.979Z</time></trkpt><trkpt lat="43.9148579" lon="7.6154535"><ele>734.0</ele><time>2026-04-18T07:05:07.979Z</time></trkpt><trkpt lat="43.914885" lon="7.6155913"><ele>732.0</ele><time>2026-04-18T07:05:09.979Z</time></trkpt><trkpt lat="43.914889" lon="7.6157306"><ele>732.0</ele><time>2026-04-18T07:05:11.979Z</time></trkpt><trkpt lat="43.9148672" lon="7.615886"><ele>732.0</ele><time>2026-04-18T07:05:13.979Z</time></trkpt><trkpt lat="43.9148478" lon="7.6159788"><ele>732.0</ele><time>2026-04-18T07:05:14.979Z</time></trkpt><trkpt lat="43.9148242" lon="7.6160658"><ele>732.0</ele><time>2026-04-18T07:05:15.979Z</time></trkpt><trkpt lat="43.9148038" lon="7.616152"><ele>732.0</ele><time>2026-04-18T07:05:16.979Z</time></trkpt><trkpt lat="43.9147674" lon="7.6163075"><ele>732.0</ele><time>2026-04-18T07:05:18.979Z</time></trkpt><trkpt lat="43.9146902" lon="7.6164401"><ele>732.3333333333334</ele><time>2026-04-18T07:05:20.979Z</time></trkpt><trkpt lat="43.9146074" lon="7.6165191"><ele>732.6666666666666</ele><time>2026-04-18T07:05:22.979Z</time></trkpt><trkpt lat="43.9145311" lon="7.6165721"><ele>733.0</ele><time>2026-04-18T07:05:24.979Z</time></trkpt><trkpt lat="43.9144694" lon="7.6166159"><ele>733.3333333333333</ele><time>2026-04-18T07:05:26.979Z</time></trkpt><trkpt lat="43.9144428" lon="7.6167356"><ele>733.6666666666666</ele><time>2026-04-18T07:11:18.978Z</time></trkpt><trkpt lat="43.9144058" lon="7.6168286"><ele>734.0</ele><time>2026-04-18T07:11:20.978Z</time></trkpt><trkpt lat="43.9143553" lon="7.6169116"><ele>734.0</ele><time>2026-04-18T07:11:22.978Z</time></trkpt><trkpt lat="43.9143021" lon="7.6169764"><ele>734.0</ele><time>2026-04-18T07:11:24.978Z</time></trkpt><trkpt lat="43.9142374" lon="7.6170365"><ele>734.0</ele><time>2026-04-18T07:11:26.978Z</time></trkpt><trkpt lat="43.9141637" lon="7.6170843"><ele>734.0</ele><time>2026-04-18T07:11:28.978Z</time></trkpt><trkpt lat="43.9140893" lon="7.6171418"><ele>734.0</ele><time>2026-04-18T07:11:30.978Z</time></trkpt><trkpt lat="43.9140195" lon="7.6171895"><ele>734.0</ele><time>2026-04-18T07:11:32.978Z</time></trkpt><trkpt lat="43.9139297" lon="7.6172444"><ele>731.4000000000001</ele><time>2026-04-18T07:11:34.978Z</time></trkpt><trkpt lat="43.9138208" lon="7.6172806"><ele>728.8</ele><time>2026-04-18T07:11:36.978Z</time></trkpt><trkpt lat="43.9137268" lon="7.6173103"><ele>726.2</ele><time>2026-04-18T07:11:38.978Z</time></trkpt><trkpt lat="43.9136668" lon="7.6174206"><ele>723.5999999999999</ele><time>2026-04-18T07:11:40.977Z</time></trkpt><trkpt lat="43.9136249" lon="7.6175206"><ele>721.0</ele><time>2026-04-18T07:11:42.978Z</time></trkpt><trkpt lat="43.9135726" lon="7.61763"><ele>721.0</ele><time>2026-04-18T07:11:44.978Z</time></trkpt><trkpt lat="43.9135005" lon="7.6177335"><ele>721.0</ele><time>2026-04-18T07:11:46.978Z</time></trkpt><trkpt lat="43.913448" lon="7.6177839"><ele>721.0</ele><time>2026-04-18T07:11:47.978Z</time></trkpt><trkpt lat="43.913361" lon="7.6178946"><ele>721.0</ele><time>2026-04-18T07:11:49.978Z</time></trkpt><trkpt lat="43.9133164" lon="7.6179583"><ele>721.0</ele><time>2026-04-18T07:11:50.977Z</time></trkpt><trkpt lat="43.9132491" lon="7.6180144"><ele>721.0</ele><time>2026-04-18T07:11:51.978Z</time></trkpt><trkpt lat="43.9131883" lon="7.6180538"><ele>719.6666666666667</ele><time>2026-04-18T07:11:52.977Z</time></trkpt><trkpt lat="43.9130903" lon="7.6181382"><ele>718.3333333333334</ele><time>2026-04-18T07:11:54.978Z</time></trkpt><trkpt lat="43.9130418" lon="7.6182"><ele>717.0</ele><time>2026-04-18T07:11:55.978Z</time></trkpt><trkpt lat="43.9129841" lon="7.6182607"><ele>715.6666666666666</ele><time>2026-04-18T07:11:56.978Z</time></trkpt><trkpt lat="43.9129402" lon="7.6183351"><ele>714.3333333333333</ele><time>2026-04-18T07:11:57.978Z</time></trkpt><trkpt lat="43.9128906" lon="7.6184042"><ele>713.0</ele><time>2026-04-18T07:11:58.978Z</time></trkpt><trkpt lat="43.9128503" lon="7.6184775"><ele>713.0</ele><time>2026-04-18T07:11:59.978Z</time></trkpt><trkpt lat="43.9127916" lon="7.618556"><ele>713.0</ele><time>2026-04-18T07:12:00.978Z</time></trkpt><trkpt lat="43.9127454" lon="7.618642"><ele>713.0</ele><time>2026-04-18T07:12:01.978Z</time></trkpt><trkpt lat="43.912695" lon="7.6187151"><ele>713.0</ele><time>2026-04-18T07:12:02.978Z</time></trkpt><trkpt lat="43.9126561" lon="7.6187931"><ele>713.0</ele><time>2026-04-18T07:12:03.977Z</time></trkpt><trkpt lat="43.9126112" lon="7.6188724"><ele>713.0</ele><time>2026-04-18T07:12:04.978Z</time></trkpt><trkpt lat="43.9125673" lon="7.6189504"><ele>713.0</ele><time>2026-04-18T07:12:05.978Z</time></trkpt><trkpt lat="43.9125206" lon="7.6190231"><ele>714.5</ele><time>2026-04-18T07:12:06.978Z</time></trkpt><trkpt lat="43.9124717" lon="7.6190936"><ele>716.0</ele><time>2026-04-18T07:12:07.978Z</time></trkpt><trkpt lat="43.912424" lon="7.6192142"><ele>717.5</ele><time>2026-04-18T07:12:09.978Z</time></trkpt><trkpt lat="43.9123038" lon="7.6192526"><ele>719.0</ele><time>2026-04-18T07:12:11.978Z</time></trkpt><trkpt lat="43.9122364" lon="7.6192445"><ele>720.5</ele><time>2026-04-18T07:12:12.978Z</time></trkpt><trkpt lat="43.9121525" lon="7.6192065"><ele>722.0</ele><time>2026-04-18T07:12:14.978Z</time></trkpt><trkpt lat="43.9120737" lon="7.6191791"><ele>722.0</ele><time>2026-04-18T07:12:16.978Z</time></trkpt><trkpt lat="43.9119914" lon="7.6191351"><ele>722.0</ele><time>2026-04-18T07:12:19.978Z</time></trkpt><trkpt lat="43.9118956" lon="7.6191016"><ele>722.0</ele><time>2026-04-18T07:12:22.978Z</time></trkpt><trkpt lat="43.9117782" lon="7.6190673"><ele>722.0</ele><time>2026-04-18T07:12:24.978Z</time></trkpt><trkpt lat="43.9116644" lon="7.6190772"><ele>722.0</ele><time>2026-04-18T07:12:26.978Z</time></trkpt><trkpt lat="43.9115561" lon="7.6190737"><ele>722.1666666666666</ele><time>2026-04-18T07:12:28.978Z</time></trkpt><trkpt lat="43.9114655" lon="7.6190248"><ele>722.3333333333333</ele><time>2026-04-18T07:12:30.978Z</time></trkpt><trkpt lat="43.9113805" lon="7.6189925"><ele>722.5</ele><time>2026-04-18T07:12:32.978Z</time></trkpt><trkpt lat="43.9113055" lon="7.6189552"><ele>722.6666666666666</ele><time>2026-04-18T07:12:34.978Z</time></trkpt><trkpt lat="43.9112262" lon="7.618965"><ele>722.8333333333334</ele><time>2026-04-18T07:12:48.978Z</time></trkpt><trkpt lat="43.9111729" lon="7.6190115"><ele>723.0</ele><time>2026-04-18T07:12:50.978Z</time></trkpt><trkpt lat="43.9110962" lon="7.6190516"><ele>723.0</ele><time>2026-04-18T07:12:52.978Z</time></trkpt><trkpt lat="43.9109977" lon="7.6190805"><ele>723.0</ele><time>2026-04-18T07:12:54.978Z</time></trkpt><trkpt lat="43.9109212" lon="7.6191315"><ele>723.0</ele><time>2026-04-18T07:12:56.978Z</time></trkpt><trkpt lat="43.9109727" lon="7.6192025"><ele>723.0</ele><time>2026-04-18T07:13:36.978Z</time></trkpt><trkpt lat="43.9110498" lon="7.619213"><ele>723.0</ele><time>2026-04-18T07:13:38.978Z</time></trkpt><trkpt lat="43.9111393" lon="7.6192265"><ele>723.0</ele><time>2026-04-18T07:13:40.978Z</time></trkpt><trkpt lat="43.9112468" lon="7.6192487"><ele>723.0</ele><time>2026-04-18T07:13:42.978Z</time></trkpt><trkpt lat="43.911357" lon="7.6192845"><ele>723.0</ele><time>2026-04-18T07:13:44.978Z</time></trkpt><trkpt lat="43.9114212" lon="7.6193009"><ele>723.0</ele><time>2026-04-18T07:13:45.978Z</time></trkpt><trkpt lat="43.9114839" lon="7.6193131"><ele>723.0</ele><time>2026-04-18T07:13:46.978Z</time></trkpt><trkpt lat="43.911597" lon="7.6193526"><ele>723.0</ele><time>2026-04-18T07:13:48.978Z</time></trkpt><trkpt lat="43.9116591" lon="7.6193825"><ele>723.0</ele><time>2026-04-18T07:13:49.978Z</time></trkpt><trkpt lat="43.9117684" lon="7.6194088"><ele>722.8</ele><time>2026-04-18T07:13:51.978Z</time></trkpt><trkpt lat="43.9118807" lon="7.6194565"><ele>722.5999999999999</ele><time>2026-04-18T07:13:53.978Z</time></trkpt><trkpt lat="43.9119581" lon="7.6194776"><ele>722.4000000000001</ele><time>2026-04-18T07:13:54.978Z</time></trkpt><trkpt lat="43.9120322" lon="7.6194957"><ele>722.2</ele><time>2026-04-18T07:13:55.978Z</time></trkpt><trkpt lat="43.9121302" lon="7.6195327"><ele>722.0</ele><time>2026-04-18T07:13:57.977Z</time></trkpt><trkpt lat="43.9122438" lon="7.6195318"><ele>722.0</ele><time>2026-04-18T07:13:59.978Z</time></trkpt><trkpt lat="43.9123062" lon="7.6195158"><ele>722.0</ele><time>2026-04-18T07:14:00.978Z</time></trkpt><trkpt lat="43.9124028" lon="7.6194226"><ele>722.0</ele><time>2026-04-18T07:14:02.978Z</time></trkpt><trkpt lat="43.9124897" lon="7.6192983"><ele>722.0</ele><time>2026-04-18T07:14:04.978Z</time></trkpt><trkpt lat="43.9125272" lon="7.6192245"><ele>722.0</ele><time>2026-04-18T07:14:05.978Z</time></trkpt><trkpt lat="43.9126005" lon="7.6190921"><ele>720.5</ele><time>2026-04-18T07:14:07.978Z</time></trkpt><trkpt lat="43.9126513" lon="7.6190281"><ele>719.0</ele><time>2026-04-18T07:14:08.978Z</time></trkpt><trkpt lat="43.912729" lon="7.6188946"><ele>717.5</ele><time>2026-04-18T07:14:10.978Z</time></trkpt><trkpt lat="43.9127756" lon="7.6188173"><ele>716.0</ele><time>2026-04-18T07:14:11.978Z</time></trkpt><trkpt lat="43.912818" lon="7.6187354"><ele>714.5</ele><time>2026-04-18T07:14:12.978Z</time></trkpt><trkpt lat="43.9128741" lon="7.6186622"><ele>713.0</ele><time>2026-04-18T07:14:13.978Z</time></trkpt><trkpt lat="43.9129236" lon="7.6185882"><ele>713.0</ele><time>2026-04-18T07:14:14.978Z</time></trkpt><trkpt lat="43.9129782" lon="7.6185094"><ele>713.0</ele><time>2026-04-18T07:14:15.978Z</time></trkpt><trkpt lat="43.913022" lon="7.6184253"><ele>713.0</ele><time>2026-04-18T07:14:16.978Z</time></trkpt><trkpt lat="43.9130663" lon="7.6183544"><ele>713.0</ele><time>2026-04-18T07:14:17.978Z</time></trkpt><trkpt lat="43.9131409" lon="7.6182325"><ele>713.0</ele><time>2026-04-18T07:14:19.978Z</time></trkpt><trkpt lat="43.9131895" lon="7.6181693"><ele>713.0</ele><time>2026-04-18T07:14:20.978Z</time></trkpt><trkpt lat="43.9132455" lon="7.6181205"><ele>713.0</ele><time>2026-04-18T07:14:21.978Z</time></trkpt><trkpt lat="43.9133791" lon="7.6180357"><ele>713.0</ele><time>2026-04-18T07:14:23.978Z</time></trkpt><trkpt lat="43.9134474" lon="7.6179851"><ele>713.0</ele><time>2026-04-18T07:14:24.978Z</time></trkpt><trkpt lat="43.9135182" lon="7.6179479"><ele>713.0</ele><time>2026-04-18T07:14:25.978Z</time></trkpt><trkpt lat="43.9135779" lon="7.6179129"><ele>713.0</ele><time>2026-04-18T07:14:26.978Z</time></trkpt><trkpt lat="43.9136729" lon="7.6178372"><ele>714.3333333333333</ele><time>2026-04-18T07:14:28.978Z</time></trkpt><trkpt lat="43.9137541" lon="7.6177934"><ele>715.6666666666666</ele><time>2026-04-18T07:14:30.978Z</time></trkpt><trkpt lat="43.9138509" lon="7.6177875"><ele>717.0</ele><time>2026-04-18T07:14:32.978Z</time></trkpt><trkpt lat="43.9139214" lon="7.6177925"><ele>718.3333333333334</ele><time>2026-04-18T07:14:33.978Z</time></trkpt><trkpt lat="43.9139934" lon="7.6178016"><ele>719.6666666666667</ele><time>2026-04-18T07:14:34.978Z</time></trkpt><trkpt lat="43.9140725" lon="7.617818"><ele>721.0</ele><time>2026-04-18T07:14:35.978Z</time></trkpt><trkpt lat="43.9141355" lon="7.6177926"><ele>720.4</ele><time>2026-04-18T07:14:36.978Z</time></trkpt><trkpt lat="43.9142464" lon="7.6177766"><ele>719.8</ele><time>2026-04-18T07:14:38.978Z</time></trkpt><trkpt lat="43.9143602" lon="7.6177595"><ele>719.1999999999999</ele><time>2026-04-18T07:14:40.978Z</time></trkpt><trkpt lat="43.9144622" lon="7.6177243"><ele>718.5999999999999</ele><time>2026-04-18T07:14:42.978Z</time></trkpt><trkpt lat="43.9145656" lon="7.617708"><ele>718.0</ele><time>2026-04-18T07:14:44.978Z</time></trkpt><trkpt lat="43.9146816" lon="7.617702"><ele>718.0</ele><time>2026-04-18T07:14:46.978Z</time></trkpt><trkpt lat="43.9147812" lon="7.617721"><ele>718.0</ele><time>2026-04-18T07:14:48.978Z</time></trkpt><trkpt lat="43.9148556" lon="7.6177662"><ele>718.0</ele><time>2026-04-18T07:14:50.978Z</time></trkpt><trkpt lat="43.9149346" lon="7.6178105"><ele>718.0</ele><time>2026-04-18T07:14:52.978Z</time></trkpt><trkpt lat="43.9150111" lon="7.6177727"><ele>718.0</ele><time>2026-04-18T07:14:54.978Z</time></trkpt><trkpt lat="43.9150737" lon="7.6176915"><ele>718.0</ele><time>2026-04-18T07:14:56.978Z</time></trkpt><trkpt lat="43.9151273" lon="7.6175704"><ele>720.8</ele><time>2026-04-18T07:14:58.978Z</time></trkpt><trkpt lat="43.9151737" lon="7.6174517"><ele>723.5999999999999</ele><time>2026-04-18T07:15:00.977Z</time></trkpt><trkpt lat="43.9152219" lon="7.6173094"><ele>726.4000000000001</ele><time>2026-04-18T07:15:02.978Z</time></trkpt><trkpt lat="43.9152895" lon="7.6172162"><ele>729.2</ele><time>2026-04-18T07:15:04.978Z</time></trkpt><trkpt lat="43.9153539" lon="7.6171525"><ele>732.0</ele><time>2026-04-18T07:15:06.978Z</time></trkpt><trkpt lat="43.915461" lon="7.6171712"><ele>732.0</ele><time>2026-04-18T07:15:08.978Z</time></trkpt><trkpt lat="43.915517" lon="7.6172478"><ele>732.0</ele><time>2026-04-18T07:15:10.978Z</time></trkpt><trkpt lat="43.9154994" lon="7.6174223"><ele>732.0</ele><time>2026-04-18T07:15:13.978Z</time></trkpt><trkpt lat="43.9154758" lon="7.6175233"><ele>732.0</ele><time>2026-04-18T07:15:14.978Z</time></trkpt><trkpt lat="43.9154614" lon="7.6176404"><ele>732.0</ele><time>2026-04-18T07:15:15.978Z</time></trkpt><trkpt lat="43.9154588" lon="7.6177568"><ele>731.1666666666666</ele><time>2026-04-18T07:15:16.978Z</time></trkpt><trkpt lat="43.9154571" lon="7.6178606"><ele>730.3333333333334</ele><time>2026-04-18T07:15:17.978Z</time></trkpt><trkpt lat="43.9154465" lon="7.617968"><ele>729.5</ele><time>2026-04-18T07:15:18.978Z</time></trkpt><trkpt lat="43.9154312" lon="7.6180819"><ele>728.6666666666667</ele><time>2026-04-18T07:15:19.978Z</time></trkpt><trkpt lat="43.9154237" lon="7.6181882"><ele>727.8333333333334</ele><time>2026-04-18T07:15:20.978Z</time></trkpt><trkpt lat="43.9154224" lon="7.6182959"><ele>727.0</ele><time>2026-04-18T07:15:21.978Z</time></trkpt><trkpt lat="43.9154174" lon="7.6184096"><ele>727.0</ele><time>2026-04-18T07:15:22.978Z</time></trkpt><trkpt lat="43.9154144" lon="7.6185258"><ele>727.0</ele><time>2026-04-18T07:15:23.977Z</time></trkpt><trkpt lat="43.9154019" lon="7.6186202"><ele>727.0</ele><time>2026-04-18T07:15:24.978Z</time></trkpt><trkpt lat="43.9153997" lon="7.6187204"><ele>727.0</ele><time>2026-04-18T07:15:25.978Z</time></trkpt><trkpt lat="43.9153832" lon="7.6188208"><ele>727.0</ele><time>2026-04-18T07:15:26.978Z</time></trkpt><trkpt lat="43.915365" lon="7.618921"><ele>727.0</ele><time>2026-04-18T07:15:27.978Z</time></trkpt><trkpt lat="43.915345" lon="7.619021"><ele>727.0</ele><time>2026-04-18T07:15:28.978Z</time></trkpt><trkpt lat="43.915325" lon="7.6191259"><ele>726.8</ele><time>2026-04-18T07:15:29.978Z</time></trkpt><trkpt lat="43.9153017" lon="7.619227"><ele>726.6</ele><time>2026-04-18T07:15:30.978Z</time></trkpt><trkpt lat="43.9152699" lon="7.6193799"><ele>726.4</ele><time>2026-04-18T07:15:32.977Z</time></trkpt><trkpt lat="43.91524" lon="7.6194727"><ele>726.1999999999999</ele><time>2026-04-18T07:15:34.978Z</time></trkpt><trkpt lat="43.9152288" lon="7.6196017"><ele>726.0</ele><time>2026-04-18T07:16:11.978Z</time></trkpt><trkpt lat="43.9152041" lon="7.6197455"><ele>725.5</ele><time>2026-04-18T07:16:13.978Z</time></trkpt><trkpt lat="43.9151681" lon="7.6199012"><ele>725.0</ele><time>2026-04-18T07:16:15.978Z</time></trkpt><trkpt lat="43.9151475" lon="7.6199878"><ele>724.5</ele><time>2026-04-18T07:16:16.978Z</time></trkpt><trkpt lat="43.9151175" lon="7.6200739"><ele>724.0</ele><time>2026-04-18T07:16:17.978Z</time></trkpt><trkpt lat="43.9150873" lon="7.6201623"><ele>723.5</ele><time>2026-04-18T07:16:18.978Z</time></trkpt><trkpt lat="43.91506" lon="7.6202535"><ele>723.0</ele><time>2026-04-18T07:16:19.978Z</time></trkpt><trkpt lat="43.9150422" lon="7.6203579"><ele>719.5</ele><time>2026-04-18T07:16:20.978Z</time></trkpt><trkpt lat="43.915023" lon="7.6204596"><ele>716.0</ele><time>2026-04-18T07:16:21.977Z</time></trkpt><trkpt lat="43.9150087" lon="7.6205684"><ele>712.5</ele><time>2026-04-18T07:16:22.978Z</time></trkpt><trkpt lat="43.9149928" lon="7.6206831"><ele>709.0</ele><time>2026-04-18T07:16:23.978Z</time></trkpt><trkpt lat="43.9149739" lon="7.6207902"><ele>705.5</ele><time>2026-04-18T07:16:24.978Z</time></trkpt><trkpt lat="43.9149551" lon="7.6208904"><ele>702.0</ele><time>2026-04-18T07:16:25.978Z</time></trkpt><trkpt lat="43.9149307" lon="7.6209826"><ele>702.0</ele><time>2026-04-18T07:16:26.978Z</time></trkpt><trkpt lat="43.9149115" lon="7.6210709"><ele>702.0</ele><time>2026-04-18T07:16:27.978Z</time></trkpt><trkpt lat="43.9148965" lon="7.6211561"><ele>702.0</ele><time>2026-04-18T07:16:28.978Z</time></trkpt><trkpt lat="43.9148956" lon="7.6213199"><ele>702.0</ele><time>2026-04-18T07:16:30.978Z</time></trkpt><trkpt lat="43.9149779" lon="7.621452"><ele>702.0</ele><time>2026-04-18T07:16:32.978Z</time></trkpt><trkpt lat="43.9150222" lon="7.6215292"><ele>702.0</ele><time>2026-04-18T07:16:33.978Z</time></trkpt><trkpt lat="43.915074" lon="7.6216077"><ele>704.1666666666666</ele><time>2026-04-18T07:16:34.978Z</time></trkpt><trkpt lat="43.9151251" lon="7.6216853"><ele>706.3333333333334</ele><time>2026-04-18T07:16:35.978Z</time></trkpt><trkpt lat="43.9151789" lon="7.6217609"><ele>708.5</ele><time>2026-04-18T07:16:36.978Z</time></trkpt><trkpt lat="43.9152274" lon="7.6218262"><ele>710.6666666666667</ele><time>2026-04-18T07:16:37.978Z</time></trkpt><trkpt lat="43.9152889" lon="7.6218826"><ele>712.8333333333334</ele><time>2026-04-18T07:16:38.978Z</time></trkpt><trkpt lat="43.9153633" lon="7.6220265"><ele>715.0</ele><time>2026-04-18T07:16:40.978Z</time></trkpt><trkpt lat="43.9153789" lon="7.6222234"><ele>715.0</ele><time>2026-04-18T07:16:42.978Z</time></trkpt><trkpt lat="43.9153791" lon="7.6223538"><ele>715.0</ele><time>2026-04-18T07:16:43.978Z</time></trkpt><trkpt lat="43.91538" lon="7.6224923"><ele>715.0</ele><time>2026-04-18T07:16:44.978Z</time></trkpt><trkpt lat="43.9153893" lon="7.6226177"><ele>715.0</ele><time>2026-04-18T07:16:45.978Z</time></trkpt><trkpt lat="43.9153972" lon="7.6227403"><ele>715.0</ele><time>2026-04-18T07:16:46.978Z</time></trkpt><trkpt lat="43.9154015" lon="7.6228576"><ele>715.6666666666667</ele><time>2026-04-18T07:16:47.978Z</time></trkpt><trkpt lat="43.9153993" lon="7.6229686"><ele>716.3333333333334</ele><time>2026-04-18T07:16:48.978Z</time></trkpt><trkpt lat="43.9153954" lon="7.6230749"><ele>717.0</ele><time>2026-04-18T07:16:49.978Z</time></trkpt><trkpt lat="43.9153837" lon="7.6231848"><ele>717.6666666666666</ele><time>2026-04-18T07:16:50.978Z</time></trkpt><trkpt lat="43.9153596" lon="7.6232878"><ele>718.3333333333333</ele><time>2026-04-18T07:16:51.978Z</time></trkpt><trkpt lat="43.9153232" lon="7.6233845"><ele>719.0</ele><time>2026-04-18T07:16:52.978Z</time></trkpt><trkpt lat="43.9152819" lon="7.6234715"><ele>719.0</ele><time>2026-04-18T07:16:53.978Z</time></trkpt><trkpt lat="43.9152277" lon="7.6235438"><ele>719.0</ele><time>2026-04-18T07:16:54.978Z</time></trkpt><trkpt lat="43.915166" lon="7.6236156"><ele>719.0</ele><time>2026-04-18T07:16:55.978Z</time></trkpt><trkpt lat="43.9151103" lon="7.6236901"><ele>719.0</ele><time>2026-04-18T07:16:56.978Z</time></trkpt><trkpt lat="43.9150624" lon="7.6237823"><ele>719.0</ele><time>2026-04-18T07:16:57.978Z</time></trkpt><trkpt lat="43.9150271" lon="7.6238986"><ele>719.0</ele><time>2026-04-18T07:16:58.978Z</time></trkpt><trkpt lat="43.9149924" lon="7.6240128"><ele>714.0</ele><time>2026-04-18T07:16:59.978Z</time></trkpt><trkpt lat="43.914966" lon="7.6241315"><ele>709.0</ele><time>2026-04-18T07:17:00.978Z</time></trkpt><trkpt lat="43.9149453" lon="7.6242364"><ele>704.0</ele><time>2026-04-18T07:17:01.978Z</time></trkpt><trkpt lat="43.9149282" lon="7.6243478"><ele>699.0</ele><time>2026-04-18T07:17:02.978Z</time></trkpt><trkpt lat="43.9149164" lon="7.6244544"><ele>694.0</ele><time>2026-04-18T07:17:03.978Z</time></trkpt><trkpt lat="43.9149171" lon="7.6245615"><ele>689.0</ele><time>2026-04-18T07:17:04.978Z</time></trkpt><trkpt lat="43.9149255" lon="7.6246741"><ele>687.8000000000001</ele><time>2026-04-18T07:17:05.978Z</time></trkpt><trkpt lat="43.9149368" lon="7.624779"><ele>686.6</ele><time>2026-04-18T07:17:06.978Z</time></trkpt><trkpt lat="43.9149727" lon="7.6248955"><ele>685.4</ele><time>2026-04-18T07:17:07.978Z</time></trkpt><trkpt lat="43.9150213" lon="7.6250201"><ele>684.2</ele><time>2026-04-18T07:17:08.978Z</time></trkpt><trkpt lat="43.9150827" lon="7.6251399"><ele>683.0</ele><time>2026-04-18T07:17:09.978Z</time></trkpt><trkpt lat="43.9151589" lon="7.6252478"><ele>686.4</ele><time>2026-04-18T07:17:10.978Z</time></trkpt><trkpt lat="43.915222" lon="7.6253592"><ele>689.8</ele><time>2026-04-18T07:17:11.978Z</time></trkpt><trkpt lat="43.9152727" lon="7.6254648"><ele>693.2</ele><time>2026-04-18T07:17:12.978Z</time></trkpt><trkpt lat="43.9153191" lon="7.6255761"><ele>696.6</ele><time>2026-04-18T07:17:13.978Z</time></trkpt><trkpt lat="43.9153612" lon="7.6256927"><ele>700.0</ele><time>2026-04-18T07:17:14.978Z</time></trkpt><trkpt lat="43.9154046" lon="7.6258183"><ele>700.0</ele><time>2026-04-18T07:17:15.978Z</time></trkpt><trkpt lat="43.9154407" lon="7.6259626"><ele>700.0</ele><time>2026-04-18T07:17:16.978Z</time></trkpt><trkpt lat="43.9154767" lon="7.6261007"><ele>700.0</ele><time>2026-04-18T07:17:17.978Z</time></trkpt><trkpt lat="43.915512" lon="7.626232"><ele>700.0</ele><time>2026-04-18T07:17:18.978Z</time></trkpt><trkpt lat="43.915546" lon="7.6263634"><ele>700.0</ele><time>2026-04-18T07:17:19.978Z</time></trkpt><trkpt lat="43.9155799" lon="7.6264879"><ele>697.8</ele><time>2026-04-18T07:17:20.978Z</time></trkpt><trkpt lat="43.9156226" lon="7.6266099"><ele>695.6</ele><time>2026-04-18T07:17:21.978Z</time></trkpt><trkpt lat="43.9156503" lon="7.6267524"><ele>693.4000000000001</ele><time>2026-04-18T07:17:22.978Z</time></trkpt><trkpt lat="43.9156815" lon="7.6268968"><ele>691.2</ele><time>2026-04-18T07:17:23.978Z</time></trkpt><trkpt lat="43.9157135" lon="7.6270459"><ele>689.0</ele><time>2026-04-18T07:17:24.978Z</time></trkpt><trkpt lat="43.9157402" lon="7.62719"><ele>689.1666666666666</ele><time>2026-04-18T07:17:25.978Z</time></trkpt><trkpt lat="43.9157686" lon="7.6273299"><ele>689.3333333333333</ele><time>2026-04-18T07:17:26.978Z</time></trkpt><trkpt lat="43.9157953" lon="7.6274521"><ele>689.5</ele><time>2026-04-18T07:17:27.978Z</time></trkpt><trkpt lat="43.915815" lon="7.6275635"><ele>689.6666666666666</ele><time>2026-04-18T07:17:28.978Z</time></trkpt><trkpt lat="43.915819" lon="7.6276668"><ele>689.8333333333334</ele><time>2026-04-18T07:17:29.978Z</time></trkpt><trkpt lat="43.9158198" lon="7.6277635"><ele>690.0</ele><time>2026-04-18T07:17:30.978Z</time></trkpt><trkpt lat="43.9157967" lon="7.627863"><ele>690.0</ele><time>2026-04-18T07:17:31.978Z</time></trkpt><trkpt lat="43.9157563" lon="7.6279541"><ele>690.0</ele><time>2026-04-18T07:17:32.978Z</time></trkpt><trkpt lat="43.9157115" lon="7.6280503"><ele>690.0</ele><time>2026-04-18T07:17:33.978Z</time></trkpt><trkpt lat="43.9156678" lon="7.6281366"><ele>690.0</ele><time>2026-04-18T07:17:34.978Z</time></trkpt><trkpt lat="43.9156283" lon="7.6282256"><ele>690.0</ele><time>2026-04-18T07:17:35.978Z</time></trkpt><trkpt lat="43.9155974" lon="7.6283283"><ele>690.0</ele><time>2026-04-18T07:17:36.978Z</time></trkpt><trkpt lat="43.915568" lon="7.6284347"><ele>690.0</ele><time>2026-04-18T07:17:37.978Z</time></trkpt><trkpt lat="43.9155342" lon="7.6285495"><ele>690.0</ele><time>2026-04-18T07:17:38.978Z</time></trkpt><trkpt lat="43.9154996" lon="7.6286571"><ele>690.0</ele><time>2026-04-18T07:17:39.978Z</time></trkpt><trkpt lat="43.9154635" lon="7.6287603"><ele>690.0</ele><time>2026-04-18T07:17:40.978Z</time></trkpt><trkpt lat="43.9154333" lon="7.6288666"><ele>690.0</ele><time>2026-04-18T07:17:41.978Z</time></trkpt><trkpt lat="43.9154032" lon="7.6289701"><ele>690.0</ele><time>2026-04-18T07:17:42.978Z</time></trkpt><trkpt lat="43.9153712" lon="7.6290602"><ele>692.6666666666666</ele><time>2026-04-18T07:17:43.977Z</time></trkpt><trkpt lat="43.9153205" lon="7.6291521"><ele>695.3333333333334</ele><time>2026-04-18T07:17:44.978Z</time></trkpt><trkpt lat="43.9152757" lon="7.6292273"><ele>698.0</ele><time>2026-04-18T07:17:45.978Z</time></trkpt><trkpt lat="43.9151797" lon="7.6292548"><ele>700.6666666666667</ele><time>2026-04-18T07:17:46.978Z</time></trkpt><trkpt lat="43.9151027" lon="7.6292632"><ele>703.3333333333334</ele><time>2026-04-18T07:17:47.978Z</time></trkpt><trkpt lat="43.9149992" lon="7.629332"><ele>706.0</ele><time>2026-04-18T07:17:49.978Z</time></trkpt><trkpt lat="43.9149528" lon="7.629498"><ele>699.4</ele><time>2026-04-18T07:17:51.978Z</time></trkpt><trkpt lat="43.9149532" lon="7.6296146"><ele>692.8</ele><time>2026-04-18T07:17:52.978Z</time></trkpt><trkpt lat="43.9149776" lon="7.629742"><ele>686.1999999999999</ele><time>2026-04-18T07:17:53.978Z</time></trkpt><trkpt lat="43.9150144" lon="7.6298752"><ele>679.5999999999999</ele><time>2026-04-18T07:17:54.978Z</time></trkpt><trkpt lat="43.915052" lon="7.6300006"><ele>673.0</ele><time>2026-04-18T07:17:55.978Z</time></trkpt><trkpt lat="43.9150547" lon="7.6301347"><ele>673.0</ele><time>2026-04-18T07:17:56.978Z</time></trkpt><trkpt lat="43.9150652" lon="7.6302642"><ele>673.0</ele><time>2026-04-18T07:17:57.978Z</time></trkpt><trkpt lat="43.9150886" lon="7.6303923"><ele>673.0</ele><time>2026-04-18T07:17:58.978Z</time></trkpt><trkpt lat="43.9151234" lon="7.6305097"><ele>673.0</ele><time>2026-04-18T07:17:59.978Z</time></trkpt><trkpt lat="43.9151489" lon="7.6306233"><ele>673.0</ele><time>2026-04-18T07:18:00.978Z</time></trkpt><trkpt lat="43.9151678" lon="7.6307457"><ele>675.5</ele><time>2026-04-18T07:18:01.978Z</time></trkpt><trkpt lat="43.9151918" lon="7.6308622"><ele>678.0</ele><time>2026-04-18T07:18:02.978Z</time></trkpt><trkpt lat="43.9152127" lon="7.6309653"><ele>680.5</ele><time>2026-04-18T07:18:03.978Z</time></trkpt><trkpt lat="43.9152242" lon="7.6310623"><ele>683.0</ele><time>2026-04-18T07:18:04.978Z</time></trkpt><trkpt lat="43.9152188" lon="7.63115"><ele>685.5</ele><time>2026-04-18T07:18:05.978Z</time></trkpt><trkpt lat="43.9151278" lon="7.6312883"><ele>688.0</ele><time>2026-04-18T07:18:07.978Z</time></trkpt><trkpt lat="43.9150554" lon="7.6313423"><ele>688.0</ele><time>2026-04-18T07:18:08.978Z</time></trkpt><trkpt lat="43.9149763" lon="7.6313803"><ele>688.0</ele><time>2026-04-18T07:18:09.978Z</time></trkpt><trkpt lat="43.9149101" lon="7.6314057"><ele>688.0</ele><time>2026-04-18T07:18:10.978Z</time></trkpt><trkpt lat="43.9148168" lon="7.631504"><ele>688.0</ele><time>2026-04-18T07:18:12.977Z</time></trkpt><trkpt lat="43.9147854" lon="7.6315807"><ele>688.0</ele><time>2026-04-18T07:18:13.978Z</time></trkpt><trkpt lat="43.9147685" lon="7.6316857"><ele>688.0</ele><time>2026-04-18T07:18:14.978Z</time></trkpt><trkpt lat="43.9147569" lon="7.6317907"><ele>688.0</ele><time>2026-04-18T07:18:15.978Z</time></trkpt><trkpt lat="43.9147408" lon="7.6318901"><ele>688.0</ele><time>2026-04-18T07:18:16.978Z</time></trkpt><trkpt lat="43.9147216" lon="7.6319901"><ele>688.0</ele><time>2026-04-18T07:18:17.978Z</time></trkpt><trkpt lat="43.9146991" lon="7.6321"><ele>688.0</ele><time>2026-04-18T07:18:18.978Z</time></trkpt><trkpt lat="43.9146751" lon="7.6322238"><ele>688.0</ele><time>2026-04-18T07:18:19.977Z</time></trkpt><trkpt lat="43.9146331" lon="7.6323586"><ele>688.0</ele><time>2026-04-18T07:18:20.978Z</time></trkpt><trkpt lat="43.9145843" lon="7.6324712"><ele>688.1666666666667</ele><time>2026-04-18T07:18:21.978Z</time></trkpt><trkpt lat="43.9145348" lon="7.632562"><ele>688.3333333333334</ele><time>2026-04-18T07:18:22.978Z</time></trkpt><trkpt lat="43.9144791" lon="7.6326413"><ele>688.5</ele><time>2026-04-18T07:18:23.978Z</time></trkpt><trkpt lat="43.9144207" lon="7.6327189"><ele>688.6666666666666</ele><time>2026-04-18T07:18:24.978Z</time></trkpt><trkpt lat="43.9143496" lon="7.6327823"><ele>688.8333333333333</ele><time>2026-04-18T07:18:25.977Z</time></trkpt><trkpt lat="43.9142725" lon="7.6328407"><ele>689.0</ele><time>2026-04-18T07:18:26.978Z</time></trkpt><trkpt lat="43.9141883" lon="7.6329052"><ele>689.0</ele><time>2026-04-18T07:18:27.978Z</time></trkpt><trkpt lat="43.9140969" lon="7.6329721"><ele>689.0</ele><time>2026-04-18T07:18:28.978Z</time></trkpt><trkpt lat="43.9139977" lon="7.6330252"><ele>689.0</ele><time>2026-04-18T07:18:29.978Z</time></trkpt><trkpt lat="43.913907" lon="7.6330781"><ele>689.0</ele><time>2026-04-18T07:18:30.978Z</time></trkpt><trkpt lat="43.9138245" lon="7.633127"><ele>689.0</ele><time>2026-04-18T07:18:31.978Z</time></trkpt><trkpt lat="43.9137523" lon="7.6331848"><ele>689.0</ele><time>2026-04-18T07:18:32.978Z</time></trkpt><trkpt lat="43.9136864" lon="7.6332401"><ele>689.0</ele><time>2026-04-18T07:18:33.978Z</time></trkpt><trkpt lat="43.9136305" lon="7.6332937"><ele>689.0</ele><time>2026-04-18T07:18:34.978Z</time></trkpt><trkpt lat="43.9135946" lon="7.633369"><ele>689.0</ele><time>2026-04-18T07:18:35.978Z</time></trkpt><trkpt lat="43.9135622" lon="7.6334534"><ele>689.0</ele><time>2026-04-18T07:18:36.977Z</time></trkpt><trkpt lat="43.9135342" lon="7.6335492"><ele>689.0</ele><time>2026-04-18T07:18:37.978Z</time></trkpt><trkpt lat="43.9135018" lon="7.6336535"><ele>689.0</ele><time>2026-04-18T07:18:38.978Z</time></trkpt><trkpt lat="43.913471" lon="7.6337542"><ele>687.6666666666666</ele><time>2026-04-18T07:18:39.978Z</time></trkpt><trkpt lat="43.9134482" lon="7.6338489"><ele>686.3333333333333</ele><time>2026-04-18T07:18:40.978Z</time></trkpt><trkpt lat="43.9134395" lon="7.6339371"><ele>685.0</ele><time>2026-04-18T07:18:41.978Z</time></trkpt><trkpt lat="43.9134492" lon="7.6340292"><ele>683.6666666666666</ele><time>2026-04-18T07:18:42.978Z</time></trkpt><trkpt lat="43.9135178" lon="7.6341548"><ele>682.3333333333334</ele><time>2026-04-18T07:18:44.978Z</time></trkpt><trkpt lat="43.9135675" lon="7.6342149"><ele>681.0</ele><time>2026-04-18T07:18:45.978Z</time></trkpt><trkpt lat="43.9136609" lon="7.6342002"><ele>681.0</ele><time>2026-04-18T07:18:46.978Z</time></trkpt><trkpt lat="43.9137653" lon="7.6341743"><ele>681.0</ele><time>2026-04-18T07:18:47.978Z</time></trkpt><trkpt lat="43.9138638" lon="7.6341568"><ele>681.0</ele><time>2026-04-18T07:18:48.978Z</time></trkpt><trkpt lat="43.9139541" lon="7.634145"><ele>681.0</ele><time>2026-04-18T07:18:49.978Z</time></trkpt><trkpt lat="43.914051" lon="7.6341333"><ele>681.0</ele><time>2026-04-18T07:18:50.978Z</time></trkpt><trkpt lat="43.9141463" lon="7.6341338"><ele>681.0</ele><time>2026-04-18T07:18:51.978Z</time></trkpt><trkpt lat="43.9142367" lon="7.6341352"><ele>681.0</ele><time>2026-04-18T07:18:52.978Z</time></trkpt><trkpt lat="43.9143323" lon="7.6341325"><ele>681.0</ele><time>2026-04-18T07:18:53.977Z</time></trkpt><trkpt lat="43.9144221" lon="7.6341367"><ele>681.0</ele><time>2026-04-18T07:18:54.978Z</time></trkpt><trkpt lat="43.9144967" lon="7.6341451"><ele>681.0</ele><time>2026-04-18T07:18:55.978Z</time></trkpt><trkpt lat="43.9145745" lon="7.6341629"><ele>681.0</ele><time>2026-04-18T07:18:56.978Z</time></trkpt><trkpt lat="43.9146669" lon="7.6341788"><ele>681.0</ele><time>2026-04-18T07:18:57.977Z</time></trkpt><trkpt lat="43.914753" lon="7.6341904"><ele>681.0</ele><time>2026-04-18T07:18:58.978Z</time></trkpt><trkpt lat="43.9148399" lon="7.6342013"><ele>681.0</ele><time>2026-04-18T07:18:59.978Z</time></trkpt><trkpt lat="43.9149222" lon="7.6341994"><ele>681.0</ele><time>2026-04-18T07:19:00.978Z</time></trkpt><trkpt lat="43.9150007" lon="7.6342125"><ele>681.0</ele><time>2026-04-18T07:19:01.978Z</time></trkpt><trkpt lat="43.9150701" lon="7.6342306"><ele>681.0</ele><time>2026-04-18T07:19:02.978Z</time></trkpt><trkpt lat="43.9151307" lon="7.6342715"><ele>683.1666666666666</ele><time>2026-04-18T07:19:03.978Z</time></trkpt><trkpt lat="43.9151843" lon="7.6343205"><ele>685.3333333333334</ele><time>2026-04-18T07:19:04.978Z</time></trkpt><trkpt lat="43.9152428" lon="7.6343805"><ele>687.5</ele><time>2026-04-18T07:19:05.978Z</time></trkpt><trkpt lat="43.9152994" lon="7.6344451"><ele>689.6666666666667</ele><time>2026-04-18T07:19:06.978Z</time></trkpt><trkpt lat="43.9153525" lon="7.6345219"><ele>691.8333333333334</ele><time>2026-04-18T07:19:07.978Z</time></trkpt><trkpt lat="43.9154096" lon="7.6346181"><ele>694.0</ele><time>2026-04-18T07:19:08.978Z</time></trkpt><trkpt lat="43.9154653" lon="7.6347173"><ele>687.5</ele><time>2026-04-18T07:19:09.978Z</time></trkpt><trkpt lat="43.9155271" lon="7.6348049"><ele>681.0</ele><time>2026-04-18T07:19:10.978Z</time></trkpt><trkpt lat="43.9155881" lon="7.6348885"><ele>674.5</ele><time>2026-04-18T07:19:11.978Z</time></trkpt><trkpt lat="43.9156521" lon="7.6349649"><ele>668.0</ele><time>2026-04-18T07:19:12.978Z</time></trkpt><trkpt lat="43.9157188" lon="7.6350331"><ele>661.5</ele><time>2026-04-18T07:19:13.978Z</time></trkpt><trkpt lat="43.9157818" lon="7.6351028"><ele>655.0</ele><time>2026-04-18T07:19:14.978Z</time></trkpt><trkpt lat="43.9158463" lon="7.635172"><ele>655.8333333333334</ele><time>2026-04-18T07:19:15.978Z</time></trkpt><trkpt lat="43.9159195" lon="7.6352342"><ele>656.6666666666667</ele><time>2026-04-18T07:19:16.978Z</time></trkpt><trkpt lat="43.9159878" lon="7.6352949"><ele>657.5</ele><time>2026-04-18T07:19:17.978Z</time></trkpt><trkpt lat="43.916046" lon="7.6353424"><ele>658.3333333333334</ele><time>2026-04-18T07:19:18.978Z</time></trkpt><trkpt lat="43.9161062" lon="7.6353685"><ele>659.1666666666666</ele><time>2026-04-18T07:19:19.977Z</time></trkpt><trkpt lat="43.9162251" lon="7.6353331"><ele>660.0</ele><time>2026-04-18T07:19:21.978Z</time></trkpt><trkpt lat="43.9162942" lon="7.6352818"><ele>660.0</ele><time>2026-04-18T07:19:22.978Z</time></trkpt><trkpt lat="43.9163694" lon="7.6352262"><ele>660.0</ele><time>2026-04-18T07:19:23.978Z</time></trkpt><trkpt lat="43.9164497" lon="7.6351732"><ele>660.0</ele><time>2026-04-18T07:19:24.978Z</time></trkpt><trkpt lat="43.9165278" lon="7.6351227"><ele>660.0</ele><time>2026-04-18T07:19:25.978Z</time></trkpt><trkpt lat="43.9166059" lon="7.6350648"><ele>660.0</ele><time>2026-04-18T07:19:26.978Z</time></trkpt><trkpt lat="43.9166704" lon="7.6350073"><ele>660.0</ele><time>2026-04-18T07:19:27.977Z</time></trkpt><trkpt lat="43.9167275" lon="7.6349509"><ele>662.6666666666666</ele><time>2026-04-18T07:19:28.978Z</time></trkpt><trkpt lat="43.9168397" lon="7.6348933"><ele>665.3333333333334</ele><time>2026-04-18T07:19:30.978Z</time></trkpt><trkpt lat="43.9169095" lon="7.6348991"><ele>668.0</ele><time>2026-04-18T07:19:31.978Z</time></trkpt><trkpt lat="43.9169898" lon="7.6349364"><ele>670.6666666666667</ele><time>2026-04-18T07:19:32.978Z</time></trkpt><trkpt lat="43.9170495" lon="7.6349802"><ele>673.3333333333334</ele><time>2026-04-18T07:19:33.978Z</time></trkpt><trkpt lat="43.9171007" lon="7.6350416"><ele>676.0</ele><time>2026-04-18T07:19:34.978Z</time></trkpt><trkpt lat="43.917153" lon="7.6351142"><ele>676.0</ele><time>2026-04-18T07:19:35.978Z</time></trkpt><trkpt lat="43.9172061" lon="7.6351935"><ele>676.0</ele><time>2026-04-18T07:19:36.978Z</time></trkpt><trkpt lat="43.9172564" lon="7.6352961"><ele>676.0</ele><time>2026-04-18T07:19:37.978Z</time></trkpt><trkpt lat="43.9173065" lon="7.6353887"><ele>676.0</ele><time>2026-04-18T07:19:38.978Z</time></trkpt><trkpt lat="43.9173521" lon="7.6354844"><ele>676.0</ele><time>2026-04-18T07:19:39.978Z</time></trkpt><trkpt lat="43.9173956" lon="7.6355856"><ele>676.0</ele><time>2026-04-18T07:19:40.978Z</time></trkpt><trkpt lat="43.9174323" lon="7.6356923"><ele>673.0</ele><time>2026-04-18T07:19:41.978Z</time></trkpt><trkpt lat="43.9174791" lon="7.6357694"><ele>670.0</ele><time>2026-04-18T07:19:42.978Z</time></trkpt><trkpt lat="43.9175227" lon="7.6358414"><ele>667.0</ele><time>2026-04-18T07:19:43.978Z</time></trkpt><trkpt lat="43.9175998" lon="7.6358739"><ele>664.0</ele><time>2026-04-18T07:19:44.977Z</time></trkpt><trkpt lat="43.9176699" lon="7.6359166"><ele>661.0</ele><time>2026-04-18T07:19:45.978Z</time></trkpt><trkpt lat="43.9177467" lon="7.6359539"><ele>658.0</ele><time>2026-04-18T07:19:46.978Z</time></trkpt><trkpt lat="43.9178256" lon="7.6360125"><ele>658.0</ele><time>2026-04-18T07:19:47.978Z</time></trkpt><trkpt lat="43.9178937" lon="7.6360723"><ele>658.0</ele><time>2026-04-18T07:19:48.978Z</time></trkpt><trkpt lat="43.9179619" lon="7.636125"><ele>658.0</ele><time>2026-04-18T07:19:49.978Z</time></trkpt><trkpt lat="43.918024" lon="7.6361917"><ele>658.0</ele><time>2026-04-18T07:19:50.978Z</time></trkpt><trkpt lat="43.9180775" lon="7.6362735"><ele>658.0</ele><time>2026-04-18T07:19:51.978Z</time></trkpt><trkpt lat="43.918125" lon="7.6363583"><ele>658.0</ele><time>2026-04-18T07:19:52.978Z</time></trkpt><trkpt lat="43.9181839" lon="7.6364314"><ele>652.1666666666667</ele><time>2026-04-18T07:19:53.978Z</time></trkpt><trkpt lat="43.9182433" lon="7.6365041"><ele>646.3333333333334</ele><time>2026-04-18T07:19:54.977Z</time></trkpt><trkpt lat="43.9183048" lon="7.636579"><ele>640.5</ele><time>2026-04-18T07:19:55.978Z</time></trkpt><trkpt lat="43.9183781" lon="7.6366589"><ele>634.6666666666666</ele><time>2026-04-18T07:19:56.978Z</time></trkpt><trkpt lat="43.9184588" lon="7.6367318"><ele>628.8333333333333</ele><time>2026-04-18T07:19:57.978Z</time></trkpt><trkpt lat="43.9185316" lon="7.6368092"><ele>623.0</ele><time>2026-04-18T07:19:58.978Z</time></trkpt><trkpt lat="43.9186052" lon="7.6368906"><ele>621.1666666666666</ele><time>2026-04-18T07:19:59.978Z</time></trkpt><trkpt lat="43.9186809" lon="7.6369678"><ele>619.3333333333333</ele><time>2026-04-18T07:20:00.978Z</time></trkpt><trkpt lat="43.9187476" lon="7.6370399"><ele>617.5</ele><time>2026-04-18T07:20:01.978Z</time></trkpt><trkpt lat="43.9188075" lon="7.6371072"><ele>615.6666666666666</ele><time>2026-04-18T07:20:02.978Z</time></trkpt><trkpt lat="43.9188747" lon="7.6371554"><ele>613.8333333333334</ele><time>2026-04-18T07:20:03.978Z</time></trkpt><trkpt lat="43.9189465" lon="7.637189"><ele>612.0</ele><time>2026-04-18T07:20:04.978Z</time></trkpt><trkpt lat="43.9190616" lon="7.6372131"><ele>608.4</ele><time>2026-04-18T07:20:06.978Z</time></trkpt><trkpt lat="43.9191778" lon="7.637155"><ele>604.8000000000001</ele><time>2026-04-18T07:20:08.977Z</time></trkpt><trkpt lat="43.9192316" lon="7.6370975"><ele>601.2</ele><time>2026-04-18T07:20:09.978Z</time></trkpt><trkpt lat="43.9192859" lon="7.6369397"><ele>597.6</ele><time>2026-04-18T07:20:11.978Z</time></trkpt><trkpt lat="43.9192908" lon="7.6368189"><ele>594.0</ele><time>2026-04-18T07:20:12.978Z</time></trkpt><trkpt lat="43.9193086" lon="7.6367108"><ele>589.6666666666666</ele><time>2026-04-18T07:20:13.978Z</time></trkpt><trkpt lat="43.919331" lon="7.6365985"><ele>585.3333333333334</ele><time>2026-04-18T07:20:14.978Z</time></trkpt><trkpt lat="43.919357" lon="7.6364956"><ele>581.0</ele><time>2026-04-18T07:20:15.978Z</time></trkpt><trkpt lat="43.9193797" lon="7.6363945"><ele>576.6666666666667</ele><time>2026-04-18T07:20:16.977Z</time></trkpt><trkpt lat="43.9194026" lon="7.6362978"><ele>572.3333333333334</ele><time>2026-04-18T07:20:17.978Z</time></trkpt><trkpt lat="43.919404" lon="7.6361901"><ele>568.0</ele><time>2026-04-18T07:20:18.978Z</time></trkpt><trkpt lat="43.9193974" lon="7.6360716"><ele>568.0</ele><time>2026-04-18T07:20:19.978Z</time></trkpt><trkpt lat="43.9193932" lon="7.6359417"><ele>568.0</ele><time>2026-04-18T07:20:20.978Z</time></trkpt><trkpt lat="43.9193815" lon="7.6358177"><ele>568.0</ele><time>2026-04-18T07:20:21.978Z</time></trkpt><trkpt lat="43.9193704" lon="7.6357075"><ele>568.0</ele><time>2026-04-18T07:20:22.978Z</time></trkpt><trkpt lat="43.9193643" lon="7.6355938"><ele>568.0</ele><time>2026-04-18T07:20:23.978Z</time></trkpt><trkpt lat="43.9193692" lon="7.6354807"><ele>568.0</ele><time>2026-04-18T07:20:24.978Z</time></trkpt><trkpt lat="43.9193695" lon="7.6353587"><ele>572.1666666666667</ele><time>2026-04-18T07:20:25.978Z</time></trkpt><trkpt lat="43.9193746" lon="7.6352273"><ele>576.3333333333334</ele><time>2026-04-18T07:20:26.978Z</time></trkpt><trkpt lat="43.9193789" lon="7.6351041"><ele>580.5</ele><time>2026-04-18T07:20:27.978Z</time></trkpt><trkpt lat="43.9193993" lon="7.6349853"><ele>584.6666666666666</ele><time>2026-04-18T07:20:28.977Z</time></trkpt><trkpt lat="43.919413" lon="7.6348717"><ele>588.8333333333333</ele><time>2026-04-18T07:20:29.977Z</time></trkpt><trkpt lat="43.9194331" lon="7.6347546"><ele>593.0</ele><time>2026-04-18T07:20:32.978Z</time></trkpt><trkpt lat="43.9195314" lon="7.6347553"><ele>593.0</ele><time>2026-04-18T07:20:34.978Z</time></trkpt><trkpt lat="43.9196428" lon="7.6347994"><ele>593.0</ele><time>2026-04-18T07:20:36.978Z</time></trkpt><trkpt lat="43.9197139" lon="7.6348407"><ele>593.0</ele><time>2026-04-18T07:20:37.978Z</time></trkpt><trkpt lat="43.9197958" lon="7.6348754"><ele>593.0</ele><time>2026-04-18T07:20:38.978Z</time></trkpt><trkpt lat="43.9198771" lon="7.634928"><ele>593.0</ele><time>2026-04-18T07:20:39.978Z</time></trkpt><trkpt lat="43.9199573" lon="7.6349561"><ele>593.0</ele><time>2026-04-18T07:20:40.978Z</time></trkpt><trkpt lat="43.9200441" lon="7.6349876"><ele>593.0</ele><time>2026-04-18T07:20:41.978Z</time></trkpt><trkpt lat="43.9201328" lon="7.6350248"><ele>593.0</ele><time>2026-04-18T07:20:42.978Z</time></trkpt><trkpt lat="43.920222" lon="7.6350659"><ele>593.0</ele><time>2026-04-18T07:20:43.978Z</time></trkpt><trkpt lat="43.9203117" lon="7.6350977"><ele>593.0</ele><time>2026-04-18T07:20:44.978Z</time></trkpt><trkpt lat="43.9203954" lon="7.6351121"><ele>590.8333333333333</ele><time>2026-04-18T07:20:45.978Z</time></trkpt><trkpt lat="43.9204706" lon="7.6351121"><ele>588.6666666666666</ele><time>2026-04-18T07:20:46.977Z</time></trkpt><trkpt lat="43.9205425" lon="7.6351104"><ele>586.5</ele><time>2026-04-18T07:20:47.978Z</time></trkpt><trkpt lat="43.9206181" lon="7.6350861"><ele>584.3333333333334</ele><time>2026-04-18T07:20:48.978Z</time></trkpt><trkpt lat="43.9206955" lon="7.6350259"><ele>582.1666666666667</ele><time>2026-04-18T07:20:49.978Z</time></trkpt><trkpt lat="43.9207896" lon="7.6349657"><ele>580.0</ele><time>2026-04-18T07:20:50.978Z</time></trkpt><trkpt lat="43.9208803" lon="7.6349122"><ele>576.8</ele><time>2026-04-18T07:20:51.978Z</time></trkpt><trkpt lat="43.9209707" lon="7.6348492"><ele>573.6</ele><time>2026-04-18T07:20:52.978Z</time></trkpt><trkpt lat="43.9210589" lon="7.6347904"><ele>570.4</ele><time>2026-04-18T07:20:53.978Z</time></trkpt><trkpt lat="43.921147" lon="7.6347366"><ele>567.2</ele><time>2026-04-18T07:20:54.978Z</time></trkpt><trkpt lat="43.9212312" lon="7.6346886"><ele>564.0</ele><time>2026-04-18T07:20:55.978Z</time></trkpt><trkpt lat="43.9213151" lon="7.6346269"><ele>564.0</ele><time>2026-04-18T07:20:56.978Z</time></trkpt><trkpt lat="43.9214042" lon="7.634571"><ele>564.0</ele><time>2026-04-18T07:20:57.978Z</time></trkpt><trkpt lat="43.9214946" lon="7.6345354"><ele>564.0</ele><time>2026-04-18T07:20:58.978Z</time></trkpt><trkpt lat="43.9215835" lon="7.6345036"><ele>564.0</ele><time>2026-04-18T07:20:59.978Z</time></trkpt><trkpt lat="43.9216677" lon="7.6344748"><ele>564.0</ele><time>2026-04-18T07:21:00.978Z</time></trkpt><trkpt lat="43.9217498" lon="7.6344599"><ele>562.8333333333334</ele><time>2026-04-18T07:21:01.978Z</time></trkpt><trkpt lat="43.9218356" lon="7.6344488"><ele>561.6666666666666</ele><time>2026-04-18T07:21:02.978Z</time></trkpt><trkpt lat="43.9219203" lon="7.6344603"><ele>560.5</ele><time>2026-04-18T07:21:03.978Z</time></trkpt><trkpt lat="43.9219887" lon="7.6344646"><ele>559.3333333333333</ele><time>2026-04-18T07:21:04.978Z</time></trkpt><trkpt lat="43.9220924" lon="7.6344692"><ele>558.1666666666666</ele><time>2026-04-18T07:21:06.978Z</time></trkpt><trkpt lat="43.9221646" lon="7.634395"><ele>557.0</ele><time>2026-04-18T07:21:08.977Z</time></trkpt><trkpt lat="43.9221627" lon="7.6342593"><ele>557.0</ele><time>2026-04-18T07:21:10.978Z</time></trkpt><trkpt lat="43.9221352" lon="7.6341719"><ele>557.0</ele><time>2026-04-18T07:21:11.978Z</time></trkpt><trkpt lat="43.9221019" lon="7.6340739"><ele>557.0</ele><time>2026-04-18T07:21:12.977Z</time></trkpt><trkpt lat="43.9220746" lon="7.6339815"><ele>557.0</ele><time>2026-04-18T07:21:13.978Z</time></trkpt><trkpt lat="43.9220682" lon="7.6338801"><ele>557.0</ele><time>2026-04-18T07:21:14.978Z</time></trkpt><trkpt lat="43.9220688" lon="7.6337644"><ele>557.0</ele><time>2026-04-18T07:21:15.978Z</time></trkpt><trkpt lat="43.9220702" lon="7.6336489"><ele>559.0</ele><time>2026-04-18T07:21:16.977Z</time></trkpt><trkpt lat="43.9220716" lon="7.6335421"><ele>561.0</ele><time>2026-04-18T07:21:17.978Z</time></trkpt><trkpt lat="43.9220783" lon="7.6334417"><ele>563.0</ele><time>2026-04-18T07:21:18.978Z</time></trkpt><trkpt lat="43.9221046" lon="7.6332722"><ele>565.0</ele><time>2026-04-18T07:21:20.978Z</time></trkpt><trkpt lat="43.9221326" lon="7.6331875"><ele>567.0</ele><time>2026-04-18T07:21:21.978Z</time></trkpt><trkpt lat="43.9221892" lon="7.6331284"><ele>569.0</ele><time>2026-04-18T07:21:22.978Z</time></trkpt><trkpt lat="43.9222394" lon="7.633074"><ele>569.0</ele><time>2026-04-18T07:21:23.978Z</time></trkpt><trkpt lat="43.9223202" lon="7.6330438"><ele>569.0</ele><time>2026-04-18T07:21:24.978Z</time></trkpt><trkpt lat="43.9223892" lon="7.6330032"><ele>569.0</ele><time>2026-04-18T07:21:25.977Z</time></trkpt><trkpt lat="43.9224655" lon="7.6329698"><ele>569.0</ele><time>2026-04-18T07:21:26.978Z</time></trkpt><trkpt lat="43.9225403" lon="7.6329474"><ele>569.0</ele><time>2026-04-18T07:21:27.978Z</time></trkpt><trkpt lat="43.9226119" lon="7.6329185"><ele>569.0</ele><time>2026-04-18T07:21:28.978Z</time></trkpt><trkpt lat="43.9226807" lon="7.6328869"><ele>567.5714285714287</ele><time>2026-04-18T07:21:29.978Z</time></trkpt><trkpt lat="43.9227177" lon="7.6328093"><ele>566.1428571428571</ele><time>2026-04-18T07:21:30.977Z</time></trkpt><trkpt lat="43.9227569" lon="7.6327269"><ele>564.7142857142858</ele><time>2026-04-18T07:21:31.978Z</time></trkpt><trkpt lat="43.9227978" lon="7.6326327"><ele>563.2857142857143</ele><time>2026-04-18T07:21:32.978Z</time></trkpt><trkpt lat="43.922829" lon="7.63254"><ele>561.8571428571429</ele><time>2026-04-18T07:21:33.978Z</time></trkpt><trkpt lat="43.9228358" lon="7.6324466"><ele>560.4285714285714</ele><time>2026-04-18T07:21:34.978Z</time></trkpt><trkpt lat="43.9228822" lon="7.6323472"><ele>559.0</ele><time>2026-04-18T07:21:35.978Z</time></trkpt><trkpt lat="43.9229274" lon="7.6322658"><ele>559.0</ele><time>2026-04-18T07:21:36.978Z</time></trkpt><trkpt lat="43.9229694" lon="7.632188"><ele>559.0</ele><time>2026-04-18T07:21:37.978Z</time></trkpt><trkpt lat="43.9230382" lon="7.6321104"><ele>559.0</ele><time>2026-04-18T07:21:38.978Z</time></trkpt><trkpt lat="43.9231115" lon="7.6320469"><ele>559.0</ele><time>2026-04-18T07:21:39.978Z</time></trkpt><trkpt lat="43.9231758" lon="7.6319756"><ele>559.0</ele><time>2026-04-18T07:21:40.978Z</time></trkpt><trkpt lat="43.9232292" lon="7.6318935"><ele>559.0</ele><time>2026-04-18T07:21:41.978Z</time></trkpt><trkpt lat="43.9232806" lon="7.6317779"><ele>561.4</ele><time>2026-04-18T07:21:42.978Z</time></trkpt><trkpt lat="43.9233386" lon="7.6316577"><ele>563.8</ele><time>2026-04-18T07:21:43.978Z</time></trkpt><trkpt lat="43.9233877" lon="7.6315498"><ele>566.2</ele><time>2026-04-18T07:21:44.978Z</time></trkpt><trkpt lat="43.9234189" lon="7.6314516"><ele>568.6</ele><time>2026-04-18T07:21:45.978Z</time></trkpt><trkpt lat="43.923439" lon="7.6313632"><ele>571.0</ele><time>2026-04-18T07:21:46.977Z</time></trkpt><trkpt lat="43.923507" lon="7.6311979"><ele>567.8333333333334</ele><time>2026-04-18T07:21:48.978Z</time></trkpt><trkpt lat="43.9235356" lon="7.6310971"><ele>564.6666666666667</ele><time>2026-04-18T07:21:49.978Z</time></trkpt><trkpt lat="43.9235475" lon="7.6309973"><ele>561.5</ele><time>2026-04-18T07:21:50.978Z</time></trkpt><trkpt lat="43.9235752" lon="7.6308415"><ele>558.3333333333334</ele><time>2026-04-18T07:21:52.978Z</time></trkpt><trkpt lat="43.9236212" lon="7.6307379"><ele>555.1666666666666</ele><time>2026-04-18T07:21:54.978Z</time></trkpt><trkpt lat="43.9236913" lon="7.6307413"><ele>552.0</ele><time>2026-04-18T07:21:56.977Z</time></trkpt><trkpt lat="43.9237869" lon="7.6307285"><ele>552.0</ele><time>2026-04-18T07:22:00.978Z</time></trkpt><trkpt lat="43.923851" lon="7.6306977"><ele>552.0</ele><time>2026-04-18T07:22:01.978Z</time></trkpt><trkpt lat="43.9239059" lon="7.6306334"><ele>552.0</ele><time>2026-04-18T07:22:02.978Z</time></trkpt><trkpt lat="43.9239793" lon="7.630483"><ele>552.0</ele><time>2026-04-18T07:22:04.978Z</time></trkpt><trkpt lat="43.9240015" lon="7.6303794"><ele>552.0</ele><time>2026-04-18T07:22:05.978Z</time></trkpt><trkpt lat="43.9239478" lon="7.6302598"><ele>554.2</ele><time>2026-04-18T07:22:06.978Z</time></trkpt><trkpt lat="43.9239238" lon="7.6301363"><ele>556.4000000000001</ele><time>2026-04-18T07:22:07.978Z</time></trkpt><trkpt lat="43.9238956" lon="7.6300164"><ele>558.5999999999999</ele><time>2026-04-18T07:22:08.978Z</time></trkpt><trkpt lat="43.9238626" lon="7.6298942"><ele>560.8</ele><time>2026-04-18T07:22:09.978Z</time></trkpt><trkpt lat="43.9238149" lon="7.6297806"><ele>563.0</ele><time>2026-04-18T07:22:10.978Z</time></trkpt><trkpt lat="43.9237773" lon="7.6296795"><ele>563.0</ele><time>2026-04-18T07:22:11.978Z</time></trkpt><trkpt lat="43.9237453" lon="7.6295875"><ele>563.0</ele><time>2026-04-18T07:22:12.978Z</time></trkpt><trkpt lat="43.9237331" lon="7.6294974"><ele>563.0</ele><time>2026-04-18T07:22:13.978Z</time></trkpt><trkpt lat="43.9237428" lon="7.6294086"><ele>563.0</ele><time>2026-04-18T07:22:14.978Z</time></trkpt><trkpt lat="43.9237839" lon="7.6293353"><ele>563.0</ele><time>2026-04-18T07:22:15.978Z</time></trkpt><trkpt lat="43.9238772" lon="7.6292189"><ele>563.0</ele><time>2026-04-18T07:22:17.978Z</time></trkpt><trkpt lat="43.9239715" lon="7.6291353"><ele>562.6</ele><time>2026-04-18T07:22:18.978Z</time></trkpt><trkpt lat="43.9240712" lon="7.629046"><ele>562.1999999999999</ele><time>2026-04-18T07:22:19.978Z</time></trkpt><trkpt lat="43.9241798" lon="7.6289361"><ele>561.8</ele><time>2026-04-18T07:22:20.978Z</time></trkpt><trkpt lat="43.9242456" lon="7.6288642"><ele>561.4</ele><time>2026-04-18T07:22:21.978Z</time></trkpt><trkpt lat="43.924312" lon="7.6287974"><ele>561.0</ele><time>2026-04-18T07:22:22.978Z</time></trkpt><trkpt lat="43.9243885" lon="7.6287458"><ele>561.0</ele><time>2026-04-18T07:22:23.978Z</time></trkpt><trkpt lat="43.9244623" lon="7.6287106"><ele>561.0</ele><time>2026-04-18T07:22:24.978Z</time></trkpt><trkpt lat="43.9245412" lon="7.6286587"><ele>561.0</ele><time>2026-04-18T07:22:25.978Z</time></trkpt><trkpt lat="43.9245978" lon="7.6285928"><ele>561.0</ele><time>2026-04-18T07:22:26.978Z</time></trkpt><trkpt lat="43.9246235" lon="7.6284816"><ele>561.0</ele><time>2026-04-18T07:22:27.978Z</time></trkpt><trkpt lat="43.9245543" lon="7.6282825"><ele>565.0</ele><time>2026-04-18T07:22:28.978Z</time></trkpt><trkpt lat="43.924553" lon="7.6281312"><ele>569.0</ele><time>2026-04-18T07:22:29.978Z</time></trkpt><trkpt lat="43.9245557" lon="7.628005"><ele>573.0</ele><time>2026-04-18T07:22:30.977Z</time></trkpt><trkpt lat="43.9245618" lon="7.627896"><ele>577.0</ele><time>2026-04-18T07:22:31.978Z</time></trkpt><trkpt lat="43.9245644" lon="7.6278075"><ele>581.0</ele><time>2026-04-18T07:22:32.978Z</time></trkpt><trkpt lat="43.924594" lon="7.6277266"><ele>585.0</ele><time>2026-04-18T07:22:33.978Z</time></trkpt><trkpt lat="43.9246399" lon="7.6276554"><ele>590.2</ele><time>2026-04-18T07:22:34.978Z</time></trkpt><trkpt lat="43.9246968" lon="7.6276154"><ele>595.4</ele><time>2026-04-18T07:22:35.978Z</time></trkpt><trkpt lat="43.924822" lon="7.6276099"><ele>600.6</ele><time>2026-04-18T07:22:37.978Z</time></trkpt><trkpt lat="43.9248892" lon="7.6275803"><ele>605.8</ele><time>2026-04-18T07:22:38.978Z</time></trkpt><trkpt lat="43.924976" lon="7.6275269"><ele>611.0</ele><time>2026-04-18T07:22:39.978Z</time></trkpt><trkpt lat="43.9250603" lon="7.627458"><ele>610.2</ele><time>2026-04-18T07:22:40.978Z</time></trkpt><trkpt lat="43.9251288" lon="7.6273402"><ele>609.4000000000001</ele><time>2026-04-18T07:22:41.978Z</time></trkpt><trkpt lat="43.925201" lon="7.6272137"><ele>608.6</ele><time>2026-04-18T07:22:42.978Z</time></trkpt><trkpt lat="43.9252588" lon="7.627102"><ele>607.8000000000001</ele><time>2026-04-18T07:22:43.977Z</time></trkpt><trkpt lat="43.9252875" lon="7.6269908"><ele>607.0</ele><time>2026-04-18T07:22:44.978Z</time></trkpt><trkpt lat="43.9253236" lon="7.6268897"><ele>609.8000000000001</ele><time>2026-04-18T07:22:45.978Z</time></trkpt><trkpt lat="43.925376" lon="7.6268199"><ele>612.6</ele><time>2026-04-18T07:22:46.978Z</time></trkpt><trkpt lat="43.9254657" lon="7.6268064"><ele>615.4000000000001</ele><time>2026-04-18T07:22:47.978Z</time></trkpt><trkpt lat="43.9255409" lon="7.62682"><ele>618.2</ele><time>2026-04-18T07:22:48.978Z</time></trkpt><trkpt lat="43.9256757" lon="7.6268832"><ele>621.0</ele><time>2026-04-18T07:22:50.978Z</time></trkpt><trkpt lat="43.9257576" lon="7.6269198"><ele>621.0</ele><time>2026-04-18T07:22:51.978Z</time></trkpt><trkpt lat="43.9258259" lon="7.6269696"><ele>621.0</ele><time>2026-04-18T07:22:52.978Z</time></trkpt><trkpt lat="43.9259025" lon="7.6270212"><ele>621.0</ele><time>2026-04-18T07:22:53.978Z</time></trkpt><trkpt lat="43.9260008" lon="7.6270223"><ele>621.0</ele><time>2026-04-18T07:22:54.978Z</time></trkpt><trkpt lat="43.9260873" lon="7.6269318"><ele>621.0</ele><time>2026-04-18T07:22:55.977Z</time></trkpt><trkpt lat="43.9261337" lon="7.6267916"><ele>617.5</ele><time>2026-04-18T07:22:56.978Z</time></trkpt><trkpt lat="43.9261711" lon="7.6267048"><ele>614.0</ele><time>2026-04-18T07:22:57.978Z</time></trkpt><trkpt lat="43.9261708" lon="7.6265973"><ele>610.5</ele><time>2026-04-18T07:22:58.978Z</time></trkpt><trkpt lat="43.9261542" lon="7.6264803"><ele>607.0</ele><time>2026-04-18T07:22:59.978Z</time></trkpt><trkpt lat="43.9260988" lon="7.6263701"><ele>603.5</ele><time>2026-04-18T07:23:00.978Z</time></trkpt><trkpt lat="43.9260376" lon="7.6262581"><ele>600.0</ele><time>2026-04-18T07:23:01.978Z</time></trkpt><trkpt lat="43.9259893" lon="7.6261351"><ele>600.0</ele><time>2026-04-18T07:23:02.978Z</time></trkpt><trkpt lat="43.9259541" lon="7.6260143"><ele>600.0</ele><time>2026-04-18T07:23:03.978Z</time></trkpt><trkpt lat="43.9259328" lon="7.6258842"><ele>600.0</ele><time>2026-04-18T07:23:04.978Z</time></trkpt><trkpt lat="43.9259221" lon="7.6257463"><ele>600.0</ele><time>2026-04-18T07:23:05.978Z</time></trkpt><trkpt lat="43.9259437" lon="7.6255966"><ele>600.0</ele><time>2026-04-18T07:23:06.977Z</time></trkpt><trkpt lat="43.9259604" lon="7.6254393"><ele>603.8</ele><time>2026-04-18T07:23:07.978Z</time></trkpt><trkpt lat="43.9259835" lon="7.6252923"><ele>607.6</ele><time>2026-04-18T07:23:08.977Z</time></trkpt><trkpt lat="43.9260242" lon="7.625148"><ele>611.4</ele><time>2026-04-18T07:23:09.978Z</time></trkpt><trkpt lat="43.9260741" lon="7.6250185"><ele>615.2</ele><time>2026-04-18T07:23:10.978Z</time></trkpt><trkpt lat="43.926097" lon="7.6248975"><ele>619.0</ele><time>2026-04-18T07:23:11.978Z</time></trkpt><trkpt lat="43.9261261" lon="7.6247972"><ele>619.0</ele><time>2026-04-18T07:23:12.977Z</time></trkpt><trkpt lat="43.9261697" lon="7.6247193"><ele>619.0</ele><time>2026-04-18T07:23:13.978Z</time></trkpt><trkpt lat="43.9262297" lon="7.6246555"><ele>619.0</ele><time>2026-04-18T07:23:14.978Z</time></trkpt><trkpt lat="43.9262927" lon="7.6246222"><ele>619.0</ele><time>2026-04-18T07:23:15.978Z</time></trkpt><trkpt lat="43.9263659" lon="7.6245913"><ele>619.0</ele><time>2026-04-18T07:23:16.978Z</time></trkpt><trkpt lat="43.9264594" lon="7.6245687"><ele>619.0</ele><time>2026-04-18T07:23:17.978Z</time></trkpt><trkpt lat="43.9265563" lon="7.6245592"><ele>619.0</ele><time>2026-04-18T07:23:18.978Z</time></trkpt><trkpt lat="43.926643" lon="7.624566"><ele>619.0</ele><time>2026-04-18T07:23:19.978Z</time></trkpt><trkpt lat="43.9267575" lon="7.62459"><ele>619.0</ele><time>2026-04-18T07:23:20.978Z</time></trkpt><trkpt lat="43.9268888" lon="7.6245959"><ele>619.0</ele><time>2026-04-18T07:23:21.978Z</time></trkpt><trkpt lat="43.9269976" lon="7.6245801"><ele>619.0</ele><time>2026-04-18T07:23:22.978Z</time></trkpt><trkpt lat="43.9270957" lon="7.624553"><ele>618.4</ele><time>2026-04-18T07:23:23.978Z</time></trkpt><trkpt lat="43.9271988" lon="7.6244861"><ele>617.8</ele><time>2026-04-18T07:23:24.978Z</time></trkpt><trkpt lat="43.9272917" lon="7.6244207"><ele>617.2</ele><time>2026-04-18T07:23:25.978Z</time></trkpt><trkpt lat="43.9273919" lon="7.6243623"><ele>616.6</ele><time>2026-04-18T07:23:26.977Z</time></trkpt><trkpt lat="43.9275004" lon="7.6242997"><ele>616.0</ele><time>2026-04-18T07:23:27.977Z</time></trkpt><trkpt lat="43.9275855" lon="7.6242376"><ele>615.3333333333334</ele><time>2026-04-18T07:23:28.978Z</time></trkpt><trkpt lat="43.9276606" lon="7.6241674"><ele>614.6666666666667</ele><time>2026-04-18T07:23:29.978Z</time></trkpt><trkpt lat="43.9277274" lon="7.6240953"><ele>614.0</ele><time>2026-04-18T07:23:30.978Z</time></trkpt><trkpt lat="43.9277864" lon="7.6239978"><ele>613.3333333333334</ele><time>2026-04-18T07:23:31.978Z</time></trkpt><trkpt lat="43.9278576" lon="7.6239371"><ele>612.6666666666666</ele><time>2026-04-18T07:23:32.978Z</time></trkpt><trkpt lat="43.9279271" lon="7.6238789"><ele>612.0</ele><time>2026-04-18T07:23:33.978Z</time></trkpt><trkpt lat="43.92794" lon="7.623756"><ele>612.0</ele><time>2026-04-18T07:23:35.978Z</time></trkpt><trkpt lat="43.9279237" lon="7.6236526"><ele>612.0</ele><time>2026-04-18T07:23:37.978Z</time></trkpt><trkpt lat="43.9278502" lon="7.623715"><ele>612.0</ele><time>2026-04-18T07:23:38.978Z</time></trkpt><trkpt lat="43.9277793" lon="7.6237657"><ele>612.0</ele><time>2026-04-18T07:23:39.978Z</time></trkpt><trkpt lat="43.9276975" lon="7.6238834"><ele>612.0</ele><time>2026-04-18T07:23:40.978Z</time></trkpt><trkpt lat="43.9276579" lon="7.6239974"><ele>612.0</ele><time>2026-04-18T07:23:41.978Z</time></trkpt><trkpt lat="43.9275966" lon="7.624062"><ele>612.0</ele><time>2026-04-18T07:23:42.978Z</time></trkpt><trkpt lat="43.9274869" lon="7.6240897"><ele>612.0</ele><time>2026-04-18T07:23:43.978Z</time></trkpt><trkpt lat="43.9273947" lon="7.6241096"><ele>612.0</ele><time>2026-04-18T07:23:44.978Z</time></trkpt><trkpt lat="43.9272982" lon="7.6241297"><ele>612.0</ele><time>2026-04-18T07:23:45.978Z</time></trkpt><trkpt lat="43.9271706" lon="7.6241325"><ele>619.75</ele><time>2026-04-18T07:23:46.978Z</time></trkpt><trkpt lat="43.9270664" lon="7.6240633"><ele>627.5</ele><time>2026-04-18T07:23:47.977Z</time></trkpt><trkpt lat="43.9269541" lon="7.6239491"><ele>635.25</ele><time>2026-04-18T07:23:48.978Z</time></trkpt><trkpt lat="43.9268371" lon="7.6238729"><ele>643.0</ele><time>2026-04-18T07:23:49.978Z</time></trkpt><trkpt lat="43.9267115" lon="7.6238078"><ele>643.5999999999999</ele><time>2026-04-18T07:23:50.977Z</time></trkpt><trkpt lat="43.9265926" lon="7.6237475"><ele>644.1999999999999</ele><time>2026-04-18T07:23:51.978Z</time></trkpt><trkpt lat="43.926491" lon="7.6236866"><ele>644.8</ele><time>2026-04-18T07:23:52.978Z</time></trkpt><trkpt lat="43.9264044" lon="7.623632"><ele>645.4</ele><time>2026-04-18T07:23:53.978Z</time></trkpt><trkpt lat="43.9263303" lon="7.6235964"><ele>646.0</ele><time>2026-04-18T07:23:54.978Z</time></trkpt><trkpt lat="43.9262603" lon="7.6235787"><ele>646.0</ele><time>2026-04-18T07:23:55.978Z</time></trkpt><trkpt lat="43.9261913" lon="7.6235679"><ele>646.0</ele><time>2026-04-18T07:23:56.978Z</time></trkpt><trkpt lat="43.9261159" lon="7.623607"><ele>646.0</ele><time>2026-04-18T07:23:57.978Z</time></trkpt><trkpt lat="43.9260391" lon="7.6237041"><ele>646.0</ele><time>2026-04-18T07:23:58.977Z</time></trkpt><trkpt lat="43.9259546" lon="7.6238166"><ele>646.0</ele><time>2026-04-18T07:23:59.978Z</time></trkpt><trkpt lat="43.9258619" lon="7.6239281"><ele>645.5</ele><time>2026-04-18T07:24:00.978Z</time></trkpt><trkpt lat="43.9257707" lon="7.6240739"><ele>645.0</ele><time>2026-04-18T07:24:01.978Z</time></trkpt><trkpt lat="43.9256633" lon="7.6242116"><ele>644.5</ele><time>2026-04-18T07:24:02.977Z</time></trkpt><trkpt lat="43.9255753" lon="7.6243556"><ele>644.0</ele><time>2026-04-18T07:24:03.978Z</time></trkpt><trkpt lat="43.925494" lon="7.6244895"><ele>644.0</ele><time>2026-04-18T07:24:04.978Z</time></trkpt><trkpt lat="43.925412" lon="7.6246141"><ele>644.0</ele><time>2026-04-18T07:24:05.978Z</time></trkpt><trkpt lat="43.9253345" lon="7.6247213"><ele>644.0</ele><time>2026-04-18T07:24:06.978Z</time></trkpt><trkpt lat="43.9252552" lon="7.624838"><ele>644.0</ele><time>2026-04-18T07:24:07.978Z</time></trkpt><trkpt lat="43.9252068" lon="7.6249484"><ele>644.0</ele><time>2026-04-18T07:24:08.978Z</time></trkpt><trkpt lat="43.9251599" lon="7.625042"><ele>651.0</ele><time>2026-04-18T07:24:09.978Z</time></trkpt><trkpt lat="43.9250597" lon="7.625093"><ele>658.0</ele><time>2026-04-18T07:24:11.977Z</time></trkpt><trkpt lat="43.9249915" lon="7.6250788"><ele>665.0</ele><time>2026-04-18T07:24:12.978Z</time></trkpt><trkpt lat="43.9249143" lon="7.6250757"><ele>672.0</ele><time>2026-04-18T07:24:13.978Z</time></trkpt><trkpt lat="43.9248416" lon="7.6250882"><ele>679.0</ele><time>2026-04-18T07:24:14.978Z</time></trkpt><trkpt lat="43.9247617" lon="7.6251424"><ele>686.0</ele><time>2026-04-18T07:24:15.978Z</time></trkpt><trkpt lat="43.9246849" lon="7.6252834"><ele>680.5999999999999</ele><time>2026-04-18T07:24:16.978Z</time></trkpt><trkpt lat="43.9245817" lon="7.6253724"><ele>675.2</ele><time>2026-04-18T07:24:17.978Z</time></trkpt><trkpt lat="43.924489" lon="7.6254245"><ele>669.8</ele><time>2026-04-18T07:24:18.978Z</time></trkpt><trkpt lat="43.9243976" lon="7.6254887"><ele>664.4000000000001</ele><time>2026-04-18T07:24:19.978Z</time></trkpt><trkpt lat="43.9243173" lon="7.6255241"><ele>659.0</ele><time>2026-04-18T07:24:20.978Z</time></trkpt><trkpt lat="43.9242402" lon="7.6255693"><ele>662.0</ele><time>2026-04-18T07:24:21.978Z</time></trkpt><trkpt lat="43.924146" lon="7.6255856"><ele>665.0</ele><time>2026-04-18T07:24:22.978Z</time></trkpt><trkpt lat="43.9240614" lon="7.6255956"><ele>668.0</ele><time>2026-04-18T07:24:23.978Z</time></trkpt><trkpt lat="43.9239899" lon="7.6256078"><ele>671.0</ele><time>2026-04-18T07:24:24.978Z</time></trkpt><trkpt lat="43.9239247" lon="7.6256058"><ele>674.0</ele><time>2026-04-18T07:24:25.978Z</time></trkpt><trkpt lat="43.9238327" lon="7.625537"><ele>677.0</ele><time>2026-04-18T07:24:27.978Z</time></trkpt><trkpt lat="43.9238481" lon="7.6254257"><ele>677.0</ele><time>2026-04-18T07:24:29.978Z</time></trkpt><trkpt lat="43.923903" lon="7.6253597"><ele>677.0</ele><time>2026-04-18T07:24:31.978Z</time></trkpt><trkpt lat="43.9240171" lon="7.6253721"><ele>677.0</ele><time>2026-04-18T07:24:32.978Z</time></trkpt><trkpt lat="43.9241322" lon="7.6253604"><ele>677.0</ele><time>2026-04-18T07:24:33.978Z</time></trkpt><trkpt lat="43.9242368" lon="7.6253547"><ele>677.0</ele><time>2026-04-18T07:24:34.978Z</time></trkpt><trkpt lat="43.9243096" lon="7.6253149"><ele>678.5</ele><time>2026-04-18T07:24:35.978Z</time></trkpt><trkpt lat="43.9243796" lon="7.6252381"><ele>680.0</ele><time>2026-04-18T07:24:36.978Z</time></trkpt><trkpt lat="43.924448" lon="7.6251661"><ele>681.5</ele><time>2026-04-18T07:24:37.978Z</time></trkpt><trkpt lat="43.9245083" lon="7.6250922"><ele>683.0</ele><time>2026-04-18T07:24:38.978Z</time></trkpt><trkpt lat="43.9245169" lon="7.6249928"><ele>684.5</ele><time>2026-04-18T07:24:39.977Z</time></trkpt><trkpt lat="43.924475" lon="7.6248842"><ele>686.0</ele><time>2026-04-18T07:24:40.978Z</time></trkpt><trkpt lat="43.9244459" lon="7.6247657"><ele>686.0</ele><time>2026-04-18T07:24:41.978Z</time></trkpt><trkpt lat="43.9244291" lon="7.6246489"><ele>686.0</ele><time>2026-04-18T07:24:42.978Z</time></trkpt><trkpt lat="43.924413" lon="7.6245308"><ele>686.0</ele><time>2026-04-18T07:24:43.978Z</time></trkpt><trkpt lat="43.924466" lon="7.6244091"><ele>686.0</ele><time>2026-04-18T07:24:45.978Z</time></trkpt><trkpt lat="43.92456" lon="7.6243491"><ele>686.0</ele><time>2026-04-18T07:24:47.978Z</time></trkpt><trkpt lat="43.9246577" lon="7.6243586"><ele>682.8</ele><time>2026-04-18T07:24:48.978Z</time></trkpt><trkpt lat="43.9247764" lon="7.624375"><ele>679.5999999999999</ele><time>2026-04-18T07:24:49.977Z</time></trkpt><trkpt lat="43.9248647" lon="7.6244191"><ele>676.4</ele><time>2026-04-18T07:24:50.978Z</time></trkpt><trkpt lat="43.9249556" lon="7.6243918"><ele>673.2</ele><time>2026-04-18T07:24:51.978Z</time></trkpt><trkpt lat="43.9250276" lon="7.6242991"><ele>670.0</ele><time>2026-04-18T07:24:52.978Z</time></trkpt><trkpt lat="43.9250663" lon="7.6241846"><ele>670.0</ele><time>2026-04-18T07:24:53.978Z</time></trkpt><trkpt lat="43.9251025" lon="7.6240708"><ele>670.0</ele><time>2026-04-18T07:24:54.978Z</time></trkpt><trkpt lat="43.9251304" lon="7.6239475"><ele>670.0</ele><time>2026-04-18T07:24:55.978Z</time></trkpt><trkpt lat="43.925154" lon="7.6238019"><ele>670.0</ele><time>2026-04-18T07:24:56.978Z</time></trkpt><trkpt lat="43.9251688" lon="7.6236456"><ele>670.0</ele><time>2026-04-18T07:24:57.978Z</time></trkpt><trkpt lat="43.9251872" lon="7.6234683"><ele>674.0</ele><time>2026-04-18T07:24:58.978Z</time></trkpt><trkpt lat="43.9252163" lon="7.6233343"><ele>678.0</ele><time>2026-04-18T07:24:59.978Z</time></trkpt><trkpt lat="43.9252456" lon="7.6232143"><ele>682.0</ele><time>2026-04-18T07:25:00.978Z</time></trkpt><trkpt lat="43.9252867" lon="7.623108"><ele>686.0</ele><time>2026-04-18T07:25:01.977Z</time></trkpt><trkpt lat="43.925343" lon="7.6230265"><ele>690.0</ele><time>2026-04-18T07:25:02.978Z</time></trkpt><trkpt lat="43.9253915" lon="7.6229392"><ele>694.0</ele><time>2026-04-18T07:25:03.978Z</time></trkpt><trkpt lat="43.9254049" lon="7.622828"><ele>698.75</ele><time>2026-04-18T07:25:04.978Z</time></trkpt><trkpt lat="43.9253877" lon="7.6226782"><ele>703.5</ele><time>2026-04-18T07:25:05.978Z</time></trkpt><trkpt lat="43.9253974" lon="7.6225197"><ele>708.25</ele><time>2026-04-18T07:25:06.978Z</time></trkpt><trkpt lat="43.9254041" lon="7.6223619"><ele>713.0</ele><time>2026-04-18T07:25:07.978Z</time></trkpt><trkpt lat="43.9253989" lon="7.6221882"><ele>713.0</ele><time>2026-04-18T07:25:08.978Z</time></trkpt><trkpt lat="43.9253971" lon="7.6220142"><ele>713.0</ele><time>2026-04-18T07:25:09.978Z</time></trkpt><trkpt lat="43.9253928" lon="7.621878"><ele>713.0</ele><time>2026-04-18T07:25:10.977Z</time></trkpt><trkpt lat="43.925371" lon="7.6217555"><ele>713.0</ele><time>2026-04-18T07:25:11.978Z</time></trkpt><trkpt lat="43.9253806" lon="7.6216238"><ele>713.0</ele><time>2026-04-18T07:25:12.978Z</time></trkpt><trkpt lat="43.9253963" lon="7.6215185"><ele>716.8333333333333</ele><time>2026-04-18T07:25:13.978Z</time></trkpt><trkpt lat="43.9254788" lon="7.6214676"><ele>720.6666666666666</ele><time>2026-04-18T07:25:14.978Z</time></trkpt><trkpt lat="43.9255446" lon="7.6214294"><ele>724.5</ele><time>2026-04-18T07:25:15.978Z</time></trkpt><trkpt lat="43.9256262" lon="7.6214499"><ele>728.3333333333334</ele><time>2026-04-18T07:25:16.978Z</time></trkpt><trkpt lat="43.9257024" lon="7.621471"><ele>732.1666666666667</ele><time>2026-04-18T07:25:17.978Z</time></trkpt><trkpt lat="43.9257711" lon="7.6215189"><ele>736.0</ele><time>2026-04-18T07:25:18.978Z</time></trkpt><trkpt lat="43.9258305" lon="7.6215735"><ele>734.0</ele><time>2026-04-18T07:25:19.977Z</time></trkpt><trkpt lat="43.9258953" lon="7.6215874"><ele>732.0</ele><time>2026-04-18T07:25:20.978Z</time></trkpt><trkpt lat="43.9259794" lon="7.6215497"><ele>730.0</ele><time>2026-04-18T07:25:21.978Z</time></trkpt><trkpt lat="43.9260631" lon="7.6214814"><ele>728.0</ele><time>2026-04-18T07:25:22.978Z</time></trkpt><trkpt lat="43.9261477" lon="7.6213873"><ele>726.0</ele><time>2026-04-18T07:25:23.978Z</time></trkpt><trkpt lat="43.926227" lon="7.621291"><ele>726.0</ele><time>2026-04-18T07:25:24.978Z</time></trkpt><trkpt lat="43.9263162" lon="7.6211958"><ele>726.0</ele><time>2026-04-18T07:25:25.978Z</time></trkpt><trkpt lat="43.9263919" lon="7.6210989"><ele>726.0</ele><time>2026-04-18T07:25:26.978Z</time></trkpt><trkpt lat="43.9265019" lon="7.620994"><ele>726.0</ele><time>2026-04-18T07:25:27.978Z</time></trkpt><trkpt lat="43.9266108" lon="7.6208938"><ele>725.5999999999999</ele><time>2026-04-18T07:25:28.978Z</time></trkpt><trkpt lat="43.9266956" lon="7.6208069"><ele>725.2</ele><time>2026-04-18T07:25:29.978Z</time></trkpt><trkpt lat="43.9267819" lon="7.6207395"><ele>724.8</ele><time>2026-04-18T07:25:30.977Z</time></trkpt><trkpt lat="43.9268688" lon="7.6206764"><ele>724.4000000000001</ele><time>2026-04-18T07:25:31.977Z</time></trkpt><trkpt lat="43.926954" lon="7.6206328"><ele>724.0</ele><time>2026-04-18T07:25:32.978Z</time></trkpt><trkpt lat="43.9270129" lon="7.6205941"><ele>724.0</ele><time>2026-04-18T07:25:33.978Z</time></trkpt><trkpt lat="43.9270724" lon="7.6205454"><ele>724.0</ele><time>2026-04-18T07:25:34.978Z</time></trkpt><trkpt lat="43.9271212" lon="7.6204112"><ele>724.0</ele><time>2026-04-18T07:25:36.978Z</time></trkpt><trkpt lat="43.9270567" lon="7.6203382"><ele>724.0</ele><time>2026-04-18T07:25:38.978Z</time></trkpt><trkpt lat="43.9269662" lon="7.6203562"><ele>724.0</ele><time>2026-04-18T07:25:40.978Z</time></trkpt><trkpt lat="43.926862" lon="7.6204184"><ele>724.0</ele><time>2026-04-18T07:25:41.978Z</time></trkpt><trkpt lat="43.9267511" lon="7.6204847"><ele>724.0</ele><time>2026-04-18T07:25:42.978Z</time></trkpt><trkpt lat="43.926629" lon="7.6205209"><ele>724.0</ele><time>2026-04-18T07:25:43.978Z</time></trkpt><trkpt lat="43.9265289" lon="7.6205426"><ele>724.0</ele><time>2026-04-18T07:25:44.978Z</time></trkpt><trkpt lat="43.9264255" lon="7.620546"><ele>728.75</ele><time>2026-04-18T07:25:45.978Z</time></trkpt><trkpt lat="43.9263176" lon="7.6205275"><ele>733.5</ele><time>2026-04-18T07:25:46.978Z</time></trkpt><trkpt lat="43.9261902" lon="7.6205251"><ele>738.25</ele><time>2026-04-18T07:25:47.978Z</time></trkpt><trkpt lat="43.9260599" lon="7.6205304"><ele>743.0</ele><time>2026-04-18T07:25:48.978Z</time></trkpt><trkpt lat="43.925937" lon="7.6205478"><ele>745.5999999999999</ele><time>2026-04-18T07:25:49.977Z</time></trkpt><trkpt lat="43.9258245" lon="7.6205509"><ele>748.1999999999999</ele><time>2026-04-18T07:25:50.978Z</time></trkpt><trkpt lat="43.9257007" lon="7.6205722"><ele>750.8</ele><time>2026-04-18T07:25:51.978Z</time></trkpt><trkpt lat="43.9255964" lon="7.6205892"><ele>753.4</ele><time>2026-04-18T07:25:52.978Z</time></trkpt><trkpt lat="43.9254946" lon="7.6206013"><ele>756.0</ele><time>2026-04-18T07:25:53.978Z</time></trkpt><trkpt lat="43.9254036" lon="7.6205946"><ele>756.0</ele><time>2026-04-18T07:25:54.978Z</time></trkpt><trkpt lat="43.9253169" lon="7.6206203"><ele>756.0</ele><time>2026-04-18T07:25:55.978Z</time></trkpt><trkpt lat="43.9252309" lon="7.6206824"><ele>756.0</ele><time>2026-04-18T07:25:56.977Z</time></trkpt><trkpt lat="43.9251512" lon="7.6207401"><ele>756.0</ele><time>2026-04-18T07:25:57.978Z</time></trkpt><trkpt lat="43.9250772" lon="7.6207853"><ele>756.0</ele><time>2026-04-18T07:25:58.978Z</time></trkpt><trkpt lat="43.9250083" lon="7.620844"><ele>756.0</ele><time>2026-04-18T07:25:59.978Z</time></trkpt><trkpt lat="43.9249661" lon="7.6209135"><ele>758.0</ele><time>2026-04-18T07:26:00.978Z</time></trkpt><trkpt lat="43.9249608" lon="7.6210889"><ele>760.0</ele><time>2026-04-18T07:26:02.978Z</time></trkpt><trkpt lat="43.9250456" lon="7.6211869"><ele>762.0</ele><time>2026-04-18T07:26:03.978Z</time></trkpt><trkpt lat="43.9250734" lon="7.6212743"><ele>764.0</ele><time>2026-04-18T07:26:04.978Z</time></trkpt><trkpt lat="43.9250437" lon="7.6213818"><ele>766.0</ele><time>2026-04-18T07:26:05.978Z</time></trkpt><trkpt lat="43.9250052" lon="7.6214939"><ele>766.0</ele><time>2026-04-18T07:26:06.978Z</time></trkpt><trkpt lat="43.9249518" lon="7.6215995"><ele>766.0</ele><time>2026-04-18T07:26:07.978Z</time></trkpt><trkpt lat="43.9248976" lon="7.62171"><ele>766.0</ele><time>2026-04-18T07:26:08.978Z</time></trkpt><trkpt lat="43.9248456" lon="7.6218159"><ele>766.0</ele><time>2026-04-18T07:26:09.978Z</time></trkpt><trkpt lat="43.9247666" lon="7.6218922"><ele>766.0</ele><time>2026-04-18T07:26:10.978Z</time></trkpt><trkpt lat="43.9246877" lon="7.6219596"><ele>766.0</ele><time>2026-04-18T07:26:11.978Z</time></trkpt><trkpt lat="43.9245995" lon="7.6220038"><ele>766.0</ele><time>2026-04-18T07:26:12.978Z</time></trkpt><trkpt lat="43.9245013" lon="7.6220293"><ele>766.0</ele><time>2026-04-18T07:26:13.978Z</time></trkpt><trkpt lat="43.9244166" lon="7.6220334"><ele>766.0</ele><time>2026-04-18T07:26:14.978Z</time></trkpt><trkpt lat="43.9243136" lon="7.6219783"><ele>766.0</ele><time>2026-04-18T07:26:15.978Z</time></trkpt><trkpt lat="43.9242398" lon="7.6219173"><ele>769.4</ele><time>2026-04-18T07:26:16.978Z</time></trkpt><trkpt lat="43.9241846" lon="7.6218177"><ele>772.8</ele><time>2026-04-18T07:26:17.978Z</time></trkpt><trkpt lat="43.9241119" lon="7.621743"><ele>776.1999999999999</ele><time>2026-04-18T07:26:18.978Z</time></trkpt><trkpt lat="43.9240556" lon="7.621672"><ele>779.5999999999999</ele><time>2026-04-18T07:26:19.978Z</time></trkpt><trkpt lat="43.9239994" lon="7.6216206"><ele>783.0</ele><time>2026-04-18T07:26:20.978Z</time></trkpt><trkpt lat="43.9238397" lon="7.6216932"><ele>783.0</ele><time>2026-04-18T07:26:22.978Z</time></trkpt><trkpt lat="43.9237842" lon="7.6217454"><ele>783.0</ele><time>2026-04-18T07:26:23.978Z</time></trkpt><trkpt lat="43.9237131" lon="7.6218257"><ele>783.0</ele><time>2026-04-18T07:26:24.978Z</time></trkpt><trkpt lat="43.9236327" lon="7.6219477"><ele>783.0</ele><time>2026-04-18T07:26:25.978Z</time></trkpt><trkpt lat="43.9235557" lon="7.6220848"><ele>783.0</ele><time>2026-04-18T07:26:26.978Z</time></trkpt><trkpt lat="43.9235002" lon="7.6222522"><ele>785.0</ele><time>2026-04-18T07:26:27.977Z</time></trkpt><trkpt lat="43.9234495" lon="7.6224087"><ele>787.0</ele><time>2026-04-18T07:26:28.978Z</time></trkpt><trkpt lat="43.9234056" lon="7.622543"><ele>789.0</ele><time>2026-04-18T07:26:29.978Z</time></trkpt><trkpt lat="43.9233265" lon="7.6226632"><ele>791.0</ele><time>2026-04-18T07:26:30.978Z</time></trkpt><trkpt lat="43.92327" lon="7.6228049"><ele>787.1999999999999</ele><time>2026-04-18T07:26:31.978Z</time></trkpt><trkpt lat="43.9232115" lon="7.6229352"><ele>783.4</ele><time>2026-04-18T07:26:32.978Z</time></trkpt><trkpt lat="43.9231382" lon="7.6230499"><ele>779.6</ele><time>2026-04-18T07:26:33.978Z</time></trkpt><trkpt lat="43.9230867" lon="7.6231424"><ele>775.8</ele><time>2026-04-18T07:26:34.978Z</time></trkpt><trkpt lat="43.9230268" lon="7.6232292"><ele>772.0</ele><time>2026-04-18T07:26:35.978Z</time></trkpt><trkpt lat="43.92298" lon="7.6233095"><ele>771.9999999999999</ele><time>2026-04-18T07:26:36.978Z</time></trkpt><trkpt lat="43.9228988" lon="7.623395"><ele>772.0</ele><time>2026-04-18T07:26:38.978Z</time></trkpt><trkpt lat="43.9228376" lon="7.6233421"><ele>772.0</ele><time>2026-04-18T07:26:40.978Z</time></trkpt><trkpt lat="43.9228738" lon="7.6232121"><ele>772.0</ele><time>2026-04-18T07:26:42.978Z</time></trkpt><trkpt lat="43.9229238" lon="7.6231568"><ele>771.9999999999999</ele><time>2026-04-18T07:26:43.978Z</time></trkpt><trkpt lat="43.9229832" lon="7.623103"><ele>772.0</ele><time>2026-04-18T07:26:44.978Z</time></trkpt><trkpt lat="43.9230483" lon="7.6230242"><ele>772.0</ele><time>2026-04-18T07:26:45.978Z</time></trkpt><trkpt lat="43.9231118" lon="7.6229191"><ele>772.0</ele><time>2026-04-18T07:26:46.978Z</time></trkpt><trkpt lat="43.9231593" lon="7.6228011"><ele>772.0</ele><time>2026-04-18T07:26:47.978Z</time></trkpt><trkpt lat="43.9231988" lon="7.6226605"><ele>772.0</ele><time>2026-04-18T07:26:48.978Z</time></trkpt><trkpt lat="43.9232455" lon="7.6224975"><ele>772.0</ele><time>2026-04-18T07:26:49.978Z</time></trkpt><trkpt lat="43.9232898" lon="7.6223278"><ele>774.75</ele><time>2026-04-18T07:26:50.978Z</time></trkpt><trkpt lat="43.9233265" lon="7.622158"><ele>777.5</ele><time>2026-04-18T07:26:51.977Z</time></trkpt><trkpt lat="43.9233592" lon="7.6219915"><ele>780.25</ele><time>2026-04-18T07:26:52.977Z</time></trkpt><trkpt lat="43.9234003" lon="7.6218281"><ele>783.0</ele><time>2026-04-18T07:26:53.978Z</time></trkpt><trkpt lat="43.9234381" lon="7.6216623"><ele>783.0</ele><time>2026-04-18T07:26:54.978Z</time></trkpt><trkpt lat="43.9234683" lon="7.6215024"><ele>783.0</ele><time>2026-04-18T07:26:55.978Z</time></trkpt><trkpt lat="43.9234916" lon="7.6213475"><ele>783.0</ele><time>2026-04-18T07:26:56.978Z</time></trkpt><trkpt lat="43.9235309" lon="7.6212044"><ele>783.0</ele><time>2026-04-18T07:26:57.978Z</time></trkpt><trkpt lat="43.92358" lon="7.6210495"><ele>786.8</ele><time>2026-04-18T07:26:58.978Z</time></trkpt><trkpt lat="43.9236339" lon="7.6209015"><ele>790.5999999999999</ele><time>2026-04-18T07:26:59.978Z</time></trkpt><trkpt lat="43.9236775" lon="7.6207712"><ele>794.4000000000001</ele><time>2026-04-18T07:27:00.978Z</time></trkpt><trkpt lat="43.9237347" lon="7.6206664"><ele>798.2</ele><time>2026-04-18T07:27:01.978Z</time></trkpt><trkpt lat="43.923812" lon="7.6205946"><ele>802.0</ele><time>2026-04-18T07:27:02.977Z</time></trkpt><trkpt lat="43.9238928" lon="7.6205253"><ele>801.9999999999999</ele><time>2026-04-18T07:27:03.978Z</time></trkpt><trkpt lat="43.9239622" lon="7.620466"><ele>802.0</ele><time>2026-04-18T07:27:04.978Z</time></trkpt><trkpt lat="43.9240368" lon="7.6204284"><ele>802.0</ele><time>2026-04-18T07:27:05.978Z</time></trkpt><trkpt lat="43.9241134" lon="7.6203757"><ele>802.0</ele><time>2026-04-18T07:27:06.978Z</time></trkpt><trkpt lat="43.9241547" lon="7.6202912"><ele>801.9999999999999</ele><time>2026-04-18T07:27:07.978Z</time></trkpt><trkpt lat="43.9241918" lon="7.6202085"><ele>802.0</ele><time>2026-04-18T07:27:08.978Z</time></trkpt><trkpt lat="43.9241783" lon="7.6200837"><ele>801.8333333333333</ele><time>2026-04-18T07:27:09.978Z</time></trkpt><trkpt lat="43.9241831" lon="7.6199676"><ele>801.6666666666666</ele><time>2026-04-18T07:27:10.977Z</time></trkpt><trkpt lat="43.9242089" lon="7.6198656"><ele>801.5</ele><time>2026-04-18T07:27:11.978Z</time></trkpt><trkpt lat="43.92426" lon="7.6197903"><ele>801.3333333333333</ele><time>2026-04-18T07:27:12.978Z</time></trkpt><trkpt lat="43.9243773" lon="7.6197872"><ele>801.1666666666666</ele><time>2026-04-18T07:27:14.978Z</time></trkpt><trkpt lat="43.924455" lon="7.6197965"><ele>801.0</ele><time>2026-04-18T07:27:15.978Z</time></trkpt><trkpt lat="43.9245194" lon="7.6198212"><ele>801.0</ele><time>2026-04-18T07:27:16.978Z</time></trkpt><trkpt lat="43.9245942" lon="7.6198746"><ele>801.0</ele><time>2026-04-18T07:27:17.978Z</time></trkpt><trkpt lat="43.9246722" lon="7.6199187"><ele>801.0</ele><time>2026-04-18T07:27:18.978Z</time></trkpt><trkpt lat="43.9247699" lon="7.6198688"><ele>801.0</ele><time>2026-04-18T07:27:19.977Z</time></trkpt><trkpt lat="43.9248477" lon="7.619803"><ele>801.0</ele><time>2026-04-18T07:27:20.978Z</time></trkpt><trkpt lat="43.9249201" lon="7.6197441"><ele>801.0</ele><time>2026-04-18T07:27:21.977Z</time></trkpt><trkpt lat="43.9249974" lon="7.6197057"><ele>801.0</ele><time>2026-04-18T07:27:22.978Z</time></trkpt><trkpt lat="43.9250512" lon="7.6196111"><ele>801.0</ele><time>2026-04-18T07:27:23.978Z</time></trkpt><trkpt lat="43.9250968" lon="7.619487"><ele>801.0</ele><time>2026-04-18T07:27:24.978Z</time></trkpt><trkpt lat="43.9251366" lon="7.6193776"><ele>801.0</ele><time>2026-04-18T07:27:25.978Z</time></trkpt><trkpt lat="43.9251735" lon="7.6192868"><ele>801.0</ele><time>2026-04-18T07:27:26.978Z</time></trkpt><trkpt lat="43.9252324" lon="7.6192069"><ele>801.0</ele><time>2026-04-18T07:27:27.977Z</time></trkpt><trkpt lat="43.9252995" lon="7.6191511"><ele>803.1999999999999</ele><time>2026-04-18T07:27:28.978Z</time></trkpt><trkpt lat="43.9254025" lon="7.619117"><ele>805.4</ele><time>2026-04-18T07:27:30.978Z</time></trkpt><trkpt lat="43.9255205" lon="7.6191314"><ele>807.6</ele><time>2026-04-18T07:27:31.977Z</time></trkpt><trkpt lat="43.9256309" lon="7.6191663"><ele>809.8</ele><time>2026-04-18T07:27:32.978Z</time></trkpt><trkpt lat="43.9257229" lon="7.6191892"><ele>812.0</ele><time>2026-04-18T07:27:33.978Z</time></trkpt><trkpt lat="43.925807" lon="7.6191852"><ele>812.0</ele><time>2026-04-18T07:27:34.978Z</time></trkpt><trkpt lat="43.9258909" lon="7.6191655"><ele>812.0</ele><time>2026-04-18T07:27:35.978Z</time></trkpt><trkpt lat="43.9259661" lon="7.6191398"><ele>812.0</ele><time>2026-04-18T07:27:36.978Z</time></trkpt><trkpt lat="43.9260291" lon="7.6190592"><ele>812.0</ele><time>2026-04-18T07:27:37.978Z</time></trkpt><trkpt lat="43.9261082" lon="7.6189354"><ele>812.0</ele><time>2026-04-18T07:27:38.978Z</time></trkpt><trkpt lat="43.9261768" lon="7.6188171"><ele>809.4000000000001</ele><time>2026-04-18T07:27:39.977Z</time></trkpt><trkpt lat="43.9262524" lon="7.6186992"><ele>806.8000000000001</ele><time>2026-04-18T07:27:40.978Z</time></trkpt><trkpt lat="43.9263148" lon="7.6185769"><ele>804.2</ele><time>2026-04-18T07:27:41.978Z</time></trkpt><trkpt lat="43.9263798" lon="7.6184747"><ele>801.6</ele><time>2026-04-18T07:27:42.978Z</time></trkpt><trkpt lat="43.9264596" lon="7.6184327"><ele>799.0</ele><time>2026-04-18T07:27:43.977Z</time></trkpt><trkpt lat="43.9265428" lon="7.6183921"><ele>803.8000000000001</ele><time>2026-04-18T07:27:44.978Z</time></trkpt><trkpt lat="43.9266336" lon="7.6183488"><ele>808.6</ele><time>2026-04-18T07:27:45.978Z</time></trkpt><trkpt lat="43.9267275" lon="7.6183011"><ele>813.4</ele><time>2026-04-18T07:27:46.978Z</time></trkpt><trkpt lat="43.9268229" lon="7.6182542"><ele>818.2</ele><time>2026-04-18T07:27:47.978Z</time></trkpt><trkpt lat="43.9269134" lon="7.6181826"><ele>823.0</ele><time>2026-04-18T07:27:48.978Z</time></trkpt><trkpt lat="43.9269943" lon="7.6180926"><ele>823.0</ele><time>2026-04-18T07:27:49.977Z</time></trkpt><trkpt lat="43.9270736" lon="7.618009"><ele>823.0</ele><time>2026-04-18T07:27:50.978Z</time></trkpt><trkpt lat="43.9271606" lon="7.617955"><ele>823.0</ele><time>2026-04-18T07:27:51.978Z</time></trkpt><trkpt lat="43.927276" lon="7.6179497"><ele>823.0</ele><time>2026-04-18T07:27:52.978Z</time></trkpt><trkpt lat="43.9273997" lon="7.6179595"><ele>823.0</ele><time>2026-04-18T07:27:53.978Z</time></trkpt><trkpt lat="43.9275103" lon="7.6179475"><ele>824.8</ele><time>2026-04-18T07:27:54.978Z</time></trkpt><trkpt lat="43.9276328" lon="7.6179316"><ele>826.5999999999999</ele><time>2026-04-18T07:27:55.978Z</time></trkpt><trkpt lat="43.9277368" lon="7.6179047"><ele>828.4000000000001</ele><time>2026-04-18T07:27:56.978Z</time></trkpt><trkpt lat="43.9278401" lon="7.6178815"><ele>830.2</ele><time>2026-04-18T07:27:57.978Z</time></trkpt><trkpt lat="43.9279352" lon="7.6178671"><ele>832.0</ele><time>2026-04-18T07:27:58.978Z</time></trkpt><trkpt lat="43.9280019" lon="7.6178606"><ele>831.9999999999999</ele><time>2026-04-18T07:27:59.978Z</time></trkpt><trkpt lat="43.9280773" lon="7.6178728"><ele>832.0</ele><time>2026-04-18T07:28:00.978Z</time></trkpt><trkpt lat="43.9281666" lon="7.6179183"><ele>832.0</ele><time>2026-04-18T07:28:01.977Z</time></trkpt><trkpt lat="43.9282657" lon="7.6179569"><ele>832.0</ele><time>2026-04-18T07:28:02.978Z</time></trkpt><trkpt lat="43.9283504" lon="7.6179917"><ele>831.9999999999999</ele><time>2026-04-18T07:28:03.978Z</time></trkpt><trkpt lat="43.9284195" lon="7.617999"><ele>832.0</ele><time>2026-04-18T07:28:04.977Z</time></trkpt><trkpt lat="43.9285037" lon="7.6179367"><ele>831.0</ele><time>2026-04-18T07:28:06.978Z</time></trkpt><trkpt lat="43.9284819" lon="7.617822"><ele>830.0</ele><time>2026-04-18T07:28:08.978Z</time></trkpt><trkpt lat="43.9283967" lon="7.6177524"><ele>829.0</ele><time>2026-04-18T07:28:10.978Z</time></trkpt><trkpt lat="43.9283283" lon="7.6177189"><ele>828.0</ele><time>2026-04-18T07:28:11.978Z</time></trkpt><trkpt lat="43.9282186" lon="7.6177024"><ele>827.0</ele><time>2026-04-18T07:28:12.978Z</time></trkpt><trkpt lat="43.9281148" lon="7.6176538"><ele>834.8</ele><time>2026-04-18T07:28:13.978Z</time></trkpt><trkpt lat="43.9280179" lon="7.6176374"><ele>842.6</ele><time>2026-04-18T07:28:14.978Z</time></trkpt><trkpt lat="43.9279126" lon="7.6176258"><ele>850.3999999999999</ele><time>2026-04-18T07:28:15.978Z</time></trkpt><trkpt lat="43.9278069" lon="7.6176324"><ele>858.1999999999999</ele><time>2026-04-18T07:28:16.978Z</time></trkpt><trkpt lat="43.9277091" lon="7.6176285"><ele>866.0</ele><time>2026-04-18T07:28:17.978Z</time></trkpt><trkpt lat="43.9276242" lon="7.6175744"><ele>864.8</ele><time>2026-04-18T07:28:18.978Z</time></trkpt><trkpt lat="43.9275267" lon="7.6175122"><ele>863.5999999999999</ele><time>2026-04-18T07:28:19.978Z</time></trkpt><trkpt lat="43.927418" lon="7.6174621"><ele>862.4</ele><time>2026-04-18T07:28:20.978Z</time></trkpt><trkpt lat="43.9273169" lon="7.6173998"><ele>861.2</ele><time>2026-04-18T07:28:21.978Z</time></trkpt><trkpt lat="43.9272244" lon="7.6173269"><ele>860.0</ele><time>2026-04-18T07:28:22.978Z</time></trkpt><trkpt lat="43.9271616" lon="7.6172708"><ele>860.0000000000001</ele><time>2026-04-18T07:28:23.978Z</time></trkpt><trkpt lat="43.9270949" lon="7.6172212"><ele>860.0</ele><time>2026-04-18T07:28:24.978Z</time></trkpt><trkpt lat="43.9270275" lon="7.6171997"><ele>860.0</ele><time>2026-04-18T07:28:25.977Z</time></trkpt><trkpt lat="43.9269484" lon="7.6171669"><ele>860.0</ele><time>2026-04-18T07:28:26.978Z</time></trkpt><trkpt lat="43.9268668" lon="7.6172344"><ele>860.0000000000001</ele><time>2026-04-18T07:28:27.978Z</time></trkpt><trkpt lat="43.9267777" lon="7.617324"><ele>860.0</ele><time>2026-04-18T07:28:28.978Z</time></trkpt><trkpt lat="43.9266646" lon="7.6174157"><ele>860.75</ele><time>2026-04-18T07:28:29.978Z</time></trkpt><trkpt lat="43.9265552" lon="7.6174686"><ele>861.5</ele><time>2026-04-18T07:28:30.978Z</time></trkpt><trkpt lat="43.9264422" lon="7.6174992"><ele>862.25</ele><time>2026-04-18T07:28:31.978Z</time></trkpt><trkpt lat="43.926331" lon="7.6175317"><ele>863.0</ele><time>2026-04-18T07:28:32.978Z</time></trkpt><trkpt lat="43.9262033" lon="7.6175464"><ele>863.0</ele><time>2026-04-18T07:28:33.978Z</time></trkpt><trkpt lat="43.9260699" lon="7.617561"><ele>863.0</ele><time>2026-04-18T07:28:34.977Z</time></trkpt><trkpt lat="43.9259419" lon="7.6175726"><ele>863.0</ele><time>2026-04-18T07:28:35.978Z</time></trkpt><trkpt lat="43.9258155" lon="7.6175839"><ele>863.0</ele><time>2026-04-18T07:28:36.978Z</time></trkpt><trkpt lat="43.9256977" lon="7.6175882"><ele>864.4</ele><time>2026-04-18T07:28:37.978Z</time></trkpt><trkpt lat="43.9255931" lon="7.6176026"><ele>865.8</ele><time>2026-04-18T07:28:38.978Z</time></trkpt><trkpt lat="43.9255002" lon="7.6176068"><ele>867.2</ele><time>2026-04-18T07:28:39.978Z</time></trkpt><trkpt lat="43.9254086" lon="7.6176061"><ele>868.6</ele><time>2026-04-18T07:28:40.978Z</time></trkpt><trkpt lat="43.9253388" lon="7.6175592"><ele>870.0</ele><time>2026-04-18T07:28:41.977Z</time></trkpt><trkpt lat="43.9252752" lon="7.6174848"><ele>870.0</ele><time>2026-04-18T07:28:42.978Z</time></trkpt><trkpt lat="43.9252306" lon="7.6173685"><ele>870.0</ele><time>2026-04-18T07:28:43.978Z</time></trkpt><trkpt lat="43.925136" lon="7.6172806"><ele>870.0</ele><time>2026-04-18T07:28:45.978Z</time></trkpt><trkpt lat="43.9250411" lon="7.617283"><ele>870.0</ele><time>2026-04-18T07:28:47.978Z</time></trkpt><trkpt lat="43.9249823" lon="7.6173261"><ele>870.0</ele><time>2026-04-18T07:28:48.978Z</time></trkpt><trkpt lat="43.9249092" lon="7.6175046"><ele>872.0</ele><time>2026-04-18T07:28:49.978Z</time></trkpt><trkpt lat="43.9248386" lon="7.6176939"><ele>874.0</ele><time>2026-04-18T07:28:50.978Z</time></trkpt><trkpt lat="43.9247896" lon="7.6178274"><ele>876.0</ele><time>2026-04-18T07:28:51.977Z</time></trkpt><trkpt lat="43.9247547" lon="7.6179514"><ele>878.0</ele><time>2026-04-18T07:28:52.978Z</time></trkpt><trkpt lat="43.9247293" lon="7.6180453"><ele>880.0</ele><time>2026-04-18T07:28:53.978Z</time></trkpt><trkpt lat="43.9246851" lon="7.6181245"><ele>877.4</ele><time>2026-04-18T07:28:54.978Z</time></trkpt><trkpt lat="43.9245826" lon="7.6182369"><ele>874.8</ele><time>2026-04-18T07:28:56.978Z</time></trkpt><trkpt lat="43.9245025" lon="7.6182707"><ele>872.2</ele><time>2026-04-18T07:28:57.978Z</time></trkpt><trkpt lat="43.9244193" lon="7.6182708"><ele>869.6</ele><time>2026-04-18T07:28:58.978Z</time></trkpt><trkpt lat="43.9243214" lon="7.6181633"><ele>867.0</ele><time>2026-04-18T07:28:59.978Z</time></trkpt><trkpt lat="43.9242256" lon="7.6180864"><ele>867.0</ele><time>2026-04-18T07:29:00.978Z</time></trkpt><trkpt lat="43.9241474" lon="7.6180241"><ele>867.0</ele><time>2026-04-18T07:29:01.978Z</time></trkpt><trkpt lat="43.9240801" lon="7.6179854"><ele>867.0</ele><time>2026-04-18T07:29:02.978Z</time></trkpt><trkpt lat="43.9240187" lon="7.617947"><ele>867.0</ele><time>2026-04-18T07:29:03.978Z</time></trkpt><trkpt lat="43.9239738" lon="7.6178284"><ele>867.0</ele><time>2026-04-18T07:29:05.978Z</time></trkpt><trkpt lat="43.9240342" lon="7.6177743"><ele>867.0</ele><time>2026-04-18T07:29:07.978Z</time></trkpt><trkpt lat="43.9241106" lon="7.6178389"><ele>867.0</ele><time>2026-04-18T07:29:08.978Z</time></trkpt><trkpt lat="43.9241752" lon="7.6178978"><ele>867.0</ele><time>2026-04-18T07:29:09.978Z</time></trkpt><trkpt lat="43.9242443" lon="7.6179337"><ele>867.0</ele><time>2026-04-18T07:29:10.978Z</time></trkpt><trkpt lat="43.9243315" lon="7.617973"><ele>867.0</ele><time>2026-04-18T07:29:11.978Z</time></trkpt><trkpt lat="43.9244177" lon="7.6180049"><ele>867.0</ele><time>2026-04-18T07:29:12.978Z</time></trkpt><trkpt lat="43.9244868" lon="7.6180109"><ele>867.0</ele><time>2026-04-18T07:29:13.978Z</time></trkpt><trkpt lat="43.9245445" lon="7.6179724"><ele>865.0</ele><time>2026-04-18T07:29:14.978Z</time></trkpt><trkpt lat="43.9245883" lon="7.6179037"><ele>863.0</ele><time>2026-04-18T07:29:15.978Z</time></trkpt><trkpt lat="43.9246285" lon="7.6178038"><ele>861.0</ele><time>2026-04-18T07:29:16.977Z</time></trkpt><trkpt lat="43.9246629" lon="7.6176898"><ele>859.0</ele><time>2026-04-18T07:29:17.978Z</time></trkpt><trkpt lat="43.9247042" lon="7.6175684"><ele>857.0</ele><time>2026-04-18T07:29:18.978Z</time></trkpt><trkpt lat="43.9247526" lon="7.6174464"><ele>855.0</ele><time>2026-04-18T07:29:19.978Z</time></trkpt><trkpt lat="43.9247883" lon="7.6173259"><ele>860.0</ele><time>2026-04-18T07:29:20.978Z</time></trkpt><trkpt lat="43.92484" lon="7.6171901"><ele>865.0</ele><time>2026-04-18T07:29:21.978Z</time></trkpt><trkpt lat="43.9248816" lon="7.6170645"><ele>870.0</ele><time>2026-04-18T07:29:22.978Z</time></trkpt><trkpt lat="43.9249275" lon="7.616958"><ele>875.0</ele><time>2026-04-18T07:29:23.978Z</time></trkpt><trkpt lat="43.9249777" lon="7.6168598"><ele>880.0</ele><time>2026-04-18T07:29:24.978Z</time></trkpt><trkpt lat="43.9250357" lon="7.6167723"><ele>883.4999999999999</ele><time>2026-04-18T07:29:25.978Z</time></trkpt><trkpt lat="43.9250888" lon="7.6167177"><ele>887.0</ele><time>2026-04-18T07:29:26.978Z</time></trkpt><trkpt lat="43.9251856" lon="7.6166627"><ele>890.5</ele><time>2026-04-18T07:29:28.978Z</time></trkpt><trkpt lat="43.9252423" lon="7.6167257"><ele>894.0</ele><time>2026-04-18T07:29:29.978Z</time></trkpt><trkpt lat="43.9253286" lon="7.6167738"><ele>897.4999999999999</ele><time>2026-04-18T07:29:30.978Z</time></trkpt><trkpt lat="43.9254014" lon="7.6168462"><ele>901.0</ele><time>2026-04-18T07:29:31.978Z</time></trkpt><trkpt lat="43.9254741" lon="7.616902"><ele>900.9999999999999</ele><time>2026-04-18T07:29:32.978Z</time></trkpt><trkpt lat="43.9255433" lon="7.6169417"><ele>901.0</ele><time>2026-04-18T07:29:33.978Z</time></trkpt><trkpt lat="43.9256205" lon="7.6169434"><ele>901.0</ele><time>2026-04-18T07:29:34.978Z</time></trkpt><trkpt lat="43.9256983" lon="7.6169335"><ele>901.0</ele><time>2026-04-18T07:29:35.978Z</time></trkpt><trkpt lat="43.9257696" lon="7.6169151"><ele>900.9999999999999</ele><time>2026-04-18T07:29:36.978Z</time></trkpt><trkpt lat="43.92585" lon="7.6168674"><ele>901.0</ele><time>2026-04-18T07:29:38.978Z</time></trkpt><trkpt lat="43.9259222" lon="7.6168039"><ele>899.0</ele><time>2026-04-18T07:29:40.978Z</time></trkpt><trkpt lat="43.9260278" lon="7.6167507"><ele>897.0</ele><time>2026-04-18T07:29:42.978Z</time></trkpt><trkpt lat="43.926184" lon="7.6167137"><ele>895.0</ele><time>2026-04-18T07:29:44.978Z</time></trkpt><trkpt lat="43.926282" lon="7.6166828"><ele>893.0</ele><time>2026-04-18T07:29:45.978Z</time></trkpt><trkpt lat="43.9263741" lon="7.6166458"><ele>893.0</ele><time>2026-04-18T07:29:46.978Z</time></trkpt><trkpt lat="43.9264495" lon="7.616589"><ele>893.0</ele><time>2026-04-18T07:29:47.978Z</time></trkpt><trkpt lat="43.9265235" lon="7.6165347"><ele>893.0</ele><time>2026-04-18T07:29:48.978Z</time></trkpt><trkpt lat="43.9265941" lon="7.6164531"><ele>893.0</ele><time>2026-04-18T07:29:49.978Z</time></trkpt><trkpt lat="43.9266584" lon="7.616351"><ele>893.0</ele><time>2026-04-18T07:29:50.978Z</time></trkpt><trkpt lat="43.9267325" lon="7.6162549"><ele>892.5000000000001</ele><time>2026-04-18T07:29:51.978Z</time></trkpt><trkpt lat="43.926818" lon="7.6161956"><ele>892.0</ele><time>2026-04-18T07:29:52.978Z</time></trkpt><trkpt lat="43.9268626" lon="7.6161126"><ele>891.5</ele><time>2026-04-18T07:29:53.978Z</time></trkpt><trkpt lat="43.926898" lon="7.6159948"><ele>891.0</ele><time>2026-04-18T07:29:54.978Z</time></trkpt><trkpt lat="43.9269546" lon="7.6158926"><ele>890.5000000000001</ele><time>2026-04-18T07:29:55.978Z</time></trkpt><trkpt lat="43.9270323" lon="7.6158271"><ele>890.0</ele><time>2026-04-18T07:29:56.978Z</time></trkpt><trkpt lat="43.9271171" lon="7.6157667"><ele>895.4</ele><time>2026-04-18T07:29:57.978Z</time></trkpt><trkpt lat="43.9272036" lon="7.6157247"><ele>900.8</ele><time>2026-04-18T07:29:58.978Z</time></trkpt><trkpt lat="43.9273003" lon="7.6156674"><ele>906.2</ele><time>2026-04-18T07:29:59.978Z</time></trkpt><trkpt lat="43.927414" lon="7.6156343"><ele>911.6</ele><time>2026-04-18T07:30:00.978Z</time></trkpt><trkpt lat="43.9275292" lon="7.6156173"><ele>917.0</ele><time>2026-04-18T07:30:01.978Z</time></trkpt><trkpt lat="43.9276337" lon="7.6155863"><ele>918.4000000000001</ele><time>2026-04-18T07:30:02.978Z</time></trkpt><trkpt lat="43.9277169" lon="7.6155807"><ele>919.8000000000001</ele><time>2026-04-18T07:30:03.978Z</time></trkpt><trkpt lat="43.9278113" lon="7.6156413"><ele>921.2</ele><time>2026-04-18T07:30:04.978Z</time></trkpt><trkpt lat="43.9279144" lon="7.6157064"><ele>922.6</ele><time>2026-04-18T07:30:05.978Z</time></trkpt><trkpt lat="43.9280207" lon="7.6157488"><ele>924.0</ele><time>2026-04-18T07:30:06.978Z</time></trkpt><trkpt lat="43.9281322" lon="7.6157568"><ele>924.0</ele><time>2026-04-18T07:30:07.978Z</time></trkpt><trkpt lat="43.9282371" lon="7.6157565"><ele>924.0000000000001</ele><time>2026-04-18T07:30:08.978Z</time></trkpt><trkpt lat="43.9283219" lon="7.6157712"><ele>924.0000000000001</ele><time>2026-04-18T07:30:09.978Z</time></trkpt><trkpt lat="43.9284052" lon="7.615762"><ele>924.0</ele><time>2026-04-18T07:30:10.978Z</time></trkpt><trkpt lat="43.9285014" lon="7.6157286"><ele>924.0</ele><time>2026-04-18T07:30:11.978Z</time></trkpt><trkpt lat="43.928596" lon="7.6156629"><ele>925.0</ele><time>2026-04-18T07:30:12.978Z</time></trkpt><trkpt lat="43.9286812" lon="7.6155864"><ele>926.0000000000001</ele><time>2026-04-18T07:30:13.978Z</time></trkpt><trkpt lat="43.9287441" lon="7.6154959"><ele>927.0000000000001</ele><time>2026-04-18T07:30:14.978Z</time></trkpt><trkpt lat="43.9288013" lon="7.615393"><ele>928.0</ele><time>2026-04-18T07:30:15.978Z</time></trkpt><trkpt lat="43.9288379" lon="7.6152874"><ele>929.0</ele><time>2026-04-18T07:30:16.978Z</time></trkpt><trkpt lat="43.928852" lon="7.6151581"><ele>929.0</ele><time>2026-04-18T07:30:17.978Z</time></trkpt><trkpt lat="43.9288765" lon="7.6150164"><ele>929.0</ele><time>2026-04-18T07:30:18.978Z</time></trkpt><trkpt lat="43.9288958" lon="7.6148513"><ele>929.0</ele><time>2026-04-18T07:30:19.978Z</time></trkpt><trkpt lat="43.928921" lon="7.6146835"><ele>929.0</ele><time>2026-04-18T07:30:20.978Z</time></trkpt><trkpt lat="43.9289434" lon="7.61452"><ele>931.8333333333334</ele><time>2026-04-18T07:30:21.978Z</time></trkpt><trkpt lat="43.9289619" lon="7.6143835"><ele>934.6666666666667</ele><time>2026-04-18T07:30:22.978Z</time></trkpt><trkpt lat="43.9289627" lon="7.614252"><ele>937.5</ele><time>2026-04-18T07:30:23.978Z</time></trkpt><trkpt lat="43.9289832" lon="7.6141399"><ele>940.3333333333333</ele><time>2026-04-18T07:30:24.978Z</time></trkpt><trkpt lat="43.9289994" lon="7.6140456"><ele>943.1666666666666</ele><time>2026-04-18T07:30:25.978Z</time></trkpt><trkpt lat="43.9290479" lon="7.613972"><ele>946.0</ele><time>2026-04-18T07:30:26.978Z</time></trkpt><trkpt lat="43.929092" lon="7.6138974"><ele>946.0</ele><time>2026-04-18T07:30:27.978Z</time></trkpt><trkpt lat="43.9292204" lon="7.6138083"><ele>945.9999999999999</ele><time>2026-04-18T07:30:29.978Z</time></trkpt><trkpt lat="43.9293147" lon="7.6138019"><ele>945.9999999999999</ele><time>2026-04-18T07:30:30.978Z</time></trkpt><trkpt lat="43.9293933" lon="7.6137569"><ele>946.0</ele><time>2026-04-18T07:30:31.978Z</time></trkpt><trkpt lat="43.9294605" lon="7.6136756"><ele>946.0</ele><time>2026-04-18T07:30:32.977Z</time></trkpt><trkpt lat="43.9295265" lon="7.6135784"><ele>944.5999999999999</ele><time>2026-04-18T07:30:33.978Z</time></trkpt><trkpt lat="43.9295584" lon="7.6134599"><ele>943.1999999999999</ele><time>2026-04-18T07:30:34.978Z</time></trkpt><trkpt lat="43.929559" lon="7.6133221"><ele>941.8000000000001</ele><time>2026-04-18T07:30:35.978Z</time></trkpt><trkpt lat="43.9295472" lon="7.6131808"><ele>940.4000000000001</ele><time>2026-04-18T07:30:36.978Z</time></trkpt><trkpt lat="43.9295478" lon="7.6130536"><ele>939.0</ele><time>2026-04-18T07:30:37.978Z</time></trkpt><trkpt lat="43.9295416" lon="7.6129448"><ele>939.0</ele><time>2026-04-18T07:30:38.978Z</time></trkpt><trkpt lat="43.9295583" lon="7.6128599"><ele>939.0</ele><time>2026-04-18T07:30:39.978Z</time></trkpt><trkpt lat="43.9295807" lon="7.6127664"><ele>939.0</ele><time>2026-04-18T07:30:40.977Z</time></trkpt><trkpt lat="43.9296339" lon="7.6127106"><ele>939.0</ele><time>2026-04-18T07:30:41.978Z</time></trkpt><trkpt lat="43.929704" lon="7.6126538"><ele>939.0</ele><time>2026-04-18T07:30:42.978Z</time></trkpt><trkpt lat="43.9298311" lon="7.6125633"><ele>939.0</ele><time>2026-04-18T07:30:43.978Z</time></trkpt><trkpt lat="43.9299251" lon="7.6124568"><ele>939.2</ele><time>2026-04-18T07:30:44.977Z</time></trkpt><trkpt lat="43.9300004" lon="7.6123767"><ele>939.4000000000001</ele><time>2026-04-18T07:30:45.978Z</time></trkpt><trkpt lat="43.9300583" lon="7.6123031"><ele>939.6</ele><time>2026-04-18T07:30:46.977Z</time></trkpt><trkpt lat="43.930128" lon="7.6122098"><ele>939.8</ele><time>2026-04-18T07:30:47.978Z</time></trkpt><trkpt lat="43.9301511" lon="7.6120687"><ele>940.0</ele><time>2026-04-18T07:30:48.977Z</time></trkpt><trkpt lat="43.9301602" lon="7.6119326"><ele>945.4</ele><time>2026-04-18T07:30:49.978Z</time></trkpt><trkpt lat="43.930185" lon="7.6118207"><ele>950.8</ele><time>2026-04-18T07:30:50.978Z</time></trkpt><trkpt lat="43.9302273" lon="7.6117148"><ele>956.2</ele><time>2026-04-18T07:30:51.978Z</time></trkpt><trkpt lat="43.9302991" lon="7.6116128"><ele>961.6</ele><time>2026-04-18T07:30:52.978Z</time></trkpt><trkpt lat="43.9303777" lon="7.6115224"><ele>967.0</ele><time>2026-04-18T07:30:53.978Z</time></trkpt><trkpt lat="43.9304532" lon="7.6114702"><ele>967.0</ele><time>2026-04-18T07:30:54.978Z</time></trkpt><trkpt lat="43.9305264" lon="7.6114285"><ele>967.0</ele><time>2026-04-18T07:30:55.978Z</time></trkpt><trkpt lat="43.9306135" lon="7.611409"><ele>967.0</ele><time>2026-04-18T07:30:56.978Z</time></trkpt><trkpt lat="43.9307099" lon="7.6114172"><ele>967.0</ele><time>2026-04-18T07:30:57.978Z</time></trkpt><trkpt lat="43.9307968" lon="7.6114469"><ele>967.0</ele><time>2026-04-18T07:30:58.978Z</time></trkpt><trkpt lat="43.9308855" lon="7.6115117"><ele>968.0</ele><time>2026-04-18T07:30:59.978Z</time></trkpt><trkpt lat="43.9309788" lon="7.611562"><ele>969.0</ele><time>2026-04-18T07:31:00.978Z</time></trkpt><trkpt lat="43.9310868" lon="7.611598"><ele>970.0</ele><time>2026-04-18T07:31:01.978Z</time></trkpt><trkpt lat="43.931183" lon="7.6116441"><ele>971.0</ele><time>2026-04-18T07:31:02.978Z</time></trkpt><trkpt lat="43.9312724" lon="7.6116926"><ele>972.0</ele><time>2026-04-18T07:31:03.978Z</time></trkpt><trkpt lat="43.931343" lon="7.6117649"><ele>972.0</ele><time>2026-04-18T07:31:04.978Z</time></trkpt><trkpt lat="43.9313994" lon="7.6118333"><ele>972.0</ele><time>2026-04-18T07:31:05.977Z</time></trkpt><trkpt lat="43.9314953" lon="7.6118143"><ele>972.0</ele><time>2026-04-18T07:31:07.977Z</time></trkpt><trkpt lat="43.9315337" lon="7.6117053"><ele>972.0</ele><time>2026-04-18T07:31:09.978Z</time></trkpt><trkpt lat="43.9314865" lon="7.6115942"><ele>972.0</ele><time>2026-04-18T07:31:11.978Z</time></trkpt><trkpt lat="43.931375" lon="7.6115533"><ele>972.0</ele><time>2026-04-18T07:31:12.978Z</time></trkpt><trkpt lat="43.9312423" lon="7.6115177"><ele>972.0</ele><time>2026-04-18T07:31:13.978Z</time></trkpt><trkpt lat="43.9311171" lon="7.6114897"><ele>972.0</ele><time>2026-04-18T07:31:14.978Z</time></trkpt><trkpt lat="43.9310014" lon="7.611437"><ele>972.0</ele><time>2026-04-18T07:31:15.978Z</time></trkpt><trkpt lat="43.9308973" lon="7.611371"><ele>971.0</ele><time>2026-04-18T07:31:16.978Z</time></trkpt><trkpt lat="43.9307996" lon="7.6113088"><ele>970.0</ele><time>2026-04-18T07:31:17.978Z</time></trkpt><trkpt lat="43.9307024" lon="7.6112395"><ele>969.0</ele><time>2026-04-18T07:31:18.978Z</time></trkpt><trkpt lat="43.9306059" lon="7.6112369"><ele>968.0</ele><time>2026-04-18T07:31:19.978Z</time></trkpt><trkpt lat="43.9305131" lon="7.6112266"><ele>967.0</ele><time>2026-04-18T07:31:20.978Z</time></trkpt><trkpt lat="43.9304211" lon="7.6112442"><ele>967.0</ele><time>2026-04-18T07:31:21.978Z</time></trkpt><trkpt lat="43.9303375" lon="7.6112539"><ele>967.0</ele><time>2026-04-18T07:31:22.978Z</time></trkpt><trkpt lat="43.9302649" lon="7.6113177"><ele>967.0</ele><time>2026-04-18T07:31:23.978Z</time></trkpt><trkpt lat="43.9301799" lon="7.6114497"><ele>967.0</ele><time>2026-04-18T07:31:24.978Z</time></trkpt><trkpt lat="43.9300763" lon="7.6115302"><ele>967.0</ele><time>2026-04-18T07:31:25.977Z</time></trkpt><trkpt lat="43.9299868" lon="7.6116306"><ele>966.25</ele><time>2026-04-18T07:31:26.978Z</time></trkpt><trkpt lat="43.9299026" lon="7.6117721"><ele>965.5</ele><time>2026-04-18T07:31:27.978Z</time></trkpt><trkpt lat="43.9297987" lon="7.6118827"><ele>964.75</ele><time>2026-04-18T07:31:28.978Z</time></trkpt><trkpt lat="43.929683" lon="7.6119911"><ele>964.0</ele><time>2026-04-18T07:31:29.978Z</time></trkpt><trkpt lat="43.9295819" lon="7.6120953"><ele>964.0</ele><time>2026-04-18T07:31:30.978Z</time></trkpt><trkpt lat="43.9294554" lon="7.6122087"><ele>964.0</ele><time>2026-04-18T07:31:31.978Z</time></trkpt><trkpt lat="43.9293464" lon="7.6123214"><ele>964.0</ele><time>2026-04-18T07:31:32.978Z</time></trkpt><trkpt lat="43.929246" lon="7.6124185"><ele>964.0</ele><time>2026-04-18T07:31:33.978Z</time></trkpt><trkpt lat="43.9291323" lon="7.6125072"><ele>968.25</ele><time>2026-04-18T07:31:34.978Z</time></trkpt><trkpt lat="43.9290245" lon="7.6125832"><ele>972.5</ele><time>2026-04-18T07:31:35.978Z</time></trkpt><trkpt lat="43.9289132" lon="7.6126603"><ele>976.75</ele><time>2026-04-18T07:31:36.978Z</time></trkpt><trkpt lat="43.9288026" lon="7.612728"><ele>981.0</ele><time>2026-04-18T07:31:37.978Z</time></trkpt><trkpt lat="43.9286865" lon="7.6127821"><ele>981.0</ele><time>2026-04-18T07:31:38.978Z</time></trkpt><trkpt lat="43.9285769" lon="7.6128198"><ele>980.9999999999999</ele><time>2026-04-18T07:31:39.978Z</time></trkpt><trkpt lat="43.9284848" lon="7.6128698"><ele>980.9999999999999</ele><time>2026-04-18T07:31:40.978Z</time></trkpt><trkpt lat="43.9283834" lon="7.6129367"><ele>981.0</ele><time>2026-04-18T07:31:41.977Z</time></trkpt><trkpt lat="43.9282891" lon="7.6130126"><ele>981.0</ele><time>2026-04-18T07:31:42.978Z</time></trkpt><trkpt lat="43.9282256" lon="7.6130899"><ele>981.4</ele><time>2026-04-18T07:31:43.977Z</time></trkpt><trkpt lat="43.9281408" lon="7.6131907"><ele>981.8</ele><time>2026-04-18T07:31:45.977Z</time></trkpt><trkpt lat="43.9280748" lon="7.6131957"><ele>982.1999999999999</ele><time>2026-04-18T07:31:47.977Z</time></trkpt><trkpt lat="43.928131" lon="7.613015"><ele>982.5999999999999</ele><time>2026-04-18T07:31:49.978Z</time></trkpt><trkpt lat="43.928211" lon="7.6129088"><ele>983.0</ele><time>2026-04-18T07:31:50.978Z</time></trkpt><trkpt lat="43.9282899" lon="7.6128147"><ele>982.5</ele><time>2026-04-18T07:31:51.978Z</time></trkpt><trkpt lat="43.928381" lon="7.6127161"><ele>982.0</ele><time>2026-04-18T07:31:52.978Z</time></trkpt><trkpt lat="43.9284656" lon="7.6126089"><ele>981.5</ele><time>2026-04-18T07:31:53.978Z</time></trkpt><trkpt lat="43.9285648" lon="7.6125223"><ele>981.0</ele><time>2026-04-18T07:31:54.978Z</time></trkpt><trkpt lat="43.9286587" lon="7.6124526"><ele>981.0</ele><time>2026-04-18T07:31:55.977Z</time></trkpt><trkpt lat="43.928744" lon="7.6123754"><ele>980.9999999999999</ele><time>2026-04-18T07:31:56.978Z</time></trkpt><trkpt lat="43.9288037" lon="7.6122827"><ele>980.9999999999999</ele><time>2026-04-18T07:31:57.978Z</time></trkpt><trkpt lat="43.9288515" lon="7.6121907"><ele>981.0</ele><time>2026-04-18T07:31:58.978Z</time></trkpt><trkpt lat="43.9288792" lon="7.6120655"><ele>981.0</ele><time>2026-04-18T07:31:59.978Z</time></trkpt><trkpt lat="43.9289091" lon="7.6119325"><ele>984.8</ele><time>2026-04-18T07:32:00.978Z</time></trkpt><trkpt lat="43.9289514" lon="7.6117918"><ele>988.5999999999999</ele><time>2026-04-18T07:32:01.978Z</time></trkpt><trkpt lat="43.9289939" lon="7.6116527"><ele>992.4</ele><time>2026-04-18T07:32:02.978Z</time></trkpt><trkpt lat="43.9290227" lon="7.6115286"><ele>996.2</ele><time>2026-04-18T07:32:03.978Z</time></trkpt><trkpt lat="43.9290489" lon="7.6114128"><ele>1000.0</ele><time>2026-04-18T07:32:04.978Z</time></trkpt><trkpt lat="43.9290816" lon="7.6113244"><ele>1000.0</ele><time>2026-04-18T07:32:05.978Z</time></trkpt><trkpt lat="43.929178" lon="7.6112479"><ele>1000.0</ele><time>2026-04-18T07:32:07.978Z</time></trkpt><trkpt lat="43.9292459" lon="7.6111924"><ele>1000.0</ele><time>2026-04-18T07:32:08.978Z</time></trkpt><trkpt lat="43.9293411" lon="7.6111294"><ele>1000.0</ele><time>2026-04-18T07:32:09.978Z</time></trkpt><trkpt lat="43.9294399" lon="7.6110343"><ele>1000.0</ele><time>2026-04-18T07:32:10.977Z</time></trkpt><trkpt lat="43.9295263" lon="7.610921"><ele>1002.0</ele><time>2026-04-18T07:32:11.978Z</time></trkpt><trkpt lat="43.9296187" lon="7.610824"><ele>1004.0</ele><time>2026-04-18T07:32:12.978Z</time></trkpt><trkpt lat="43.9297248" lon="7.6107182"><ele>1006.0</ele><time>2026-04-18T07:32:13.978Z</time></trkpt><trkpt lat="43.9298279" lon="7.6106443"><ele>1008.0</ele><time>2026-04-18T07:32:14.978Z</time></trkpt><trkpt lat="43.9299339" lon="7.6105558"><ele>1008.0</ele><time>2026-04-18T07:32:15.978Z</time></trkpt><trkpt lat="43.9300441" lon="7.6104762"><ele>1008.0</ele><time>2026-04-18T07:32:16.978Z</time></trkpt><trkpt lat="43.9301505" lon="7.6104157"><ele>1008.0</ele><time>2026-04-18T07:32:17.978Z</time></trkpt><trkpt lat="43.9302445" lon="7.6103565"><ele>1008.0</ele><time>2026-04-18T07:32:18.977Z</time></trkpt><trkpt lat="43.9303471" lon="7.6103364"><ele>1008.0</ele><time>2026-04-18T07:32:19.978Z</time></trkpt><trkpt lat="43.9304439" lon="7.6103243"><ele>1009.25</ele><time>2026-04-18T07:32:20.978Z</time></trkpt><trkpt lat="43.9305589" lon="7.6103756"><ele>1010.5</ele><time>2026-04-18T07:32:21.977Z</time></trkpt><trkpt lat="43.9306787" lon="7.6104272"><ele>1011.75</ele><time>2026-04-18T07:32:22.978Z</time></trkpt><trkpt lat="43.9307974" lon="7.6104634"><ele>1013.0</ele><time>2026-04-18T07:32:23.978Z</time></trkpt><trkpt lat="43.9309062" lon="7.6104874"><ele>1013.0</ele><time>2026-04-18T07:32:24.978Z</time></trkpt><trkpt lat="43.9310139" lon="7.6104971"><ele>1013.0</ele><time>2026-04-18T07:32:25.978Z</time></trkpt><trkpt lat="43.9311339" lon="7.6104724"><ele>1013.0</ele><time>2026-04-18T07:32:26.978Z</time></trkpt><trkpt lat="43.9312598" lon="7.6104486"><ele>1013.0</ele><time>2026-04-18T07:32:27.978Z</time></trkpt><trkpt lat="43.9313898" lon="7.6104105"><ele>1013.0</ele><time>2026-04-18T07:32:28.978Z</time></trkpt><trkpt lat="43.9315165" lon="7.6103677"><ele>1013.0</ele><time>2026-04-18T07:32:29.978Z</time></trkpt><trkpt lat="43.9316497" lon="7.6103132"><ele>1013.0</ele><time>2026-04-18T07:32:30.978Z</time></trkpt><trkpt lat="43.9317643" lon="7.610269"><ele>1013.0</ele><time>2026-04-18T07:32:31.978Z</time></trkpt><trkpt lat="43.9318568" lon="7.6102153"><ele>1021.5999999999999</ele><time>2026-04-18T07:32:32.978Z</time></trkpt><trkpt lat="43.9319479" lon="7.6101613"><ele>1030.1999999999998</ele><time>2026-04-18T07:32:33.978Z</time></trkpt><trkpt lat="43.9320499" lon="7.6101447"><ele>1038.8</ele><time>2026-04-18T07:32:34.978Z</time></trkpt><trkpt lat="43.9321278" lon="7.6101403"><ele>1047.3999999999999</ele><time>2026-04-18T07:32:35.978Z</time></trkpt><trkpt lat="43.9322132" lon="7.6101809"><ele>1056.0</ele><time>2026-04-18T07:32:36.977Z</time></trkpt><trkpt lat="43.932296" lon="7.6102454"><ele>1050.3999999999999</ele><time>2026-04-18T07:32:37.978Z</time></trkpt><trkpt lat="43.9323843" lon="7.6103412"><ele>1044.8</ele><time>2026-04-18T07:32:38.978Z</time></trkpt><trkpt lat="43.9324943" lon="7.6103836"><ele>1039.1999999999998</ele><time>2026-04-18T07:32:39.978Z</time></trkpt><trkpt lat="43.9325945" lon="7.6104231"><ele>1033.6</ele><time>2026-04-18T07:32:40.978Z</time></trkpt><trkpt lat="43.9327033" lon="7.6104151"><ele>1028.0</ele><time>2026-04-18T07:32:41.978Z</time></trkpt><trkpt lat="43.932821" lon="7.6103666"><ele>1033.6</ele><time>2026-04-18T07:32:42.978Z</time></trkpt><trkpt lat="43.932934" lon="7.610315"><ele>1039.1999999999998</ele><time>2026-04-18T07:32:43.978Z</time></trkpt><trkpt lat="43.9330373" lon="7.6102752"><ele>1044.8</ele><time>2026-04-18T07:32:44.978Z</time></trkpt><trkpt lat="43.9331316" lon="7.6102387"><ele>1050.3999999999999</ele><time>2026-04-18T07:32:45.978Z</time></trkpt><trkpt lat="43.9332358" lon="7.6102191"><ele>1056.0</ele><time>2026-04-18T07:32:46.978Z</time></trkpt><trkpt lat="43.9333248" lon="7.6102629"><ele>1056.3999999999999</ele><time>2026-04-18T07:32:47.978Z</time></trkpt><trkpt lat="43.9334216" lon="7.610309"><ele>1056.8</ele><time>2026-04-18T07:32:48.978Z</time></trkpt><trkpt lat="43.9335018" lon="7.610325"><ele>1057.1999999999998</ele><time>2026-04-18T07:32:49.978Z</time></trkpt><trkpt lat="43.9336108" lon="7.6102956"><ele>1057.6</ele><time>2026-04-18T07:32:51.978Z</time></trkpt><trkpt lat="43.9336777" lon="7.6102308"><ele>1058.0</ele><time>2026-04-18T07:32:52.978Z</time></trkpt><trkpt lat="43.9337563" lon="7.6101399"><ele>1058.0</ele><time>2026-04-18T07:32:53.978Z</time></trkpt><trkpt lat="43.9338447" lon="7.610048"><ele>1058.0</ele><time>2026-04-18T07:32:54.978Z</time></trkpt><trkpt lat="43.93391" lon="7.6099947"><ele>1058.0</ele><time>2026-04-18T07:32:55.978Z</time></trkpt><trkpt lat="43.9339743" lon="7.6099227"><ele>1058.0</ele><time>2026-04-18T07:32:56.978Z</time></trkpt><trkpt lat="43.9340486" lon="7.6098805"><ele>1058.0</ele><time>2026-04-18T07:32:57.978Z</time></trkpt><trkpt lat="43.9341251" lon="7.609852"><ele>1058.0</ele><time>2026-04-18T07:32:58.978Z</time></trkpt><trkpt lat="43.9342132" lon="7.6098473"><ele>1064.75</ele><time>2026-04-18T07:32:59.978Z</time></trkpt><trkpt lat="43.9343022" lon="7.6099497"><ele>1071.5</ele><time>2026-04-18T07:33:00.978Z</time></trkpt><trkpt lat="43.934401" lon="7.6100306"><ele>1078.25</ele><time>2026-04-18T07:33:01.978Z</time></trkpt><trkpt lat="43.9345038" lon="7.6101582"><ele>1085.0</ele><time>2026-04-18T07:33:02.978Z</time></trkpt><trkpt lat="43.9346124" lon="7.6102739"><ele>1083.25</ele><time>2026-04-18T07:33:03.978Z</time></trkpt><trkpt lat="43.9347278" lon="7.6103796"><ele>1081.5</ele><time>2026-04-18T07:33:04.978Z</time></trkpt><trkpt lat="43.9348426" lon="7.6104879"><ele>1079.75</ele><time>2026-04-18T07:33:05.978Z</time></trkpt><trkpt lat="43.9349565" lon="7.6105792"><ele>1078.0</ele><time>2026-04-18T07:33:06.978Z</time></trkpt><trkpt lat="43.9350662" lon="7.6106552"><ele>1078.0</ele><time>2026-04-18T07:33:07.978Z</time></trkpt><trkpt lat="43.9351814" lon="7.610722"><ele>1078.0</ele><time>2026-04-18T07:33:08.978Z</time></trkpt><trkpt lat="43.9353102" lon="7.6107882"><ele>1078.0</ele><time>2026-04-18T07:33:09.978Z</time></trkpt><trkpt lat="43.9354238" lon="7.6108458"><ele>1078.0</ele><time>2026-04-18T07:33:10.978Z</time></trkpt><trkpt lat="43.9355245" lon="7.610914"><ele>1078.0</ele><time>2026-04-18T07:33:11.978Z</time></trkpt><trkpt lat="43.9356346" lon="7.6109918"><ele>1078.0</ele><time>2026-04-18T07:33:12.978Z</time></trkpt><trkpt lat="43.9357419" lon="7.6110708"><ele>1078.0</ele><time>2026-04-18T07:33:13.978Z</time></trkpt><trkpt lat="43.9358512" lon="7.6111653"><ele>1078.0</ele><time>2026-04-18T07:33:14.977Z</time></trkpt><trkpt lat="43.9359544" lon="7.6112674"><ele>1078.75</ele><time>2026-04-18T07:33:15.978Z</time></trkpt><trkpt lat="43.9360516" lon="7.6113867"><ele>1079.5</ele><time>2026-04-18T07:33:16.978Z</time></trkpt><trkpt lat="43.9361611" lon="7.6114996"><ele>1080.25</ele><time>2026-04-18T07:33:17.978Z</time></trkpt><trkpt lat="43.9362647" lon="7.6116047"><ele>1081.0</ele><time>2026-04-18T07:33:18.978Z</time></trkpt><trkpt lat="43.9363641" lon="7.6117026"><ele>1081.0</ele><time>2026-04-18T07:33:19.978Z</time></trkpt><trkpt lat="43.9364507" lon="7.6117941"><ele>1081.0</ele><time>2026-04-18T07:33:20.978Z</time></trkpt><trkpt lat="43.9365404" lon="7.6118298"><ele>1081.0</ele><time>2026-04-18T07:33:21.978Z</time></trkpt><trkpt lat="43.9366226" lon="7.6118903"><ele>1081.0</ele><time>2026-04-18T07:33:22.977Z</time></trkpt><trkpt lat="43.9367139" lon="7.611848"><ele>1081.0</ele><time>2026-04-18T07:33:23.978Z</time></trkpt><trkpt lat="43.9368023" lon="7.6118115"><ele>1080.6</ele><time>2026-04-18T07:33:24.978Z</time></trkpt><trkpt lat="43.9368772" lon="7.6117969"><ele>1080.1999999999998</ele><time>2026-04-18T07:33:25.978Z</time></trkpt><trkpt lat="43.9369374" lon="7.6118584"><ele>1079.8000000000002</ele><time>2026-04-18T07:33:26.978Z</time></trkpt><trkpt lat="43.9369885" lon="7.6119273"><ele>1079.4</ele><time>2026-04-18T07:33:27.978Z</time></trkpt><trkpt lat="43.9370387" lon="7.6120862"><ele>1079.0</ele><time>2026-04-18T07:33:28.978Z</time></trkpt><trkpt lat="43.9371047" lon="7.6122199"><ele>1079.0</ele><time>2026-04-18T07:33:29.978Z</time></trkpt><trkpt lat="43.9371771" lon="7.6123325"><ele>1079.0</ele><time>2026-04-18T07:33:30.978Z</time></trkpt><trkpt lat="43.9372625" lon="7.6124204"><ele>1079.0</ele><time>2026-04-18T07:33:31.978Z</time></trkpt><trkpt lat="43.9373578" lon="7.6125073"><ele>1079.0</ele><time>2026-04-18T07:33:32.978Z</time></trkpt><trkpt lat="43.9374556" lon="7.6125469"><ele>1079.0</ele><time>2026-04-18T07:33:33.978Z</time></trkpt><trkpt lat="43.9375444" lon="7.6125873"><ele>1081.8</ele><time>2026-04-18T07:33:34.978Z</time></trkpt><trkpt lat="43.9376269" lon="7.6126294"><ele>1084.6000000000001</ele><time>2026-04-18T07:33:35.978Z</time></trkpt><trkpt lat="43.9377237" lon="7.6126902"><ele>1087.4</ele><time>2026-04-18T07:33:36.978Z</time></trkpt><trkpt lat="43.9378139" lon="7.612771"><ele>1090.2</ele><time>2026-04-18T07:33:37.978Z</time></trkpt><trkpt lat="43.9379115" lon="7.6128282"><ele>1093.0</ele><time>2026-04-18T07:33:38.978Z</time></trkpt><trkpt lat="43.9380285" lon="7.6129505"><ele>1093.0</ele><time>2026-04-18T07:33:39.978Z</time></trkpt><trkpt lat="43.938135" lon="7.6130752"><ele>1093.0</ele><time>2026-04-18T07:33:40.978Z</time></trkpt><trkpt lat="43.9382209" lon="7.6131955"><ele>1093.0</ele><time>2026-04-18T07:33:41.977Z</time></trkpt><trkpt lat="43.9382863" lon="7.6133166"><ele>1093.0</ele><time>2026-04-18T07:33:42.978Z</time></trkpt><trkpt lat="43.9383474" lon="7.6134413"><ele>1100.75</ele><time>2026-04-18T07:33:43.978Z</time></trkpt><trkpt lat="43.9384203" lon="7.613564"><ele>1108.5</ele><time>2026-04-18T07:33:44.978Z</time></trkpt><trkpt lat="43.9384822" lon="7.6136917"><ele>1116.25</ele><time>2026-04-18T07:33:45.978Z</time></trkpt><trkpt lat="43.9385391" lon="7.6138495"><ele>1124.0</ele><time>2026-04-18T07:33:46.978Z</time></trkpt><trkpt lat="43.938588" lon="7.6139892"><ele>1124.0</ele><time>2026-04-18T07:33:47.978Z</time></trkpt><trkpt lat="43.9386559" lon="7.6141145"><ele>1124.0</ele><time>2026-04-18T07:33:48.978Z</time></trkpt><trkpt lat="43.9387207" lon="7.6142251"><ele>1124.0</ele><time>2026-04-18T07:33:49.978Z</time></trkpt><trkpt lat="43.938784" lon="7.6143326"><ele>1124.0</ele><time>2026-04-18T07:33:50.978Z</time></trkpt><trkpt lat="43.9388107" lon="7.6144664"><ele>1124.0</ele><time>2026-04-18T07:33:51.977Z</time></trkpt><trkpt lat="43.9387872" lon="7.6145894"><ele>1121.5</ele><time>2026-04-18T07:33:52.978Z</time></trkpt><trkpt lat="43.938753" lon="7.6147753"><ele>1119.0</ele><time>2026-04-18T07:33:53.978Z</time></trkpt><trkpt lat="43.9387481" lon="7.6149599"><ele>1116.5</ele><time>2026-04-18T07:33:54.978Z</time></trkpt><trkpt lat="43.9387848" lon="7.6151334"><ele>1114.0</ele><time>2026-04-18T07:33:55.977Z</time></trkpt><trkpt lat="43.9388306" lon="7.6153085"><ele>1111.5</ele><time>2026-04-18T07:33:56.978Z</time></trkpt><trkpt lat="43.938875" lon="7.615492"><ele>1109.0</ele><time>2026-04-18T07:33:57.977Z</time></trkpt><trkpt lat="43.9389266" lon="7.6156662"><ele>1106.5</ele><time>2026-04-18T07:33:58.978Z</time></trkpt><trkpt lat="43.9389777" lon="7.615829"><ele>1104.0</ele><time>2026-04-18T07:33:59.978Z</time></trkpt><trkpt lat="43.9390272" lon="7.6159847"><ele>1104.0</ele><time>2026-04-18T07:34:00.978Z</time></trkpt><trkpt lat="43.9390824" lon="7.6161393"><ele>1104.0</ele><time>2026-04-18T07:34:01.978Z</time></trkpt><trkpt lat="43.9391354" lon="7.6162716"><ele>1104.0</ele><time>2026-04-18T07:34:02.978Z</time></trkpt><trkpt lat="43.939187" lon="7.616391"><ele>1104.0</ele><time>2026-04-18T07:34:03.978Z</time></trkpt><trkpt lat="43.939231" lon="7.6164976"><ele>1104.0</ele><time>2026-04-18T07:34:04.977Z</time></trkpt><trkpt lat="43.9392653" lon="7.6165753"><ele>1108.8</ele><time>2026-04-18T07:34:05.978Z</time></trkpt><trkpt lat="43.9393488" lon="7.6166283"><ele>1113.6000000000001</ele><time>2026-04-18T07:34:07.978Z</time></trkpt><trkpt lat="43.9394136" lon="7.6165867"><ele>1118.4</ele><time>2026-04-18T07:34:09.977Z</time></trkpt><trkpt lat="43.9394339" lon="7.6164643"><ele>1123.2</ele><time>2026-04-18T07:34:25.978Z</time></trkpt><trkpt lat="43.9393798" lon="7.6163956"><ele>1128.0</ele><time>2026-04-18T07:34:26.978Z</time></trkpt><trkpt lat="43.9392705" lon="7.6162711"><ele>1128.0</ele><time>2026-04-18T07:34:28.978Z</time></trkpt><trkpt lat="43.9392241" lon="7.6161699"><ele>1128.0</ele><time>2026-04-18T07:34:29.977Z</time></trkpt><trkpt lat="43.9391878" lon="7.6160544"><ele>1128.0</ele><time>2026-04-18T07:34:30.978Z</time></trkpt><trkpt lat="43.9391561" lon="7.6159263"><ele>1128.0</ele><time>2026-04-18T07:34:31.978Z</time></trkpt><trkpt lat="43.9391345" lon="7.6158031"><ele>1128.0</ele><time>2026-04-18T07:34:32.978Z</time></trkpt><trkpt lat="43.9391051" lon="7.6156744"><ele>1124.5</ele><time>2026-04-18T07:34:33.978Z</time></trkpt><trkpt lat="43.9390662" lon="7.6155448"><ele>1121.0</ele><time>2026-04-18T07:34:34.978Z</time></trkpt><trkpt lat="43.9390418" lon="7.6153812"><ele>1117.5</ele><time>2026-04-18T07:34:35.978Z</time></trkpt><trkpt lat="43.9390291" lon="7.6152212"><ele>1114.0</ele><time>2026-04-18T07:34:36.977Z</time></trkpt><trkpt lat="43.9390147" lon="7.6150457"><ele>1114.0</ele><time>2026-04-18T07:34:37.978Z</time></trkpt><trkpt lat="43.9389964" lon="7.6148715"><ele>1114.0</ele><time>2026-04-18T07:34:38.978Z</time></trkpt><trkpt lat="43.9390083" lon="7.6146704"><ele>1114.0</ele><time>2026-04-18T07:34:39.978Z</time></trkpt><trkpt lat="43.9390374" lon="7.6144582"><ele>1114.0</ele><time>2026-04-18T07:34:40.978Z</time></trkpt><trkpt lat="43.9390607" lon="7.6142942"><ele>1116.0</ele><time>2026-04-18T07:34:41.978Z</time></trkpt><trkpt lat="43.9390728" lon="7.6141477"><ele>1118.0</ele><time>2026-04-18T07:34:42.978Z</time></trkpt><trkpt lat="43.9390669" lon="7.6140039"><ele>1120.0</ele><time>2026-04-18T07:34:43.978Z</time></trkpt><trkpt lat="43.9390163" lon="7.6138695"><ele>1122.0</ele><time>2026-04-18T07:34:44.978Z</time></trkpt><trkpt lat="43.938959" lon="7.6137362"><ele>1124.0</ele><time>2026-04-18T07:34:45.978Z</time></trkpt><trkpt lat="43.9389074" lon="7.6135985"><ele>1126.6000000000001</ele><time>2026-04-18T07:34:46.978Z</time></trkpt><trkpt lat="43.9388632" lon="7.6134716"><ele>1129.2</ele><time>2026-04-18T07:34:47.978Z</time></trkpt><trkpt lat="43.9388409" lon="7.6133491"><ele>1131.8000000000002</ele><time>2026-04-18T07:34:48.978Z</time></trkpt><trkpt lat="43.9388117" lon="7.6132268"><ele>1134.4</ele><time>2026-04-18T07:34:49.978Z</time></trkpt><trkpt lat="43.9387592" lon="7.6131174"><ele>1137.0</ele><time>2026-04-18T07:34:50.977Z</time></trkpt><trkpt lat="43.9387074" lon="7.6130001"><ele>1137.0</ele><time>2026-04-18T07:34:51.978Z</time></trkpt><trkpt lat="43.9386711" lon="7.6128624"><ele>1137.0</ele><time>2026-04-18T07:34:52.978Z</time></trkpt><trkpt lat="43.938645" lon="7.6126958"><ele>1137.0</ele><time>2026-04-18T07:34:53.978Z</time></trkpt><trkpt lat="43.9386102" lon="7.6125054"><ele>1137.0</ele><time>2026-04-18T07:34:54.977Z</time></trkpt><trkpt lat="43.9385609" lon="7.612327"><ele>1136.0</ele><time>2026-04-18T07:34:55.978Z</time></trkpt><trkpt lat="43.9385053" lon="7.6121499"><ele>1135.0</ele><time>2026-04-18T07:34:56.978Z</time></trkpt><trkpt lat="43.9384672" lon="7.6119782"><ele>1134.0</ele><time>2026-04-18T07:34:57.977Z</time></trkpt><trkpt lat="43.9384292" lon="7.6118047"><ele>1133.0</ele><time>2026-04-18T07:34:58.978Z</time></trkpt><trkpt lat="43.9383802" lon="7.6116282"><ele>1133.0</ele><time>2026-04-18T07:34:59.977Z</time></trkpt><trkpt lat="43.9383543" lon="7.6115099"><ele>1133.0</ele><time>2026-04-18T07:35:00.978Z</time></trkpt><trkpt lat="43.9382965" lon="7.6114098"><ele>1133.0</ele><time>2026-04-18T07:35:01.978Z</time></trkpt><trkpt lat="43.9382422" lon="7.6112859"><ele>1133.0</ele><time>2026-04-18T07:35:02.978Z</time></trkpt><trkpt lat="43.9381647" lon="7.6111633"><ele>1133.0</ele><time>2026-04-18T07:35:03.977Z</time></trkpt><trkpt lat="43.9380706" lon="7.6110356"><ele>1137.25</ele><time>2026-04-18T07:35:04.978Z</time></trkpt><trkpt lat="43.9379754" lon="7.6108985"><ele>1141.5</ele><time>2026-04-18T07:35:05.978Z</time></trkpt><trkpt lat="43.9378711" lon="7.6107654"><ele>1145.75</ele><time>2026-04-18T07:35:06.978Z</time></trkpt><trkpt lat="43.9377649" lon="7.6106235"><ele>1150.0</ele><time>2026-04-18T07:35:07.978Z</time></trkpt><trkpt lat="43.9376583" lon="7.61047"><ele>1148.3333333333333</ele><time>2026-04-18T07:35:08.978Z</time></trkpt><trkpt lat="43.9375189" lon="7.6103498"><ele>1146.6666666666667</ele><time>2026-04-18T07:35:09.978Z</time></trkpt><trkpt lat="43.9373904" lon="7.6102199"><ele>1145.0</ele><time>2026-04-18T07:35:10.977Z</time></trkpt><trkpt lat="43.9372809" lon="7.6100936"><ele>1145.0</ele><time>2026-04-18T07:35:11.977Z</time></trkpt><trkpt lat="43.9371742" lon="7.6099628"><ele>1145.0</ele><time>2026-04-18T07:35:12.978Z</time></trkpt><trkpt lat="43.9370602" lon="7.609839"><ele>1145.0</ele><time>2026-04-18T07:35:13.978Z</time></trkpt><trkpt lat="43.9369467" lon="7.6097428"><ele>1145.0</ele><time>2026-04-18T07:35:14.978Z</time></trkpt><trkpt lat="43.9368388" lon="7.6096506"><ele>1145.0</ele><time>2026-04-18T07:35:15.978Z</time></trkpt><trkpt lat="43.9367466" lon="7.6095576"><ele>1145.0</ele><time>2026-04-18T07:35:16.978Z</time></trkpt><trkpt lat="43.9366521" lon="7.6094517"><ele>1145.0</ele><time>2026-04-18T07:35:17.978Z</time></trkpt><trkpt lat="43.9365591" lon="7.6093254"><ele>1145.0</ele><time>2026-04-18T07:35:18.978Z</time></trkpt><trkpt lat="43.9364801" lon="7.6091938"><ele>1146.0</ele><time>2026-04-18T07:35:19.978Z</time></trkpt><trkpt lat="43.9364014" lon="7.6090687"><ele>1147.0</ele><time>2026-04-18T07:35:20.978Z</time></trkpt><trkpt lat="43.9363222" lon="7.6089689"><ele>1148.0</ele><time>2026-04-18T07:35:21.978Z</time></trkpt><trkpt lat="43.9362352" lon="7.6088862"><ele>1149.0</ele><time>2026-04-18T07:35:22.978Z</time></trkpt><trkpt lat="43.9361463" lon="7.6087878"><ele>1150.0</ele><time>2026-04-18T07:35:23.978Z</time></trkpt><trkpt lat="43.9360225" lon="7.608724"><ele>1150.0</ele><time>2026-04-18T07:35:24.978Z</time></trkpt><trkpt lat="43.935905" lon="7.608665"><ele>1150.0</ele><time>2026-04-18T07:35:25.978Z</time></trkpt><trkpt lat="43.9357968" lon="7.6086008"><ele>1150.0</ele><time>2026-04-18T07:35:26.978Z</time></trkpt><trkpt lat="43.9356933" lon="7.6085047"><ele>1150.0</ele><time>2026-04-18T07:35:27.978Z</time></trkpt><trkpt lat="43.9356036" lon="7.6083797"><ele>1152.5</ele><time>2026-04-18T07:35:28.978Z</time></trkpt><trkpt lat="43.9355172" lon="7.6082655"><ele>1155.0</ele><time>2026-04-18T07:35:29.978Z</time></trkpt><trkpt lat="43.935403" lon="7.6081461"><ele>1157.5</ele><time>2026-04-18T07:35:30.978Z</time></trkpt><trkpt lat="43.9352944" lon="7.6080275"><ele>1160.0</ele><time>2026-04-18T07:35:31.978Z</time></trkpt><trkpt lat="43.935182" lon="7.6079121"><ele>1162.25</ele><time>2026-04-18T07:35:32.978Z</time></trkpt><trkpt lat="43.9350741" lon="7.6077815"><ele>1164.5</ele><time>2026-04-18T07:35:33.978Z</time></trkpt><trkpt lat="43.9349598" lon="7.6076715"><ele>1166.75</ele><time>2026-04-18T07:35:34.978Z</time></trkpt><trkpt lat="43.9348522" lon="7.6075484"><ele>1169.0</ele><time>2026-04-18T07:35:35.978Z</time></trkpt><trkpt lat="43.9347363" lon="7.6074453"><ele>1169.0</ele><time>2026-04-18T07:35:36.978Z</time></trkpt><trkpt lat="43.9346241" lon="7.6073596"><ele>1169.0</ele><time>2026-04-18T07:35:37.978Z</time></trkpt><trkpt lat="43.9345132" lon="7.6072742"><ele>1169.0</ele><time>2026-04-18T07:35:38.978Z</time></trkpt><trkpt lat="43.9344061" lon="7.6072054"><ele>1169.0</ele><time>2026-04-18T07:35:39.978Z</time></trkpt><trkpt lat="43.9343424" lon="7.6071453"><ele>1169.0</ele><time>2026-04-18T07:35:40.978Z</time></trkpt><trkpt lat="43.9342614" lon="7.6070884"><ele>1169.0</ele><time>2026-04-18T07:35:41.978Z</time></trkpt><trkpt lat="43.9341591" lon="7.6070701"><ele>1169.0</ele><time>2026-04-18T07:35:42.978Z</time></trkpt><trkpt lat="43.9340723" lon="7.6070922"><ele>1169.0</ele><time>2026-04-18T07:35:43.978Z</time></trkpt><trkpt lat="43.9340165" lon="7.6071619"><ele>1169.0</ele><time>2026-04-18T07:35:44.978Z</time></trkpt><trkpt lat="43.9339531" lon="7.6072189"><ele>1169.0</ele><time>2026-04-18T07:35:45.978Z</time></trkpt><trkpt lat="43.9338737" lon="7.6071994"><ele>1167.5</ele><time>2026-04-18T07:35:47.978Z</time></trkpt><trkpt lat="43.933874" lon="7.6071016"><ele>1166.0</ele><time>2026-04-18T07:35:50.977Z</time></trkpt><trkpt lat="43.9339511" lon="7.6070671"><ele>1164.5</ele><time>2026-04-18T07:35:51.978Z</time></trkpt><trkpt lat="43.9340182" lon="7.6070241"><ele>1163.0</ele><time>2026-04-18T07:35:52.978Z</time></trkpt><trkpt lat="43.9340933" lon="7.6069709"><ele>1161.5</ele><time>2026-04-18T07:35:53.978Z</time></trkpt><trkpt lat="43.9341674" lon="7.606932"><ele>1160.0</ele><time>2026-04-18T07:35:54.977Z</time></trkpt><trkpt lat="43.9342856" lon="7.6069243"><ele>1163.0</ele><time>2026-04-18T07:35:55.978Z</time></trkpt><trkpt lat="43.9344394" lon="7.6069288"><ele>1166.0</ele><time>2026-04-18T07:35:56.978Z</time></trkpt><trkpt lat="43.9345933" lon="7.6069506"><ele>1169.0</ele><time>2026-04-18T07:35:57.978Z</time></trkpt><trkpt lat="43.9347367" lon="7.6070507"><ele>1169.0</ele><time>2026-04-18T07:35:58.978Z</time></trkpt><trkpt lat="43.9348561" lon="7.6071132"><ele>1169.0</ele><time>2026-04-18T07:35:59.978Z</time></trkpt><trkpt lat="43.9349574" lon="7.6071528"><ele>1169.0</ele><time>2026-04-18T07:36:00.978Z</time></trkpt><trkpt lat="43.9350507" lon="7.6071978"><ele>1169.0</ele><time>2026-04-18T07:36:01.978Z</time></trkpt><trkpt lat="43.9351371" lon="7.6072694"><ele>1169.0</ele><time>2026-04-18T07:36:02.978Z</time></trkpt><trkpt lat="43.9352425" lon="7.6073377"><ele>1172.6000000000001</ele><time>2026-04-18T07:36:03.978Z</time></trkpt><trkpt lat="43.9353309" lon="7.6073989"><ele>1176.2</ele><time>2026-04-18T07:36:04.978Z</time></trkpt><trkpt lat="43.9354476" lon="7.6074136"><ele>1179.8000000000002</ele><time>2026-04-18T07:36:05.978Z</time></trkpt><trkpt lat="43.9355542" lon="7.6074421"><ele>1183.4</ele><time>2026-04-18T07:36:06.978Z</time></trkpt><trkpt lat="43.9356716" lon="7.6074372"><ele>1187.0</ele><time>2026-04-18T07:36:07.978Z</time></trkpt><trkpt lat="43.935804" lon="7.6074163"><ele>1191.5</ele><time>2026-04-18T07:36:08.978Z</time></trkpt><trkpt lat="43.9359444" lon="7.6074024"><ele>1196.0</ele><time>2026-04-18T07:36:09.978Z</time></trkpt><trkpt lat="43.9360786" lon="7.6074248"><ele>1200.5</ele><time>2026-04-18T07:36:10.978Z</time></trkpt><trkpt lat="43.9362073" lon="7.6074437"><ele>1205.0</ele><time>2026-04-18T07:36:11.977Z</time></trkpt><trkpt lat="43.9363311" lon="7.6074805"><ele>1205.0</ele><time>2026-04-18T07:36:12.978Z</time></trkpt><trkpt lat="43.9364639" lon="7.6075166"><ele>1205.0</ele><time>2026-04-18T07:36:13.978Z</time></trkpt><trkpt lat="43.9365965" lon="7.6075836"><ele>1205.0</ele><time>2026-04-18T07:36:14.978Z</time></trkpt><trkpt lat="43.9367068" lon="7.6076555"><ele>1205.0</ele><time>2026-04-18T07:36:15.978Z</time></trkpt><trkpt lat="43.9368085" lon="7.6077206"><ele>1202.75</ele><time>2026-04-18T07:36:16.978Z</time></trkpt><trkpt lat="43.9369068" lon="7.607811"><ele>1200.5</ele><time>2026-04-18T07:36:17.978Z</time></trkpt><trkpt lat="43.9369925" lon="7.6079577"><ele>1198.25</ele><time>2026-04-18T07:36:18.978Z</time></trkpt><trkpt lat="43.9370871" lon="7.6080774"><ele>1196.0</ele><time>2026-04-18T07:36:19.978Z</time></trkpt><trkpt lat="43.937174" lon="7.6081932"><ele>1196.0</ele><time>2026-04-18T07:36:20.978Z</time></trkpt><trkpt lat="43.9372669" lon="7.6082768"><ele>1196.0</ele><time>2026-04-18T07:36:21.978Z</time></trkpt><trkpt lat="43.9373813" lon="7.6083485"><ele>1196.0</ele><time>2026-04-18T07:36:22.978Z</time></trkpt><trkpt lat="43.9374906" lon="7.6084018"><ele>1196.0</ele><time>2026-04-18T07:36:23.978Z</time></trkpt><trkpt lat="43.9375886" lon="7.608437"><ele>1198.6</ele><time>2026-04-18T07:36:24.977Z</time></trkpt><trkpt lat="43.9376936" lon="7.6084599"><ele>1201.1999999999998</ele><time>2026-04-18T07:36:25.978Z</time></trkpt><trkpt lat="43.9377923" lon="7.6084819"><ele>1203.8000000000002</ele><time>2026-04-18T07:36:26.978Z</time></trkpt><trkpt lat="43.9378898" lon="7.6084783"><ele>1206.4</ele><time>2026-04-18T07:36:27.978Z</time></trkpt><trkpt lat="43.9380156" lon="7.6084081"><ele>1209.0</ele><time>2026-04-18T07:36:28.978Z</time></trkpt><trkpt lat="43.9381419" lon="7.6083381"><ele>1209.0</ele><time>2026-04-18T07:36:29.978Z</time></trkpt><trkpt lat="43.9382561" lon="7.6082671"><ele>1209.0</ele><time>2026-04-18T07:36:30.978Z</time></trkpt><trkpt lat="43.9383799" lon="7.6082297"><ele>1209.0</ele><time>2026-04-18T07:36:31.978Z</time></trkpt><trkpt lat="43.9385023" lon="7.6082027"><ele>1209.0</ele><time>2026-04-18T07:36:32.978Z</time></trkpt><trkpt lat="43.9386187" lon="7.6081837"><ele>1210.8</ele><time>2026-04-18T07:36:33.978Z</time></trkpt><trkpt lat="43.938731" lon="7.608189"><ele>1212.6000000000001</ele><time>2026-04-18T07:36:34.978Z</time></trkpt><trkpt lat="43.938833" lon="7.608215"><ele>1214.4</ele><time>2026-04-18T07:36:35.978Z</time></trkpt><trkpt lat="43.9389274" lon="7.6082407"><ele>1216.2</ele><time>2026-04-18T07:36:36.977Z</time></trkpt><trkpt lat="43.9390206" lon="7.6082805"><ele>1218.0</ele><time>2026-04-18T07:36:37.978Z</time></trkpt><trkpt lat="43.9391036" lon="7.6083404"><ele>1218.0</ele><time>2026-04-18T07:36:38.978Z</time></trkpt><trkpt lat="43.9391827" lon="7.608372"><ele>1218.0</ele><time>2026-04-18T07:36:39.977Z</time></trkpt><trkpt lat="43.939259" lon="7.6083857"><ele>1218.0</ele><time>2026-04-18T07:36:40.978Z</time></trkpt><trkpt lat="43.939365" lon="7.6083824"><ele>1218.0</ele><time>2026-04-18T07:36:42.978Z</time></trkpt><trkpt lat="43.9394707" lon="7.6083642"><ele>1218.0</ele><time>2026-04-18T07:36:44.978Z</time></trkpt><trkpt lat="43.9395442" lon="7.6083212"><ele>1218.8333333333333</ele><time>2026-04-18T07:36:46.978Z</time></trkpt><trkpt lat="43.9396066" lon="7.6082929"><ele>1219.6666666666667</ele><time>2026-04-18T07:36:48.978Z</time></trkpt><trkpt lat="43.9396753" lon="7.6082674"><ele>1220.5</ele><time>2026-04-18T07:36:52.978Z</time></trkpt><trkpt lat="43.9397062" lon="7.608348"><ele>1221.3333333333335</ele><time>2026-04-18T07:37:11.978Z</time></trkpt><trkpt lat="43.939651" lon="7.6084296"><ele>1222.1666666666667</ele><time>2026-04-18T07:37:13.978Z</time></trkpt><trkpt lat="43.939591" lon="7.6085494"><ele>1223.0</ele><time>2026-04-18T07:37:15.978Z</time></trkpt><trkpt lat="43.9395383" lon="7.6086088"><ele>1225.0</ele><time>2026-04-18T07:37:16.978Z</time></trkpt><trkpt lat="43.9394926" lon="7.6086897"><ele>1227.0</ele><time>2026-04-18T07:37:17.978Z</time></trkpt><trkpt lat="43.9394464" lon="7.6087654"><ele>1229.0</ele><time>2026-04-18T07:37:18.978Z</time></trkpt><trkpt lat="43.9393982" lon="7.6088388"><ele>1231.0</ele><time>2026-04-18T07:37:19.978Z</time></trkpt><trkpt lat="43.9393578" lon="7.6089234"><ele>1233.0</ele><time>2026-04-18T07:37:20.977Z</time></trkpt><trkpt lat="43.939313" lon="7.6090057"><ele>1235.0</ele><time>2026-04-18T07:37:21.977Z</time></trkpt><trkpt lat="43.9392641" lon="7.6090809"><ele>1237.0</ele><time>2026-04-18T07:37:22.978Z</time></trkpt><trkpt lat="43.9392282" lon="7.6091671"><ele>1238.2857142857142</ele><time>2026-04-18T07:37:23.978Z</time></trkpt><trkpt lat="43.9392006" lon="7.60927"><ele>1239.5714285714287</ele><time>2026-04-18T07:37:24.978Z</time></trkpt><trkpt lat="43.939176" lon="7.6093775"><ele>1240.857142857143</ele><time>2026-04-18T07:37:25.978Z</time></trkpt><trkpt lat="43.9391653" lon="7.6094643"><ele>1242.142857142857</ele><time>2026-04-18T07:37:26.978Z</time></trkpt><trkpt lat="43.9391598" lon="7.6095571"><ele>1243.4285714285716</ele><time>2026-04-18T07:37:27.978Z</time></trkpt><trkpt lat="43.9391841" lon="7.6096502"><ele>1244.7142857142858</ele><time>2026-04-18T07:37:28.978Z</time></trkpt><trkpt lat="43.9392272" lon="7.6097314"><ele>1246.0</ele><time>2026-04-18T07:37:29.978Z</time></trkpt><trkpt lat="43.9392828" lon="7.609811"><ele>1246.0</ele><time>2026-04-18T07:37:30.977Z</time></trkpt><trkpt lat="43.9393429" lon="7.6098831"><ele>1246.0</ele><time>2026-04-18T07:37:31.978Z</time></trkpt><trkpt lat="43.9394066" lon="7.6099303"><ele>1246.0</ele><time>2026-04-18T07:37:32.978Z</time></trkpt><trkpt lat="43.939469" lon="7.6099879"><ele>1246.0</ele><time>2026-04-18T07:37:33.978Z</time></trkpt><trkpt lat="43.9395291" lon="7.6100429"><ele>1246.0</ele><time>2026-04-18T07:37:34.978Z</time></trkpt><trkpt lat="43.9395767" lon="7.6101073"><ele>1246.0</ele><time>2026-04-18T07:37:35.978Z</time></trkpt><trkpt lat="43.9396219" lon="7.610194"><ele>1246.0</ele><time>2026-04-18T07:37:36.978Z</time></trkpt><trkpt lat="43.9396633" lon="7.6102878"><ele>1244.6</ele><time>2026-04-18T07:37:37.978Z</time></trkpt><trkpt lat="43.9396896" lon="7.6103799"><ele>1243.1999999999998</ele><time>2026-04-18T07:37:38.978Z</time></trkpt><trkpt lat="43.9396739" lon="7.6105134"><ele>1241.8000000000002</ele><time>2026-04-18T07:37:39.978Z</time></trkpt><trkpt lat="43.9396607" lon="7.6106481"><ele>1240.4</ele><time>2026-04-18T07:37:40.978Z</time></trkpt><trkpt lat="43.9396643" lon="7.6107788"><ele>1239.0</ele><time>2026-04-18T07:37:41.978Z</time></trkpt><trkpt lat="43.9396861" lon="7.6109059"><ele>1239.0</ele><time>2026-04-18T07:37:42.978Z</time></trkpt><trkpt lat="43.9397005" lon="7.6110391"><ele>1239.0</ele><time>2026-04-18T07:37:43.977Z</time></trkpt><trkpt lat="43.9397216" lon="7.6111512"><ele>1239.0</ele><time>2026-04-18T07:37:44.978Z</time></trkpt><trkpt lat="43.9397503" lon="7.6112705"><ele>1239.0</ele><time>2026-04-18T07:37:45.978Z</time></trkpt><trkpt lat="43.9397844" lon="7.6113812"><ele>1239.0</ele><time>2026-04-18T07:37:46.977Z</time></trkpt><trkpt lat="43.9398365" lon="7.6114921"><ele>1236.2</ele><time>2026-04-18T07:37:47.977Z</time></trkpt><trkpt lat="43.9399243" lon="7.6115465"><ele>1233.4</ele><time>2026-04-18T07:37:48.978Z</time></trkpt><trkpt lat="43.9400098" lon="7.611607"><ele>1230.6</ele><time>2026-04-18T07:37:49.978Z</time></trkpt><trkpt lat="43.9400871" lon="7.6116831"><ele>1227.8</ele><time>2026-04-18T07:37:50.978Z</time></trkpt><trkpt lat="43.9401606" lon="7.6117332"><ele>1225.0</ele><time>2026-04-18T07:37:51.978Z</time></trkpt><trkpt lat="43.9402556" lon="7.6118019"><ele>1229.0</ele><time>2026-04-18T07:37:52.978Z</time></trkpt><trkpt lat="43.9402943" lon="7.6118817"><ele>1233.0</ele><time>2026-04-18T07:37:53.978Z</time></trkpt><trkpt lat="43.9403443" lon="7.6119554"><ele>1237.0</ele><time>2026-04-18T07:37:54.977Z</time></trkpt><trkpt lat="43.9403708" lon="7.6120471"><ele>1241.0</ele><time>2026-04-18T07:37:55.978Z</time></trkpt><trkpt lat="43.9403477" lon="7.612198"><ele>1245.0</ele><time>2026-04-18T07:37:56.978Z</time></trkpt><trkpt lat="43.9403332" lon="7.6123387"><ele>1249.0</ele><time>2026-04-18T07:37:57.978Z</time></trkpt><trkpt lat="43.9403335" lon="7.6124489"><ele>1249.0</ele><time>2026-04-18T07:37:58.978Z</time></trkpt><trkpt lat="43.9403438" lon="7.6125679"><ele>1249.0</ele><time>2026-04-18T07:37:59.978Z</time></trkpt><trkpt lat="43.9403589" lon="7.6126879"><ele>1249.0</ele><time>2026-04-18T07:38:00.978Z</time></trkpt><trkpt lat="43.9403854" lon="7.6128064"><ele>1249.0</ele><time>2026-04-18T07:38:01.978Z</time></trkpt><trkpt lat="43.940422" lon="7.6129291"><ele>1249.0</ele><time>2026-04-18T07:38:02.978Z</time></trkpt><trkpt lat="43.9404693" lon="7.6130214"><ele>1249.0</ele><time>2026-04-18T07:38:03.978Z</time></trkpt><trkpt lat="43.9405462" lon="7.6130835"><ele>1245.6666666666665</ele><time>2026-04-18T07:38:04.978Z</time></trkpt><trkpt lat="43.9406046" lon="7.6131529"><ele>1242.3333333333333</ele><time>2026-04-18T07:38:05.978Z</time></trkpt><trkpt lat="43.9406935" lon="7.613186"><ele>1239.0</ele><time>2026-04-18T07:38:06.978Z</time></trkpt><trkpt lat="43.9407851" lon="7.6131816"><ele>1235.6666666666667</ele><time>2026-04-18T07:38:07.978Z</time></trkpt><trkpt lat="43.9408724" lon="7.6131571"><ele>1232.3333333333335</ele><time>2026-04-18T07:38:08.978Z</time></trkpt><trkpt lat="43.940965" lon="7.6131341"><ele>1229.0</ele><time>2026-04-18T07:38:09.978Z</time></trkpt><trkpt lat="43.9410677" lon="7.613106"><ele>1229.0</ele><time>2026-04-18T07:38:10.978Z</time></trkpt><trkpt lat="43.9411612" lon="7.6130893"><ele>1229.0</ele><time>2026-04-18T07:38:11.978Z</time></trkpt><trkpt lat="43.9412532" lon="7.6130576"><ele>1229.0</ele><time>2026-04-18T07:38:12.978Z</time></trkpt><trkpt lat="43.941358" lon="7.6130411"><ele>1229.0</ele><time>2026-04-18T07:38:13.978Z</time></trkpt><trkpt lat="43.9414712" lon="7.6130103"><ele>1229.0</ele><time>2026-04-18T07:38:14.978Z</time></trkpt><trkpt lat="43.9415884" lon="7.6129825"><ele>1229.0</ele><time>2026-04-18T07:38:15.978Z</time></trkpt><trkpt lat="43.9417008" lon="7.6129434"><ele>1229.0</ele><time>2026-04-18T07:38:16.978Z</time></trkpt><trkpt lat="43.9418082" lon="7.6129091"><ele>1229.0</ele><time>2026-04-18T07:38:17.978Z</time></trkpt><trkpt lat="43.9419141" lon="7.6128827"><ele>1229.0</ele><time>2026-04-18T07:38:18.978Z</time></trkpt><trkpt lat="43.942002" lon="7.6128578"><ele>1229.0</ele><time>2026-04-18T07:38:19.978Z</time></trkpt><trkpt lat="43.942088" lon="7.6128236"><ele>1229.4</ele><time>2026-04-18T07:38:20.978Z</time></trkpt><trkpt lat="43.9421713" lon="7.6127965"><ele>1229.8000000000002</ele><time>2026-04-18T07:38:21.978Z</time></trkpt><trkpt lat="43.9422533" lon="7.6127766"><ele>1230.1999999999998</ele><time>2026-04-18T07:38:22.978Z</time></trkpt><trkpt lat="43.9423503" lon="7.6127783"><ele>1230.6</ele><time>2026-04-18T07:38:23.978Z</time></trkpt><trkpt lat="43.9424405" lon="7.6128015"><ele>1231.0</ele><time>2026-04-18T07:38:24.978Z</time></trkpt><trkpt lat="43.9425309" lon="7.6128317"><ele>1232.2</ele><time>2026-04-18T07:38:25.978Z</time></trkpt><trkpt lat="43.9426282" lon="7.612854"><ele>1233.3999999999999</ele><time>2026-04-18T07:38:26.978Z</time></trkpt><trkpt lat="43.9427261" lon="7.612898"><ele>1234.6</ele><time>2026-04-18T07:38:27.978Z</time></trkpt><trkpt lat="43.9428324" lon="7.6129369"><ele>1235.8</ele><time>2026-04-18T07:38:28.978Z</time></trkpt><trkpt lat="43.9429201" lon="7.6129713"><ele>1237.0</ele><time>2026-04-18T07:38:29.978Z</time></trkpt><trkpt lat="43.9430016" lon="7.6130114"><ele>1237.0</ele><time>2026-04-18T07:38:30.978Z</time></trkpt><trkpt lat="43.9430898" lon="7.6130638"><ele>1237.0</ele><time>2026-04-18T07:38:31.978Z</time></trkpt><trkpt lat="43.9431639" lon="7.613112"><ele>1237.0</ele><time>2026-04-18T07:38:32.978Z</time></trkpt><trkpt lat="43.9432223" lon="7.6131515"><ele>1237.0</ele><time>2026-04-18T07:38:33.978Z</time></trkpt><trkpt lat="43.9432951" lon="7.6131896"><ele>1237.0</ele><time>2026-04-18T07:38:34.978Z</time></trkpt><trkpt lat="43.9433715" lon="7.6132043"><ele>1237.0</ele><time>2026-04-18T07:38:35.977Z</time></trkpt><trkpt lat="43.9434554" lon="7.613199"><ele>1235.8333333333333</ele><time>2026-04-18T07:38:36.978Z</time></trkpt><trkpt lat="43.9435373" lon="7.6131904"><ele>1234.6666666666665</ele><time>2026-04-18T07:38:37.978Z</time></trkpt><trkpt lat="43.9436325" lon="7.613165"><ele>1233.5</ele><time>2026-04-18T07:38:38.978Z</time></trkpt><trkpt lat="43.9437093" lon="7.6131168"><ele>1232.3333333333333</ele><time>2026-04-18T07:38:39.978Z</time></trkpt><trkpt lat="43.9438112" lon="7.6130815"><ele>1231.1666666666667</ele><time>2026-04-18T07:38:40.978Z</time></trkpt><trkpt lat="43.9438777" lon="7.6130347"><ele>1230.0</ele><time>2026-04-18T07:38:41.978Z</time></trkpt><trkpt lat="43.9439625" lon="7.6130112"><ele>1230.0</ele><time>2026-04-18T07:38:42.978Z</time></trkpt><trkpt lat="43.9440405" lon="7.612991"><ele>1230.0</ele><time>2026-04-18T07:38:43.978Z</time></trkpt><trkpt lat="43.9441228" lon="7.6129675"><ele>1230.0</ele><time>2026-04-18T07:38:44.978Z</time></trkpt><trkpt lat="43.9442081" lon="7.6129738"><ele>1230.0</ele><time>2026-04-18T07:38:45.977Z</time></trkpt><trkpt lat="43.9442949" lon="7.6129965"><ele>1230.0</ele><time>2026-04-18T07:38:46.978Z</time></trkpt><trkpt lat="43.9443879" lon="7.6130322"><ele>1230.0</ele><time>2026-04-18T07:38:47.977Z</time></trkpt><trkpt lat="43.9444813" lon="7.6130496"><ele>1229.0</ele><time>2026-04-18T07:38:48.978Z</time></trkpt><trkpt lat="43.9445824" lon="7.6130545"><ele>1228.0</ele><time>2026-04-18T07:38:49.978Z</time></trkpt><trkpt lat="43.9446892" lon="7.6130372"><ele>1227.0</ele><time>2026-04-18T07:38:50.978Z</time></trkpt><trkpt lat="43.9447846" lon="7.613013"><ele>1226.0</ele><time>2026-04-18T07:38:51.978Z</time></trkpt><trkpt lat="43.9448697" lon="7.6129825"><ele>1225.0</ele><time>2026-04-18T07:38:52.978Z</time></trkpt><trkpt lat="43.9449602" lon="7.612954"><ele>1224.6666666666665</ele><time>2026-04-18T07:38:53.978Z</time></trkpt><trkpt lat="43.9450486" lon="7.6129161"><ele>1224.3333333333333</ele><time>2026-04-18T07:38:54.978Z</time></trkpt><trkpt lat="43.9451309" lon="7.6128956"><ele>1224.0</ele><time>2026-04-18T07:38:55.978Z</time></trkpt><trkpt lat="43.9452225" lon="7.6128726"><ele>1223.6666666666667</ele><time>2026-04-18T07:38:56.978Z</time></trkpt><trkpt lat="43.9453017" lon="7.6128418"><ele>1223.3333333333335</ele><time>2026-04-18T07:38:57.978Z</time></trkpt><trkpt lat="43.945369" lon="7.6127951"><ele>1223.0</ele><time>2026-04-18T07:38:58.978Z</time></trkpt><trkpt lat="43.9454326" lon="7.6127452"><ele>1225.2</ele><time>2026-04-18T07:38:59.977Z</time></trkpt><trkpt lat="43.9454963" lon="7.6127019"><ele>1227.4</ele><time>2026-04-18T07:39:00.978Z</time></trkpt><trkpt lat="43.9456083" lon="7.6126695"><ele>1229.6000000000001</ele><time>2026-04-18T07:39:02.978Z</time></trkpt><trkpt lat="43.9457354" lon="7.6127136"><ele>1231.8</ele><time>2026-04-18T07:39:04.978Z</time></trkpt><trkpt lat="43.9458044" lon="7.612748"><ele>1234.0</ele><time>2026-04-18T07:39:05.978Z</time></trkpt><trkpt lat="43.9458717" lon="7.6128073"><ele>1232.3333333333333</ele><time>2026-04-18T07:39:06.978Z</time></trkpt><trkpt lat="43.9459426" lon="7.6128516"><ele>1230.6666666666665</ele><time>2026-04-18T07:39:07.978Z</time></trkpt><trkpt lat="43.946008" lon="7.6128934"><ele>1229.0</ele><time>2026-04-18T07:39:08.978Z</time></trkpt><trkpt lat="43.9460912" lon="7.6129475"><ele>1227.3333333333333</ele><time>2026-04-18T07:39:09.978Z</time></trkpt><trkpt lat="43.9461734" lon="7.6129976"><ele>1225.6666666666667</ele><time>2026-04-18T07:39:10.978Z</time></trkpt><trkpt lat="43.9462662" lon="7.6130408"><ele>1224.0</ele><time>2026-04-18T07:39:11.978Z</time></trkpt><trkpt lat="43.9463494" lon="7.6130859"><ele>1224.0</ele><time>2026-04-18T07:39:12.978Z</time></trkpt><trkpt lat="43.9464237" lon="7.6131163"><ele>1224.0</ele><time>2026-04-18T07:39:13.978Z</time></trkpt><trkpt lat="43.946494" lon="7.6131304"><ele>1224.0</ele><time>2026-04-18T07:39:14.978Z</time></trkpt><trkpt lat="43.9465733" lon="7.6131213"><ele>1224.0</ele><time>2026-04-18T07:39:15.978Z</time></trkpt><trkpt lat="43.9466561" lon="7.6131267"><ele>1224.0</ele><time>2026-04-18T07:39:16.978Z</time></trkpt><trkpt lat="43.9467492" lon="7.6131098"><ele>1224.0</ele><time>2026-04-18T07:39:17.978Z</time></trkpt><trkpt lat="43.9468458" lon="7.6130744"><ele>1221.8333333333333</ele><time>2026-04-18T07:39:18.978Z</time></trkpt><trkpt lat="43.9469145" lon="7.6130519"><ele>1219.6666666666667</ele><time>2026-04-18T07:39:19.978Z</time></trkpt><trkpt lat="43.9469922" lon="7.613021"><ele>1217.5</ele><time>2026-04-18T07:39:20.978Z</time></trkpt><trkpt lat="43.9470846" lon="7.6129732"><ele>1215.3333333333335</ele><time>2026-04-18T07:39:21.978Z</time></trkpt><trkpt lat="43.9471712" lon="7.6129322"><ele>1213.1666666666667</ele><time>2026-04-18T07:39:22.978Z</time></trkpt><trkpt lat="43.9472578" lon="7.6128891"><ele>1211.0</ele><time>2026-04-18T07:39:23.978Z</time></trkpt><trkpt lat="43.9473454" lon="7.6128395"><ele>1214.0</ele><time>2026-04-18T07:39:24.978Z</time></trkpt><trkpt lat="43.9474344" lon="7.6127911"><ele>1217.0</ele><time>2026-04-18T07:39:25.978Z</time></trkpt><trkpt lat="43.9475205" lon="7.6127247"><ele>1220.0</ele><time>2026-04-18T07:39:26.978Z</time></trkpt><trkpt lat="43.9476047" lon="7.6126615"><ele>1223.0</ele><time>2026-04-18T07:39:27.977Z</time></trkpt><trkpt lat="43.9476762" lon="7.6126047"><ele>1226.0</ele><time>2026-04-18T07:39:28.978Z</time></trkpt><trkpt lat="43.9477513" lon="7.6125435"><ele>1226.0</ele><time>2026-04-18T07:39:29.978Z</time></trkpt><trkpt lat="43.9478471" lon="7.6124559"><ele>1226.0</ele><time>2026-04-18T07:39:30.978Z</time></trkpt><trkpt lat="43.947908" lon="7.6123642"><ele>1226.0</ele><time>2026-04-18T07:39:31.978Z</time></trkpt><trkpt lat="43.9479709" lon="7.6122887"><ele>1226.0</ele><time>2026-04-18T07:39:32.978Z</time></trkpt><trkpt lat="43.9480489" lon="7.6122366"><ele>1226.0</ele><time>2026-04-18T07:39:33.978Z</time></trkpt><trkpt lat="43.9481313" lon="7.6121774"><ele>1226.0</ele><time>2026-04-18T07:39:34.978Z</time></trkpt><trkpt lat="43.9482215" lon="7.6121245"><ele>1226.0</ele><time>2026-04-18T07:39:35.978Z</time></trkpt><trkpt lat="43.9483127" lon="7.6121082"><ele>1226.0</ele><time>2026-04-18T07:39:36.978Z</time></trkpt><trkpt lat="43.9484096" lon="7.6121112"><ele>1226.0</ele><time>2026-04-18T07:39:37.978Z</time></trkpt><trkpt lat="43.9484969" lon="7.6121212"><ele>1226.0</ele><time>2026-04-18T07:39:38.978Z</time></trkpt><trkpt lat="43.9485855" lon="7.612143"><ele>1226.6</ele><time>2026-04-18T07:39:39.978Z</time></trkpt><trkpt lat="43.9486583" lon="7.6121909"><ele>1227.1999999999998</ele><time>2026-04-18T07:39:40.978Z</time></trkpt><trkpt lat="43.9487455" lon="7.6122308"><ele>1227.8000000000002</ele><time>2026-04-18T07:39:41.978Z</time></trkpt><trkpt lat="43.9488329" lon="7.612283"><ele>1228.4</ele><time>2026-04-18T07:39:42.978Z</time></trkpt><trkpt lat="43.9489149" lon="7.6123489"><ele>1229.0</ele><time>2026-04-18T07:39:43.978Z</time></trkpt><trkpt lat="43.9489954" lon="7.6124044"><ele>1229.0</ele><time>2026-04-18T07:39:44.978Z</time></trkpt><trkpt lat="43.9490749" lon="7.6124566"><ele>1229.0</ele><time>2026-04-18T07:39:45.978Z</time></trkpt><trkpt lat="43.9491718" lon="7.6124865"><ele>1229.0</ele><time>2026-04-18T07:39:46.978Z</time></trkpt><trkpt lat="43.9492577" lon="7.6124997"><ele>1229.0</ele><time>2026-04-18T07:39:47.978Z</time></trkpt><trkpt lat="43.9493325" lon="7.6124853"><ele>1229.0</ele><time>2026-04-18T07:39:48.978Z</time></trkpt><trkpt lat="43.9494137" lon="7.6124699"><ele>1229.0</ele><time>2026-04-18T07:39:49.978Z</time></trkpt><trkpt lat="43.949501" lon="7.6124532"><ele>1229.2</ele><time>2026-04-18T07:39:50.978Z</time></trkpt><trkpt lat="43.9495871" lon="7.6124311"><ele>1229.4</ele><time>2026-04-18T07:39:51.978Z</time></trkpt><trkpt lat="43.9496774" lon="7.6124154"><ele>1229.6</ele><time>2026-04-18T07:39:52.977Z</time></trkpt><trkpt lat="43.949768" lon="7.6123984"><ele>1229.8</ele><time>2026-04-18T07:39:53.978Z</time></trkpt><trkpt lat="43.9498607" lon="7.6123834"><ele>1230.0</ele><time>2026-04-18T07:39:54.978Z</time></trkpt><trkpt lat="43.9499605" lon="7.6123682"><ele>1227.0</ele><time>2026-04-18T07:39:55.978Z</time></trkpt><trkpt lat="43.9500558" lon="7.6123509"><ele>1224.0</ele><time>2026-04-18T07:39:56.978Z</time></trkpt><trkpt lat="43.9501495" lon="7.6123226"><ele>1221.0</ele><time>2026-04-18T07:39:57.978Z</time></trkpt><trkpt lat="43.9502358" lon="7.6123033"><ele>1218.0</ele><time>2026-04-18T07:39:58.978Z</time></trkpt><trkpt lat="43.9503293" lon="7.6122685"><ele>1215.0</ele><time>2026-04-18T07:39:59.978Z</time></trkpt><trkpt lat="43.9504193" lon="7.6122276"><ele>1215.0</ele><time>2026-04-18T07:40:00.978Z</time></trkpt><trkpt lat="43.9505184" lon="7.6121829"><ele>1215.0</ele><time>2026-04-18T07:40:01.978Z</time></trkpt><trkpt lat="43.9506167" lon="7.6121477"><ele>1215.0</ele><time>2026-04-18T07:40:02.978Z</time></trkpt><trkpt lat="43.9507089" lon="7.6120985"><ele>1215.0</ele><time>2026-04-18T07:40:03.978Z</time></trkpt><trkpt lat="43.9508136" lon="7.6120465"><ele>1215.0</ele><time>2026-04-18T07:40:04.978Z</time></trkpt><trkpt lat="43.9509188" lon="7.6120114"><ele>1217.4</ele><time>2026-04-18T07:40:05.978Z</time></trkpt><trkpt lat="43.9510234" lon="7.6119818"><ele>1219.8</ele><time>2026-04-18T07:40:06.978Z</time></trkpt><trkpt lat="43.9511217" lon="7.6119479"><ele>1222.2</ele><time>2026-04-18T07:40:07.978Z</time></trkpt><trkpt lat="43.9512237" lon="7.6119187"><ele>1224.6</ele><time>2026-04-18T07:40:08.978Z</time></trkpt><trkpt lat="43.9513226" lon="7.6118905"><ele>1227.0</ele><time>2026-04-18T07:40:09.978Z</time></trkpt><trkpt lat="43.9514156" lon="7.6118571"><ele>1227.0</ele><time>2026-04-18T07:40:10.978Z</time></trkpt><trkpt lat="43.9515121" lon="7.6118218"><ele>1227.0</ele><time>2026-04-18T07:40:11.978Z</time></trkpt><trkpt lat="43.9516016" lon="7.611798"><ele>1227.0</ele><time>2026-04-18T07:40:12.978Z</time></trkpt><trkpt lat="43.9516861" lon="7.6117926"><ele>1227.0</ele><time>2026-04-18T07:40:13.978Z</time></trkpt><trkpt lat="43.951837" lon="7.6118215"><ele>1227.0</ele><time>2026-04-18T07:40:15.978Z</time></trkpt><trkpt lat="43.9519264" lon="7.6118254"><ele>1227.6666666666667</ele><time>2026-04-18T07:40:16.978Z</time></trkpt><trkpt lat="43.9520124" lon="7.611824"><ele>1228.3333333333333</ele><time>2026-04-18T07:40:17.978Z</time></trkpt><trkpt lat="43.9521032" lon="7.6118469"><ele>1229.0</ele><time>2026-04-18T07:40:18.978Z</time></trkpt><trkpt lat="43.952189" lon="7.6118419"><ele>1229.6666666666665</ele><time>2026-04-18T07:40:19.978Z</time></trkpt><trkpt lat="43.95226" lon="7.6118224"><ele>1230.3333333333333</ele><time>2026-04-18T07:40:20.978Z</time></trkpt><trkpt lat="43.9523404" lon="7.6117749"><ele>1231.0</ele><time>2026-04-18T07:40:21.978Z</time></trkpt><trkpt lat="43.9524163" lon="7.6117341"><ele>1231.0</ele><time>2026-04-18T07:40:22.978Z</time></trkpt><trkpt lat="43.9524887" lon="7.6116986"><ele>1231.0</ele><time>2026-04-18T07:40:23.978Z</time></trkpt><trkpt lat="43.9525643" lon="7.6116827"><ele>1231.0</ele><time>2026-04-18T07:40:24.978Z</time></trkpt><trkpt lat="43.9526321" lon="7.6116593"><ele>1231.0</ele><time>2026-04-18T07:40:25.978Z</time></trkpt><trkpt lat="43.9526982" lon="7.6116401"><ele>1231.0</ele><time>2026-04-18T07:40:26.978Z</time></trkpt><trkpt lat="43.9527677" lon="7.6116189"><ele>1231.0</ele><time>2026-04-18T07:40:27.978Z</time></trkpt><trkpt lat="43.9528382" lon="7.611588"><ele>1231.0</ele><time>2026-04-18T07:40:28.978Z</time></trkpt><trkpt lat="43.9529195" lon="7.6115608"><ele>1230.6666666666665</ele><time>2026-04-18T07:40:29.978Z</time></trkpt><trkpt lat="43.9529828" lon="7.6115343"><ele>1230.3333333333333</ele><time>2026-04-18T07:40:30.978Z</time></trkpt><trkpt lat="43.9530479" lon="7.6115138"><ele>1230.0</ele><time>2026-04-18T07:40:31.978Z</time></trkpt><trkpt lat="43.9531116" lon="7.6114935"><ele>1229.6666666666667</ele><time>2026-04-18T07:40:32.978Z</time></trkpt><trkpt lat="43.9531759" lon="7.6114749"><ele>1229.3333333333335</ele><time>2026-04-18T07:40:33.978Z</time></trkpt><trkpt lat="43.9532962" lon="7.6114469"><ele>1229.0</ele><time>2026-04-18T07:40:35.978Z</time></trkpt><trkpt lat="43.9533682" lon="7.6114412"><ele>1230.5</ele><time>2026-04-18T07:40:36.978Z</time></trkpt><trkpt lat="43.9534336" lon="7.6114353"><ele>1232.0</ele><time>2026-04-18T07:40:37.978Z</time></trkpt><trkpt lat="43.9535053" lon="7.6114262"><ele>1233.5</ele><time>2026-04-18T07:40:38.978Z</time></trkpt><trkpt lat="43.9535693" lon="7.6114023"><ele>1235.0</ele><time>2026-04-18T07:40:39.978Z</time></trkpt><trkpt lat="43.9537051" lon="7.6113723"><ele>1236.5</ele><time>2026-04-18T07:40:41.978Z</time></trkpt><trkpt lat="43.9537694" lon="7.6113498"><ele>1238.0</ele><time>2026-04-18T07:40:42.978Z</time></trkpt><trkpt lat="43.9538369" lon="7.6113337"><ele>1238.0</ele><time>2026-04-18T07:40:43.978Z</time></trkpt><trkpt lat="43.9539216" lon="7.6113256"><ele>1238.0</ele><time>2026-04-18T07:40:44.978Z</time></trkpt><trkpt lat="43.9539982" lon="7.6113046"><ele>1238.0</ele><time>2026-04-18T07:40:45.978Z</time></trkpt><trkpt lat="43.9540715" lon="7.6112881"><ele>1238.0</ele><time>2026-04-18T07:40:46.978Z</time></trkpt><trkpt lat="43.9541801" lon="7.6112162"><ele>1238.0</ele><time>2026-04-18T07:40:48.978Z</time></trkpt><trkpt lat="43.954238" lon="7.6111711"><ele>1238.0</ele><time>2026-04-18T07:40:49.978Z</time></trkpt><trkpt lat="43.9542935" lon="7.6111156"><ele>1240.6666666666667</ele><time>2026-04-18T07:40:50.978Z</time></trkpt><trkpt lat="43.9543519" lon="7.6110519"><ele>1243.3333333333335</ele><time>2026-04-18T07:40:51.978Z</time></trkpt><trkpt lat="43.9544238" lon="7.6110049"><ele>1246.0</ele><time>2026-04-18T07:40:52.978Z</time></trkpt><trkpt lat="43.9544852" lon="7.6109551"><ele>1248.6666666666667</ele><time>2026-04-18T07:40:53.978Z</time></trkpt><trkpt lat="43.9545461" lon="7.6108933"><ele>1251.3333333333333</ele><time>2026-04-18T07:40:54.978Z</time></trkpt><trkpt lat="43.9546131" lon="7.6108348"><ele>1254.0</ele><time>2026-04-18T07:40:55.978Z</time></trkpt><trkpt lat="43.9546807" lon="7.6107776"><ele>1254.0</ele><time>2026-04-18T07:40:56.978Z</time></trkpt><trkpt lat="43.9547377" lon="7.6107389"><ele>1254.0</ele><time>2026-04-18T07:40:57.978Z</time></trkpt><trkpt lat="43.954803" lon="7.6106986"><ele>1254.0</ele><time>2026-04-18T07:40:58.978Z</time></trkpt><trkpt lat="43.9548763" lon="7.6106513"><ele>1254.0</ele><time>2026-04-18T07:40:59.978Z</time></trkpt><trkpt lat="43.9549385" lon="7.6105906"><ele>1254.0</ele><time>2026-04-18T07:41:00.978Z</time></trkpt><trkpt lat="43.9550058" lon="7.6105222"><ele>1254.0</ele><time>2026-04-18T07:41:01.977Z</time></trkpt><trkpt lat="43.9550605" lon="7.6104723"><ele>1254.0</ele><time>2026-04-18T07:41:02.978Z</time></trkpt><trkpt lat="43.9551164" lon="7.6104291"><ele>1254.7142857142858</ele><time>2026-04-18T07:41:03.978Z</time></trkpt><trkpt lat="43.9551751" lon="7.6103785"><ele>1255.4285714285713</ele><time>2026-04-18T07:41:04.978Z</time></trkpt><trkpt lat="43.9552344" lon="7.6103307"><ele>1256.142857142857</ele><time>2026-04-18T07:41:05.978Z</time></trkpt><trkpt lat="43.9552831" lon="7.6102737"><ele>1256.857142857143</ele><time>2026-04-18T07:41:06.978Z</time></trkpt><trkpt lat="43.9553248" lon="7.6102013"><ele>1257.5714285714287</ele><time>2026-04-18T07:41:07.978Z</time></trkpt><trkpt lat="43.9553781" lon="7.6101276"><ele>1258.2857142857142</ele><time>2026-04-18T07:41:08.978Z</time></trkpt><trkpt lat="43.9554229" lon="7.6100476"><ele>1259.0</ele><time>2026-04-18T07:41:09.978Z</time></trkpt><trkpt lat="43.9554317" lon="7.6099111"><ele>1259.3333333333335</ele><time>2026-04-18T07:41:11.978Z</time></trkpt><trkpt lat="43.955436" lon="7.6097379"><ele>1259.6666666666667</ele><time>2026-04-18T07:41:13.978Z</time></trkpt><trkpt lat="43.9553736" lon="7.6096485"><ele>1260.0</ele><time>2026-04-18T07:41:14.978Z</time></trkpt><trkpt lat="43.9553405" lon="7.6095734"><ele>1260.3333333333333</ele><time>2026-04-18T07:41:15.978Z</time></trkpt><trkpt lat="43.9553249" lon="7.609462"><ele>1260.6666666666665</ele><time>2026-04-18T07:41:17.978Z</time></trkpt><trkpt lat="43.9553694" lon="7.6093572"><ele>1261.0</ele><time>2026-04-18T07:41:19.978Z</time></trkpt><trkpt lat="43.9554555" lon="7.609323"><ele>1261.0</ele><time>2026-04-18T07:41:21.978Z</time></trkpt><trkpt lat="43.9555586" lon="7.6092984"><ele>1261.0</ele><time>2026-04-18T07:41:23.978Z</time></trkpt><trkpt lat="43.9556196" lon="7.6092656"><ele>1261.0</ele><time>2026-04-18T07:41:24.978Z</time></trkpt><trkpt lat="43.9557059" lon="7.6092398"><ele>1261.0</ele><time>2026-04-18T07:41:25.978Z</time></trkpt><trkpt lat="43.9557863" lon="7.6092097"><ele>1261.0</ele><time>2026-04-18T07:41:26.978Z</time></trkpt><trkpt lat="43.9558525" lon="7.6091759"><ele>1261.0</ele><time>2026-04-18T07:41:27.977Z</time></trkpt><trkpt lat="43.9559256" lon="7.6091442"><ele>1261.2857142857142</ele><time>2026-04-18T07:41:28.978Z</time></trkpt><trkpt lat="43.9560027" lon="7.6091082"><ele>1261.5714285714284</ele><time>2026-04-18T07:41:29.978Z</time></trkpt><trkpt lat="43.9560669" lon="7.6090675"><ele>1261.8571428571427</ele><time>2026-04-18T07:41:30.978Z</time></trkpt><trkpt lat="43.956123" lon="7.6090085"><ele>1262.142857142857</ele><time>2026-04-18T07:41:31.978Z</time></trkpt><trkpt lat="43.9561463" lon="7.6089073"><ele>1262.4285714285713</ele><time>2026-04-18T07:41:32.978Z</time></trkpt><trkpt lat="43.9561654" lon="7.6088025"><ele>1262.7142857142856</ele><time>2026-04-18T07:41:33.978Z</time></trkpt><trkpt lat="43.9561868" lon="7.608706"><ele>1263.0</ele><time>2026-04-18T07:41:34.978Z</time></trkpt><trkpt lat="43.9561942" lon="7.6086046"><ele>1263.0</ele><time>2026-04-18T07:41:35.978Z</time></trkpt><trkpt lat="43.9561866" lon="7.6084925"><ele>1263.0</ele><time>2026-04-18T07:41:36.978Z</time></trkpt><trkpt lat="43.9561606" lon="7.6083605"><ele>1263.0</ele><time>2026-04-18T07:41:37.978Z</time></trkpt><trkpt lat="43.9561372" lon="7.608247"><ele>1263.0</ele><time>2026-04-18T07:41:38.978Z</time></trkpt><trkpt lat="43.9561206" lon="7.6081433"><ele>1263.0</ele><time>2026-04-18T07:41:39.978Z</time></trkpt><trkpt lat="43.956096" lon="7.6080619"><ele>1263.0</ele><time>2026-04-18T07:41:40.978Z</time></trkpt><trkpt lat="43.9560748" lon="7.607974"><ele>1263.8</ele><time>2026-04-18T07:41:41.978Z</time></trkpt><trkpt lat="43.9560469" lon="7.6078214"><ele>1264.6</ele><time>2026-04-18T07:41:43.978Z</time></trkpt><trkpt lat="43.9560942" lon="7.6076643"><ele>1265.4</ele><time>2026-04-18T07:41:45.978Z</time></trkpt><trkpt lat="43.9561915" lon="7.6075649"><ele>1266.2</ele><time>2026-04-18T07:41:47.978Z</time></trkpt><trkpt lat="43.9562432" lon="7.6075023"><ele>1267.0</ele><time>2026-04-18T07:41:48.978Z</time></trkpt><trkpt lat="43.9562881" lon="7.6074179"><ele>1267.0</ele><time>2026-04-18T07:41:49.978Z</time></trkpt><trkpt lat="43.9563461" lon="7.607266"><ele>1267.0</ele><time>2026-04-18T07:41:51.977Z</time></trkpt><trkpt lat="43.9563481" lon="7.6071751"><ele>1267.0</ele><time>2026-04-18T07:41:52.978Z</time></trkpt><trkpt lat="43.9562899" lon="7.6069742"><ele>1267.0</ele><time>2026-04-18T07:41:54.978Z</time></trkpt><trkpt lat="43.9562518" lon="7.6068985"><ele>1267.0</ele><time>2026-04-18T07:41:55.978Z</time></trkpt><trkpt lat="43.9562388" lon="7.6068064"><ele>1266.6</ele><time>2026-04-18T07:41:56.978Z</time></trkpt><trkpt lat="43.9562102" lon="7.6067116"><ele>1266.2</ele><time>2026-04-18T07:41:57.978Z</time></trkpt><trkpt lat="43.956186" lon="7.6065537"><ele>1265.8</ele><time>2026-04-18T07:41:59.978Z</time></trkpt><trkpt lat="43.9561535" lon="7.6063786"><ele>1265.4</ele><time>2026-04-18T07:42:01.978Z</time></trkpt><trkpt lat="43.9561701" lon="7.6062882"><ele>1265.0</ele><time>2026-04-18T07:42:02.978Z</time></trkpt><trkpt lat="43.9562663" lon="7.6062478"><ele>1265.0</ele><time>2026-04-18T07:42:03.978Z</time></trkpt><trkpt lat="43.9563422" lon="7.6061788"><ele>1265.0</ele><time>2026-04-18T07:42:04.978Z</time></trkpt><trkpt lat="43.9563721" lon="7.6060695"><ele>1265.0</ele><time>2026-04-18T07:42:05.978Z</time></trkpt><trkpt lat="43.9563977" lon="7.6059518"><ele>1265.0</ele><time>2026-04-18T07:42:06.978Z</time></trkpt><trkpt lat="43.9564033" lon="7.6058289"><ele>1265.0</ele><time>2026-04-18T07:42:07.978Z</time></trkpt><trkpt lat="43.9564146" lon="7.605728"><ele>1265.0</ele><time>2026-04-18T07:42:08.978Z</time></trkpt><trkpt lat="43.9564193" lon="7.6056272"><ele>1264.0</ele><time>2026-04-18T07:42:09.978Z</time></trkpt><trkpt lat="43.9564209" lon="7.6055353"><ele>1263.0</ele><time>2026-04-18T07:42:10.978Z</time></trkpt><trkpt lat="43.9564199" lon="7.60544"><ele>1262.0</ele><time>2026-04-18T07:42:11.978Z</time></trkpt><trkpt lat="43.9564124" lon="7.6053285"><ele>1261.0</ele><time>2026-04-18T07:42:12.978Z</time></trkpt><trkpt lat="43.9564267" lon="7.6052304"><ele>1260.0</ele><time>2026-04-18T07:42:13.978Z</time></trkpt><trkpt lat="43.9564782" lon="7.6050751"><ele>1259.0</ele><time>2026-04-18T07:42:15.978Z</time></trkpt><trkpt lat="43.9565247" lon="7.6050148"><ele>1258.8333333333335</ele><time>2026-04-18T07:42:16.978Z</time></trkpt><trkpt lat="43.9565831" lon="7.6049455"><ele>1258.6666666666667</ele><time>2026-04-18T07:42:17.978Z</time></trkpt><trkpt lat="43.9566648" lon="7.6048862"><ele>1258.5</ele><time>2026-04-18T07:42:18.977Z</time></trkpt><trkpt lat="43.9567329" lon="7.6048349"><ele>1258.3333333333333</ele><time>2026-04-18T07:42:19.978Z</time></trkpt><trkpt lat="43.9567959" lon="7.6047885"><ele>1258.1666666666665</ele><time>2026-04-18T07:42:20.978Z</time></trkpt><trkpt lat="43.9568577" lon="7.6047382"><ele>1258.0</ele><time>2026-04-18T07:42:21.978Z</time></trkpt><trkpt lat="43.956915" lon="7.6046773"><ele>1258.5</ele><time>2026-04-18T07:42:22.978Z</time></trkpt><trkpt lat="43.9569749" lon="7.6046127"><ele>1259.0</ele><time>2026-04-18T07:42:23.978Z</time></trkpt><trkpt lat="43.9570544" lon="7.6044704"><ele>1259.5</ele><time>2026-04-18T07:42:25.978Z</time></trkpt><trkpt lat="43.9570762" lon="7.6043587"><ele>1260.0</ele><time>2026-04-18T07:42:26.978Z</time></trkpt><trkpt lat="43.9570918" lon="7.6042462"><ele>1260.5</ele><time>2026-04-18T07:42:27.977Z</time></trkpt><trkpt lat="43.9570934" lon="7.6041431"><ele>1261.0</ele><time>2026-04-18T07:42:28.978Z</time></trkpt><trkpt lat="43.9570905" lon="7.6040398"><ele>1262.6666666666665</ele><time>2026-04-18T07:42:29.977Z</time></trkpt><trkpt lat="43.9570798" lon="7.603942"><ele>1264.3333333333333</ele><time>2026-04-18T07:42:30.978Z</time></trkpt><trkpt lat="43.957068" lon="7.6038409"><ele>1266.0</ele><time>2026-04-18T07:42:31.977Z</time></trkpt><trkpt lat="43.9570516" lon="7.6037309"><ele>1267.6666666666667</ele><time>2026-04-18T07:42:32.978Z</time></trkpt><trkpt lat="43.9570504" lon="7.6036383"><ele>1269.3333333333335</ele><time>2026-04-18T07:42:33.978Z</time></trkpt><trkpt lat="43.9570937" lon="7.6034706"><ele>1271.0</ele><time>2026-04-18T07:42:35.977Z</time></trkpt><trkpt lat="43.9571073" lon="7.6033801"><ele>1273.0</ele><time>2026-04-18T07:42:36.978Z</time></trkpt><trkpt lat="43.9571492" lon="7.6033026"><ele>1275.0</ele><time>2026-04-18T07:42:37.978Z</time></trkpt><trkpt lat="43.9571873" lon="7.6032317"><ele>1277.0</ele><time>2026-04-18T07:42:38.978Z</time></trkpt><trkpt lat="43.9572525" lon="7.6030777"><ele>1279.0</ele><time>2026-04-18T07:42:40.978Z</time></trkpt><trkpt lat="43.95727" lon="7.6029888"><ele>1281.0</ele><time>2026-04-18T07:42:41.978Z</time></trkpt><trkpt lat="43.9572818" lon="7.6027975"><ele>1282.5</ele><time>2026-04-18T07:42:43.977Z</time></trkpt><trkpt lat="43.9572729" lon="7.6027042"><ele>1284.0</ele><time>2026-04-18T07:42:44.978Z</time></trkpt><trkpt lat="43.9572757" lon="7.6026164"><ele>1285.5</ele><time>2026-04-18T07:42:45.978Z</time></trkpt><trkpt lat="43.9572813" lon="7.602526"><ele>1287.0</ele><time>2026-04-18T07:42:46.978Z</time></trkpt><trkpt lat="43.9572813" lon="7.6024279"><ele>1288.5</ele><time>2026-04-18T07:42:47.978Z</time></trkpt><trkpt lat="43.9573709" lon="7.6022785"><ele>1290.0</ele><time>2026-04-18T07:42:49.977Z</time></trkpt><trkpt lat="43.9574256" lon="7.6022229"><ele>1290.0</ele><time>2026-04-18T07:42:50.978Z</time></trkpt><trkpt lat="43.9574777" lon="7.6021659"><ele>1290.0</ele><time>2026-04-18T07:42:51.978Z</time></trkpt><trkpt lat="43.9575294" lon="7.6021139"><ele>1290.0</ele><time>2026-04-18T07:42:52.978Z</time></trkpt><trkpt lat="43.9576343" lon="7.6019832"><ele>1290.0</ele><time>2026-04-18T07:42:54.978Z</time></trkpt><trkpt lat="43.9576945" lon="7.6018964"><ele>1290.0</ele><time>2026-04-18T07:42:55.978Z</time></trkpt><trkpt lat="43.9577447" lon="7.6018109"><ele>1290.0</ele><time>2026-04-18T07:42:56.978Z</time></trkpt><trkpt lat="43.9577753" lon="7.6017304"><ele>1295.6666666666667</ele><time>2026-04-18T07:42:57.978Z</time></trkpt><trkpt lat="43.9577957" lon="7.6016309"><ele>1301.3333333333333</ele><time>2026-04-18T07:42:58.978Z</time></trkpt><trkpt lat="43.9578023" lon="7.6015419"><ele>1307.0</ele><time>2026-04-18T07:42:59.978Z</time></trkpt><trkpt lat="43.9577894" lon="7.6013682"><ele>1312.6666666666665</ele><time>2026-04-18T07:43:01.978Z</time></trkpt><trkpt lat="43.9577868" lon="7.6012729"><ele>1318.3333333333333</ele><time>2026-04-18T07:43:02.978Z</time></trkpt><trkpt lat="43.9577879" lon="7.6011782"><ele>1324.0</ele><time>2026-04-18T07:43:03.977Z</time></trkpt><trkpt lat="43.9577581" lon="7.6010844"><ele>1324.857142857143</ele><time>2026-04-18T07:43:04.978Z</time></trkpt><trkpt lat="43.9577364" lon="7.6010017"><ele>1325.7142857142858</ele><time>2026-04-18T07:43:05.978Z</time></trkpt><trkpt lat="43.957689" lon="7.6009264"><ele>1326.5714285714284</ele><time>2026-04-18T07:43:06.978Z</time></trkpt><trkpt lat="43.9576324" lon="7.6008634"><ele>1327.4285714285716</ele><time>2026-04-18T07:43:07.978Z</time></trkpt><trkpt lat="43.9575697" lon="7.6007995"><ele>1328.2857142857142</ele><time>2026-04-18T07:43:08.978Z</time></trkpt><trkpt lat="43.957509" lon="7.600734"><ele>1329.142857142857</ele><time>2026-04-18T07:43:09.978Z</time></trkpt><trkpt lat="43.9574548" lon="7.6006659"><ele>1330.0</ele><time>2026-04-18T07:43:10.978Z</time></trkpt><trkpt lat="43.9573974" lon="7.6006123"><ele>1327.6</ele><time>2026-04-18T07:43:11.978Z</time></trkpt><trkpt lat="43.9573319" lon="7.600467"><ele>1325.2</ele><time>2026-04-18T07:43:13.978Z</time></trkpt><trkpt lat="43.957284" lon="7.6003024"><ele>1322.8000000000002</ele><time>2026-04-18T07:43:15.978Z</time></trkpt><trkpt lat="43.9573227" lon="7.6002091"><ele>1320.4</ele><time>2026-04-18T07:43:16.978Z</time></trkpt><trkpt lat="43.9573876" lon="7.600113"><ele>1318.0</ele><time>2026-04-18T07:43:17.978Z</time></trkpt><trkpt lat="43.9574478" lon="7.6000213"><ele>1318.0</ele><time>2026-04-18T07:43:18.978Z</time></trkpt><trkpt lat="43.9574634" lon="7.5999203"><ele>1318.0</ele><time>2026-04-18T07:43:19.978Z</time></trkpt><trkpt lat="43.9574568" lon="7.5997909"><ele>1318.0</ele><time>2026-04-18T07:43:20.978Z</time></trkpt><trkpt lat="43.9574423" lon="7.5996685"><ele>1318.0</ele><time>2026-04-18T07:43:21.978Z</time></trkpt><trkpt lat="43.9574485" lon="7.5995615"><ele>1318.0</ele><time>2026-04-18T07:43:22.978Z</time></trkpt><trkpt lat="43.9574418" lon="7.5994687"><ele>1318.0</ele><time>2026-04-18T07:43:23.978Z</time></trkpt><trkpt lat="43.957428" lon="7.5993783"><ele>1318.7142857142858</ele><time>2026-04-18T07:43:24.978Z</time></trkpt><trkpt lat="43.9574231" lon="7.5992898"><ele>1319.4285714285713</ele><time>2026-04-18T07:43:25.978Z</time></trkpt><trkpt lat="43.9574408" lon="7.5991917"><ele>1320.142857142857</ele><time>2026-04-18T07:43:26.978Z</time></trkpt><trkpt lat="43.9574735" lon="7.599109"><ele>1320.857142857143</ele><time>2026-04-18T07:43:27.978Z</time></trkpt><trkpt lat="43.9574979" lon="7.5990248"><ele>1321.5714285714284</ele><time>2026-04-18T07:43:28.978Z</time></trkpt><trkpt lat="43.9575211" lon="7.5988758"><ele>1322.2857142857142</ele><time>2026-04-18T07:43:30.978Z</time></trkpt><trkpt lat="43.9575204" lon="7.5987823"><ele>1323.0</ele><time>2026-04-18T07:43:31.978Z</time></trkpt><trkpt lat="43.9575146" lon="7.5986477"><ele>1324.0</ele><time>2026-04-18T07:43:33.978Z</time></trkpt><trkpt lat="43.9574888" lon="7.5985556"><ele>1325.0</ele><time>2026-04-18T07:43:36.977Z</time></trkpt><trkpt lat="43.9573927" lon="7.5984861"><ele>1326.0</ele><time>2026-04-18T07:43:57.977Z</time></trkpt><trkpt lat="43.9573353" lon="7.5984365"><ele>1327.0</ele><time>2026-04-18T07:43:58.978Z</time></trkpt><trkpt lat="43.9572519" lon="7.5983474"><ele>1328.0</ele><time>2026-04-18T07:44:00.978Z</time></trkpt><trkpt lat="43.9571789" lon="7.5983066"><ele>1329.0</ele><time>2026-04-18T07:44:01.978Z</time></trkpt><trkpt lat="43.9571281" lon="7.5982475"><ele>1329.0</ele><time>2026-04-18T07:44:02.978Z</time></trkpt><trkpt lat="43.9570575" lon="7.5981733"><ele>1329.0</ele><time>2026-04-18T07:44:03.978Z</time></trkpt><trkpt lat="43.9569763" lon="7.5980808"><ele>1329.0</ele><time>2026-04-18T07:44:04.978Z</time></trkpt><trkpt lat="43.9569087" lon="7.5979908"><ele>1329.0</ele><time>2026-04-18T07:44:05.978Z</time></trkpt><trkpt lat="43.9568476" lon="7.5978926"><ele>1329.0</ele><time>2026-04-18T07:44:06.978Z</time></trkpt><trkpt lat="43.9567895" lon="7.5978143"><ele>1331.0</ele><time>2026-04-18T07:44:07.978Z</time></trkpt><trkpt lat="43.9567327" lon="7.5977535"><ele>1333.0</ele><time>2026-04-18T07:44:08.978Z</time></trkpt><trkpt lat="43.9566802" lon="7.5976921"><ele>1335.0</ele><time>2026-04-18T07:44:09.978Z</time></trkpt><trkpt lat="43.9566125" lon="7.5976526"><ele>1337.0</ele><time>2026-04-18T07:44:10.978Z</time></trkpt><trkpt lat="43.9565434" lon="7.5976377"><ele>1339.0</ele><time>2026-04-18T07:44:11.978Z</time></trkpt><trkpt lat="43.9564723" lon="7.5976258"><ele>1341.0</ele><time>2026-04-18T07:44:12.978Z</time></trkpt><trkpt lat="43.9564049" lon="7.5975855"><ele>1343.0</ele><time>2026-04-18T07:44:13.978Z</time></trkpt><trkpt lat="43.9563414" lon="7.5975245"><ele>1343.0</ele><time>2026-04-18T07:44:14.978Z</time></trkpt><trkpt lat="43.9562789" lon="7.5974702"><ele>1343.0</ele><time>2026-04-18T07:44:15.978Z</time></trkpt><trkpt lat="43.9562212" lon="7.597413"><ele>1343.0</ele><time>2026-04-18T07:44:16.978Z</time></trkpt><trkpt lat="43.9561639" lon="7.5973542"><ele>1343.0</ele><time>2026-04-18T07:44:17.978Z</time></trkpt><trkpt lat="43.9561052" lon="7.5972869"><ele>1343.0</ele><time>2026-04-18T07:44:18.978Z</time></trkpt><trkpt lat="43.9560504" lon="7.5972137"><ele>1343.0</ele><time>2026-04-18T07:44:19.978Z</time></trkpt><trkpt lat="43.9560075" lon="7.597121"><ele>1343.0</ele><time>2026-04-18T07:44:20.978Z</time></trkpt><trkpt lat="43.9559644" lon="7.5970302"><ele>1345.0</ele><time>2026-04-18T07:44:21.978Z</time></trkpt><trkpt lat="43.955939" lon="7.5969304"><ele>1347.0</ele><time>2026-04-18T07:44:22.978Z</time></trkpt><trkpt lat="43.9559224" lon="7.5968321"><ele>1349.0</ele><time>2026-04-18T07:44:23.978Z</time></trkpt><trkpt lat="43.9558974" lon="7.5967235"><ele>1351.0</ele><time>2026-04-18T07:44:24.978Z</time></trkpt><trkpt lat="43.9558907" lon="7.5966041"><ele>1353.0</ele><time>2026-04-18T07:44:25.978Z</time></trkpt><trkpt lat="43.9559002" lon="7.5965016"><ele>1355.0</ele><time>2026-04-18T07:44:26.978Z</time></trkpt><trkpt lat="43.955911" lon="7.5964017"><ele>1355.0</ele><time>2026-04-18T07:44:27.978Z</time></trkpt><trkpt lat="43.9559265" lon="7.5963086"><ele>1355.0</ele><time>2026-04-18T07:44:28.977Z</time></trkpt><trkpt lat="43.9559458" lon="7.5961758"><ele>1355.0</ele><time>2026-04-18T07:44:30.978Z</time></trkpt><trkpt lat="43.9559618" lon="7.5960835"><ele>1355.0</ele><time>2026-04-18T07:44:31.978Z</time></trkpt><trkpt lat="43.9559971" lon="7.5959893"><ele>1355.0</ele><time>2026-04-18T07:44:32.978Z</time></trkpt><trkpt lat="43.9560343" lon="7.5958763"><ele>1355.0</ele><time>2026-04-18T07:44:33.978Z</time></trkpt><trkpt lat="43.9560625" lon="7.5957755"><ele>1355.3333333333335</ele><time>2026-04-18T07:44:34.978Z</time></trkpt><trkpt lat="43.9560866" lon="7.59569"><ele>1355.6666666666667</ele><time>2026-04-18T07:44:35.978Z</time></trkpt><trkpt lat="43.9561072" lon="7.5956038"><ele>1356.0</ele><time>2026-04-18T07:44:36.978Z</time></trkpt><trkpt lat="43.9561304" lon="7.5955114"><ele>1356.3333333333333</ele><time>2026-04-18T07:44:37.978Z</time></trkpt><trkpt lat="43.9561456" lon="7.5954173"><ele>1356.6666666666665</ele><time>2026-04-18T07:44:38.978Z</time></trkpt><trkpt lat="43.9561623" lon="7.595238"><ele>1357.0</ele><time>2026-04-18T07:44:40.978Z</time></trkpt><trkpt lat="43.9561714" lon="7.5951314"><ele>1355.857142857143</ele><time>2026-04-18T07:44:41.978Z</time></trkpt><trkpt lat="43.9561708" lon="7.5950187"><ele>1354.7142857142858</ele><time>2026-04-18T07:44:42.978Z</time></trkpt><trkpt lat="43.9561781" lon="7.5949232"><ele>1353.5714285714284</ele><time>2026-04-18T07:44:43.978Z</time></trkpt><trkpt lat="43.956189" lon="7.5948196"><ele>1352.4285714285716</ele><time>2026-04-18T07:44:44.978Z</time></trkpt><trkpt lat="43.9561877" lon="7.5947152"><ele>1351.2857142857144</ele><time>2026-04-18T07:44:45.978Z</time></trkpt><trkpt lat="43.9561948" lon="7.5946043"><ele>1350.142857142857</ele><time>2026-04-18T07:44:46.978Z</time></trkpt><trkpt lat="43.9561926" lon="7.594514"><ele>1349.0</ele><time>2026-04-18T07:44:47.978Z</time></trkpt><trkpt lat="43.9561954" lon="7.5943434"><ele>1347.7142857142856</ele><time>2026-04-18T07:44:49.978Z</time></trkpt><trkpt lat="43.956197" lon="7.5942446"><ele>1346.4285714285716</ele><time>2026-04-18T07:44:50.978Z</time></trkpt><trkpt lat="43.9561947" lon="7.594149"><ele>1345.142857142857</ele><time>2026-04-18T07:44:51.978Z</time></trkpt><trkpt lat="43.9561752" lon="7.5940555"><ele>1343.8571428571427</ele><time>2026-04-18T07:44:52.978Z</time></trkpt><trkpt lat="43.9561354" lon="7.5939636"><ele>1342.5714285714284</ele><time>2026-04-18T07:44:53.978Z</time></trkpt><trkpt lat="43.9560754" lon="7.5938925"><ele>1341.2857142857142</ele><time>2026-04-18T07:44:54.977Z</time></trkpt><trkpt lat="43.9560145" lon="7.5938281"><ele>1340.0</ele><time>2026-04-18T07:44:55.978Z</time></trkpt><trkpt lat="43.955956" lon="7.5937556"><ele>1340.0</ele><time>2026-04-18T07:44:56.978Z</time></trkpt><trkpt lat="43.9558894" lon="7.593694"><ele>1340.0</ele><time>2026-04-18T07:44:57.978Z</time></trkpt><trkpt lat="43.9558155" lon="7.5936208"><ele>1340.0</ele><time>2026-04-18T07:44:58.978Z</time></trkpt><trkpt lat="43.9557463" lon="7.5935555"><ele>1340.0</ele><time>2026-04-18T07:44:59.978Z</time></trkpt><trkpt lat="43.9556713" lon="7.5934822"><ele>1340.0</ele><time>2026-04-18T07:45:00.978Z</time></trkpt><trkpt lat="43.9556073" lon="7.5933975"><ele>1340.0</ele><time>2026-04-18T07:45:01.978Z</time></trkpt><trkpt lat="43.9555468" lon="7.5933273"><ele>1341.3333333333335</ele><time>2026-04-18T07:45:02.977Z</time></trkpt><trkpt lat="43.9554743" lon="7.5932521"><ele>1342.6666666666667</ele><time>2026-04-18T07:45:03.978Z</time></trkpt><trkpt lat="43.9554104" lon="7.5931808"><ele>1344.0</ele><time>2026-04-18T07:45:04.978Z</time></trkpt><trkpt lat="43.9553553" lon="7.5931085"><ele>1345.3333333333333</ele><time>2026-04-18T07:45:05.978Z</time></trkpt><trkpt lat="43.955309" lon="7.5930398"><ele>1346.6666666666665</ele><time>2026-04-18T07:45:06.978Z</time></trkpt><trkpt lat="43.9552656" lon="7.5929644"><ele>1348.0</ele><time>2026-04-18T07:45:07.977Z</time></trkpt><trkpt lat="43.9552275" lon="7.592833"><ele>1348.1666666666665</ele><time>2026-04-18T07:45:08.978Z</time></trkpt><trkpt lat="43.9551954" lon="7.5927089"><ele>1348.3333333333333</ele><time>2026-04-18T07:45:09.978Z</time></trkpt><trkpt lat="43.9551783" lon="7.5925864"><ele>1348.5</ele><time>2026-04-18T07:45:10.977Z</time></trkpt><trkpt lat="43.9551538" lon="7.592459"><ele>1348.6666666666667</ele><time>2026-04-18T07:45:11.978Z</time></trkpt><trkpt lat="43.9551283" lon="7.5923406"><ele>1348.8333333333335</ele><time>2026-04-18T07:45:12.978Z</time></trkpt><trkpt lat="43.9551109" lon="7.5922391"><ele>1349.0</ele><time>2026-04-18T07:45:13.978Z</time></trkpt><trkpt lat="43.9550958" lon="7.5921342"><ele>1349.0</ele><time>2026-04-18T07:45:14.978Z</time></trkpt><trkpt lat="43.9550887" lon="7.5920395"><ele>1349.0</ele><time>2026-04-18T07:45:15.977Z</time></trkpt><trkpt lat="43.9550831" lon="7.591933"><ele>1349.0</ele><time>2026-04-18T07:45:16.977Z</time></trkpt><trkpt lat="43.9550808" lon="7.5918115"><ele>1349.0</ele><time>2026-04-18T07:45:17.978Z</time></trkpt><trkpt lat="43.9550954" lon="7.5916776"><ele>1349.0</ele><time>2026-04-18T07:45:18.977Z</time></trkpt><trkpt lat="43.9550971" lon="7.5915608"><ele>1349.0</ele><time>2026-04-18T07:45:19.978Z</time></trkpt><trkpt lat="43.9550971" lon="7.5914378"><ele>1348.0</ele><time>2026-04-18T07:45:20.978Z</time></trkpt><trkpt lat="43.9550611" lon="7.5913219"><ele>1347.0</ele><time>2026-04-18T07:45:21.978Z</time></trkpt><trkpt lat="43.9550436" lon="7.5912084"><ele>1346.0</ele><time>2026-04-18T07:45:22.978Z</time></trkpt><trkpt lat="43.9550459" lon="7.5910993"><ele>1345.0</ele><time>2026-04-18T07:45:23.978Z</time></trkpt><trkpt lat="43.9550639" lon="7.5909853"><ele>1344.0</ele><time>2026-04-18T07:45:24.978Z</time></trkpt><trkpt lat="43.9550877" lon="7.5908674"><ele>1343.0</ele><time>2026-04-18T07:45:25.978Z</time></trkpt><trkpt lat="43.9550792" lon="7.590759"><ele>1342.0</ele><time>2026-04-18T07:45:26.977Z</time></trkpt><trkpt lat="43.9550895" lon="7.5905896"><ele>1341.0</ele><time>2026-04-18T07:45:28.978Z</time></trkpt><trkpt lat="43.9550936" lon="7.5905015"><ele>1340.0</ele><time>2026-04-18T07:45:29.978Z</time></trkpt><trkpt lat="43.9551018" lon="7.5904073"><ele>1339.0</ele><time>2026-04-18T07:45:30.978Z</time></trkpt><trkpt lat="43.9551159" lon="7.5903152"><ele>1338.0</ele><time>2026-04-18T07:45:31.978Z</time></trkpt><trkpt lat="43.9551525" lon="7.590231"><ele>1337.0</ele><time>2026-04-18T07:45:32.978Z</time></trkpt><trkpt lat="43.9551953" lon="7.5901527"><ele>1337.0</ele><time>2026-04-18T07:45:33.978Z</time></trkpt><trkpt lat="43.955237" lon="7.5900637"><ele>1337.0</ele><time>2026-04-18T07:45:34.978Z</time></trkpt><trkpt lat="43.9552674" lon="7.5899681"><ele>1337.0</ele><time>2026-04-18T07:45:35.978Z</time></trkpt><trkpt lat="43.9552959" lon="7.5898897"><ele>1337.0</ele><time>2026-04-18T07:45:36.978Z</time></trkpt><trkpt lat="43.955328" lon="7.5897861"><ele>1337.0</ele><time>2026-04-18T07:45:38.978Z</time></trkpt><trkpt lat="43.9553118" lon="7.5896924"><ele>1337.0</ele><time>2026-04-18T07:45:56.978Z</time></trkpt><trkpt lat="43.9553273" lon="7.5896065"><ele>1337.0</ele><time>2026-04-18T07:45:58.978Z</time></trkpt><trkpt lat="43.9553657" lon="7.5894636"><ele>1338.3333333333335</ele><time>2026-04-18T07:46:00.978Z</time></trkpt><trkpt lat="43.9554119" lon="7.5892998"><ele>1339.6666666666667</ele><time>2026-04-18T07:46:02.977Z</time></trkpt><trkpt lat="43.9554267" lon="7.5892064"><ele>1341.0</ele><time>2026-04-18T07:46:03.978Z</time></trkpt><trkpt lat="43.9554233" lon="7.5891186"><ele>1342.3333333333333</ele><time>2026-04-18T07:46:04.978Z</time></trkpt><trkpt lat="43.9554137" lon="7.5890257"><ele>1343.6666666666665</ele><time>2026-04-18T07:46:05.978Z</time></trkpt><trkpt lat="43.9553953" lon="7.5889301"><ele>1345.0</ele><time>2026-04-18T07:46:06.978Z</time></trkpt><trkpt lat="43.9553852" lon="7.5888373"><ele>1345.0</ele><time>2026-04-18T07:46:07.978Z</time></trkpt><trkpt lat="43.9553839" lon="7.5887296"><ele>1345.0</ele><time>2026-04-18T07:46:08.978Z</time></trkpt><trkpt lat="43.9553675" lon="7.5886254"><ele>1345.0</ele><time>2026-04-18T07:46:09.978Z</time></trkpt><trkpt lat="43.9553567" lon="7.5885288"><ele>1345.0</ele><time>2026-04-18T07:46:10.978Z</time></trkpt><trkpt lat="43.95535" lon="7.588434"><ele>1345.0</ele><time>2026-04-18T07:46:11.978Z</time></trkpt><trkpt lat="43.95532" lon="7.5882594"><ele>1345.0</ele><time>2026-04-18T07:46:13.978Z</time></trkpt><trkpt lat="43.9553265" lon="7.5881609"><ele>1346.4</ele><time>2026-04-18T07:46:14.978Z</time></trkpt><trkpt lat="43.9553543" lon="7.5880677"><ele>1347.8</ele><time>2026-04-18T07:46:15.978Z</time></trkpt><trkpt lat="43.9553841" lon="7.5879723"><ele>1349.1999999999998</ele><time>2026-04-18T07:46:16.978Z</time></trkpt><trkpt lat="43.955444" lon="7.5879186"><ele>1350.6</ele><time>2026-04-18T07:46:17.978Z</time></trkpt><trkpt lat="43.9554874" lon="7.5877692"><ele>1352.0</ele><time>2026-04-18T07:46:19.978Z</time></trkpt><trkpt lat="43.9553782" lon="7.5876512"><ele>1353.0</ele><time>2026-04-18T07:46:21.978Z</time></trkpt><trkpt lat="43.9552519" lon="7.5876682"><ele>1354.0</ele><time>2026-04-18T07:46:23.978Z</time></trkpt><trkpt lat="43.9551857" lon="7.5877036"><ele>1355.0</ele><time>2026-04-18T07:46:24.978Z</time></trkpt><trkpt lat="43.9551262" lon="7.587735"><ele>1356.0</ele><time>2026-04-18T07:46:25.978Z</time></trkpt><trkpt lat="43.9549949" lon="7.5877718"><ele>1357.0</ele><time>2026-04-18T07:46:27.978Z</time></trkpt><trkpt lat="43.9549089" lon="7.5877455"><ele>1355.5714285714284</ele><time>2026-04-18T07:46:28.978Z</time></trkpt><trkpt lat="43.9548248" lon="7.5877332"><ele>1354.142857142857</ele><time>2026-04-18T07:46:29.977Z</time></trkpt><trkpt lat="43.9547614" lon="7.5877036"><ele>1352.7142857142858</ele><time>2026-04-18T07:46:30.978Z</time></trkpt><trkpt lat="43.9546851" lon="7.5876797"><ele>1351.2857142857142</ele><time>2026-04-18T07:46:31.978Z</time></trkpt><trkpt lat="43.9546239" lon="7.5876579"><ele>1349.857142857143</ele><time>2026-04-18T07:46:32.978Z</time></trkpt><trkpt lat="43.9545578" lon="7.5876442"><ele>1348.4285714285713</ele><time>2026-04-18T07:46:33.978Z</time></trkpt><trkpt lat="43.9544862" lon="7.5876197"><ele>1347.0</ele><time>2026-04-18T07:46:34.977Z</time></trkpt><trkpt lat="43.9543696" lon="7.5875489"><ele>1347.0</ele><time>2026-04-18T07:46:36.978Z</time></trkpt><trkpt lat="43.9543044" lon="7.5874959"><ele>1347.0</ele><time>2026-04-18T07:46:37.978Z</time></trkpt><trkpt lat="43.9542399" lon="7.5874034"><ele>1347.0</ele><time>2026-04-18T07:46:38.978Z</time></trkpt><trkpt lat="43.9541718" lon="7.5873227"><ele>1347.0</ele><time>2026-04-18T07:46:39.978Z</time></trkpt><trkpt lat="43.9540991" lon="7.5872498"><ele>1347.0</ele><time>2026-04-18T07:46:40.978Z</time></trkpt><trkpt lat="43.9540346" lon="7.5871921"><ele>1347.0</ele><time>2026-04-18T07:46:41.978Z</time></trkpt><trkpt lat="43.9539647" lon="7.5871296"><ele>1348.8333333333333</ele><time>2026-04-18T07:46:42.978Z</time></trkpt><trkpt lat="43.9538974" lon="7.5870575"><ele>1350.6666666666667</ele><time>2026-04-18T07:46:43.978Z</time></trkpt><trkpt lat="43.953823" lon="7.5870025"><ele>1352.5</ele><time>2026-04-18T07:46:44.978Z</time></trkpt><trkpt lat="43.9537466" lon="7.5869482"><ele>1354.3333333333335</ele><time>2026-04-18T07:46:45.978Z</time></trkpt><trkpt lat="43.9536794" lon="7.586892"><ele>1356.1666666666667</ele><time>2026-04-18T07:46:46.978Z</time></trkpt><trkpt lat="43.9536067" lon="7.5868467"><ele>1358.0</ele><time>2026-04-18T07:46:47.978Z</time></trkpt><trkpt lat="43.9535413" lon="7.5867972"><ele>1358.0</ele><time>2026-04-18T07:46:48.978Z</time></trkpt><trkpt lat="43.9534764" lon="7.5867556"><ele>1358.0</ele><time>2026-04-18T07:46:49.977Z</time></trkpt><trkpt lat="43.953416" lon="7.586723"><ele>1358.0</ele><time>2026-04-18T07:46:50.977Z</time></trkpt><trkpt lat="43.9533023" lon="7.586668"><ele>1358.0</ele><time>2026-04-18T07:46:52.978Z</time></trkpt><trkpt lat="43.9532464" lon="7.5866243"><ele>1358.0</ele><time>2026-04-18T07:46:53.978Z</time></trkpt><trkpt lat="43.9531921" lon="7.5865795"><ele>1358.0</ele><time>2026-04-18T07:46:54.978Z</time></trkpt><trkpt lat="43.9531341" lon="7.5865228"><ele>1356.0</ele><time>2026-04-18T07:46:55.978Z</time></trkpt><trkpt lat="43.953086" lon="7.586436"><ele>1354.0</ele><time>2026-04-18T07:46:56.978Z</time></trkpt><trkpt lat="43.9530407" lon="7.5863604"><ele>1352.0</ele><time>2026-04-18T07:46:57.978Z</time></trkpt><trkpt lat="43.9529789" lon="7.5862978"><ele>1350.0</ele><time>2026-04-18T07:46:58.978Z</time></trkpt><trkpt lat="43.9529018" lon="7.5862275"><ele>1348.0</ele><time>2026-04-18T07:46:59.978Z</time></trkpt><trkpt lat="43.952829" lon="7.5861786"><ele>1346.0</ele><time>2026-04-18T07:47:00.978Z</time></trkpt><trkpt lat="43.9527654" lon="7.5861167"><ele>1348.5</ele><time>2026-04-18T07:47:01.978Z</time></trkpt><trkpt lat="43.9527077" lon="7.5860599"><ele>1351.0</ele><time>2026-04-18T07:47:02.978Z</time></trkpt><trkpt lat="43.9526086" lon="7.5859515"><ele>1353.5</ele><time>2026-04-18T07:47:04.978Z</time></trkpt><trkpt lat="43.9525486" lon="7.5859078"><ele>1356.0</ele><time>2026-04-18T07:47:05.978Z</time></trkpt><trkpt lat="43.9524853" lon="7.585956"><ele>1358.5</ele><time>2026-04-18T07:47:06.977Z</time></trkpt><trkpt lat="43.9524206" lon="7.5860129"><ele>1361.0</ele><time>2026-04-18T07:47:07.978Z</time></trkpt><trkpt lat="43.9523415" lon="7.5860652"><ele>1361.0</ele><time>2026-04-18T07:47:08.978Z</time></trkpt><trkpt lat="43.9522596" lon="7.5861097"><ele>1361.0</ele><time>2026-04-18T07:47:09.978Z</time></trkpt><trkpt lat="43.9521892" lon="7.5861581"><ele>1361.0</ele><time>2026-04-18T07:47:10.978Z</time></trkpt><trkpt lat="43.9521149" lon="7.5862161"><ele>1361.0</ele><time>2026-04-18T07:47:11.978Z</time></trkpt><trkpt lat="43.9520478" lon="7.586278"><ele>1361.0</ele><time>2026-04-18T07:47:12.978Z</time></trkpt><trkpt lat="43.951986" lon="7.5863364"><ele>1361.0</ele><time>2026-04-18T07:47:13.978Z</time></trkpt><trkpt lat="43.9519228" lon="7.5863986"><ele>1356.8333333333335</ele><time>2026-04-18T07:47:14.978Z</time></trkpt><trkpt lat="43.9518579" lon="7.5864845"><ele>1352.6666666666667</ele><time>2026-04-18T07:47:15.978Z</time></trkpt><trkpt lat="43.9517894" lon="7.5865511"><ele>1348.5</ele><time>2026-04-18T07:47:16.978Z</time></trkpt><trkpt lat="43.9517286" lon="7.5865939"><ele>1344.3333333333333</ele><time>2026-04-18T07:47:17.978Z</time></trkpt><trkpt lat="43.9516196" lon="7.5866787"><ele>1340.1666666666665</ele><time>2026-04-18T07:47:19.978Z</time></trkpt><trkpt lat="43.9515442" lon="7.5867122"><ele>1336.0</ele><time>2026-04-18T07:47:20.978Z</time></trkpt><trkpt lat="43.9514745" lon="7.5867415"><ele>1336.0</ele><time>2026-04-18T07:47:21.978Z</time></trkpt><trkpt lat="43.9513574" lon="7.5867547"><ele>1336.0</ele><time>2026-04-18T07:47:23.978Z</time></trkpt><trkpt lat="43.9512956" lon="7.5867759"><ele>1336.0</ele><time>2026-04-18T07:47:24.978Z</time></trkpt><trkpt lat="43.951191" lon="7.586748"><ele>1336.0</ele><time>2026-04-18T07:47:26.977Z</time></trkpt><trkpt lat="43.9511282" lon="7.5866592"><ele>1336.0</ele><time>2026-04-18T07:47:28.978Z</time></trkpt><trkpt lat="43.9511271" lon="7.5865227"><ele>1336.0</ele><time>2026-04-18T07:47:30.978Z</time></trkpt><trkpt lat="43.9511894" lon="7.5863915"><ele>1336.0</ele><time>2026-04-18T07:47:32.978Z</time></trkpt><trkpt lat="43.9511652" lon="7.5862287"><ele>1336.0</ele><time>2026-04-18T07:47:34.978Z</time></trkpt><trkpt lat="43.9511541" lon="7.5860482"><ele>1336.0</ele><time>2026-04-18T07:47:36.978Z</time></trkpt><trkpt lat="43.9511457" lon="7.585951"><ele>1336.0</ele><time>2026-04-18T07:47:37.978Z</time></trkpt><trkpt lat="43.9511239" lon="7.585848"><ele>1335.1666666666665</ele><time>2026-04-18T07:47:38.978Z</time></trkpt><trkpt lat="43.9510848" lon="7.5857687"><ele>1334.3333333333333</ele><time>2026-04-18T07:47:39.978Z</time></trkpt><trkpt lat="43.9510254" lon="7.5856905"><ele>1333.5</ele><time>2026-04-18T07:47:40.978Z</time></trkpt><trkpt lat="43.950957" lon="7.5856146"><ele>1332.6666666666667</ele><time>2026-04-18T07:47:41.978Z</time></trkpt><trkpt lat="43.9508748" lon="7.5855451"><ele>1331.8333333333335</ele><time>2026-04-18T07:47:42.978Z</time></trkpt><trkpt lat="43.9507993" lon="7.5854933"><ele>1331.0</ele><time>2026-04-18T07:47:43.978Z</time></trkpt><trkpt lat="43.9507333" lon="7.5854334"><ele>1331.0</ele><time>2026-04-18T07:47:44.978Z</time></trkpt><trkpt lat="43.950689" lon="7.585362"><ele>1331.0</ele><time>2026-04-18T07:47:45.978Z</time></trkpt><trkpt lat="43.9506613" lon="7.585278"><ele>1331.0</ele><time>2026-04-18T07:47:46.978Z</time></trkpt><trkpt lat="43.9506284" lon="7.585117"><ele>1331.0</ele><time>2026-04-18T07:47:48.978Z</time></trkpt><trkpt lat="43.9506385" lon="7.585019"><ele>1331.0</ele><time>2026-04-18T07:47:49.978Z</time></trkpt><trkpt lat="43.9506151" lon="7.5848746"><ele>1331.0</ele><time>2026-04-18T07:47:51.978Z</time></trkpt><trkpt lat="43.9504968" lon="7.5847885"><ele>1331.6666666666667</ele><time>2026-04-18T07:47:53.978Z</time></trkpt><trkpt lat="43.9504133" lon="7.5847786"><ele>1332.3333333333335</ele><time>2026-04-18T07:47:54.978Z</time></trkpt><trkpt lat="43.9503216" lon="7.5848022"><ele>1333.0</ele><time>2026-04-18T07:47:55.977Z</time></trkpt><trkpt lat="43.9502378" lon="7.5848154"><ele>1333.6666666666667</ele><time>2026-04-18T07:47:56.978Z</time></trkpt><trkpt lat="43.9501601" lon="7.5848293"><ele>1334.3333333333333</ele><time>2026-04-18T07:47:57.978Z</time></trkpt><trkpt lat="43.9500768" lon="7.5848439"><ele>1335.0</ele><time>2026-04-18T07:47:58.978Z</time></trkpt><trkpt lat="43.950012" lon="7.5848577"><ele>1335.0</ele><time>2026-04-18T07:47:59.978Z</time></trkpt><trkpt lat="43.9499328" lon="7.5848899"><ele>1335.0</ele><time>2026-04-18T07:48:00.978Z</time></trkpt><trkpt lat="43.9498605" lon="7.5849225"><ele>1335.0</ele><time>2026-04-18T07:48:01.978Z</time></trkpt><trkpt lat="43.9497935" lon="7.584942"><ele>1335.0</ele><time>2026-04-18T07:48:02.978Z</time></trkpt><trkpt lat="43.949684" lon="7.5849532"><ele>1335.0</ele><time>2026-04-18T07:48:04.977Z</time></trkpt><trkpt lat="43.9496119" lon="7.5848621"><ele>1335.0</ele><time>2026-04-18T07:48:06.978Z</time></trkpt><trkpt lat="43.9495303" lon="7.5847675"><ele>1335.0</ele><time>2026-04-18T07:48:08.978Z</time></trkpt><trkpt lat="43.9494851" lon="7.5846389"><ele>1335.0</ele><time>2026-04-18T07:48:10.978Z</time></trkpt><trkpt lat="43.9494764" lon="7.5844755"><ele>1335.0</ele><time>2026-04-18T07:48:12.978Z</time></trkpt><trkpt lat="43.9495088" lon="7.584337"><ele>1335.0</ele><time>2026-04-18T07:48:14.978Z</time></trkpt><trkpt lat="43.9495824" lon="7.5842511"><ele>1335.0</ele><time>2026-04-18T07:48:16.977Z</time></trkpt><trkpt lat="43.9496861" lon="7.5841613"><ele>1337.0</ele><time>2026-04-18T07:48:18.978Z</time></trkpt><trkpt lat="43.9497439" lon="7.5841183"><ele>1339.0</ele><time>2026-04-18T07:48:19.978Z</time></trkpt><trkpt lat="43.9498482" lon="7.5840475"><ele>1341.0</ele><time>2026-04-18T07:48:21.978Z</time></trkpt><trkpt lat="43.9499525" lon="7.5839582"><ele>1343.0</ele><time>2026-04-18T07:48:23.978Z</time></trkpt><trkpt lat="43.9500303" lon="7.5838672"><ele>1345.0</ele><time>2026-04-18T07:48:25.978Z</time></trkpt><trkpt lat="43.9500047" lon="7.5837614"><ele>1345.4</ele><time>2026-04-18T07:48:26.977Z</time></trkpt><trkpt lat="43.9500172" lon="7.583598"><ele>1345.8</ele><time>2026-04-18T07:48:28.978Z</time></trkpt><trkpt lat="43.949973" lon="7.5834684"><ele>1346.1999999999998</ele><time>2026-04-18T07:48:30.978Z</time></trkpt><trkpt lat="43.9498689" lon="7.5833947"><ele>1346.6</ele><time>2026-04-18T07:48:32.978Z</time></trkpt><trkpt lat="43.9497939" lon="7.5833084"><ele>1347.0</ele><time>2026-04-18T07:48:34.978Z</time></trkpt><trkpt lat="43.9497232" lon="7.5831772"><ele>1347.0</ele><time>2026-04-18T07:48:36.978Z</time></trkpt><trkpt lat="43.9496231" lon="7.5831261"><ele>1347.0</ele><time>2026-04-18T07:48:38.978Z</time></trkpt><trkpt lat="43.9495303" lon="7.5831019"><ele>1347.0</ele><time>2026-04-18T07:48:40.978Z</time></trkpt><trkpt lat="43.9494341" lon="7.5830478"><ele>1347.0</ele><time>2026-04-18T07:48:42.978Z</time></trkpt><trkpt lat="43.949339" lon="7.5829714"><ele>1347.0</ele><time>2026-04-18T07:48:44.978Z</time></trkpt><trkpt lat="43.9492456" lon="7.5828801"><ele>1342.6</ele><time>2026-04-18T07:48:46.978Z</time></trkpt><trkpt lat="43.9491768" lon="7.5827723"><ele>1338.1999999999998</ele><time>2026-04-18T07:48:48.977Z</time></trkpt><trkpt lat="43.9491166" lon="7.5826735"><ele>1333.8</ele><time>2026-04-18T07:48:50.978Z</time></trkpt><trkpt lat="43.9490567" lon="7.5825508"><ele>1329.4</ele><time>2026-04-18T07:48:52.978Z</time></trkpt><trkpt lat="43.9490603" lon="7.5823968"><ele>1325.0</ele><time>2026-04-18T07:48:54.978Z</time></trkpt><trkpt lat="43.9490309" lon="7.5822527"><ele>1325.0</ele><time>2026-04-18T07:48:56.978Z</time></trkpt><trkpt lat="43.9490376" lon="7.5821327"><ele>1325.0</ele><time>2026-04-18T07:48:58.978Z</time></trkpt><trkpt lat="43.9490288" lon="7.5819704"><ele>1325.0</ele><time>2026-04-18T07:49:00.978Z</time></trkpt><trkpt lat="43.9490428" lon="7.5818071"><ele>1325.0</ele><time>2026-04-18T07:49:02.978Z</time></trkpt><trkpt lat="43.9490465" lon="7.5817183"><ele>1325.0</ele><time>2026-04-18T07:49:03.978Z</time></trkpt><trkpt lat="43.9490646" lon="7.5815768"><ele>1324.4</ele><time>2026-04-18T07:49:05.978Z</time></trkpt><trkpt lat="43.9491168" lon="7.581455"><ele>1323.8</ele><time>2026-04-18T07:49:07.977Z</time></trkpt><trkpt lat="43.9491711" lon="7.5813034"><ele>1323.1999999999998</ele><time>2026-04-18T07:49:09.978Z</time></trkpt><trkpt lat="43.949252" lon="7.581183"><ele>1322.6</ele><time>2026-04-18T07:49:11.978Z</time></trkpt><trkpt lat="43.9492891" lon="7.5810643"><ele>1322.0</ele><time>2026-04-18T07:49:13.978Z</time></trkpt><trkpt lat="43.949278" lon="7.5809644"><ele>1321.3999999999999</ele><time>2026-04-18T07:49:23.978Z</time></trkpt><trkpt lat="43.949243" lon="7.5808578"><ele>1320.8</ele><time>2026-04-18T07:49:26.978Z</time></trkpt><trkpt lat="43.9491841" lon="7.5807985"><ele>1320.2</ele><time>2026-04-18T07:49:29.978Z</time></trkpt><trkpt lat="43.9490882" lon="7.5807266"><ele>1319.6</ele><time>2026-04-18T07:49:31.978Z</time></trkpt><trkpt lat="43.9490437" lon="7.5805924"><ele>1319.0</ele><time>2026-04-18T07:49:33.978Z</time></trkpt><trkpt lat="43.9490389" lon="7.5804741"><ele>1319.0</ele><time>2026-04-18T07:49:35.978Z</time></trkpt><trkpt lat="43.9490826" lon="7.5803512"><ele>1319.0</ele><time>2026-04-18T07:49:37.978Z</time></trkpt><trkpt lat="43.9491454" lon="7.5802375"><ele>1319.0</ele><time>2026-04-18T07:49:39.978Z</time></trkpt><trkpt lat="43.9492031" lon="7.5801833"><ele>1319.0</ele><time>2026-04-18T07:49:40.978Z</time></trkpt><trkpt lat="43.9492596" lon="7.5800515"><ele>1319.0</ele><time>2026-04-18T07:49:42.978Z</time></trkpt><trkpt lat="43.9492903" lon="7.5799136"><ele>1321.6</ele><time>2026-04-18T07:49:44.978Z</time></trkpt><trkpt lat="43.9493469" lon="7.579822"><ele>1324.2</ele><time>2026-04-18T07:49:46.978Z</time></trkpt><trkpt lat="43.9493978" lon="7.5797233"><ele>1326.8</ele><time>2026-04-18T07:49:48.978Z</time></trkpt><trkpt lat="43.9494525" lon="7.5796165"><ele>1329.3999999999999</ele><time>2026-04-18T07:49:50.978Z</time></trkpt><trkpt lat="43.9495054" lon="7.5794625"><ele>1332.0</ele><time>2026-04-18T07:49:52.978Z</time></trkpt><trkpt lat="43.9495668" lon="7.5793187"><ele>1332.0</ele><time>2026-04-18T07:49:54.978Z</time></trkpt><trkpt lat="43.9496278" lon="7.5792162"><ele>1332.0</ele><time>2026-04-18T07:49:56.978Z</time></trkpt><trkpt lat="43.9496777" lon="7.5791597"><ele>1332.0</ele><time>2026-04-18T07:49:58.978Z</time></trkpt><trkpt lat="43.9497089" lon="7.5790733"><ele>1332.0</ele><time>2026-04-18T07:50:01.978Z</time></trkpt><trkpt lat="43.9497402" lon="7.5789658"><ele>1332.0</ele><time>2026-04-18T07:50:04.978Z</time></trkpt><trkpt lat="43.9497682" lon="7.5788789"><ele>1332.0</ele><time>2026-04-18T07:50:06.978Z</time></trkpt><trkpt lat="43.9498225" lon="7.5788094"><ele>1332.0</ele><time>2026-04-18T07:50:08.978Z</time></trkpt><trkpt lat="43.9498101" lon="7.5787123"><ele>1332.0</ele><time>2026-04-18T07:50:11.978Z</time></trkpt><trkpt lat="43.9497336" lon="7.5787251"><ele>1332.0</ele><time>2026-04-18T07:50:14.978Z</time></trkpt><trkpt lat="43.9497353" lon="7.5788681"><ele>1332.0</ele><time>2026-04-18T07:50:17.978Z</time></trkpt><trkpt lat="43.9497471" lon="7.5789739"><ele>1332.0</ele><time>2026-04-18T07:50:19.978Z</time></trkpt><trkpt lat="43.9497176" lon="7.5790901"><ele>1332.0</ele><time>2026-04-18T07:50:22.978Z</time></trkpt><trkpt lat="43.9496678" lon="7.5791554"><ele>1332.0</ele><time>2026-04-18T07:50:24.977Z</time></trkpt><trkpt lat="43.9496128" lon="7.579238"><ele>1332.0</ele><time>2026-04-18T07:50:26.978Z</time></trkpt><trkpt lat="43.9495508" lon="7.5793404"><ele>1332.0</ele><time>2026-04-18T07:50:29.978Z</time></trkpt><trkpt lat="43.9495126" lon="7.5794598"><ele>1332.0</ele><time>2026-04-18T07:50:31.977Z</time></trkpt><trkpt lat="43.9494901" lon="7.5795813"><ele>1332.0</ele><time>2026-04-18T07:50:33.978Z</time></trkpt><trkpt lat="43.9494464" lon="7.5796949"><ele>1332.0</ele><time>2026-04-18T07:50:35.978Z</time></trkpt><trkpt lat="43.9493775" lon="7.5797954"><ele>1332.0</ele><time>2026-04-18T07:50:37.978Z</time></trkpt><trkpt lat="43.9493239" lon="7.5799204"><ele>1332.0</ele><time>2026-04-18T07:50:39.977Z</time></trkpt><trkpt lat="43.9492797" lon="7.5800338"><ele>1332.0</ele><time>2026-04-18T07:50:41.978Z</time></trkpt><trkpt lat="43.9492468" lon="7.5801448"><ele>1332.0</ele><time>2026-04-18T07:50:43.978Z</time></trkpt><trkpt lat="43.9491877" lon="7.580247"><ele>1331.3333333333333</ele><time>2026-04-18T07:50:45.978Z</time></trkpt><trkpt lat="43.9491277" lon="7.5803232"><ele>1330.6666666666667</ele><time>2026-04-18T07:50:47.978Z</time></trkpt><trkpt lat="43.9490714" lon="7.5804209"><ele>1330.0</ele><time>2026-04-18T07:50:49.978Z</time></trkpt><trkpt lat="43.9490717" lon="7.5805468"><ele>1329.3333333333335</ele><time>2026-04-18T07:50:51.978Z</time></trkpt><trkpt lat="43.9490966" lon="7.5806519"><ele>1328.6666666666667</ele><time>2026-04-18T07:50:53.978Z</time></trkpt><trkpt lat="43.9491639" lon="7.5807366"><ele>1328.0</ele><time>2026-04-18T07:50:55.978Z</time></trkpt><trkpt lat="43.9492268" lon="7.5807865"><ele>1328.0</ele><time>2026-04-18T07:50:59.978Z</time></trkpt><trkpt lat="43.9492936" lon="7.5808477"><ele>1328.0</ele><time>2026-04-18T07:51:21.977Z</time></trkpt><trkpt lat="43.9492857" lon="7.5809466"><ele>1328.0</ele><time>2026-04-18T07:51:26.977Z</time></trkpt><trkpt lat="43.9492795" lon="7.5810585"><ele>1328.0</ele><time>2026-04-18T07:51:28.978Z</time></trkpt><trkpt lat="43.9492348" lon="7.5811691"><ele>1328.0</ele><time>2026-04-18T07:51:30.977Z</time></trkpt><trkpt lat="43.9491726" lon="7.5812815"><ele>1328.0</ele><time>2026-04-18T07:51:32.978Z</time></trkpt><trkpt lat="43.9491191" lon="7.5814099"><ele>1327.25</ele><time>2026-04-18T07:51:34.977Z</time></trkpt><trkpt lat="43.949063" lon="7.5815423"><ele>1326.5</ele><time>2026-04-18T07:51:36.978Z</time></trkpt><trkpt lat="43.9490419" lon="7.5816946"><ele>1325.75</ele><time>2026-04-18T07:51:38.977Z</time></trkpt><trkpt lat="43.9490211" lon="7.5818578"><ele>1325.0</ele><time>2026-04-18T07:51:40.978Z</time></trkpt><trkpt lat="43.9490237" lon="7.5820324"><ele>1325.0</ele><time>2026-04-18T07:51:42.978Z</time></trkpt><trkpt lat="43.9490319" lon="7.5821211"><ele>1325.0</ele><time>2026-04-18T07:51:43.977Z</time></trkpt><trkpt lat="43.9490421" lon="7.5822933"><ele>1325.0</ele><time>2026-04-18T07:51:45.978Z</time></trkpt><trkpt lat="43.9490666" lon="7.5824607"><ele>1325.0</ele><time>2026-04-18T07:51:47.978Z</time></trkpt><trkpt lat="43.9491169" lon="7.5826191"><ele>1325.0</ele><time>2026-04-18T07:51:49.978Z</time></trkpt><trkpt lat="43.9491844" lon="7.5827488"><ele>1329.4</ele><time>2026-04-18T07:51:51.978Z</time></trkpt><trkpt lat="43.9492716" lon="7.5828425"><ele>1333.8</ele><time>2026-04-18T07:51:53.978Z</time></trkpt><trkpt lat="43.9493195" lon="7.5829049"><ele>1338.1999999999998</ele><time>2026-04-18T07:51:54.978Z</time></trkpt><trkpt lat="43.9493786" lon="7.5829479"><ele>1342.6</ele><time>2026-04-18T07:51:55.978Z</time></trkpt><trkpt lat="43.9494919" lon="7.5830168"><ele>1347.0</ele><time>2026-04-18T07:51:57.978Z</time></trkpt><trkpt lat="43.9496137" lon="7.5830509"><ele>1347.0</ele><time>2026-04-18T07:51:59.978Z</time></trkpt><trkpt lat="43.9496792" lon="7.583072"><ele>1347.0</ele><time>2026-04-18T07:52:00.977Z</time></trkpt><trkpt lat="43.9497571" lon="7.5831555"><ele>1347.0</ele><time>2026-04-18T07:52:02.978Z</time></trkpt><trkpt lat="43.9497922" lon="7.5832285"><ele>1347.0</ele><time>2026-04-18T07:52:03.978Z</time></trkpt><trkpt lat="43.9498532" lon="7.5833822"><ele>1347.0</ele><time>2026-04-18T07:52:05.978Z</time></trkpt><trkpt lat="43.9499104" lon="7.583434"><ele>1347.0</ele><time>2026-04-18T07:52:06.978Z</time></trkpt><trkpt lat="43.949994" lon="7.5835154"><ele>1347.0</ele><time>2026-04-18T07:52:08.978Z</time></trkpt><trkpt lat="43.9500162" lon="7.5836642"><ele>1347.0</ele><time>2026-04-18T07:52:10.978Z</time></trkpt><trkpt lat="43.9499885" lon="7.5838174"><ele>1347.0</ele><time>2026-04-18T07:52:12.978Z</time></trkpt><trkpt lat="43.9499566" lon="7.5839595"><ele>1347.0</ele><time>2026-04-18T07:52:14.978Z</time></trkpt><trkpt lat="43.9498757" lon="7.5840366"><ele>1347.0</ele><time>2026-04-18T07:52:16.978Z</time></trkpt><trkpt lat="43.9498034" lon="7.5840725"><ele>1346.6666666666667</ele><time>2026-04-18T07:52:17.978Z</time></trkpt><trkpt lat="43.949733" lon="7.5841073"><ele>1346.3333333333333</ele><time>2026-04-18T07:52:18.977Z</time></trkpt><trkpt lat="43.9496762" lon="7.584151"><ele>1346.0</ele><time>2026-04-18T07:52:19.978Z</time></trkpt><trkpt lat="43.9496218" lon="7.5841966"><ele>1345.6666666666665</ele><time>2026-04-18T07:52:20.978Z</time></trkpt><trkpt lat="43.9495692" lon="7.5842491"><ele>1345.3333333333333</ele><time>2026-04-18T07:52:21.978Z</time></trkpt><trkpt lat="43.9495241" lon="7.584315"><ele>1345.0</ele><time>2026-04-18T07:52:22.978Z</time></trkpt><trkpt lat="43.9494901" lon="7.5844767"><ele>1343.3333333333333</ele><time>2026-04-18T07:52:24.978Z</time></trkpt><trkpt lat="43.9495092" lon="7.5845748"><ele>1341.6666666666665</ele><time>2026-04-18T07:52:25.978Z</time></trkpt><trkpt lat="43.949544" lon="7.584732"><ele>1340.0</ele><time>2026-04-18T07:52:27.978Z</time></trkpt><trkpt lat="43.9495935" lon="7.5848037"><ele>1338.3333333333333</ele><time>2026-04-18T07:52:28.978Z</time></trkpt><trkpt lat="43.9496366" lon="7.5848699"><ele>1336.6666666666667</ele><time>2026-04-18T07:52:29.978Z</time></trkpt><trkpt lat="43.9496848" lon="7.584934"><ele>1335.0</ele><time>2026-04-18T07:52:30.978Z</time></trkpt><trkpt lat="43.9497831" lon="7.5849224"><ele>1335.0</ele><time>2026-04-18T07:52:32.978Z</time></trkpt><trkpt lat="43.9498495" lon="7.5849005"><ele>1335.0</ele><time>2026-04-18T07:52:33.978Z</time></trkpt><trkpt lat="43.9499157" lon="7.5848671"><ele>1335.0</ele><time>2026-04-18T07:52:34.978Z</time></trkpt><trkpt lat="43.9500332" lon="7.5848311"><ele>1335.0</ele><time>2026-04-18T07:52:36.978Z</time></trkpt><trkpt lat="43.9501005" lon="7.5848114"><ele>1335.0</ele><time>2026-04-18T07:52:37.977Z</time></trkpt><trkpt lat="43.9501752" lon="7.5847935"><ele>1335.0</ele><time>2026-04-18T07:52:38.978Z</time></trkpt><trkpt lat="43.9502487" lon="7.5847949"><ele>1338.8</ele><time>2026-04-18T07:52:39.978Z</time></trkpt><trkpt lat="43.9503672" lon="7.5847933"><ele>1342.6</ele><time>2026-04-18T07:52:41.978Z</time></trkpt><trkpt lat="43.950431" lon="7.5848025"><ele>1346.4</ele><time>2026-04-18T07:52:42.978Z</time></trkpt><trkpt lat="43.9505452" lon="7.5848542"><ele>1350.2</ele><time>2026-04-18T07:52:44.978Z</time></trkpt><trkpt lat="43.9506483" lon="7.5849206"><ele>1354.0</ele><time>2026-04-18T07:52:46.978Z</time></trkpt><trkpt lat="43.9507479" lon="7.5850464"><ele>1353.9999999999998</ele><time>2026-04-18T07:52:48.977Z</time></trkpt><trkpt lat="43.9507089" lon="7.5851706"><ele>1354.0</ele><time>2026-04-18T07:52:49.978Z</time></trkpt><trkpt lat="43.9506992" lon="7.5852613"><ele>1354.0</ele><time>2026-04-18T07:52:50.978Z</time></trkpt><trkpt lat="43.950718" lon="7.5853475"><ele>1354.0</ele><time>2026-04-18T07:52:51.978Z</time></trkpt><trkpt lat="43.9507661" lon="7.5854163"><ele>1354.0</ele><time>2026-04-18T07:52:52.978Z</time></trkpt><trkpt lat="43.9508102" lon="7.5854799"><ele>1353.9999999999998</ele><time>2026-04-18T07:52:53.978Z</time></trkpt><trkpt lat="43.9508654" lon="7.585523"><ele>1354.0</ele><time>2026-04-18T07:52:54.978Z</time></trkpt><trkpt lat="43.9509189" lon="7.5855755"><ele>1355.4</ele><time>2026-04-18T07:52:55.978Z</time></trkpt><trkpt lat="43.951012" lon="7.5856552"><ele>1356.8000000000002</ele><time>2026-04-18T07:52:57.978Z</time></trkpt><trkpt lat="43.9510861" lon="7.5857828"><ele>1358.1999999999998</ele><time>2026-04-18T07:52:59.978Z</time></trkpt><trkpt lat="43.9511216" lon="7.585861"><ele>1359.6</ele><time>2026-04-18T07:53:00.978Z</time></trkpt><trkpt lat="43.9511241" lon="7.5860422"><ele>1361.0</ele><time>2026-04-18T07:53:02.978Z</time></trkpt><trkpt lat="43.9511273" lon="7.5861447"><ele>1356.0</ele><time>2026-04-18T07:53:03.978Z</time></trkpt><trkpt lat="43.9511321" lon="7.5862916"><ele>1351.0</ele><time>2026-04-18T07:53:05.978Z</time></trkpt><trkpt lat="43.95116" lon="7.5864187"><ele>1346.0</ele><time>2026-04-18T07:53:07.978Z</time></trkpt><trkpt lat="43.9511184" lon="7.5865525"><ele>1341.0</ele><time>2026-04-18T07:53:09.978Z</time></trkpt><trkpt lat="43.9511311" lon="7.5866814"><ele>1336.0</ele><time>2026-04-18T07:53:11.978Z</time></trkpt><trkpt lat="43.9512345" lon="7.5867423"><ele>1336.0</ele><time>2026-04-18T07:53:13.978Z</time></trkpt><trkpt lat="43.9513514" lon="7.5867204"><ele>1336.0</ele><time>2026-04-18T07:53:15.978Z</time></trkpt><trkpt lat="43.9514146" lon="7.5866938"><ele>1336.0</ele><time>2026-04-18T07:53:16.978Z</time></trkpt><trkpt lat="43.9514785" lon="7.5866645"><ele>1336.0</ele><time>2026-04-18T07:53:17.978Z</time></trkpt><trkpt lat="43.9515433" lon="7.5866498"><ele>1336.0</ele><time>2026-04-18T07:53:18.977Z</time></trkpt><trkpt lat="43.9516609" lon="7.5866039"><ele>1336.0</ele><time>2026-04-18T07:53:20.977Z</time></trkpt><trkpt lat="43.9517297" lon="7.5865595"><ele>1334.8333333333333</ele><time>2026-04-18T07:53:21.978Z</time></trkpt><trkpt lat="43.9518" lon="7.5865142"><ele>1333.6666666666665</ele><time>2026-04-18T07:53:22.978Z</time></trkpt><trkpt lat="43.9518584" lon="7.5864581"><ele>1332.5</ele><time>2026-04-18T07:53:23.978Z</time></trkpt><trkpt lat="43.951904" lon="7.5863939"><ele>1331.3333333333333</ele><time>2026-04-18T07:53:24.978Z</time></trkpt><trkpt lat="43.9520129" lon="7.5862692"><ele>1330.1666666666667</ele><time>2026-04-18T07:53:26.978Z</time></trkpt><trkpt lat="43.9520709" lon="7.5862003"><ele>1329.0</ele><time>2026-04-18T07:53:27.978Z</time></trkpt><trkpt lat="43.9521396" lon="7.5861366"><ele>1334.3333333333333</ele><time>2026-04-18T07:53:28.978Z</time></trkpt><trkpt lat="43.9522219" lon="7.5860852"><ele>1339.6666666666667</ele><time>2026-04-18T07:53:29.978Z</time></trkpt><trkpt lat="43.9523056" lon="7.5860405"><ele>1345.0</ele><time>2026-04-18T07:53:30.978Z</time></trkpt><trkpt lat="43.9523806" lon="7.5860015"><ele>1350.3333333333335</ele><time>2026-04-18T07:53:31.978Z</time></trkpt><trkpt lat="43.9524531" lon="7.5859757"><ele>1355.6666666666667</ele><time>2026-04-18T07:53:32.978Z</time></trkpt><trkpt lat="43.9525216" lon="7.585952"><ele>1361.0</ele><time>2026-04-18T07:53:33.978Z</time></trkpt><trkpt lat="43.9525859" lon="7.5859416"><ele>1358.5</ele><time>2026-04-18T07:53:34.978Z</time></trkpt><trkpt lat="43.9526571" lon="7.5859786"><ele>1356.0</ele><time>2026-04-18T07:53:35.978Z</time></trkpt><trkpt lat="43.9527278" lon="7.5860422"><ele>1353.5</ele><time>2026-04-18T07:53:36.978Z</time></trkpt><trkpt lat="43.9527993" lon="7.5861137"><ele>1351.0</ele><time>2026-04-18T07:53:37.978Z</time></trkpt><trkpt lat="43.9528627" lon="7.5861747"><ele>1348.5</ele><time>2026-04-18T07:53:38.978Z</time></trkpt><trkpt lat="43.9529188" lon="7.5862269"><ele>1346.0</ele><time>2026-04-18T07:53:39.978Z</time></trkpt><trkpt lat="43.952978" lon="7.586267"><ele>1346.0</ele><time>2026-04-18T07:53:40.978Z</time></trkpt><trkpt lat="43.9530374" lon="7.58632"><ele>1346.0</ele><time>2026-04-18T07:53:41.977Z</time></trkpt><trkpt lat="43.9530877" lon="7.5863929"><ele>1346.0</ele><time>2026-04-18T07:53:42.978Z</time></trkpt><trkpt lat="43.9531407" lon="7.5864888"><ele>1346.0</ele><time>2026-04-18T07:53:43.978Z</time></trkpt><trkpt lat="43.9532026" lon="7.5865718"><ele>1346.0</ele><time>2026-04-18T07:53:44.978Z</time></trkpt><trkpt lat="43.9532808" lon="7.5866173"><ele>1346.0</ele><time>2026-04-18T07:53:45.978Z</time></trkpt><trkpt lat="43.9533572" lon="7.5866598"><ele>1348.0</ele><time>2026-04-18T07:53:46.978Z</time></trkpt><trkpt lat="43.9534284" lon="7.586697"><ele>1350.0</ele><time>2026-04-18T07:53:47.978Z</time></trkpt><trkpt lat="43.9535008" lon="7.5867393"><ele>1352.0</ele><time>2026-04-18T07:53:48.978Z</time></trkpt><trkpt lat="43.953565" lon="7.5867725"><ele>1354.0</ele><time>2026-04-18T07:53:49.978Z</time></trkpt><trkpt lat="43.9536427" lon="7.5868133"><ele>1356.0</ele><time>2026-04-18T07:53:50.977Z</time></trkpt><trkpt lat="43.9537078" lon="7.5868716"><ele>1358.0</ele><time>2026-04-18T07:53:51.978Z</time></trkpt><trkpt lat="43.953776" lon="7.5869429"><ele>1358.0</ele><time>2026-04-18T07:53:52.978Z</time></trkpt><trkpt lat="43.9538482" lon="7.587007"><ele>1358.0</ele><time>2026-04-18T07:53:53.978Z</time></trkpt><trkpt lat="43.9539225" lon="7.5870601"><ele>1358.0</ele><time>2026-04-18T07:53:54.978Z</time></trkpt><trkpt lat="43.9539948" lon="7.5871183"><ele>1358.0</ele><time>2026-04-18T07:53:55.977Z</time></trkpt><trkpt lat="43.9540603" lon="7.5871757"><ele>1358.0</ele><time>2026-04-18T07:53:56.978Z</time></trkpt><trkpt lat="43.9541237" lon="7.5872446"><ele>1358.0</ele><time>2026-04-18T07:53:57.978Z</time></trkpt><trkpt lat="43.9541864" lon="7.5873066"><ele>1356.1666666666667</ele><time>2026-04-18T07:53:58.978Z</time></trkpt><trkpt lat="43.9542432" lon="7.5873775"><ele>1354.3333333333335</ele><time>2026-04-18T07:53:59.978Z</time></trkpt><trkpt lat="43.9543174" lon="7.5874954"><ele>1352.5</ele><time>2026-04-18T07:54:01.978Z</time></trkpt><trkpt lat="43.9543649" lon="7.5875548"><ele>1350.6666666666667</ele><time>2026-04-18T07:54:02.978Z</time></trkpt><trkpt lat="43.954429" lon="7.5875869"><ele>1348.8333333333333</ele><time>2026-04-18T07:54:03.978Z</time></trkpt><trkpt lat="43.9544888" lon="7.587623"><ele>1347.0</ele><time>2026-04-18T07:54:04.978Z</time></trkpt><trkpt lat="43.9545523" lon="7.5876431"><ele>1347.0</ele><time>2026-04-18T07:54:05.978Z</time></trkpt><trkpt lat="43.9546254" lon="7.5876517"><ele>1347.0</ele><time>2026-04-18T07:54:06.978Z</time></trkpt><trkpt lat="43.9546959" lon="7.5876719"><ele>1347.0</ele><time>2026-04-18T07:54:07.978Z</time></trkpt><trkpt lat="43.9548184" lon="7.5877074"><ele>1347.0</ele><time>2026-04-18T07:54:09.978Z</time></trkpt><trkpt lat="43.9548961" lon="7.5877302"><ele>1347.0</ele><time>2026-04-18T07:54:10.978Z</time></trkpt><trkpt lat="43.9549692" lon="7.5877449"><ele>1347.0</ele><time>2026-04-18T07:54:11.978Z</time></trkpt><trkpt lat="43.9550784" lon="7.587758"><ele>1348.0</ele><time>2026-04-18T07:54:13.978Z</time></trkpt><trkpt lat="43.9551905" lon="7.5877085"><ele>1349.0</ele><time>2026-04-18T07:54:15.978Z</time></trkpt><trkpt lat="43.9552572" lon="7.5876847"><ele>1350.0</ele><time>2026-04-18T07:54:16.978Z</time></trkpt><trkpt lat="43.9553205" lon="7.5876673"><ele>1351.0</ele><time>2026-04-18T07:54:17.978Z</time></trkpt><trkpt lat="43.9554069" lon="7.5877055"><ele>1352.0</ele><time>2026-04-18T07:54:19.978Z</time></trkpt><trkpt lat="43.9554182" lon="7.5878579"><ele>1352.0</ele><time>2026-04-18T07:54:21.978Z</time></trkpt><trkpt lat="43.9554081" lon="7.5879827"><ele>1352.0</ele><time>2026-04-18T07:54:23.978Z</time></trkpt><trkpt lat="43.9553374" lon="7.5881038"><ele>1352.0</ele><time>2026-04-18T07:54:25.978Z</time></trkpt><trkpt lat="43.9553315" lon="7.5882052"><ele>1352.0</ele><time>2026-04-18T07:54:26.978Z</time></trkpt><trkpt lat="43.9553252" lon="7.5883127"><ele>1352.0</ele><time>2026-04-18T07:54:27.978Z</time></trkpt><trkpt lat="43.9553238" lon="7.5884222"><ele>1352.0</ele><time>2026-04-18T07:54:28.978Z</time></trkpt><trkpt lat="43.9553285" lon="7.5885193"><ele>1350.6</ele><time>2026-04-18T07:54:29.978Z</time></trkpt><trkpt lat="43.9553398" lon="7.5886905"><ele>1349.1999999999998</ele><time>2026-04-18T07:54:31.977Z</time></trkpt><trkpt lat="43.9553647" lon="7.5888558"><ele>1347.8</ele><time>2026-04-18T07:54:33.978Z</time></trkpt><trkpt lat="43.9553892" lon="7.5889471"><ele>1346.4</ele><time>2026-04-18T07:54:34.978Z</time></trkpt><trkpt lat="43.9554257" lon="7.5890415"><ele>1345.0</ele><time>2026-04-18T07:54:35.978Z</time></trkpt><trkpt lat="43.9554372" lon="7.5891327"><ele>1345.0</ele><time>2026-04-18T07:54:36.978Z</time></trkpt><trkpt lat="43.9554357" lon="7.5892316"><ele>1345.0</ele><time>2026-04-18T07:54:37.978Z</time></trkpt><trkpt lat="43.9554227" lon="7.5893266"><ele>1345.0</ele><time>2026-04-18T07:54:38.977Z</time></trkpt><trkpt lat="43.9553757" lon="7.5894708"><ele>1345.0</ele><time>2026-04-18T07:54:40.978Z</time></trkpt><trkpt lat="43.9553484" lon="7.5895746"><ele>1345.0</ele><time>2026-04-18T07:54:42.978Z</time></trkpt><trkpt lat="43.9552925" lon="7.5896842"><ele>1345.0</ele><time>2026-04-18T07:54:45.978Z</time></trkpt><trkpt lat="43.9552457" lon="7.589806"><ele>1343.857142857143</ele><time>2026-04-18T07:54:47.978Z</time></trkpt><trkpt lat="43.9552167" lon="7.5898848"><ele>1342.7142857142858</ele><time>2026-04-18T07:54:48.978Z</time></trkpt><trkpt lat="43.9551889" lon="7.5899721"><ele>1341.5714285714284</ele><time>2026-04-18T07:54:49.978Z</time></trkpt><trkpt lat="43.9551708" lon="7.5900694"><ele>1340.4285714285716</ele><time>2026-04-18T07:54:50.978Z</time></trkpt><trkpt lat="43.9551538" lon="7.5901673"><ele>1339.2857142857142</ele><time>2026-04-18T07:54:51.978Z</time></trkpt><trkpt lat="43.9551329" lon="7.590259"><ele>1338.142857142857</ele><time>2026-04-18T07:54:52.978Z</time></trkpt><trkpt lat="43.9550989" lon="7.5903457"><ele>1337.0</ele><time>2026-04-18T07:54:53.978Z</time></trkpt><trkpt lat="43.9550579" lon="7.5904291"><ele>1337.0</ele><time>2026-04-18T07:54:54.978Z</time></trkpt><trkpt lat="43.9550638" lon="7.5905208"><ele>1337.0</ele><time>2026-04-18T07:54:55.978Z</time></trkpt><trkpt lat="43.9550747" lon="7.5906252"><ele>1337.0</ele><time>2026-04-18T07:54:56.977Z</time></trkpt><trkpt lat="43.955081" lon="7.5907385"><ele>1337.0</ele><time>2026-04-18T07:54:57.978Z</time></trkpt><trkpt lat="43.9550899" lon="7.5908434"><ele>1337.0</ele><time>2026-04-18T07:54:58.977Z</time></trkpt><trkpt lat="43.9550966" lon="7.5909711"><ele>1337.0</ele><time>2026-04-18T07:54:59.978Z</time></trkpt><trkpt lat="43.9551017" lon="7.5910873"><ele>1338.0</ele><time>2026-04-18T07:55:00.978Z</time></trkpt><trkpt lat="43.9551046" lon="7.5912062"><ele>1339.0</ele><time>2026-04-18T07:55:01.978Z</time></trkpt><trkpt lat="43.9551003" lon="7.591309"><ele>1340.0</ele><time>2026-04-18T07:55:02.978Z</time></trkpt><trkpt lat="43.9550949" lon="7.5914043"><ele>1341.0</ele><time>2026-04-18T07:55:03.978Z</time></trkpt><trkpt lat="43.9550973" lon="7.5915035"><ele>1342.0</ele><time>2026-04-18T07:55:04.978Z</time></trkpt><trkpt lat="43.9550971" lon="7.5916293"><ele>1343.0</ele><time>2026-04-18T07:55:05.978Z</time></trkpt><trkpt lat="43.9551029" lon="7.5917564"><ele>1343.0</ele><time>2026-04-18T07:55:06.978Z</time></trkpt><trkpt lat="43.9551111" lon="7.5918806"><ele>1343.0</ele><time>2026-04-18T07:55:07.978Z</time></trkpt><trkpt lat="43.9551237" lon="7.592008"><ele>1343.0</ele><time>2026-04-18T07:55:08.978Z</time></trkpt><trkpt lat="43.95514" lon="7.5921382"><ele>1343.0</ele><time>2026-04-18T07:55:09.978Z</time></trkpt><trkpt lat="43.9551651" lon="7.5922567"><ele>1343.0</ele><time>2026-04-18T07:55:10.978Z</time></trkpt><trkpt lat="43.9551974" lon="7.5923717"><ele>1343.8333333333335</ele><time>2026-04-18T07:55:11.978Z</time></trkpt><trkpt lat="43.9552157" lon="7.5924914"><ele>1344.6666666666667</ele><time>2026-04-18T07:55:12.978Z</time></trkpt><trkpt lat="43.9552362" lon="7.5926013"><ele>1345.5</ele><time>2026-04-18T07:55:13.978Z</time></trkpt><trkpt lat="43.9552557" lon="7.5927267"><ele>1346.3333333333333</ele><time>2026-04-18T07:55:14.978Z</time></trkpt><trkpt lat="43.9552815" lon="7.5928365"><ele>1347.1666666666665</ele><time>2026-04-18T07:55:15.978Z</time></trkpt><trkpt lat="43.955314" lon="7.5929403"><ele>1348.0</ele><time>2026-04-18T07:55:16.978Z</time></trkpt><trkpt lat="43.9553602" lon="7.5930423"><ele>1348.0</ele><time>2026-04-18T07:55:17.978Z</time></trkpt><trkpt lat="43.9554128" lon="7.5931283"><ele>1348.0</ele><time>2026-04-18T07:55:18.978Z</time></trkpt><trkpt lat="43.9554792" lon="7.593233"><ele>1348.0</ele><time>2026-04-18T07:55:19.978Z</time></trkpt><trkpt lat="43.9555647" lon="7.5933053"><ele>1348.0</ele><time>2026-04-18T07:55:20.978Z</time></trkpt><trkpt lat="43.955633" lon="7.593376"><ele>1348.0</ele><time>2026-04-18T07:55:21.978Z</time></trkpt><trkpt lat="43.9557093" lon="7.5934634"><ele>1348.0</ele><time>2026-04-18T07:55:22.978Z</time></trkpt><trkpt lat="43.9557808" lon="7.5935451"><ele>1348.0</ele><time>2026-04-18T07:55:23.978Z</time></trkpt><trkpt lat="43.9558536" lon="7.5936097"><ele>1348.0</ele><time>2026-04-18T07:55:24.977Z</time></trkpt><trkpt lat="43.9559355" lon="7.593675"><ele>1348.0</ele><time>2026-04-18T07:55:25.977Z</time></trkpt><trkpt lat="43.9560066" lon="7.5937596"><ele>1348.0</ele><time>2026-04-18T07:55:26.978Z</time></trkpt><trkpt lat="43.9560827" lon="7.593883"><ele>1348.1666666666665</ele><time>2026-04-18T07:55:28.978Z</time></trkpt><trkpt lat="43.9561275" lon="7.5939506"><ele>1348.3333333333333</ele><time>2026-04-18T07:55:29.978Z</time></trkpt><trkpt lat="43.9561762" lon="7.5941082"><ele>1348.5</ele><time>2026-04-18T07:55:31.978Z</time></trkpt><trkpt lat="43.9561809" lon="7.5942096"><ele>1348.6666666666667</ele><time>2026-04-18T07:55:32.978Z</time></trkpt><trkpt lat="43.9561958" lon="7.5943172"><ele>1348.8333333333335</ele><time>2026-04-18T07:55:33.978Z</time></trkpt><trkpt lat="43.9562075" lon="7.5944199"><ele>1349.0</ele><time>2026-04-18T07:55:34.978Z</time></trkpt><trkpt lat="43.9562109" lon="7.5945099"><ele>1349.0</ele><time>2026-04-18T07:55:35.978Z</time></trkpt><trkpt lat="43.9562112" lon="7.5946"><ele>1349.0</ele><time>2026-04-18T07:55:36.978Z</time></trkpt><trkpt lat="43.9562269" lon="7.5947995"><ele>1349.0</ele><time>2026-04-18T07:55:38.978Z</time></trkpt><trkpt lat="43.9562189" lon="7.5948921"><ele>1349.0</ele><time>2026-04-18T07:55:39.978Z</time></trkpt><trkpt lat="43.9562082" lon="7.5949823"><ele>1349.0</ele><time>2026-04-18T07:55:40.978Z</time></trkpt><trkpt lat="43.9561921" lon="7.5950884"><ele>1349.0</ele><time>2026-04-18T07:55:41.978Z</time></trkpt><trkpt lat="43.9561651" lon="7.5951702"><ele>1349.0</ele><time>2026-04-18T07:55:42.978Z</time></trkpt><trkpt lat="43.9561643" lon="7.5952636"><ele>1349.0</ele><time>2026-04-18T07:55:43.978Z</time></trkpt><trkpt lat="43.9561603" lon="7.5953615"><ele>1349.0</ele><time>2026-04-18T07:55:44.978Z</time></trkpt><trkpt lat="43.9561417" lon="7.5954462"><ele>1349.0</ele><time>2026-04-18T07:55:45.978Z</time></trkpt><trkpt lat="43.9561161" lon="7.5955328"><ele>1349.0</ele><time>2026-04-18T07:55:46.978Z</time></trkpt><trkpt lat="43.9560892" lon="7.5956242"><ele>1349.0</ele><time>2026-04-18T07:55:47.978Z</time></trkpt><trkpt lat="43.9560587" lon="7.5957142"><ele>1349.0</ele><time>2026-04-18T07:55:48.978Z</time></trkpt><trkpt lat="43.9560116" lon="7.5957951"><ele>1350.2</ele><time>2026-04-18T07:55:49.977Z</time></trkpt><trkpt lat="43.955977" lon="7.595887"><ele>1351.4</ele><time>2026-04-18T07:55:50.977Z</time></trkpt><trkpt lat="43.9559513" lon="7.5959774"><ele>1352.6</ele><time>2026-04-18T07:55:51.978Z</time></trkpt><trkpt lat="43.9559235" lon="7.596072"><ele>1353.8</ele><time>2026-04-18T07:55:52.978Z</time></trkpt><trkpt lat="43.9559167" lon="7.5962394"><ele>1355.0</ele><time>2026-04-18T07:55:54.978Z</time></trkpt><trkpt lat="43.9559043" lon="7.5964157"><ele>1355.0000000000002</ele><time>2026-04-18T07:55:56.978Z</time></trkpt><trkpt lat="43.9559079" lon="7.5965201"><ele>1355.0</ele><time>2026-04-18T07:55:57.978Z</time></trkpt><trkpt lat="43.9558888" lon="7.5966241"><ele>1355.0</ele><time>2026-04-18T07:55:58.978Z</time></trkpt><trkpt lat="43.9558816" lon="7.5967202"><ele>1355.0</ele><time>2026-04-18T07:55:59.978Z</time></trkpt><trkpt lat="43.9558767" lon="7.5968202"><ele>1355.0</ele><time>2026-04-18T07:56:00.978Z</time></trkpt><trkpt lat="43.9558915" lon="7.5969138"><ele>1355.0000000000002</ele><time>2026-04-18T07:56:01.978Z</time></trkpt><trkpt lat="43.9559091" lon="7.5969986"><ele>1355.0</ele><time>2026-04-18T07:56:02.978Z</time></trkpt><trkpt lat="43.9559522" lon="7.5970821"><ele>1353.0</ele><time>2026-04-18T07:56:03.978Z</time></trkpt><trkpt lat="43.9559873" lon="7.5971671"><ele>1351.0</ele><time>2026-04-18T07:56:04.978Z</time></trkpt><trkpt lat="43.9560253" lon="7.59725"><ele>1349.0</ele><time>2026-04-18T07:56:05.978Z</time></trkpt><trkpt lat="43.9560759" lon="7.5973178"><ele>1347.0</ele><time>2026-04-18T07:56:06.978Z</time></trkpt><trkpt lat="43.956132" lon="7.5973715"><ele>1345.0</ele><time>2026-04-18T07:56:07.978Z</time></trkpt><trkpt lat="43.9562424" lon="7.5974696"><ele>1343.0</ele><time>2026-04-18T07:56:09.978Z</time></trkpt><trkpt lat="43.9562972" lon="7.5975219"><ele>1343.0</ele><time>2026-04-18T07:56:10.978Z</time></trkpt><trkpt lat="43.9563599" lon="7.5975684"><ele>1343.0</ele><time>2026-04-18T07:56:11.978Z</time></trkpt><trkpt lat="43.9564218" lon="7.5976025"><ele>1343.0</ele><time>2026-04-18T07:56:12.978Z</time></trkpt><trkpt lat="43.9564898" lon="7.5976169"><ele>1343.0</ele><time>2026-04-18T07:56:13.978Z</time></trkpt><trkpt lat="43.9565658" lon="7.5976319"><ele>1343.0</ele><time>2026-04-18T07:56:14.978Z</time></trkpt><trkpt lat="43.9566358" lon="7.5976574"><ele>1343.0</ele><time>2026-04-18T07:56:15.978Z</time></trkpt><trkpt lat="43.9567021" lon="7.5976998"><ele>1343.0</ele><time>2026-04-18T07:56:16.978Z</time></trkpt><trkpt lat="43.9567627" lon="7.597778"><ele>1340.6666666666667</ele><time>2026-04-18T07:56:17.978Z</time></trkpt><trkpt lat="43.9568225" lon="7.5978637"><ele>1338.3333333333335</ele><time>2026-04-18T07:56:18.978Z</time></trkpt><trkpt lat="43.9568668" lon="7.5979338"><ele>1336.0</ele><time>2026-04-18T07:56:19.978Z</time></trkpt><trkpt lat="43.956915" lon="7.5980078"><ele>1333.6666666666667</ele><time>2026-04-18T07:56:20.978Z</time></trkpt><trkpt lat="43.9569787" lon="7.5980953"><ele>1331.3333333333333</ele><time>2026-04-18T07:56:21.978Z</time></trkpt><trkpt lat="43.957048" lon="7.59817"><ele>1329.0</ele><time>2026-04-18T07:56:22.978Z</time></trkpt><trkpt lat="43.9571172" lon="7.5982415"><ele>1329.0</ele><time>2026-04-18T07:56:23.978Z</time></trkpt><trkpt lat="43.957183" lon="7.5983018"><ele>1329.0</ele><time>2026-04-18T07:56:24.978Z</time></trkpt><trkpt lat="43.957247" lon="7.5983557"><ele>1329.0</ele><time>2026-04-18T07:56:25.978Z</time></trkpt><trkpt lat="43.9572971" lon="7.5984191"><ele>1329.0</ele><time>2026-04-18T07:56:26.978Z</time></trkpt><trkpt lat="43.9573942" lon="7.5985288"><ele>1329.0</ele><time>2026-04-18T07:56:28.978Z</time></trkpt><trkpt lat="43.9574628" lon="7.5986368"><ele>1327.8000000000002</ele><time>2026-04-18T07:56:30.978Z</time></trkpt><trkpt lat="43.9575084" lon="7.598757"><ele>1326.6000000000001</ele><time>2026-04-18T07:56:32.978Z</time></trkpt><trkpt lat="43.9575084" lon="7.5988671"><ele>1325.4</ele><time>2026-04-18T07:56:34.978Z</time></trkpt><trkpt lat="43.9574969" lon="7.5989813"><ele>1324.2</ele><time>2026-04-18T07:56:36.978Z</time></trkpt><trkpt lat="43.9574772" lon="7.5990984"><ele>1323.0</ele><time>2026-04-18T07:56:38.978Z</time></trkpt><trkpt lat="43.9574497" lon="7.599243"><ele>1323.0</ele><time>2026-04-18T07:56:40.978Z</time></trkpt><trkpt lat="43.9574283" lon="7.5993777"><ele>1323.0</ele><time>2026-04-18T07:56:42.978Z</time></trkpt><trkpt lat="43.9574417" lon="7.5995076"><ele>1323.0</ele><time>2026-04-18T07:56:44.978Z</time></trkpt><trkpt lat="43.9574472" lon="7.5996532"><ele>1323.0</ele><time>2026-04-18T07:56:46.978Z</time></trkpt><trkpt lat="43.9574645" lon="7.5998232"><ele>1323.0</ele><time>2026-04-18T07:56:48.978Z</time></trkpt><trkpt lat="43.9574428" lon="7.5999894"><ele>1322.0</ele><time>2026-04-18T07:56:50.978Z</time></trkpt><trkpt lat="43.9574183" lon="7.6001418"><ele>1321.0</ele><time>2026-04-18T07:56:52.978Z</time></trkpt><trkpt lat="43.9573881" lon="7.6002813"><ele>1320.0</ele><time>2026-04-18T07:56:54.978Z</time></trkpt><trkpt lat="43.957378" lon="7.6003696"><ele>1319.0</ele><time>2026-04-18T07:56:55.978Z</time></trkpt><trkpt lat="43.9573934" lon="7.600524"><ele>1318.0</ele><time>2026-04-18T07:56:57.978Z</time></trkpt><trkpt lat="43.9574404" lon="7.6006733"><ele>1315.8000000000002</ele><time>2026-04-18T07:56:59.978Z</time></trkpt><trkpt lat="43.9574996" lon="7.600723"><ele>1313.6</ele><time>2026-04-18T07:57:00.978Z</time></trkpt><trkpt lat="43.9575509" lon="7.600784"><ele>1311.4</ele><time>2026-04-18T07:57:01.978Z</time></trkpt><trkpt lat="43.9576446" lon="7.6008981"><ele>1309.1999999999998</ele><time>2026-04-18T07:57:03.978Z</time></trkpt><trkpt lat="43.9577222" lon="7.6010031"><ele>1307.0</ele><time>2026-04-18T07:57:05.978Z</time></trkpt><trkpt lat="43.9577839" lon="7.6011244"><ele>1310.3999999999999</ele><time>2026-04-18T07:57:07.978Z</time></trkpt><trkpt lat="43.9577944" lon="7.6012286"><ele>1313.8</ele><time>2026-04-18T07:57:08.978Z</time></trkpt><trkpt lat="43.9578043" lon="7.6013898"><ele>1317.2</ele><time>2026-04-18T07:57:10.978Z</time></trkpt><trkpt lat="43.9578057" lon="7.6014851"><ele>1320.6</ele><time>2026-04-18T07:57:11.978Z</time></trkpt><trkpt lat="43.9578242" lon="7.6016514"><ele>1324.0</ele><time>2026-04-18T07:57:13.978Z</time></trkpt><trkpt lat="43.9578427" lon="7.6017487"><ele>1324.0</ele><time>2026-04-18T07:57:14.978Z</time></trkpt><trkpt lat="43.9577896" lon="7.6018199"><ele>1324.0</ele><time>2026-04-18T07:57:15.978Z</time></trkpt><trkpt lat="43.9577467" lon="7.6018877"><ele>1324.0</ele><time>2026-04-18T07:57:16.978Z</time></trkpt><trkpt lat="43.9576549" lon="7.6019814"><ele>1324.0</ele><time>2026-04-18T07:57:18.978Z</time></trkpt><trkpt lat="43.9575833" lon="7.6020782"><ele>1324.0</ele><time>2026-04-18T07:57:20.978Z</time></trkpt><trkpt lat="43.9574992" lon="7.602182"><ele>1318.3333333333333</ele><time>2026-04-18T07:57:22.978Z</time></trkpt><trkpt lat="43.9574181" lon="7.6023077"><ele>1312.6666666666665</ele><time>2026-04-18T07:57:24.978Z</time></trkpt><trkpt lat="43.9573764" lon="7.6023788"><ele>1307.0</ele><time>2026-04-18T07:57:25.978Z</time></trkpt><trkpt lat="43.9573322" lon="7.6024448"><ele>1301.3333333333333</ele><time>2026-04-18T07:57:26.978Z</time></trkpt><trkpt lat="43.9573094" lon="7.6025266"><ele>1295.6666666666667</ele><time>2026-04-18T07:57:27.978Z</time></trkpt><trkpt lat="43.9573258" lon="7.6026322"><ele>1290.0</ele><time>2026-04-18T07:57:28.978Z</time></trkpt><trkpt lat="43.9573266" lon="7.6027341"><ele>1290.0</ele><time>2026-04-18T07:57:29.978Z</time></trkpt><trkpt lat="43.9573312" lon="7.6028303"><ele>1290.0</ele><time>2026-04-18T07:57:30.978Z</time></trkpt><trkpt lat="43.9573235" lon="7.6029298"><ele>1290.0</ele><time>2026-04-18T07:57:31.978Z</time></trkpt><trkpt lat="43.9573132" lon="7.6030239"><ele>1290.0</ele><time>2026-04-18T07:57:32.978Z</time></trkpt><trkpt lat="43.9572685" lon="7.603188"><ele>1290.0</ele><time>2026-04-18T07:57:34.978Z</time></trkpt><trkpt lat="43.9572272" lon="7.6032547"><ele>1290.0</ele><time>2026-04-18T07:57:35.978Z</time></trkpt><trkpt lat="43.9571404" lon="7.6033752"><ele>1288.5</ele><time>2026-04-18T07:57:37.977Z</time></trkpt><trkpt lat="43.9570852" lon="7.6034636"><ele>1287.0</ele><time>2026-04-18T07:57:39.977Z</time></trkpt><trkpt lat="43.9570645" lon="7.6036106"><ele>1285.5</ele><time>2026-04-18T07:57:41.978Z</time></trkpt><trkpt lat="43.9570701" lon="7.6037178"><ele>1284.0</ele><time>2026-04-18T07:57:42.978Z</time></trkpt><trkpt lat="43.9570781" lon="7.6038174"><ele>1282.5</ele><time>2026-04-18T07:57:43.978Z</time></trkpt><trkpt lat="43.9570874" lon="7.6039204"><ele>1281.0</ele><time>2026-04-18T07:57:44.978Z</time></trkpt><trkpt lat="43.957087" lon="7.6040884"><ele>1279.0</ele><time>2026-04-18T07:57:46.978Z</time></trkpt><trkpt lat="43.9570913" lon="7.604247"><ele>1277.0</ele><time>2026-04-18T07:57:48.978Z</time></trkpt><trkpt lat="43.9570721" lon="7.6043886"><ele>1275.0</ele><time>2026-04-18T07:57:50.978Z</time></trkpt><trkpt lat="43.9570456" lon="7.604486"><ele>1273.0</ele><time>2026-04-18T07:57:52.978Z</time></trkpt><trkpt lat="43.9569843" lon="7.6045968"><ele>1271.0</ele><time>2026-04-18T07:57:54.978Z</time></trkpt><trkpt lat="43.9568985" lon="7.6046725"><ele>1269.0</ele><time>2026-04-18T07:57:56.978Z</time></trkpt><trkpt lat="43.9567987" lon="7.604783"><ele>1267.0</ele><time>2026-04-18T07:57:58.978Z</time></trkpt><trkpt lat="43.9567354" lon="7.6048534"><ele>1265.0</ele><time>2026-04-18T07:57:59.978Z</time></trkpt><trkpt lat="43.9566718" lon="7.6049038"><ele>1263.0</ele><time>2026-04-18T07:58:00.978Z</time></trkpt><trkpt lat="43.9566029" lon="7.6049343"><ele>1261.0</ele><time>2026-04-18T07:58:01.978Z</time></trkpt><trkpt lat="43.9565066" lon="7.6050154"><ele>1260.6666666666665</ele><time>2026-04-18T07:58:03.977Z</time></trkpt><trkpt lat="43.9564646" lon="7.6050811"><ele>1260.3333333333333</ele><time>2026-04-18T07:58:04.978Z</time></trkpt><trkpt lat="43.9564487" lon="7.6051763"><ele>1260.0</ele><time>2026-04-18T07:58:05.978Z</time></trkpt><trkpt lat="43.9564553" lon="7.6052883"><ele>1259.6666666666667</ele><time>2026-04-18T07:58:06.978Z</time></trkpt><trkpt lat="43.9564522" lon="7.6054019"><ele>1259.3333333333335</ele><time>2026-04-18T07:58:07.978Z</time></trkpt><trkpt lat="43.9564596" lon="7.6055264"><ele>1259.0</ele><time>2026-04-18T07:58:08.978Z</time></trkpt><trkpt lat="43.9564634" lon="7.605631"><ele>1259.0</ele><time>2026-04-18T07:58:09.978Z</time></trkpt><trkpt lat="43.9564798" lon="7.6057374"><ele>1259.0</ele><time>2026-04-18T07:58:10.978Z</time></trkpt><trkpt lat="43.9564792" lon="7.6058415"><ele>1259.0</ele><time>2026-04-18T07:58:11.978Z</time></trkpt><trkpt lat="43.9564764" lon="7.6059427"><ele>1259.0</ele><time>2026-04-18T07:58:12.977Z</time></trkpt><trkpt lat="43.9564616" lon="7.6060416"><ele>1259.0</ele><time>2026-04-18T07:58:13.978Z</time></trkpt><trkpt lat="43.956412" lon="7.6061466"><ele>1259.0</ele><time>2026-04-18T07:58:14.978Z</time></trkpt><trkpt lat="43.9563561" lon="7.6062454"><ele>1260.2</ele><time>2026-04-18T07:58:15.978Z</time></trkpt><trkpt lat="43.9562908" lon="7.6063192"><ele>1261.4</ele><time>2026-04-18T07:58:16.978Z</time></trkpt><trkpt lat="43.9562411" lon="7.6063841"><ele>1262.6</ele><time>2026-04-18T07:58:17.978Z</time></trkpt><trkpt lat="43.9562012" lon="7.606453"><ele>1263.8</ele><time>2026-04-18T07:58:18.978Z</time></trkpt><trkpt lat="43.9561777" lon="7.6066069"><ele>1265.0</ele><time>2026-04-18T07:58:20.978Z</time></trkpt><trkpt lat="43.9562069" lon="7.6067729"><ele>1265.0</ele><time>2026-04-18T07:58:22.978Z</time></trkpt><trkpt lat="43.9562445" lon="7.6068603"><ele>1265.0</ele><time>2026-04-18T07:58:23.978Z</time></trkpt><trkpt lat="43.9562884" lon="7.6069465"><ele>1265.0</ele><time>2026-04-18T07:58:24.977Z</time></trkpt><trkpt lat="43.9563271" lon="7.6070311"><ele>1265.0</ele><time>2026-04-18T07:58:25.978Z</time></trkpt><trkpt lat="43.9563492" lon="7.6071345"><ele>1265.0</ele><time>2026-04-18T07:58:26.978Z</time></trkpt><trkpt lat="43.9563591" lon="7.6072468"><ele>1265.0</ele><time>2026-04-18T07:58:27.978Z</time></trkpt><trkpt lat="43.9563412" lon="7.6073339"><ele>1265.0</ele><time>2026-04-18T07:58:28.978Z</time></trkpt><trkpt lat="43.9563061" lon="7.6074127"><ele>1265.4</ele><time>2026-04-18T07:58:29.978Z</time></trkpt><trkpt lat="43.9562198" lon="7.6075448"><ele>1265.8</ele><time>2026-04-18T07:58:31.978Z</time></trkpt><trkpt lat="43.956173" lon="7.607605"><ele>1266.2</ele><time>2026-04-18T07:58:32.978Z</time></trkpt><trkpt lat="43.9560821" lon="7.6077071"><ele>1266.6</ele><time>2026-04-18T07:58:34.977Z</time></trkpt><trkpt lat="43.9560687" lon="7.60786"><ele>1267.0</ele><time>2026-04-18T07:58:36.978Z</time></trkpt><trkpt lat="43.9560844" lon="7.6080237"><ele>1266.4285714285713</ele><time>2026-04-18T07:58:38.978Z</time></trkpt><trkpt lat="43.9561142" lon="7.6081115"><ele>1265.857142857143</ele><time>2026-04-18T07:58:39.978Z</time></trkpt><trkpt lat="43.9561445" lon="7.6081962"><ele>1265.2857142857142</ele><time>2026-04-18T07:58:40.978Z</time></trkpt><trkpt lat="43.9561711" lon="7.6082857"><ele>1264.7142857142858</ele><time>2026-04-18T07:58:41.978Z</time></trkpt><trkpt lat="43.9561846" lon="7.6083766"><ele>1264.142857142857</ele><time>2026-04-18T07:58:42.978Z</time></trkpt><trkpt lat="43.9561919" lon="7.6084761"><ele>1263.5714285714284</ele><time>2026-04-18T07:58:43.978Z</time></trkpt><trkpt lat="43.9561742" lon="7.6085916"><ele>1263.0</ele><time>2026-04-18T07:58:44.978Z</time></trkpt><trkpt lat="43.9561513" lon="7.6086993"><ele>1262.7142857142856</ele><time>2026-04-18T07:58:45.978Z</time></trkpt><trkpt lat="43.9561322" lon="7.6088072"><ele>1262.4285714285713</ele><time>2026-04-18T07:58:46.977Z</time></trkpt><trkpt lat="43.9561094" lon="7.6088979"><ele>1262.142857142857</ele><time>2026-04-18T07:58:47.978Z</time></trkpt><trkpt lat="43.9560736" lon="7.6089794"><ele>1261.8571428571427</ele><time>2026-04-18T07:58:48.978Z</time></trkpt><trkpt lat="43.9560261" lon="7.609048"><ele>1261.5714285714284</ele><time>2026-04-18T07:58:49.978Z</time></trkpt><trkpt lat="43.955958" lon="7.6090934"><ele>1261.2857142857142</ele><time>2026-04-18T07:58:50.978Z</time></trkpt><trkpt lat="43.9558784" lon="7.6091359"><ele>1261.0</ele><time>2026-04-18T07:58:51.978Z</time></trkpt><trkpt lat="43.9557927" lon="7.6091628"><ele>1261.0</ele><time>2026-04-18T07:58:52.978Z</time></trkpt><trkpt lat="43.9557097" lon="7.6091941"><ele>1261.0</ele><time>2026-04-18T07:58:53.978Z</time></trkpt><trkpt lat="43.9556426" lon="7.6092325"><ele>1261.0</ele><time>2026-04-18T07:58:54.978Z</time></trkpt><trkpt lat="43.9555707" lon="7.6092633"><ele>1261.0</ele><time>2026-04-18T07:58:55.978Z</time></trkpt><trkpt lat="43.9554527" lon="7.6092925"><ele>1261.0</ele><time>2026-04-18T07:58:57.978Z</time></trkpt><trkpt lat="43.9553312" lon="7.60933"><ele>1261.0</ele><time>2026-04-18T07:58:59.978Z</time></trkpt><trkpt lat="43.9552963" lon="7.609427"><ele>1261.0</ele><time>2026-04-18T07:59:01.978Z</time></trkpt><trkpt lat="43.9553117" lon="7.6095601"><ele>1261.0</ele><time>2026-04-18T07:59:03.978Z</time></trkpt><trkpt lat="43.9553341" lon="7.6096497"><ele>1261.0</ele><time>2026-04-18T07:59:04.978Z</time></trkpt><trkpt lat="43.9553565" lon="7.6097898"><ele>1261.0</ele><time>2026-04-18T07:59:06.978Z</time></trkpt><trkpt lat="43.9553871" lon="7.6099461"><ele>1260.6</ele><time>2026-04-18T07:59:08.978Z</time></trkpt><trkpt lat="43.9553053" lon="7.6100591"><ele>1260.1999999999998</ele><time>2026-04-18T07:59:10.978Z</time></trkpt><trkpt lat="43.9552382" lon="7.610134"><ele>1259.8000000000002</ele><time>2026-04-18T07:59:12.978Z</time></trkpt><trkpt lat="43.9551686" lon="7.6102481"><ele>1259.4</ele><time>2026-04-18T07:59:14.978Z</time></trkpt><trkpt lat="43.9550705" lon="7.6103433"><ele>1259.0</ele><time>2026-04-18T07:59:16.978Z</time></trkpt><trkpt lat="43.9549752" lon="7.6104242"><ele>1258.0</ele><time>2026-04-18T07:59:18.978Z</time></trkpt><trkpt lat="43.9548842" lon="7.6105195"><ele>1257.0</ele><time>2026-04-18T07:59:20.977Z</time></trkpt><trkpt lat="43.9547903" lon="7.6106204"><ele>1256.0</ele><time>2026-04-18T07:59:22.978Z</time></trkpt><trkpt lat="43.9547204" lon="7.6106871"><ele>1255.0</ele><time>2026-04-18T07:59:23.978Z</time></trkpt><trkpt lat="43.9546547" lon="7.6107359"><ele>1254.0</ele><time>2026-04-18T07:59:24.978Z</time></trkpt><trkpt lat="43.9545951" lon="7.6107892"><ele>1254.0</ele><time>2026-04-18T07:59:25.978Z</time></trkpt><trkpt lat="43.9545363" lon="7.6108463"><ele>1254.0</ele><time>2026-04-18T07:59:26.977Z</time></trkpt><trkpt lat="43.9544766" lon="7.6109109"><ele>1254.0</ele><time>2026-04-18T07:59:27.978Z</time></trkpt><trkpt lat="43.9544212" lon="7.6109642"><ele>1254.0</ele><time>2026-04-18T07:59:28.978Z</time></trkpt><trkpt lat="43.9543603" lon="7.6110103"><ele>1254.0</ele><time>2026-04-18T07:59:29.978Z</time></trkpt><trkpt lat="43.9542628" lon="7.6111171"><ele>1254.0</ele><time>2026-04-18T07:59:31.978Z</time></trkpt><trkpt lat="43.9542152" lon="7.6111755"><ele>1250.8</ele><time>2026-04-18T07:59:32.978Z</time></trkpt><trkpt lat="43.9541207" lon="7.6112596"><ele>1247.6000000000001</ele><time>2026-04-18T07:59:34.978Z</time></trkpt><trkpt lat="43.9540076" lon="7.6112923"><ele>1244.4</ele><time>2026-04-18T07:59:36.978Z</time></trkpt><trkpt lat="43.9538892" lon="7.6113452"><ele>1241.2</ele><time>2026-04-18T07:59:38.978Z</time></trkpt><trkpt lat="43.9538211" lon="7.6113676"><ele>1238.0</ele><time>2026-04-18T07:59:39.978Z</time></trkpt><trkpt lat="43.9537026" lon="7.6113617"><ele>1238.0</ele><time>2026-04-18T07:59:41.978Z</time></trkpt><trkpt lat="43.9535728" lon="7.6113771"><ele>1238.0</ele><time>2026-04-18T07:59:43.978Z</time></trkpt><trkpt lat="43.9535064" lon="7.6113893"><ele>1238.0</ele><time>2026-04-18T07:59:44.978Z</time></trkpt><trkpt lat="43.9534388" lon="7.611406"><ele>1238.0</ele><time>2026-04-18T07:59:45.978Z</time></trkpt><trkpt lat="43.9533306" lon="7.6114465"><ele>1238.0</ele><time>2026-04-18T07:59:47.978Z</time></trkpt><trkpt lat="43.9532067" lon="7.6114654"><ele>1235.75</ele><time>2026-04-18T07:59:49.978Z</time></trkpt><trkpt lat="43.9531034" lon="7.6115012"><ele>1233.5</ele><time>2026-04-18T07:59:51.978Z</time></trkpt><trkpt lat="43.9529945" lon="7.6115362"><ele>1231.25</ele><time>2026-04-18T07:59:53.978Z</time></trkpt><trkpt lat="43.9528878" lon="7.6115783"><ele>1229.0</ele><time>2026-04-18T07:59:55.978Z</time></trkpt><trkpt lat="43.95277" lon="7.6116281"><ele>1229.0</ele><time>2026-04-18T07:59:57.978Z</time></trkpt><trkpt lat="43.9527011" lon="7.6116476"><ele>1229.0</ele><time>2026-04-18T07:59:58.978Z</time></trkpt><trkpt lat="43.9526307" lon="7.6116738"><ele>1229.0</ele><time>2026-04-18T07:59:59.978Z</time></trkpt><trkpt lat="43.9525485" lon="7.6116971"><ele>1229.0</ele><time>2026-04-18T08:00:00.978Z</time></trkpt><trkpt lat="43.9524706" lon="7.6117154"><ele>1229.0</ele><time>2026-04-18T08:00:01.978Z</time></trkpt><trkpt lat="43.9523954" lon="7.6117224"><ele>1229.0</ele><time>2026-04-18T08:00:02.977Z</time></trkpt><trkpt lat="43.9523089" lon="7.6117296"><ele>1229.3333333333335</ele><time>2026-04-18T08:00:03.978Z</time></trkpt><trkpt lat="43.9522319" lon="7.6117632"><ele>1229.6666666666667</ele><time>2026-04-18T08:00:04.978Z</time></trkpt><trkpt lat="43.9521493" lon="7.6117847"><ele>1230.0</ele><time>2026-04-18T08:00:05.978Z</time></trkpt><trkpt lat="43.9520618" lon="7.6118056"><ele>1230.3333333333333</ele><time>2026-04-18T08:00:06.978Z</time></trkpt><trkpt lat="43.9519742" lon="7.6117993"><ele>1230.6666666666665</ele><time>2026-04-18T08:00:07.978Z</time></trkpt><trkpt lat="43.9519037" lon="7.6117967"><ele>1231.0</ele><time>2026-04-18T08:00:08.978Z</time></trkpt><trkpt lat="43.9518245" lon="7.6117804"><ele>1231.0</ele><time>2026-04-18T08:00:09.978Z</time></trkpt><trkpt lat="43.9517283" lon="7.6117579"><ele>1231.0</ele><time>2026-04-18T08:00:10.978Z</time></trkpt><trkpt lat="43.951634" lon="7.6117692"><ele>1231.0</ele><time>2026-04-18T08:00:11.978Z</time></trkpt><trkpt lat="43.9515325" lon="7.6117943"><ele>1231.0</ele><time>2026-04-18T08:00:12.978Z</time></trkpt><trkpt lat="43.9514324" lon="7.6118145"><ele>1231.0</ele><time>2026-04-18T08:00:13.978Z</time></trkpt><trkpt lat="43.9513359" lon="7.6118401"><ele>1230.2</ele><time>2026-04-18T08:00:14.978Z</time></trkpt><trkpt lat="43.9512448" lon="7.6118692"><ele>1229.3999999999999</ele><time>2026-04-18T08:00:15.978Z</time></trkpt><trkpt lat="43.9511479" lon="7.6118765"><ele>1228.6</ele><time>2026-04-18T08:00:16.978Z</time></trkpt><trkpt lat="43.951047" lon="7.6118861"><ele>1227.8</ele><time>2026-04-18T08:00:17.978Z</time></trkpt><trkpt lat="43.950953" lon="7.6119094"><ele>1227.0</ele><time>2026-04-18T08:00:18.977Z</time></trkpt><trkpt lat="43.9508456" lon="7.6119345"><ele>1229.0</ele><time>2026-04-18T08:00:19.978Z</time></trkpt><trkpt lat="43.9507499" lon="7.611979"><ele>1231.0</ele><time>2026-04-18T08:00:20.978Z</time></trkpt><trkpt lat="43.9506631" lon="7.6120364"><ele>1233.0</ele><time>2026-04-18T08:00:21.978Z</time></trkpt><trkpt lat="43.9505868" lon="7.612082"><ele>1235.0</ele><time>2026-04-18T08:00:22.978Z</time></trkpt><trkpt lat="43.950509" lon="7.6121336"><ele>1237.0</ele><time>2026-04-18T08:00:23.978Z</time></trkpt><trkpt lat="43.9504142" lon="7.6121791"><ele>1235.6</ele><time>2026-04-18T08:00:24.978Z</time></trkpt><trkpt lat="43.9503153" lon="7.6122091"><ele>1234.2</ele><time>2026-04-18T08:00:25.978Z</time></trkpt><trkpt lat="43.9502182" lon="7.6122424"><ele>1232.8</ele><time>2026-04-18T08:00:26.978Z</time></trkpt><trkpt lat="43.9501129" lon="7.6122958"><ele>1231.4</ele><time>2026-04-18T08:00:27.978Z</time></trkpt><trkpt lat="43.9500125" lon="7.6123323"><ele>1230.0</ele><time>2026-04-18T08:00:28.978Z</time></trkpt><trkpt lat="43.949922" lon="7.61235"><ele>1230.0</ele><time>2026-04-18T08:00:29.978Z</time></trkpt><trkpt lat="43.9498263" lon="7.6123705"><ele>1230.0</ele><time>2026-04-18T08:00:30.978Z</time></trkpt><trkpt lat="43.9497153" lon="7.6124089"><ele>1230.0</ele><time>2026-04-18T08:00:31.978Z</time></trkpt><trkpt lat="43.9496084" lon="7.6124384"><ele>1230.0</ele><time>2026-04-18T08:00:32.978Z</time></trkpt><trkpt lat="43.9495103" lon="7.6124574"><ele>1230.0</ele><time>2026-04-18T08:00:33.978Z</time></trkpt><trkpt lat="43.949424" lon="7.6124744"><ele>1230.0</ele><time>2026-04-18T08:00:34.978Z</time></trkpt><trkpt lat="43.9493315" lon="7.6124922"><ele>1230.0</ele><time>2026-04-18T08:00:35.978Z</time></trkpt><trkpt lat="43.9492481" lon="7.6124907"><ele>1230.0</ele><time>2026-04-18T08:00:36.978Z</time></trkpt><trkpt lat="43.9491558" lon="7.6124784"><ele>1230.0</ele><time>2026-04-18T08:00:37.978Z</time></trkpt><trkpt lat="43.9490695" lon="7.6124602"><ele>1230.0</ele><time>2026-04-18T08:00:38.978Z</time></trkpt><trkpt lat="43.9489723" lon="7.6124122"><ele>1229.8</ele><time>2026-04-18T08:00:39.978Z</time></trkpt><trkpt lat="43.9488877" lon="7.6123409"><ele>1229.6</ele><time>2026-04-18T08:00:40.978Z</time></trkpt><trkpt lat="43.9487926" lon="7.6122559"><ele>1229.4</ele><time>2026-04-18T08:00:41.978Z</time></trkpt><trkpt lat="43.948699" lon="7.6121919"><ele>1229.2</ele><time>2026-04-18T08:00:42.978Z</time></trkpt><trkpt lat="43.9486031" lon="7.6121451"><ele>1229.0</ele><time>2026-04-18T08:00:43.978Z</time></trkpt><trkpt lat="43.9485029" lon="7.6121058"><ele>1229.0</ele><time>2026-04-18T08:00:44.978Z</time></trkpt><trkpt lat="43.9484024" lon="7.6120871"><ele>1229.0</ele><time>2026-04-18T08:00:45.978Z</time></trkpt><trkpt lat="43.9483075" lon="7.61209"><ele>1229.0</ele><time>2026-04-18T08:00:46.977Z</time></trkpt><trkpt lat="43.9482114" lon="7.6121088"><ele>1229.0</ele><time>2026-04-18T08:00:47.978Z</time></trkpt><trkpt lat="43.9481152" lon="7.612142"><ele>1229.0</ele><time>2026-04-18T08:00:48.978Z</time></trkpt><trkpt lat="43.9480272" lon="7.6122061"><ele>1228.4</ele><time>2026-04-18T08:00:49.978Z</time></trkpt><trkpt lat="43.9479358" lon="7.6122981"><ele>1227.8000000000002</ele><time>2026-04-18T08:00:50.978Z</time></trkpt><trkpt lat="43.9478448" lon="7.6123922"><ele>1227.1999999999998</ele><time>2026-04-18T08:00:51.978Z</time></trkpt><trkpt lat="43.9477688" lon="7.6124744"><ele>1226.6</ele><time>2026-04-18T08:00:52.978Z</time></trkpt><trkpt lat="43.9476866" lon="7.612553"><ele>1226.0</ele><time>2026-04-18T08:00:53.978Z</time></trkpt><trkpt lat="43.947592" lon="7.612635"><ele>1228.3999999999999</ele><time>2026-04-18T08:00:54.978Z</time></trkpt><trkpt lat="43.9474908" lon="7.6127089"><ele>1230.8</ele><time>2026-04-18T08:00:55.978Z</time></trkpt><trkpt lat="43.9473917" lon="7.6127733"><ele>1233.1999999999998</ele><time>2026-04-18T08:00:56.978Z</time></trkpt><trkpt lat="43.9473027" lon="7.6128285"><ele>1235.6</ele><time>2026-04-18T08:00:57.978Z</time></trkpt><trkpt lat="43.9472065" lon="7.6128914"><ele>1238.0</ele><time>2026-04-18T08:00:58.978Z</time></trkpt><trkpt lat="43.9470979" lon="7.6129294"><ele>1235.2</ele><time>2026-04-18T08:00:59.978Z</time></trkpt><trkpt lat="43.9469928" lon="7.6129789"><ele>1232.4</ele><time>2026-04-18T08:01:00.978Z</time></trkpt><trkpt lat="43.9468878" lon="7.6130222"><ele>1229.6000000000001</ele><time>2026-04-18T08:01:01.977Z</time></trkpt><trkpt lat="43.9467889" lon="7.6130697"><ele>1226.8</ele><time>2026-04-18T08:01:02.978Z</time></trkpt><trkpt lat="43.946712" lon="7.6131005"><ele>1224.0</ele><time>2026-04-18T08:01:03.978Z</time></trkpt><trkpt lat="43.9466249" lon="7.613123"><ele>1224.0</ele><time>2026-04-18T08:01:04.978Z</time></trkpt><trkpt lat="43.9465399" lon="7.6131251"><ele>1224.0</ele><time>2026-04-18T08:01:05.978Z</time></trkpt><trkpt lat="43.9464552" lon="7.6131035"><ele>1224.0</ele><time>2026-04-18T08:01:06.978Z</time></trkpt><trkpt lat="43.9463655" lon="7.6130477"><ele>1224.0</ele><time>2026-04-18T08:01:07.978Z</time></trkpt><trkpt lat="43.9462589" lon="7.6129857"><ele>1224.0</ele><time>2026-04-18T08:01:08.978Z</time></trkpt><trkpt lat="43.9461489" lon="7.6129177"><ele>1224.0</ele><time>2026-04-18T08:01:09.977Z</time></trkpt><trkpt lat="43.9460484" lon="7.612857"><ele>1224.0</ele><time>2026-04-18T08:01:10.978Z</time></trkpt><trkpt lat="43.9459609" lon="7.6128056"><ele>1224.0</ele><time>2026-04-18T08:01:11.978Z</time></trkpt><trkpt lat="43.9458943" lon="7.6127732"><ele>1224.0</ele><time>2026-04-18T08:01:12.978Z</time></trkpt><trkpt lat="43.9458097" lon="7.6127331"><ele>1224.0</ele><time>2026-04-18T08:01:13.978Z</time></trkpt><trkpt lat="43.9457259" lon="7.6126869"><ele>1223.8333333333333</ele><time>2026-04-18T08:01:14.978Z</time></trkpt><trkpt lat="43.9456569" lon="7.6126582"><ele>1223.6666666666667</ele><time>2026-04-18T08:01:15.978Z</time></trkpt><trkpt lat="43.9455779" lon="7.6126526"><ele>1223.5</ele><time>2026-04-18T08:01:16.978Z</time></trkpt><trkpt lat="43.9454999" lon="7.612656"><ele>1223.3333333333335</ele><time>2026-04-18T08:01:17.977Z</time></trkpt><trkpt lat="43.9454165" lon="7.6127112"><ele>1223.1666666666667</ele><time>2026-04-18T08:01:18.978Z</time></trkpt><trkpt lat="43.9453202" lon="7.6127735"><ele>1223.0</ele><time>2026-04-18T08:01:19.978Z</time></trkpt><trkpt lat="43.9452299" lon="7.6128246"><ele>1223.0</ele><time>2026-04-18T08:01:20.978Z</time></trkpt><trkpt lat="43.9451377" lon="7.6128373"><ele>1223.0</ele><time>2026-04-18T08:01:21.978Z</time></trkpt><trkpt lat="43.9450371" lon="7.6128825"><ele>1223.0</ele><time>2026-04-18T08:01:22.978Z</time></trkpt><trkpt lat="43.9449326" lon="7.6129237"><ele>1223.0</ele><time>2026-04-18T08:01:23.978Z</time></trkpt><trkpt lat="43.9448271" lon="7.6129378"><ele>1223.0</ele><time>2026-04-18T08:01:24.978Z</time></trkpt><trkpt lat="43.9447307" lon="7.6129593"><ele>1223.4</ele><time>2026-04-18T08:01:25.978Z</time></trkpt><trkpt lat="43.9446423" lon="7.6129854"><ele>1223.8</ele><time>2026-04-18T08:01:26.978Z</time></trkpt><trkpt lat="43.9445538" lon="7.6130023"><ele>1224.2</ele><time>2026-04-18T08:01:27.978Z</time></trkpt><trkpt lat="43.9444574" lon="7.6130087"><ele>1224.6</ele><time>2026-04-18T08:01:28.978Z</time></trkpt><trkpt lat="43.9443621" lon="7.6129934"><ele>1225.0</ele><time>2026-04-18T08:01:29.977Z</time></trkpt><trkpt lat="43.9442759" lon="7.6129526"><ele>1226.0</ele><time>2026-04-18T08:01:30.978Z</time></trkpt><trkpt lat="43.9441925" lon="7.6129203"><ele>1227.0</ele><time>2026-04-18T08:01:31.978Z</time></trkpt><trkpt lat="43.9441051" lon="7.6129146"><ele>1228.0</ele><time>2026-04-18T08:01:32.978Z</time></trkpt><trkpt lat="43.9439985" lon="7.6129196"><ele>1229.0</ele><time>2026-04-18T08:01:33.978Z</time></trkpt><trkpt lat="43.9438868" lon="7.6129428"><ele>1230.0</ele><time>2026-04-18T08:01:34.978Z</time></trkpt><trkpt lat="43.9437755" lon="7.6130058"><ele>1230.0</ele><time>2026-04-18T08:01:35.978Z</time></trkpt><trkpt lat="43.9436695" lon="7.6130627"><ele>1230.0</ele><time>2026-04-18T08:01:36.978Z</time></trkpt><trkpt lat="43.9435827" lon="7.6131104"><ele>1230.0</ele><time>2026-04-18T08:01:37.978Z</time></trkpt><trkpt lat="43.9434917" lon="7.6131389"><ele>1230.0</ele><time>2026-04-18T08:01:38.978Z</time></trkpt><trkpt lat="43.943391" lon="7.6131595"><ele>1230.0</ele><time>2026-04-18T08:01:39.978Z</time></trkpt><trkpt lat="43.9433073" lon="7.6131409"><ele>1231.4</ele><time>2026-04-18T08:01:40.978Z</time></trkpt><trkpt lat="43.9432192" lon="7.6131077"><ele>1232.8</ele><time>2026-04-18T08:01:41.978Z</time></trkpt><trkpt lat="43.9431226" lon="7.6130464"><ele>1234.2</ele><time>2026-04-18T08:01:42.978Z</time></trkpt><trkpt lat="43.9430211" lon="7.6129839"><ele>1235.6</ele><time>2026-04-18T08:01:43.978Z</time></trkpt><trkpt lat="43.9429225" lon="7.6129243"><ele>1237.0</ele><time>2026-04-18T08:01:44.978Z</time></trkpt><trkpt lat="43.942806" lon="7.612882"><ele>1237.0</ele><time>2026-04-18T08:01:45.978Z</time></trkpt><trkpt lat="43.9426865" lon="7.6128596"><ele>1237.0</ele><time>2026-04-18T08:01:46.978Z</time></trkpt><trkpt lat="43.9425708" lon="7.6128313"><ele>1237.0</ele><time>2026-04-18T08:01:47.978Z</time></trkpt><trkpt lat="43.9424617" lon="7.6127995"><ele>1237.0</ele><time>2026-04-18T08:01:48.978Z</time></trkpt><trkpt lat="43.9423514" lon="7.6127904"><ele>1235.5</ele><time>2026-04-18T08:01:49.978Z</time></trkpt><trkpt lat="43.942234" lon="7.6127924"><ele>1234.0</ele><time>2026-04-18T08:01:50.978Z</time></trkpt><trkpt lat="43.9421275" lon="7.6128093"><ele>1232.5</ele><time>2026-04-18T08:01:51.978Z</time></trkpt><trkpt lat="43.9420046" lon="7.6128413"><ele>1231.0</ele><time>2026-04-18T08:01:52.978Z</time></trkpt><trkpt lat="43.9418798" lon="7.6128775"><ele>1231.0</ele><time>2026-04-18T08:01:53.978Z</time></trkpt><trkpt lat="43.9417733" lon="7.6129116"><ele>1231.0</ele><time>2026-04-18T08:01:54.978Z</time></trkpt><trkpt lat="43.9416635" lon="7.6129379"><ele>1231.0</ele><time>2026-04-18T08:01:55.978Z</time></trkpt><trkpt lat="43.9415598" lon="7.6129591"><ele>1231.0</ele><time>2026-04-18T08:01:56.978Z</time></trkpt><trkpt lat="43.9414551" lon="7.6129772"><ele>1231.0</ele><time>2026-04-18T08:01:57.978Z</time></trkpt><trkpt lat="43.9413402" lon="7.6130198"><ele>1230.6</ele><time>2026-04-18T08:01:58.978Z</time></trkpt><trkpt lat="43.9412459" lon="7.6130437"><ele>1230.1999999999998</ele><time>2026-04-18T08:01:59.977Z</time></trkpt><trkpt lat="43.9411471" lon="7.6130638"><ele>1229.8000000000002</ele><time>2026-04-18T08:02:00.978Z</time></trkpt><trkpt lat="43.9410517" lon="7.613085"><ele>1229.4</ele><time>2026-04-18T08:02:01.978Z</time></trkpt><trkpt lat="43.9409628" lon="7.6130854"><ele>1229.0</ele><time>2026-04-18T08:02:02.978Z</time></trkpt><trkpt lat="43.9408758" lon="7.6130843"><ele>1228.6666666666667</ele><time>2026-04-18T08:02:03.978Z</time></trkpt><trkpt lat="43.9407754" lon="7.6130756"><ele>1228.3333333333335</ele><time>2026-04-18T08:02:04.978Z</time></trkpt><trkpt lat="43.9406859" lon="7.6130648"><ele>1228.0</ele><time>2026-04-18T08:02:05.977Z</time></trkpt><trkpt lat="43.9406193" lon="7.613033"><ele>1227.6666666666667</ele><time>2026-04-18T08:02:06.978Z</time></trkpt><trkpt lat="43.9405549" lon="7.6129791"><ele>1227.3333333333333</ele><time>2026-04-18T08:02:07.978Z</time></trkpt><trkpt lat="43.9404963" lon="7.6129227"><ele>1227.0</ele><time>2026-04-18T08:02:08.978Z</time></trkpt><trkpt lat="43.9404034" lon="7.6127906"><ele>1230.6666666666667</ele><time>2026-04-18T08:02:10.978Z</time></trkpt><trkpt lat="43.9403424" lon="7.6126988"><ele>1234.3333333333333</ele><time>2026-04-18T08:02:11.978Z</time></trkpt><trkpt lat="43.9403328" lon="7.6125978"><ele>1238.0</ele><time>2026-04-18T08:02:12.978Z</time></trkpt><trkpt lat="43.9403167" lon="7.6124842"><ele>1241.6666666666665</ele><time>2026-04-18T08:02:13.978Z</time></trkpt><trkpt lat="43.9403133" lon="7.6123448"><ele>1245.3333333333333</ele><time>2026-04-18T08:02:14.978Z</time></trkpt><trkpt lat="43.9403065" lon="7.6122193"><ele>1249.0</ele><time>2026-04-18T08:02:15.977Z</time></trkpt><trkpt lat="43.9402986" lon="7.6121106"><ele>1249.0</ele><time>2026-04-18T08:02:16.977Z</time></trkpt><trkpt lat="43.9402891" lon="7.6120075"><ele>1249.0</ele><time>2026-04-18T08:02:17.978Z</time></trkpt><trkpt lat="43.9402678" lon="7.6119107"><ele>1249.0</ele><time>2026-04-18T08:02:18.977Z</time></trkpt><trkpt lat="43.9402476" lon="7.6118245"><ele>1249.0</ele><time>2026-04-18T08:02:19.977Z</time></trkpt><trkpt lat="43.9401936" lon="7.6117465"><ele>1249.0</ele><time>2026-04-18T08:02:20.978Z</time></trkpt><trkpt lat="43.9401315" lon="7.6116771"><ele>1249.0</ele><time>2026-04-18T08:02:21.978Z</time></trkpt><trkpt lat="43.9400433" lon="7.6116351"><ele>1245.0</ele><time>2026-04-18T08:02:22.978Z</time></trkpt><trkpt lat="43.9399737" lon="7.611597"><ele>1241.0</ele><time>2026-04-18T08:02:23.978Z</time></trkpt><trkpt lat="43.939903" lon="7.6115404"><ele>1237.0</ele><time>2026-04-18T08:02:24.978Z</time></trkpt><trkpt lat="43.9398472" lon="7.6114698"><ele>1233.0</ele><time>2026-04-18T08:02:25.978Z</time></trkpt><trkpt lat="43.9397977" lon="7.6113913"><ele>1229.0</ele><time>2026-04-18T08:02:26.978Z</time></trkpt><trkpt lat="43.9397503" lon="7.6112979"><ele>1225.0</ele><time>2026-04-18T08:02:27.978Z</time></trkpt><trkpt lat="43.9396963" lon="7.6111974"><ele>1227.8</ele><time>2026-04-18T08:02:28.978Z</time></trkpt><trkpt lat="43.9396758" lon="7.6110787"><ele>1230.6</ele><time>2026-04-18T08:02:29.978Z</time></trkpt><trkpt lat="43.9396543" lon="7.6109534"><ele>1233.4</ele><time>2026-04-18T08:02:30.978Z</time></trkpt><trkpt lat="43.9396407" lon="7.6108234"><ele>1236.2</ele><time>2026-04-18T08:02:31.977Z</time></trkpt><trkpt lat="43.9396461" lon="7.610696"><ele>1239.0</ele><time>2026-04-18T08:02:32.978Z</time></trkpt><trkpt lat="43.9396307" lon="7.6105638"><ele>1239.0</ele><time>2026-04-18T08:02:33.978Z</time></trkpt><trkpt lat="43.9396153" lon="7.6104391"><ele>1239.0</ele><time>2026-04-18T08:02:34.978Z</time></trkpt><trkpt lat="43.9395864" lon="7.6103281"><ele>1239.0</ele><time>2026-04-18T08:02:35.978Z</time></trkpt><trkpt lat="43.9395528" lon="7.6102223"><ele>1239.0</ele><time>2026-04-18T08:02:36.978Z</time></trkpt><trkpt lat="43.9395085" lon="7.6101391"><ele>1239.0</ele><time>2026-04-18T08:02:37.978Z</time></trkpt><trkpt lat="43.9394491" lon="7.6100624"><ele>1239.0</ele><time>2026-04-18T08:02:38.977Z</time></trkpt><trkpt lat="43.9393948" lon="7.6099892"><ele>1240.1666666666667</ele><time>2026-04-18T08:02:39.978Z</time></trkpt><trkpt lat="43.9393321" lon="7.6099154"><ele>1241.3333333333333</ele><time>2026-04-18T08:02:40.978Z</time></trkpt><trkpt lat="43.93927" lon="7.6098374"><ele>1242.5</ele><time>2026-04-18T08:02:41.978Z</time></trkpt><trkpt lat="43.9392192" lon="7.6097698"><ele>1243.6666666666665</ele><time>2026-04-18T08:02:42.978Z</time></trkpt><trkpt lat="43.9391755" lon="7.6097026"><ele>1244.8333333333333</ele><time>2026-04-18T08:02:43.978Z</time></trkpt><trkpt lat="43.9391302" lon="7.6095482"><ele>1246.0</ele><time>2026-04-18T08:02:45.978Z</time></trkpt><trkpt lat="43.9391245" lon="7.609379"><ele>1244.5</ele><time>2026-04-18T08:02:47.978Z</time></trkpt><trkpt lat="43.9391458" lon="7.60927"><ele>1243.0</ele><time>2026-04-18T08:02:48.978Z</time></trkpt><trkpt lat="43.9391914" lon="7.6091663"><ele>1241.5</ele><time>2026-04-18T08:02:49.978Z</time></trkpt><trkpt lat="43.9392392" lon="7.60905"><ele>1240.0</ele><time>2026-04-18T08:02:50.978Z</time></trkpt><trkpt lat="43.9392861" lon="7.6089474"><ele>1238.5</ele><time>2026-04-18T08:02:51.978Z</time></trkpt><trkpt lat="43.9393243" lon="7.6088535"><ele>1237.0</ele><time>2026-04-18T08:02:52.978Z</time></trkpt><trkpt lat="43.9393605" lon="7.6087693"><ele>1234.2</ele><time>2026-04-18T08:02:53.978Z</time></trkpt><trkpt lat="43.9394472" lon="7.6086593"><ele>1231.4</ele><time>2026-04-18T08:02:55.978Z</time></trkpt><trkpt lat="43.9395291" lon="7.6085509"><ele>1228.6</ele><time>2026-04-18T08:02:57.978Z</time></trkpt><trkpt lat="43.9395826" lon="7.6084295"><ele>1225.8</ele><time>2026-04-18T08:02:59.978Z</time></trkpt><trkpt lat="43.9396223" lon="7.6083194"><ele>1223.0</ele><time>2026-04-18T08:03:01.978Z</time></trkpt><trkpt lat="43.9396772" lon="7.6082453"><ele>1223.0</ele><time>2026-04-18T08:03:03.977Z</time></trkpt><trkpt lat="43.9397504" lon="7.6081988"><ele>1223.0</ele><time>2026-04-18T08:03:05.978Z</time></trkpt><trkpt lat="43.9398189" lon="7.6082099"><ele>1223.0</ele><time>2026-04-18T08:03:07.978Z</time></trkpt><trkpt lat="43.9399185" lon="7.6082435"><ele>1223.0</ele><time>2026-04-18T08:03:09.978Z</time></trkpt><trkpt lat="43.9399875" lon="7.6082614"><ele>1223.0</ele><time>2026-04-18T08:03:10.978Z</time></trkpt><trkpt lat="43.9400591" lon="7.6083002"><ele>1223.0</ele><time>2026-04-18T08:03:11.978Z</time></trkpt><trkpt lat="43.9401281" lon="7.6083486"><ele>1221.2</ele><time>2026-04-18T08:03:12.978Z</time></trkpt><trkpt lat="43.9402326" lon="7.6084077"><ele>1219.4</ele><time>2026-04-18T08:03:13.978Z</time></trkpt><trkpt lat="43.9403396" lon="7.608456"><ele>1217.6000000000001</ele><time>2026-04-18T08:03:14.978Z</time></trkpt><trkpt lat="43.9404459" lon="7.6084868"><ele>1215.8</ele><time>2026-04-18T08:03:15.978Z</time></trkpt><trkpt lat="43.9405456" lon="7.6085198"><ele>1214.0</ele><time>2026-04-18T08:03:16.978Z</time></trkpt><trkpt lat="43.9406315" lon="7.6085505"><ele>1214.0</ele><time>2026-04-18T08:03:17.978Z</time></trkpt><trkpt lat="43.9407204" lon="7.6085691"><ele>1214.0</ele><time>2026-04-18T08:03:18.978Z</time></trkpt><trkpt lat="43.9408107" lon="7.6085871"><ele>1214.0</ele><time>2026-04-18T08:03:19.978Z</time></trkpt><trkpt lat="43.9408925" lon="7.6086092"><ele>1214.0</ele><time>2026-04-18T08:03:20.978Z</time></trkpt><trkpt lat="43.9409619" lon="7.6086206"><ele>1214.0</ele><time>2026-04-18T08:03:21.978Z</time></trkpt><trkpt lat="43.941091" lon="7.6086368"><ele>1217.4</ele><time>2026-04-18T08:03:23.978Z</time></trkpt><trkpt lat="43.9411981" lon="7.6085067"><ele>1220.8000000000002</ele><time>2026-04-18T08:03:25.978Z</time></trkpt><trkpt lat="43.9412365" lon="7.6084161"><ele>1224.1999999999998</ele><time>2026-04-18T08:03:26.978Z</time></trkpt><trkpt lat="43.9412839" lon="7.6083217"><ele>1227.6</ele><time>2026-04-18T08:03:27.978Z</time></trkpt><trkpt lat="43.9413424" lon="7.6082208"><ele>1231.0</ele><time>2026-04-18T08:03:28.978Z</time></trkpt><trkpt lat="43.9414092" lon="7.6081286"><ele>1231.0</ele><time>2026-04-18T08:03:29.978Z</time></trkpt><trkpt lat="43.9414788" lon="7.6080439"><ele>1231.0</ele><time>2026-04-18T08:03:30.978Z</time></trkpt><trkpt lat="43.9415483" lon="7.607964"><ele>1231.0</ele><time>2026-04-18T08:03:31.978Z</time></trkpt><trkpt lat="43.9416332" lon="7.6078823"><ele>1231.0</ele><time>2026-04-18T08:03:32.978Z</time></trkpt><trkpt lat="43.9417184" lon="7.6078074"><ele>1231.0</ele><time>2026-04-18T08:03:33.978Z</time></trkpt><trkpt lat="43.9417934" lon="7.6077285"><ele>1228.0</ele><time>2026-04-18T08:03:34.978Z</time></trkpt><trkpt lat="43.9418586" lon="7.6076311"><ele>1225.0</ele><time>2026-04-18T08:03:35.978Z</time></trkpt><trkpt lat="43.9419048" lon="7.6075117"><ele>1222.0</ele><time>2026-04-18T08:03:36.977Z</time></trkpt><trkpt lat="43.9419413" lon="7.6073934"><ele>1219.0</ele><time>2026-04-18T08:03:37.978Z</time></trkpt><trkpt lat="43.9419817" lon="7.6072865"><ele>1216.0</ele><time>2026-04-18T08:03:38.978Z</time></trkpt><trkpt lat="43.9420146" lon="7.6071856"><ele>1216.0</ele><time>2026-04-18T08:03:39.978Z</time></trkpt><trkpt lat="43.9420333" lon="7.6070805"><ele>1216.0</ele><time>2026-04-18T08:03:40.978Z</time></trkpt><trkpt lat="43.9420684" lon="7.6070012"><ele>1216.0</ele><time>2026-04-18T08:03:41.978Z</time></trkpt><trkpt lat="43.942138" lon="7.6069176"><ele>1216.0</ele><time>2026-04-18T08:03:42.978Z</time></trkpt><trkpt lat="43.9421837" lon="7.6068333"><ele>1216.0</ele><time>2026-04-18T08:03:43.978Z</time></trkpt><trkpt lat="43.9422462" lon="7.6067568"><ele>1216.0</ele><time>2026-04-18T08:03:44.977Z</time></trkpt><trkpt lat="43.9423173" lon="7.6066719"><ele>1212.6666666666665</ele><time>2026-04-18T08:03:45.977Z</time></trkpt><trkpt lat="43.9423819" lon="7.606605"><ele>1209.3333333333333</ele><time>2026-04-18T08:03:46.978Z</time></trkpt><trkpt lat="43.942446" lon="7.6065298"><ele>1206.0</ele><time>2026-04-18T08:03:47.978Z</time></trkpt><trkpt lat="43.9425233" lon="7.6064851"><ele>1202.6666666666667</ele><time>2026-04-18T08:03:48.978Z</time></trkpt><trkpt lat="43.9426047" lon="7.6064576"><ele>1199.3333333333335</ele><time>2026-04-18T08:03:49.978Z</time></trkpt><trkpt lat="43.9426874" lon="7.6064428"><ele>1196.0</ele><time>2026-04-18T08:03:50.977Z</time></trkpt><trkpt lat="43.9427591" lon="7.6064567"><ele>1190.8</ele><time>2026-04-18T08:03:51.978Z</time></trkpt><trkpt lat="43.9428241" lon="7.6064702"><ele>1185.6</ele><time>2026-04-18T08:03:52.978Z</time></trkpt><trkpt lat="43.9429475" lon="7.606516"><ele>1180.4</ele><time>2026-04-18T08:03:54.978Z</time></trkpt><trkpt lat="43.9429555" lon="7.6066075"><ele>1175.2</ele><time>2026-04-18T08:03:55.978Z</time></trkpt><trkpt lat="43.9429549" lon="7.6067741"><ele>1170.0</ele><time>2026-04-18T08:03:56.978Z</time></trkpt><trkpt lat="43.942974" lon="7.6068956"><ele>1172.3333333333333</ele><time>2026-04-18T08:03:57.978Z</time></trkpt><trkpt lat="43.9430127" lon="7.6070158"><ele>1174.6666666666667</ele><time>2026-04-18T08:03:58.978Z</time></trkpt><trkpt lat="43.943047" lon="7.6071162"><ele>1177.0</ele><time>2026-04-18T08:03:59.977Z</time></trkpt><trkpt lat="43.9430918" lon="7.6072083"><ele>1179.3333333333335</ele><time>2026-04-18T08:04:00.978Z</time></trkpt><trkpt lat="43.9431412" lon="7.6072972"><ele>1181.6666666666667</ele><time>2026-04-18T08:04:01.978Z</time></trkpt><trkpt lat="43.9432302" lon="7.6073792"><ele>1184.0</ele><time>2026-04-18T08:04:02.978Z</time></trkpt><trkpt lat="43.9433106" lon="7.607465"><ele>1182.0</ele><time>2026-04-18T08:04:03.977Z</time></trkpt><trkpt lat="43.9433847" lon="7.6075681"><ele>1180.0</ele><time>2026-04-18T08:04:04.978Z</time></trkpt><trkpt lat="43.9434567" lon="7.6076537"><ele>1178.0</ele><time>2026-04-18T08:04:05.978Z</time></trkpt><trkpt lat="43.9435324" lon="7.6077397"><ele>1176.0</ele><time>2026-04-18T08:04:06.978Z</time></trkpt><trkpt lat="43.9435856" lon="7.6078456"><ele>1174.0</ele><time>2026-04-18T08:04:07.978Z</time></trkpt><trkpt lat="43.9436446" lon="7.6079434"><ele>1174.0</ele><time>2026-04-18T08:04:08.978Z</time></trkpt><trkpt lat="43.9437172" lon="7.6080352"><ele>1174.0</ele><time>2026-04-18T08:04:09.978Z</time></trkpt><trkpt lat="43.9437727" lon="7.6081412"><ele>1174.0</ele><time>2026-04-18T08:04:10.978Z</time></trkpt><trkpt lat="43.9438255" lon="7.6082329"><ele>1174.0</ele><time>2026-04-18T08:04:11.978Z</time></trkpt><trkpt lat="43.9438806" lon="7.6083148"><ele>1174.0</ele><time>2026-04-18T08:04:12.978Z</time></trkpt><trkpt lat="43.943929" lon="7.6083808"><ele>1174.0</ele><time>2026-04-18T08:04:13.978Z</time></trkpt><trkpt lat="43.9439835" lon="7.6084289"><ele>1174.0</ele><time>2026-04-18T08:04:14.978Z</time></trkpt><trkpt lat="43.9440388" lon="7.6084725"><ele>1174.0</ele><time>2026-04-18T08:04:15.978Z</time></trkpt><trkpt lat="43.9441747" lon="7.6084934"><ele>1174.0</ele><time>2026-04-18T08:04:17.978Z</time></trkpt><trkpt lat="43.9442807" lon="7.6084793"><ele>1174.0</ele><time>2026-04-18T08:04:18.978Z</time></trkpt><trkpt lat="43.9443851" lon="7.6084563"><ele>1174.0</ele><time>2026-04-18T08:04:19.978Z</time></trkpt><trkpt lat="43.944424" lon="7.608329"><ele>1176.0</ele><time>2026-04-18T08:04:20.978Z</time></trkpt><trkpt lat="43.9444612" lon="7.6081882"><ele>1178.0</ele><time>2026-04-18T08:04:21.978Z</time></trkpt><trkpt lat="43.9445101" lon="7.6080604"><ele>1180.0</ele><time>2026-04-18T08:04:22.978Z</time></trkpt><trkpt lat="43.9445866" lon="7.6079831"><ele>1182.0</ele><time>2026-04-18T08:04:23.978Z</time></trkpt><trkpt lat="43.9446617" lon="7.6079016"><ele>1184.0</ele><time>2026-04-18T08:04:24.978Z</time></trkpt><trkpt lat="43.944734" lon="7.6078286"><ele>1179.1666666666667</ele><time>2026-04-18T08:04:25.978Z</time></trkpt><trkpt lat="43.9448097" lon="7.6077627"><ele>1174.3333333333335</ele><time>2026-04-18T08:04:26.978Z</time></trkpt><trkpt lat="43.9448863" lon="7.6077201"><ele>1169.5</ele><time>2026-04-18T08:04:27.978Z</time></trkpt><trkpt lat="43.9449632" lon="7.6076738"><ele>1164.6666666666667</ele><time>2026-04-18T08:04:28.978Z</time></trkpt><trkpt lat="43.9450367" lon="7.6076426"><ele>1159.8333333333333</ele><time>2026-04-18T08:04:29.978Z</time></trkpt><trkpt lat="43.9451176" lon="7.6076433"><ele>1155.0</ele><time>2026-04-18T08:04:30.978Z</time></trkpt><trkpt lat="43.9451931" lon="7.6076621"><ele>1155.0</ele><time>2026-04-18T08:04:31.978Z</time></trkpt><trkpt lat="43.94528" lon="7.607712"><ele>1155.0</ele><time>2026-04-18T08:04:32.978Z</time></trkpt><trkpt lat="43.9453856" lon="7.6077581"><ele>1155.0</ele><time>2026-04-18T08:04:33.978Z</time></trkpt><trkpt lat="43.945492" lon="7.607814"><ele>1155.0</ele><time>2026-04-18T08:04:34.977Z</time></trkpt><trkpt lat="43.9456012" lon="7.6078618"><ele>1155.0</ele><time>2026-04-18T08:04:35.978Z</time></trkpt><trkpt lat="43.9457099" lon="7.6079208"><ele>1159.2</ele><time>2026-04-18T08:04:36.978Z</time></trkpt><trkpt lat="43.9458049" lon="7.6079833"><ele>1163.4</ele><time>2026-04-18T08:04:37.978Z</time></trkpt><trkpt lat="43.9458954" lon="7.6080352"><ele>1167.6</ele><time>2026-04-18T08:04:38.978Z</time></trkpt><trkpt lat="43.9459775" lon="7.6080777"><ele>1171.8</ele><time>2026-04-18T08:04:39.978Z</time></trkpt><trkpt lat="43.9460588" lon="7.6081016"><ele>1176.0</ele><time>2026-04-18T08:04:40.978Z</time></trkpt><trkpt lat="43.9461767" lon="7.6080817"><ele>1176.1666666666667</ele><time>2026-04-18T08:04:42.978Z</time></trkpt><trkpt lat="43.9462365" lon="7.6080394"><ele>1176.3333333333333</ele><time>2026-04-18T08:04:43.978Z</time></trkpt><trkpt lat="43.9462447" lon="7.6079079"><ele>1176.5</ele><time>2026-04-18T08:04:44.978Z</time></trkpt><trkpt lat="43.9462498" lon="7.6077897"><ele>1176.6666666666665</ele><time>2026-04-18T08:04:45.978Z</time></trkpt><trkpt lat="43.9462462" lon="7.6076578"><ele>1176.8333333333333</ele><time>2026-04-18T08:04:46.977Z</time></trkpt><trkpt lat="43.9462598" lon="7.6075293"><ele>1177.0</ele><time>2026-04-18T08:04:47.978Z</time></trkpt><trkpt lat="43.9462605" lon="7.6074008"><ele>1175.0</ele><time>2026-04-18T08:04:48.978Z</time></trkpt><trkpt lat="43.946247" lon="7.6072728"><ele>1173.0</ele><time>2026-04-18T08:04:49.978Z</time></trkpt><trkpt lat="43.9462206" lon="7.6071326"><ele>1171.0</ele><time>2026-04-18T08:04:50.977Z</time></trkpt><trkpt lat="43.9461684" lon="7.6069986"><ele>1169.0</ele><time>2026-04-18T08:04:51.978Z</time></trkpt><trkpt lat="43.9461131" lon="7.606871"><ele>1167.0</ele><time>2026-04-18T08:04:52.978Z</time></trkpt><trkpt lat="43.946061" lon="7.6067503"><ele>1165.0</ele><time>2026-04-18T08:04:53.978Z</time></trkpt><trkpt lat="43.9460135" lon="7.6066256"><ele>1163.0</ele><time>2026-04-18T08:04:54.977Z</time></trkpt><trkpt lat="43.9459618" lon="7.6065183"><ele>1161.0</ele><time>2026-04-18T08:04:55.978Z</time></trkpt><trkpt lat="43.9459164" lon="7.6064134"><ele>1159.0</ele><time>2026-04-18T08:04:56.978Z</time></trkpt><trkpt lat="43.9458835" lon="7.6063159"><ele>1157.0</ele><time>2026-04-18T08:04:57.978Z</time></trkpt><trkpt lat="43.9458514" lon="7.6062154"><ele>1155.0</ele><time>2026-04-18T08:04:58.978Z</time></trkpt><trkpt lat="43.9458198" lon="7.6061197"><ele>1154.0</ele><time>2026-04-18T08:04:59.978Z</time></trkpt><trkpt lat="43.9457919" lon="7.6060309"><ele>1153.0</ele><time>2026-04-18T08:05:00.978Z</time></trkpt><trkpt lat="43.9457559" lon="7.605944"><ele>1152.0</ele><time>2026-04-18T08:05:01.978Z</time></trkpt><trkpt lat="43.9457094" lon="7.6058719"><ele>1151.0</ele><time>2026-04-18T08:05:02.978Z</time></trkpt><trkpt lat="43.9456254" lon="7.6058413"><ele>1150.0</ele><time>2026-04-18T08:05:03.977Z</time></trkpt><trkpt lat="43.9455272" lon="7.6058272"><ele>1149.0</ele><time>2026-04-18T08:05:04.978Z</time></trkpt><trkpt lat="43.9454454" lon="7.6057956"><ele>1149.0</ele><time>2026-04-18T08:05:05.978Z</time></trkpt><trkpt lat="43.9453688" lon="7.605746"><ele>1149.0</ele><time>2026-04-18T08:05:06.978Z</time></trkpt><trkpt lat="43.945296" lon="7.6056956"><ele>1149.0</ele><time>2026-04-18T08:05:07.978Z</time></trkpt><trkpt lat="43.9452237" lon="7.6056456"><ele>1149.0</ele><time>2026-04-18T08:05:08.978Z</time></trkpt><trkpt lat="43.9451607" lon="7.6055822"><ele>1149.0</ele><time>2026-04-18T08:05:09.978Z</time></trkpt><trkpt lat="43.9451102" lon="7.605507"><ele>1149.0</ele><time>2026-04-18T08:05:10.978Z</time></trkpt><trkpt lat="43.9450633" lon="7.6054117"><ele>1148.5</ele><time>2026-04-18T08:05:11.978Z</time></trkpt><trkpt lat="43.9450388" lon="7.6053176"><ele>1148.0</ele><time>2026-04-18T08:05:12.978Z</time></trkpt><trkpt lat="43.9450314" lon="7.605207"><ele>1147.5</ele><time>2026-04-18T08:05:13.978Z</time></trkpt><trkpt lat="43.9450257" lon="7.6050944"><ele>1147.0</ele><time>2026-04-18T08:05:14.977Z</time></trkpt><trkpt lat="43.9450503" lon="7.6049923"><ele>1146.5</ele><time>2026-04-18T08:05:15.978Z</time></trkpt><trkpt lat="43.9450686" lon="7.6048997"><ele>1146.0</ele><time>2026-04-18T08:05:16.978Z</time></trkpt><trkpt lat="43.9450926" lon="7.6048087"><ele>1146.0</ele><time>2026-04-18T08:05:17.978Z</time></trkpt><trkpt lat="43.9451291" lon="7.6047267"><ele>1146.0</ele><time>2026-04-18T08:05:18.978Z</time></trkpt><trkpt lat="43.9451806" lon="7.6046406"><ele>1146.0</ele><time>2026-04-18T08:05:19.978Z</time></trkpt><trkpt lat="43.9452145" lon="7.6045584"><ele>1146.0</ele><time>2026-04-18T08:05:20.978Z</time></trkpt><trkpt lat="43.9452611" lon="7.6044754"><ele>1146.0</ele><time>2026-04-18T08:05:21.978Z</time></trkpt><trkpt lat="43.9453019" lon="7.6043855"><ele>1146.0</ele><time>2026-04-18T08:05:22.978Z</time></trkpt><trkpt lat="43.9453862" lon="7.6042794"><ele>1143.0</ele><time>2026-04-18T08:05:24.978Z</time></trkpt><trkpt lat="43.9455119" lon="7.6042309"><ele>1140.0</ele><time>2026-04-18T08:05:26.978Z</time></trkpt><trkpt lat="43.9455827" lon="7.6042609"><ele>1137.0</ele><time>2026-04-18T08:05:27.978Z</time></trkpt><trkpt lat="43.9456493" lon="7.6042971"><ele>1134.0</ele><time>2026-04-18T08:05:28.978Z</time></trkpt><trkpt lat="43.9457178" lon="7.6043419"><ele>1131.0</ele><time>2026-04-18T08:05:29.978Z</time></trkpt><trkpt lat="43.9457738" lon="7.604409"><ele>1128.0</ele><time>2026-04-18T08:05:30.977Z</time></trkpt><trkpt lat="43.9458418" lon="7.604479"><ele>1126.5</ele><time>2026-04-18T08:05:31.978Z</time></trkpt><trkpt lat="43.945898" lon="7.6045568"><ele>1125.0</ele><time>2026-04-18T08:05:32.978Z</time></trkpt><trkpt lat="43.9459535" lon="7.6046226"><ele>1123.5</ele><time>2026-04-18T08:05:33.978Z</time></trkpt><trkpt lat="43.9460246" lon="7.6047057"><ele>1122.0</ele><time>2026-04-18T08:05:34.978Z</time></trkpt><trkpt lat="43.9460877" lon="7.6047837"><ele>1120.5</ele><time>2026-04-18T08:05:35.978Z</time></trkpt><trkpt lat="43.9461458" lon="7.6048637"><ele>1119.0</ele><time>2026-04-18T08:05:36.978Z</time></trkpt><trkpt lat="43.9462144" lon="7.6049247"><ele>1119.0</ele><time>2026-04-18T08:05:37.978Z</time></trkpt><trkpt lat="43.9462916" lon="7.6049815"><ele>1119.0</ele><time>2026-04-18T08:05:38.978Z</time></trkpt><trkpt lat="43.9463392" lon="7.6050548"><ele>1119.0</ele><time>2026-04-18T08:05:39.977Z</time></trkpt><trkpt lat="43.9463888" lon="7.6051312"><ele>1119.0</ele><time>2026-04-18T08:05:40.978Z</time></trkpt><trkpt lat="43.9464423" lon="7.6051972"><ele>1119.0</ele><time>2026-04-18T08:05:41.978Z</time></trkpt><trkpt lat="43.9465093" lon="7.6052577"><ele>1119.0</ele><time>2026-04-18T08:05:42.978Z</time></trkpt><trkpt lat="43.9466005" lon="7.6052918"><ele>1119.0</ele><time>2026-04-18T08:05:43.978Z</time></trkpt><trkpt lat="43.9466784" lon="7.6053249"><ele>1119.0</ele><time>2026-04-18T08:05:44.978Z</time></trkpt><trkpt lat="43.9467392" lon="7.6053527"><ele>1119.0</ele><time>2026-04-18T08:05:45.978Z</time></trkpt><trkpt lat="43.9468067" lon="7.6053788"><ele>1119.0</ele><time>2026-04-18T08:05:46.978Z</time></trkpt><trkpt lat="43.9468998" lon="7.6054595"><ele>1119.0</ele><time>2026-04-18T08:05:48.978Z</time></trkpt><trkpt lat="43.9469547" lon="7.6055208"><ele>1119.0</ele><time>2026-04-18T08:05:49.978Z</time></trkpt><trkpt lat="43.9469906" lon="7.6056148"><ele>1119.2</ele><time>2026-04-18T08:05:50.978Z</time></trkpt><trkpt lat="43.9470673" lon="7.6057185"><ele>1119.4</ele><time>2026-04-18T08:05:52.978Z</time></trkpt><trkpt lat="43.9471479" lon="7.6057696"><ele>1119.6</ele><time>2026-04-18T08:05:54.978Z</time></trkpt><trkpt lat="43.9472231" lon="7.6057193"><ele>1119.8</ele><time>2026-04-18T08:05:55.978Z</time></trkpt><trkpt lat="43.947316" lon="7.6056753"><ele>1120.0</ele><time>2026-04-18T08:05:56.978Z</time></trkpt><trkpt lat="43.9474002" lon="7.6056347"><ele>1120.0</ele><time>2026-04-18T08:05:57.978Z</time></trkpt><trkpt lat="43.947475" lon="7.6055986"><ele>1120.0</ele><time>2026-04-18T08:05:58.978Z</time></trkpt><trkpt lat="43.9475408" lon="7.6055607"><ele>1120.0</ele><time>2026-04-18T08:05:59.978Z</time></trkpt><trkpt lat="43.9475995" lon="7.6055218"><ele>1120.0</ele><time>2026-04-18T08:06:00.978Z</time></trkpt><trkpt lat="43.9476438" lon="7.605455"><ele>1120.0</ele><time>2026-04-18T08:06:01.978Z</time></trkpt><trkpt lat="43.9476783" lon="7.6052818"><ele>1120.0</ele><time>2026-04-18T08:06:03.978Z</time></trkpt><trkpt lat="43.9476599" lon="7.6051653"><ele>1118.857142857143</ele><time>2026-04-18T08:06:05.977Z</time></trkpt><trkpt lat="43.947641" lon="7.6050447"><ele>1117.7142857142858</ele><time>2026-04-18T08:06:08.977Z</time></trkpt><trkpt lat="43.947687" lon="7.6049664"><ele>1116.5714285714284</ele><time>2026-04-18T08:06:11.978Z</time></trkpt><trkpt lat="43.9477083" lon="7.6048612"><ele>1115.4285714285716</ele><time>2026-04-18T08:06:16.978Z</time></trkpt><trkpt lat="43.9476424" lon="7.6048111"><ele>1114.2857142857142</ele><time>2026-04-18T08:06:20.978Z</time></trkpt><trkpt lat="43.9475895" lon="7.6047634"><ele>1113.142857142857</ele><time>2026-04-18T08:06:23.978Z</time></trkpt><trkpt lat="43.9475224" lon="7.6047493"><ele>1112.0</ele><time>2026-04-18T08:06:26.978Z</time></trkpt><trkpt lat="43.9474872" lon="7.6048254"><ele>1112.0</ele><time>2026-04-18T08:06:29.978Z</time></trkpt><trkpt lat="43.9475465" lon="7.6049069"><ele>1112.0</ele><time>2026-04-18T08:06:32.978Z</time></trkpt><trkpt lat="43.9476263" lon="7.6049077"><ele>1112.0</ele><time>2026-04-18T08:06:34.978Z</time></trkpt><trkpt lat="43.9477128" lon="7.6048903"><ele>1112.0</ele><time>2026-04-18T08:06:36.978Z</time></trkpt><trkpt lat="43.9477878" lon="7.6048783"><ele>1112.0</ele><time>2026-04-18T08:06:38.978Z</time></trkpt><trkpt lat="43.9478789" lon="7.6049009"><ele>1112.0</ele><time>2026-04-18T08:06:40.978Z</time></trkpt><trkpt lat="43.9479835" lon="7.6049394"><ele>1112.0</ele><time>2026-04-18T08:06:42.978Z</time></trkpt><trkpt lat="43.9480429" lon="7.6049721"><ele>1112.0</ele><time>2026-04-18T08:06:43.978Z</time></trkpt><trkpt lat="43.9481565" lon="7.605002"><ele>1112.0</ele><time>2026-04-18T08:06:45.978Z</time></trkpt><trkpt lat="43.9482763" lon="7.6050252"><ele>1112.0</ele><time>2026-04-18T08:06:47.977Z</time></trkpt><trkpt lat="43.9483436" lon="7.6050404"><ele>1112.0</ele><time>2026-04-18T08:06:48.978Z</time></trkpt><trkpt lat="43.9484081" lon="7.6050589"><ele>1112.0</ele><time>2026-04-18T08:06:49.978Z</time></trkpt><trkpt lat="43.9484761" lon="7.6050814"><ele>1113.5</ele><time>2026-04-18T08:06:50.978Z</time></trkpt><trkpt lat="43.9485909" lon="7.6050975"><ele>1115.0</ele><time>2026-04-18T08:06:52.978Z</time></trkpt><trkpt lat="43.9486774" lon="7.6051133"><ele>1116.5</ele><time>2026-04-18T08:06:54.978Z</time></trkpt><trkpt lat="43.9487502" lon="7.6051262"><ele>1118.0</ele><time>2026-04-18T08:06:56.978Z</time></trkpt><trkpt lat="43.9488168" lon="7.6051731"><ele>1119.5</ele><time>2026-04-18T08:06:58.978Z</time></trkpt><trkpt lat="43.9488883" lon="7.6052381"><ele>1121.0</ele><time>2026-04-18T08:07:01.978Z</time></trkpt><trkpt lat="43.9488179" lon="7.6051687"><ele>1121.0</ele><time>2026-04-18T08:23:08.978Z</time></trkpt><trkpt lat="43.9487329" lon="7.6051591"><ele>1121.0</ele><time>2026-04-18T08:23:10.978Z</time></trkpt><trkpt lat="43.9486541" lon="7.6051293"><ele>1121.0</ele><time>2026-04-18T08:23:12.977Z</time></trkpt><trkpt lat="43.9485725" lon="7.6051136"><ele>1121.0</ele><time>2026-04-18T08:23:14.977Z</time></trkpt><trkpt lat="43.9484581" lon="7.6051134"><ele>1121.0</ele><time>2026-04-18T08:23:16.977Z</time></trkpt><trkpt lat="43.9483517" lon="7.6050775"><ele>1119.2</ele><time>2026-04-18T08:23:18.978Z</time></trkpt><trkpt lat="43.9482349" lon="7.6050347"><ele>1117.3999999999999</ele><time>2026-04-18T08:23:20.978Z</time></trkpt><trkpt lat="43.9481674" lon="7.6050152"><ele>1115.6</ele><time>2026-04-18T08:23:21.978Z</time></trkpt><trkpt lat="43.9481018" lon="7.604993"><ele>1113.8</ele><time>2026-04-18T08:23:22.978Z</time></trkpt><trkpt lat="43.9480406" lon="7.604968"><ele>1112.0</ele><time>2026-04-18T08:23:23.978Z</time></trkpt><trkpt lat="43.9479131" lon="7.6049306"><ele>1112.0</ele><time>2026-04-18T08:23:25.978Z</time></trkpt><trkpt lat="43.9477966" lon="7.6048921"><ele>1112.0</ele><time>2026-04-18T08:23:27.978Z</time></trkpt><trkpt lat="43.9477027" lon="7.6049056"><ele>1112.0</ele><time>2026-04-18T08:23:29.978Z</time></trkpt><trkpt lat="43.9476637" lon="7.6050003"><ele>1112.0</ele><time>2026-04-18T08:23:33.978Z</time></trkpt><trkpt lat="43.9476672" lon="7.6051121"><ele>1112.0</ele><time>2026-04-18T08:23:35.978Z</time></trkpt><trkpt lat="43.9476858" lon="7.6052619"><ele>1112.3333333333335</ele><time>2026-04-18T08:23:37.978Z</time></trkpt><trkpt lat="43.9476489" lon="7.6054229"><ele>1112.6666666666667</ele><time>2026-04-18T08:23:39.978Z</time></trkpt><trkpt lat="43.9476028" lon="7.6054895"><ele>1113.0</ele><time>2026-04-18T08:23:40.978Z</time></trkpt><trkpt lat="43.9475412" lon="7.6055403"><ele>1113.3333333333333</ele><time>2026-04-18T08:23:41.978Z</time></trkpt><trkpt lat="43.9474669" lon="7.6055773"><ele>1113.6666666666665</ele><time>2026-04-18T08:23:42.978Z</time></trkpt><trkpt lat="43.9473849" lon="7.6056222"><ele>1114.0</ele><time>2026-04-18T08:23:43.978Z</time></trkpt><trkpt lat="43.947295" lon="7.6056606"><ele>1115.2</ele><time>2026-04-18T08:23:44.978Z</time></trkpt><trkpt lat="43.947205" lon="7.6056879"><ele>1116.4</ele><time>2026-04-18T08:23:45.978Z</time></trkpt><trkpt lat="43.9471307" lon="7.6057357"><ele>1117.6</ele><time>2026-04-18T08:23:46.978Z</time></trkpt><trkpt lat="43.9470594" lon="7.6057486"><ele>1118.8</ele><time>2026-04-18T08:23:47.977Z</time></trkpt><trkpt lat="43.9469562" lon="7.6056276"><ele>1120.0</ele><time>2026-04-18T08:23:49.978Z</time></trkpt><trkpt lat="43.9469004" lon="7.6055557"><ele>1120.0</ele><time>2026-04-18T08:23:50.978Z</time></trkpt><trkpt lat="43.9468433" lon="7.6054993"><ele>1120.0</ele><time>2026-04-18T08:23:51.978Z</time></trkpt><trkpt lat="43.9467759" lon="7.6054478"><ele>1120.0</ele><time>2026-04-18T08:23:52.978Z</time></trkpt><trkpt lat="43.946692" lon="7.605414"><ele>1120.0</ele><time>2026-04-18T08:23:53.978Z</time></trkpt><trkpt lat="43.9466162" lon="7.6053988"><ele>1120.0</ele><time>2026-04-18T08:23:54.978Z</time></trkpt><trkpt lat="43.9465409" lon="7.6053645"><ele>1120.0</ele><time>2026-04-18T08:23:55.978Z</time></trkpt><trkpt lat="43.9464716" lon="7.6053091"><ele>1119.8333333333333</ele><time>2026-04-18T08:23:56.978Z</time></trkpt><trkpt lat="43.946404" lon="7.6052463"><ele>1119.6666666666665</ele><time>2026-04-18T08:23:57.978Z</time></trkpt><trkpt lat="43.9463371" lon="7.605196"><ele>1119.5</ele><time>2026-04-18T08:23:58.978Z</time></trkpt><trkpt lat="43.9462546" lon="7.6051336"><ele>1119.3333333333333</ele><time>2026-04-18T08:23:59.978Z</time></trkpt><trkpt lat="43.9461709" lon="7.6050618"><ele>1119.1666666666667</ele><time>2026-04-18T08:24:00.978Z</time></trkpt><trkpt lat="43.9460957" lon="7.604977"><ele>1119.0</ele><time>2026-04-18T08:24:01.978Z</time></trkpt><trkpt lat="43.9460045" lon="7.6048907"><ele>1119.0</ele><time>2026-04-18T08:24:02.978Z</time></trkpt><trkpt lat="43.9459126" lon="7.6047919"><ele>1119.0</ele><time>2026-04-18T08:24:03.978Z</time></trkpt><trkpt lat="43.9458387" lon="7.6046788"><ele>1119.0</ele><time>2026-04-18T08:24:04.978Z</time></trkpt><trkpt lat="43.9457804" lon="7.6045668"><ele>1119.0</ele><time>2026-04-18T08:24:05.978Z</time></trkpt><trkpt lat="43.9457251" lon="7.6044622"><ele>1119.0</ele><time>2026-04-18T08:24:06.978Z</time></trkpt><trkpt lat="43.9456639" lon="7.6043724"><ele>1120.5</ele><time>2026-04-18T08:24:07.978Z</time></trkpt><trkpt lat="43.9455979" lon="7.6042996"><ele>1122.0</ele><time>2026-04-18T08:24:08.978Z</time></trkpt><trkpt lat="43.9455235" lon="7.6042801"><ele>1123.5</ele><time>2026-04-18T08:24:09.978Z</time></trkpt><trkpt lat="43.9454521" lon="7.6042978"><ele>1125.0</ele><time>2026-04-18T08:24:10.978Z</time></trkpt><trkpt lat="43.9453854" lon="7.6043231"><ele>1126.5</ele><time>2026-04-18T08:24:11.978Z</time></trkpt><trkpt lat="43.9453293" lon="7.6043784"><ele>1128.0</ele><time>2026-04-18T08:24:12.978Z</time></trkpt><trkpt lat="43.945279" lon="7.6044705"><ele>1129.6</ele><time>2026-04-18T08:24:13.978Z</time></trkpt><trkpt lat="43.9452128" lon="7.6045637"><ele>1131.1999999999998</ele><time>2026-04-18T08:24:14.978Z</time></trkpt><trkpt lat="43.9451548" lon="7.6046751"><ele>1132.8</ele><time>2026-04-18T08:24:15.978Z</time></trkpt><trkpt lat="43.9451176" lon="7.6047847"><ele>1134.3999999999999</ele><time>2026-04-18T08:24:16.978Z</time></trkpt><trkpt lat="43.9450731" lon="7.6048892"><ele>1136.0</ele><time>2026-04-18T08:24:17.978Z</time></trkpt><trkpt lat="43.945043" lon="7.6050111"><ele>1136.0</ele><time>2026-04-18T08:24:18.978Z</time></trkpt><trkpt lat="43.9450326" lon="7.605144"><ele>1136.0</ele><time>2026-04-18T08:24:19.978Z</time></trkpt><trkpt lat="43.9450837" lon="7.6052896"><ele>1136.0</ele><time>2026-04-18T08:24:20.978Z</time></trkpt><trkpt lat="43.9451212" lon="7.6054191"><ele>1136.0</ele><time>2026-04-18T08:24:21.978Z</time></trkpt><trkpt lat="43.9451728" lon="7.605533"><ele>1136.0</ele><time>2026-04-18T08:24:22.978Z</time></trkpt><trkpt lat="43.9452216" lon="7.6056531"><ele>1138.6</ele><time>2026-04-18T08:24:23.978Z</time></trkpt><trkpt lat="43.9452907" lon="7.6057452"><ele>1141.1999999999998</ele><time>2026-04-18T08:24:24.978Z</time></trkpt><trkpt lat="43.9453928" lon="7.6058122"><ele>1143.8000000000002</ele><time>2026-04-18T08:24:25.978Z</time></trkpt><trkpt lat="43.9454839" lon="7.6058634"><ele>1146.4</ele><time>2026-04-18T08:24:26.978Z</time></trkpt><trkpt lat="43.9455627" lon="7.6059024"><ele>1149.0</ele><time>2026-04-18T08:24:27.978Z</time></trkpt><trkpt lat="43.9456437" lon="7.6059253"><ele>1149.0</ele><time>2026-04-18T08:24:28.978Z</time></trkpt><trkpt lat="43.94571" lon="7.6059574"><ele>1149.0</ele><time>2026-04-18T08:24:29.978Z</time></trkpt><trkpt lat="43.945765" lon="7.6060153"><ele>1149.0</ele><time>2026-04-18T08:24:30.978Z</time></trkpt><trkpt lat="43.9458162" lon="7.6060907"><ele>1149.0</ele><time>2026-04-18T08:24:31.978Z</time></trkpt><trkpt lat="43.9458654" lon="7.606192"><ele>1149.0</ele><time>2026-04-18T08:24:32.978Z</time></trkpt><trkpt lat="43.9459148" lon="7.6063169"><ele>1149.0</ele><time>2026-04-18T08:24:33.977Z</time></trkpt><trkpt lat="43.9459704" lon="7.6064534"><ele>1150.2</ele><time>2026-04-18T08:24:34.978Z</time></trkpt><trkpt lat="43.9460174" lon="7.6065834"><ele>1151.4</ele><time>2026-04-18T08:24:35.978Z</time></trkpt><trkpt lat="43.9460704" lon="7.6067064"><ele>1152.6</ele><time>2026-04-18T08:24:36.978Z</time></trkpt><trkpt lat="43.9461211" lon="7.606831"><ele>1153.8</ele><time>2026-04-18T08:24:37.978Z</time></trkpt><trkpt lat="43.9461488" lon="7.606956"><ele>1155.0</ele><time>2026-04-18T08:24:38.978Z</time></trkpt><trkpt lat="43.9461933" lon="7.6070616"><ele>1157.0</ele><time>2026-04-18T08:24:39.978Z</time></trkpt><trkpt lat="43.9462099" lon="7.6071747"><ele>1159.0</ele><time>2026-04-18T08:24:40.978Z</time></trkpt><trkpt lat="43.946243" lon="7.6072577"><ele>1161.0</ele><time>2026-04-18T08:24:41.978Z</time></trkpt><trkpt lat="43.9462698" lon="7.6073556"><ele>1163.0</ele><time>2026-04-18T08:24:42.978Z</time></trkpt><trkpt lat="43.9462912" lon="7.6074607"><ele>1165.0</ele><time>2026-04-18T08:24:43.978Z</time></trkpt><trkpt lat="43.9462849" lon="7.6075829"><ele>1167.0</ele><time>2026-04-18T08:24:44.978Z</time></trkpt><trkpt lat="43.9462771" lon="7.6077092"><ele>1167.0</ele><time>2026-04-18T08:24:45.978Z</time></trkpt><trkpt lat="43.9462792" lon="7.6078201"><ele>1167.0</ele><time>2026-04-18T08:24:46.977Z</time></trkpt><trkpt lat="43.946288" lon="7.6079203"><ele>1167.0</ele><time>2026-04-18T08:24:47.978Z</time></trkpt><trkpt lat="43.9462722" lon="7.6080154"><ele>1167.0</ele><time>2026-04-18T08:24:48.978Z</time></trkpt><trkpt lat="43.9462445" lon="7.6081045"><ele>1167.0</ele><time>2026-04-18T08:24:49.978Z</time></trkpt><trkpt lat="43.9461343" lon="7.6081277"><ele>1167.0</ele><time>2026-04-18T08:24:51.978Z</time></trkpt><trkpt lat="43.9460669" lon="7.6080998"><ele>1168.8</ele><time>2026-04-18T08:24:52.978Z</time></trkpt><trkpt lat="43.9459898" lon="7.6080713"><ele>1170.6</ele><time>2026-04-18T08:24:53.978Z</time></trkpt><trkpt lat="43.9459294" lon="7.6080383"><ele>1172.3999999999999</ele><time>2026-04-18T08:24:55.978Z</time></trkpt><trkpt lat="43.9457778" lon="7.6079545"><ele>1174.2</ele><time>2026-04-18T08:25:44.978Z</time></trkpt><trkpt lat="43.9456923" lon="7.6079"><ele>1176.0</ele><time>2026-04-18T08:25:45.978Z</time></trkpt><trkpt lat="43.9456134" lon="7.6078485"><ele>1171.8</ele><time>2026-04-18T08:25:46.977Z</time></trkpt><trkpt lat="43.9455206" lon="7.6078097"><ele>1167.6</ele><time>2026-04-18T08:25:47.978Z</time></trkpt><trkpt lat="43.9454337" lon="7.6077525"><ele>1163.4</ele><time>2026-04-18T08:25:48.978Z</time></trkpt><trkpt lat="43.9453475" lon="7.6076981"><ele>1159.2</ele><time>2026-04-18T08:25:49.978Z</time></trkpt><trkpt lat="43.9452653" lon="7.6076617"><ele>1155.0</ele><time>2026-04-18T08:25:50.977Z</time></trkpt><trkpt lat="43.945185" lon="7.6076286"><ele>1155.0</ele><time>2026-04-18T08:25:51.978Z</time></trkpt><trkpt lat="43.9451058" lon="7.6076144"><ele>1155.0</ele><time>2026-04-18T08:25:52.978Z</time></trkpt><trkpt lat="43.9450203" lon="7.6076218"><ele>1155.0</ele><time>2026-04-18T08:25:53.978Z</time></trkpt><trkpt lat="43.9449381" lon="7.6076562"><ele>1155.0</ele><time>2026-04-18T08:25:54.978Z</time></trkpt><trkpt lat="43.9448497" lon="7.6077307"><ele>1155.0</ele><time>2026-04-18T08:25:55.978Z</time></trkpt><trkpt lat="43.9447547" lon="7.607811"><ele>1162.25</ele><time>2026-04-18T08:25:56.977Z</time></trkpt><trkpt lat="43.9446548" lon="7.6078951"><ele>1169.5</ele><time>2026-04-18T08:25:57.978Z</time></trkpt><trkpt lat="43.9445482" lon="7.6079797"><ele>1176.75</ele><time>2026-04-18T08:25:58.978Z</time></trkpt><trkpt lat="43.9444449" lon="7.6080906"><ele>1184.0</ele><time>2026-04-18T08:25:59.978Z</time></trkpt><trkpt lat="43.9443579" lon="7.6081924"><ele>1184.0</ele><time>2026-04-18T08:26:00.978Z</time></trkpt><trkpt lat="43.9442887" lon="7.6082698"><ele>1184.0</ele><time>2026-04-18T08:26:01.978Z</time></trkpt><trkpt lat="43.9442442" lon="7.608338"><ele>1184.0</ele><time>2026-04-18T08:26:02.978Z</time></trkpt><trkpt lat="43.9442006" lon="7.6084075"><ele>1184.0</ele><time>2026-04-18T08:26:03.978Z</time></trkpt><trkpt lat="43.9441525" lon="7.6084791"><ele>1184.0</ele><time>2026-04-18T08:26:04.978Z</time></trkpt><trkpt lat="43.9440239" lon="7.6084836"><ele>1184.0</ele><time>2026-04-18T08:26:06.978Z</time></trkpt><trkpt lat="43.9439481" lon="7.6084558"><ele>1182.0</ele><time>2026-04-18T08:26:07.978Z</time></trkpt><trkpt lat="43.9438885" lon="7.60839"><ele>1180.0</ele><time>2026-04-18T08:26:08.978Z</time></trkpt><trkpt lat="43.9438208" lon="7.6083069"><ele>1178.0</ele><time>2026-04-18T08:26:09.978Z</time></trkpt><trkpt lat="43.9437445" lon="7.6082058"><ele>1176.0</ele><time>2026-04-18T08:26:10.978Z</time></trkpt><trkpt lat="43.9436596" lon="7.6080865"><ele>1174.0</ele><time>2026-04-18T08:26:11.978Z</time></trkpt><trkpt lat="43.9435853" lon="7.6079578"><ele>1174.0</ele><time>2026-04-18T08:26:12.978Z</time></trkpt><trkpt lat="43.9435116" lon="7.6078408"><ele>1174.0</ele><time>2026-04-18T08:26:13.978Z</time></trkpt><trkpt lat="43.9434341" lon="7.6077327"><ele>1174.0</ele><time>2026-04-18T08:26:14.978Z</time></trkpt><trkpt lat="43.9433583" lon="7.6076302"><ele>1174.0</ele><time>2026-04-18T08:26:15.978Z</time></trkpt><trkpt lat="43.9432842" lon="7.607531"><ele>1174.0</ele><time>2026-04-18T08:26:16.978Z</time></trkpt><trkpt lat="43.9432073" lon="7.6074457"><ele>1173.2</ele><time>2026-04-18T08:26:17.978Z</time></trkpt><trkpt lat="43.9431196" lon="7.6073611"><ele>1172.4</ele><time>2026-04-18T08:26:18.978Z</time></trkpt><trkpt lat="43.9430434" lon="7.607273"><ele>1171.6</ele><time>2026-04-18T08:26:19.978Z</time></trkpt><trkpt lat="43.9429864" lon="7.6071758"><ele>1170.8</ele><time>2026-04-18T08:26:20.978Z</time></trkpt><trkpt lat="43.9429559" lon="7.6070547"><ele>1170.0</ele><time>2026-04-18T08:26:21.977Z</time></trkpt><trkpt lat="43.9429287" lon="7.6069415"><ele>1170.0</ele><time>2026-04-18T08:26:22.978Z</time></trkpt><trkpt lat="43.9428959" lon="7.6068166"><ele>1170.0</ele><time>2026-04-18T08:26:23.978Z</time></trkpt><trkpt lat="43.9428641" lon="7.6066902"><ele>1170.0</ele><time>2026-04-18T08:26:24.978Z</time></trkpt><trkpt lat="43.9428256" lon="7.6065746"><ele>1170.0</ele><time>2026-04-18T08:26:25.978Z</time></trkpt><trkpt lat="43.9427647" lon="7.6065009"><ele>1170.0</ele><time>2026-04-18T08:26:26.978Z</time></trkpt><trkpt lat="43.9426974" lon="7.6064444"><ele>1170.0</ele><time>2026-04-18T08:26:27.978Z</time></trkpt><trkpt lat="43.9426235" lon="7.6064146"><ele>1174.3333333333333</ele><time>2026-04-18T08:26:28.978Z</time></trkpt><trkpt lat="43.9425387" lon="7.6064216"><ele>1178.6666666666667</ele><time>2026-04-18T08:26:29.978Z</time></trkpt><trkpt lat="43.9424638" lon="7.6064395"><ele>1183.0</ele><time>2026-04-18T08:26:30.978Z</time></trkpt><trkpt lat="43.9423943" lon="7.6065228"><ele>1187.3333333333335</ele><time>2026-04-18T08:26:31.978Z</time></trkpt><trkpt lat="43.9423305" lon="7.6066107"><ele>1191.6666666666667</ele><time>2026-04-18T08:26:32.978Z</time></trkpt><trkpt lat="43.9422531" lon="7.6067029"><ele>1196.0</ele><time>2026-04-18T08:26:33.978Z</time></trkpt><trkpt lat="43.9421705" lon="7.6068005"><ele>1196.0</ele><time>2026-04-18T08:26:34.978Z</time></trkpt><trkpt lat="43.9421085" lon="7.6068855"><ele>1196.0</ele><time>2026-04-18T08:26:35.978Z</time></trkpt><trkpt lat="43.9420402" lon="7.6069738"><ele>1196.0</ele><time>2026-04-18T08:26:36.978Z</time></trkpt><trkpt lat="43.941993" lon="7.607091"><ele>1196.0</ele><time>2026-04-18T08:26:37.978Z</time></trkpt><trkpt lat="43.9419714" lon="7.6072105"><ele>1196.0</ele><time>2026-04-18T08:26:38.978Z</time></trkpt><trkpt lat="43.9419524" lon="7.6073586"><ele>1200.0</ele><time>2026-04-18T08:26:39.978Z</time></trkpt><trkpt lat="43.9419135" lon="7.6074833"><ele>1204.0</ele><time>2026-04-18T08:26:40.978Z</time></trkpt><trkpt lat="43.9418705" lon="7.6076108"><ele>1208.0</ele><time>2026-04-18T08:26:41.978Z</time></trkpt><trkpt lat="43.9418179" lon="7.6077217"><ele>1212.0</ele><time>2026-04-18T08:26:42.978Z</time></trkpt><trkpt lat="43.9417556" lon="7.607811"><ele>1216.0</ele><time>2026-04-18T08:26:43.978Z</time></trkpt><trkpt lat="43.9416757" lon="7.6079051"><ele>1219.0</ele><time>2026-04-18T08:26:44.978Z</time></trkpt><trkpt lat="43.9415766" lon="7.6079837"><ele>1222.0</ele><time>2026-04-18T08:26:45.978Z</time></trkpt><trkpt lat="43.9414911" lon="7.6080705"><ele>1225.0</ele><time>2026-04-18T08:26:46.978Z</time></trkpt><trkpt lat="43.9414187" lon="7.6081654"><ele>1228.0</ele><time>2026-04-18T08:26:47.978Z</time></trkpt><trkpt lat="43.9413386" lon="7.6082929"><ele>1231.0</ele><time>2026-04-18T08:26:48.978Z</time></trkpt><trkpt lat="43.9412797" lon="7.6083979"><ele>1231.0</ele><time>2026-04-18T08:26:49.978Z</time></trkpt><trkpt lat="43.9412264" lon="7.6085131"><ele>1231.0</ele><time>2026-04-18T08:26:50.978Z</time></trkpt><trkpt lat="43.9411704" lon="7.6086198"><ele>1231.0</ele><time>2026-04-18T08:26:51.977Z</time></trkpt><trkpt lat="43.9411168" lon="7.6087124"><ele>1231.0</ele><time>2026-04-18T08:26:52.978Z</time></trkpt><trkpt lat="43.941036" lon="7.6087397"><ele>1231.0</ele><time>2026-04-18T08:26:53.978Z</time></trkpt><trkpt lat="43.9409498" lon="7.60872"><ele>1232.6</ele><time>2026-04-18T08:26:54.978Z</time></trkpt><trkpt lat="43.9408607" lon="7.6086868"><ele>1234.1999999999998</ele><time>2026-04-18T08:26:55.978Z</time></trkpt><trkpt lat="43.9407676" lon="7.6086571"><ele>1235.8000000000002</ele><time>2026-04-18T08:26:56.977Z</time></trkpt><trkpt lat="43.9406589" lon="7.6086221"><ele>1237.4</ele><time>2026-04-18T08:26:57.978Z</time></trkpt><trkpt lat="43.9405433" lon="7.6085936"><ele>1239.0</ele><time>2026-04-18T08:26:58.978Z</time></trkpt><trkpt lat="43.940434" lon="7.608567"><ele>1235.0</ele><time>2026-04-18T08:26:59.978Z</time></trkpt><trkpt lat="43.9403101" lon="7.608515"><ele>1231.0</ele><time>2026-04-18T08:27:00.978Z</time></trkpt><trkpt lat="43.940191" lon="7.6084622"><ele>1227.0</ele><time>2026-04-18T08:27:01.978Z</time></trkpt><trkpt lat="43.9400696" lon="7.6083963"><ele>1223.0</ele><time>2026-04-18T08:27:02.978Z</time></trkpt><trkpt lat="43.9399816" lon="7.6083558"><ele>1223.0</ele><time>2026-04-18T08:27:03.978Z</time></trkpt><trkpt lat="43.9399091" lon="7.6083081"><ele>1223.0</ele><time>2026-04-18T08:27:04.978Z</time></trkpt><trkpt lat="43.9398198" lon="7.6082849"><ele>1223.0</ele><time>2026-04-18T08:27:05.978Z</time></trkpt><trkpt lat="43.9397408" lon="7.6082762"><ele>1223.0</ele><time>2026-04-18T08:27:06.978Z</time></trkpt><trkpt lat="43.9396715" lon="7.6082834"><ele>1223.0</ele><time>2026-04-18T08:27:07.978Z</time></trkpt><trkpt lat="43.9396091" lon="7.6083064"><ele>1223.0</ele><time>2026-04-18T08:27:08.978Z</time></trkpt><trkpt lat="43.9395374" lon="7.6083341"><ele>1223.0</ele><time>2026-04-18T08:27:09.978Z</time></trkpt><trkpt lat="43.9394525" lon="7.6083649"><ele>1223.0</ele><time>2026-04-18T08:27:10.978Z</time></trkpt><trkpt lat="43.9393699" lon="7.6083849"><ele>1223.0</ele><time>2026-04-18T08:27:11.978Z</time></trkpt><trkpt lat="43.9392846" lon="7.6083944"><ele>1223.0</ele><time>2026-04-18T08:27:12.962Z</time></trkpt><trkpt lat="43.9392025" lon="7.6084017"><ele>1223.0</ele><time>2026-04-18T08:27:13.959Z</time></trkpt><trkpt lat="43.9391146" lon="7.6084057"><ele>1223.0</ele><time>2026-04-18T08:27:14.962Z</time></trkpt><trkpt lat="43.9390303" lon="7.6083926"><ele>1222.0</ele><time>2026-04-18T08:27:15.96Z</time></trkpt><trkpt lat="43.9389517" lon="7.608368"><ele>1221.0</ele><time>2026-04-18T08:27:16.96Z</time></trkpt><trkpt lat="43.9388672" lon="7.6083396"><ele>1220.0</ele><time>2026-04-18T08:27:17.959Z</time></trkpt><trkpt lat="43.9387664" lon="7.6083242"><ele>1219.0</ele><time>2026-04-18T08:27:18.959Z</time></trkpt><trkpt lat="43.9386737" lon="7.6083238"><ele>1218.0</ele><time>2026-04-18T08:27:19.959Z</time></trkpt><trkpt lat="43.9385816" lon="7.6083224"><ele>1218.0</ele><time>2026-04-18T08:27:20.959Z</time></trkpt><trkpt lat="43.9384797" lon="7.6083218"><ele>1218.0</ele><time>2026-04-18T08:27:21.959Z</time></trkpt><trkpt lat="43.9383702" lon="7.6083156"><ele>1218.0</ele><time>2026-04-18T08:27:22.959Z</time></trkpt><trkpt lat="43.9382638" lon="7.608346"><ele>1218.0</ele><time>2026-04-18T08:27:23.959Z</time></trkpt><trkpt lat="43.9381587" lon="7.6083817"><ele>1218.0</ele><time>2026-04-18T08:27:24.959Z</time></trkpt><trkpt lat="43.9380569" lon="7.6084375"><ele>1216.2</ele><time>2026-04-18T08:27:25.959Z</time></trkpt><trkpt lat="43.9379517" lon="7.6084805"><ele>1214.4</ele><time>2026-04-18T08:27:26.959Z</time></trkpt><trkpt lat="43.9378495" lon="7.6085244"><ele>1212.6000000000001</ele><time>2026-04-18T08:27:27.959Z</time></trkpt><trkpt lat="43.9377579" lon="7.6085519"><ele>1210.8</ele><time>2026-04-18T08:27:28.959Z</time></trkpt><trkpt lat="43.9376708" lon="7.6085544"><ele>1209.0</ele><time>2026-04-18T08:27:29.959Z</time></trkpt><trkpt lat="43.9375713" lon="7.6085343"><ele>1206.4</ele><time>2026-04-18T08:27:30.959Z</time></trkpt><trkpt lat="43.9374635" lon="7.6084876"><ele>1203.8000000000002</ele><time>2026-04-18T08:27:31.959Z</time></trkpt><trkpt lat="43.93736" lon="7.6084271"><ele>1201.1999999999998</ele><time>2026-04-18T08:27:32.959Z</time></trkpt><trkpt lat="43.9372583" lon="7.6083698"><ele>1198.6</ele><time>2026-04-18T08:27:33.959Z</time></trkpt><trkpt lat="43.9371592" lon="7.6083023"><ele>1196.0</ele><time>2026-04-18T08:27:34.958Z</time></trkpt><trkpt lat="43.9370719" lon="7.6082166"><ele>1196.0</ele><time>2026-04-18T08:27:35.959Z</time></trkpt><trkpt lat="43.936995" lon="7.6081124"><ele>1196.0</ele><time>2026-04-18T08:27:36.959Z</time></trkpt><trkpt lat="43.9369197" lon="7.6080006"><ele>1196.0</ele><time>2026-04-18T08:27:37.958Z</time></trkpt><trkpt lat="43.9368297" lon="7.6079008"><ele>1196.0</ele><time>2026-04-18T08:27:38.959Z</time></trkpt><trkpt lat="43.9367434" lon="7.6078041"><ele>1196.0</ele><time>2026-04-18T08:27:39.959Z</time></trkpt><trkpt lat="43.9366492" lon="7.6077328"><ele>1197.8</ele><time>2026-04-18T08:27:40.959Z</time></trkpt><trkpt lat="43.9365594" lon="7.6076639"><ele>1199.6</ele><time>2026-04-18T08:27:41.959Z</time></trkpt><trkpt lat="43.9364434" lon="7.6076151"><ele>1201.4</ele><time>2026-04-18T08:27:42.959Z</time></trkpt><trkpt lat="43.9363345" lon="7.607581"><ele>1203.2</ele><time>2026-04-18T08:27:43.959Z</time></trkpt><trkpt lat="43.9362257" lon="7.6075547"><ele>1205.0</ele><time>2026-04-18T08:27:44.959Z</time></trkpt><trkpt lat="43.9361247" lon="7.6075122"><ele>1205.0</ele><time>2026-04-18T08:27:45.958Z</time></trkpt><trkpt lat="43.9360089" lon="7.6075076"><ele>1205.0</ele><time>2026-04-18T08:27:46.959Z</time></trkpt><trkpt lat="43.9358847" lon="7.6075139"><ele>1205.0</ele><time>2026-04-18T08:27:47.959Z</time></trkpt><trkpt lat="43.9357691" lon="7.607516"><ele>1205.0</ele><time>2026-04-18T08:27:48.958Z</time></trkpt><trkpt lat="43.9356565" lon="7.6075396"><ele>1202.0</ele><time>2026-04-18T08:27:49.959Z</time></trkpt><trkpt lat="43.9355466" lon="7.6075547"><ele>1199.0</ele><time>2026-04-18T08:27:50.959Z</time></trkpt><trkpt lat="43.9354535" lon="7.6075686"><ele>1196.0</ele><time>2026-04-18T08:27:51.959Z</time></trkpt><trkpt lat="43.9353778" lon="7.6075564"><ele>1193.0</ele><time>2026-04-18T08:27:52.959Z</time></trkpt><trkpt lat="43.9352969" lon="7.6075431"><ele>1190.0</ele><time>2026-04-18T08:27:53.959Z</time></trkpt><trkpt lat="43.9352181" lon="7.6074976"><ele>1187.0</ele><time>2026-04-18T08:27:54.959Z</time></trkpt><trkpt lat="43.9351486" lon="7.6073996"><ele>1187.0</ele><time>2026-04-18T08:27:55.958Z</time></trkpt><trkpt lat="43.9350571" lon="7.6073179"><ele>1187.0</ele><time>2026-04-18T08:27:56.959Z</time></trkpt><trkpt lat="43.9349423" lon="7.6072939"><ele>1187.0</ele><time>2026-04-18T08:27:57.959Z</time></trkpt><trkpt lat="43.9348376" lon="7.6072647"><ele>1187.0</ele><time>2026-04-18T08:27:58.959Z</time></trkpt><trkpt lat="43.934734" lon="7.6072399"><ele>1187.0</ele><time>2026-04-18T08:27:59.959Z</time></trkpt><trkpt lat="43.9346372" lon="7.6072122"><ele>1183.4</ele><time>2026-04-18T08:28:00.959Z</time></trkpt><trkpt lat="43.934518" lon="7.6072002"><ele>1179.8000000000002</ele><time>2026-04-18T08:28:01.959Z</time></trkpt><trkpt lat="43.9344029" lon="7.6071903"><ele>1176.2</ele><time>2026-04-18T08:28:02.959Z</time></trkpt><trkpt lat="43.934298" lon="7.6071897"><ele>1172.6000000000001</ele><time>2026-04-18T08:28:03.959Z</time></trkpt><trkpt lat="43.9341987" lon="7.6072011"><ele>1169.0</ele><time>2026-04-18T08:28:04.959Z</time></trkpt><trkpt lat="43.9341047" lon="7.6072215"><ele>1167.5</ele><time>2026-04-18T08:28:05.959Z</time></trkpt><trkpt lat="43.9340127" lon="7.6072353"><ele>1166.0</ele><time>2026-04-18T08:28:06.959Z</time></trkpt><trkpt lat="43.9339358" lon="7.6072632"><ele>1164.5</ele><time>2026-04-18T08:28:07.958Z</time></trkpt><trkpt lat="43.9338488" lon="7.6072952"><ele>1163.0</ele><time>2026-04-18T08:28:09.959Z</time></trkpt><trkpt lat="43.93384" lon="7.6074046"><ele>1161.5</ele><time>2026-04-18T08:28:12.959Z</time></trkpt><trkpt lat="43.9339273" lon="7.6074247"><ele>1160.0</ele><time>2026-04-18T08:28:14.959Z</time></trkpt><trkpt lat="43.9339944" lon="7.60739"><ele>1160.0</ele><time>2026-04-18T08:28:15.959Z</time></trkpt><trkpt lat="43.934069" lon="7.6073207"><ele>1160.0</ele><time>2026-04-18T08:28:16.959Z</time></trkpt><trkpt lat="43.934144" lon="7.607271"><ele>1160.0</ele><time>2026-04-18T08:28:17.959Z</time></trkpt><trkpt lat="43.9342176" lon="7.6072463"><ele>1160.0</ele><time>2026-04-18T08:28:18.959Z</time></trkpt><trkpt lat="43.9343015" lon="7.6072324"><ele>1160.0</ele><time>2026-04-18T08:28:19.959Z</time></trkpt><trkpt lat="43.9343932" lon="7.6072337"><ele>1160.0</ele><time>2026-04-18T08:28:20.959Z</time></trkpt><trkpt lat="43.9344903" lon="7.6072731"><ele>1161.8</ele><time>2026-04-18T08:28:21.959Z</time></trkpt><trkpt lat="43.9345636" lon="7.6073775"><ele>1163.6</ele><time>2026-04-18T08:28:22.959Z</time></trkpt><trkpt lat="43.934629" lon="7.6074738"><ele>1165.4</ele><time>2026-04-18T08:28:23.959Z</time></trkpt><trkpt lat="43.9347294" lon="7.6075461"><ele>1167.2</ele><time>2026-04-18T08:28:24.959Z</time></trkpt><trkpt lat="43.9348308" lon="7.60762"><ele>1169.0</ele><time>2026-04-18T08:28:25.959Z</time></trkpt><trkpt lat="43.9349282" lon="7.6077006"><ele>1169.0</ele><time>2026-04-18T08:28:26.959Z</time></trkpt><trkpt lat="43.9350178" lon="7.6077776"><ele>1169.0</ele><time>2026-04-18T08:28:27.959Z</time></trkpt><trkpt lat="43.9350895" lon="7.6078581"><ele>1169.0</ele><time>2026-04-18T08:28:28.959Z</time></trkpt><trkpt lat="43.9351678" lon="7.6079421"><ele>1169.0</ele><time>2026-04-18T08:28:29.958Z</time></trkpt><trkpt lat="43.9352545" lon="7.608029"><ele>1169.0</ele><time>2026-04-18T08:28:30.959Z</time></trkpt><trkpt lat="43.9353512" lon="7.6081101"><ele>1167.2</ele><time>2026-04-18T08:28:31.959Z</time></trkpt><trkpt lat="43.9354457" lon="7.6081976"><ele>1165.4</ele><time>2026-04-18T08:28:32.959Z</time></trkpt><trkpt lat="43.9355385" lon="7.6082798"><ele>1163.6</ele><time>2026-04-18T08:28:33.959Z</time></trkpt><trkpt lat="43.9356258" lon="7.6083671"><ele>1161.8</ele><time>2026-04-18T08:28:34.959Z</time></trkpt><trkpt lat="43.9357012" lon="7.6084692"><ele>1160.0</ele><time>2026-04-18T08:28:35.959Z</time></trkpt><trkpt lat="43.9357654" lon="7.6085822"><ele>1157.5</ele><time>2026-04-18T08:28:36.959Z</time></trkpt><trkpt lat="43.9358566" lon="7.6086715"><ele>1155.0</ele><time>2026-04-18T08:28:37.959Z</time></trkpt><trkpt lat="43.9359619" lon="7.6087398"><ele>1152.5</ele><time>2026-04-18T08:28:38.958Z</time></trkpt><trkpt lat="43.9360658" lon="7.6088106"><ele>1150.0</ele><time>2026-04-18T08:28:39.959Z</time></trkpt><trkpt lat="43.9361594" lon="7.6088813"><ele>1150.0</ele><time>2026-04-18T08:28:40.959Z</time></trkpt><trkpt lat="43.936237" lon="7.6089638"><ele>1150.0</ele><time>2026-04-18T08:28:41.959Z</time></trkpt><trkpt lat="43.9363188" lon="7.6090639"><ele>1150.0</ele><time>2026-04-18T08:28:42.959Z</time></trkpt><trkpt lat="43.9364137" lon="7.6091782"><ele>1150.0</ele><time>2026-04-18T08:28:43.959Z</time></trkpt><trkpt lat="43.9364946" lon="7.6093066"><ele>1150.0</ele><time>2026-04-18T08:28:44.959Z</time></trkpt><trkpt lat="43.9365807" lon="7.609419"><ele>1150.0</ele><time>2026-04-18T08:28:45.959Z</time></trkpt><trkpt lat="43.9366819" lon="7.6095194"><ele>1150.0</ele><time>2026-04-18T08:28:46.959Z</time></trkpt><trkpt lat="43.9367793" lon="7.6096175"><ele>1150.0</ele><time>2026-04-18T08:28:47.959Z</time></trkpt><trkpt lat="43.9368862" lon="7.6097207"><ele>1148.75</ele><time>2026-04-18T08:28:48.959Z</time></trkpt><trkpt lat="43.9369819" lon="7.6098178"><ele>1147.5</ele><time>2026-04-18T08:28:49.959Z</time></trkpt><trkpt lat="43.9370783" lon="7.6099022"><ele>1146.25</ele><time>2026-04-18T08:28:50.959Z</time></trkpt><trkpt lat="43.937173" lon="7.6099968"><ele>1145.0</ele><time>2026-04-18T08:28:51.959Z</time></trkpt><trkpt lat="43.9372593" lon="7.6101108"><ele>1145.0</ele><time>2026-04-18T08:28:52.959Z</time></trkpt><trkpt lat="43.9373605" lon="7.6102264"><ele>1145.0</ele><time>2026-04-18T08:28:53.959Z</time></trkpt><trkpt lat="43.9374645" lon="7.6103308"><ele>1145.0</ele><time>2026-04-18T08:28:54.959Z</time></trkpt><trkpt lat="43.9375553" lon="7.6104386"><ele>1145.0</ele><time>2026-04-18T08:28:55.959Z</time></trkpt><trkpt lat="43.9376361" lon="7.6105596"><ele>1146.25</ele><time>2026-04-18T08:28:56.959Z</time></trkpt><trkpt lat="43.9377175" lon="7.6106918"><ele>1147.5</ele><time>2026-04-18T08:28:57.959Z</time></trkpt><trkpt lat="43.9377942" lon="7.6108233"><ele>1148.75</ele><time>2026-04-18T08:28:58.959Z</time></trkpt><trkpt lat="43.9378705" lon="7.6109464"><ele>1150.0</ele><time>2026-04-18T08:28:59.959Z</time></trkpt><trkpt lat="43.9379458" lon="7.6110726"><ele>1146.6</ele><time>2026-04-18T08:29:00.959Z</time></trkpt><trkpt lat="43.9380189" lon="7.6111859"><ele>1143.2</ele><time>2026-04-18T08:29:01.959Z</time></trkpt><trkpt lat="43.9381038" lon="7.6112731"><ele>1139.8</ele><time>2026-04-18T08:29:02.959Z</time></trkpt><trkpt lat="43.9381914" lon="7.6113603"><ele>1136.4</ele><time>2026-04-18T08:29:03.959Z</time></trkpt><trkpt lat="43.9382742" lon="7.6114361"><ele>1133.0</ele><time>2026-04-18T08:29:04.959Z</time></trkpt><trkpt lat="43.9383391" lon="7.6115325"><ele>1137.0</ele><time>2026-04-18T08:29:05.959Z</time></trkpt><trkpt lat="43.9384019" lon="7.6116376"><ele>1141.0</ele><time>2026-04-18T08:29:06.958Z</time></trkpt><trkpt lat="43.9384502" lon="7.6117533"><ele>1145.0</ele><time>2026-04-18T08:29:07.959Z</time></trkpt><trkpt lat="43.9384821" lon="7.6119034"><ele>1149.0</ele><time>2026-04-18T08:29:08.959Z</time></trkpt><trkpt lat="43.9385222" lon="7.6120644"><ele>1153.0</ele><time>2026-04-18T08:29:09.959Z</time></trkpt><trkpt lat="43.9385757" lon="7.6122306"><ele>1153.0</ele><time>2026-04-18T08:29:10.959Z</time></trkpt><trkpt lat="43.9386231" lon="7.6123819"><ele>1153.0</ele><time>2026-04-18T08:29:11.959Z</time></trkpt><trkpt lat="43.9386513" lon="7.6125333"><ele>1153.0</ele><time>2026-04-18T08:29:12.959Z</time></trkpt><trkpt lat="43.9386717" lon="7.6126831"><ele>1153.0</ele><time>2026-04-18T08:29:13.959Z</time></trkpt><trkpt lat="43.93868" lon="7.6128368"><ele>1149.8</ele><time>2026-04-18T08:29:14.959Z</time></trkpt><trkpt lat="43.9386924" lon="7.6129728"><ele>1146.6</ele><time>2026-04-18T08:29:15.959Z</time></trkpt><trkpt lat="43.9387264" lon="7.6130822"><ele>1143.4</ele><time>2026-04-18T08:29:16.959Z</time></trkpt><trkpt lat="43.938774" lon="7.6131823"><ele>1140.2</ele><time>2026-04-18T08:29:17.959Z</time></trkpt><trkpt lat="43.9388425" lon="7.6132757"><ele>1137.0</ele><time>2026-04-18T08:29:18.959Z</time></trkpt><trkpt lat="43.9388807" lon="7.6133988"><ele>1137.0</ele><time>2026-04-18T08:29:19.959Z</time></trkpt><trkpt lat="43.9389018" lon="7.6135424"><ele>1137.0</ele><time>2026-04-18T08:29:20.959Z</time></trkpt><trkpt lat="43.9389309" lon="7.6136892"><ele>1137.0</ele><time>2026-04-18T08:29:21.959Z</time></trkpt><trkpt lat="43.9389847" lon="7.6138184"><ele>1137.0</ele><time>2026-04-18T08:29:22.959Z</time></trkpt><trkpt lat="43.939037" lon="7.6139595"><ele>1137.0</ele><time>2026-04-18T08:29:23.959Z</time></trkpt><trkpt lat="43.9390537" lon="7.6141151"><ele>1133.75</ele><time>2026-04-18T08:29:24.959Z</time></trkpt><trkpt lat="43.9390476" lon="7.6142768"><ele>1130.5</ele><time>2026-04-18T08:29:25.959Z</time></trkpt><trkpt lat="43.9390256" lon="7.6144321"><ele>1127.25</ele><time>2026-04-18T08:29:26.959Z</time></trkpt><trkpt lat="43.9390064" lon="7.6145886"><ele>1124.0</ele><time>2026-04-18T08:29:27.959Z</time></trkpt><trkpt lat="43.9390002" lon="7.614745"><ele>1121.5</ele><time>2026-04-18T08:29:28.959Z</time></trkpt><trkpt lat="43.9389912" lon="7.6149115"><ele>1119.0</ele><time>2026-04-18T08:29:29.959Z</time></trkpt><trkpt lat="43.9389897" lon="7.6150642"><ele>1116.5</ele><time>2026-04-18T08:29:30.959Z</time></trkpt><trkpt lat="43.939003" lon="7.6152185"><ele>1114.0</ele><time>2026-04-18T08:29:31.959Z</time></trkpt><trkpt lat="43.9390294" lon="7.6153801"><ele>1111.5</ele><time>2026-04-18T08:29:32.959Z</time></trkpt><trkpt lat="43.9390581" lon="7.6155436"><ele>1109.0</ele><time>2026-04-18T08:29:33.959Z</time></trkpt><trkpt lat="43.9390841" lon="7.6157053"><ele>1106.5</ele><time>2026-04-18T08:29:34.959Z</time></trkpt><trkpt lat="43.9391089" lon="7.6158522"><ele>1104.0</ele><time>2026-04-18T08:29:35.959Z</time></trkpt><trkpt lat="43.9391372" lon="7.6159933"><ele>1104.0</ele><time>2026-04-18T08:29:36.959Z</time></trkpt><trkpt lat="43.9391652" lon="7.6161294"><ele>1104.0</ele><time>2026-04-18T08:29:37.959Z</time></trkpt><trkpt lat="43.9392106" lon="7.6162368"><ele>1104.0</ele><time>2026-04-18T08:29:38.959Z</time></trkpt><trkpt lat="43.9392756" lon="7.6163146"><ele>1104.0</ele><time>2026-04-18T08:29:39.959Z</time></trkpt><trkpt lat="43.9393412" lon="7.6163776"><ele>1104.0</ele><time>2026-04-18T08:29:40.959Z</time></trkpt><trkpt lat="43.9393868" lon="7.6164383"><ele>1104.0</ele><time>2026-04-18T08:29:41.959Z</time></trkpt><trkpt lat="43.9394112" lon="7.6165616"><ele>1099.4</ele><time>2026-04-18T08:29:43.959Z</time></trkpt><trkpt lat="43.9393159" lon="7.6165991"><ele>1094.8000000000002</ele><time>2026-04-18T08:29:45.959Z</time></trkpt><trkpt lat="43.9392613" lon="7.6165422"><ele>1090.1999999999998</ele><time>2026-04-18T08:29:46.959Z</time></trkpt><trkpt lat="43.9392152" lon="7.6164317"><ele>1085.6</ele><time>2026-04-18T08:29:47.959Z</time></trkpt><trkpt lat="43.9391704" lon="7.616306"><ele>1081.0</ele><time>2026-04-18T08:29:48.959Z</time></trkpt><trkpt lat="43.9391219" lon="7.6161754"><ele>1085.6</ele><time>2026-04-18T08:29:49.959Z</time></trkpt><trkpt lat="43.939069" lon="7.6160351"><ele>1090.1999999999998</ele><time>2026-04-18T08:29:50.958Z</time></trkpt><trkpt lat="43.9390304" lon="7.6158868"><ele>1094.8000000000002</ele><time>2026-04-18T08:29:51.959Z</time></trkpt><trkpt lat="43.9389916" lon="7.615741"><ele>1099.4</ele><time>2026-04-18T08:29:52.959Z</time></trkpt><trkpt lat="43.9389483" lon="7.6156094"><ele>1104.0</ele><time>2026-04-18T08:29:53.959Z</time></trkpt><trkpt lat="43.9389084" lon="7.6154733"><ele>1104.0</ele><time>2026-04-18T08:29:54.959Z</time></trkpt><trkpt lat="43.9388658" lon="7.6153363"><ele>1104.0</ele><time>2026-04-18T08:29:55.959Z</time></trkpt><trkpt lat="43.9388262" lon="7.6151925"><ele>1104.0</ele><time>2026-04-18T08:29:56.959Z</time></trkpt><trkpt lat="43.9387915" lon="7.6150465"><ele>1104.0</ele><time>2026-04-18T08:29:57.959Z</time></trkpt><trkpt lat="43.9387656" lon="7.6149138"><ele>1104.0</ele><time>2026-04-18T08:29:58.959Z</time></trkpt><trkpt lat="43.9387493" lon="7.6147753"><ele>1106.0</ele><time>2026-04-18T08:29:59.959Z</time></trkpt><trkpt lat="43.9387291" lon="7.6146486"><ele>1108.0</ele><time>2026-04-18T08:30:00.959Z</time></trkpt><trkpt lat="43.9387368" lon="7.6145288"><ele>1110.0</ele><time>2026-04-18T08:30:01.959Z</time></trkpt><trkpt lat="43.9387261" lon="7.6144052"><ele>1112.0</ele><time>2026-04-18T08:30:02.958Z</time></trkpt><trkpt lat="43.9386833" lon="7.6142854"><ele>1114.0</ele><time>2026-04-18T08:30:03.959Z</time></trkpt><trkpt lat="43.9386176" lon="7.6141788"><ele>1116.0</ele><time>2026-04-18T08:30:04.959Z</time></trkpt><trkpt lat="43.9385684" lon="7.6140568"><ele>1118.0</ele><time>2026-04-18T08:30:05.959Z</time></trkpt><trkpt lat="43.9385297" lon="7.613924"><ele>1120.0</ele><time>2026-04-18T08:30:06.958Z</time></trkpt><trkpt lat="43.9384843" lon="7.6137964"><ele>1122.0</ele><time>2026-04-18T08:30:07.959Z</time></trkpt><trkpt lat="43.9384215" lon="7.6136834"><ele>1124.0</ele><time>2026-04-18T08:30:08.959Z</time></trkpt><trkpt lat="43.9383566" lon="7.6135699"><ele>1117.8</ele><time>2026-04-18T08:30:09.959Z</time></trkpt><trkpt lat="43.9382894" lon="7.6134479"><ele>1111.6000000000001</ele><time>2026-04-18T08:30:10.959Z</time></trkpt><trkpt lat="43.9382272" lon="7.613323"><ele>1105.4</ele><time>2026-04-18T08:30:11.959Z</time></trkpt><trkpt lat="43.9381537" lon="7.613209"><ele>1099.2</ele><time>2026-04-18T08:30:12.959Z</time></trkpt><trkpt lat="43.9380806" lon="7.6130899"><ele>1093.0</ele><time>2026-04-18T08:30:13.959Z</time></trkpt><trkpt lat="43.9379748" lon="7.6130068"><ele>1093.0</ele><time>2026-04-18T08:30:14.959Z</time></trkpt><trkpt lat="43.9378931" lon="7.6129069"><ele>1093.0</ele><time>2026-04-18T08:30:15.959Z</time></trkpt><trkpt lat="43.9378185" lon="7.6127986"><ele>1093.0</ele><time>2026-04-18T08:30:16.959Z</time></trkpt><trkpt lat="43.9377362" lon="7.6126991"><ele>1093.0</ele><time>2026-04-18T08:30:17.959Z</time></trkpt><trkpt lat="43.9376384" lon="7.6126606"><ele>1093.0</ele><time>2026-04-18T08:30:18.959Z</time></trkpt><trkpt lat="43.9375336" lon="7.6126033"><ele>1090.2</ele><time>2026-04-18T08:30:19.958Z</time></trkpt><trkpt lat="43.9374277" lon="7.6125637"><ele>1087.4</ele><time>2026-04-18T08:30:20.959Z</time></trkpt><trkpt lat="43.9373251" lon="7.6125026"><ele>1084.6000000000001</ele><time>2026-04-18T08:30:21.959Z</time></trkpt><trkpt lat="43.9372384" lon="7.6124086"><ele>1081.8</ele><time>2026-04-18T08:30:22.959Z</time></trkpt><trkpt lat="43.9371631" lon="7.6123178"><ele>1079.0</ele><time>2026-04-18T08:30:23.959Z</time></trkpt><trkpt lat="43.9370799" lon="7.6122478"><ele>1079.0</ele><time>2026-04-18T08:30:24.959Z</time></trkpt><trkpt lat="43.9370167" lon="7.6121622"><ele>1079.0</ele><time>2026-04-18T08:30:25.959Z</time></trkpt><trkpt lat="43.9369749" lon="7.612061"><ele>1079.0</ele><time>2026-04-18T08:30:26.959Z</time></trkpt><trkpt lat="43.9369263" lon="7.6119741"><ele>1079.0</ele><time>2026-04-18T08:30:27.959Z</time></trkpt><trkpt lat="43.936861" lon="7.6119166"><ele>1079.0</ele><time>2026-04-18T08:30:28.959Z</time></trkpt><trkpt lat="43.9367791" lon="7.6118872"><ele>1079.0</ele><time>2026-04-18T08:30:29.959Z</time></trkpt><trkpt lat="43.9366909" lon="7.6118713"><ele>1079.4</ele><time>2026-04-18T08:30:30.959Z</time></trkpt><trkpt lat="43.9365964" lon="7.6118759"><ele>1079.8000000000002</ele><time>2026-04-18T08:30:31.959Z</time></trkpt><trkpt lat="43.936509" lon="7.6118424"><ele>1080.1999999999998</ele><time>2026-04-18T08:30:32.959Z</time></trkpt><trkpt lat="43.9364184" lon="7.611778"><ele>1080.6</ele><time>2026-04-18T08:30:33.959Z</time></trkpt><trkpt lat="43.9363349" lon="7.6116937"><ele>1081.0</ele><time>2026-04-18T08:30:34.959Z</time></trkpt><trkpt lat="43.9362505" lon="7.6115886"><ele>1081.0</ele><time>2026-04-18T08:30:35.959Z</time></trkpt><trkpt lat="43.9361592" lon="7.6114874"><ele>1081.0</ele><time>2026-04-18T08:30:36.959Z</time></trkpt><trkpt lat="43.9360533" lon="7.6113911"><ele>1081.0</ele><time>2026-04-18T08:30:37.959Z</time></trkpt><trkpt lat="43.9359557" lon="7.6113037"><ele>1081.0</ele><time>2026-04-18T08:30:38.959Z</time></trkpt><trkpt lat="43.9358616" lon="7.6112147"><ele>1080.25</ele><time>2026-04-18T08:30:39.958Z</time></trkpt><trkpt lat="43.935763" lon="7.6111389"><ele>1079.5</ele><time>2026-04-18T08:30:40.959Z</time></trkpt><trkpt lat="43.9356629" lon="7.6110556"><ele>1078.75</ele><time>2026-04-18T08:30:41.959Z</time></trkpt><trkpt lat="43.9355538" lon="7.6109878"><ele>1078.0</ele><time>2026-04-18T08:30:42.959Z</time></trkpt><trkpt lat="43.935451" lon="7.6109091"><ele>1078.0</ele><time>2026-04-18T08:30:43.959Z</time></trkpt><trkpt lat="43.9353395" lon="7.6108474"><ele>1078.0</ele><time>2026-04-18T08:30:44.959Z</time></trkpt><trkpt lat="43.9352361" lon="7.6107918"><ele>1078.0</ele><time>2026-04-18T08:30:45.959Z</time></trkpt><trkpt lat="43.9351357" lon="7.6107386"><ele>1078.0</ele><time>2026-04-18T08:30:46.959Z</time></trkpt><trkpt lat="43.9350376" lon="7.6106728"><ele>1078.0</ele><time>2026-04-18T08:30:47.959Z</time></trkpt><trkpt lat="43.934933" lon="7.6105981"><ele>1079.75</ele><time>2026-04-18T08:30:48.959Z</time></trkpt><trkpt lat="43.934831" lon="7.6105112"><ele>1081.5</ele><time>2026-04-18T08:30:49.959Z</time></trkpt><trkpt lat="43.9347174" lon="7.6104217"><ele>1083.25</ele><time>2026-04-18T08:30:50.959Z</time></trkpt><trkpt lat="43.9346026" lon="7.6103269"><ele>1085.0</ele><time>2026-04-18T08:30:51.959Z</time></trkpt><trkpt lat="43.9344993" lon="7.6102425"><ele>1085.0</ele><time>2026-04-18T08:30:52.959Z</time></trkpt><trkpt lat="43.9344003" lon="7.6101591"><ele>1085.0</ele><time>2026-04-18T08:30:53.959Z</time></trkpt><trkpt lat="43.9343051" lon="7.6100737"><ele>1085.0</ele><time>2026-04-18T08:30:54.959Z</time></trkpt><trkpt lat="43.9342228" lon="7.6100086"><ele>1085.0</ele><time>2026-04-18T08:30:55.958Z</time></trkpt><trkpt lat="43.9341406" lon="7.6099651"><ele>1085.0</ele><time>2026-04-18T08:30:56.959Z</time></trkpt><trkpt lat="43.9340591" lon="7.6099546"><ele>1080.5</ele><time>2026-04-18T08:30:57.959Z</time></trkpt><trkpt lat="43.9339855" lon="7.6099556"><ele>1076.0</ele><time>2026-04-18T08:30:58.959Z</time></trkpt><trkpt lat="43.9339009" lon="7.6099893"><ele>1071.5</ele><time>2026-04-18T08:30:59.959Z</time></trkpt><trkpt lat="43.9338305" lon="7.6100726"><ele>1067.0</ele><time>2026-04-18T08:31:00.959Z</time></trkpt><trkpt lat="43.93376" lon="7.6101541"><ele>1062.5</ele><time>2026-04-18T08:31:01.959Z</time></trkpt><trkpt lat="43.9336857" lon="7.6102272"><ele>1058.0</ele><time>2026-04-18T08:31:02.958Z</time></trkpt><trkpt lat="43.9336138" lon="7.610299"><ele>1057.6666666666667</ele><time>2026-04-18T08:31:03.959Z</time></trkpt><trkpt lat="43.9335441" lon="7.6103559"><ele>1057.3333333333335</ele><time>2026-04-18T08:31:04.959Z</time></trkpt><trkpt lat="43.933468" lon="7.6103839"><ele>1057.0</ele><time>2026-04-18T08:31:05.959Z</time></trkpt><trkpt lat="43.9333799" lon="7.6103792"><ele>1056.6666666666667</ele><time>2026-04-18T08:31:06.959Z</time></trkpt><trkpt lat="43.9333084" lon="7.610333"><ele>1056.3333333333333</ele><time>2026-04-18T08:31:07.959Z</time></trkpt><trkpt lat="43.9332289" lon="7.6103029"><ele>1056.0</ele><time>2026-04-18T08:31:08.959Z</time></trkpt><trkpt lat="43.933146" lon="7.6102811"><ele>1056.0</ele><time>2026-04-18T08:31:09.959Z</time></trkpt><trkpt lat="43.9330629" lon="7.610249"><ele>1056.0</ele><time>2026-04-18T08:31:10.959Z</time></trkpt><trkpt lat="43.9329345" lon="7.6103751"><ele>1056.0</ele><time>2026-04-18T08:31:11.959Z</time></trkpt><trkpt lat="43.932811" lon="7.6104507"><ele>1056.0</ele><time>2026-04-18T08:31:12.959Z</time></trkpt><trkpt lat="43.9327068" lon="7.610502"><ele>1050.3999999999999</ele><time>2026-04-18T08:31:13.959Z</time></trkpt><trkpt lat="43.9325995" lon="7.6105302"><ele>1044.8</ele><time>2026-04-18T08:31:14.959Z</time></trkpt><trkpt lat="43.9324972" lon="7.6105481"><ele>1039.1999999999998</ele><time>2026-04-18T08:31:15.959Z</time></trkpt><trkpt lat="43.9324007" lon="7.6105392"><ele>1033.6</ele><time>2026-04-18T08:31:16.959Z</time></trkpt><trkpt lat="43.9323002" lon="7.6105016"><ele>1028.0</ele><time>2026-04-18T08:31:17.959Z</time></trkpt><trkpt lat="43.9322024" lon="7.6104147"><ele>1026.2</ele><time>2026-04-18T08:31:18.959Z</time></trkpt><trkpt lat="43.9321071" lon="7.6103487"><ele>1024.4</ele><time>2026-04-18T08:31:19.959Z</time></trkpt><trkpt lat="43.9320146" lon="7.6103125"><ele>1022.6000000000001</ele><time>2026-04-18T08:31:20.958Z</time></trkpt><trkpt lat="43.9319297" lon="7.61028"><ele>1020.8000000000001</ele><time>2026-04-18T08:31:21.959Z</time></trkpt><trkpt lat="43.9318232" lon="7.6103193"><ele>1019.0</ele><time>2026-04-18T08:31:22.959Z</time></trkpt><trkpt lat="43.9317023" lon="7.6103768"><ele>1017.5</ele><time>2026-04-18T08:31:23.959Z</time></trkpt><trkpt lat="43.931579" lon="7.6104226"><ele>1016.0</ele><time>2026-04-18T08:31:24.959Z</time></trkpt><trkpt lat="43.931464" lon="7.6104595"><ele>1014.5</ele><time>2026-04-18T08:31:25.959Z</time></trkpt><trkpt lat="43.9313388" lon="7.6105003"><ele>1013.0</ele><time>2026-04-18T08:31:26.959Z</time></trkpt><trkpt lat="43.9312174" lon="7.6105317"><ele>1013.0</ele><time>2026-04-18T08:31:27.959Z</time></trkpt><trkpt lat="43.9311149" lon="7.6105544"><ele>1013.0</ele><time>2026-04-18T08:31:28.958Z</time></trkpt><trkpt lat="43.9310085" lon="7.6105872"><ele>1013.0</ele><time>2026-04-18T08:31:29.959Z</time></trkpt><trkpt lat="43.9308999" lon="7.6106087"><ele>1013.0</ele><time>2026-04-18T08:31:30.959Z</time></trkpt><trkpt lat="43.9307936" lon="7.6106106"><ele>1013.0</ele><time>2026-04-18T08:31:31.959Z</time></trkpt><trkpt lat="43.930686" lon="7.6105614"><ele>1010.8</ele><time>2026-04-18T08:31:32.959Z</time></trkpt><trkpt lat="43.9305803" lon="7.6105254"><ele>1008.5999999999999</ele><time>2026-04-18T08:31:33.959Z</time></trkpt><trkpt lat="43.9304824" lon="7.6105019"><ele>1006.4000000000001</ele><time>2026-04-18T08:31:34.959Z</time></trkpt><trkpt lat="43.9303978" lon="7.6104759"><ele>1004.2</ele><time>2026-04-18T08:31:35.959Z</time></trkpt><trkpt lat="43.9303004" lon="7.6104987"><ele>1002.0</ele><time>2026-04-18T08:31:36.959Z</time></trkpt><trkpt lat="43.9301953" lon="7.6105756"><ele>1002.0</ele><time>2026-04-18T08:31:37.959Z</time></trkpt><trkpt lat="43.9300957" lon="7.6106452"><ele>1002.0</ele><time>2026-04-18T08:31:38.959Z</time></trkpt><trkpt lat="43.9299787" lon="7.610712"><ele>1002.0</ele><time>2026-04-18T08:31:39.959Z</time></trkpt><trkpt lat="43.9298589" lon="7.6107894"><ele>1002.0</ele><time>2026-04-18T08:31:40.959Z</time></trkpt><trkpt lat="43.9297468" lon="7.610874"><ele>1003.2</ele><time>2026-04-18T08:31:41.959Z</time></trkpt><trkpt lat="43.9296442" lon="7.6109512"><ele>1004.4000000000001</ele><time>2026-04-18T08:31:42.959Z</time></trkpt><trkpt lat="43.9295512" lon="7.6110153"><ele>1005.5999999999999</ele><time>2026-04-18T08:31:43.959Z</time></trkpt><trkpt lat="43.9294588" lon="7.611095"><ele>1006.8</ele><time>2026-04-18T08:31:44.958Z</time></trkpt><trkpt lat="43.9293778" lon="7.6111745"><ele>1008.0</ele><time>2026-04-18T08:31:45.959Z</time></trkpt><trkpt lat="43.9292858" lon="7.6112452"><ele>1006.6666666666666</ele><time>2026-04-18T08:31:46.959Z</time></trkpt><trkpt lat="43.929201" lon="7.6113052"><ele>1005.3333333333333</ele><time>2026-04-18T08:31:47.958Z</time></trkpt><trkpt lat="43.9291304" lon="7.6113521"><ele>1004.0</ele><time>2026-04-18T08:31:48.959Z</time></trkpt><trkpt lat="43.9290809" lon="7.611437"><ele>1002.6666666666666</ele><time>2026-04-18T08:31:49.959Z</time></trkpt><trkpt lat="43.9290439" lon="7.6115455"><ele>1001.3333333333333</ele><time>2026-04-18T08:31:50.959Z</time></trkpt><trkpt lat="43.9290046" lon="7.6116696"><ele>1000.0</ele><time>2026-04-18T08:31:51.959Z</time></trkpt><trkpt lat="43.9289673" lon="7.6118137"><ele>1000.0</ele><time>2026-04-18T08:31:52.959Z</time></trkpt><trkpt lat="43.9289402" lon="7.6119492"><ele>1000.0</ele><time>2026-04-18T08:31:53.959Z</time></trkpt><trkpt lat="43.9289062" lon="7.6120855"><ele>1000.0</ele><time>2026-04-18T08:31:54.959Z</time></trkpt><trkpt lat="43.9288734" lon="7.6122017"><ele>1000.0</ele><time>2026-04-18T08:31:55.959Z</time></trkpt><trkpt lat="43.928822" lon="7.6123083"><ele>1000.0</ele><time>2026-04-18T08:31:56.959Z</time></trkpt><trkpt lat="43.9287623" lon="7.6123965"><ele>995.25</ele><time>2026-04-18T08:31:57.959Z</time></trkpt><trkpt lat="43.928692" lon="7.6124816"><ele>990.5</ele><time>2026-04-18T08:31:58.959Z</time></trkpt><trkpt lat="43.9285789" lon="7.612584"><ele>985.75</ele><time>2026-04-18T08:31:59.959Z</time></trkpt><trkpt lat="43.9284801" lon="7.612694"><ele>981.0</ele><time>2026-04-18T08:32:00.959Z</time></trkpt><trkpt lat="43.9283988" lon="7.6127724"><ele>981.4</ele><time>2026-04-18T08:32:01.959Z</time></trkpt><trkpt lat="43.9283123" lon="7.6128558"><ele>981.8</ele><time>2026-04-18T08:32:02.959Z</time></trkpt><trkpt lat="43.9282421" lon="7.6129323"><ele>982.1999999999999</ele><time>2026-04-18T08:32:03.959Z</time></trkpt><trkpt lat="43.9281803" lon="7.6130017"><ele>982.5999999999999</ele><time>2026-04-18T08:32:04.959Z</time></trkpt><trkpt lat="43.9281337" lon="7.6130731"><ele>983.0</ele><time>2026-04-18T08:32:05.959Z</time></trkpt><trkpt lat="43.9281504" lon="7.6132198"><ele>983.0</ele><time>2026-04-18T08:32:07.959Z</time></trkpt><trkpt lat="43.9282624" lon="7.6132416"><ele>983.0</ele><time>2026-04-18T08:32:09.958Z</time></trkpt><trkpt lat="43.9283279" lon="7.6131965"><ele>983.0</ele><time>2026-04-18T08:32:10.959Z</time></trkpt><trkpt lat="43.9284081" lon="7.6130589"><ele>983.0</ele><time>2026-04-18T08:32:11.959Z</time></trkpt><trkpt lat="43.9284755" lon="7.6129541"><ele>983.0</ele><time>2026-04-18T08:32:12.959Z</time></trkpt><trkpt lat="43.928562" lon="7.6128889"><ele>982.5999999999999</ele><time>2026-04-18T08:32:13.959Z</time></trkpt><trkpt lat="43.928651" lon="7.612851"><ele>982.1999999999999</ele><time>2026-04-18T08:32:14.959Z</time></trkpt><trkpt lat="43.9287612" lon="7.6128189"><ele>981.8</ele><time>2026-04-18T08:32:15.959Z</time></trkpt><trkpt lat="43.9288714" lon="7.6127806"><ele>981.4</ele><time>2026-04-18T08:32:16.959Z</time></trkpt><trkpt lat="43.9289789" lon="7.6127268"><ele>981.0</ele><time>2026-04-18T08:32:17.959Z</time></trkpt><trkpt lat="43.9290858" lon="7.6126258"><ele>981.0</ele><time>2026-04-18T08:32:18.959Z</time></trkpt><trkpt lat="43.9291848" lon="7.6125337"><ele>981.0</ele><time>2026-04-18T08:32:19.959Z</time></trkpt><trkpt lat="43.9292867" lon="7.6124422"><ele>981.0</ele><time>2026-04-18T08:32:20.959Z</time></trkpt><trkpt lat="43.9293849" lon="7.6123393"><ele>981.0</ele><time>2026-04-18T08:32:21.959Z</time></trkpt><trkpt lat="43.9294879" lon="7.6122408"><ele>982.0</ele><time>2026-04-18T08:32:22.959Z</time></trkpt><trkpt lat="43.9295802" lon="7.6121408"><ele>983.0</ele><time>2026-04-18T08:32:23.959Z</time></trkpt><trkpt lat="43.9296751" lon="7.6120482"><ele>984.0</ele><time>2026-04-18T08:32:24.959Z</time></trkpt><trkpt lat="43.9297666" lon="7.6119507"><ele>985.0</ele><time>2026-04-18T08:32:25.959Z</time></trkpt><trkpt lat="43.9298483" lon="7.6118587"><ele>985.0</ele><time>2026-04-18T08:32:26.959Z</time></trkpt><trkpt lat="43.9299362" lon="7.6117649"><ele>985.0</ele><time>2026-04-18T08:32:27.959Z</time></trkpt><trkpt lat="43.9300316" lon="7.6116728"><ele>985.0</ele><time>2026-04-18T08:32:28.959Z</time></trkpt><trkpt lat="43.930127" lon="7.6115652"><ele>985.0</ele><time>2026-04-18T08:32:29.959Z</time></trkpt><trkpt lat="43.9302136" lon="7.6114749"><ele>981.9999999999999</ele><time>2026-04-18T08:32:30.959Z</time></trkpt><trkpt lat="43.9302932" lon="7.6114076"><ele>979.0</ele><time>2026-04-18T08:32:31.958Z</time></trkpt><trkpt lat="43.9303705" lon="7.6113416"><ele>976.0</ele><time>2026-04-18T08:32:32.958Z</time></trkpt><trkpt lat="43.9304448" lon="7.6112712"><ele>973.0</ele><time>2026-04-18T08:32:33.958Z</time></trkpt><trkpt lat="43.9305189" lon="7.6112456"><ele>969.9999999999999</ele><time>2026-04-18T08:32:34.959Z</time></trkpt><trkpt lat="43.9306069" lon="7.6112539"><ele>967.0</ele><time>2026-04-18T08:32:35.959Z</time></trkpt><trkpt lat="43.9307048" lon="7.6112668"><ele>967.0</ele><time>2026-04-18T08:32:36.959Z</time></trkpt><trkpt lat="43.9308034" lon="7.6113084"><ele>967.0</ele><time>2026-04-18T08:32:37.959Z</time></trkpt><trkpt lat="43.9308906" lon="7.6114244"><ele>967.0</ele><time>2026-04-18T08:32:38.959Z</time></trkpt><trkpt lat="43.930993" lon="7.6114873"><ele>967.0</ele><time>2026-04-18T08:32:39.959Z</time></trkpt><trkpt lat="43.9310966" lon="7.6115401"><ele>967.0</ele><time>2026-04-18T08:32:40.959Z</time></trkpt><trkpt lat="43.9311871" lon="7.6115904"><ele>967.8333333333333</ele><time>2026-04-18T08:32:41.959Z</time></trkpt><trkpt lat="43.9312719" lon="7.6116174"><ele>968.6666666666666</ele><time>2026-04-18T08:32:42.959Z</time></trkpt><trkpt lat="43.9313462" lon="7.6116551"><ele>969.5</ele><time>2026-04-18T08:32:43.958Z</time></trkpt><trkpt lat="43.9314132" lon="7.6116834"><ele>970.3333333333333</ele><time>2026-04-18T08:32:44.959Z</time></trkpt><trkpt lat="43.9314728" lon="7.611723"><ele>971.1666666666666</ele><time>2026-04-18T08:32:45.959Z</time></trkpt><trkpt lat="43.9315654" lon="7.6118322"><ele>972.0</ele><time>2026-04-18T08:32:47.959Z</time></trkpt><trkpt lat="43.9314626" lon="7.6118825"><ele>972.0</ele><time>2026-04-18T08:32:48.959Z</time></trkpt><trkpt lat="43.9313986" lon="7.6119056"><ele>972.0</ele><time>2026-04-18T08:32:49.958Z</time></trkpt><trkpt lat="43.9313407" lon="7.6118301"><ele>972.0</ele><time>2026-04-18T08:32:50.959Z</time></trkpt><trkpt lat="43.9312894" lon="7.6117588"><ele>972.0</ele><time>2026-04-18T08:32:51.959Z</time></trkpt><trkpt lat="43.9312014" lon="7.6116985"><ele>972.0</ele><time>2026-04-18T08:32:52.959Z</time></trkpt><trkpt lat="43.9311109" lon="7.6116484"><ele>972.0</ele><time>2026-04-18T08:32:53.959Z</time></trkpt><trkpt lat="43.9310029" lon="7.6116189"><ele>972.0</ele><time>2026-04-18T08:32:54.959Z</time></trkpt><trkpt lat="43.9309127" lon="7.6115551"><ele>972.0</ele><time>2026-04-18T08:32:55.959Z</time></trkpt><trkpt lat="43.9308218" lon="7.6115015"><ele>972.0</ele><time>2026-04-18T08:32:56.959Z</time></trkpt><trkpt lat="43.9307259" lon="7.6114712"><ele>972.0</ele><time>2026-04-18T08:32:57.959Z</time></trkpt><trkpt lat="43.9306402" lon="7.6114462"><ele>972.0</ele><time>2026-04-18T08:32:58.959Z</time></trkpt><trkpt lat="43.9305572" lon="7.6114324"><ele>971.0</ele><time>2026-04-18T08:32:59.959Z</time></trkpt><trkpt lat="43.9304546" lon="7.6114572"><ele>970.0</ele><time>2026-04-18T08:33:00.959Z</time></trkpt><trkpt lat="43.9303705" lon="7.6115249"><ele>969.0</ele><time>2026-04-18T08:33:01.959Z</time></trkpt><trkpt lat="43.9302685" lon="7.6116252"><ele>968.0</ele><time>2026-04-18T08:33:02.959Z</time></trkpt><trkpt lat="43.9302254" lon="7.6117832"><ele>967.0</ele><time>2026-04-18T08:33:03.959Z</time></trkpt><trkpt lat="43.930183" lon="7.6119352"><ele>966.4000000000001</ele><time>2026-04-18T08:33:04.959Z</time></trkpt><trkpt lat="43.9301605" lon="7.6120707"><ele>965.8000000000001</ele><time>2026-04-18T08:33:05.958Z</time></trkpt><trkpt lat="43.9301538" lon="7.6122051"><ele>965.2</ele><time>2026-04-18T08:33:06.959Z</time></trkpt><trkpt lat="43.9300997" lon="7.6123341"><ele>964.6</ele><time>2026-04-18T08:33:07.959Z</time></trkpt><trkpt lat="43.9300691" lon="7.6124549"><ele>964.0</ele><time>2026-04-18T08:33:08.959Z</time></trkpt><trkpt lat="43.9300032" lon="7.6125639"><ele>964.0</ele><time>2026-04-18T08:33:09.959Z</time></trkpt><trkpt lat="43.9299166" lon="7.6126614"><ele>964.0000000000001</ele><time>2026-04-18T08:33:10.959Z</time></trkpt><trkpt lat="43.9298464" lon="7.6127372"><ele>964.0000000000001</ele><time>2026-04-18T08:33:11.959Z</time></trkpt><trkpt lat="43.9297722" lon="7.6127663"><ele>964.0</ele><time>2026-04-18T08:33:12.959Z</time></trkpt><trkpt lat="43.9296979" lon="7.6127939"><ele>964.0</ele><time>2026-04-18T08:33:13.959Z</time></trkpt><trkpt lat="43.9296127" lon="7.6129201"><ele>959.0</ele><time>2026-04-18T08:33:15.959Z</time></trkpt><trkpt lat="43.9295975" lon="7.6130532"><ele>954.0000000000001</ele><time>2026-04-18T08:33:16.959Z</time></trkpt><trkpt lat="43.9295847" lon="7.613195"><ele>949.0000000000001</ele><time>2026-04-18T08:33:17.959Z</time></trkpt><trkpt lat="43.929586" lon="7.6133147"><ele>944.0</ele><time>2026-04-18T08:33:18.959Z</time></trkpt><trkpt lat="43.9295894" lon="7.6134397"><ele>939.0</ele><time>2026-04-18T08:33:19.959Z</time></trkpt><trkpt lat="43.9295777" lon="7.613565"><ele>940.1666666666666</ele><time>2026-04-18T08:33:20.959Z</time></trkpt><trkpt lat="43.9295519" lon="7.6136825"><ele>941.3333333333333</ele><time>2026-04-18T08:33:21.959Z</time></trkpt><trkpt lat="43.929506" lon="7.6137802"><ele>942.5</ele><time>2026-04-18T08:33:22.959Z</time></trkpt><trkpt lat="43.9294506" lon="7.613859"><ele>943.6666666666666</ele><time>2026-04-18T08:33:23.959Z</time></trkpt><trkpt lat="43.9293727" lon="7.6139198"><ele>944.8333333333333</ele><time>2026-04-18T08:33:24.959Z</time></trkpt><trkpt lat="43.9292791" lon="7.6139444"><ele>946.0</ele><time>2026-04-18T08:33:25.959Z</time></trkpt><trkpt lat="43.9291913" lon="7.6139552"><ele>945.9999999999999</ele><time>2026-04-18T08:33:26.959Z</time></trkpt><trkpt lat="43.9291122" lon="7.6139848"><ele>946.0</ele><time>2026-04-18T08:33:27.959Z</time></trkpt><trkpt lat="43.9290387" lon="7.614021"><ele>946.0</ele><time>2026-04-18T08:33:28.959Z</time></trkpt><trkpt lat="43.9289862" lon="7.6141"><ele>946.0</ele><time>2026-04-18T08:33:29.959Z</time></trkpt><trkpt lat="43.9289546" lon="7.6142292"><ele>945.9999999999999</ele><time>2026-04-18T08:33:30.959Z</time></trkpt><trkpt lat="43.9289416" lon="7.6143721"><ele>946.0</ele><time>2026-04-18T08:33:31.959Z</time></trkpt><trkpt lat="43.928938" lon="7.6145166"><ele>942.5999999999999</ele><time>2026-04-18T08:33:32.959Z</time></trkpt><trkpt lat="43.9289372" lon="7.6146592"><ele>939.1999999999999</ele><time>2026-04-18T08:33:33.959Z</time></trkpt><trkpt lat="43.9289397" lon="7.6147887"><ele>935.8000000000001</ele><time>2026-04-18T08:33:34.959Z</time></trkpt><trkpt lat="43.9289056" lon="7.6149338"><ele>932.4000000000001</ele><time>2026-04-18T08:33:35.959Z</time></trkpt><trkpt lat="43.9288934" lon="7.615079"><ele>929.0</ele><time>2026-04-18T08:33:36.959Z</time></trkpt><trkpt lat="43.9288868" lon="7.615207"><ele>924.6</ele><time>2026-04-18T08:33:37.959Z</time></trkpt><trkpt lat="43.9288565" lon="7.6153425"><ele>920.2</ele><time>2026-04-18T08:33:38.959Z</time></trkpt><trkpt lat="43.9288142" lon="7.6154595"><ele>915.8000000000001</ele><time>2026-04-18T08:33:39.959Z</time></trkpt><trkpt lat="43.928753" lon="7.6155792"><ele>911.4000000000001</ele><time>2026-04-18T08:33:40.959Z</time></trkpt><trkpt lat="43.9286832" lon="7.6156775"><ele>907.0</ele><time>2026-04-18T08:33:41.958Z</time></trkpt><trkpt lat="43.9286149" lon="7.6157686"><ele>907.0</ele><time>2026-04-18T08:33:42.959Z</time></trkpt><trkpt lat="43.9285403" lon="7.6158469"><ele>907.0</ele><time>2026-04-18T08:33:43.958Z</time></trkpt><trkpt lat="43.9284193" lon="7.6158283"><ele>907.0</ele><time>2026-04-18T08:33:44.959Z</time></trkpt><trkpt lat="43.9283193" lon="7.6158291"><ele>907.0</ele><time>2026-04-18T08:33:45.959Z</time></trkpt><trkpt lat="43.9282201" lon="7.6158377"><ele>907.0</ele><time>2026-04-18T08:33:46.959Z</time></trkpt><trkpt lat="43.9281011" lon="7.6158329"><ele>910.4000000000001</ele><time>2026-04-18T08:33:47.959Z</time></trkpt><trkpt lat="43.9279815" lon="7.6158355"><ele>913.8000000000001</ele><time>2026-04-18T08:33:48.959Z</time></trkpt><trkpt lat="43.9278858" lon="7.6158115"><ele>917.2</ele><time>2026-04-18T08:33:49.959Z</time></trkpt><trkpt lat="43.9277891" lon="7.615772"><ele>920.6</ele><time>2026-04-18T08:33:50.958Z</time></trkpt><trkpt lat="43.927683" lon="7.6157474"><ele>924.0</ele><time>2026-04-18T08:33:51.959Z</time></trkpt><trkpt lat="43.9275699" lon="7.6157665"><ele>922.6</ele><time>2026-04-18T08:33:52.959Z</time></trkpt><trkpt lat="43.9274569" lon="7.6157943"><ele>921.2</ele><time>2026-04-18T08:33:53.959Z</time></trkpt><trkpt lat="43.9273518" lon="7.6157966"><ele>919.8000000000001</ele><time>2026-04-18T08:33:54.959Z</time></trkpt><trkpt lat="43.927248" lon="7.6158295"><ele>918.4000000000001</ele><time>2026-04-18T08:33:55.959Z</time></trkpt><trkpt lat="43.9271424" lon="7.6158631"><ele>917.0</ele><time>2026-04-18T08:33:56.959Z</time></trkpt><trkpt lat="43.9270586" lon="7.6158744"><ele>917.0</ele><time>2026-04-18T08:33:57.959Z</time></trkpt><trkpt lat="43.9269818" lon="7.615914"><ele>917.0</ele><time>2026-04-18T08:33:58.959Z</time></trkpt><trkpt lat="43.9269045" lon="7.6160067"><ele>917.0</ele><time>2026-04-18T08:33:59.959Z</time></trkpt><trkpt lat="43.9268456" lon="7.616126"><ele>917.0</ele><time>2026-04-18T08:34:00.959Z</time></trkpt><trkpt lat="43.9267996" lon="7.6162306"><ele>917.0</ele><time>2026-04-18T08:34:01.959Z</time></trkpt><trkpt lat="43.9267427" lon="7.6163065"><ele>912.2</ele><time>2026-04-18T08:34:02.959Z</time></trkpt><trkpt lat="43.9266733" lon="7.6164077"><ele>907.4000000000001</ele><time>2026-04-18T08:34:03.958Z</time></trkpt><trkpt lat="43.9266008" lon="7.6165004"><ele>902.5999999999999</ele><time>2026-04-18T08:34:04.959Z</time></trkpt><trkpt lat="43.9265312" lon="7.6165902"><ele>897.8</ele><time>2026-04-18T08:34:05.959Z</time></trkpt><trkpt lat="43.9264599" lon="7.6166689"><ele>893.0</ele><time>2026-04-18T08:34:06.959Z</time></trkpt><trkpt lat="43.9263694" lon="7.6167288"><ele>893.0</ele><time>2026-04-18T08:34:07.959Z</time></trkpt><trkpt lat="43.9262675" lon="7.6167853"><ele>893.0</ele><time>2026-04-18T08:34:08.958Z</time></trkpt><trkpt lat="43.9261585" lon="7.6168259"><ele>893.0</ele><time>2026-04-18T08:34:09.959Z</time></trkpt><trkpt lat="43.9260495" lon="7.6168778"><ele>893.0</ele><time>2026-04-18T08:34:10.959Z</time></trkpt><trkpt lat="43.9259529" lon="7.6169402"><ele>893.0</ele><time>2026-04-18T08:34:11.959Z</time></trkpt><trkpt lat="43.9258509" lon="7.616989"><ele>894.5999999999999</ele><time>2026-04-18T08:34:12.959Z</time></trkpt><trkpt lat="43.9257546" lon="7.6170278"><ele>896.1999999999999</ele><time>2026-04-18T08:34:13.959Z</time></trkpt><trkpt lat="43.925659" lon="7.6170284"><ele>897.8</ele><time>2026-04-18T08:34:14.959Z</time></trkpt><trkpt lat="43.9255742" lon="7.6170054"><ele>899.4</ele><time>2026-04-18T08:34:15.959Z</time></trkpt><trkpt lat="43.9254883" lon="7.6169646"><ele>901.0</ele><time>2026-04-18T08:34:16.959Z</time></trkpt><trkpt lat="43.9253989" lon="7.6168987"><ele>900.9999999999999</ele><time>2026-04-18T08:34:17.959Z</time></trkpt><trkpt lat="43.9253259" lon="7.6168304"><ele>901.0</ele><time>2026-04-18T08:34:18.959Z</time></trkpt><trkpt lat="43.9252539" lon="7.6167936"><ele>901.0</ele><time>2026-04-18T08:34:19.959Z</time></trkpt><trkpt lat="43.9251742" lon="7.6168039"><ele>901.0</ele><time>2026-04-18T08:34:20.959Z</time></trkpt><trkpt lat="43.9250806" lon="7.6168599"><ele>900.9999999999999</ele><time>2026-04-18T08:34:22.959Z</time></trkpt><trkpt lat="43.9250134" lon="7.6169504"><ele>901.0</ele><time>2026-04-18T08:34:23.959Z</time></trkpt><trkpt lat="43.9249445" lon="7.6170843"><ele>895.75</ele><time>2026-04-18T08:34:24.959Z</time></trkpt><trkpt lat="43.9248732" lon="7.6172354"><ele>890.5</ele><time>2026-04-18T08:34:25.959Z</time></trkpt><trkpt lat="43.9248059" lon="7.6173724"><ele>885.25</ele><time>2026-04-18T08:34:26.959Z</time></trkpt><trkpt lat="43.9247591" lon="7.6174911"><ele>880.0</ele><time>2026-04-18T08:34:27.959Z</time></trkpt><trkpt lat="43.9247082" lon="7.617627"><ele>880.0</ele><time>2026-04-18T08:34:28.959Z</time></trkpt><trkpt lat="43.9246645" lon="7.6177605"><ele>880.0</ele><time>2026-04-18T08:34:29.959Z</time></trkpt><trkpt lat="43.9246168" lon="7.617874"><ele>880.0</ele><time>2026-04-18T08:34:30.959Z</time></trkpt><trkpt lat="43.9245665" lon="7.6179586"><ele>880.0</ele><time>2026-04-18T08:34:31.959Z</time></trkpt><trkpt lat="43.9244566" lon="7.6180136"><ele>880.0</ele><time>2026-04-18T08:34:33.959Z</time></trkpt><trkpt lat="43.9243772" lon="7.617984"><ele>882.2</ele><time>2026-04-18T08:34:34.959Z</time></trkpt><trkpt lat="43.9242851" lon="7.617947"><ele>884.4</ele><time>2026-04-18T08:34:35.959Z</time></trkpt><trkpt lat="43.9241976" lon="7.6179018"><ele>886.5999999999999</ele><time>2026-04-18T08:34:36.959Z</time></trkpt><trkpt lat="43.92413" lon="7.617847"><ele>888.8</ele><time>2026-04-18T08:34:37.959Z</time></trkpt><trkpt lat="43.9240271" lon="7.6177859"><ele>891.0</ele><time>2026-04-18T08:34:39.959Z</time></trkpt><trkpt lat="43.924016" lon="7.6178931"><ele>887.0</ele><time>2026-04-18T08:34:41.959Z</time></trkpt><trkpt lat="43.9240631" lon="7.6179715"><ele>883.0</ele><time>2026-04-18T08:34:42.959Z</time></trkpt><trkpt lat="43.9241177" lon="7.6180342"><ele>879.0</ele><time>2026-04-18T08:34:43.959Z</time></trkpt><trkpt lat="43.9241984" lon="7.6181157"><ele>875.0</ele><time>2026-04-18T08:34:44.959Z</time></trkpt><trkpt lat="43.924283" lon="7.6181921"><ele>871.0</ele><time>2026-04-18T08:34:45.959Z</time></trkpt><trkpt lat="43.9243691" lon="7.6182388"><ele>867.0</ele><time>2026-04-18T08:34:46.959Z</time></trkpt><trkpt lat="43.92445" lon="7.6182613"><ele>865.0</ele><time>2026-04-18T08:34:47.959Z</time></trkpt><trkpt lat="43.9245304" lon="7.618264"><ele>863.0</ele><time>2026-04-18T08:34:48.959Z</time></trkpt><trkpt lat="43.9246053" lon="7.6182225"><ele>861.0</ele><time>2026-04-18T08:34:49.959Z</time></trkpt><trkpt lat="43.9246697" lon="7.6181711"><ele>859.0</ele><time>2026-04-18T08:34:50.959Z</time></trkpt><trkpt lat="43.9247244" lon="7.6180755"><ele>857.0</ele><time>2026-04-18T08:34:51.959Z</time></trkpt><trkpt lat="43.9247656" lon="7.617972"><ele>855.0</ele><time>2026-04-18T08:34:52.959Z</time></trkpt><trkpt lat="43.9248044" lon="7.6178814"><ele>859.1666666666666</ele><time>2026-04-18T08:34:53.958Z</time></trkpt><trkpt lat="43.9248406" lon="7.6177942"><ele>863.3333333333333</ele><time>2026-04-18T08:34:54.959Z</time></trkpt><trkpt lat="43.9248755" lon="7.617709"><ele>867.5</ele><time>2026-04-18T08:34:55.959Z</time></trkpt><trkpt lat="43.9249038" lon="7.6176289"><ele>871.6666666666666</ele><time>2026-04-18T08:34:56.959Z</time></trkpt><trkpt lat="43.9249397" lon="7.6175449"><ele>875.8333333333333</ele><time>2026-04-18T08:34:57.959Z</time></trkpt><trkpt lat="43.9249852" lon="7.6174647"><ele>880.0</ele><time>2026-04-18T08:34:58.958Z</time></trkpt><trkpt lat="43.9250539" lon="7.6173421"><ele>878.3333333333333</ele><time>2026-04-18T08:35:00.958Z</time></trkpt><trkpt lat="43.9251708" lon="7.6173091"><ele>876.6666666666666</ele><time>2026-04-18T08:35:02.959Z</time></trkpt><trkpt lat="43.925241" lon="7.6173189"><ele>875.0</ele><time>2026-04-18T08:35:03.959Z</time></trkpt><trkpt lat="43.9253049" lon="7.6173846"><ele>873.3333333333333</ele><time>2026-04-18T08:35:04.959Z</time></trkpt><trkpt lat="43.9253641" lon="7.6174495"><ele>871.6666666666666</ele><time>2026-04-18T08:35:05.959Z</time></trkpt><trkpt lat="43.9254121" lon="7.6175171"><ele>870.0</ele><time>2026-04-18T08:35:06.959Z</time></trkpt><trkpt lat="43.9254445" lon="7.6176084"><ele>870.0</ele><time>2026-04-18T08:35:07.959Z</time></trkpt><trkpt lat="43.925546" lon="7.6176827"><ele>870.0</ele><time>2026-04-18T08:35:09.958Z</time></trkpt><trkpt lat="43.9256441" lon="7.6176831"><ele>870.0</ele><time>2026-04-18T08:35:10.959Z</time></trkpt><trkpt lat="43.9257867" lon="7.6176264"><ele>870.0</ele><time>2026-04-18T08:35:11.959Z</time></trkpt><trkpt lat="43.9258847" lon="7.6175943"><ele>868.8333333333334</ele><time>2026-04-18T08:35:12.958Z</time></trkpt><trkpt lat="43.925967" lon="7.6175936"><ele>867.6666666666667</ele><time>2026-04-18T08:35:13.959Z</time></trkpt><trkpt lat="43.9260482" lon="7.6175893"><ele>866.5</ele><time>2026-04-18T08:35:14.959Z</time></trkpt><trkpt lat="43.9261372" lon="7.6175838"><ele>865.3333333333334</ele><time>2026-04-18T08:35:15.959Z</time></trkpt><trkpt lat="43.9262132" lon="7.6175807"><ele>864.1666666666667</ele><time>2026-04-18T08:35:16.959Z</time></trkpt><trkpt lat="43.9262817" lon="7.6175686"><ele>863.0</ele><time>2026-04-18T08:35:17.959Z</time></trkpt><trkpt lat="43.9263526" lon="7.6175555"><ele>863.0000000000001</ele><time>2026-04-18T08:35:18.959Z</time></trkpt><trkpt lat="43.9264319" lon="7.6175466"><ele>863.0</ele><time>2026-04-18T08:35:19.958Z</time></trkpt><trkpt lat="43.9265007" lon="7.6175386"><ele>863.0</ele><time>2026-04-18T08:35:20.959Z</time></trkpt><trkpt lat="43.9265656" lon="7.6175163"><ele>863.0</ele><time>2026-04-18T08:35:21.959Z</time></trkpt><trkpt lat="43.926633" lon="7.6174898"><ele>863.0000000000001</ele><time>2026-04-18T08:35:22.959Z</time></trkpt><trkpt lat="43.9267019" lon="7.6174609"><ele>863.0</ele><time>2026-04-18T08:35:23.959Z</time></trkpt><trkpt lat="43.9267885" lon="7.6174169"><ele>862.5000000000001</ele><time>2026-04-18T08:35:24.959Z</time></trkpt><trkpt lat="43.9268756" lon="7.6173616"><ele>862.0</ele><time>2026-04-18T08:35:25.959Z</time></trkpt><trkpt lat="43.9269525" lon="7.6173028"><ele>861.5</ele><time>2026-04-18T08:35:26.959Z</time></trkpt><trkpt lat="43.9270298" lon="7.6172562"><ele>861.0</ele><time>2026-04-18T08:35:27.959Z</time></trkpt><trkpt lat="43.9271002" lon="7.6172407"><ele>860.5000000000001</ele><time>2026-04-18T08:35:28.959Z</time></trkpt><trkpt lat="43.9271816" lon="7.6172312"><ele>860.0</ele><time>2026-04-18T08:35:29.959Z</time></trkpt><trkpt lat="43.9272774" lon="7.617241"><ele>860.0</ele><time>2026-04-18T08:35:30.959Z</time></trkpt><trkpt lat="43.9273855" lon="7.6173638"><ele>860.0</ele><time>2026-04-18T08:35:31.959Z</time></trkpt><trkpt lat="43.9274692" lon="7.6174629"><ele>860.0</ele><time>2026-04-18T08:35:32.959Z</time></trkpt><trkpt lat="43.9275459" lon="7.6175367"><ele>860.0</ele><time>2026-04-18T08:35:33.959Z</time></trkpt><trkpt lat="43.9276246" lon="7.6176024"><ele>860.0</ele><time>2026-04-18T08:35:34.959Z</time></trkpt><trkpt lat="43.9277066" lon="7.6176701"><ele>861.2</ele><time>2026-04-18T08:35:35.959Z</time></trkpt><trkpt lat="43.9277933" lon="7.6177241"><ele>862.4</ele><time>2026-04-18T08:35:36.959Z</time></trkpt><trkpt lat="43.9278952" lon="7.6177308"><ele>863.5999999999999</ele><time>2026-04-18T08:35:37.959Z</time></trkpt><trkpt lat="43.9280112" lon="7.6177351"><ele>864.8</ele><time>2026-04-18T08:35:38.959Z</time></trkpt><trkpt lat="43.9281258" lon="7.6177515"><ele>866.0</ele><time>2026-04-18T08:35:39.959Z</time></trkpt><trkpt lat="43.9282145" lon="7.6177695"><ele>866.0</ele><time>2026-04-18T08:35:40.959Z</time></trkpt><trkpt lat="43.9283067" lon="7.6178035"><ele>865.9999999999999</ele><time>2026-04-18T08:35:41.959Z</time></trkpt><trkpt lat="43.9283967" lon="7.6178205"><ele>865.9999999999999</ele><time>2026-04-18T08:35:42.959Z</time></trkpt><trkpt lat="43.9284616" lon="7.6178473"><ele>866.0</ele><time>2026-04-18T08:35:43.959Z</time></trkpt><trkpt lat="43.9285488" lon="7.617918"><ele>866.0</ele><time>2026-04-18T08:35:45.959Z</time></trkpt><trkpt lat="43.9284976" lon="7.6180501"><ele>859.1999999999999</ele><time>2026-04-18T08:35:47.958Z</time></trkpt><trkpt lat="43.9283925" lon="7.6180663"><ele>852.3999999999999</ele><time>2026-04-18T08:35:49.959Z</time></trkpt><trkpt lat="43.9283296" lon="7.6180513"><ele>845.6</ele><time>2026-04-18T08:35:50.959Z</time></trkpt><trkpt lat="43.9282086" lon="7.6180225"><ele>838.8</ele><time>2026-04-18T08:35:52.959Z</time></trkpt><trkpt lat="43.9281315" lon="7.6180176"><ele>832.0</ele><time>2026-04-18T08:35:53.959Z</time></trkpt><trkpt lat="43.9280504" lon="7.6180241"><ele>831.9999999999999</ele><time>2026-04-18T08:35:54.959Z</time></trkpt><trkpt lat="43.9279702" lon="7.6180426"><ele>832.0</ele><time>2026-04-18T08:35:55.959Z</time></trkpt><trkpt lat="43.9278855" lon="7.6180574"><ele>832.0</ele><time>2026-04-18T08:35:56.959Z</time></trkpt><trkpt lat="43.9278123" lon="7.6180969"><ele>832.0</ele><time>2026-04-18T08:35:57.958Z</time></trkpt><trkpt lat="43.9277269" lon="7.6180968"><ele>831.9999999999999</ele><time>2026-04-18T08:35:58.959Z</time></trkpt><trkpt lat="43.9276099" lon="7.6181042"><ele>832.0</ele><time>2026-04-18T08:35:59.958Z</time></trkpt><trkpt lat="43.9274967" lon="7.6181113"><ele>830.2</ele><time>2026-04-18T08:36:00.959Z</time></trkpt><trkpt lat="43.927386" lon="7.6181128"><ele>828.4000000000001</ele><time>2026-04-18T08:36:01.958Z</time></trkpt><trkpt lat="43.9272744" lon="7.6181269"><ele>826.5999999999999</ele><time>2026-04-18T08:36:02.959Z</time></trkpt><trkpt lat="43.9271774" lon="7.6181375"><ele>824.8</ele><time>2026-04-18T08:36:03.958Z</time></trkpt><trkpt lat="43.927086" lon="7.6181784"><ele>823.0</ele><time>2026-04-18T08:36:04.959Z</time></trkpt><trkpt lat="43.9269808" lon="7.6182634"><ele>823.0</ele><time>2026-04-18T08:36:05.959Z</time></trkpt><trkpt lat="43.926881" lon="7.6183536"><ele>823.0</ele><time>2026-04-18T08:36:06.959Z</time></trkpt><trkpt lat="43.9267702" lon="7.6184016"><ele>823.0</ele><time>2026-04-18T08:36:07.959Z</time></trkpt><trkpt lat="43.9266631" lon="7.6184451"><ele>823.0</ele><time>2026-04-18T08:36:08.959Z</time></trkpt><trkpt lat="43.9265691" lon="7.6184988"><ele>823.0</ele><time>2026-04-18T08:36:09.959Z</time></trkpt><trkpt lat="43.9264707" lon="7.6185517"><ele>818.2</ele><time>2026-04-18T08:36:10.959Z</time></trkpt><trkpt lat="43.9264035" lon="7.6186656"><ele>813.4</ele><time>2026-04-18T08:36:11.959Z</time></trkpt><trkpt lat="43.9263279" lon="7.6187852"><ele>808.6</ele><time>2026-04-18T08:36:12.959Z</time></trkpt><trkpt lat="43.9262489" lon="7.6189007"><ele>803.8000000000001</ele><time>2026-04-18T08:36:13.959Z</time></trkpt><trkpt lat="43.9261736" lon="7.6189959"><ele>799.0</ele><time>2026-04-18T08:36:14.959Z</time></trkpt><trkpt lat="43.9261143" lon="7.6190941"><ele>798.9999999999999</ele><time>2026-04-18T08:36:15.959Z</time></trkpt><trkpt lat="43.9260546" lon="7.619172"><ele>799.0</ele><time>2026-04-18T08:36:16.959Z</time></trkpt><trkpt lat="43.9259822" lon="7.6192466"><ele>799.0</ele><time>2026-04-18T08:36:17.959Z</time></trkpt><trkpt lat="43.925919" lon="7.6192963"><ele>799.0</ele><time>2026-04-18T08:36:18.959Z</time></trkpt><trkpt lat="43.925849" lon="7.6193404"><ele>798.9999999999999</ele><time>2026-04-18T08:36:19.958Z</time></trkpt><trkpt lat="43.9257498" lon="7.6193023"><ele>799.0</ele><time>2026-04-18T08:36:20.959Z</time></trkpt><trkpt lat="43.9256436" lon="7.619272"><ele>801.1666666666666</ele><time>2026-04-18T08:36:21.959Z</time></trkpt><trkpt lat="43.9255491" lon="7.6192675"><ele>803.3333333333333</ele><time>2026-04-18T08:36:22.959Z</time></trkpt><trkpt lat="43.9254576" lon="7.6192487"><ele>805.5</ele><time>2026-04-18T08:36:23.959Z</time></trkpt><trkpt lat="43.9253758" lon="7.6192183"><ele>807.6666666666667</ele><time>2026-04-18T08:36:24.959Z</time></trkpt><trkpt lat="43.9253029" lon="7.6192227"><ele>809.8333333333334</ele><time>2026-04-18T08:36:25.959Z</time></trkpt><trkpt lat="43.9252385" lon="7.6192339"><ele>812.0</ele><time>2026-04-18T08:36:26.959Z</time></trkpt><trkpt lat="43.9251763" lon="7.6192887"><ele>812.0</ele><time>2026-04-18T08:36:27.959Z</time></trkpt><trkpt lat="43.9251465" lon="7.6194313"><ele>812.0</ele><time>2026-04-18T08:36:28.959Z</time></trkpt><trkpt lat="43.9251068" lon="7.6195739"><ele>812.0</ele><time>2026-04-18T08:36:29.959Z</time></trkpt><trkpt lat="43.9250554" lon="7.6196852"><ele>812.0</ele><time>2026-04-18T08:36:30.959Z</time></trkpt><trkpt lat="43.9249973" lon="7.6197887"><ele>812.0</ele><time>2026-04-18T08:36:31.959Z</time></trkpt><trkpt lat="43.924922" lon="7.6198787"><ele>810.1666666666667</ele><time>2026-04-18T08:36:32.959Z</time></trkpt><trkpt lat="43.9248504" lon="7.6199269"><ele>808.3333333333334</ele><time>2026-04-18T08:36:33.959Z</time></trkpt><trkpt lat="43.9247841" lon="7.6199823"><ele>806.5</ele><time>2026-04-18T08:36:34.959Z</time></trkpt><trkpt lat="43.9247026" lon="7.6200158"><ele>804.6666666666667</ele><time>2026-04-18T08:36:35.959Z</time></trkpt><trkpt lat="43.9246248" lon="7.6200334"><ele>802.8333333333334</ele><time>2026-04-18T08:36:36.959Z</time></trkpt><trkpt lat="43.924554" lon="7.6199813"><ele>801.0</ele><time>2026-04-18T08:36:37.959Z</time></trkpt><trkpt lat="43.9244734" lon="7.6199165"><ele>801.0</ele><time>2026-04-18T08:36:38.959Z</time></trkpt><trkpt lat="43.9243998" lon="7.6198721"><ele>801.0</ele><time>2026-04-18T08:36:39.959Z</time></trkpt><trkpt lat="43.9243296" lon="7.6198585"><ele>801.0</ele><time>2026-04-18T08:36:40.959Z</time></trkpt><trkpt lat="43.9242583" lon="7.6198733"><ele>801.0</ele><time>2026-04-18T08:36:41.959Z</time></trkpt><trkpt lat="43.9241904" lon="7.6199277"><ele>801.0</ele><time>2026-04-18T08:36:42.959Z</time></trkpt><trkpt lat="43.9241677" lon="7.6200188"><ele>801.0</ele><time>2026-04-18T08:36:43.959Z</time></trkpt><trkpt lat="43.9241649" lon="7.6201985"><ele>801.1666666666666</ele><time>2026-04-18T08:36:44.959Z</time></trkpt><trkpt lat="43.9241609" lon="7.620334"><ele>801.3333333333333</ele><time>2026-04-18T08:36:45.959Z</time></trkpt><trkpt lat="43.9241291" lon="7.6204178"><ele>801.5</ele><time>2026-04-18T08:36:46.959Z</time></trkpt><trkpt lat="43.9240763" lon="7.6204794"><ele>801.6666666666666</ele><time>2026-04-18T08:36:47.959Z</time></trkpt><trkpt lat="43.9240172" lon="7.620529"><ele>801.8333333333333</ele><time>2026-04-18T08:36:48.959Z</time></trkpt><trkpt lat="43.9239254" lon="7.6205806"><ele>802.0</ele><time>2026-04-18T08:36:49.959Z</time></trkpt><trkpt lat="43.9238397" lon="7.6206539"><ele>802.0</ele><time>2026-04-18T08:36:50.958Z</time></trkpt><trkpt lat="43.9237673" lon="7.6207692"><ele>802.0</ele><time>2026-04-18T08:36:51.959Z</time></trkpt><trkpt lat="43.9237079" lon="7.6209267"><ele>802.0</ele><time>2026-04-18T08:36:52.959Z</time></trkpt><trkpt lat="43.9236671" lon="7.6210795"><ele>802.0</ele><time>2026-04-18T08:36:53.959Z</time></trkpt><trkpt lat="43.923632" lon="7.6212413"><ele>797.25</ele><time>2026-04-18T08:36:54.959Z</time></trkpt><trkpt lat="43.9236" lon="7.6214121"><ele>792.5</ele><time>2026-04-18T08:36:55.959Z</time></trkpt><trkpt lat="43.9235712" lon="7.6215742"><ele>787.75</ele><time>2026-04-18T08:36:56.959Z</time></trkpt><trkpt lat="43.9235277" lon="7.6217233"><ele>783.0</ele><time>2026-04-18T08:36:57.959Z</time></trkpt><trkpt lat="43.9234775" lon="7.6218792"><ele>785.0</ele><time>2026-04-18T08:36:58.959Z</time></trkpt><trkpt lat="43.9234249" lon="7.6220396"><ele>787.0</ele><time>2026-04-18T08:36:59.959Z</time></trkpt><trkpt lat="43.9233849" lon="7.6221995"><ele>789.0</ele><time>2026-04-18T08:37:00.959Z</time></trkpt><trkpt lat="43.9233459" lon="7.6223537"><ele>791.0</ele><time>2026-04-18T08:37:01.959Z</time></trkpt><trkpt lat="43.9233071" lon="7.6224991"><ele>791.0</ele><time>2026-04-18T08:37:02.959Z</time></trkpt><trkpt lat="43.923266" lon="7.6226446"><ele>791.0</ele><time>2026-04-18T08:37:03.959Z</time></trkpt><trkpt lat="43.9232221" lon="7.6227805"><ele>791.0</ele><time>2026-04-18T08:37:04.959Z</time></trkpt><trkpt lat="43.9231636" lon="7.6229125"><ele>791.0</ele><time>2026-04-18T08:37:05.959Z</time></trkpt><trkpt lat="43.9231036" lon="7.6230215"><ele>791.0</ele><time>2026-04-18T08:37:06.959Z</time></trkpt><trkpt lat="43.9230419" lon="7.6231154"><ele>787.1999999999999</ele><time>2026-04-18T08:37:07.958Z</time></trkpt><trkpt lat="43.9229782" lon="7.6231814"><ele>783.4</ele><time>2026-04-18T08:37:08.959Z</time></trkpt><trkpt lat="43.9229127" lon="7.6232282"><ele>779.6</ele><time>2026-04-18T08:37:09.959Z</time></trkpt><trkpt lat="43.9228397" lon="7.6233551"><ele>775.8</ele><time>2026-04-18T08:37:11.959Z</time></trkpt><trkpt lat="43.922908" lon="7.6234589"><ele>772.0</ele><time>2026-04-18T08:37:13.959Z</time></trkpt><trkpt lat="43.9230135" lon="7.6233787"><ele>772.0</ele><time>2026-04-18T08:37:15.959Z</time></trkpt><trkpt lat="43.923071" lon="7.6232915"><ele>772.0</ele><time>2026-04-18T08:37:16.959Z</time></trkpt><trkpt lat="43.9231333" lon="7.623194"><ele>772.0</ele><time>2026-04-18T08:37:17.959Z</time></trkpt><trkpt lat="43.923203" lon="7.623081"><ele>772.0</ele><time>2026-04-18T08:37:18.959Z</time></trkpt><trkpt lat="43.9232605" lon="7.6229636"><ele>772.0</ele><time>2026-04-18T08:37:19.959Z</time></trkpt><trkpt lat="43.923313" lon="7.6228438"><ele>771.0</ele><time>2026-04-18T08:37:20.959Z</time></trkpt><trkpt lat="43.9233712" lon="7.6227148"><ele>770.0</ele><time>2026-04-18T08:37:21.959Z</time></trkpt><trkpt lat="43.9234165" lon="7.6225768"><ele>769.0</ele><time>2026-04-18T08:37:22.959Z</time></trkpt><trkpt lat="43.92347" lon="7.6224465"><ele>768.0</ele><time>2026-04-18T08:37:23.959Z</time></trkpt><trkpt lat="43.9235236" lon="7.6223156"><ele>767.0</ele><time>2026-04-18T08:37:24.959Z</time></trkpt><trkpt lat="43.9235887" lon="7.6221942"><ele>767.0</ele><time>2026-04-18T08:37:25.959Z</time></trkpt><trkpt lat="43.923639" lon="7.6220729"><ele>767.0</ele><time>2026-04-18T08:37:26.959Z</time></trkpt><trkpt lat="43.9236988" lon="7.6219667"><ele>767.0</ele><time>2026-04-18T08:37:27.959Z</time></trkpt><trkpt lat="43.923769" lon="7.6218711"><ele>767.0</ele><time>2026-04-18T08:37:28.959Z</time></trkpt><trkpt lat="43.923836" lon="7.6217753"><ele>767.0</ele><time>2026-04-18T08:37:29.959Z</time></trkpt><trkpt lat="43.9238932" lon="7.6216963"><ele>766.8</ele><time>2026-04-18T08:37:30.959Z</time></trkpt><trkpt lat="43.9239533" lon="7.6216365"><ele>766.6</ele><time>2026-04-18T08:37:31.959Z</time></trkpt><trkpt lat="43.9240229" lon="7.6215922"><ele>766.4</ele><time>2026-04-18T08:37:32.959Z</time></trkpt><trkpt lat="43.9241282" lon="7.6216166"><ele>766.1999999999999</ele><time>2026-04-18T08:37:33.959Z</time></trkpt><trkpt lat="43.9242268" lon="7.6216515"><ele>766.0</ele><time>2026-04-18T08:37:34.959Z</time></trkpt><trkpt lat="43.9242549" lon="7.6218249"><ele>766.0</ele><time>2026-04-18T08:37:35.959Z</time></trkpt><trkpt lat="43.9243269" lon="7.6218986"><ele>766.0</ele><time>2026-04-18T08:37:36.959Z</time></trkpt><trkpt lat="43.9243964" lon="7.6219666"><ele>766.0</ele><time>2026-04-18T08:37:37.959Z</time></trkpt><trkpt lat="43.9244619" lon="7.6220284"><ele>766.0</ele><time>2026-04-18T08:37:38.959Z</time></trkpt><trkpt lat="43.9245551" lon="7.6220489"><ele>766.0</ele><time>2026-04-18T08:37:39.959Z</time></trkpt><trkpt lat="43.924656" lon="7.6220286"><ele>766.0</ele><time>2026-04-18T08:37:40.959Z</time></trkpt><trkpt lat="43.9247414" lon="7.6219878"><ele>766.0</ele><time>2026-04-18T08:37:41.959Z</time></trkpt><trkpt lat="43.9248226" lon="7.6219181"><ele>766.0</ele><time>2026-04-18T08:37:42.959Z</time></trkpt><trkpt lat="43.924885" lon="7.6218318"><ele>766.0</ele><time>2026-04-18T08:37:43.959Z</time></trkpt><trkpt lat="43.9249602" lon="7.6217314"><ele>766.0</ele><time>2026-04-18T08:37:44.959Z</time></trkpt><trkpt lat="43.9250211" lon="7.6216226"><ele>764.3333333333334</ele><time>2026-04-18T08:37:45.959Z</time></trkpt><trkpt lat="43.9250676" lon="7.6215183"><ele>762.6666666666667</ele><time>2026-04-18T08:37:46.959Z</time></trkpt><trkpt lat="43.9251101" lon="7.6214208"><ele>761.0</ele><time>2026-04-18T08:37:47.959Z</time></trkpt><trkpt lat="43.9251402" lon="7.621317"><ele>759.3333333333334</ele><time>2026-04-18T08:37:48.959Z</time></trkpt><trkpt lat="43.9251496" lon="7.621208"><ele>757.6666666666666</ele><time>2026-04-18T08:37:49.959Z</time></trkpt><trkpt lat="43.9251222" lon="7.6211022"><ele>756.0</ele><time>2026-04-18T08:37:50.959Z</time></trkpt><trkpt lat="43.9250802" lon="7.6210093"><ele>756.0</ele><time>2026-04-18T08:37:51.959Z</time></trkpt><trkpt lat="43.9250768" lon="7.6209075"><ele>756.0</ele><time>2026-04-18T08:37:52.959Z</time></trkpt><trkpt lat="43.9251015" lon="7.6208082"><ele>756.0</ele><time>2026-04-18T08:37:53.959Z</time></trkpt><trkpt lat="43.9251626" lon="7.6207366"><ele>756.0</ele><time>2026-04-18T08:37:54.959Z</time></trkpt><trkpt lat="43.9252376" lon="7.620685"><ele>756.0</ele><time>2026-04-18T08:37:55.959Z</time></trkpt><trkpt lat="43.9253172" lon="7.6206245"><ele>756.0</ele><time>2026-04-18T08:37:56.959Z</time></trkpt><trkpt lat="43.9253921" lon="7.6205787"><ele>756.0</ele><time>2026-04-18T08:37:57.959Z</time></trkpt><trkpt lat="43.925478" lon="7.6205597"><ele>756.0</ele><time>2026-04-18T08:37:58.959Z</time></trkpt><trkpt lat="43.9255676" lon="7.6206117"><ele>756.0</ele><time>2026-04-18T08:37:59.959Z</time></trkpt><trkpt lat="43.925648" lon="7.6206431"><ele>756.0</ele><time>2026-04-18T08:38:00.959Z</time></trkpt><trkpt lat="43.9257496" lon="7.6206322"><ele>756.0</ele><time>2026-04-18T08:38:01.959Z</time></trkpt><trkpt lat="43.9258567" lon="7.620638"><ele>753.4</ele><time>2026-04-18T08:38:02.959Z</time></trkpt><trkpt lat="43.925958" lon="7.6206528"><ele>750.8</ele><time>2026-04-18T08:38:03.959Z</time></trkpt><trkpt lat="43.9260614" lon="7.6206741"><ele>748.1999999999999</ele><time>2026-04-18T08:38:04.958Z</time></trkpt><trkpt lat="43.926187" lon="7.6206795"><ele>745.5999999999999</ele><time>2026-04-18T08:38:05.959Z</time></trkpt><trkpt lat="43.9262996" lon="7.6206775"><ele>743.0</ele><time>2026-04-18T08:38:06.959Z</time></trkpt><trkpt lat="43.9263905" lon="7.620688"><ele>743.0</ele><time>2026-04-18T08:38:07.959Z</time></trkpt><trkpt lat="43.9264806" lon="7.6206876"><ele>743.0</ele><time>2026-04-18T08:38:08.959Z</time></trkpt><trkpt lat="43.9265723" lon="7.6206811"><ele>743.0</ele><time>2026-04-18T08:38:09.959Z</time></trkpt><trkpt lat="43.9266674" lon="7.6206639"><ele>743.0</ele><time>2026-04-18T08:38:10.959Z</time></trkpt><trkpt lat="43.9267561" lon="7.6206199"><ele>743.0</ele><time>2026-04-18T08:38:11.959Z</time></trkpt><trkpt lat="43.9268454" lon="7.6205356"><ele>739.8333333333333</ele><time>2026-04-18T08:38:12.959Z</time></trkpt><trkpt lat="43.9269227" lon="7.6204753"><ele>736.6666666666666</ele><time>2026-04-18T08:38:13.959Z</time></trkpt><trkpt lat="43.9269919" lon="7.6204248"><ele>733.5</ele><time>2026-04-18T08:38:14.959Z</time></trkpt><trkpt lat="43.9270909" lon="7.6204234"><ele>730.3333333333334</ele><time>2026-04-18T08:38:16.959Z</time></trkpt><trkpt lat="43.9271076" lon="7.6205297"><ele>727.1666666666667</ele><time>2026-04-18T08:38:17.959Z</time></trkpt><trkpt lat="43.9270781" lon="7.6206098"><ele>724.0</ele><time>2026-04-18T08:38:18.959Z</time></trkpt><trkpt lat="43.9269543" lon="7.6207041"><ele>724.0</ele><time>2026-04-18T08:38:20.959Z</time></trkpt><trkpt lat="43.9268569" lon="7.6207266"><ele>724.0</ele><time>2026-04-18T08:38:21.959Z</time></trkpt><trkpt lat="43.9267693" lon="7.6207897"><ele>724.0</ele><time>2026-04-18T08:38:22.959Z</time></trkpt><trkpt lat="43.9266858" lon="7.6208719"><ele>724.0</ele><time>2026-04-18T08:38:23.959Z</time></trkpt><trkpt lat="43.9265916" lon="7.6209664"><ele>724.0</ele><time>2026-04-18T08:38:24.959Z</time></trkpt><trkpt lat="43.9264889" lon="7.6210666"><ele>724.4000000000001</ele><time>2026-04-18T08:38:25.959Z</time></trkpt><trkpt lat="43.9263951" lon="7.6211655"><ele>724.8</ele><time>2026-04-18T08:38:26.958Z</time></trkpt><trkpt lat="43.9263109" lon="7.6212489"><ele>725.2</ele><time>2026-04-18T08:38:27.959Z</time></trkpt><trkpt lat="43.9262344" lon="7.6213349"><ele>725.5999999999999</ele><time>2026-04-18T08:38:28.959Z</time></trkpt><trkpt lat="43.9261579" lon="7.6214272"><ele>726.0</ele><time>2026-04-18T08:38:29.959Z</time></trkpt><trkpt lat="43.9260857" lon="7.6215133"><ele>726.0</ele><time>2026-04-18T08:38:30.959Z</time></trkpt><trkpt lat="43.9260101" lon="7.6215854"><ele>726.0</ele><time>2026-04-18T08:38:31.959Z</time></trkpt><trkpt lat="43.9259325" lon="7.621654"><ele>726.0</ele><time>2026-04-18T08:38:32.959Z</time></trkpt><trkpt lat="43.9258452" lon="7.6216689"><ele>726.0</ele><time>2026-04-18T08:38:33.959Z</time></trkpt><trkpt lat="43.9257644" lon="7.6216519"><ele>726.0</ele><time>2026-04-18T08:38:34.959Z</time></trkpt><trkpt lat="43.9256929" lon="7.6215753"><ele>726.0</ele><time>2026-04-18T08:38:35.959Z</time></trkpt><trkpt lat="43.9256214" lon="7.6215194"><ele>728.0</ele><time>2026-04-18T08:38:36.959Z</time></trkpt><trkpt lat="43.9255522" lon="7.6214773"><ele>730.0</ele><time>2026-04-18T08:38:37.959Z</time></trkpt><trkpt lat="43.9254838" lon="7.6214599"><ele>732.0</ele><time>2026-04-18T08:38:38.959Z</time></trkpt><trkpt lat="43.9254811" lon="7.6216695"><ele>734.0</ele><time>2026-04-18T08:38:40.958Z</time></trkpt><trkpt lat="43.925452" lon="7.621807"><ele>736.0</ele><time>2026-04-18T08:38:41.959Z</time></trkpt><trkpt lat="43.9254314" lon="7.6219656"><ele>731.4</ele><time>2026-04-18T08:38:42.959Z</time></trkpt><trkpt lat="43.9254347" lon="7.6221407"><ele>726.8</ele><time>2026-04-18T08:38:43.959Z</time></trkpt><trkpt lat="43.9254595" lon="7.6222964"><ele>722.1999999999999</ele><time>2026-04-18T08:38:44.959Z</time></trkpt><trkpt lat="43.9254756" lon="7.6224385"><ele>717.5999999999999</ele><time>2026-04-18T08:38:45.959Z</time></trkpt><trkpt lat="43.9254631" lon="7.6225775"><ele>713.0</ele><time>2026-04-18T08:38:46.959Z</time></trkpt><trkpt lat="43.9254451" lon="7.6227063"><ele>709.8333333333333</ele><time>2026-04-18T08:38:47.959Z</time></trkpt><trkpt lat="43.9254469" lon="7.6228251"><ele>706.6666666666666</ele><time>2026-04-18T08:38:48.959Z</time></trkpt><trkpt lat="43.9254538" lon="7.6229453"><ele>703.5</ele><time>2026-04-18T08:38:49.959Z</time></trkpt><trkpt lat="43.9254313" lon="7.6230472"><ele>700.3333333333334</ele><time>2026-04-18T08:38:50.958Z</time></trkpt><trkpt lat="43.9253646" lon="7.6231583"><ele>697.1666666666667</ele><time>2026-04-18T08:38:51.959Z</time></trkpt><trkpt lat="43.9253146" lon="7.6232652"><ele>694.0</ele><time>2026-04-18T08:38:52.959Z</time></trkpt><trkpt lat="43.9252803" lon="7.6233994"><ele>694.0</ele><time>2026-04-18T08:38:53.959Z</time></trkpt><trkpt lat="43.9252524" lon="7.6235478"><ele>694.0</ele><time>2026-04-18T08:38:54.959Z</time></trkpt><trkpt lat="43.9252284" lon="7.623693"><ele>694.0</ele><time>2026-04-18T08:38:55.959Z</time></trkpt><trkpt lat="43.9252167" lon="7.6238288"><ele>694.0</ele><time>2026-04-18T08:38:56.959Z</time></trkpt><trkpt lat="43.9251966" lon="7.6239667"><ele>694.0</ele><time>2026-04-18T08:38:57.959Z</time></trkpt><trkpt lat="43.925167" lon="7.6240846"><ele>692.6666666666667</ele><time>2026-04-18T08:38:58.958Z</time></trkpt><trkpt lat="43.9251242" lon="7.6242018"><ele>691.3333333333334</ele><time>2026-04-18T08:38:59.959Z</time></trkpt><trkpt lat="43.9250722" lon="7.6243082"><ele>690.0</ele><time>2026-04-18T08:39:00.959Z</time></trkpt><trkpt lat="43.9250051" lon="7.624407"><ele>688.6666666666666</ele><time>2026-04-18T08:39:01.959Z</time></trkpt><trkpt lat="43.9249396" lon="7.6244888"><ele>687.3333333333333</ele><time>2026-04-18T08:39:02.959Z</time></trkpt><trkpt lat="43.9248755" lon="7.6245355"><ele>686.0</ele><time>2026-04-18T08:39:03.959Z</time></trkpt><trkpt lat="43.9247936" lon="7.6245686"><ele>686.0</ele><time>2026-04-18T08:39:04.959Z</time></trkpt><trkpt lat="43.9247246" lon="7.6245457"><ele>686.0</ele><time>2026-04-18T08:39:05.959Z</time></trkpt><trkpt lat="43.9246557" lon="7.624488"><ele>686.0</ele><time>2026-04-18T08:39:06.958Z</time></trkpt><trkpt lat="43.924594" lon="7.6244581"><ele>686.0</ele><time>2026-04-18T08:39:07.959Z</time></trkpt><trkpt lat="43.9244758" lon="7.6245189"><ele>686.0</ele><time>2026-04-18T08:39:09.959Z</time></trkpt><trkpt lat="43.9244524" lon="7.6247388"><ele>686.0</ele><time>2026-04-18T08:39:11.959Z</time></trkpt><trkpt lat="43.9244752" lon="7.6248966"><ele>686.0</ele><time>2026-04-18T08:39:12.959Z</time></trkpt><trkpt lat="43.9244909" lon="7.6250069"><ele>686.0</ele><time>2026-04-18T08:39:13.959Z</time></trkpt><trkpt lat="43.9245098" lon="7.6251042"><ele>686.0</ele><time>2026-04-18T08:39:14.959Z</time></trkpt><trkpt lat="43.9244716" lon="7.6251907"><ele>686.0</ele><time>2026-04-18T08:39:15.958Z</time></trkpt><trkpt lat="43.9244138" lon="7.625267"><ele>686.0</ele><time>2026-04-18T08:39:16.959Z</time></trkpt><trkpt lat="43.9243418" lon="7.6253327"><ele>684.5</ele><time>2026-04-18T08:39:17.959Z</time></trkpt><trkpt lat="43.9242728" lon="7.6254049"><ele>683.0</ele><time>2026-04-18T08:39:18.959Z</time></trkpt><trkpt lat="43.9242033" lon="7.6254228"><ele>681.5</ele><time>2026-04-18T08:39:19.959Z</time></trkpt><trkpt lat="43.9241234" lon="7.6254309"><ele>680.0</ele><time>2026-04-18T08:39:20.959Z</time></trkpt><trkpt lat="43.9240432" lon="7.6254239"><ele>678.5</ele><time>2026-04-18T08:39:21.959Z</time></trkpt><trkpt lat="43.9239643" lon="7.6254177"><ele>677.0</ele><time>2026-04-18T08:39:22.959Z</time></trkpt><trkpt lat="43.9238482" lon="7.6254383"><ele>677.0</ele><time>2026-04-18T08:39:24.959Z</time></trkpt><trkpt lat="43.9238138" lon="7.6255837"><ele>677.0</ele><time>2026-04-18T08:39:26.959Z</time></trkpt><trkpt lat="43.9238646" lon="7.6256425"><ele>677.0</ele><time>2026-04-18T08:39:27.959Z</time></trkpt><trkpt lat="43.9239518" lon="7.6256567"><ele>677.0</ele><time>2026-04-18T08:39:28.959Z</time></trkpt><trkpt lat="43.9240484" lon="7.6256402"><ele>677.0</ele><time>2026-04-18T08:39:29.958Z</time></trkpt><trkpt lat="43.9241437" lon="7.6256197"><ele>673.4000000000001</ele><time>2026-04-18T08:39:30.959Z</time></trkpt><trkpt lat="43.9242375" lon="7.6256106"><ele>669.8000000000001</ele><time>2026-04-18T08:39:31.959Z</time></trkpt><trkpt lat="43.9243383" lon="7.625574"><ele>666.2</ele><time>2026-04-18T08:39:32.959Z</time></trkpt><trkpt lat="43.9244434" lon="7.6255061"><ele>662.6</ele><time>2026-04-18T08:39:33.959Z</time></trkpt><trkpt lat="43.9245304" lon="7.6254402"><ele>659.0</ele><time>2026-04-18T08:39:34.959Z</time></trkpt><trkpt lat="43.924617" lon="7.6254075"><ele>659.0</ele><time>2026-04-18T08:39:35.959Z</time></trkpt><trkpt lat="43.9246997" lon="7.625333"><ele>659.0</ele><time>2026-04-18T08:39:36.959Z</time></trkpt><trkpt lat="43.9247802" lon="7.6252665"><ele>659.0</ele><time>2026-04-18T08:39:37.959Z</time></trkpt><trkpt lat="43.9248555" lon="7.6252186"><ele>659.0</ele><time>2026-04-18T08:39:38.958Z</time></trkpt><trkpt lat="43.9249271" lon="7.6251662"><ele>659.0</ele><time>2026-04-18T08:39:39.959Z</time></trkpt><trkpt lat="43.9250003" lon="7.6251212"><ele>659.0</ele><time>2026-04-18T08:39:40.959Z</time></trkpt><trkpt lat="43.9250862" lon="7.6250847"><ele>656.0</ele><time>2026-04-18T08:39:41.959Z</time></trkpt><trkpt lat="43.9251579" lon="7.6251488"><ele>653.0</ele><time>2026-04-18T08:39:42.959Z</time></trkpt><trkpt lat="43.9252799" lon="7.6250954"><ele>650.0</ele><time>2026-04-18T08:39:44.959Z</time></trkpt><trkpt lat="43.9253249" lon="7.6249756"><ele>647.0</ele><time>2026-04-18T08:39:45.959Z</time></trkpt><trkpt lat="43.9253747" lon="7.6248622"><ele>644.0</ele><time>2026-04-18T08:39:46.959Z</time></trkpt><trkpt lat="43.9254322" lon="7.6247467"><ele>644.0</ele><time>2026-04-18T08:39:47.958Z</time></trkpt><trkpt lat="43.9255058" lon="7.6246263"><ele>644.0</ele><time>2026-04-18T08:39:48.959Z</time></trkpt><trkpt lat="43.925578" lon="7.6245023"><ele>644.0</ele><time>2026-04-18T08:39:49.958Z</time></trkpt><trkpt lat="43.9256566" lon="7.624383"><ele>644.0</ele><time>2026-04-18T08:39:50.959Z</time></trkpt><trkpt lat="43.9257324" lon="7.6242615"><ele>644.4000000000001</ele><time>2026-04-18T08:39:51.959Z</time></trkpt><trkpt lat="43.9258131" lon="7.6241377"><ele>644.8</ele><time>2026-04-18T08:39:52.959Z</time></trkpt><trkpt lat="43.925888" lon="7.6240336"><ele>645.2</ele><time>2026-04-18T08:39:53.959Z</time></trkpt><trkpt lat="43.9259637" lon="7.623939"><ele>645.5999999999999</ele><time>2026-04-18T08:39:54.959Z</time></trkpt><trkpt lat="43.9260331" lon="7.6238411"><ele>646.0</ele><time>2026-04-18T08:39:55.959Z</time></trkpt><trkpt lat="43.9260984" lon="7.62375"><ele>646.0</ele><time>2026-04-18T08:39:56.959Z</time></trkpt><trkpt lat="43.9261623" lon="7.6236699"><ele>646.0</ele><time>2026-04-18T08:39:57.959Z</time></trkpt><trkpt lat="43.9262297" lon="7.6235956"><ele>646.0</ele><time>2026-04-18T08:39:58.958Z</time></trkpt><trkpt lat="43.9263025" lon="7.623597"><ele>646.0</ele><time>2026-04-18T08:39:59.959Z</time></trkpt><trkpt lat="43.9263985" lon="7.6236468"><ele>646.0</ele><time>2026-04-18T08:40:00.959Z</time></trkpt><trkpt lat="43.9265051" lon="7.6237056"><ele>646.0</ele><time>2026-04-18T08:40:01.959Z</time></trkpt><trkpt lat="43.9266237" lon="7.6237576"><ele>646.0</ele><time>2026-04-18T08:40:02.959Z</time></trkpt><trkpt lat="43.9267296" lon="7.6238246"><ele>646.0</ele><time>2026-04-18T08:40:03.959Z</time></trkpt><trkpt lat="43.9268292" lon="7.6238879"><ele>646.0</ele><time>2026-04-18T08:40:04.959Z</time></trkpt><trkpt lat="43.9269377" lon="7.6239462"><ele>645.4</ele><time>2026-04-18T08:40:05.959Z</time></trkpt><trkpt lat="43.9270409" lon="7.6240023"><ele>644.8</ele><time>2026-04-18T08:40:06.959Z</time></trkpt><trkpt lat="43.9271248" lon="7.6240596"><ele>644.1999999999999</ele><time>2026-04-18T08:40:07.959Z</time></trkpt><trkpt lat="43.927248" lon="7.6241042"><ele>643.5999999999999</ele><time>2026-04-18T08:40:08.959Z</time></trkpt><trkpt lat="43.9273444" lon="7.6241136"><ele>643.0</ele><time>2026-04-18T08:40:09.959Z</time></trkpt><trkpt lat="43.92745" lon="7.6241368"><ele>643.0</ele><time>2026-04-18T08:40:10.959Z</time></trkpt><trkpt lat="43.9275442" lon="7.6241304"><ele>643.0</ele><time>2026-04-18T08:40:11.959Z</time></trkpt><trkpt lat="43.9276328" lon="7.6240954"><ele>643.0</ele><time>2026-04-18T08:40:12.959Z</time></trkpt><trkpt lat="43.9277003" lon="7.6240415"><ele>643.0</ele><time>2026-04-18T08:40:13.959Z</time></trkpt><trkpt lat="43.9277707" lon="7.6239622"><ele>643.0</ele><time>2026-04-18T08:40:14.959Z</time></trkpt><trkpt lat="43.9278199" lon="7.6238775"><ele>643.0</ele><time>2026-04-18T08:40:15.959Z</time></trkpt><trkpt lat="43.9278741" lon="7.6237841"><ele>637.8333333333334</ele><time>2026-04-18T08:40:17.959Z</time></trkpt><trkpt lat="43.9279384" lon="7.6237691"><ele>632.6666666666667</ele><time>2026-04-18T08:40:18.959Z</time></trkpt><trkpt lat="43.9279627" lon="7.6239186"><ele>627.5</ele><time>2026-04-18T08:40:20.959Z</time></trkpt><trkpt lat="43.9279073" lon="7.6240089"><ele>622.3333333333334</ele><time>2026-04-18T08:40:21.959Z</time></trkpt><trkpt lat="43.9278425" lon="7.6240915"><ele>617.1666666666666</ele><time>2026-04-18T08:40:22.958Z</time></trkpt><trkpt lat="43.9277864" lon="7.624171"><ele>612.0</ele><time>2026-04-18T08:40:23.959Z</time></trkpt><trkpt lat="43.9277344" lon="7.6242647"><ele>612.0</ele><time>2026-04-18T08:40:24.958Z</time></trkpt><trkpt lat="43.9276592" lon="7.6243455"><ele>612.0</ele><time>2026-04-18T08:40:25.958Z</time></trkpt><trkpt lat="43.9275732" lon="7.624409"><ele>612.0</ele><time>2026-04-18T08:40:26.959Z</time></trkpt><trkpt lat="43.9274727" lon="7.6244841"><ele>612.0</ele><time>2026-04-18T08:40:27.959Z</time></trkpt><trkpt lat="43.9273697" lon="7.6245597"><ele>612.0</ele><time>2026-04-18T08:40:28.959Z</time></trkpt><trkpt lat="43.9272715" lon="7.6246149"><ele>612.8000000000001</ele><time>2026-04-18T08:40:29.959Z</time></trkpt><trkpt lat="43.9271776" lon="7.6246715"><ele>613.6</ele><time>2026-04-18T08:40:30.959Z</time></trkpt><trkpt lat="43.9270737" lon="7.6247002"><ele>614.4000000000001</ele><time>2026-04-18T08:40:31.959Z</time></trkpt><trkpt lat="43.9269581" lon="7.6247137"><ele>615.2</ele><time>2026-04-18T08:40:32.959Z</time></trkpt><trkpt lat="43.9268406" lon="7.6247151"><ele>616.0</ele><time>2026-04-18T08:40:33.959Z</time></trkpt><trkpt lat="43.926731" lon="7.6247212"><ele>616.6</ele><time>2026-04-18T08:40:34.959Z</time></trkpt><trkpt lat="43.9266268" lon="7.6247372"><ele>617.2</ele><time>2026-04-18T08:40:35.959Z</time></trkpt><trkpt lat="43.9265198" lon="7.6247472"><ele>617.8</ele><time>2026-04-18T08:40:36.959Z</time></trkpt><trkpt lat="43.9264201" lon="7.6247638"><ele>618.4</ele><time>2026-04-18T08:40:37.959Z</time></trkpt><trkpt lat="43.9263365" lon="7.6247723"><ele>619.0</ele><time>2026-04-18T08:40:38.959Z</time></trkpt><trkpt lat="43.9262672" lon="7.6247822"><ele>619.0</ele><time>2026-04-18T08:40:39.959Z</time></trkpt><trkpt lat="43.9261669" lon="7.6248975"><ele>619.0</ele><time>2026-04-18T08:40:41.959Z</time></trkpt><trkpt lat="43.9261338" lon="7.6250107"><ele>619.0</ele><time>2026-04-18T08:40:42.959Z</time></trkpt><trkpt lat="43.9260927" lon="7.6251453"><ele>619.0</ele><time>2026-04-18T08:40:43.959Z</time></trkpt><trkpt lat="43.9260611" lon="7.6252647"><ele>619.0</ele><time>2026-04-18T08:40:44.959Z</time></trkpt><trkpt lat="43.9260276" lon="7.6253996"><ele>615.2</ele><time>2026-04-18T08:40:45.959Z</time></trkpt><trkpt lat="43.92602" lon="7.6255296"><ele>611.4</ele><time>2026-04-18T08:40:46.959Z</time></trkpt><trkpt lat="43.9260242" lon="7.6256549"><ele>607.6</ele><time>2026-04-18T08:40:47.959Z</time></trkpt><trkpt lat="43.926019" lon="7.6257893"><ele>603.8</ele><time>2026-04-18T08:40:48.958Z</time></trkpt><trkpt lat="43.9260178" lon="7.625914"><ele>600.0</ele><time>2026-04-18T08:40:49.959Z</time></trkpt><trkpt lat="43.9260403" lon="7.6260546"><ele>598.4</ele><time>2026-04-18T08:40:50.959Z</time></trkpt><trkpt lat="43.9260637" lon="7.6261913"><ele>596.8</ele><time>2026-04-18T08:40:51.959Z</time></trkpt><trkpt lat="43.9261122" lon="7.6263115"><ele>595.2</ele><time>2026-04-18T08:40:52.959Z</time></trkpt><trkpt lat="43.926171" lon="7.6264193"><ele>593.6</ele><time>2026-04-18T08:40:53.959Z</time></trkpt><trkpt lat="43.9262127" lon="7.6265259"><ele>592.0</ele><time>2026-04-18T08:40:54.959Z</time></trkpt><trkpt lat="43.9262387" lon="7.6266238"><ele>592.0</ele><time>2026-04-18T08:40:55.959Z</time></trkpt><trkpt lat="43.9261898" lon="7.6267266"><ele>592.0</ele><time>2026-04-18T08:40:56.959Z</time></trkpt><trkpt lat="43.9261355" lon="7.6268173"><ele>592.0</ele><time>2026-04-18T08:40:57.959Z</time></trkpt><trkpt lat="43.9260584" lon="7.6269098"><ele>592.0</ele><time>2026-04-18T08:40:58.959Z</time></trkpt><trkpt lat="43.9259747" lon="7.6269969"><ele>592.0</ele><time>2026-04-18T08:40:59.959Z</time></trkpt><trkpt lat="43.9258871" lon="7.6270593"><ele>594.5</ele><time>2026-04-18T08:41:00.959Z</time></trkpt><trkpt lat="43.9258029" lon="7.6270752"><ele>597.0</ele><time>2026-04-18T08:41:01.959Z</time></trkpt><trkpt lat="43.9257259" lon="7.627058"><ele>599.5</ele><time>2026-04-18T08:41:02.959Z</time></trkpt><trkpt lat="43.9256505" lon="7.6269874"><ele>602.0</ele><time>2026-04-18T08:41:03.959Z</time></trkpt><trkpt lat="43.9255802" lon="7.6269152"><ele>604.5</ele><time>2026-04-18T08:41:04.959Z</time></trkpt><trkpt lat="43.9255074" lon="7.6268737"><ele>607.0</ele><time>2026-04-18T08:41:05.959Z</time></trkpt><trkpt lat="43.9254331" lon="7.62686"><ele>607.0</ele><time>2026-04-18T08:41:06.959Z</time></trkpt><trkpt lat="43.9253531" lon="7.6269433"><ele>607.0</ele><time>2026-04-18T08:41:07.959Z</time></trkpt><trkpt lat="43.9252865" lon="7.6270528"><ele>607.0</ele><time>2026-04-18T08:41:08.959Z</time></trkpt><trkpt lat="43.9252197" lon="7.6271867"><ele>607.0</ele><time>2026-04-18T08:41:09.959Z</time></trkpt><trkpt lat="43.9251514" lon="7.6273092"><ele>607.0</ele><time>2026-04-18T08:41:10.959Z</time></trkpt><trkpt lat="43.9251003" lon="7.6274411"><ele>607.6666666666667</ele><time>2026-04-18T08:41:11.959Z</time></trkpt><trkpt lat="43.9250498" lon="7.6275391"><ele>608.3333333333334</ele><time>2026-04-18T08:41:12.959Z</time></trkpt><trkpt lat="43.9250072" lon="7.627614"><ele>609.0</ele><time>2026-04-18T08:41:13.959Z</time></trkpt><trkpt lat="43.9249375" lon="7.6276732"><ele>609.6666666666666</ele><time>2026-04-18T08:41:14.959Z</time></trkpt><trkpt lat="43.9248525" lon="7.627713"><ele>610.3333333333333</ele><time>2026-04-18T08:41:15.959Z</time></trkpt><trkpt lat="43.924768" lon="7.6277244"><ele>611.0</ele><time>2026-04-18T08:41:16.959Z</time></trkpt><trkpt lat="43.9246973" lon="7.6277301"><ele>611.0</ele><time>2026-04-18T08:41:17.959Z</time></trkpt><trkpt lat="43.924631" lon="7.6277689"><ele>611.0</ele><time>2026-04-18T08:41:18.959Z</time></trkpt><trkpt lat="43.9245958" lon="7.6278632"><ele>611.0</ele><time>2026-04-18T08:41:19.959Z</time></trkpt><trkpt lat="43.9245783" lon="7.6279955"><ele>611.0</ele><time>2026-04-18T08:41:20.959Z</time></trkpt><trkpt lat="43.9245795" lon="7.6281468"><ele>611.0</ele><time>2026-04-18T08:41:21.959Z</time></trkpt><trkpt lat="43.9245769" lon="7.6283005"><ele>605.8</ele><time>2026-04-18T08:41:22.959Z</time></trkpt><trkpt lat="43.924567" lon="7.628452"><ele>600.6</ele><time>2026-04-18T08:41:23.959Z</time></trkpt><trkpt lat="43.9245685" lon="7.6285845"><ele>595.4</ele><time>2026-04-18T08:41:24.959Z</time></trkpt><trkpt lat="43.9245624" lon="7.6287007"><ele>590.2</ele><time>2026-04-18T08:41:25.959Z</time></trkpt><trkpt lat="43.9245504" lon="7.6288051"><ele>585.0</ele><time>2026-04-18T08:41:26.959Z</time></trkpt><trkpt lat="43.9244656" lon="7.6288775"><ele>584.8</ele><time>2026-04-18T08:41:27.959Z</time></trkpt><trkpt lat="43.9243798" lon="7.6289526"><ele>584.6</ele><time>2026-04-18T08:41:28.959Z</time></trkpt><trkpt lat="43.9242967" lon="7.6290292"><ele>584.4</ele><time>2026-04-18T08:41:29.959Z</time></trkpt><trkpt lat="43.924202" lon="7.6291148"><ele>584.2</ele><time>2026-04-18T08:41:30.959Z</time></trkpt><trkpt lat="43.9241082" lon="7.6291962"><ele>584.0</ele><time>2026-04-18T08:41:31.959Z</time></trkpt><trkpt lat="43.9240088" lon="7.6292647"><ele>584.0</ele><time>2026-04-18T08:41:32.959Z</time></trkpt><trkpt lat="43.9239167" lon="7.629316"><ele>584.0</ele><time>2026-04-18T08:41:33.959Z</time></trkpt><trkpt lat="43.9238433" lon="7.6293413"><ele>584.0</ele><time>2026-04-18T08:41:34.959Z</time></trkpt><trkpt lat="43.9237861" lon="7.6294028"><ele>584.0</ele><time>2026-04-18T08:41:35.959Z</time></trkpt><trkpt lat="43.9237377" lon="7.6294955"><ele>584.0</ele><time>2026-04-18T08:41:36.959Z</time></trkpt><trkpt lat="43.9236936" lon="7.6295955"><ele>584.0</ele><time>2026-04-18T08:41:37.959Z</time></trkpt><trkpt lat="43.9238099" lon="7.629705"><ele>579.8</ele><time>2026-04-18T08:41:38.959Z</time></trkpt><trkpt lat="43.923881" lon="7.6298248"><ele>575.5999999999999</ele><time>2026-04-18T08:41:39.959Z</time></trkpt><trkpt lat="43.9239285" lon="7.629958"><ele>571.4</ele><time>2026-04-18T08:41:40.959Z</time></trkpt><trkpt lat="43.9239537" lon="7.6300955"><ele>567.1999999999999</ele><time>2026-04-18T08:41:41.959Z</time></trkpt><trkpt lat="43.9239849" lon="7.6302209"><ele>563.0</ele><time>2026-04-18T08:41:42.959Z</time></trkpt><trkpt lat="43.924013" lon="7.6303232"><ele>561.1666666666666</ele><time>2026-04-18T08:41:43.959Z</time></trkpt><trkpt lat="43.9240211" lon="7.6304216"><ele>559.3333333333333</ele><time>2026-04-18T08:41:44.959Z</time></trkpt><trkpt lat="43.9240063" lon="7.6305182"><ele>557.5</ele><time>2026-04-18T08:41:45.959Z</time></trkpt><trkpt lat="43.9239554" lon="7.6306009"><ele>555.6666666666666</ele><time>2026-04-18T08:41:46.959Z</time></trkpt><trkpt lat="43.9239009" lon="7.6306716"><ele>553.8333333333334</ele><time>2026-04-18T08:41:47.958Z</time></trkpt><trkpt lat="43.9238432" lon="7.6307512"><ele>552.0</ele><time>2026-04-18T08:41:48.959Z</time></trkpt><trkpt lat="43.9237858" lon="7.6309"><ele>552.0</ele><time>2026-04-18T08:41:49.959Z</time></trkpt><trkpt lat="43.923735" lon="7.6310597"><ele>552.0</ele><time>2026-04-18T08:41:50.959Z</time></trkpt><trkpt lat="43.9236861" lon="7.631221"><ele>552.0</ele><time>2026-04-18T08:41:51.959Z</time></trkpt><trkpt lat="43.923639" lon="7.6313907"><ele>552.0</ele><time>2026-04-18T08:41:52.959Z</time></trkpt><trkpt lat="43.923594" lon="7.6315469"><ele>548.75</ele><time>2026-04-18T08:41:53.959Z</time></trkpt><trkpt lat="43.923549" lon="7.6317058"><ele>545.5</ele><time>2026-04-18T08:41:54.959Z</time></trkpt><trkpt lat="43.9235026" lon="7.6318627"><ele>542.25</ele><time>2026-04-18T08:41:55.959Z</time></trkpt><trkpt lat="43.9234556" lon="7.6320139"><ele>539.0</ele><time>2026-04-18T08:41:56.959Z</time></trkpt><trkpt lat="43.9234078" lon="7.6321587"><ele>544.0</ele><time>2026-04-18T08:41:57.959Z</time></trkpt><trkpt lat="43.9233533" lon="7.632306"><ele>549.0</ele><time>2026-04-18T08:41:58.959Z</time></trkpt><trkpt lat="43.9233021" lon="7.6324483"><ele>554.0</ele><time>2026-04-18T08:41:59.959Z</time></trkpt><trkpt lat="43.9232218" lon="7.6325707"><ele>559.0</ele><time>2026-04-18T08:42:00.959Z</time></trkpt><trkpt lat="43.9231477" lon="7.6327106"><ele>554.5</ele><time>2026-04-18T08:42:01.959Z</time></trkpt><trkpt lat="43.9230772" lon="7.6328634"><ele>550.0</ele><time>2026-04-18T08:42:02.959Z</time></trkpt><trkpt lat="43.9230134" lon="7.6330099"><ele>545.5</ele><time>2026-04-18T08:42:03.958Z</time></trkpt><trkpt lat="43.9229505" lon="7.6331495"><ele>541.0</ele><time>2026-04-18T08:42:04.959Z</time></trkpt><trkpt lat="43.9229012" lon="7.6332858"><ele>541.0</ele><time>2026-04-18T08:42:05.959Z</time></trkpt><trkpt lat="43.9228531" lon="7.6334092"><ele>541.0</ele><time>2026-04-18T08:42:06.959Z</time></trkpt><trkpt lat="43.9228236" lon="7.6335294"><ele>541.0</ele><time>2026-04-18T08:42:07.959Z</time></trkpt><trkpt lat="43.922817" lon="7.6336625"><ele>541.0</ele><time>2026-04-18T08:42:08.959Z</time></trkpt><trkpt lat="43.9228118" lon="7.6338174"><ele>541.0</ele><time>2026-04-18T08:42:09.959Z</time></trkpt><trkpt lat="43.9228325" lon="7.633961"><ele>537.0</ele><time>2026-04-18T08:42:10.959Z</time></trkpt><trkpt lat="43.922839" lon="7.6341026"><ele>533.0</ele><time>2026-04-18T08:42:11.959Z</time></trkpt><trkpt lat="43.9228182" lon="7.6342343"><ele>529.0</ele><time>2026-04-18T08:42:12.958Z</time></trkpt><trkpt lat="43.9227883" lon="7.6343548"><ele>525.0</ele><time>2026-04-18T08:42:13.958Z</time></trkpt><trkpt lat="43.9227415" lon="7.6344516"><ele>521.0</ele><time>2026-04-18T08:42:14.959Z</time></trkpt><trkpt lat="43.9226914" lon="7.6345501"><ele>517.5</ele><time>2026-04-18T08:42:15.959Z</time></trkpt><trkpt lat="43.9226544" lon="7.6346612"><ele>514.0</ele><time>2026-04-18T08:42:16.959Z</time></trkpt><trkpt lat="43.9226559" lon="7.6347889"><ele>510.5</ele><time>2026-04-18T08:42:17.959Z</time></trkpt><trkpt lat="43.9226565" lon="7.6349233"><ele>507.0</ele><time>2026-04-18T08:42:18.959Z</time></trkpt><trkpt lat="43.9226864" lon="7.6350344"><ele>503.49999999999994</ele><time>2026-04-18T08:42:19.959Z</time></trkpt><trkpt lat="43.9226867" lon="7.6351465"><ele>500.0</ele><time>2026-04-18T08:42:20.959Z</time></trkpt><trkpt lat="43.9226532" lon="7.6352463"><ele>496.2</ele><time>2026-04-18T08:42:21.959Z</time></trkpt><trkpt lat="43.9226123" lon="7.6353345"><ele>492.4</ele><time>2026-04-18T08:42:22.959Z</time></trkpt><trkpt lat="43.9225325" lon="7.6354225"><ele>488.6</ele><time>2026-04-18T08:42:23.959Z</time></trkpt><trkpt lat="43.922449" lon="7.6355142"><ele>484.8</ele><time>2026-04-18T08:42:24.959Z</time></trkpt><trkpt lat="43.922356" lon="7.6356071"><ele>481.0</ele><time>2026-04-18T08:42:25.959Z</time></trkpt><trkpt lat="43.9222592" lon="7.6356946"><ele>492.5</ele><time>2026-04-18T08:42:26.959Z</time></trkpt><trkpt lat="43.922167" lon="7.6357945"><ele>504.0</ele><time>2026-04-18T08:42:27.959Z</time></trkpt><trkpt lat="43.9220773" lon="7.6358913"><ele>515.5</ele><time>2026-04-18T08:42:28.959Z</time></trkpt><trkpt lat="43.921977" lon="7.6359784"><ele>527.0</ele><time>2026-04-18T08:42:29.959Z</time></trkpt><trkpt lat="43.921864" lon="7.6360803"><ele>523.75</ele><time>2026-04-18T08:42:30.959Z</time></trkpt><trkpt lat="43.9217395" lon="7.6361734"><ele>520.5</ele><time>2026-04-18T08:42:31.958Z</time></trkpt><trkpt lat="43.9216224" lon="7.6362577"><ele>517.25</ele><time>2026-04-18T08:42:32.959Z</time></trkpt><trkpt lat="43.9215121" lon="7.6363444"><ele>514.0</ele><time>2026-04-18T08:42:33.959Z</time></trkpt><trkpt lat="43.9214008" lon="7.6364097"><ele>514.0</ele><time>2026-04-18T08:42:34.959Z</time></trkpt><trkpt lat="43.9212902" lon="7.6364702"><ele>514.0</ele><time>2026-04-18T08:42:35.959Z</time></trkpt><trkpt lat="43.9211756" lon="7.6365054"><ele>514.0</ele><time>2026-04-18T08:42:36.959Z</time></trkpt><trkpt lat="43.9210519" lon="7.6365652"><ele>514.0</ele><time>2026-04-18T08:42:37.958Z</time></trkpt><trkpt lat="43.9209454" lon="7.6366068"><ele>515.4</ele><time>2026-04-18T08:42:38.959Z</time></trkpt><trkpt lat="43.9208539" lon="7.6366462"><ele>516.8</ele><time>2026-04-18T08:42:39.959Z</time></trkpt><trkpt lat="43.9207614" lon="7.6366505"><ele>518.2</ele><time>2026-04-18T08:42:40.959Z</time></trkpt><trkpt lat="43.9206692" lon="7.6366328"><ele>519.6</ele><time>2026-04-18T08:42:41.959Z</time></trkpt><trkpt lat="43.9205932" lon="7.6365632"><ele>521.0</ele><time>2026-04-18T08:42:42.959Z</time></trkpt><trkpt lat="43.9205194" lon="7.6365196"><ele>521.0</ele><time>2026-04-18T08:42:43.959Z</time></trkpt><trkpt lat="43.9204453" lon="7.6365207"><ele>521.0</ele><time>2026-04-18T08:42:44.959Z</time></trkpt><trkpt lat="43.9203861" lon="7.6365573"><ele>521.0</ele><time>2026-04-18T08:42:45.959Z</time></trkpt><trkpt lat="43.9203278" lon="7.6366473"><ele>521.0</ele><time>2026-04-18T08:42:46.959Z</time></trkpt><trkpt lat="43.9203486" lon="7.6368006"><ele>521.0</ele><time>2026-04-18T08:42:47.959Z</time></trkpt><trkpt lat="43.9203846" lon="7.6369341"><ele>521.0</ele><time>2026-04-18T08:42:48.959Z</time></trkpt><trkpt lat="43.920425" lon="7.6370725"><ele>517.0</ele><time>2026-04-18T08:42:49.959Z</time></trkpt><trkpt lat="43.9204671" lon="7.6372083"><ele>513.0</ele><time>2026-04-18T08:42:50.959Z</time></trkpt><trkpt lat="43.9205176" lon="7.637331"><ele>509.0</ele><time>2026-04-18T08:42:51.959Z</time></trkpt><trkpt lat="43.9205758" lon="7.6374469"><ele>505.0</ele><time>2026-04-18T08:42:52.959Z</time></trkpt><trkpt lat="43.920615" lon="7.6375716"><ele>501.0</ele><time>2026-04-18T08:42:53.959Z</time></trkpt><trkpt lat="43.9206286" lon="7.6377204"><ele>498.0</ele><time>2026-04-18T08:42:54.959Z</time></trkpt><trkpt lat="43.9206508" lon="7.6378823"><ele>495.0</ele><time>2026-04-18T08:42:55.959Z</time></trkpt><trkpt lat="43.9206799" lon="7.6380301"><ele>492.0</ele><time>2026-04-18T08:42:56.959Z</time></trkpt><trkpt lat="43.9207079" lon="7.6381801"><ele>489.0</ele><time>2026-04-18T08:42:57.958Z</time></trkpt><trkpt lat="43.9207256" lon="7.6383343"><ele>489.0</ele><time>2026-04-18T08:42:58.959Z</time></trkpt><trkpt lat="43.9207467" lon="7.6384839"><ele>489.0</ele><time>2026-04-18T08:42:59.959Z</time></trkpt><trkpt lat="43.9207722" lon="7.6385975"><ele>489.0</ele><time>2026-04-18T08:43:00.959Z</time></trkpt><trkpt lat="43.9208383" lon="7.6387042"><ele>489.0</ele><time>2026-04-18T08:43:01.959Z</time></trkpt><trkpt lat="43.920908" lon="7.638818"><ele>489.0</ele><time>2026-04-18T08:43:02.959Z</time></trkpt><trkpt lat="43.9209771" lon="7.6389047"><ele>483.4</ele><time>2026-04-18T08:43:03.959Z</time></trkpt><trkpt lat="43.9210351" lon="7.6390055"><ele>477.79999999999995</ele><time>2026-04-18T08:43:04.959Z</time></trkpt><trkpt lat="43.921071" lon="7.6391379"><ele>472.20000000000005</ele><time>2026-04-18T08:43:05.959Z</time></trkpt><trkpt lat="43.9211" lon="7.6392594"><ele>466.6</ele><time>2026-04-18T08:43:06.959Z</time></trkpt><trkpt lat="43.9211287" lon="7.6393704"><ele>461.0</ele><time>2026-04-18T08:43:07.959Z</time></trkpt><trkpt lat="43.9211434" lon="7.639479"><ele>460.99999999999994</ele><time>2026-04-18T08:43:08.959Z</time></trkpt><trkpt lat="43.9211065" lon="7.6395662"><ele>461.0</ele><time>2026-04-18T08:43:09.958Z</time></trkpt><trkpt lat="43.9210533" lon="7.6396272"><ele>461.0</ele><time>2026-04-18T08:43:10.959Z</time></trkpt><trkpt lat="43.9209862" lon="7.6396586"><ele>461.0</ele><time>2026-04-18T08:43:11.959Z</time></trkpt><trkpt lat="43.9208994" lon="7.6396735"><ele>460.99999999999994</ele><time>2026-04-18T08:43:12.959Z</time></trkpt><trkpt lat="43.9208045" lon="7.6396808"><ele>461.0</ele><time>2026-04-18T08:43:13.959Z</time></trkpt><trkpt lat="43.9207059" lon="7.6396671"><ele>464.4</ele><time>2026-04-18T08:43:14.959Z</time></trkpt><trkpt lat="43.920603" lon="7.6396226"><ele>467.8</ele><time>2026-04-18T08:43:15.959Z</time></trkpt><trkpt lat="43.9205035" lon="7.6395607"><ele>471.19999999999993</ele><time>2026-04-18T08:43:16.959Z</time></trkpt><trkpt lat="43.9204146" lon="7.6395043"><ele>474.59999999999997</ele><time>2026-04-18T08:43:17.959Z</time></trkpt><trkpt lat="43.9203437" lon="7.6394536"><ele>478.0</ele><time>2026-04-18T08:43:18.959Z</time></trkpt><trkpt lat="43.9202802" lon="7.6394409"><ele>478.0</ele><time>2026-04-18T08:43:19.959Z</time></trkpt><trkpt lat="43.9201833" lon="7.6395372"><ele>477.99999999999994</ele><time>2026-04-18T08:43:21.959Z</time></trkpt><trkpt lat="43.9201815" lon="7.6396267"><ele>477.99999999999994</ele><time>2026-04-18T08:43:22.959Z</time></trkpt><trkpt lat="43.9202683" lon="7.6397294"><ele>478.0</ele><time>2026-04-18T08:43:24.959Z</time></trkpt><trkpt lat="43.9203472" lon="7.639723"><ele>478.0</ele><time>2026-04-18T08:43:25.959Z</time></trkpt><trkpt lat="43.9204373" lon="7.6397404"><ele>478.0</ele><time>2026-04-18T08:43:26.959Z</time></trkpt><trkpt lat="43.9205223" lon="7.639793"><ele>477.99999999999994</ele><time>2026-04-18T08:43:27.959Z</time></trkpt><trkpt lat="43.9206067" lon="7.639872"><ele>477.99999999999994</ele><time>2026-04-18T08:43:28.959Z</time></trkpt><trkpt lat="43.9206899" lon="7.6399466"><ele>478.0</ele><time>2026-04-18T08:43:29.959Z</time></trkpt><trkpt lat="43.9207879" lon="7.6400082"><ele>478.0</ele><time>2026-04-18T08:43:30.959Z</time></trkpt><trkpt lat="43.9208923" lon="7.6400605"><ele>473.75</ele><time>2026-04-18T08:43:31.959Z</time></trkpt><trkpt lat="43.9210027" lon="7.6401022"><ele>469.5</ele><time>2026-04-18T08:43:32.959Z</time></trkpt><trkpt lat="43.921121" lon="7.640142"><ele>465.25</ele><time>2026-04-18T08:43:33.958Z</time></trkpt><trkpt lat="43.9212318" lon="7.6401727"><ele>461.0</ele><time>2026-04-18T08:43:34.959Z</time></trkpt><trkpt lat="43.9213355" lon="7.64018"><ele>460.99999999999994</ele><time>2026-04-18T08:43:35.959Z</time></trkpt><trkpt lat="43.9214263" lon="7.6401699"><ele>461.0</ele><time>2026-04-18T08:43:36.959Z</time></trkpt><trkpt lat="43.9215023" lon="7.6401523"><ele>461.0</ele><time>2026-04-18T08:43:37.959Z</time></trkpt><trkpt lat="43.9215671" lon="7.6401445"><ele>461.0</ele><time>2026-04-18T08:43:38.959Z</time></trkpt><trkpt lat="43.9216642" lon="7.6402213"><ele>460.99999999999994</ele><time>2026-04-18T08:43:40.959Z</time></trkpt><trkpt lat="43.9216071" lon="7.6403155"><ele>461.0</ele><time>2026-04-18T08:43:42.959Z</time></trkpt><trkpt lat="43.9215259" lon="7.6403409"><ele>460.6</ele><time>2026-04-18T08:43:43.959Z</time></trkpt><trkpt lat="43.9214355" lon="7.6403319"><ele>460.20000000000005</ele><time>2026-04-18T08:43:44.958Z</time></trkpt><trkpt lat="43.9213353" lon="7.6403264"><ele>459.79999999999995</ele><time>2026-04-18T08:43:45.959Z</time></trkpt><trkpt lat="43.9212261" lon="7.6403432"><ele>459.4</ele><time>2026-04-18T08:43:46.959Z</time></trkpt><trkpt lat="43.921125" lon="7.6403725"><ele>459.0</ele><time>2026-04-18T08:43:47.959Z</time></trkpt><trkpt lat="43.9210356" lon="7.6403982"><ele>459.0</ele><time>2026-04-18T08:43:48.959Z</time></trkpt><trkpt lat="43.9209568" lon="7.6403989"><ele>459.0</ele><time>2026-04-18T08:43:49.959Z</time></trkpt><trkpt lat="43.9208769" lon="7.6403764"><ele>459.0</ele><time>2026-04-18T08:43:50.959Z</time></trkpt><trkpt lat="43.9207927" lon="7.6403304"><ele>459.0</ele><time>2026-04-18T08:43:51.959Z</time></trkpt><trkpt lat="43.9207014" lon="7.6402916"><ele>459.0</ele><time>2026-04-18T08:43:52.959Z</time></trkpt><trkpt lat="43.9206028" lon="7.6402952"><ele>459.0</ele><time>2026-04-18T08:43:53.959Z</time></trkpt><trkpt lat="43.9204952" lon="7.6403308"><ele>457.75</ele><time>2026-04-18T08:43:54.959Z</time></trkpt><trkpt lat="43.9203805" lon="7.6403707"><ele>456.5</ele><time>2026-04-18T08:43:55.959Z</time></trkpt><trkpt lat="43.9202732" lon="7.640423"><ele>455.25</ele><time>2026-04-18T08:43:56.959Z</time></trkpt><trkpt lat="43.9201643" lon="7.6404712"><ele>454.0</ele><time>2026-04-18T08:43:57.959Z</time></trkpt><trkpt lat="43.9200629" lon="7.6405115"><ele>453.33333333333337</ele><time>2026-04-18T08:43:58.958Z</time></trkpt><trkpt lat="43.9199804" lon="7.6405475"><ele>452.6666666666667</ele><time>2026-04-18T08:43:59.958Z</time></trkpt><trkpt lat="43.9199046" lon="7.6405885"><ele>452.0</ele><time>2026-04-18T08:44:00.959Z</time></trkpt><trkpt lat="43.9198467" lon="7.6406565"><ele>451.33333333333337</ele><time>2026-04-18T08:44:01.959Z</time></trkpt><trkpt lat="43.9198118" lon="7.6407548"><ele>450.6666666666667</ele><time>2026-04-18T08:44:02.959Z</time></trkpt><trkpt lat="43.9198155" lon="7.6408548"><ele>450.0</ele><time>2026-04-18T08:44:03.959Z</time></trkpt><trkpt lat="43.9198518" lon="7.6409484"><ele>450.0</ele><time>2026-04-18T08:44:04.959Z</time></trkpt><trkpt lat="43.9199066" lon="7.6410224"><ele>450.0</ele><time>2026-04-18T08:44:05.959Z</time></trkpt><trkpt lat="43.9200015" lon="7.6410366"><ele>450.0</ele><time>2026-04-18T08:44:06.959Z</time></trkpt><trkpt lat="43.9200982" lon="7.6410364"><ele>450.0</ele><time>2026-04-18T08:44:07.959Z</time></trkpt><trkpt lat="43.9201873" lon="7.641008"><ele>450.0</ele><time>2026-04-18T08:44:08.959Z</time></trkpt><trkpt lat="43.9202663" lon="7.6409411"><ele>450.8</ele><time>2026-04-18T08:44:09.959Z</time></trkpt><trkpt lat="43.9203389" lon="7.6408648"><ele>451.6</ele><time>2026-04-18T08:44:10.958Z</time></trkpt><trkpt lat="43.9204224" lon="7.6408059"><ele>452.4</ele><time>2026-04-18T08:44:11.958Z</time></trkpt><trkpt lat="43.9205231" lon="7.6408025"><ele>453.2</ele><time>2026-04-18T08:44:12.959Z</time></trkpt><trkpt lat="43.9206145" lon="7.6408584"><ele>454.0</ele><time>2026-04-18T08:44:13.959Z</time></trkpt><trkpt lat="43.9207086" lon="7.64094"><ele>454.0</ele><time>2026-04-18T08:44:14.959Z</time></trkpt><trkpt lat="43.9208084" lon="7.6410124"><ele>454.0</ele><time>2026-04-18T08:44:15.958Z</time></trkpt><trkpt lat="43.9209163" lon="7.64107"><ele>454.0</ele><time>2026-04-18T08:44:16.959Z</time></trkpt><trkpt lat="43.9210169" lon="7.6411182"><ele>454.0</ele><time>2026-04-18T08:44:17.959Z</time></trkpt><trkpt lat="43.9211206" lon="7.6411663"><ele>454.0</ele><time>2026-04-18T08:44:18.959Z</time></trkpt><trkpt lat="43.921216" lon="7.6412125"><ele>450.79999999999995</ele><time>2026-04-18T08:44:19.958Z</time></trkpt><trkpt lat="43.9213028" lon="7.641274"><ele>447.59999999999997</ele><time>2026-04-18T08:44:20.959Z</time></trkpt><trkpt lat="43.9213748" lon="7.6413417"><ele>444.4</ele><time>2026-04-18T08:44:21.959Z</time></trkpt><trkpt lat="43.9214126" lon="7.6414649"><ele>441.2</ele><time>2026-04-18T08:44:22.959Z</time></trkpt><trkpt lat="43.9214646" lon="7.641572"><ele>438.0</ele><time>2026-04-18T08:44:23.958Z</time></trkpt><trkpt lat="43.9215332" lon="7.6416585"><ele>438.0</ele><time>2026-04-18T08:44:24.959Z</time></trkpt><trkpt lat="43.9216169" lon="7.6417248"><ele>437.99999999999994</ele><time>2026-04-18T08:44:25.959Z</time></trkpt><trkpt lat="43.9217235" lon="7.6417908"><ele>437.99999999999994</ele><time>2026-04-18T08:44:26.959Z</time></trkpt><trkpt lat="43.9218222" lon="7.6418483"><ele>438.0</ele><time>2026-04-18T08:44:27.959Z</time></trkpt><trkpt lat="43.9219182" lon="7.6419098"><ele>438.0</ele><time>2026-04-18T08:44:28.959Z</time></trkpt><trkpt lat="43.9220117" lon="7.6419629"><ele>432.0</ele><time>2026-04-18T08:44:29.959Z</time></trkpt><trkpt lat="43.9221017" lon="7.641997"><ele>426.0</ele><time>2026-04-18T08:44:30.959Z</time></trkpt><trkpt lat="43.9221888" lon="7.6420277"><ele>420.0</ele><time>2026-04-18T08:44:31.959Z</time></trkpt><trkpt lat="43.9222564" lon="7.6420293"><ele>414.0</ele><time>2026-04-18T08:44:32.959Z</time></trkpt><trkpt lat="43.9222264" lon="7.6421896"><ele>408.0</ele><time>2026-04-18T08:44:34.959Z</time></trkpt><trkpt lat="43.9221659" lon="7.6422485"><ele>402.0</ele><time>2026-04-18T08:44:35.959Z</time></trkpt><trkpt lat="43.922105" lon="7.6422247"><ele>402.0</ele><time>2026-04-18T08:44:36.959Z</time></trkpt><trkpt lat="43.9220419" lon="7.6421666"><ele>402.0</ele><time>2026-04-18T08:44:37.959Z</time></trkpt><trkpt lat="43.9219654" lon="7.6421082"><ele>402.0</ele><time>2026-04-18T08:44:38.959Z</time></trkpt><trkpt lat="43.9218749" lon="7.6420413"><ele>402.0</ele><time>2026-04-18T08:44:39.958Z</time></trkpt><trkpt lat="43.9217757" lon="7.6419807"><ele>402.0</ele><time>2026-04-18T08:44:40.959Z</time></trkpt><trkpt lat="43.9216646" lon="7.6419333"><ele>409.20000000000005</ele><time>2026-04-18T08:44:41.959Z</time></trkpt><trkpt lat="43.9215495" lon="7.6418951"><ele>416.4</ele><time>2026-04-18T08:44:42.959Z</time></trkpt><trkpt lat="43.9214442" lon="7.6418509"><ele>423.59999999999997</ele><time>2026-04-18T08:44:43.959Z</time></trkpt><trkpt lat="43.92134" lon="7.6418038"><ele>430.79999999999995</ele><time>2026-04-18T08:44:44.959Z</time></trkpt><trkpt lat="43.9212441" lon="7.6417753"><ele>438.0</ele><time>2026-04-18T08:44:45.959Z</time></trkpt><trkpt lat="43.921157" lon="7.6417635"><ele>438.0</ele><time>2026-04-18T08:44:46.959Z</time></trkpt><trkpt lat="43.9210751" lon="7.6417659"><ele>438.0</ele><time>2026-04-18T08:44:47.959Z</time></trkpt><trkpt lat="43.9210105" lon="7.6418506"><ele>438.0</ele><time>2026-04-18T08:44:48.959Z</time></trkpt><trkpt lat="43.9209628" lon="7.6419701"><ele>438.0</ele><time>2026-04-18T08:44:49.959Z</time></trkpt><trkpt lat="43.9209455" lon="7.642089"><ele>438.0</ele><time>2026-04-18T08:44:50.958Z</time></trkpt><trkpt lat="43.9209306" lon="7.6422086"><ele>438.0</ele><time>2026-04-18T08:44:51.959Z</time></trkpt><trkpt lat="43.9208903" lon="7.6423228"><ele>432.4</ele><time>2026-04-18T08:44:52.959Z</time></trkpt><trkpt lat="43.9208388" lon="7.6424435"><ele>426.79999999999995</ele><time>2026-04-18T08:44:53.959Z</time></trkpt><trkpt lat="43.920774" lon="7.6425468"><ele>421.2</ele><time>2026-04-18T08:44:54.959Z</time></trkpt><trkpt lat="43.9207065" lon="7.6426387"><ele>415.6</ele><time>2026-04-18T08:44:55.959Z</time></trkpt><trkpt lat="43.9206291" lon="7.6427241"><ele>410.0</ele><time>2026-04-18T08:44:56.959Z</time></trkpt><trkpt lat="43.9205424" lon="7.6427967"><ele>401.75</ele><time>2026-04-18T08:44:57.958Z</time></trkpt><trkpt lat="43.9204438" lon="7.642836"><ele>393.5</ele><time>2026-04-18T08:44:58.958Z</time></trkpt><trkpt lat="43.9203244" lon="7.6428736"><ele>385.25</ele><time>2026-04-18T08:44:59.959Z</time></trkpt><trkpt lat="43.9201929" lon="7.6429071"><ele>377.0</ele><time>2026-04-18T08:45:00.959Z</time></trkpt><trkpt lat="43.9200719" lon="7.6429514"><ele>381.75</ele><time>2026-04-18T08:45:01.959Z</time></trkpt><trkpt lat="43.9199559" lon="7.6430019"><ele>386.5</ele><time>2026-04-18T08:45:02.959Z</time></trkpt><trkpt lat="43.9198376" lon="7.6430456"><ele>391.25</ele><time>2026-04-18T08:45:03.959Z</time></trkpt><trkpt lat="43.9197147" lon="7.6430993"><ele>396.0</ele><time>2026-04-18T08:45:04.959Z</time></trkpt><trkpt lat="43.9196062" lon="7.6431276"><ele>396.0</ele><time>2026-04-18T08:45:05.959Z</time></trkpt><trkpt lat="43.9195044" lon="7.6431307"><ele>396.0</ele><time>2026-04-18T08:45:06.959Z</time></trkpt><trkpt lat="43.9194022" lon="7.6431165"><ele>396.0</ele><time>2026-04-18T08:45:07.959Z</time></trkpt><trkpt lat="43.9193096" lon="7.6430933"><ele>396.0</ele><time>2026-04-18T08:45:08.959Z</time></trkpt><trkpt lat="43.9192355" lon="7.6430185"><ele>396.0</ele><time>2026-04-18T08:45:09.959Z</time></trkpt><trkpt lat="43.9191658" lon="7.6429239"><ele>393.8</ele><time>2026-04-18T08:45:10.959Z</time></trkpt><trkpt lat="43.9190932" lon="7.6428136"><ele>391.6</ele><time>2026-04-18T08:45:11.959Z</time></trkpt><trkpt lat="43.9190043" lon="7.6427159"><ele>389.4</ele><time>2026-04-18T08:45:12.959Z</time></trkpt><trkpt lat="43.9189177" lon="7.6426168"><ele>387.2</ele><time>2026-04-18T08:45:13.959Z</time></trkpt><trkpt lat="43.9188283" lon="7.6425481"><ele>385.0</ele><time>2026-04-18T08:45:14.959Z</time></trkpt><trkpt lat="43.9187524" lon="7.6425031"><ele>386.6</ele><time>2026-04-18T08:45:15.959Z</time></trkpt><trkpt lat="43.9186653" lon="7.6424994"><ele>388.2</ele><time>2026-04-18T08:45:16.959Z</time></trkpt><trkpt lat="43.9185706" lon="7.6425461"><ele>389.79999999999995</ele><time>2026-04-18T08:45:17.959Z</time></trkpt><trkpt lat="43.9184696" lon="7.6426127"><ele>391.4</ele><time>2026-04-18T08:45:18.959Z</time></trkpt><trkpt lat="43.9183848" lon="7.6426866"><ele>393.0</ele><time>2026-04-18T08:45:19.958Z</time></trkpt><trkpt lat="43.9183099" lon="7.6427632"><ele>393.0</ele><time>2026-04-18T08:45:20.959Z</time></trkpt><trkpt lat="43.9182299" lon="7.6428273"><ele>393.0</ele><time>2026-04-18T08:45:21.959Z</time></trkpt><trkpt lat="43.9181571" lon="7.6428425"><ele>393.0</ele><time>2026-04-18T08:45:22.958Z</time></trkpt><trkpt lat="43.9180975" lon="7.6427996"><ele>393.0</ele><time>2026-04-18T08:45:23.959Z</time></trkpt><trkpt lat="43.9180436" lon="7.6427432"><ele>393.0</ele><time>2026-04-18T08:45:24.959Z</time></trkpt><trkpt lat="43.9180059" lon="7.6426549"><ele>393.0</ele><time>2026-04-18T08:45:25.959Z</time></trkpt><trkpt lat="43.9179639" lon="7.6425456"><ele>393.0</ele><time>2026-04-18T08:45:26.959Z</time></trkpt><trkpt lat="43.917916" lon="7.6424199"><ele>393.0</ele><time>2026-04-18T08:45:27.959Z</time></trkpt><trkpt lat="43.9178725" lon="7.6422928"><ele>393.0</ele><time>2026-04-18T08:45:28.959Z</time></trkpt><trkpt lat="43.9178303" lon="7.6421857"><ele>393.0</ele><time>2026-04-18T08:45:29.959Z</time></trkpt><trkpt lat="43.9177816" lon="7.6420996"><ele>393.0</ele><time>2026-04-18T08:45:30.959Z</time></trkpt><trkpt lat="43.9177179" lon="7.64206"><ele>393.0</ele><time>2026-04-18T08:45:31.959Z</time></trkpt><trkpt lat="43.9176127" lon="7.6421345"><ele>393.0</ele><time>2026-04-18T08:45:33.959Z</time></trkpt><trkpt lat="43.9176418" lon="7.6422196"><ele>393.0</ele><time>2026-04-18T08:45:34.959Z</time></trkpt><trkpt lat="43.9176936" lon="7.6422863"><ele>393.0</ele><time>2026-04-18T08:45:35.959Z</time></trkpt><trkpt lat="43.9177545" lon="7.6423691"><ele>393.0</ele><time>2026-04-18T08:45:36.959Z</time></trkpt><trkpt lat="43.9178155" lon="7.6424908"><ele>393.0</ele><time>2026-04-18T08:45:37.959Z</time></trkpt><trkpt lat="43.9178785" lon="7.6426459"><ele>387.59999999999997</ele><time>2026-04-18T08:45:38.959Z</time></trkpt><trkpt lat="43.917941" lon="7.6427989"><ele>382.2</ele><time>2026-04-18T08:45:39.959Z</time></trkpt><trkpt lat="43.9179933" lon="7.6429325"><ele>376.8</ele><time>2026-04-18T08:45:40.958Z</time></trkpt><trkpt lat="43.9180371" lon="7.6430403"><ele>371.4</ele><time>2026-04-18T08:45:41.959Z</time></trkpt><trkpt lat="43.9180953" lon="7.6431199"><ele>366.0</ele><time>2026-04-18T08:45:42.959Z</time></trkpt><trkpt lat="43.9181752" lon="7.6431515"><ele>366.0</ele><time>2026-04-18T08:45:43.959Z</time></trkpt><trkpt lat="43.9182639" lon="7.6431238"><ele>366.0</ele><time>2026-04-18T08:45:44.958Z</time></trkpt><trkpt lat="43.9183565" lon="7.6430686"><ele>366.0</ele><time>2026-04-18T08:45:45.959Z</time></trkpt><trkpt lat="43.9184639" lon="7.6430129"><ele>366.0</ele><time>2026-04-18T08:45:46.959Z</time></trkpt><trkpt lat="43.9185664" lon="7.6429699"><ele>366.0</ele><time>2026-04-18T08:45:47.959Z</time></trkpt><trkpt lat="43.9186446" lon="7.6429472"><ele>369.1666666666667</ele><time>2026-04-18T08:45:48.959Z</time></trkpt><trkpt lat="43.9187083" lon="7.6429661"><ele>372.33333333333337</ele><time>2026-04-18T08:45:49.959Z</time></trkpt><trkpt lat="43.9187532" lon="7.6430323"><ele>375.5</ele><time>2026-04-18T08:45:50.959Z</time></trkpt><trkpt lat="43.9187907" lon="7.6431335"><ele>378.6666666666667</ele><time>2026-04-18T08:45:51.959Z</time></trkpt><trkpt lat="43.9188372" lon="7.6432531"><ele>381.83333333333337</ele><time>2026-04-18T08:45:52.959Z</time></trkpt><trkpt lat="43.9188936" lon="7.6433916"><ele>385.0</ele><time>2026-04-18T08:45:53.959Z</time></trkpt><trkpt lat="43.9189447" lon="7.6435361"><ele>379.0</ele><time>2026-04-18T08:45:54.959Z</time></trkpt><trkpt lat="43.9190013" lon="7.643662"><ele>373.0</ele><time>2026-04-18T08:45:55.958Z</time></trkpt><trkpt lat="43.9190812" lon="7.6437655"><ele>367.0</ele><time>2026-04-18T08:45:56.959Z</time></trkpt><trkpt lat="43.9191824" lon="7.6438477"><ele>361.0</ele><time>2026-04-18T08:45:57.959Z</time></trkpt><trkpt lat="43.919279" lon="7.6439244"><ele>355.0</ele><time>2026-04-18T08:45:58.959Z</time></trkpt><trkpt lat="43.9193753" lon="7.643987"><ele>354.6</ele><time>2026-04-18T08:45:59.959Z</time></trkpt><trkpt lat="43.9194682" lon="7.6440295"><ele>354.2</ele><time>2026-04-18T08:46:00.959Z</time></trkpt><trkpt lat="43.9195585" lon="7.6440524"><ele>353.79999999999995</ele><time>2026-04-18T08:46:01.959Z</time></trkpt><trkpt lat="43.9196513" lon="7.6440477"><ele>353.4</ele><time>2026-04-18T08:46:02.959Z</time></trkpt><trkpt lat="43.9197519" lon="7.6440032"><ele>353.0</ele><time>2026-04-18T08:46:03.959Z</time></trkpt><trkpt lat="43.9198542" lon="7.6439427"><ele>353.0</ele><time>2026-04-18T08:46:04.959Z</time></trkpt><trkpt lat="43.9199739" lon="7.643883"><ele>353.0</ele><time>2026-04-18T08:46:05.959Z</time></trkpt><trkpt lat="43.9201036" lon="7.6438532"><ele>353.0</ele><time>2026-04-18T08:46:06.959Z</time></trkpt><trkpt lat="43.9202325" lon="7.6438446"><ele>353.0</ele><time>2026-04-18T08:46:07.959Z</time></trkpt><trkpt lat="43.9203566" lon="7.6438326"><ele>348.59999999999997</ele><time>2026-04-18T08:46:08.959Z</time></trkpt><trkpt lat="43.9204771" lon="7.6438176"><ele>344.2</ele><time>2026-04-18T08:46:09.959Z</time></trkpt><trkpt lat="43.9205902" lon="7.6438136"><ele>339.8</ele><time>2026-04-18T08:46:10.959Z</time></trkpt><trkpt lat="43.9206966" lon="7.6438182"><ele>335.4</ele><time>2026-04-18T08:46:11.958Z</time></trkpt><trkpt lat="43.9207997" lon="7.6438001"><ele>331.0</ele><time>2026-04-18T08:46:12.959Z</time></trkpt><trkpt lat="43.9208869" lon="7.6437444"><ele>329.6</ele><time>2026-04-18T08:46:13.959Z</time></trkpt><trkpt lat="43.9209712" lon="7.6436489"><ele>328.20000000000005</ele><time>2026-04-18T08:46:14.959Z</time></trkpt><trkpt lat="43.9210479" lon="7.6435611"><ele>326.79999999999995</ele><time>2026-04-18T08:46:15.959Z</time></trkpt><trkpt lat="43.921121" lon="7.6434873"><ele>325.4</ele><time>2026-04-18T08:46:16.959Z</time></trkpt><trkpt lat="43.9212055" lon="7.64343"><ele>324.0</ele><time>2026-04-18T08:46:17.959Z</time></trkpt><trkpt lat="43.9213064" lon="7.6433844"><ele>324.0</ele><time>2026-04-18T08:46:18.959Z</time></trkpt><trkpt lat="43.9214356" lon="7.6433803"><ele>324.0</ele><time>2026-04-18T08:46:19.959Z</time></trkpt><trkpt lat="43.9214841" lon="7.6435796"><ele>324.0</ele><time>2026-04-18T08:46:20.959Z</time></trkpt><trkpt lat="43.9215627" lon="7.6437051"><ele>324.0</ele><time>2026-04-18T08:46:21.959Z</time></trkpt><trkpt lat="43.9216417" lon="7.6437888"><ele>324.0</ele><time>2026-04-18T08:46:22.959Z</time></trkpt><trkpt lat="43.9217172" lon="7.6438378"><ele>324.0</ele><time>2026-04-18T08:46:23.959Z</time></trkpt><trkpt lat="43.9218042" lon="7.6438522"><ele>324.0</ele><time>2026-04-18T08:46:24.959Z</time></trkpt><trkpt lat="43.9218936" lon="7.6438662"><ele>324.0</ele><time>2026-04-18T08:46:25.959Z</time></trkpt><trkpt lat="43.9219879" lon="7.6438741"><ele>324.0</ele><time>2026-04-18T08:46:26.959Z</time></trkpt><trkpt lat="43.922117" lon="7.6438518"><ele>323.0</ele><time>2026-04-18T08:46:27.959Z</time></trkpt><trkpt lat="43.9222359" lon="7.6438481"><ele>322.0</ele><time>2026-04-18T08:46:28.959Z</time></trkpt><trkpt lat="43.9223479" lon="7.643849"><ele>321.0</ele><time>2026-04-18T08:46:29.959Z</time></trkpt><trkpt lat="43.9224575" lon="7.6438393"><ele>320.0</ele><time>2026-04-18T08:46:30.959Z</time></trkpt><trkpt lat="43.9225629" lon="7.6438174"><ele>319.0</ele><time>2026-04-18T08:46:31.959Z</time></trkpt><trkpt lat="43.9226702" lon="7.6437876"><ele>318.4</ele><time>2026-04-18T08:46:32.959Z</time></trkpt><trkpt lat="43.9227767" lon="7.6437395"><ele>317.79999999999995</ele><time>2026-04-18T08:46:33.959Z</time></trkpt><trkpt lat="43.922884" lon="7.6437269"><ele>317.20000000000005</ele><time>2026-04-18T08:46:34.959Z</time></trkpt><trkpt lat="43.9229876" lon="7.6437435"><ele>316.6</ele><time>2026-04-18T08:46:35.958Z</time></trkpt><trkpt lat="43.9230879" lon="7.6437533"><ele>316.0</ele><time>2026-04-18T08:46:36.959Z</time></trkpt><trkpt lat="43.9231861" lon="7.643789"><ele>316.0</ele><time>2026-04-18T08:46:37.959Z</time></trkpt><trkpt lat="43.923282" lon="7.6438112"><ele>316.0</ele><time>2026-04-18T08:46:38.959Z</time></trkpt><trkpt lat="43.923367" lon="7.6438257"><ele>316.0</ele><time>2026-04-18T08:46:39.958Z</time></trkpt><trkpt lat="43.923457" lon="7.6438034"><ele>316.0</ele><time>2026-04-18T08:46:40.959Z</time></trkpt><trkpt lat="43.9235359" lon="7.6437383"><ele>316.0</ele><time>2026-04-18T08:46:41.959Z</time></trkpt><trkpt lat="43.9235943" lon="7.6436336"><ele>308.0</ele><time>2026-04-18T08:46:42.959Z</time></trkpt><trkpt lat="43.9236349" lon="7.6435059"><ele>300.0</ele><time>2026-04-18T08:46:43.958Z</time></trkpt><trkpt lat="43.9236542" lon="7.6433594"><ele>292.0</ele><time>2026-04-18T08:46:44.959Z</time></trkpt><trkpt lat="43.9236658" lon="7.6431946"><ele>284.0</ele><time>2026-04-18T08:46:45.959Z</time></trkpt><trkpt lat="43.9236934" lon="7.6430207"><ele>284.0</ele><time>2026-04-18T08:46:46.959Z</time></trkpt><trkpt lat="43.9237404" lon="7.6428426"><ele>284.0</ele><time>2026-04-18T08:46:47.959Z</time></trkpt><trkpt lat="43.9237975" lon="7.6426768"><ele>284.0</ele><time>2026-04-18T08:46:48.959Z</time></trkpt><trkpt lat="43.9238411" lon="7.6425114"><ele>284.0</ele><time>2026-04-18T08:46:49.959Z</time></trkpt><trkpt lat="43.9238863" lon="7.6423578"><ele>285.75</ele><time>2026-04-18T08:46:50.958Z</time></trkpt><trkpt lat="43.9239381" lon="7.6421989"><ele>287.5</ele><time>2026-04-18T08:46:51.959Z</time></trkpt><trkpt lat="43.923971" lon="7.6420187"><ele>289.25</ele><time>2026-04-18T08:46:52.959Z</time></trkpt><trkpt lat="43.9240013" lon="7.6418309"><ele>291.0</ele><time>2026-04-18T08:46:53.959Z</time></trkpt><trkpt lat="43.9240319" lon="7.6416484"><ele>292.25</ele><time>2026-04-18T08:46:54.959Z</time></trkpt><trkpt lat="43.9240649" lon="7.6414669"><ele>293.5</ele><time>2026-04-18T08:46:55.959Z</time></trkpt><trkpt lat="43.9240994" lon="7.6412907"><ele>294.75</ele><time>2026-04-18T08:46:56.959Z</time></trkpt><trkpt lat="43.9241199" lon="7.6411219"><ele>296.0</ele><time>2026-04-18T08:46:57.959Z</time></trkpt><trkpt lat="43.922117" lon="7.6438518"><ele>300.0</ele><time>2026-04-18T08:46:27.959Z</time></trkpt><trkpt lat="43.9222359" lon="7.6438481"><ele>304.0</ele><time>2026-04-18T08:46:28.959Z</time></trkpt><trkpt lat="43.9223479" lon="7.643849"><ele>308.0</ele><time>2026-04-18T08:46:29.959Z</time></trkpt><trkpt lat="43.9224575" lon="7.6438393"><ele>312.0</ele><time>2026-04-18T08:46:30.959Z</time></trkpt><trkpt lat="43.9225629" lon="7.6438174"><ele>316.0</ele><time>2026-04-18T08:46:31.959Z</time></trkpt><trkpt lat="43.9226702" lon="7.6437876"><ele>316.0</ele><time>2026-04-18T08:46:32.959Z</time></trkpt><trkpt lat="43.9227767" lon="7.6437395"><ele>316.0</ele><time>2026-04-18T08:46:33.959Z</time></trkpt><trkpt lat="43.922884" lon="7.6437269"><ele>316.0</ele><time>2026-04-18T08:46:34.959Z</time></trkpt><trkpt lat="43.9229876" lon="7.6437435"><ele>316.0</ele><time>2026-04-18T08:46:35.958Z</time></trkpt><trkpt lat="43.9230879" lon="7.6437533"><ele>316.0</ele><time>2026-04-18T08:46:36.959Z</time></trkpt><trkpt lat="43.9231861" lon="7.643789"><ele>316.0</ele><time>2026-04-18T08:46:37.959Z</time></trkpt><trkpt lat="43.923282" lon="7.6438112"><ele>316.0</ele><time>2026-04-18T08:46:38.959Z</time></trkpt><trkpt lat="43.923367" lon="7.6438257"><ele>316.0</ele><time>2026-04-18T08:46:39.958Z</time></trkpt><trkpt lat="43.923457" lon="7.6438034"><ele>316.0</ele><time>2026-04-18T08:46:40.959Z</time></trkpt><trkpt lat="43.9235359" lon="7.6437383"><ele>316.0</ele><time>2026-04-18T08:46:41.959Z</time></trkpt><trkpt lat="43.9235943" lon="7.6436336"><ele>308.0</ele><time>2026-04-18T08:46:42.959Z</time></trkpt><trkpt lat="43.9236349" lon="7.6435059"><ele>300.0</ele><time>2026-04-18T08:46:43.958Z</time></trkpt><trkpt lat="43.9236542" lon="7.6433594"><ele>292.0</ele><time>2026-04-18T08:46:44.959Z</time></trkpt><trkpt lat="43.9236658" lon="7.6431946"><ele>284.0</ele><time>2026-04-18T08:46:45.959Z</time></trkpt><trkpt lat="43.9236934" lon="7.6430207"><ele>284.0</ele><time>2026-04-18T08:46:46.959Z</time></trkpt><trkpt lat="43.9237404" lon="7.6428426"><ele>284.0</ele><time>2026-04-18T08:46:47.959Z</time></trkpt><trkpt lat="43.9237975" lon="7.6426768"><ele>284.0</ele><time>2026-04-18T08:46:48.959Z</time></trkpt><trkpt lat="43.9238411" lon="7.6425114"><ele>284.0</ele><time>2026-04-18T08:46:49.959Z</time></trkpt><trkpt lat="43.9238863" lon="7.6423578"><ele>285.75</ele><time>2026-04-18T08:46:50.958Z</time></trkpt><trkpt lat="43.9239381" lon="7.6421989"><ele>287.5</ele><time>2026-04-18T08:46:51.959Z</time></trkpt><trkpt lat="43.923971" lon="7.6420187"><ele>289.25</ele><time>2026-04-18T08:46:52.959Z</time></trkpt><trkpt lat="43.9240013" lon="7.6418309"><ele>291.0</ele><time>2026-04-18T08:46:53.959Z</time></trkpt><trkpt lat="43.9240319" lon="7.6416484"><ele>292.25</ele><time>2026-04-18T08:46:54.959Z</time></trkpt><trkpt lat="43.9240649" lon="7.6414669"><ele>293.5</ele><time>2026-04-18T08:46:55.959Z</time></trkpt><trkpt lat="43.9240994" lon="7.6412907"><ele>294.75</ele><time>2026-04-18T08:46:56.959Z</time></trkpt><trkpt lat="43.9241199" lon="7.6411219"><ele>296.0</ele><time>2026-04-18T08:46:57.959Z</time></trkpt><trkpt lat="43.9241189" lon="7.640952"><ele>296.2</ele><time>2026-04-18T08:46:58.958Z</time></trkpt><trkpt lat="43.9240987" lon="7.6407864"><ele>296.40000000000003</ele><time>2026-04-18T08:46:59.959Z</time></trkpt><trkpt lat="43.9240551" lon="7.6406316"><ele>296.6</ele><time>2026-04-18T08:47:00.959Z</time></trkpt><trkpt lat="43.9240243" lon="7.6404782"><ele>296.8</ele><time>2026-04-18T08:47:01.959Z</time></trkpt><trkpt lat="43.9239976" lon="7.6403772"><ele>297.0</ele><time>2026-04-18T08:47:02.959Z</time></trkpt><trkpt lat="43.9239699" lon="7.6402714"><ele>297.0</ele><time>2026-04-18T08:47:03.959Z</time></trkpt><trkpt lat="43.9239466" lon="7.6401659"><ele>297.0</ele><time>2026-04-18T08:47:04.959Z</time></trkpt><trkpt lat="43.9240225" lon="7.6401229"><ele>297.0</ele><time>2026-04-18T08:47:05.959Z</time></trkpt><trkpt lat="43.9241143" lon="7.6401304"><ele>297.0</ele><time>2026-04-18T08:47:07.959Z</time></trkpt><trkpt lat="43.9241641" lon="7.6402603"><ele>297.0</ele><time>2026-04-18T08:47:08.959Z</time></trkpt><trkpt lat="43.9241882" lon="7.640411"><ele>297.0</ele><time>2026-04-18T08:47:09.959Z</time></trkpt><trkpt lat="43.9242043" lon="7.6405909"><ele>297.0</ele><time>2026-04-18T08:47:10.959Z</time></trkpt><trkpt lat="43.9242214" lon="7.6407793"><ele>297.0</ele><time>2026-04-18T08:47:11.959Z</time></trkpt><trkpt lat="43.9242316" lon="7.6409842"><ele>297.0</ele><time>2026-04-18T08:47:12.959Z</time></trkpt><trkpt lat="43.9242417" lon="7.6412001"><ele>298.0</ele><time>2026-04-18T08:47:13.959Z</time></trkpt><trkpt lat="43.9242466" lon="7.6414061"><ele>299.0</ele><time>2026-04-18T08:47:14.959Z</time></trkpt><trkpt lat="43.9242521" lon="7.6416103"><ele>300.0</ele><time>2026-04-18T08:47:15.959Z</time></trkpt><trkpt lat="43.9242643" lon="7.6418117"><ele>301.0</ele><time>2026-04-18T08:47:16.959Z</time></trkpt><trkpt lat="43.9242557" lon="7.6419985"><ele>301.0</ele><time>2026-04-18T08:47:17.959Z</time></trkpt><trkpt lat="43.9242466" lon="7.6421821"><ele>301.0</ele><time>2026-04-18T08:47:18.959Z</time></trkpt><trkpt lat="43.924237" lon="7.6423667"><ele>301.0</ele><time>2026-04-18T08:47:19.959Z</time></trkpt><trkpt lat="43.9242121" lon="7.6425482"><ele>301.0</ele><time>2026-04-18T08:47:20.959Z</time></trkpt><trkpt lat="43.9241891" lon="7.6427321"><ele>296.75</ele><time>2026-04-18T08:47:21.959Z</time></trkpt><trkpt lat="43.9241729" lon="7.6429227"><ele>292.5</ele><time>2026-04-18T08:47:22.959Z</time></trkpt><trkpt lat="43.9241708" lon="7.643122"><ele>288.25</ele><time>2026-04-18T08:47:23.959Z</time></trkpt><trkpt lat="43.9241901" lon="7.6433255"><ele>284.0</ele><time>2026-04-18T08:47:24.958Z</time></trkpt><trkpt lat="43.9242075" lon="7.6435292"><ele>283.0</ele><time>2026-04-18T08:47:25.959Z</time></trkpt><trkpt lat="43.9241913" lon="7.6437369"><ele>282.0</ele><time>2026-04-18T08:47:26.959Z</time></trkpt><trkpt lat="43.9242068" lon="7.6439587"><ele>281.0</ele><time>2026-04-18T08:47:27.959Z</time></trkpt><trkpt lat="43.9242315" lon="7.6441753"><ele>283.25</ele><time>2026-04-18T08:47:28.959Z</time></trkpt><trkpt lat="43.924261" lon="7.644381"><ele>285.5</ele><time>2026-04-18T08:47:29.959Z</time></trkpt><trkpt lat="43.9242934" lon="7.644576"><ele>287.75</ele><time>2026-04-18T08:47:30.959Z</time></trkpt><trkpt lat="43.9243128" lon="7.6447653"><ele>290.0</ele><time>2026-04-18T08:47:31.959Z</time></trkpt><trkpt lat="43.9243357" lon="7.6449379"><ele>285.6</ele><time>2026-04-18T08:47:32.959Z</time></trkpt><trkpt lat="43.9243606" lon="7.6450916"><ele>281.2</ele><time>2026-04-18T08:47:33.959Z</time></trkpt><trkpt lat="43.9243914" lon="7.645224"><ele>276.8</ele><time>2026-04-18T08:47:34.959Z</time></trkpt><trkpt lat="43.92441" lon="7.6453426"><ele>272.4</ele><time>2026-04-18T08:47:35.959Z</time></trkpt><trkpt lat="43.9243979" lon="7.6454465"><ele>268.0</ele><time>2026-04-18T08:47:36.959Z</time></trkpt><trkpt lat="43.9243496" lon="7.6455295"><ele>263.4</ele><time>2026-04-18T08:47:37.959Z</time></trkpt><trkpt lat="43.9242752" lon="7.6455891"><ele>258.8</ele><time>2026-04-18T08:47:38.958Z</time></trkpt><trkpt lat="43.9241879" lon="7.6456225"><ele>254.2</ele><time>2026-04-18T08:47:39.959Z</time></trkpt><trkpt lat="43.9240922" lon="7.6456242"><ele>249.6</ele><time>2026-04-18T08:47:40.958Z</time></trkpt><trkpt lat="43.9239859" lon="7.6456107"><ele>245.0</ele><time>2026-04-18T08:47:41.959Z</time></trkpt><trkpt lat="43.923864" lon="7.645577"><ele>245.0</ele><time>2026-04-18T08:47:42.959Z</time></trkpt><trkpt lat="43.9237383" lon="7.6455523"><ele>245.0</ele><time>2026-04-18T08:47:43.959Z</time></trkpt><trkpt lat="43.9236129" lon="7.6455307"><ele>245.0</ele><time>2026-04-18T08:47:44.959Z</time></trkpt><trkpt lat="43.9234928" lon="7.6455024"><ele>245.0</ele><time>2026-04-18T08:47:45.959Z</time></trkpt><trkpt lat="43.923365" lon="7.6454686"><ele>242.6</ele><time>2026-04-18T08:47:46.959Z</time></trkpt><trkpt lat="43.9232416" lon="7.6454068"><ele>240.2</ele><time>2026-04-18T08:47:47.959Z</time></trkpt><trkpt lat="43.9231249" lon="7.6453493"><ele>237.8</ele><time>2026-04-18T08:47:48.959Z</time></trkpt><trkpt lat="43.9230266" lon="7.6452961"><ele>235.4</ele><time>2026-04-18T08:47:49.959Z</time></trkpt><trkpt lat="43.9229425" lon="7.6452588"><ele>233.0</ele><time>2026-04-18T08:47:50.959Z</time></trkpt><trkpt lat="43.9228707" lon="7.6452494"><ele>233.0</ele><time>2026-04-18T08:47:51.959Z</time></trkpt><trkpt lat="43.9227803" lon="7.6453421"><ele>233.0</ele><time>2026-04-18T08:47:53.959Z</time></trkpt><trkpt lat="43.9228205" lon="7.6454143"><ele>233.0</ele><time>2026-04-18T08:47:54.959Z</time></trkpt><trkpt lat="43.9228888" lon="7.6454646"><ele>233.0</ele><time>2026-04-18T08:47:55.959Z</time></trkpt><trkpt lat="43.9229782" lon="7.6454771"><ele>233.0</ele><time>2026-04-18T08:47:56.958Z</time></trkpt><trkpt lat="43.9230924" lon="7.6455009"><ele>233.0</ele><time>2026-04-18T08:47:57.959Z</time></trkpt><trkpt lat="43.9232167" lon="7.6455501"><ele>233.0</ele><time>2026-04-18T08:47:58.959Z</time></trkpt><trkpt lat="43.9233458" lon="7.6456196"><ele>233.0</ele><time>2026-04-18T08:47:59.959Z</time></trkpt><trkpt lat="43.9234725" lon="7.6456825"><ele>233.0</ele><time>2026-04-18T08:48:00.959Z</time></trkpt><trkpt lat="43.9235946" lon="7.64574"><ele>236.0</ele><time>2026-04-18T08:48:01.959Z</time></trkpt><trkpt lat="43.9237078" lon="7.6458045"><ele>239.0</ele><time>2026-04-18T08:48:02.959Z</time></trkpt><trkpt lat="43.9238261" lon="7.6458674"><ele>242.0</ele><time>2026-04-18T08:48:03.959Z</time></trkpt><trkpt lat="43.9239453" lon="7.6459548"><ele>245.0</ele><time>2026-04-18T08:48:04.959Z</time></trkpt><trkpt lat="43.9240652" lon="7.646039"><ele>245.0</ele><time>2026-04-18T08:48:05.959Z</time></trkpt><trkpt lat="43.924179" lon="7.6461184"><ele>245.0</ele><time>2026-04-18T08:48:06.959Z</time></trkpt><trkpt lat="43.9242713" lon="7.6462292"><ele>245.0</ele><time>2026-04-18T08:48:07.958Z</time></trkpt><trkpt lat="43.9243522" lon="7.6463462"><ele>245.0</ele><time>2026-04-18T08:48:08.959Z</time></trkpt><trkpt lat="43.9244168" lon="7.6464757"><ele>242.5</ele><time>2026-04-18T08:48:09.959Z</time></trkpt><trkpt lat="43.9244738" lon="7.6466157"><ele>240.0</ele><time>2026-04-18T08:48:10.959Z</time></trkpt><trkpt lat="43.9245175" lon="7.6467727"><ele>237.5</ele><time>2026-04-18T08:48:11.959Z</time></trkpt><trkpt lat="43.924544" lon="7.6469524"><ele>235.0</ele><time>2026-04-18T08:48:12.959Z</time></trkpt><trkpt lat="43.9245623" lon="7.6471461"><ele>231.75</ele><time>2026-04-18T08:48:13.958Z</time></trkpt><trkpt lat="43.9245821" lon="7.6473433"><ele>228.5</ele><time>2026-04-18T08:48:14.959Z</time></trkpt><trkpt lat="43.924596" lon="7.6475325"><ele>225.25</ele><time>2026-04-18T08:48:15.959Z</time></trkpt><trkpt lat="43.9246089" lon="7.6477089"><ele>222.0</ele><time>2026-04-18T08:48:16.959Z</time></trkpt><trkpt lat="43.9246193" lon="7.6478659"><ele>219.5</ele><time>2026-04-18T08:48:17.959Z</time></trkpt><trkpt lat="43.9246323" lon="7.64801"><ele>217.0</ele><time>2026-04-18T08:48:18.959Z</time></trkpt><trkpt lat="43.9246395" lon="7.6481285"><ele>214.5</ele><time>2026-04-18T08:48:19.959Z</time></trkpt><trkpt lat="43.9246383" lon="7.6482394"><ele>212.0</ele><time>2026-04-18T08:48:20.959Z</time></trkpt><trkpt lat="43.9246154" lon="7.6483216"><ele>209.5</ele><time>2026-04-18T08:48:21.959Z</time></trkpt><trkpt lat="43.9245497" lon="7.6483616"><ele>207.0</ele><time>2026-04-18T08:48:22.959Z</time></trkpt><trkpt lat="43.9244905" lon="7.6483925"><ele>207.0</ele><time>2026-04-18T08:48:23.959Z</time></trkpt><trkpt lat="43.9243807" lon="7.6482242"><ele>207.0</ele><time>2026-04-18T08:48:25.958Z</time></trkpt><trkpt lat="43.9243212" lon="7.6480806"><ele>207.0</ele><time>2026-04-18T08:48:26.959Z</time></trkpt><trkpt lat="43.9242614" lon="7.6479599"><ele>207.0</ele><time>2026-04-18T08:48:27.959Z</time></trkpt><trkpt lat="43.9242049" lon="7.6478462"><ele>208.16666666666666</ele><time>2026-04-18T08:48:28.959Z</time></trkpt><trkpt lat="43.9241515" lon="7.6477397"><ele>209.33333333333331</ele><time>2026-04-18T08:48:29.959Z</time></trkpt><trkpt lat="43.9241002" lon="7.6476501"><ele>210.5</ele><time>2026-04-18T08:48:30.959Z</time></trkpt><trkpt lat="43.924041" lon="7.6475948"><ele>211.66666666666666</ele><time>2026-04-18T08:48:31.959Z</time></trkpt><trkpt lat="43.9239382" lon="7.6476061"><ele>212.83333333333331</ele><time>2026-04-18T08:48:33.959Z</time></trkpt><trkpt lat="43.9238639" lon="7.6476183"><ele>214.0</ele><time>2026-04-18T08:48:36.959Z</time></trkpt><trkpt lat="43.9238009" lon="7.647535"><ele>214.0</ele><time>2026-04-18T08:48:38.959Z</time></trkpt><trkpt lat="43.9237591" lon="7.647443"><ele>213.99999999999997</ele><time>2026-04-18T08:48:39.959Z</time></trkpt><trkpt lat="43.9237167" lon="7.6473194"><ele>213.99999999999997</ele><time>2026-04-18T08:48:40.959Z</time></trkpt><trkpt lat="43.9236655" lon="7.6471765"><ele>214.0</ele><time>2026-04-18T08:48:41.958Z</time></trkpt><trkpt lat="43.9235979" lon="7.6470168"><ele>214.0</ele><time>2026-04-18T08:48:42.959Z</time></trkpt><trkpt lat="43.9235286" lon="7.6468407"><ele>211.33333333333331</ele><time>2026-04-18T08:48:43.959Z</time></trkpt><trkpt lat="43.923449" lon="7.6466521"><ele>208.66666666666669</ele><time>2026-04-18T08:48:44.959Z</time></trkpt><trkpt lat="43.92337" lon="7.646465"><ele>206.0</ele><time>2026-04-18T08:48:45.959Z</time></trkpt><trkpt lat="43.9232769" lon="7.6463134"><ele>206.0</ele><time>2026-04-18T08:48:46.959Z</time></trkpt><trkpt lat="43.9231681" lon="7.6461833"><ele>206.0</ele><time>2026-04-18T08:48:47.959Z</time></trkpt><trkpt lat="43.9230535" lon="7.6460617"><ele>206.0</ele><time>2026-04-18T08:48:48.959Z</time></trkpt><trkpt lat="43.9229107" lon="7.6459984"><ele>206.0</ele><time>2026-04-18T08:48:49.959Z</time></trkpt><trkpt lat="43.9227514" lon="7.6459532"><ele>215.0</ele><time>2026-04-18T08:48:50.959Z</time></trkpt><trkpt lat="43.9225959" lon="7.6459119"><ele>224.0</ele><time>2026-04-18T08:48:51.959Z</time></trkpt><trkpt lat="43.9224447" lon="7.6458821"><ele>233.0</ele><time>2026-04-18T08:48:52.959Z</time></trkpt><trkpt lat="43.922305" lon="7.6458816"><ele>233.66666666666669</ele><time>2026-04-18T08:48:53.959Z</time></trkpt><trkpt lat="43.9221663" lon="7.6458935"><ele>234.33333333333331</ele><time>2026-04-18T08:48:54.959Z</time></trkpt><trkpt lat="43.9220363" lon="7.6460262"><ele>235.0</ele><time>2026-04-18T08:48:55.959Z</time></trkpt><trkpt lat="43.9219129" lon="7.6461482"><ele>226.0</ele><time>2026-04-18T08:48:56.959Z</time></trkpt><trkpt lat="43.9217933" lon="7.6462413"><ele>217.0</ele><time>2026-04-18T08:48:57.959Z</time></trkpt><trkpt lat="43.9216677" lon="7.6463114"><ele>208.0</ele><time>2026-04-18T08:48:58.959Z</time></trkpt><trkpt lat="43.9215301" lon="7.6463275"><ele>199.0</ele><time>2026-04-18T08:48:59.959Z</time></trkpt><trkpt lat="43.9213959" lon="7.6463317"><ele>198.5</ele><time>2026-04-18T08:49:00.959Z</time></trkpt><trkpt lat="43.9212532" lon="7.6462858"><ele>198.0</ele><time>2026-04-18T08:49:01.959Z</time></trkpt><trkpt lat="43.9211194" lon="7.646244"><ele>197.5</ele><time>2026-04-18T08:49:02.959Z</time></trkpt><trkpt lat="43.9209777" lon="7.6462263"><ele>197.0</ele><time>2026-04-18T08:49:03.959Z</time></trkpt><trkpt lat="43.9208263" lon="7.6462147"><ele>196.0</ele><time>2026-04-18T08:49:04.959Z</time></trkpt><trkpt lat="43.9206804" lon="7.6463241"><ele>195.0</ele><time>2026-04-18T08:49:05.959Z</time></trkpt><trkpt lat="43.9205302" lon="7.6464241"><ele>194.0</ele><time>2026-04-18T08:49:06.959Z</time></trkpt><trkpt lat="43.920376" lon="7.6465209"><ele>194.0</ele><time>2026-04-18T08:49:07.959Z</time></trkpt><trkpt lat="43.9202293" lon="7.6466245"><ele>194.0</ele><time>2026-04-18T08:49:08.958Z</time></trkpt><trkpt lat="43.9200819" lon="7.6467477"><ele>194.0</ele><time>2026-04-18T08:49:09.958Z</time></trkpt><trkpt lat="43.9199448" lon="7.6468939"><ele>191.66666666666669</ele><time>2026-04-18T08:49:10.959Z</time></trkpt><trkpt lat="43.9198142" lon="7.6470625"><ele>189.33333333333334</ele><time>2026-04-18T08:49:11.959Z</time></trkpt><trkpt lat="43.9196923" lon="7.6472427"><ele>187.0</ele><time>2026-04-18T08:49:12.959Z</time></trkpt><trkpt lat="43.9195824" lon="7.6473973"><ele>187.0</ele><time>2026-04-18T08:49:13.959Z</time></trkpt><trkpt lat="43.9194725" lon="7.6475554"><ele>187.0</ele><time>2026-04-18T08:49:14.959Z</time></trkpt><trkpt lat="43.9193704" lon="7.6476898"><ele>187.0</ele><time>2026-04-18T08:49:15.958Z</time></trkpt><trkpt lat="43.9192538" lon="7.6478168"><ele>187.0</ele><time>2026-04-18T08:49:16.959Z</time></trkpt><trkpt lat="43.9191234" lon="7.6479264"><ele>186.0</ele><time>2026-04-18T08:49:17.959Z</time></trkpt><trkpt lat="43.9189873" lon="7.6480385"><ele>185.0</ele><time>2026-04-18T08:49:18.959Z</time></trkpt><trkpt lat="43.9188588" lon="7.6481498"><ele>184.0</ele><time>2026-04-18T08:49:19.959Z</time></trkpt><trkpt lat="43.9187305" lon="7.6482431"><ele>184.0</ele><time>2026-04-18T08:49:20.959Z</time></trkpt><trkpt lat="43.9185981" lon="7.6483208"><ele>184.0</ele><time>2026-04-18T08:49:21.959Z</time></trkpt><trkpt lat="43.9184568" lon="7.6483887"><ele>184.0</ele><time>2026-04-18T08:49:22.958Z</time></trkpt><trkpt lat="43.9183072" lon="7.6484521"><ele>189.0</ele><time>2026-04-18T08:49:23.958Z</time></trkpt><trkpt lat="43.9181448" lon="7.6484968"><ele>194.0</ele><time>2026-04-18T08:49:24.959Z</time></trkpt><trkpt lat="43.917975" lon="7.6485233"><ele>199.0</ele><time>2026-04-18T08:49:25.959Z</time></trkpt><trkpt lat="43.917796" lon="7.6485541"><ele>199.0</ele><time>2026-04-18T08:49:26.959Z</time></trkpt><trkpt lat="43.9176162" lon="7.6486036"><ele>199.0</ele><time>2026-04-18T08:49:27.959Z</time></trkpt><trkpt lat="43.9174471" lon="7.6486513"><ele>199.0</ele><time>2026-04-18T08:49:28.959Z</time></trkpt><trkpt lat="43.9172752" lon="7.6486931"><ele>193.66666666666666</ele><time>2026-04-18T08:49:29.959Z</time></trkpt><trkpt lat="43.9171034" lon="7.6487273"><ele>188.33333333333331</ele><time>2026-04-18T08:49:30.959Z</time></trkpt><trkpt lat="43.9169243" lon="7.6487642"><ele>183.0</ele><time>2026-04-18T08:49:31.959Z</time></trkpt><trkpt lat="43.9167462" lon="7.6488011"><ele>182.66666666666666</ele><time>2026-04-18T08:49:32.959Z</time></trkpt><trkpt lat="43.9165719" lon="7.6488451"><ele>182.33333333333331</ele><time>2026-04-18T08:49:33.959Z</time></trkpt><trkpt lat="43.9163984" lon="7.6488906"><ele>182.0</ele><time>2026-04-18T08:49:34.959Z</time></trkpt><trkpt lat="43.9162208" lon="7.648937"><ele>182.0</ele><time>2026-04-18T08:49:35.959Z</time></trkpt><trkpt lat="43.9160487" lon="7.6489807"><ele>182.0</ele><time>2026-04-18T08:49:36.959Z</time></trkpt><trkpt lat="43.9158854" lon="7.6490021"><ele>182.0</ele><time>2026-04-18T08:49:37.958Z</time></trkpt><trkpt lat="43.9157161" lon="7.6489755"><ele>184.0</ele><time>2026-04-18T08:49:38.959Z</time></trkpt><trkpt lat="43.9155466" lon="7.6489393"><ele>186.0</ele><time>2026-04-18T08:49:39.959Z</time></trkpt><trkpt lat="43.9153713" lon="7.6488845"><ele>188.0</ele><time>2026-04-18T08:49:40.959Z</time></trkpt><trkpt lat="43.9152035" lon="7.6488077"><ele>185.33333333333331</ele><time>2026-04-18T08:49:41.959Z</time></trkpt><trkpt lat="43.9150317" lon="7.64873"><ele>182.66666666666666</ele><time>2026-04-18T08:49:42.958Z</time></trkpt><trkpt lat="43.9148671" lon="7.6486601"><ele>180.0</ele><time>2026-04-18T08:49:43.959Z</time></trkpt><trkpt lat="43.9147131" lon="7.6485878"><ele>186.0</ele><time>2026-04-18T08:49:44.959Z</time></trkpt><trkpt lat="43.9145625" lon="7.6485237"><ele>192.0</ele><time>2026-04-18T08:49:45.959Z</time></trkpt><trkpt lat="43.9144059" lon="7.64849"><ele>198.0</ele><time>2026-04-18T08:49:46.959Z</time></trkpt><trkpt lat="43.9142481" lon="7.6484829"><ele>198.33333333333331</ele><time>2026-04-18T08:49:47.958Z</time></trkpt><trkpt lat="43.9140795" lon="7.6485352"><ele>198.66666666666666</ele><time>2026-04-18T08:49:48.958Z</time></trkpt><trkpt lat="43.9139016" lon="7.6485851"><ele>199.0</ele><time>2026-04-18T08:49:49.959Z</time></trkpt><trkpt lat="43.9137217" lon="7.6486342"><ele>192.66666666666666</ele><time>2026-04-18T08:49:50.959Z</time></trkpt><trkpt lat="43.9135498" lon="7.6486671"><ele>186.33333333333331</ele><time>2026-04-18T08:49:51.959Z</time></trkpt><trkpt lat="43.9133864" lon="7.6486922"><ele>180.0</ele><time>2026-04-18T08:49:52.959Z</time></trkpt><trkpt lat="43.9132317" lon="7.648745"><ele>178.66666666666666</ele><time>2026-04-18T08:49:53.959Z</time></trkpt><trkpt lat="43.9130805" lon="7.6488129"><ele>177.33333333333331</ele><time>2026-04-18T08:49:54.959Z</time></trkpt><trkpt lat="43.9129535" lon="7.6489253"><ele>176.0</ele><time>2026-04-18T08:49:55.959Z</time></trkpt><trkpt lat="43.9128396" lon="7.6490392"><ele>213.0</ele><time>2026-04-18T08:49:56.959Z</time></trkpt><trkpt lat="43.9199448" lon="7.6468939"><ele>204.33333333333334</ele><time>2026-04-18T08:49:10.959Z</time></trkpt><trkpt lat="43.9198142" lon="7.6470625"><ele>195.66666666666669</ele><time>2026-04-18T08:49:11.959Z</time></trkpt><trkpt lat="43.9196923" lon="7.6472427"><ele>187.0</ele><time>2026-04-18T08:49:12.959Z</time></trkpt><trkpt lat="43.9195824" lon="7.6473973"><ele>187.0</ele><time>2026-04-18T08:49:13.959Z</time></trkpt><trkpt lat="43.9194725" lon="7.6475554"><ele>187.0</ele><time>2026-04-18T08:49:14.959Z</time></trkpt><trkpt lat="43.9193704" lon="7.6476898"><ele>187.0</ele><time>2026-04-18T08:49:15.958Z</time></trkpt><trkpt lat="43.9192538" lon="7.6478168"><ele>187.0</ele><time>2026-04-18T08:49:16.959Z</time></trkpt><trkpt lat="43.9191234" lon="7.6479264"><ele>186.0</ele><time>2026-04-18T08:49:17.959Z</time></trkpt><trkpt lat="43.9189873" lon="7.6480385"><ele>185.0</ele><time>2026-04-18T08:49:18.959Z</time></trkpt><trkpt lat="43.9188588" lon="7.6481498"><ele>184.0</ele><time>2026-04-18T08:49:19.959Z</time></trkpt><trkpt lat="43.9187305" lon="7.6482431"><ele>184.0</ele><time>2026-04-18T08:49:20.959Z</time></trkpt><trkpt lat="43.9185981" lon="7.6483208"><ele>184.0</ele><time>2026-04-18T08:49:21.959Z</time></trkpt><trkpt lat="43.9184568" lon="7.6483887"><ele>184.0</ele><time>2026-04-18T08:49:22.958Z</time></trkpt><trkpt lat="43.9183072" lon="7.6484521"><ele>189.0</ele><time>2026-04-18T08:49:23.958Z</time></trkpt><trkpt lat="43.9181448" lon="7.6484968"><ele>194.0</ele><time>2026-04-18T08:49:24.959Z</time></trkpt><trkpt lat="43.917975" lon="7.6485233"><ele>199.0</ele><time>2026-04-18T08:49:25.959Z</time></trkpt><trkpt lat="43.917796" lon="7.6485541"><ele>199.0</ele><time>2026-04-18T08:49:26.959Z</time></trkpt><trkpt lat="43.9176162" lon="7.6486036"><ele>199.0</ele><time>2026-04-18T08:49:27.959Z</time></trkpt><trkpt lat="43.9174471" lon="7.6486513"><ele>199.0</ele><time>2026-04-18T08:49:28.959Z</time></trkpt><trkpt lat="43.9172752" lon="7.6486931"><ele>193.66666666666666</ele><time>2026-04-18T08:49:29.959Z</time></trkpt><trkpt lat="43.9171034" lon="7.6487273"><ele>188.33333333333331</ele><time>2026-04-18T08:49:30.959Z</time></trkpt><trkpt lat="43.9169243" lon="7.6487642"><ele>183.0</ele><time>2026-04-18T08:49:31.959Z</time></trkpt><trkpt lat="43.9167462" lon="7.6488011"><ele>182.66666666666666</ele><time>2026-04-18T08:49:32.959Z</time></trkpt><trkpt lat="43.9165719" lon="7.6488451"><ele>182.33333333333331</ele><time>2026-04-18T08:49:33.959Z</time></trkpt><trkpt lat="43.9163984" lon="7.6488906"><ele>182.0</ele><time>2026-04-18T08:49:34.959Z</time></trkpt><trkpt lat="43.9162208" lon="7.648937"><ele>182.0</ele><time>2026-04-18T08:49:35.959Z</time></trkpt><trkpt lat="43.9160487" lon="7.6489807"><ele>182.0</ele><time>2026-04-18T08:49:36.959Z</time></trkpt><trkpt lat="43.9158854" lon="7.6490021"><ele>182.0</ele><time>2026-04-18T08:49:37.958Z</time></trkpt><trkpt lat="43.9157161" lon="7.6489755"><ele>184.0</ele><time>2026-04-18T08:49:38.959Z</time></trkpt><trkpt lat="43.9155466" lon="7.6489393"><ele>186.0</ele><time>2026-04-18T08:49:39.959Z</time></trkpt><trkpt lat="43.9153713" lon="7.6488845"><ele>188.0</ele><time>2026-04-18T08:49:40.959Z</time></trkpt><trkpt lat="43.9152035" lon="7.6488077"><ele>185.33333333333331</ele><time>2026-04-18T08:49:41.959Z</time></trkpt><trkpt lat="43.9150317" lon="7.64873"><ele>182.66666666666666</ele><time>2026-04-18T08:49:42.958Z</time></trkpt><trkpt lat="43.9148671" lon="7.6486601"><ele>180.0</ele><time>2026-04-18T08:49:43.959Z</time></trkpt><trkpt lat="43.9147131" lon="7.6485878"><ele>186.0</ele><time>2026-04-18T08:49:44.959Z</time></trkpt><trkpt lat="43.9145625" lon="7.6485237"><ele>192.0</ele><time>2026-04-18T08:49:45.959Z</time></trkpt><trkpt lat="43.9144059" lon="7.64849"><ele>198.0</ele><time>2026-04-18T08:49:46.959Z</time></trkpt><trkpt lat="43.9142481" lon="7.6484829"><ele>198.33333333333331</ele><time>2026-04-18T08:49:47.958Z</time></trkpt><trkpt lat="43.9140795" lon="7.6485352"><ele>198.66666666666666</ele><time>2026-04-18T08:49:48.958Z</time></trkpt><trkpt lat="43.9139016" lon="7.6485851"><ele>199.0</ele><time>2026-04-18T08:49:49.959Z</time></trkpt><trkpt lat="43.9137217" lon="7.6486342"><ele>192.66666666666666</ele><time>2026-04-18T08:49:50.959Z</time></trkpt><trkpt lat="43.9135498" lon="7.6486671"><ele>186.33333333333331</ele><time>2026-04-18T08:49:51.959Z</time></trkpt><trkpt lat="43.9133864" lon="7.6486922"><ele>180.0</ele><time>2026-04-18T08:49:52.959Z</time></trkpt><trkpt lat="43.9132317" lon="7.648745"><ele>178.66666666666666</ele><time>2026-04-18T08:49:53.959Z</time></trkpt><trkpt lat="43.9130805" lon="7.6488129"><ele>177.33333333333331</ele><time>2026-04-18T08:49:54.959Z</time></trkpt><trkpt lat="43.9129535" lon="7.6489253"><ele>176.0</ele><time>2026-04-18T08:49:55.959Z</time></trkpt><trkpt lat="43.9128396" lon="7.6490392"><ele>176.0</ele><time>2026-04-18T08:49:56.959Z</time></trkpt><trkpt lat="43.9127432" lon="7.6491637"><ele>176.0</ele><time>2026-04-18T08:49:57.959Z</time></trkpt><trkpt lat="43.9126539" lon="7.6492911"><ele>176.0</ele><time>2026-04-18T08:49:58.959Z</time></trkpt><trkpt lat="43.9125961" lon="7.6494236"><ele>176.0</ele><time>2026-04-18T08:49:59.959Z</time></trkpt><trkpt lat="43.9126355" lon="7.649617"><ele>175.0</ele><time>2026-04-18T08:50:00.959Z</time></trkpt><trkpt lat="43.9126627" lon="7.6497928"><ele>174.0</ele><time>2026-04-18T08:50:01.959Z</time></trkpt><trkpt lat="43.912649" lon="7.6499581"><ele>173.0</ele><time>2026-04-18T08:50:02.959Z</time></trkpt><trkpt lat="43.9125919" lon="7.6501075"><ele>172.0</ele><time>2026-04-18T08:50:03.959Z</time></trkpt><trkpt lat="43.9124936" lon="7.6502437"><ele>172.66666666666669</ele><time>2026-04-18T08:50:04.958Z</time></trkpt><trkpt lat="43.9123809" lon="7.6503829"><ele>173.33333333333334</ele><time>2026-04-18T08:50:05.959Z</time></trkpt><trkpt lat="43.9122297" lon="7.650471"><ele>174.0</ele><time>2026-04-18T08:50:06.959Z</time></trkpt><trkpt lat="43.9120518" lon="7.6505164"><ele>174.0</ele><time>2026-04-18T08:50:07.959Z</time></trkpt><trkpt lat="43.9118792" lon="7.6505706"><ele>174.0</ele><time>2026-04-18T08:50:08.959Z</time></trkpt><trkpt lat="43.9116979" lon="7.6505547"><ele>174.0</ele><time>2026-04-18T08:50:09.959Z</time></trkpt><trkpt lat="43.9115089" lon="7.6505281"><ele>171.0</ele><time>2026-04-18T08:50:10.959Z</time></trkpt><trkpt lat="43.9113249" lon="7.6505056"><ele>168.0</ele><time>2026-04-18T08:50:11.959Z</time></trkpt><trkpt lat="43.9111586" lon="7.6504688"><ele>165.0</ele><time>2026-04-18T08:50:12.959Z</time></trkpt><trkpt lat="43.9109964" lon="7.6504171"><ele>166.33333333333334</ele><time>2026-04-18T08:50:13.958Z</time></trkpt><trkpt lat="43.91084" lon="7.6503358"><ele>167.66666666666669</ele><time>2026-04-18T08:50:14.959Z</time></trkpt><trkpt lat="43.9106885" lon="7.6502229"><ele>169.0</ele><time>2026-04-18T08:50:15.959Z</time></trkpt><trkpt lat="43.91053" lon="7.6500977"><ele>169.0</ele><time>2026-04-18T08:50:16.959Z</time></trkpt><trkpt lat="43.9103616" lon="7.6499703"><ele>169.0</ele><time>2026-04-18T08:50:17.959Z</time></trkpt><trkpt lat="43.9101935" lon="7.6498423"><ele>169.0</ele><time>2026-04-18T08:50:18.959Z</time></trkpt><trkpt lat="43.9100323" lon="7.6497095"><ele>170.66666666666669</ele><time>2026-04-18T08:50:19.959Z</time></trkpt><trkpt lat="43.9098783" lon="7.6495869"><ele>172.33333333333334</ele><time>2026-04-18T08:50:20.959Z</time></trkpt><trkpt lat="43.9097228" lon="7.6494796"><ele>174.0</ele><time>2026-04-18T08:50:21.959Z</time></trkpt><trkpt lat="43.9095633" lon="7.6493973"><ele>174.0</ele><time>2026-04-18T08:50:22.959Z</time></trkpt><trkpt lat="43.9093975" lon="7.649346"><ele>174.0</ele><time>2026-04-18T08:50:23.959Z</time></trkpt><trkpt lat="43.9092234" lon="7.6493234"><ele>174.0</ele><time>2026-04-18T08:50:24.959Z</time></trkpt><trkpt lat="43.909054" lon="7.6493001"><ele>171.66666666666666</ele><time>2026-04-18T08:50:25.959Z</time></trkpt><trkpt lat="43.9088838" lon="7.6492867"><ele>169.33333333333331</ele><time>2026-04-18T08:50:26.959Z</time></trkpt><trkpt lat="43.9087091" lon="7.6492939"><ele>167.0</ele><time>2026-04-18T08:50:27.959Z</time></trkpt><trkpt lat="43.9085273" lon="7.6493206"><ele>166.0</ele><time>2026-04-18T08:50:28.959Z</time></trkpt><trkpt lat="43.9083404" lon="7.6493522"><ele>165.0</ele><time>2026-04-18T08:50:29.959Z</time></trkpt><trkpt lat="43.9081514" lon="7.6494024"><ele>164.0</ele><time>2026-04-18T08:50:30.959Z</time></trkpt><trkpt lat="43.9079618" lon="7.6494673"><ele>163.0</ele><time>2026-04-18T08:50:31.959Z</time></trkpt><trkpt lat="43.9077753" lon="7.6495411"><ele>162.0</ele><time>2026-04-18T08:50:32.958Z</time></trkpt><trkpt lat="43.9075917" lon="7.6496325"><ele>161.0</ele><time>2026-04-18T08:50:33.959Z</time></trkpt><trkpt lat="43.9074056" lon="7.6497444"><ele>157.33333333333331</ele><time>2026-04-18T08:50:34.959Z</time></trkpt><trkpt lat="43.9072164" lon="7.6498604"><ele>153.66666666666666</ele><time>2026-04-18T08:50:35.959Z</time></trkpt><trkpt lat="43.9070325" lon="7.6499729"><ele>150.0</ele><time>2026-04-18T08:50:36.958Z</time></trkpt><trkpt lat="43.9068637" lon="7.6500654"><ele>151.66666666666666</ele><time>2026-04-18T08:50:37.959Z</time></trkpt><trkpt lat="43.9067008" lon="7.6501433"><ele>153.33333333333331</ele><time>2026-04-18T08:50:38.958Z</time></trkpt><trkpt lat="43.9065327" lon="7.6502133"><ele>155.0</ele><time>2026-04-18T08:50:39.959Z</time></trkpt><trkpt lat="43.906363" lon="7.6502709"><ele>154.66666666666666</ele><time>2026-04-18T08:50:40.958Z</time></trkpt><trkpt lat="43.9061897" lon="7.6503207"><ele>154.33333333333334</ele><time>2026-04-18T08:50:41.959Z</time></trkpt><trkpt lat="43.9060233" lon="7.6503671"><ele>154.0</ele><time>2026-04-18T08:50:42.959Z</time></trkpt><trkpt lat="43.9058703" lon="7.6504072"><ele>155.0</ele><time>2026-04-18T08:50:43.958Z</time></trkpt><trkpt lat="43.9057211" lon="7.650428"><ele>156.0</ele><time>2026-04-18T08:50:44.959Z</time></trkpt><trkpt lat="43.9055675" lon="7.6504095"><ele>157.0</ele><time>2026-04-18T08:50:45.959Z</time></trkpt><trkpt lat="43.9054089" lon="7.6503552"><ele>157.0</ele><time>2026-04-18T08:50:46.959Z</time></trkpt><trkpt lat="43.9052436" lon="7.6502958"><ele>157.0</ele><time>2026-04-18T08:50:47.959Z</time></trkpt><trkpt lat="43.9050824" lon="7.6502444"><ele>157.0</ele><time>2026-04-18T08:50:48.959Z</time></trkpt><trkpt lat="43.904933" lon="7.6501704"><ele>155.0</ele><time>2026-04-18T08:50:49.959Z</time></trkpt><trkpt lat="43.9047849" lon="7.6500533"><ele>153.0</ele><time>2026-04-18T08:50:50.959Z</time></trkpt><trkpt lat="43.9046442" lon="7.6499017"><ele>151.0</ele><time>2026-04-18T08:50:51.959Z</time></trkpt><trkpt lat="43.9045245" lon="7.6497266"><ele>151.0</ele><time>2026-04-18T08:50:52.959Z</time></trkpt><trkpt lat="43.9044227" lon="7.649527"><ele>151.0</ele><time>2026-04-18T08:50:53.958Z</time></trkpt><trkpt lat="43.9043432" lon="7.6493172"><ele>151.0</ele><time>2026-04-18T08:50:54.959Z</time></trkpt><trkpt lat="43.9042622" lon="7.6491213"><ele>151.33333333333334</ele><time>2026-04-18T08:50:55.959Z</time></trkpt><trkpt lat="43.904157" lon="7.648945"><ele>151.66666666666666</ele><time>2026-04-18T08:50:56.958Z</time></trkpt><trkpt lat="43.9040371" lon="7.6487827"><ele>152.0</ele><time>2026-04-18T08:50:57.959Z</time></trkpt><trkpt lat="43.903913" lon="7.6486249"><ele>159.0</ele><time>2026-04-18T08:50:58.959Z</time></trkpt><trkpt lat="43.9036935" lon="7.6486015"><ele>166.0</ele><time>2026-04-18T08:50:59.959Z</time></trkpt><trkpt lat="43.9035255" lon="7.6485164"><ele>173.0</ele><time>2026-04-18T08:51:00.959Z</time></trkpt><trkpt lat="43.9033179" lon="7.6484919"><ele>173.0</ele><time>2026-04-18T08:51:01.959Z</time></trkpt><trkpt lat="43.9031262" lon="7.6484888"><ele>173.0</ele><time>2026-04-18T08:51:02.959Z</time></trkpt><trkpt lat="43.9029544" lon="7.648485"><ele>173.0</ele><time>2026-04-18T08:51:03.959Z</time></trkpt><trkpt lat="43.9028033" lon="7.6484799"><ele>173.0</ele><time>2026-04-18T08:51:04.959Z</time></trkpt><trkpt lat="43.902642" lon="7.6485022"><ele>173.0</ele><time>2026-04-18T08:51:05.959Z</time></trkpt><trkpt lat="43.9024859" lon="7.6485502"><ele>173.0</ele><time>2026-04-18T08:51:06.959Z</time></trkpt><trkpt lat="43.9023378" lon="7.6486485"><ele>165.33333333333331</ele><time>2026-04-18T08:51:07.959Z</time></trkpt><trkpt lat="43.9021825" lon="7.6487607"><ele>157.66666666666666</ele><time>2026-04-18T08:51:08.959Z</time></trkpt><trkpt lat="43.9020341" lon="7.6488715"><ele>150.0</ele><time>2026-04-18T08:51:09.959Z</time></trkpt><trkpt lat="43.9018851" lon="7.6489972"><ele>153.0</ele><time>2026-04-18T08:51:10.959Z</time></trkpt><trkpt lat="43.9017411" lon="7.6491159"><ele>156.0</ele><time>2026-04-18T08:51:11.959Z</time></trkpt><trkpt lat="43.9016088" lon="7.6492118"><ele>159.0</ele><time>2026-04-18T08:51:12.959Z</time></trkpt><trkpt lat="43.901469" lon="7.6492974"><ele>159.0</ele><time>2026-04-18T08:51:13.959Z</time></trkpt><trkpt lat="43.9013451" lon="7.6493793"><ele>159.0</ele><time>2026-04-18T08:51:14.959Z</time></trkpt><trkpt lat="43.9012167" lon="7.6494553"><ele>159.0</ele><time>2026-04-18T08:51:15.959Z</time></trkpt><trkpt lat="43.9010806" lon="7.6494746"><ele>159.0</ele><time>2026-04-18T08:51:16.959Z</time></trkpt><trkpt lat="43.900953" lon="7.6494878"><ele>158.4</ele><time>2026-04-18T08:51:17.959Z</time></trkpt><trkpt lat="43.9008391" lon="7.6494782"><ele>157.8</ele><time>2026-04-18T08:51:18.959Z</time></trkpt><trkpt lat="43.9007333" lon="7.6494737"><ele>157.2</ele><time>2026-04-18T08:51:19.959Z</time></trkpt><trkpt lat="43.9006249" lon="7.6494575"><ele>156.6</ele><time>2026-04-18T08:51:20.959Z</time></trkpt><trkpt lat="43.9005146" lon="7.6494188"><ele>156.0</ele><time>2026-04-18T08:51:21.959Z</time></trkpt><trkpt lat="43.900392" lon="7.6493559"><ele>154.0</ele><time>2026-04-18T08:51:22.959Z</time></trkpt><trkpt lat="43.9002535" lon="7.6492863"><ele>152.0</ele><time>2026-04-18T08:51:23.959Z</time></trkpt><trkpt lat="43.9000911" lon="7.6492049"><ele>150.0</ele><time>2026-04-18T08:51:24.959Z</time></trkpt><trkpt lat="43.8999172" lon="7.6490967"><ele>150.0</ele><time>2026-04-18T08:51:25.959Z</time></trkpt><trkpt lat="43.8997472" lon="7.6489739"><ele>150.0</ele><time>2026-04-18T08:51:26.959Z</time></trkpt><trkpt lat="43.8995909" lon="7.6488552"><ele>150.0</ele><time>2026-04-18T08:51:27.959Z</time></trkpt><trkpt lat="43.8994354" lon="7.6487539"><ele>150.0</ele><time>2026-04-18T08:51:28.959Z</time></trkpt><trkpt lat="43.8992812" lon="7.6486603"><ele>150.0</ele><time>2026-04-18T08:51:29.959Z</time></trkpt><trkpt lat="43.899126" lon="7.6485728"><ele>150.0</ele><time>2026-04-18T08:51:30.958Z</time></trkpt><trkpt lat="43.8989741" lon="7.6484671"><ele>147.0</ele><time>2026-04-18T08:51:31.959Z</time></trkpt><trkpt lat="43.898834" lon="7.6483228"><ele>144.0</ele><time>2026-04-18T08:51:32.959Z</time></trkpt><trkpt lat="43.8986934" lon="7.6481861"><ele>141.0</ele><time>2026-04-18T08:51:33.959Z</time></trkpt><trkpt lat="43.8985411" lon="7.6480893"><ele>141.33333333333334</ele><time>2026-04-18T08:51:34.959Z</time></trkpt><trkpt lat="43.8983799" lon="7.6480418"><ele>141.66666666666669</ele><time>2026-04-18T08:51:35.959Z</time></trkpt><trkpt lat="43.8982107" lon="7.6480363"><ele>142.0</ele><time>2026-04-18T08:51:36.959Z</time></trkpt><trkpt lat="43.8980358" lon="7.6480566"><ele>142.0</ele><time>2026-04-18T08:51:37.959Z</time></trkpt><trkpt lat="43.8978574" lon="7.648089"><ele>142.0</ele><time>2026-04-18T08:51:38.959Z</time></trkpt><trkpt lat="43.8976744" lon="7.6481204"><ele>142.0</ele><time>2026-04-18T08:51:39.959Z</time></trkpt><trkpt lat="43.8974884" lon="7.6481498"><ele>141.66666666666669</ele><time>2026-04-18T08:51:40.959Z</time></trkpt><trkpt lat="43.8973178" lon="7.6481828"><ele>141.33333333333334</ele><time>2026-04-18T08:51:41.959Z</time></trkpt><trkpt lat="43.8971534" lon="7.6482177"><ele>141.0</ele><time>2026-04-18T08:51:42.959Z</time></trkpt><trkpt lat="43.8969992" lon="7.6482465"><ele>141.0</ele><time>2026-04-18T08:51:43.959Z</time></trkpt><trkpt lat="43.8968466" lon="7.6482626"><ele>141.0</ele><time>2026-04-18T08:51:44.959Z</time></trkpt><trkpt lat="43.896696" lon="7.6482376"><ele>141.0</ele><time>2026-04-18T08:51:45.959Z</time></trkpt><trkpt lat="43.8965525" lon="7.648167"><ele>141.0</ele><time>2026-04-18T08:51:46.959Z</time></trkpt><trkpt lat="43.8964082" lon="7.6480533"><ele>141.0</ele><time>2026-04-18T08:51:47.959Z</time></trkpt><trkpt lat="43.8962598" lon="7.6479196"><ele>141.0</ele><time>2026-04-18T08:51:48.959Z</time></trkpt><trkpt lat="43.8961093" lon="7.6477717"><ele>140.33333333333334</ele><time>2026-04-18T08:51:49.959Z</time></trkpt><trkpt lat="43.8959566" lon="7.647623"><ele>139.66666666666669</ele><time>2026-04-18T08:51:50.959Z</time></trkpt><trkpt lat="43.8957984" lon="7.6474807"><ele>139.0</ele><time>2026-04-18T08:51:51.959Z</time></trkpt><trkpt lat="43.8956465" lon="7.6473441"><ele>139.0</ele><time>2026-04-18T08:51:52.959Z</time></trkpt><trkpt lat="43.8955058" lon="7.6472097"><ele>139.0</ele><time>2026-04-18T08:51:53.959Z</time></trkpt><trkpt lat="43.8953641" lon="7.6470858"><ele>139.0</ele><time>2026-04-18T08:51:54.959Z</time></trkpt><trkpt lat="43.8952169" lon="7.6469795"><ele>137.66666666666669</ele><time>2026-04-18T08:51:55.959Z</time></trkpt><trkpt lat="43.8950711" lon="7.646888"><ele>136.33333333333334</ele><time>2026-04-18T08:51:56.959Z</time></trkpt><trkpt lat="43.8949138" lon="7.6468198"><ele>135.0</ele><time>2026-04-18T08:51:57.958Z</time></trkpt><trkpt lat="43.8947472" lon="7.6467811"><ele>135.0</ele><time>2026-04-18T08:51:58.959Z</time></trkpt><trkpt lat="43.8945747" lon="7.6467613"><ele>135.0</ele><time>2026-04-18T08:51:59.959Z</time></trkpt><trkpt lat="43.8943837" lon="7.6467785"><ele>135.0</ele><time>2026-04-18T08:52:00.959Z</time></trkpt><trkpt lat="43.8941902" lon="7.6468096"><ele>134.33333333333334</ele><time>2026-04-18T08:52:01.959Z</time></trkpt><trkpt lat="43.8940098" lon="7.6468455"><ele>133.66666666666669</ele><time>2026-04-18T08:52:02.959Z</time></trkpt><trkpt lat="43.8938343" lon="7.6468789"><ele>133.0</ele><time>2026-04-18T08:52:03.959Z</time></trkpt><trkpt lat="43.8936608" lon="7.6468987"><ele>133.0</ele><time>2026-04-18T08:52:04.959Z</time></trkpt><trkpt lat="43.8934887" lon="7.6468854"><ele>133.0</ele><time>2026-04-18T08:52:05.959Z</time></trkpt><trkpt lat="43.8933195" lon="7.6468553"><ele>133.0</ele><time>2026-04-18T08:52:06.959Z</time></trkpt><trkpt lat="43.8931591" lon="7.6468235"><ele>133.33333333333334</ele><time>2026-04-18T08:52:07.959Z</time></trkpt><trkpt lat="43.8930087" lon="7.6467748"><ele>133.66666666666666</ele><time>2026-04-18T08:52:08.959Z</time></trkpt><trkpt lat="43.892872" lon="7.6466931"><ele>134.0</ele><time>2026-04-18T08:52:09.959Z</time></trkpt><trkpt lat="43.8927641" lon="7.6465547"><ele>134.0</ele><time>2026-04-18T08:52:10.959Z</time></trkpt><trkpt lat="43.8926604" lon="7.6463925"><ele>134.0</ele><time>2026-04-18T08:52:11.959Z</time></trkpt><trkpt lat="43.8925555" lon="7.6462193"><ele>134.0</ele><time>2026-04-18T08:52:12.959Z</time></trkpt><trkpt lat="43.8924426" lon="7.6460506"><ele>132.66666666666666</ele><time>2026-04-18T08:52:13.959Z</time></trkpt><trkpt lat="43.8923171" lon="7.6458913"><ele>131.33333333333334</ele><time>2026-04-18T08:52:14.959Z</time></trkpt><trkpt lat="43.892185" lon="7.6457511"><ele>130.0</ele><time>2026-04-18T08:52:15.959Z</time></trkpt><trkpt lat="43.8920469" lon="7.6456221"><ele>130.0</ele><time>2026-04-18T08:52:16.959Z</time></trkpt><trkpt lat="43.8919035" lon="7.6454966"><ele>130.0</ele><time>2026-04-18T08:52:17.959Z</time></trkpt><trkpt lat="43.8917456" lon="7.6453876"><ele>130.0</ele><time>2026-04-18T08:52:18.959Z</time></trkpt><trkpt lat="43.8915811" lon="7.645285"><ele>128.33333333333334</ele><time>2026-04-18T08:52:19.959Z</time></trkpt><trkpt lat="43.8914091" lon="7.6452004"><ele>126.66666666666666</ele><time>2026-04-18T08:52:20.959Z</time></trkpt><trkpt lat="43.8912487" lon="7.6451392"><ele>125.0</ele><time>2026-04-18T08:52:21.959Z</time></trkpt><trkpt lat="43.8910977" lon="7.6450829"><ele>125.0</ele><time>2026-04-18T08:52:22.959Z</time></trkpt><trkpt lat="43.8909583" lon="7.6450407"><ele>125.0</ele><time>2026-04-18T08:52:23.959Z</time></trkpt><trkpt lat="43.8908379" lon="7.6450093"><ele>125.0</ele><time>2026-04-18T08:52:24.959Z</time></trkpt><trkpt lat="43.8907272" lon="7.6449812"><ele>125.0</ele><time>2026-04-18T08:52:25.958Z</time></trkpt><trkpt lat="43.8906291" lon="7.6449533"><ele>124.83333333333333</ele><time>2026-04-18T08:52:26.959Z</time></trkpt><trkpt lat="43.890546" lon="7.6449288"><ele>124.66666666666666</ele><time>2026-04-18T08:52:27.959Z</time></trkpt><trkpt lat="43.8904762" lon="7.6449069"><ele>124.5</ele><time>2026-04-18T08:52:28.959Z</time></trkpt><trkpt lat="43.8903735" lon="7.6448754"><ele>124.33333333333334</ele><time>2026-04-18T08:52:30.959Z</time></trkpt><trkpt lat="43.8902879" lon="7.6448561"><ele>124.16666666666667</ele><time>2026-04-18T08:52:33.959Z</time></trkpt><trkpt lat="43.8902114" lon="7.6448208"><ele>124.0</ele><time>2026-04-18T08:53:33.959Z</time></trkpt><trkpt lat="43.8901405" lon="7.6447964"><ele>123.83333333333334</ele><time>2026-04-18T08:53:34.959Z</time></trkpt><trkpt lat="43.8900752" lon="7.6447469"><ele>123.66666666666667</ele><time>2026-04-18T08:53:35.958Z</time></trkpt><trkpt lat="43.8900283" lon="7.6446638"><ele>123.5</ele><time>2026-04-18T08:53:36.958Z</time></trkpt><trkpt lat="43.8900117" lon="7.6445529"><ele>123.33333333333334</ele><time>2026-04-18T08:53:37.959Z</time></trkpt><trkpt lat="43.8900396" lon="7.6444413"><ele>123.16666666666667</ele><time>2026-04-18T08:53:38.959Z</time></trkpt><trkpt lat="43.890083" lon="7.6443315"><ele>123.0</ele><time>2026-04-18T08:53:39.959Z</time></trkpt><trkpt lat="43.8901227" lon="7.6442187"><ele>123.0</ele><time>2026-04-18T08:53:40.959Z</time></trkpt><trkpt lat="43.8901356" lon="7.6441046"><ele>123.00000000000001</ele><time>2026-04-18T08:53:41.959Z</time></trkpt><trkpt lat="43.8901109" lon="7.6439989"><ele>123.00000000000001</ele><time>2026-04-18T08:53:42.959Z</time></trkpt><trkpt lat="43.8900476" lon="7.643905"><ele>123.0</ele><time>2026-04-18T08:53:43.959Z</time></trkpt><trkpt lat="43.8899557" lon="7.6438395"><ele>123.0</ele><time>2026-04-18T08:53:44.959Z</time></trkpt><trkpt lat="43.8898457" lon="7.6438015"><ele>123.0</ele><time>2026-04-18T08:53:45.959Z</time></trkpt><trkpt lat="43.8897236" lon="7.6437803"><ele>123.0</ele><time>2026-04-18T08:53:46.959Z</time></trkpt><trkpt lat="43.8895916" lon="7.643754"><ele>123.0</ele><time>2026-04-18T08:53:47.959Z</time></trkpt><trkpt lat="43.8894538" lon="7.6437071"><ele>123.0</ele><time>2026-04-18T08:53:48.958Z</time></trkpt><trkpt lat="43.8893167" lon="7.6436324"><ele>123.25</ele><time>2026-04-18T08:53:49.959Z</time></trkpt><trkpt lat="43.8891759" lon="7.6435429"><ele>123.5</ele><time>2026-04-18T08:53:50.959Z</time></trkpt><trkpt lat="43.8890413" lon="7.6434504"><ele>123.75</ele><time>2026-04-18T08:53:51.959Z</time></trkpt><trkpt lat="43.8889286" lon="7.6433592"><ele>124.0</ele><time>2026-04-18T08:53:52.959Z</time></trkpt><trkpt lat="43.8888412" lon="7.6432791"><ele>124.0</ele><time>2026-04-18T08:53:53.958Z</time></trkpt><trkpt lat="43.888776" lon="7.6432178"><ele>124.0</ele><time>2026-04-18T08:53:54.959Z</time></trkpt><trkpt lat="43.8887083" lon="7.6431534"><ele>124.0</ele><time>2026-04-18T08:53:56.959Z</time></trkpt><trkpt lat="43.8886523" lon="7.6430965"><ele>124.0</ele><time>2026-04-18T08:53:58.959Z</time></trkpt><trkpt lat="43.8885643" lon="7.6429377"><ele>124.0</ele><time>2026-04-18T08:54:00.959Z</time></trkpt><trkpt lat="43.8885247" lon="7.642809"><ele>123.25</ele><time>2026-04-18T08:54:01.959Z</time></trkpt><trkpt lat="43.888486" lon="7.6426507"><ele>122.5</ele><time>2026-04-18T08:54:02.959Z</time></trkpt><trkpt lat="43.8884358" lon="7.6424882"><ele>121.75</ele><time>2026-04-18T08:54:03.958Z</time></trkpt><trkpt lat="43.8883711" lon="7.6423244"><ele>121.0</ele><time>2026-04-18T08:54:04.959Z</time></trkpt><trkpt lat="43.8882787" lon="7.6421794"><ele>121.0</ele><time>2026-04-18T08:54:05.959Z</time></trkpt><trkpt lat="43.8881566" lon="7.6420687"><ele>121.0</ele><time>2026-04-18T08:54:06.959Z</time></trkpt><trkpt lat="43.8879984" lon="7.6419833"><ele>121.0</ele><time>2026-04-18T08:54:07.959Z</time></trkpt><trkpt lat="43.887816" lon="7.6418977"><ele>120.33333333333334</ele><time>2026-04-18T08:54:08.959Z</time></trkpt><trkpt lat="43.887638" lon="7.6418087"><ele>119.66666666666666</ele><time>2026-04-18T08:54:09.959Z</time></trkpt><trkpt lat="43.88748" lon="7.6417146"><ele>119.0</ele><time>2026-04-18T08:54:10.959Z</time></trkpt><trkpt lat="43.8873306" lon="7.6416155"><ele>119.0</ele><time>2026-04-18T08:54:11.959Z</time></trkpt><trkpt lat="43.8871854" lon="7.6415028"><ele>119.0</ele><time>2026-04-18T08:54:12.958Z</time></trkpt><trkpt lat="43.8870381" lon="7.641376"><ele>119.0</ele><time>2026-04-18T08:54:13.959Z</time></trkpt><trkpt lat="43.8868916" lon="7.6412343"><ele>119.0</ele><time>2026-04-18T08:54:14.959Z</time></trkpt><trkpt lat="43.8867431" lon="7.6410878"><ele>119.0</ele><time>2026-04-18T08:54:15.959Z</time></trkpt><trkpt lat="43.886592" lon="7.6409355"><ele>119.0</ele><time>2026-04-18T08:54:16.959Z</time></trkpt><trkpt lat="43.8864418" lon="7.6407874"><ele>119.0</ele><time>2026-04-18T08:54:17.959Z</time></trkpt><trkpt lat="43.8863002" lon="7.6406421"><ele>119.0</ele><time>2026-04-18T08:54:18.959Z</time></trkpt><trkpt lat="43.8861679" lon="7.6405103"><ele>119.0</ele><time>2026-04-18T08:54:19.959Z</time></trkpt><trkpt lat="43.886028" lon="7.6403983"><ele>121.0</ele><time>2026-04-18T08:54:20.959Z</time></trkpt><trkpt lat="43.8858795" lon="7.6403045"><ele>123.0</ele><time>2026-04-18T08:54:21.959Z</time></trkpt><trkpt lat="43.8857264" lon="7.6402215"><ele>125.0</ele><time>2026-04-18T08:54:22.959Z</time></trkpt><trkpt lat="43.8855705" lon="7.6401347"><ele>125.0</ele><time>2026-04-18T08:54:23.959Z</time></trkpt><trkpt lat="43.8854171" lon="7.6400753"><ele>125.0</ele><time>2026-04-18T08:54:24.959Z</time></trkpt><trkpt lat="43.885247" lon="7.6400579"><ele>125.0</ele><time>2026-04-18T08:54:25.959Z</time></trkpt><trkpt lat="43.8850816" lon="7.6400757"><ele>122.33333333333333</ele><time>2026-04-18T08:54:26.959Z</time></trkpt><trkpt lat="43.8849228" lon="7.6401114"><ele>119.66666666666666</ele><time>2026-04-18T08:54:27.959Z</time></trkpt><trkpt lat="43.8847801" lon="7.6401629"><ele>117.0</ele><time>2026-04-18T08:54:28.959Z</time></trkpt><trkpt lat="43.8846403" lon="7.6402402"><ele>115.33333333333334</ele><time>2026-04-18T08:54:29.959Z</time></trkpt><trkpt lat="43.8845102" lon="7.6403571"><ele>113.66666666666667</ele><time>2026-04-18T08:54:30.959Z</time></trkpt><trkpt lat="43.884376" lon="7.6404621"><ele>112.0</ele><time>2026-04-18T08:54:31.959Z</time></trkpt><trkpt lat="43.8842306" lon="7.6405378"><ele>111.25</ele><time>2026-04-18T08:54:32.959Z</time></trkpt><trkpt lat="43.8840917" lon="7.6405927"><ele>110.5</ele><time>2026-04-18T08:54:33.959Z</time></trkpt><trkpt lat="43.8839562" lon="7.6406403"><ele>109.75</ele><time>2026-04-18T08:54:34.959Z</time></trkpt><trkpt lat="43.8838238" lon="7.640671"><ele>109.0</ele><time>2026-04-18T08:54:35.959Z</time></trkpt><trkpt lat="43.8836792" lon="7.6406634"><ele>109.0</ele><time>2026-04-18T08:54:36.959Z</time></trkpt><trkpt lat="43.8835383" lon="7.6406203"><ele>109.0</ele><time>2026-04-18T08:54:37.959Z</time></trkpt><trkpt lat="43.8833898" lon="7.6405571"><ele>109.0</ele><time>2026-04-18T08:54:38.959Z</time></trkpt><trkpt lat="43.8832454" lon="7.6404757"><ele>109.75</ele><time>2026-04-18T08:54:39.959Z</time></trkpt><trkpt lat="43.8831091" lon="7.640395"><ele>110.5</ele><time>2026-04-18T08:54:40.959Z</time></trkpt><trkpt lat="43.8829737" lon="7.6403279"><ele>111.25</ele><time>2026-04-18T08:54:41.959Z</time></trkpt><trkpt lat="43.882829" lon="7.6402832"><ele>112.0</ele><time>2026-04-18T08:54:42.959Z</time></trkpt><trkpt lat="43.8826727" lon="7.640257"><ele>111.66666666666667</ele><time>2026-04-18T08:54:43.959Z</time></trkpt><trkpt lat="43.88251" lon="7.6402294"><ele>111.33333333333334</ele><time>2026-04-18T08:54:44.959Z</time></trkpt><trkpt lat="43.8823448" lon="7.6401987"><ele>111.0</ele><time>2026-04-18T08:54:45.959Z</time></trkpt><trkpt lat="43.8821884" lon="7.6401607"><ele>111.0</ele><time>2026-04-18T08:54:46.959Z</time></trkpt><trkpt lat="43.8820413" lon="7.6401135"><ele>111.0</ele><time>2026-04-18T08:54:47.959Z</time></trkpt><trkpt lat="43.8819129" lon="7.6400653"><ele>111.0</ele><time>2026-04-18T08:54:48.959Z</time></trkpt><trkpt lat="43.8818019" lon="7.6400009"><ele>111.0</ele><time>2026-04-18T08:54:49.959Z</time></trkpt><trkpt lat="43.8817004" lon="7.6399187"><ele>109.25</ele><time>2026-04-18T08:54:50.959Z</time></trkpt><trkpt lat="43.8815909" lon="7.6398342"><ele>107.5</ele><time>2026-04-18T08:54:51.959Z</time></trkpt><trkpt lat="43.8814747" lon="7.6397512"><ele>105.75</ele><time>2026-04-18T08:54:52.959Z</time></trkpt><trkpt lat="43.8813648" lon="7.6396728"><ele>104.0</ele><time>2026-04-18T08:54:53.959Z</time></trkpt><trkpt lat="43.8812619" lon="7.6395971"><ele>104.0</ele><time>2026-04-18T08:54:54.959Z</time></trkpt><trkpt lat="43.88116" lon="7.6395197"><ele>104.0</ele><time>2026-04-18T08:54:55.959Z</time></trkpt><trkpt lat="43.8810515" lon="7.6394394"><ele>104.0</ele><time>2026-04-18T08:54:56.959Z</time></trkpt><trkpt lat="43.880932" lon="7.6393514"><ele>104.0</ele><time>2026-04-18T08:54:57.959Z</time></trkpt><trkpt lat="43.8808102" lon="7.6392576"><ele>104.75</ele><time>2026-04-18T08:54:58.959Z</time></trkpt><trkpt lat="43.8806824" lon="7.639177"><ele>105.5</ele><time>2026-04-18T08:54:59.959Z</time></trkpt><trkpt lat="43.8805454" lon="7.6391259"><ele>106.25</ele><time>2026-04-18T08:55:00.959Z</time></trkpt><trkpt lat="43.8804018" lon="7.6390935"><ele>107.0</ele><time>2026-04-18T08:55:01.959Z</time></trkpt><trkpt lat="43.8802705" lon="7.6390667"><ele>107.0</ele><time>2026-04-18T08:55:02.959Z</time></trkpt><trkpt lat="43.8801453" lon="7.639041"><ele>107.0</ele><time>2026-04-18T08:55:03.959Z</time></trkpt><trkpt lat="43.8800241" lon="7.6390207"><ele>107.0</ele><time>2026-04-18T08:55:04.959Z</time></trkpt><trkpt lat="43.8799136" lon="7.6389971"><ele>107.0</ele><time>2026-04-18T08:55:05.959Z</time></trkpt><trkpt lat="43.8798085" lon="7.6389744"><ele>106.0</ele><time>2026-04-18T08:55:06.959Z</time></trkpt><trkpt lat="43.8797062" lon="7.6389523"><ele>104.99999999999999</ele><time>2026-04-18T08:55:07.959Z</time></trkpt><trkpt lat="43.879608" lon="7.6389306"><ele>104.0</ele><time>2026-04-18T08:55:08.959Z</time></trkpt><trkpt lat="43.8795156" lon="7.6389162"><ele>103.0</ele><time>2026-04-18T08:55:09.959Z</time></trkpt><trkpt lat="43.8794442" lon="7.6388996"><ele>102.0</ele><time>2026-04-18T08:55:10.959Z</time></trkpt><trkpt lat="43.8793378" lon="7.6388764"><ele>102.16666666666667</ele><time>2026-04-18T08:55:12.959Z</time></trkpt><trkpt lat="43.8792278" lon="7.6388533"><ele>102.33333333333334</ele><time>2026-04-18T08:55:14.959Z</time></trkpt><trkpt lat="43.8791278" lon="7.6388135"><ele>102.5</ele><time>2026-04-18T08:55:16.959Z</time></trkpt><trkpt lat="43.8790658" lon="7.6387741"><ele>102.66666666666667</ele><time>2026-04-18T08:55:17.959Z</time></trkpt><trkpt lat="43.878999" lon="7.638714"><ele>102.83333333333334</ele><time>2026-04-18T08:55:18.959Z</time></trkpt><trkpt lat="43.8789281" lon="7.6386483"><ele>103.0</ele><time>2026-04-18T08:55:19.958Z</time></trkpt><trkpt lat="43.8788665" lon="7.6385952"><ele>104.00000000000001</ele><time>2026-04-18T08:55:20.959Z</time></trkpt><trkpt lat="43.8788023" lon="7.6385112"><ele>105.0</ele><time>2026-04-18T08:55:22.959Z</time></trkpt><trkpt lat="43.8787461" lon="7.6384269"><ele>106.0</ele><time>2026-04-18T08:55:24.959Z</time></trkpt><trkpt lat="43.8787026" lon="7.6383587"><ele>107.0</ele><time>2026-04-18T08:55:25.959Z</time></trkpt><trkpt lat="43.8786547" lon="7.6382909"><ele>108.00000000000001</ele><time>2026-04-18T08:55:26.959Z</time></trkpt><trkpt lat="43.8785683" lon="7.6381929"><ele>109.0</ele><time>2026-04-18T08:55:27.959Z</time></trkpt><trkpt lat="43.8784746" lon="7.6380902"><ele>109.75</ele><time>2026-04-18T08:55:28.959Z</time></trkpt><trkpt lat="43.878375" lon="7.6379729"><ele>110.5</ele><time>2026-04-18T08:55:29.959Z</time></trkpt><trkpt lat="43.8782589" lon="7.6378393"><ele>111.25</ele><time>2026-04-18T08:55:30.958Z</time></trkpt><trkpt lat="43.8781339" lon="7.6376867"><ele>112.0</ele><time>2026-04-18T08:55:31.959Z</time></trkpt><trkpt lat="43.878002" lon="7.637522"><ele>112.0</ele><time>2026-04-18T08:55:32.959Z</time></trkpt><trkpt lat="43.8778639" lon="7.6373511"><ele>112.0</ele><time>2026-04-18T08:55:33.959Z</time></trkpt><trkpt lat="43.8777139" lon="7.6371776"><ele>112.0</ele><time>2026-04-18T08:55:34.959Z</time></trkpt><trkpt lat="43.8775572" lon="7.6369961"><ele>110.33333333333334</ele><time>2026-04-18T08:55:35.959Z</time></trkpt><trkpt lat="43.8774018" lon="7.6368155"><ele>108.66666666666666</ele><time>2026-04-18T08:55:36.959Z</time></trkpt><trkpt lat="43.8772465" lon="7.6366327"><ele>107.0</ele><time>2026-04-18T08:55:37.958Z</time></trkpt><trkpt lat="43.8770845" lon="7.6364454"><ele>107.0</ele><time>2026-04-18T08:55:38.959Z</time></trkpt><trkpt lat="43.8769196" lon="7.6362666"><ele>107.0</ele><time>2026-04-18T08:55:39.959Z</time></trkpt><trkpt lat="43.8767602" lon="7.6360998"><ele>107.0</ele><time>2026-04-18T08:55:40.959Z</time></trkpt><trkpt lat="43.8766079" lon="7.6359295"><ele>104.33333333333333</ele><time>2026-04-18T08:55:41.959Z</time></trkpt><trkpt lat="43.8764557" lon="7.6357661"><ele>101.66666666666666</ele><time>2026-04-18T08:55:42.959Z</time></trkpt><trkpt lat="43.8763067" lon="7.6356095"><ele>99.0</ele><time>2026-04-18T08:55:43.959Z</time></trkpt><trkpt lat="43.8761642" lon="7.6354586"><ele>99.0</ele><time>2026-04-18T08:55:44.959Z</time></trkpt><trkpt lat="43.8760255" lon="7.6353204"><ele>99.0</ele><time>2026-04-18T08:55:45.959Z</time></trkpt><trkpt lat="43.8758877" lon="7.6351795"><ele>99.0</ele><time>2026-04-18T08:55:46.959Z</time></trkpt><trkpt lat="43.8757539" lon="7.6350413"><ele>97.66666666666667</ele><time>2026-04-18T08:55:47.959Z</time></trkpt><trkpt lat="43.8756175" lon="7.634909"><ele>96.33333333333334</ele><time>2026-04-18T08:55:48.959Z</time></trkpt><trkpt lat="43.8754813" lon="7.634783"><ele>95.0</ele><time>2026-04-18T08:55:49.959Z</time></trkpt><trkpt lat="43.8753411" lon="7.6346567"><ele>95.0</ele><time>2026-04-18T08:55:50.959Z</time></trkpt><trkpt lat="43.8752048" lon="7.6345201"><ele>95.0</ele><time>2026-04-18T08:55:51.959Z</time></trkpt><trkpt lat="43.87508" lon="7.6343687"><ele>95.0</ele><time>2026-04-18T08:55:52.959Z</time></trkpt><trkpt lat="43.8749694" lon="7.6341999"><ele>95.0</ele><time>2026-04-18T08:55:53.959Z</time></trkpt><trkpt lat="43.8748791" lon="7.6340083"><ele>95.0</ele><time>2026-04-18T08:55:54.959Z</time></trkpt><trkpt lat="43.8748096" lon="7.6337951"><ele>95.0</ele><time>2026-04-18T08:55:55.959Z</time></trkpt><trkpt lat="43.8747599" lon="7.6335627"><ele>97.0</ele><time>2026-04-18T08:55:56.959Z</time></trkpt><trkpt lat="43.8747306" lon="7.6333159"><ele>99.0</ele><time>2026-04-18T08:55:57.959Z</time></trkpt><trkpt lat="43.8747079" lon="7.6330602"><ele>101.0</ele><time>2026-04-18T08:55:58.959Z</time></trkpt><trkpt lat="43.874691" lon="7.6327912"><ele>101.0</ele><time>2026-04-18T08:55:59.959Z</time></trkpt><trkpt lat="43.8746747" lon="7.6325154"><ele>101.0</ele><time>2026-04-18T08:56:00.959Z</time></trkpt><trkpt lat="43.874661" lon="7.6322456"><ele>101.0</ele><time>2026-04-18T08:56:01.958Z</time></trkpt><trkpt lat="43.8746481" lon="7.6319754"><ele>102.66666666666666</ele><time>2026-04-18T08:56:02.959Z</time></trkpt><trkpt lat="43.8746351" lon="7.6317118"><ele>104.33333333333334</ele><time>2026-04-18T08:56:03.959Z</time></trkpt><trkpt lat="43.874613" lon="7.6314528"><ele>106.0</ele><time>2026-04-18T08:56:04.958Z</time></trkpt><trkpt lat="43.8745759" lon="7.6312052"><ele>109.0</ele><time>2026-04-18T08:56:05.958Z</time></trkpt><trkpt lat="43.8745269" lon="7.630974"><ele>112.0</ele><time>2026-04-18T08:56:06.958Z</time></trkpt><trkpt lat="43.8744654" lon="7.6307503"><ele>115.0</ele><time>2026-04-18T08:56:07.959Z</time></trkpt><trkpt lat="43.8743886" lon="7.6305313"><ele>115.0</ele><time>2026-04-18T08:56:08.959Z</time></trkpt><trkpt lat="43.8742969" lon="7.630323"><ele>115.0</ele><time>2026-04-18T08:56:09.959Z</time></trkpt><trkpt lat="43.874203" lon="7.6301186"><ele>115.0</ele><time>2026-04-18T08:56:10.959Z</time></trkpt><trkpt lat="43.8741093" lon="7.6299228"><ele>118.0</ele><time>2026-04-18T08:56:11.959Z</time></trkpt><trkpt lat="43.8740214" lon="7.6297341"><ele>121.0</ele><time>2026-04-18T08:56:12.959Z</time></trkpt><trkpt lat="43.8739325" lon="7.629562"><ele>124.0</ele><time>2026-04-18T08:56:13.959Z</time></trkpt><trkpt lat="43.8738355" lon="7.6294062"><ele>124.0</ele><time>2026-04-18T08:56:14.959Z</time></trkpt><trkpt lat="43.873687" lon="7.6293459"><ele>124.0</ele><time>2026-04-18T08:56:15.959Z</time></trkpt><trkpt lat="43.8735597" lon="7.6292974"><ele>124.0</ele><time>2026-04-18T08:56:16.958Z</time></trkpt><trkpt lat="43.8734057" lon="7.629332"><ele>124.0</ele><time>2026-04-18T08:56:17.959Z</time></trkpt><trkpt lat="43.8732626" lon="7.6293675"><ele>111.33333333333334</ele><time>2026-04-18T08:56:18.959Z</time></trkpt><trkpt lat="43.8730878" lon="7.6294755"><ele>98.66666666666667</ele><time>2026-04-18T08:56:19.959Z</time></trkpt><trkpt lat="43.8729233" lon="7.6295609"><ele>86.0</ele><time>2026-04-18T08:56:20.959Z</time></trkpt><trkpt lat="43.8727667" lon="7.6296137"><ele>86.0</ele><time>2026-04-18T08:56:21.959Z</time></trkpt><trkpt lat="43.8726059" lon="7.6296394"><ele>86.0</ele><time>2026-04-18T08:56:22.959Z</time></trkpt><trkpt lat="43.8724492" lon="7.6296218"><ele>86.0</ele><time>2026-04-18T08:56:23.958Z</time></trkpt><trkpt lat="43.8722986" lon="7.6295779"><ele>86.0</ele><time>2026-04-18T08:56:24.959Z</time></trkpt><trkpt lat="43.8721537" lon="7.6294944"><ele>86.0</ele><time>2026-04-18T08:56:25.959Z</time></trkpt><trkpt lat="43.872012" lon="7.6293778"><ele>86.0</ele><time>2026-04-18T08:56:26.959Z</time></trkpt><trkpt lat="43.871883" lon="7.6292278"><ele>86.0</ele><time>2026-04-18T08:56:27.959Z</time></trkpt><trkpt lat="43.8717772" lon="7.6290436"><ele>86.0</ele><time>2026-04-18T08:56:28.959Z</time></trkpt><trkpt lat="43.8716933" lon="7.6288286"><ele>86.0</ele><time>2026-04-18T08:56:29.959Z</time></trkpt><trkpt lat="43.8716226" lon="7.6285829"><ele>86.0</ele><time>2026-04-18T08:56:30.959Z</time></trkpt><trkpt lat="43.8715651" lon="7.6283325"><ele>86.0</ele><time>2026-04-18T08:56:31.959Z</time></trkpt><trkpt lat="43.8715269" lon="7.6280731"><ele>86.0</ele><time>2026-04-18T08:56:32.959Z</time></trkpt><trkpt lat="43.8715005" lon="7.6277991"><ele>86.66666666666667</ele><time>2026-04-18T08:56:33.958Z</time></trkpt><trkpt lat="43.8714745" lon="7.6275267"><ele>87.33333333333333</ele><time>2026-04-18T08:56:34.959Z</time></trkpt><trkpt lat="43.8714515" lon="7.6272573"><ele>88.0</ele><time>2026-04-18T08:56:35.959Z</time></trkpt><trkpt lat="43.871435" lon="7.6270212"><ele>91.66666666666666</ele><time>2026-04-18T08:56:36.959Z</time></trkpt><trkpt lat="43.8714246" lon="7.6267902"><ele>95.33333333333333</ele><time>2026-04-18T08:56:37.959Z</time></trkpt><trkpt lat="43.8714149" lon="7.6265606"><ele>99.0</ele><time>2026-04-18T08:56:38.959Z</time></trkpt><trkpt lat="43.8713928" lon="7.6263379"><ele>108.66666666666666</ele><time>2026-04-18T08:56:39.959Z</time></trkpt><trkpt lat="43.871349" lon="7.6261198"><ele>118.33333333333333</ele><time>2026-04-18T08:56:40.959Z</time></trkpt><trkpt lat="43.8712802" lon="7.6259185"><ele>128.0</ele><time>2026-04-18T08:56:41.959Z</time></trkpt><trkpt lat="43.8711816" lon="7.6257436"><ele>128.0</ele><time>2026-04-18T08:56:42.959Z</time></trkpt><trkpt lat="43.8710625" lon="7.6255853"><ele>128.0</ele><time>2026-04-18T08:56:43.959Z</time></trkpt><trkpt lat="43.8709352" lon="7.625449"><ele>128.0</ele><time>2026-04-18T08:56:44.959Z</time></trkpt><trkpt lat="43.8707896" lon="7.6253488"><ele>122.5</ele><time>2026-04-18T08:56:45.959Z</time></trkpt><trkpt lat="43.8705808" lon="7.6252932"><ele>117.0</ele><time>2026-04-18T08:56:46.959Z</time></trkpt><trkpt lat="43.8703429" lon="7.6253158"><ele>105.66666666666667</ele><time>2026-04-18T08:56:47.959Z</time></trkpt><trkpt lat="43.8701333" lon="7.6253269"><ele>94.33333333333334</ele><time>2026-04-18T08:56:48.959Z</time></trkpt><trkpt lat="43.8699546" lon="7.6253304"><ele>83.0</ele><time>2026-04-18T08:56:49.959Z</time></trkpt><trkpt lat="43.8697753" lon="7.6253613"><ele>83.33333333333334</ele><time>2026-04-18T08:56:50.958Z</time></trkpt><trkpt lat="43.8695936" lon="7.625382"><ele>83.66666666666667</ele><time>2026-04-18T08:56:51.959Z</time></trkpt><trkpt lat="43.8693992" lon="7.6253855"><ele>84.0</ele><time>2026-04-18T08:56:52.959Z</time></trkpt><trkpt lat="43.869202" lon="7.625378"><ele>84.0</ele><time>2026-04-18T08:56:53.959Z</time></trkpt><trkpt lat="43.8689991" lon="7.6253733"><ele>84.0</ele><time>2026-04-18T08:56:54.959Z</time></trkpt><trkpt lat="43.868792" lon="7.6253643"><ele>84.0</ele><time>2026-04-18T08:56:55.959Z</time></trkpt><trkpt lat="43.8685806" lon="7.6253556"><ele>86.66666666666667</ele><time>2026-04-18T08:56:56.958Z</time></trkpt><trkpt lat="43.8683737" lon="7.6253461"><ele>89.33333333333334</ele><time>2026-04-18T08:56:57.959Z</time></trkpt><trkpt lat="43.8681698" lon="7.625336"><ele>92.0</ele><time>2026-04-18T08:56:58.959Z</time></trkpt><trkpt lat="43.867973" lon="7.6253271"><ele>91.0</ele><time>2026-04-18T08:56:59.959Z</time></trkpt><trkpt lat="43.8677859" lon="7.6253064"><ele>90.0</ele><time>2026-04-18T08:57:00.959Z</time></trkpt><trkpt lat="43.8675989" lon="7.6252763"><ele>89.0</ele><time>2026-04-18T08:57:01.959Z</time></trkpt><trkpt lat="43.8674117" lon="7.6252208"><ele>88.0</ele><time>2026-04-18T08:57:02.959Z</time></trkpt><trkpt lat="43.867223" lon="7.6251414"><ele>87.0</ele><time>2026-04-18T08:57:03.959Z</time></trkpt><trkpt lat="43.8670321" lon="7.6250645"><ele>86.0</ele><time>2026-04-18T08:57:04.959Z</time></trkpt><trkpt lat="43.8668383" lon="7.6249924"><ele>85.33333333333334</ele><time>2026-04-18T08:57:05.959Z</time></trkpt><trkpt lat="43.8666497" lon="7.6249163"><ele>84.66666666666667</ele><time>2026-04-18T08:57:06.959Z</time></trkpt><trkpt lat="43.8664741" lon="7.6248345"><ele>84.0</ele><time>2026-04-18T08:57:07.959Z</time></trkpt><trkpt lat="43.8662944" lon="7.6247569"><ele>84.0</ele><time>2026-04-18T08:57:08.959Z</time></trkpt><trkpt lat="43.8661251" lon="7.6246463"><ele>84.0</ele><time>2026-04-18T08:57:09.959Z</time></trkpt><trkpt lat="43.8659645" lon="7.6245218"><ele>84.0</ele><time>2026-04-18T08:57:10.958Z</time></trkpt><trkpt lat="43.8658143" lon="7.6243739"><ele>83.0</ele><time>2026-04-18T08:57:11.959Z</time></trkpt><trkpt lat="43.8656676" lon="7.6242239"><ele>82.0</ele><time>2026-04-18T08:57:12.959Z</time></trkpt><trkpt lat="43.8655282" lon="7.6240647"><ele>81.0</ele><time>2026-04-18T08:57:13.959Z</time></trkpt><trkpt lat="43.8653914" lon="7.6239114"><ele>81.0</ele><time>2026-04-18T08:57:14.959Z</time></trkpt><trkpt lat="43.8652597" lon="7.6237608"><ele>81.0</ele><time>2026-04-18T08:57:15.959Z</time></trkpt><trkpt lat="43.865133" lon="7.6236175"><ele>81.0</ele><time>2026-04-18T08:57:16.959Z</time></trkpt><trkpt lat="43.8650121" lon="7.6234752"><ele>79.5</ele><time>2026-04-18T08:57:17.959Z</time></trkpt><trkpt lat="43.8649009" lon="7.6233388"><ele>78.0</ele><time>2026-04-18T08:57:18.959Z</time></trkpt><trkpt lat="43.8647959" lon="7.6232043"><ele>76.5</ele><time>2026-04-18T08:57:19.959Z</time></trkpt><trkpt lat="43.8646878" lon="7.6230735"><ele>75.0</ele><time>2026-04-18T08:57:20.959Z</time></trkpt><trkpt lat="43.8645811" lon="7.6229456"><ele>75.0</ele><time>2026-04-18T08:57:21.958Z</time></trkpt><trkpt lat="43.8644677" lon="7.6228375"><ele>75.0</ele><time>2026-04-18T08:57:22.959Z</time></trkpt><trkpt lat="43.8643516" lon="7.6227579"><ele>75.0</ele><time>2026-04-18T08:57:23.959Z</time></trkpt><trkpt lat="43.8642315" lon="7.6226968"><ele>75.0</ele><time>2026-04-18T08:57:24.959Z</time></trkpt><trkpt lat="43.8640934" lon="7.6226784"><ele>76.75</ele><time>2026-04-18T08:57:25.959Z</time></trkpt><trkpt lat="43.8639586" lon="7.6226637"><ele>78.5</ele><time>2026-04-18T08:57:26.959Z</time></trkpt><trkpt lat="43.8638331" lon="7.6226758"><ele>80.25</ele><time>2026-04-18T08:57:27.959Z</time></trkpt><trkpt lat="43.8637063" lon="7.6227152"><ele>82.0</ele><time>2026-04-18T08:57:28.959Z</time></trkpt><trkpt lat="43.8635792" lon="7.6227577"><ele>82.0</ele><time>2026-04-18T08:57:29.959Z</time></trkpt><trkpt lat="43.863454" lon="7.6227932"><ele>82.0</ele><time>2026-04-18T08:57:30.958Z</time></trkpt><trkpt lat="43.8633337" lon="7.6228275"><ele>82.0</ele><time>2026-04-18T08:57:31.958Z</time></trkpt><trkpt lat="43.8632191" lon="7.622843"><ele>82.0</ele><time>2026-04-18T08:57:32.959Z</time></trkpt><trkpt lat="43.8631129" lon="7.6228567"><ele>81.71428571428571</ele><time>2026-04-18T08:57:33.959Z</time></trkpt><trkpt lat="43.8630438" lon="7.6228439"><ele>81.42857142857143</ele><time>2026-04-18T08:57:34.959Z</time></trkpt><trkpt lat="43.8629803" lon="7.6228309"><ele>81.14285714285714</ele><time>2026-04-18T08:57:35.959Z</time></trkpt><trkpt lat="43.8629148" lon="7.6228209"><ele>80.85714285714286</ele><time>2026-04-18T08:57:36.959Z</time></trkpt><trkpt lat="43.8628429" lon="7.6228066"><ele>80.57142857142857</ele><time>2026-04-18T08:57:37.959Z</time></trkpt><trkpt lat="43.8627719" lon="7.6227806"><ele>80.28571428571428</ele><time>2026-04-18T08:57:38.959Z</time></trkpt><trkpt lat="43.8626947" lon="7.6227446"><ele>80.0</ele><time>2026-04-18T08:57:39.959Z</time></trkpt><trkpt lat="43.8626131" lon="7.6226847"><ele>79.0</ele><time>2026-04-18T08:57:40.959Z</time></trkpt><trkpt lat="43.8625169" lon="7.6226317"><ele>78.0</ele><time>2026-04-18T08:57:41.959Z</time></trkpt><trkpt lat="43.8624216" lon="7.6225742"><ele>77.0</ele><time>2026-04-18T08:57:42.959Z</time></trkpt><trkpt lat="43.8623277" lon="7.6225225"><ele>76.0</ele><time>2026-04-18T08:57:43.959Z</time></trkpt><trkpt lat="43.862251" lon="7.6224411"><ele>75.0</ele><time>2026-04-18T08:57:44.958Z</time></trkpt><trkpt lat="43.8621887" lon="7.6223424"><ele>75.0</ele><time>2026-04-18T08:57:45.959Z</time></trkpt><trkpt lat="43.8621336" lon="7.6222428"><ele>75.0</ele><time>2026-04-18T08:57:46.959Z</time></trkpt><trkpt lat="43.8620727" lon="7.6221566"><ele>75.0</ele><time>2026-04-18T08:57:47.958Z</time></trkpt><trkpt lat="43.8619921" lon="7.6220966"><ele>75.0</ele><time>2026-04-18T08:57:48.959Z</time></trkpt><trkpt lat="43.8619025" lon="7.6220666"><ele>75.0</ele><time>2026-04-18T08:57:49.959Z</time></trkpt><trkpt lat="43.8618007" lon="7.6220632"><ele>73.8</ele><time>2026-04-18T08:57:50.959Z</time></trkpt><trkpt lat="43.8617004" lon="7.6220673"><ele>72.6</ele><time>2026-04-18T08:57:51.959Z</time></trkpt><trkpt lat="43.8616059" lon="7.6220971"><ele>71.4</ele><time>2026-04-18T08:57:52.959Z</time></trkpt><trkpt lat="43.8615111" lon="7.6221614"><ele>70.2</ele><time>2026-04-18T08:57:53.958Z</time></trkpt><trkpt lat="43.8614315" lon="7.6222512"><ele>69.0</ele><time>2026-04-18T08:57:54.959Z</time></trkpt><trkpt lat="43.8613685" lon="7.6223736"><ele>69.0</ele><time>2026-04-18T08:57:55.959Z</time></trkpt><trkpt lat="43.8613247" lon="7.6225176"><ele>69.0</ele><time>2026-04-18T08:57:56.959Z</time></trkpt><trkpt lat="43.8612961" lon="7.6226709"><ele>69.0</ele><time>2026-04-18T08:57:57.959Z</time></trkpt><trkpt lat="43.8612604" lon="7.6227984"><ele>69.0</ele><time>2026-04-18T08:57:58.959Z</time></trkpt><trkpt lat="43.8612224" lon="7.6228967"><ele>69.0</ele><time>2026-04-18T08:57:59.959Z</time></trkpt><trkpt lat="43.8611791" lon="7.6229952"><ele>69.4</ele><time>2026-04-18T08:58:01.958Z</time></trkpt><trkpt lat="43.8611202" lon="7.623064"><ele>69.80000000000001</ele><time>2026-04-18T08:58:03.959Z</time></trkpt><trkpt lat="43.8610464" lon="7.6231448"><ele>70.19999999999999</ele><time>2026-04-18T08:58:05.959Z</time></trkpt><trkpt lat="43.8609437" lon="7.6232203"><ele>70.6</ele><time>2026-04-18T08:58:07.959Z</time></trkpt><trkpt lat="43.860833" lon="7.6233055"><ele>71.0</ele><time>2026-04-18T08:58:09.959Z</time></trkpt><trkpt lat="43.8607725" lon="7.6233396"><ele>71.25</ele><time>2026-04-18T08:58:10.959Z</time></trkpt><trkpt lat="43.8606531" lon="7.6234452"><ele>71.5</ele><time>2026-04-18T08:58:12.959Z</time></trkpt><trkpt lat="43.860568" lon="7.6235213"><ele>71.75</ele><time>2026-04-18T08:58:13.958Z</time></trkpt><trkpt lat="43.86046" lon="7.6236007"><ele>72.0</ele><time>2026-04-18T08:58:14.959Z</time></trkpt><trkpt lat="43.8603155" lon="7.623658"><ele>71.33333333333333</ele><time>2026-04-18T08:58:15.959Z</time></trkpt><trkpt lat="43.8601553" lon="7.6237049"><ele>70.66666666666666</ele><time>2026-04-18T08:58:16.959Z</time></trkpt><trkpt lat="43.8599961" lon="7.6237376"><ele>70.0</ele><time>2026-04-18T08:58:17.959Z</time></trkpt><trkpt lat="43.8598367" lon="7.6237423"><ele>68.66666666666666</ele><time>2026-04-18T08:58:18.959Z</time></trkpt><trkpt lat="43.8596759" lon="7.6237531"><ele>67.33333333333333</ele><time>2026-04-18T08:58:19.959Z</time></trkpt><trkpt lat="43.8595081" lon="7.6237701"><ele>66.0</ele><time>2026-04-18T08:58:20.959Z</time></trkpt><trkpt lat="43.8593357" lon="7.6237899"><ele>65.66666666666667</ele><time>2026-04-18T08:58:21.959Z</time></trkpt><trkpt lat="43.8591518" lon="7.6238127"><ele>65.33333333333334</ele><time>2026-04-18T08:58:22.959Z</time></trkpt><trkpt lat="43.858956" lon="7.6238303"><ele>65.0</ele><time>2026-04-18T08:58:23.959Z</time></trkpt><trkpt lat="43.8587513" lon="7.6238478"><ele>65.0</ele><time>2026-04-18T08:58:24.959Z</time></trkpt><trkpt lat="43.8585472" lon="7.6238662"><ele>65.0</ele><time>2026-04-18T08:58:25.959Z</time></trkpt><trkpt lat="43.8583499" lon="7.6238876"><ele>65.0</ele><time>2026-04-18T08:58:26.959Z</time></trkpt><trkpt lat="43.8581516" lon="7.623905"><ele>64.33333333333334</ele><time>2026-04-18T08:58:27.959Z</time></trkpt><trkpt lat="43.8579545" lon="7.6239138"><ele>63.66666666666667</ele><time>2026-04-18T08:58:28.959Z</time></trkpt><trkpt lat="43.857759" lon="7.6239118"><ele>63.0</ele><time>2026-04-18T08:58:29.959Z</time></trkpt><trkpt lat="43.857566" lon="7.6238928"><ele>63.0</ele><time>2026-04-18T08:58:30.959Z</time></trkpt><trkpt lat="43.8573622" lon="7.6238622"><ele>63.0</ele><time>2026-04-18T08:58:31.959Z</time></trkpt><trkpt lat="43.8571611" lon="7.6238259"><ele>63.0</ele><time>2026-04-18T08:58:32.959Z</time></trkpt><trkpt lat="43.856956" lon="7.6237912"><ele>63.33333333333333</ele><time>2026-04-18T08:58:33.959Z</time></trkpt><trkpt lat="43.8567578" lon="7.6237577"><ele>63.666666666666664</ele><time>2026-04-18T08:58:34.959Z</time></trkpt><trkpt lat="43.8565681" lon="7.6237234"><ele>64.0</ele><time>2026-04-18T08:58:35.959Z</time></trkpt><trkpt lat="43.856383" lon="7.623688"><ele>64.0</ele><time>2026-04-18T08:58:36.959Z</time></trkpt><trkpt lat="43.8562029" lon="7.6236733"><ele>64.0</ele><time>2026-04-18T08:58:37.959Z</time></trkpt><trkpt lat="43.8560193" lon="7.6236798"><ele>64.0</ele><time>2026-04-18T08:58:38.959Z</time></trkpt><trkpt lat="43.8558349" lon="7.6237018"><ele>63.33333333333333</ele><time>2026-04-18T08:58:39.958Z</time></trkpt><trkpt lat="43.8556479" lon="7.6237368"><ele>62.66666666666667</ele><time>2026-04-18T08:58:40.959Z</time></trkpt><trkpt lat="43.8554658" lon="7.6237732"><ele>62.0</ele><time>2026-04-18T08:58:41.959Z</time></trkpt><trkpt lat="43.8552839" lon="7.6238136"><ele>62.66666666666667</ele><time>2026-04-18T08:58:42.959Z</time></trkpt><trkpt lat="43.8551107" lon="7.6238461"><ele>63.33333333333333</ele><time>2026-04-18T08:58:43.959Z</time></trkpt><trkpt lat="43.8549515" lon="7.6238813"><ele>64.0</ele><time>2026-04-18T08:58:44.959Z</time></trkpt><trkpt lat="43.8547938" lon="7.6239163"><ele>64.0</ele><time>2026-04-18T08:58:45.959Z</time></trkpt><trkpt lat="43.8546451" lon="7.6239494"><ele>64.0</ele><time>2026-04-18T08:58:46.959Z</time></trkpt><trkpt lat="43.8545028" lon="7.6239801"><ele>64.0</ele><time>2026-04-18T08:58:47.958Z</time></trkpt><trkpt lat="43.854359" lon="7.6240032"><ele>64.0</ele><time>2026-04-18T08:58:48.959Z</time></trkpt><trkpt lat="43.8542244" lon="7.6240299"><ele>63.0</ele><time>2026-04-18T08:58:49.959Z</time></trkpt><trkpt lat="43.8540905" lon="7.6240543"><ele>62.0</ele><time>2026-04-18T08:58:50.959Z</time></trkpt><trkpt lat="43.8539514" lon="7.624079"><ele>61.0</ele><time>2026-04-18T08:58:51.959Z</time></trkpt><trkpt lat="43.8538062" lon="7.6241123"><ele>60.0</ele><time>2026-04-18T08:58:52.959Z</time></trkpt><trkpt lat="43.8536605" lon="7.6241399"><ele>60.0</ele><time>2026-04-18T08:58:53.959Z</time></trkpt><trkpt lat="43.8535125" lon="7.6241669"><ele>60.0</ele><time>2026-04-18T08:58:54.959Z</time></trkpt><trkpt lat="43.8533581" lon="7.624196"><ele>60.0</ele><time>2026-04-18T08:58:55.958Z</time></trkpt><trkpt lat="43.8532173" lon="7.6242215"><ele>60.0</ele><time>2026-04-18T08:58:56.959Z</time></trkpt><trkpt lat="43.8530847" lon="7.6242451"><ele>60.25</ele><time>2026-04-18T08:58:57.959Z</time></trkpt><trkpt lat="43.8529518" lon="7.6242601"><ele>60.5</ele><time>2026-04-18T08:58:58.959Z</time></trkpt><trkpt lat="43.8528283" lon="7.6242496"><ele>60.75</ele><time>2026-04-18T08:58:59.959Z</time></trkpt><trkpt lat="43.8527036" lon="7.624207"><ele>61.0</ele><time>2026-04-18T08:59:00.959Z</time></trkpt><trkpt lat="43.8525852" lon="7.624154"><ele>61.0</ele><time>2026-04-18T08:59:01.959Z</time></trkpt><trkpt lat="43.8524795" lon="7.6240895"><ele>60.99999999999999</ele><time>2026-04-18T08:59:02.959Z</time></trkpt><trkpt lat="43.8523915" lon="7.6240281"><ele>60.99999999999999</ele><time>2026-04-18T08:59:03.959Z</time></trkpt><trkpt lat="43.8522968" lon="7.6239646"><ele>61.0</ele><time>2026-04-18T08:59:04.959Z</time></trkpt><trkpt lat="43.8522045" lon="7.6239052"><ele>61.0</ele><time>2026-04-18T08:59:05.959Z</time></trkpt><trkpt lat="43.8521099" lon="7.6238472"><ele>61.0</ele><time>2026-04-18T08:59:06.959Z</time></trkpt><trkpt lat="43.8520002" lon="7.6237857"><ele>60.99999999999999</ele><time>2026-04-18T08:59:07.959Z</time></trkpt><trkpt lat="43.8518974" lon="7.6237155"><ele>60.99999999999999</ele><time>2026-04-18T08:59:08.959Z</time></trkpt><trkpt lat="43.8518035" lon="7.6236503"><ele>61.0</ele><time>2026-04-18T08:59:09.958Z</time></trkpt><trkpt lat="43.8517096" lon="7.6235913"><ele>61.0</ele><time>2026-04-18T08:59:10.959Z</time></trkpt><trkpt lat="43.851618" lon="7.6235377"><ele>61.599999999999994</ele><time>2026-04-18T08:59:11.959Z</time></trkpt><trkpt lat="43.8515225" lon="7.6234872"><ele>62.199999999999996</ele><time>2026-04-18T08:59:12.959Z</time></trkpt><trkpt lat="43.8514269" lon="7.6234278"><ele>62.800000000000004</ele><time>2026-04-18T08:59:13.959Z</time></trkpt><trkpt lat="43.8513336" lon="7.6233723"><ele>63.400000000000006</ele><time>2026-04-18T08:59:14.959Z</time></trkpt><trkpt lat="43.8512444" lon="7.6233036"><ele>64.0</ele><time>2026-04-18T08:59:15.959Z</time></trkpt><trkpt lat="43.8511427" lon="7.6232315"><ele>64.0</ele><time>2026-04-18T08:59:16.959Z</time></trkpt><trkpt lat="43.8510426" lon="7.6231647"><ele>64.0</ele><time>2026-04-18T08:59:17.959Z</time></trkpt><trkpt lat="43.8509412" lon="7.6231083"><ele>64.0</ele><time>2026-04-18T08:59:18.959Z</time></trkpt><trkpt lat="43.8508465" lon="7.6230478"><ele>64.0</ele><time>2026-04-18T08:59:19.959Z</time></trkpt><trkpt lat="43.8507452" lon="7.6229847"><ele>64.0</ele><time>2026-04-18T08:59:20.959Z</time></trkpt><trkpt lat="43.8506395" lon="7.6229463"><ele>63.25</ele><time>2026-04-18T08:59:21.959Z</time></trkpt><trkpt lat="43.8505319" lon="7.6229513"><ele>62.5</ele><time>2026-04-18T08:59:22.959Z</time></trkpt><trkpt lat="43.8504258" lon="7.6229836"><ele>61.75</ele><time>2026-04-18T08:59:23.959Z</time></trkpt><trkpt lat="43.8503203" lon="7.623047"><ele>61.0</ele><time>2026-04-18T08:59:24.959Z</time></trkpt><trkpt lat="43.8502038" lon="7.6231262"><ele>61.0</ele><time>2026-04-18T08:59:25.959Z</time></trkpt><trkpt lat="43.85008" lon="7.6231958"><ele>61.0</ele><time>2026-04-18T08:59:26.959Z</time></trkpt><trkpt lat="43.8499585" lon="7.6232542"><ele>61.0</ele><time>2026-04-18T08:59:27.959Z</time></trkpt><trkpt lat="43.8498373" lon="7.6233127"><ele>61.0</ele><time>2026-04-18T08:59:28.959Z</time></trkpt><trkpt lat="43.8497192" lon="7.6233747"><ele>61.0</ele><time>2026-04-18T08:59:29.959Z</time></trkpt><trkpt lat="43.849599" lon="7.6234349"><ele>61.0</ele><time>2026-04-18T08:59:30.959Z</time></trkpt><trkpt lat="43.8494781" lon="7.6234886"><ele>61.0</ele><time>2026-04-18T08:59:31.959Z</time></trkpt><trkpt lat="43.8493541" lon="7.6235443"><ele>61.0</ele><time>2026-04-18T08:59:32.959Z</time></trkpt><trkpt lat="43.8492192" lon="7.623591"><ele>60.5</ele><time>2026-04-18T08:59:33.959Z</time></trkpt><trkpt lat="43.8490742" lon="7.6236304"><ele>60.0</ele><time>2026-04-18T08:59:34.959Z</time></trkpt><trkpt lat="43.8489399" lon="7.6236548"><ele>59.5</ele><time>2026-04-18T08:59:35.959Z</time></trkpt><trkpt lat="43.8488273" lon="7.623658"><ele>59.0</ele><time>2026-04-18T08:59:36.959Z</time></trkpt><trkpt lat="43.8487405" lon="7.6236734"><ele>58.16666666666667</ele><time>2026-04-18T08:59:37.959Z</time></trkpt><trkpt lat="43.8486399" lon="7.6236932"><ele>57.333333333333336</ele><time>2026-04-18T08:59:39.959Z</time></trkpt><trkpt lat="43.8485655" lon="7.6237105"><ele>56.5</ele><time>2026-04-18T08:59:41.959Z</time></trkpt><trkpt lat="43.8485023" lon="7.6237156"><ele>55.66666666666667</ele><time>2026-04-18T08:59:43.959Z</time></trkpt><trkpt lat="43.848432" lon="7.6237396"><ele>54.833333333333336</ele><time>2026-04-18T08:59:45.959Z</time></trkpt><trkpt lat="43.848311" lon="7.6237581"><ele>54.0</ele><time>2026-04-18T08:59:47.959Z</time></trkpt><trkpt lat="43.8482295" lon="7.6237776"><ele>54.0</ele><time>2026-04-18T08:59:48.959Z</time></trkpt><trkpt lat="43.848155" lon="7.6237959"><ele>54.0</ele><time>2026-04-18T08:59:49.959Z</time></trkpt><trkpt lat="43.8480921" lon="7.6238022"><ele>54.0</ele><time>2026-04-18T08:59:50.958Z</time></trkpt><trkpt lat="43.8480201" lon="7.6238202"><ele>54.0</ele><time>2026-04-18T08:59:51.959Z</time></trkpt><trkpt lat="43.8479334" lon="7.6238337"><ele>54.0</ele><time>2026-04-18T08:59:52.959Z</time></trkpt><trkpt lat="43.847827" lon="7.6238406"><ele>54.0</ele><time>2026-04-18T08:59:53.959Z</time></trkpt><trkpt lat="43.8477101" lon="7.6238528"><ele>53.75</ele><time>2026-04-18T08:59:54.959Z</time></trkpt><trkpt lat="43.8475863" lon="7.623882"><ele>53.5</ele><time>2026-04-18T08:59:55.959Z</time></trkpt><trkpt lat="43.8474571" lon="7.6239091"><ele>53.25</ele><time>2026-04-18T08:59:56.959Z</time></trkpt><trkpt lat="43.8473243" lon="7.623934"><ele>53.0</ele><time>2026-04-18T08:59:57.959Z</time></trkpt><trkpt lat="43.8471842" lon="7.6239596"><ele>53.0</ele><time>2026-04-18T08:59:58.959Z</time></trkpt><trkpt lat="43.8470435" lon="7.6239875"><ele>53.0</ele><time>2026-04-18T08:59:59.959Z</time></trkpt><trkpt lat="43.8468944" lon="7.6240108"><ele>53.0</ele><time>2026-04-18T09:00:00.959Z</time></trkpt><trkpt lat="43.846738" lon="7.6240463"><ele>53.5</ele><time>2026-04-18T09:00:01.959Z</time></trkpt><trkpt lat="43.846584" lon="7.6240784"><ele>54.0</ele><time>2026-04-18T09:00:02.958Z</time></trkpt><trkpt lat="43.8464396" lon="7.6241073"><ele>54.5</ele><time>2026-04-18T09:00:03.959Z</time></trkpt><trkpt lat="43.8462943" lon="7.6241393"><ele>55.0</ele><time>2026-04-18T09:00:04.959Z</time></trkpt><trkpt lat="43.8461473" lon="7.624182"><ele>55.0</ele><time>2026-04-18T09:00:05.959Z</time></trkpt><trkpt lat="43.8459931" lon="7.624238"><ele>55.0</ele><time>2026-04-18T09:00:06.959Z</time></trkpt><trkpt lat="43.8458315" lon="7.6243014"><ele>55.0</ele><time>2026-04-18T09:00:07.959Z</time></trkpt><trkpt lat="43.8456609" lon="7.6243625"><ele>55.33333333333333</ele><time>2026-04-18T09:00:08.958Z</time></trkpt><trkpt lat="43.8454806" lon="7.6244189"><ele>55.66666666666667</ele><time>2026-04-18T09:00:09.959Z</time></trkpt><trkpt lat="43.8453046" lon="7.6244696"><ele>56.0</ele><time>2026-04-18T09:00:10.959Z</time></trkpt><trkpt lat="43.8451196" lon="7.6245102"><ele>56.0</ele><time>2026-04-18T09:00:11.959Z</time></trkpt><trkpt lat="43.8449347" lon="7.6245418"><ele>56.0</ele><time>2026-04-18T09:00:12.959Z</time></trkpt><trkpt lat="43.84475" lon="7.6245683"><ele>56.0</ele><time>2026-04-18T09:00:13.959Z</time></trkpt><trkpt lat="43.8445607" lon="7.6246105"><ele>56.0</ele><time>2026-04-18T09:00:14.959Z</time></trkpt><trkpt lat="43.8443607" lon="7.6246665"><ele>56.0</ele><time>2026-04-18T09:00:15.958Z</time></trkpt><trkpt lat="43.8441665" lon="7.6247334"><ele>56.0</ele><time>2026-04-18T09:00:16.959Z</time></trkpt><trkpt lat="43.8439777" lon="7.6247981"><ele>56.66666666666667</ele><time>2026-04-18T09:00:17.959Z</time></trkpt><trkpt lat="43.8437953" lon="7.6248507"><ele>57.33333333333333</ele><time>2026-04-18T09:00:18.959Z</time></trkpt><trkpt lat="43.8436229" lon="7.624903"><ele>58.0</ele><time>2026-04-18T09:00:19.959Z</time></trkpt><trkpt lat="43.8434513" lon="7.624973"><ele>58.666666666666664</ele><time>2026-04-18T09:00:20.958Z</time></trkpt><trkpt lat="43.8432789" lon="7.6250705"><ele>59.33333333333333</ele><time>2026-04-18T09:00:21.959Z</time></trkpt><trkpt lat="43.8431073" lon="7.6251872"><ele>60.0</ele><time>2026-04-18T09:00:22.959Z</time></trkpt><trkpt lat="43.8429396" lon="7.6253227"><ele>59.33333333333333</ele><time>2026-04-18T09:00:23.958Z</time></trkpt><trkpt lat="43.8427777" lon="7.6254488"><ele>58.666666666666664</ele><time>2026-04-18T09:00:24.959Z</time></trkpt><trkpt lat="43.8426223" lon="7.6255675"><ele>58.0</ele><time>2026-04-18T09:00:25.959Z</time></trkpt><trkpt lat="43.8424619" lon="7.6256695"><ele>58.0</ele><time>2026-04-18T09:00:26.959Z</time></trkpt><trkpt lat="43.8422919" lon="7.6257431"><ele>58.0</ele><time>2026-04-18T09:00:27.959Z</time></trkpt><trkpt lat="43.8421055" lon="7.6257844"><ele>58.0</ele><time>2026-04-18T09:00:28.959Z</time></trkpt><trkpt lat="43.8419194" lon="7.6258072"><ele>59.33333333333333</ele><time>2026-04-18T09:00:29.958Z</time></trkpt><trkpt lat="43.8417298" lon="7.6258305"><ele>60.66666666666667</ele><time>2026-04-18T09:00:30.959Z</time></trkpt><trkpt lat="43.8415349" lon="7.6258515"><ele>62.0</ele><time>2026-04-18T09:00:31.959Z</time></trkpt><trkpt lat="43.8413394" lon="7.6258717"><ele>62.0</ele><time>2026-04-18T09:00:32.959Z</time></trkpt><trkpt lat="43.8411412" lon="7.6258779"><ele>62.0</ele><time>2026-04-18T09:00:33.958Z</time></trkpt><trkpt lat="43.8409381" lon="7.6258621"><ele>62.0</ele><time>2026-04-18T09:00:34.958Z</time></trkpt><trkpt lat="43.8407424" lon="7.6258451"><ele>62.333333333333336</ele><time>2026-04-18T09:00:35.959Z</time></trkpt><trkpt lat="43.8405498" lon="7.6258423"><ele>62.66666666666667</ele><time>2026-04-18T09:00:36.958Z</time></trkpt><trkpt lat="43.840378" lon="7.625865"><ele>63.0</ele><time>2026-04-18T09:00:37.959Z</time></trkpt><trkpt lat="43.84022" lon="7.6259098"><ele>66.66666666666667</ele><time>2026-04-18T09:00:38.959Z</time></trkpt><trkpt lat="43.8400669" lon="7.6259624"><ele>70.33333333333334</ele><time>2026-04-18T09:00:39.959Z</time></trkpt><trkpt lat="43.8399252" lon="7.6260365"><ele>74.0</ele><time>2026-04-18T09:00:40.959Z</time></trkpt><trkpt lat="43.8398009" lon="7.6261415"><ele>66.66666666666667</ele><time>2026-04-18T09:00:41.959Z</time></trkpt><trkpt lat="43.8396866" lon="7.6262672"><ele>59.33333333333333</ele><time>2026-04-18T09:00:42.959Z</time></trkpt><trkpt lat="43.8395746" lon="7.6264356"><ele>52.0</ele><time>2026-04-18T09:00:43.959Z</time></trkpt><trkpt lat="43.8394423" lon="7.6265621"><ele>56.666666666666664</ele><time>2026-04-18T09:00:44.959Z</time></trkpt><trkpt lat="43.839297" lon="7.6266606"><ele>61.33333333333333</ele><time>2026-04-18T09:00:45.959Z</time></trkpt><trkpt lat="43.8391455" lon="7.6267389"><ele>66.0</ele><time>2026-04-18T09:00:46.959Z</time></trkpt><trkpt lat="43.8389709" lon="7.6267898"><ele>66.0</ele><time>2026-04-18T09:00:47.959Z</time></trkpt><trkpt lat="43.8387875" lon="7.6268211"><ele>66.0</ele><time>2026-04-18T09:00:48.959Z</time></trkpt><trkpt lat="43.838611" lon="7.6268261"><ele>66.0</ele><time>2026-04-18T09:00:49.958Z</time></trkpt><trkpt lat="43.838442" lon="7.6268233"><ele>65.33333333333333</ele><time>2026-04-18T09:00:50.959Z</time></trkpt><trkpt lat="43.838279" lon="7.6267819"><ele>64.66666666666666</ele><time>2026-04-18T09:00:51.959Z</time></trkpt><trkpt lat="43.8381146" lon="7.6267064"><ele>64.0</ele><time>2026-04-18T09:00:52.959Z</time></trkpt><trkpt lat="43.8379513" lon="7.6266321"><ele>64.0</ele><time>2026-04-18T09:00:53.959Z</time></trkpt><trkpt lat="43.8377857" lon="7.6265971"><ele>64.0</ele><time>2026-04-18T09:00:54.959Z</time></trkpt><trkpt lat="43.8376093" lon="7.6266008"><ele>64.0</ele><time>2026-04-18T09:00:55.959Z</time></trkpt><trkpt lat="43.837425" lon="7.6266324"><ele>63.33333333333333</ele><time>2026-04-18T09:00:56.959Z</time></trkpt><trkpt lat="43.8372333" lon="7.6266831"><ele>62.66666666666667</ele><time>2026-04-18T09:00:57.959Z</time></trkpt><trkpt lat="43.8370543" lon="7.626731"><ele>62.0</ele><time>2026-04-18T09:00:58.959Z</time></trkpt><trkpt lat="43.836879" lon="7.6267739"><ele>62.66666666666667</ele><time>2026-04-18T09:00:59.958Z</time></trkpt><trkpt lat="43.8367082" lon="7.6268108"><ele>63.33333333333333</ele><time>2026-04-18T09:01:00.959Z</time></trkpt><trkpt lat="43.8365409" lon="7.6268258"><ele>64.0</ele><time>2026-04-18T09:01:01.959Z</time></trkpt><trkpt lat="43.8363722" lon="7.6268081"><ele>64.0</ele><time>2026-04-18T09:01:02.959Z</time></trkpt><trkpt lat="43.8362045" lon="7.6267545"><ele>64.0</ele><time>2026-04-18T09:01:03.959Z</time></trkpt><trkpt lat="43.8360342" lon="7.6266737"><ele>64.0</ele><time>2026-04-18T09:01:04.959Z</time></trkpt><trkpt lat="43.8358631" lon="7.6265988"><ele>61.33333333333333</ele><time>2026-04-18T09:01:05.959Z</time></trkpt><trkpt lat="43.8356854" lon="7.6265504"><ele>58.66666666666667</ele><time>2026-04-18T09:01:06.959Z</time></trkpt><trkpt lat="43.8354992" lon="7.6265421"><ele>56.0</ele><time>2026-04-18T09:01:07.959Z</time></trkpt><trkpt lat="43.8352994" lon="7.6265612"><ele>57.0</ele><time>2026-04-18T09:01:08.959Z</time></trkpt><trkpt lat="43.8350966" lon="7.6265928"><ele>58.0</ele><time>2026-04-18T09:01:09.959Z</time></trkpt><trkpt lat="43.8348945" lon="7.6266218"><ele>59.0</ele><time>2026-04-18T09:01:10.959Z</time></trkpt><trkpt lat="43.8346997" lon="7.6266535"><ele>59.0</ele><time>2026-04-18T09:01:11.959Z</time></trkpt><trkpt lat="43.834506" lon="7.6266837"><ele>59.0</ele><time>2026-04-18T09:01:12.959Z</time></trkpt><trkpt lat="43.8343165" lon="7.6267199"><ele>59.0</ele><time>2026-04-18T09:01:13.959Z</time></trkpt><trkpt lat="43.8341245" lon="7.6267667"><ele>60.66666666666667</ele><time>2026-04-18T09:01:14.959Z</time></trkpt><trkpt lat="43.8339365" lon="7.6268094"><ele>62.33333333333333</ele><time>2026-04-18T09:01:15.959Z</time></trkpt><trkpt lat="43.8337536" lon="7.6268407"><ele>64.0</ele><time>2026-04-18T09:01:16.959Z</time></trkpt><trkpt lat="43.8335685" lon="7.6268611"><ele>66.66666666666666</ele><time>2026-04-18T09:01:17.959Z</time></trkpt><trkpt lat="43.833383" lon="7.6268676"><ele>69.33333333333333</ele><time>2026-04-18T09:01:18.959Z</time></trkpt><trkpt lat="43.833201" lon="7.6268671"><ele>72.0</ele><time>2026-04-18T09:01:19.959Z</time></trkpt><trkpt lat="43.8330307" lon="7.6268514"><ele>72.0</ele><time>2026-04-18T09:01:20.959Z</time></trkpt><trkpt lat="43.8328692" lon="7.6268318"><ele>72.0</ele><time>2026-04-18T09:01:21.959Z</time></trkpt><trkpt lat="43.832709" lon="7.626832"><ele>72.0</ele><time>2026-04-18T09:01:22.959Z</time></trkpt><trkpt lat="43.8325579" lon="7.6268643"><ele>70.33333333333333</ele><time>2026-04-18T09:01:23.959Z</time></trkpt><trkpt lat="43.8324023" lon="7.6269256"><ele>68.66666666666666</ele><time>2026-04-18T09:01:24.959Z</time></trkpt><trkpt lat="43.8322515" lon="7.627053"><ele>67.0</ele><time>2026-04-18T09:01:25.959Z</time></trkpt><trkpt lat="43.8321" lon="7.6271929"><ele>65.0</ele><time>2026-04-18T09:01:26.959Z</time></trkpt><trkpt lat="43.8319396" lon="7.6273367"><ele>63.0</ele><time>2026-04-18T09:01:27.959Z</time></trkpt><trkpt lat="43.8317694" lon="7.627466"><ele>61.0</ele><time>2026-04-18T09:01:28.959Z</time></trkpt><trkpt lat="43.8315872" lon="7.6275713"><ele>61.0</ele><time>2026-04-18T09:01:29.959Z</time></trkpt><trkpt lat="43.8314137" lon="7.6276384"><ele>61.0</ele><time>2026-04-18T09:01:30.959Z</time></trkpt><trkpt lat="43.831237" lon="7.6276849"><ele>61.0</ele><time>2026-04-18T09:01:31.959Z</time></trkpt><trkpt lat="43.8310754" lon="7.6277027"><ele>63.666666666666664</ele><time>2026-04-18T09:01:32.959Z</time></trkpt><trkpt lat="43.8309103" lon="7.6277088"><ele>66.33333333333333</ele><time>2026-04-18T09:01:33.959Z</time></trkpt><trkpt lat="43.8307405" lon="7.6276928"><ele>69.0</ele><time>2026-04-18T09:01:34.959Z</time></trkpt><trkpt lat="43.8305705" lon="7.6276771"><ele>69.0</ele><time>2026-04-18T09:01:35.959Z</time></trkpt><trkpt lat="43.8303998" lon="7.6276891"><ele>69.0</ele><time>2026-04-18T09:01:36.959Z</time></trkpt><trkpt lat="43.8302239" lon="7.6277439"><ele>69.0</ele><time>2026-04-18T09:01:37.959Z</time></trkpt><trkpt lat="43.8300493" lon="7.6278219"><ele>63.66666666666667</ele><time>2026-04-18T09:01:38.959Z</time></trkpt><trkpt lat="43.8298859" lon="7.6278991"><ele>58.333333333333336</ele><time>2026-04-18T09:01:39.958Z</time></trkpt><trkpt lat="43.8297138" lon="7.6279462"><ele>53.0</ele><time>2026-04-18T09:01:40.959Z</time></trkpt><trkpt lat="43.8295202" lon="7.6279498"><ele>53.0</ele><time>2026-04-18T09:01:41.959Z</time></trkpt><trkpt lat="43.8293372" lon="7.627958"><ele>53.0</ele><time>2026-04-18T09:01:42.959Z</time></trkpt><trkpt lat="43.8291612" lon="7.6279691"><ele>53.0</ele><time>2026-04-18T09:01:43.959Z</time></trkpt><trkpt lat="43.8289885" lon="7.6279565"><ele>51.66666666666667</ele><time>2026-04-18T09:01:44.959Z</time></trkpt><trkpt lat="43.8288109" lon="7.62795"><ele>50.33333333333333</ele><time>2026-04-18T09:01:45.959Z</time></trkpt><trkpt lat="43.8286415" lon="7.6279444"><ele>49.0</ele><time>2026-04-18T09:01:46.959Z</time></trkpt><trkpt lat="43.8284814" lon="7.627933"><ele>47.33333333333333</ele><time>2026-04-18T09:01:47.959Z</time></trkpt><trkpt lat="43.828322" lon="7.6279055"><ele>45.666666666666664</ele><time>2026-04-18T09:01:48.959Z</time></trkpt><trkpt lat="43.8281664" lon="7.6278687"><ele>44.0</ele><time>2026-04-18T09:01:49.959Z</time></trkpt><trkpt lat="43.8280195" lon="7.6278273"><ele>45.75</ele><time>2026-04-18T09:01:50.958Z</time></trkpt><trkpt lat="43.8278807" lon="7.6277858"><ele>47.5</ele><time>2026-04-18T09:01:51.959Z</time></trkpt><trkpt lat="43.8277492" lon="7.6277425"><ele>49.25</ele><time>2026-04-18T09:01:52.959Z</time></trkpt><trkpt lat="43.8276196" lon="7.6277028"><ele>51.0</ele><time>2026-04-18T09:01:53.959Z</time></trkpt><trkpt lat="43.8274955" lon="7.6276633"><ele>51.0</ele><time>2026-04-18T09:01:54.959Z</time></trkpt><trkpt lat="43.8273698" lon="7.6276292"><ele>51.0</ele><time>2026-04-18T09:01:55.959Z</time></trkpt><trkpt lat="43.8272406" lon="7.6276134"><ele>51.0</ele><time>2026-04-18T09:01:56.959Z</time></trkpt><trkpt lat="43.8271011" lon="7.6276217"><ele>51.0</ele><time>2026-04-18T09:01:57.959Z</time></trkpt><trkpt lat="43.8269596" lon="7.627656"><ele>51.0</ele><time>2026-04-18T09:01:58.959Z</time></trkpt><trkpt lat="43.826823" lon="7.6277027"><ele>51.0</ele><time>2026-04-18T09:01:59.958Z</time></trkpt><trkpt lat="43.8266909" lon="7.6277576"><ele>51.0</ele><time>2026-04-18T09:02:00.959Z</time></trkpt><trkpt lat="43.8265596" lon="7.6278178"><ele>51.0</ele><time>2026-04-18T09:02:01.959Z</time></trkpt><trkpt lat="43.8264285" lon="7.6278726"><ele>48.5</ele><time>2026-04-18T09:02:02.959Z</time></trkpt><trkpt lat="43.826294" lon="7.6279249"><ele>46.0</ele><time>2026-04-18T09:02:03.959Z</time></trkpt><trkpt lat="43.8261592" lon="7.6279792"><ele>43.5</ele><time>2026-04-18T09:02:04.958Z</time></trkpt><trkpt lat="43.8260279" lon="7.6280368"><ele>41.0</ele><time>2026-04-18T09:02:05.959Z</time></trkpt><trkpt lat="43.825891" lon="7.628098"><ele>41.0</ele><time>2026-04-18T09:02:06.959Z</time></trkpt><trkpt lat="43.825757" lon="7.62816"><ele>41.0</ele><time>2026-04-18T09:02:07.959Z</time></trkpt><trkpt lat="43.8256238" lon="7.6282182"><ele>41.0</ele><time>2026-04-18T09:02:08.959Z</time></trkpt><trkpt lat="43.8254893" lon="7.6282684"><ele>41.0</ele><time>2026-04-18T09:02:09.959Z</time></trkpt><trkpt lat="43.8253532" lon="7.6283144"><ele>41.0</ele><time>2026-04-18T09:02:10.959Z</time></trkpt><trkpt lat="43.8252112" lon="7.628352"><ele>41.0</ele><time>2026-04-18T09:02:11.959Z</time></trkpt><trkpt lat="43.825068" lon="7.6283805"><ele>41.0</ele><time>2026-04-18T09:02:12.959Z</time></trkpt><trkpt lat="43.8249121" lon="7.6283942"><ele>41.0</ele><time>2026-04-18T09:02:13.959Z</time></trkpt><trkpt lat="43.8247591" lon="7.6284071"><ele>41.0</ele><time>2026-04-18T09:02:14.959Z</time></trkpt><trkpt lat="43.8246072" lon="7.6284063"><ele>41.0</ele><time>2026-04-18T09:02:15.959Z</time></trkpt><trkpt lat="43.8244663" lon="7.6284019"><ele>41.0</ele><time>2026-04-18T09:02:16.959Z</time></trkpt><trkpt lat="43.8243283" lon="7.6283983"><ele>41.0</ele><time>2026-04-18T09:02:17.959Z</time></trkpt><trkpt lat="43.8241885" lon="7.6283898"><ele>41.0</ele><time>2026-04-18T09:02:18.959Z</time></trkpt><trkpt lat="43.8240508" lon="7.6283803"><ele>41.0</ele><time>2026-04-18T09:02:19.959Z</time></trkpt><trkpt lat="43.8239111" lon="7.6283707"><ele>41.0</ele><time>2026-04-18T09:02:20.959Z</time></trkpt><trkpt lat="43.8237696" lon="7.628363"><ele>41.0</ele><time>2026-04-18T09:02:21.959Z</time></trkpt><trkpt lat="43.8236278" lon="7.6283563"><ele>41.0</ele><time>2026-04-18T09:02:22.959Z</time></trkpt><trkpt lat="43.8234969" lon="7.6283552"><ele>41.0</ele><time>2026-04-18T09:02:23.958Z</time></trkpt><trkpt lat="43.8233763" lon="7.6283512"><ele>41.0</ele><time>2026-04-18T09:02:24.959Z</time></trkpt><trkpt lat="43.8232618" lon="7.6283429"><ele>41.0</ele><time>2026-04-18T09:02:25.959Z</time></trkpt><trkpt lat="43.823156" lon="7.6283389"><ele>41.199999999999996</ele><time>2026-04-18T09:02:26.959Z</time></trkpt><trkpt lat="43.8230498" lon="7.6283307"><ele>41.4</ele><time>2026-04-18T09:02:27.959Z</time></trkpt><trkpt lat="43.8229438" lon="7.6283237"><ele>41.6</ele><time>2026-04-18T09:02:28.959Z</time></trkpt><trkpt lat="43.8228302" lon="7.6283164"><ele>41.8</ele><time>2026-04-18T09:02:29.959Z</time></trkpt><trkpt lat="43.8227107" lon="7.6283097"><ele>42.0</ele><time>2026-04-18T09:02:30.959Z</time></trkpt><trkpt lat="43.8225915" lon="7.6283081"><ele>42.0</ele><time>2026-04-18T09:02:31.959Z</time></trkpt><trkpt lat="43.8224829" lon="7.6283065"><ele>42.0</ele><time>2026-04-18T09:02:32.959Z</time></trkpt><trkpt lat="43.8223762" lon="7.6282975"><ele>42.0</ele><time>2026-04-18T09:02:33.959Z</time></trkpt><trkpt lat="43.8222664" lon="7.6282868"><ele>42.0</ele><time>2026-04-18T09:02:34.959Z</time></trkpt><trkpt lat="43.8221553" lon="7.6282825"><ele>42.0</ele><time>2026-04-18T09:02:35.959Z</time></trkpt><trkpt lat="43.8220433" lon="7.6282814"><ele>42.0</ele><time>2026-04-18T09:02:36.959Z</time></trkpt><trkpt lat="43.8219273" lon="7.6282711"><ele>42.0</ele><time>2026-04-18T09:02:37.959Z</time></trkpt><trkpt lat="43.8218056" lon="7.6282444"><ele>42.0</ele><time>2026-04-18T09:02:38.959Z</time></trkpt><trkpt lat="43.8216785" lon="7.6281996"><ele>42.0</ele><time>2026-04-18T09:02:39.959Z</time></trkpt><trkpt lat="43.8215506" lon="7.6281565"><ele>42.0</ele><time>2026-04-18T09:02:40.959Z</time></trkpt><trkpt lat="43.821427" lon="7.6281062"><ele>42.0</ele><time>2026-04-18T09:02:41.959Z</time></trkpt><trkpt lat="43.8213039" lon="7.6280553"><ele>42.0</ele><time>2026-04-18T09:02:42.959Z</time></trkpt><trkpt lat="43.8211834" lon="7.6279982"><ele>42.0</ele><time>2026-04-18T09:02:43.959Z</time></trkpt><trkpt lat="43.8210592" lon="7.6279497"><ele>42.0</ele><time>2026-04-18T09:02:44.959Z</time></trkpt><trkpt lat="43.8209429" lon="7.6279039"><ele>42.0</ele><time>2026-04-18T09:02:45.959Z</time></trkpt><trkpt lat="43.8208285" lon="7.6278622"><ele>42.0</ele><time>2026-04-18T09:02:46.959Z</time></trkpt><trkpt lat="43.8207182" lon="7.6278219"><ele>42.0</ele><time>2026-04-18T09:02:47.959Z</time></trkpt><trkpt lat="43.8206088" lon="7.6277856"><ele>42.0</ele><time>2026-04-18T09:02:48.959Z</time></trkpt><trkpt lat="43.8204851" lon="7.6277409"><ele>42.0</ele><time>2026-04-18T09:02:49.958Z</time></trkpt><trkpt lat="43.82036" lon="7.6276924"><ele>42.0</ele><time>2026-04-18T09:02:50.959Z</time></trkpt><trkpt lat="43.820243" lon="7.6276393"><ele>42.0</ele><time>2026-04-18T09:02:51.959Z</time></trkpt><trkpt lat="43.8201198" lon="7.6275842"><ele>42.0</ele><time>2026-04-18T09:02:52.959Z</time></trkpt><trkpt lat="43.8199858" lon="7.6275307"><ele>42.0</ele><time>2026-04-18T09:02:53.959Z</time></trkpt><trkpt lat="43.8198475" lon="7.6274893"><ele>42.0</ele><time>2026-04-18T09:02:54.959Z</time></trkpt><trkpt lat="43.8197016" lon="7.6274649"><ele>42.0</ele><time>2026-04-18T09:02:55.959Z</time></trkpt><trkpt lat="43.8195573" lon="7.6274613"><ele>42.0</ele><time>2026-04-18T09:02:56.958Z</time></trkpt><trkpt lat="43.8194101" lon="7.6274724"><ele>42.0</ele><time>2026-04-18T09:02:57.959Z</time></trkpt><trkpt lat="43.8192704" lon="7.6274901"><ele>42.0</ele><time>2026-04-18T09:02:58.958Z</time></trkpt><trkpt lat="43.8191354" lon="7.6275011"><ele>42.0</ele><time>2026-04-18T09:02:59.959Z</time></trkpt><trkpt lat="43.819003" lon="7.627516"><ele>42.0</ele><time>2026-04-18T09:03:00.959Z</time></trkpt><trkpt lat="43.818872" lon="7.6275285"><ele>42.0</ele><time>2026-04-18T09:03:01.959Z</time></trkpt><trkpt lat="43.8187445" lon="7.6275449"><ele>42.0</ele><time>2026-04-18T09:03:02.959Z</time></trkpt><trkpt lat="43.8186137" lon="7.6275586"><ele>42.0</ele><time>2026-04-18T09:03:03.959Z</time></trkpt><trkpt lat="43.8184757" lon="7.6275761"><ele>42.0</ele><time>2026-04-18T09:03:04.959Z</time></trkpt><trkpt lat="43.8183367" lon="7.6275961"><ele>42.0</ele><time>2026-04-18T09:03:05.959Z</time></trkpt><trkpt lat="43.8182025" lon="7.6276149"><ele>42.0</ele><time>2026-04-18T09:03:06.959Z</time></trkpt><trkpt lat="43.818072" lon="7.6276353"><ele>42.0</ele><time>2026-04-18T09:03:07.959Z</time></trkpt><trkpt lat="43.817941" lon="7.6276467"><ele>42.0</ele><time>2026-04-18T09:03:08.958Z</time></trkpt><trkpt lat="43.8178122" lon="7.6276552"><ele>42.0</ele><time>2026-04-18T09:03:09.959Z</time></trkpt><trkpt lat="43.8176817" lon="7.6276675"><ele>42.0</ele><time>2026-04-18T09:03:10.958Z</time></trkpt><trkpt lat="43.8175644" lon="7.6276955"><ele>42.0</ele><time>2026-04-18T09:03:11.959Z</time></trkpt><trkpt lat="43.8174596" lon="7.6277087"><ele>42.0</ele><time>2026-04-18T09:03:12.959Z</time></trkpt><trkpt lat="43.8173422" lon="7.6277174"><ele>42.0</ele><time>2026-04-18T09:03:13.959Z</time></trkpt><trkpt lat="43.8172261" lon="7.6277248"><ele>42.0</ele><time>2026-04-18T09:03:14.959Z</time></trkpt><trkpt lat="43.8171176" lon="7.6277357"><ele>42.0</ele><time>2026-04-18T09:03:15.959Z</time></trkpt><trkpt lat="43.8170127" lon="7.6277451"><ele>42.0</ele><time>2026-04-18T09:03:16.958Z</time></trkpt><trkpt lat="43.8169117" lon="7.6277538"><ele>42.0</ele><time>2026-04-18T09:03:17.959Z</time></trkpt><trkpt lat="43.816812" lon="7.6277648"><ele>42.0</ele><time>2026-04-18T09:03:18.959Z</time></trkpt><trkpt lat="43.8167057" lon="7.6277794"><ele>42.0</ele><time>2026-04-18T09:03:19.959Z</time></trkpt><trkpt lat="43.8166146" lon="7.6277936"><ele>42.0</ele><time>2026-04-18T09:03:20.959Z</time></trkpt><trkpt lat="43.816533" lon="7.6278142"><ele>42.0</ele><time>2026-04-18T09:03:21.959Z</time></trkpt><trkpt lat="43.8164544" lon="7.6278178"><ele>42.0</ele><time>2026-04-18T09:03:22.959Z</time></trkpt><trkpt lat="43.8163667" lon="7.6278111"><ele>42.0</ele><time>2026-04-18T09:03:23.959Z</time></trkpt><trkpt lat="43.8162717" lon="7.6278023"><ele>42.0</ele><time>2026-04-18T09:03:24.959Z</time></trkpt><trkpt lat="43.8161866" lon="7.6277463"><ele>42.0</ele><time>2026-04-18T09:03:25.959Z</time></trkpt><trkpt lat="43.8161107" lon="7.6276686"><ele>42.0</ele><time>2026-04-18T09:03:26.958Z</time></trkpt><trkpt lat="43.816046" lon="7.6275804"><ele>41.333333333333336</ele><time>2026-04-18T09:03:27.959Z</time></trkpt><trkpt lat="43.815986" lon="7.6274988"><ele>40.666666666666664</ele><time>2026-04-18T09:03:28.958Z</time></trkpt><trkpt lat="43.8159287" lon="7.6274271"><ele>40.0</ele><time>2026-04-18T09:03:29.959Z</time></trkpt><trkpt lat="43.8158493" lon="7.6273935"><ele>39.33333333333333</ele><time>2026-04-18T09:03:30.958Z</time></trkpt><trkpt lat="43.8157671" lon="7.6273772"><ele>38.666666666666664</ele><time>2026-04-18T09:03:31.959Z</time></trkpt><trkpt lat="43.8156767" lon="7.6273708"><ele>38.0</ele><time>2026-04-18T09:03:32.959Z</time></trkpt><trkpt lat="43.8155872" lon="7.6273597"><ele>38.0</ele><time>2026-04-18T09:03:33.959Z</time></trkpt><trkpt lat="43.815506" lon="7.6273574"><ele>38.0</ele><time>2026-04-18T09:03:34.959Z</time></trkpt><trkpt lat="43.8154151" lon="7.6273564"><ele>38.0</ele><time>2026-04-18T09:03:35.959Z</time></trkpt><trkpt lat="43.8153155" lon="7.6273869"><ele>38.0</ele><time>2026-04-18T09:03:36.959Z</time></trkpt><trkpt lat="43.815228" lon="7.62744"><ele>38.0</ele><time>2026-04-18T09:03:37.959Z</time></trkpt><trkpt lat="43.815149" lon="7.6275159"><ele>37.199999999999996</ele><time>2026-04-18T09:03:38.959Z</time></trkpt><trkpt lat="43.8150699" lon="7.6275881"><ele>36.4</ele><time>2026-04-18T09:03:39.959Z</time></trkpt><trkpt lat="43.8149934" lon="7.627659"><ele>35.599999999999994</ele><time>2026-04-18T09:03:40.959Z</time></trkpt><trkpt lat="43.8149186" lon="7.6277244"><ele>34.8</ele><time>2026-04-18T09:03:41.959Z</time></trkpt><trkpt lat="43.814837" lon="7.6277902"><ele>34.0</ele><time>2026-04-18T09:03:42.959Z</time></trkpt><trkpt lat="43.8147682" lon="7.6278534"><ele>34.0</ele><time>2026-04-18T09:03:43.959Z</time></trkpt><trkpt lat="43.8147004" lon="7.6279208"><ele>34.0</ele><time>2026-04-18T09:03:44.959Z</time></trkpt><trkpt lat="43.8146344" lon="7.6279854"><ele>34.0</ele><time>2026-04-18T09:03:45.959Z</time></trkpt><trkpt lat="43.8145591" lon="7.6280514"><ele>34.0</ele><time>2026-04-18T09:03:46.959Z</time></trkpt><trkpt lat="43.8144825" lon="7.6281144"><ele>34.0</ele><time>2026-04-18T09:03:47.959Z</time></trkpt><trkpt lat="43.8144121" lon="7.6281864"><ele>34.0</ele><time>2026-04-18T09:03:48.958Z</time></trkpt><trkpt lat="43.8143432" lon="7.6282634"><ele>32.833333333333336</ele><time>2026-04-18T09:03:49.959Z</time></trkpt><trkpt lat="43.8142853" lon="7.6283542"><ele>31.666666666666668</ele><time>2026-04-18T09:03:50.959Z</time></trkpt><trkpt lat="43.8142394" lon="7.6284431"><ele>30.5</ele><time>2026-04-18T09:03:51.959Z</time></trkpt><trkpt lat="43.8141947" lon="7.6285268"><ele>29.333333333333336</ele><time>2026-04-18T09:03:52.959Z</time></trkpt><trkpt lat="43.8141406" lon="7.6286078"><ele>28.166666666666668</ele><time>2026-04-18T09:03:53.959Z</time></trkpt><trkpt lat="43.8140838" lon="7.6286803"><ele>27.0</ele><time>2026-04-18T09:03:54.959Z</time></trkpt><trkpt lat="43.8140164" lon="7.628735"><ele>26.833333333333332</ele><time>2026-04-18T09:03:55.959Z</time></trkpt><trkpt lat="43.8139482" lon="7.6287849"><ele>26.666666666666664</ele><time>2026-04-18T09:03:56.959Z</time></trkpt><trkpt lat="43.813874" lon="7.6288218"><ele>26.5</ele><time>2026-04-18T09:03:57.959Z</time></trkpt><trkpt lat="43.8137896" lon="7.6288513"><ele>26.333333333333332</ele><time>2026-04-18T09:03:58.959Z</time></trkpt><trkpt lat="43.8137061" lon="7.6288695"><ele>26.166666666666664</ele><time>2026-04-18T09:03:59.959Z</time></trkpt><trkpt lat="43.8136294" lon="7.6288873"><ele>26.0</ele><time>2026-04-18T09:04:00.958Z</time></trkpt><trkpt lat="43.8135573" lon="7.6289015"><ele>26.0</ele><time>2026-04-18T09:04:01.959Z</time></trkpt><trkpt lat="43.8134907" lon="7.6289075"><ele>26.0</ele><time>2026-04-18T09:04:02.959Z</time></trkpt><trkpt lat="43.8134218" lon="7.6289133"><ele>26.0</ele><time>2026-04-18T09:04:03.959Z</time></trkpt><trkpt lat="43.8133399" lon="7.6289054"><ele>26.0</ele><time>2026-04-18T09:04:04.959Z</time></trkpt><trkpt lat="43.8132597" lon="7.6288955"><ele>26.0</ele><time>2026-04-18T09:04:05.958Z</time></trkpt><trkpt lat="43.8131885" lon="7.628878"><ele>26.0</ele><time>2026-04-18T09:04:06.959Z</time></trkpt><trkpt lat="43.8131189" lon="7.6288527"><ele>26.0</ele><time>2026-04-18T09:04:07.959Z</time></trkpt><trkpt lat="43.8130512" lon="7.6288275"><ele>25.8</ele><time>2026-04-18T09:04:08.959Z</time></trkpt><trkpt lat="43.8129921" lon="7.6287935"><ele>25.6</ele><time>2026-04-18T09:04:09.959Z</time></trkpt><trkpt lat="43.8128876" lon="7.6287368"><ele>25.4</ele><time>2026-04-18T09:04:11.959Z</time></trkpt><trkpt lat="43.8127864" lon="7.6286887"><ele>25.2</ele><time>2026-04-18T09:04:13.959Z</time></trkpt><trkpt lat="43.8126744" lon="7.628651"><ele>25.0</ele><time>2026-04-18T09:04:15.958Z</time></trkpt><trkpt lat="43.8125721" lon="7.628594"><ele>25.000000000000004</ele><time>2026-04-18T09:04:17.959Z</time></trkpt><trkpt lat="43.8124534" lon="7.628542"><ele>25.0</ele><time>2026-04-18T09:04:19.958Z</time></trkpt><trkpt lat="43.8123879" lon="7.6285176"><ele>25.0</ele><time>2026-04-18T09:04:20.959Z</time></trkpt><trkpt lat="43.8123245" lon="7.6284885"><ele>25.0</ele><time>2026-04-18T09:04:23.959Z</time></trkpt><trkpt lat="43.8122594" lon="7.6284509"><ele>25.000000000000004</ele><time>2026-04-18T09:04:27.959Z</time></trkpt><trkpt lat="43.8121904" lon="7.6284138"><ele>25.0</ele><time>2026-04-18T09:04:29.959Z</time></trkpt><trkpt lat="43.8120988" lon="7.6283754"><ele>25.000000000000004</ele><time>2026-04-18T09:04:31.959Z</time></trkpt><trkpt lat="43.8120171" lon="7.6283329"><ele>25.0</ele><time>2026-04-18T09:04:33.958Z</time></trkpt><trkpt lat="43.8118947" lon="7.6282766"><ele>25.0</ele><time>2026-04-18T09:04:35.959Z</time></trkpt><trkpt lat="43.8118226" lon="7.6282486"><ele>25.0</ele><time>2026-04-18T09:04:36.959Z</time></trkpt><trkpt lat="43.8117455" lon="7.6282186"><ele>25.000000000000004</ele><time>2026-04-18T09:04:37.959Z</time></trkpt><trkpt lat="43.811673" lon="7.6281809"><ele>25.0</ele><time>2026-04-18T09:04:38.959Z</time></trkpt><trkpt lat="43.8115996" lon="7.6281397"><ele>24.0</ele><time>2026-04-18T09:04:39.959Z</time></trkpt><trkpt lat="43.8115233" lon="7.6280967"><ele>23.0</ele><time>2026-04-18T09:04:40.959Z</time></trkpt><trkpt lat="43.8114382" lon="7.6280598"><ele>22.0</ele><time>2026-04-18T09:04:41.959Z</time></trkpt><trkpt lat="43.8113513" lon="7.6280192"><ele>21.0</ele><time>2026-04-18T09:04:42.959Z</time></trkpt><trkpt lat="43.811263" lon="7.6279785"><ele>20.0</ele><time>2026-04-18T09:04:43.959Z</time></trkpt><trkpt lat="43.8111671" lon="7.6279278"><ele>20.0</ele><time>2026-04-18T09:04:44.959Z</time></trkpt><trkpt lat="43.8110648" lon="7.6278691"><ele>20.0</ele><time>2026-04-18T09:04:45.959Z</time></trkpt><trkpt lat="43.8109566" lon="7.6278092"><ele>20.0</ele><time>2026-04-18T09:04:46.959Z</time></trkpt><trkpt lat="43.8108592" lon="7.6277481"><ele>20.0</ele><time>2026-04-18T09:04:47.958Z</time></trkpt><trkpt lat="43.8107696" lon="7.627683"><ele>20.0</ele><time>2026-04-18T09:04:48.959Z</time></trkpt><trkpt lat="43.8106759" lon="7.6276111"><ele>19.6</ele><time>2026-04-18T09:04:49.959Z</time></trkpt><trkpt lat="43.8105855" lon="7.6275264"><ele>19.2</ele><time>2026-04-18T09:04:50.958Z</time></trkpt><trkpt lat="43.8104884" lon="7.6274394"><ele>18.8</ele><time>2026-04-18T09:04:51.959Z</time></trkpt><trkpt lat="43.8103979" lon="7.6273579"><ele>18.4</ele><time>2026-04-18T09:04:52.959Z</time></trkpt><trkpt lat="43.8103232" lon="7.627281"><ele>18.0</ele><time>2026-04-18T09:04:53.959Z</time></trkpt><trkpt lat="43.8102527" lon="7.6272093"><ele>18.0</ele><time>2026-04-18T09:04:54.959Z</time></trkpt><trkpt lat="43.810196" lon="7.6271518"><ele>18.0</ele><time>2026-04-18T09:04:55.959Z</time></trkpt><trkpt lat="43.8101442" lon="7.6270951"><ele>18.0</ele><time>2026-04-18T09:04:56.959Z</time></trkpt><trkpt lat="43.8100847" lon="7.6270367"><ele>18.0</ele><time>2026-04-18T09:04:57.959Z</time></trkpt><trkpt lat="43.8100151" lon="7.6269757"><ele>18.0</ele><time>2026-04-18T09:04:58.959Z</time></trkpt><trkpt lat="43.8099344" lon="7.626903"><ele>18.0</ele><time>2026-04-18T09:04:59.959Z</time></trkpt><trkpt lat="43.809837" lon="7.6268175"><ele>18.333333333333332</ele><time>2026-04-18T09:05:00.959Z</time></trkpt><trkpt lat="43.809724" lon="7.6267093"><ele>18.666666666666664</ele><time>2026-04-18T09:05:01.959Z</time></trkpt><trkpt lat="43.8095867" lon="7.6265746"><ele>19.0</ele><time>2026-04-18T09:05:02.959Z</time></trkpt><trkpt lat="43.8094449" lon="7.6264315"><ele>18.666666666666664</ele><time>2026-04-18T09:05:03.959Z</time></trkpt><trkpt lat="43.8093047" lon="7.6262877"><ele>18.333333333333332</ele><time>2026-04-18T09:05:04.959Z</time></trkpt><trkpt lat="43.8091732" lon="7.6261509"><ele>18.0</ele><time>2026-04-18T09:05:05.959Z</time></trkpt><trkpt lat="43.809051" lon="7.6260243"><ele>18.0</ele><time>2026-04-18T09:05:06.959Z</time></trkpt><trkpt lat="43.8089349" lon="7.6259085"><ele>18.0</ele><time>2026-04-18T09:05:07.959Z</time></trkpt><trkpt lat="43.8088238" lon="7.6257967"><ele>18.0</ele><time>2026-04-18T09:05:08.959Z</time></trkpt><trkpt lat="43.8087134" lon="7.6256921"><ele>18.0</ele><time>2026-04-18T09:05:09.958Z</time></trkpt><trkpt lat="43.8086064" lon="7.6256012"><ele>18.0</ele><time>2026-04-18T09:05:10.959Z</time></trkpt><trkpt lat="43.8085024" lon="7.6255166"><ele>18.0</ele><time>2026-04-18T09:05:11.959Z</time></trkpt><trkpt lat="43.8083947" lon="7.625438"><ele>18.0</ele><time>2026-04-18T09:05:12.959Z</time></trkpt><trkpt lat="43.8082836" lon="7.6253685"><ele>18.0</ele><time>2026-04-18T09:05:13.959Z</time></trkpt><trkpt lat="43.8081667" lon="7.6253021"><ele>18.25</ele><time>2026-04-18T09:05:14.959Z</time></trkpt><trkpt lat="43.808056" lon="7.6252414"><ele>18.5</ele><time>2026-04-18T09:05:15.959Z</time></trkpt><trkpt lat="43.8079482" lon="7.625182"><ele>18.75</ele><time>2026-04-18T09:05:16.959Z</time></trkpt><trkpt lat="43.8078457" lon="7.6251347"><ele>19.0</ele><time>2026-04-18T09:05:17.959Z</time></trkpt><trkpt lat="43.8077393" lon="7.6250928"><ele>19.6</ele><time>2026-04-18T09:05:18.959Z</time></trkpt><trkpt lat="43.8076332" lon="7.6250581"><ele>20.2</ele><time>2026-04-18T09:05:19.959Z</time></trkpt><trkpt lat="43.807531" lon="7.6250303"><ele>20.8</ele><time>2026-04-18T09:05:20.959Z</time></trkpt><trkpt lat="43.8074304" lon="7.6250125"><ele>21.400000000000002</ele><time>2026-04-18T09:05:21.959Z</time></trkpt><trkpt lat="43.8073323" lon="7.6249967"><ele>22.0</ele><time>2026-04-18T09:05:22.959Z</time></trkpt><trkpt lat="43.8072348" lon="7.6249855"><ele>22.0</ele><time>2026-04-18T09:05:23.959Z</time></trkpt><trkpt lat="43.8071343" lon="7.6249717"><ele>22.0</ele><time>2026-04-18T09:05:24.959Z</time></trkpt><trkpt lat="43.8070327" lon="7.6249607"><ele>22.0</ele><time>2026-04-18T09:05:25.959Z</time></trkpt><trkpt lat="43.8069346" lon="7.6249436"><ele>22.0</ele><time>2026-04-18T09:05:26.959Z</time></trkpt><trkpt lat="43.8068382" lon="7.6249278"><ele>22.0</ele><time>2026-04-18T09:05:27.959Z</time></trkpt><trkpt lat="43.806749" lon="7.6249184"><ele>22.8</ele><time>2026-04-18T09:05:28.959Z</time></trkpt><trkpt lat="43.8066562" lon="7.624909"><ele>23.6</ele><time>2026-04-18T09:05:29.959Z</time></trkpt><trkpt lat="43.8065589" lon="7.6249018"><ele>24.400000000000002</ele><time>2026-04-18T09:05:30.959Z</time></trkpt><trkpt lat="43.8064667" lon="7.6248884"><ele>25.200000000000003</ele><time>2026-04-18T09:05:31.959Z</time></trkpt><trkpt lat="43.8063743" lon="7.62488"><ele>26.0</ele><time>2026-04-18T09:05:32.959Z</time></trkpt><trkpt lat="43.8062703" lon="7.6248724"><ele>26.0</ele><time>2026-04-18T09:05:33.959Z</time></trkpt><trkpt lat="43.8061621" lon="7.6248625"><ele>26.0</ele><time>2026-04-18T09:05:34.959Z</time></trkpt><trkpt lat="43.8060441" lon="7.6248605"><ele>26.0</ele><time>2026-04-18T09:05:35.959Z</time></trkpt><trkpt lat="43.8059425" lon="7.6248542"><ele>26.0</ele><time>2026-04-18T09:05:36.959Z</time></trkpt><trkpt lat="43.8058387" lon="7.6248502"><ele>26.0</ele><time>2026-04-18T09:05:37.959Z</time></trkpt><trkpt lat="43.8057445" lon="7.6248435"><ele>25.833333333333332</ele><time>2026-04-18T09:05:38.959Z</time></trkpt><trkpt lat="43.8056624" lon="7.6248335"><ele>25.666666666666664</ele><time>2026-04-18T09:05:39.959Z</time></trkpt><trkpt lat="43.8055797" lon="7.6248256"><ele>25.5</ele><time>2026-04-18T09:05:40.959Z</time></trkpt><trkpt lat="43.8055033" lon="7.624816"><ele>25.333333333333336</ele><time>2026-04-18T09:05:41.959Z</time></trkpt><trkpt lat="43.805434" lon="7.6248191"><ele>25.166666666666668</ele><time>2026-04-18T09:05:42.959Z</time></trkpt><trkpt lat="43.8053281" lon="7.6248172"><ele>25.0</ele><time>2026-04-18T09:05:44.959Z</time></trkpt><trkpt lat="43.8052215" lon="7.6248194"><ele>23.6</ele><time>2026-04-18T09:05:46.959Z</time></trkpt><trkpt lat="43.8051135" lon="7.6248194"><ele>22.2</ele><time>2026-04-18T09:05:48.959Z</time></trkpt><trkpt lat="43.8050194" lon="7.6248269"><ele>20.8</ele><time>2026-04-18T09:05:50.959Z</time></trkpt><trkpt lat="43.8049567" lon="7.6249366"><ele>19.4</ele><time>2026-04-18T09:05:52.958Z</time></trkpt><trkpt lat="43.8049723" lon="7.6250933"><ele>18.0</ele><time>2026-04-18T09:05:54.959Z</time></trkpt><trkpt lat="43.8049829" lon="7.6252611"><ele>17.0</ele><time>2026-04-18T09:05:56.959Z</time></trkpt><trkpt lat="43.804967" lon="7.6253586"><ele>16.0</ele><time>2026-04-18T09:05:57.959Z</time></trkpt><trkpt lat="43.8049509" lon="7.6254634"><ele>15.0</ele><time>2026-04-18T09:05:58.959Z</time></trkpt><trkpt lat="43.8049361" lon="7.6255737"><ele>14.0</ele><time>2026-04-18T09:05:59.959Z</time></trkpt><trkpt lat="43.8049195" lon="7.6256964"><ele>13.0</ele><time>2026-04-18T09:06:00.959Z</time></trkpt><trkpt lat="43.8049018" lon="7.6258257"><ele>12.0</ele><time>2026-04-18T09:06:01.959Z</time></trkpt><trkpt lat="43.8048859" lon="7.6259487"><ele>12.0</ele><time>2026-04-18T09:06:02.959Z</time></trkpt><trkpt lat="43.8048729" lon="7.6260572"><ele>12.0</ele><time>2026-04-18T09:06:03.959Z</time></trkpt><trkpt lat="43.8048622" lon="7.6261565"><ele>12.0</ele><time>2026-04-18T09:06:04.959Z</time></trkpt><trkpt lat="43.8048489" lon="7.626258"><ele>12.0</ele><time>2026-04-18T09:06:05.959Z</time></trkpt><trkpt lat="43.8048381" lon="7.6263565"><ele>12.0</ele><time>2026-04-18T09:06:06.959Z</time></trkpt><trkpt lat="43.8048267" lon="7.6264429"><ele>12.0</ele><time>2026-04-18T09:06:07.959Z</time></trkpt><trkpt lat="43.8048036" lon="7.626603"><ele>12.2</ele><time>2026-04-18T09:06:09.959Z</time></trkpt><trkpt lat="43.8047959" lon="7.6266906"><ele>12.399999999999999</ele><time>2026-04-18T09:06:10.959Z</time></trkpt><trkpt lat="43.804772" lon="7.6268463"><ele>12.600000000000001</ele><time>2026-04-18T09:06:12.959Z</time></trkpt><trkpt lat="43.8047496" lon="7.6269851"><ele>12.8</ele><time>2026-04-18T09:06:14.959Z</time></trkpt><trkpt lat="43.8047409" lon="7.6271177"><ele>13.0</ele><time>2026-04-18T09:06:16.959Z</time></trkpt><trkpt lat="43.8047224" lon="7.627242"><ele>13.600000000000001</ele><time>2026-04-18T09:06:18.959Z</time></trkpt><trkpt lat="43.8047048" lon="7.6273554"><ele>14.200000000000001</ele><time>2026-04-18T09:06:20.959Z</time></trkpt><trkpt lat="43.8046872" lon="7.62745"><ele>14.8</ele><time>2026-04-18T09:06:22.959Z</time></trkpt><trkpt lat="43.8046643" lon="7.6275763"><ele>15.4</ele><time>2026-04-18T09:06:25.959Z</time></trkpt><trkpt lat="43.8046315" lon="7.6277107"><ele>16.0</ele><time>2026-04-18T09:06:27.959Z</time></trkpt><trkpt lat="43.804596" lon="7.6278676"><ele>16.0</ele><time>2026-04-18T09:06:29.959Z</time></trkpt><trkpt lat="43.804545" lon="7.6280023"><ele>16.0</ele><time>2026-04-18T09:06:31.959Z</time></trkpt><trkpt lat="43.8044977" lon="7.6281058"><ele>16.0</ele><time>2026-04-18T09:06:33.959Z</time></trkpt><trkpt lat="43.8044493" lon="7.6282023"><ele>16.0</ele><time>2026-04-18T09:06:37.959Z</time></trkpt><trkpt lat="43.8043617" lon="7.6283106"><ele>16.0</ele><time>2026-04-18T09:06:39.959Z</time></trkpt><trkpt lat="43.8042283" lon="7.6283407"><ele>15.8</ele><time>2026-04-18T09:06:41.959Z</time></trkpt><trkpt lat="43.804132" lon="7.6283492"><ele>15.600000000000001</ele><time>2026-04-18T09:06:42.959Z</time></trkpt><trkpt lat="43.8040149" lon="7.6283494"><ele>15.4</ele><time>2026-04-18T09:06:43.958Z</time></trkpt><trkpt lat="43.8038936" lon="7.6283318"><ele>15.2</ele><time>2026-04-18T09:06:44.959Z</time></trkpt><trkpt lat="43.80378" lon="7.6283273"><ele>15.0</ele><time>2026-04-18T09:06:45.959Z</time></trkpt><trkpt lat="43.8036871" lon="7.6283162"><ele>15.0</ele><time>2026-04-18T09:06:46.959Z</time></trkpt><trkpt lat="43.8035992" lon="7.6283003"><ele>15.0</ele><time>2026-04-18T09:06:47.959Z</time></trkpt><trkpt lat="43.8035218" lon="7.6282958"><ele>15.0</ele><time>2026-04-18T09:06:48.959Z</time></trkpt><trkpt lat="43.8034556" lon="7.6282992"><ele>15.0</ele><time>2026-04-18T09:06:49.959Z</time></trkpt><trkpt lat="43.8033293" lon="7.6283288"><ele>15.0</ele><time>2026-04-18T09:06:51.959Z</time></trkpt><trkpt lat="43.8032496" lon="7.6283339"><ele>15.0</ele><time>2026-04-18T09:06:52.959Z</time></trkpt><trkpt lat="43.8031598" lon="7.6283293"><ele>14.8</ele><time>2026-04-18T09:06:53.959Z</time></trkpt><trkpt lat="43.8030699" lon="7.6283218"><ele>14.6</ele><time>2026-04-18T09:06:54.959Z</time></trkpt><trkpt lat="43.8029869" lon="7.6283193"><ele>14.399999999999999</ele><time>2026-04-18T09:06:55.959Z</time></trkpt><trkpt lat="43.8028936" lon="7.6283283"><ele>14.2</ele><time>2026-04-18T09:06:56.959Z</time></trkpt><trkpt lat="43.8027887" lon="7.6283478"><ele>14.0</ele><time>2026-04-18T09:06:57.959Z</time></trkpt><trkpt lat="43.8026721" lon="7.6283678"><ele>13.799999999999999</ele><time>2026-04-18T09:06:58.959Z</time></trkpt><trkpt lat="43.8025725" lon="7.6283812"><ele>13.599999999999998</ele><time>2026-04-18T09:06:59.959Z</time></trkpt><trkpt lat="43.8024784" lon="7.6283953"><ele>13.4</ele><time>2026-04-18T09:07:00.959Z</time></trkpt><trkpt lat="43.8023775" lon="7.6284142"><ele>13.2</ele><time>2026-04-18T09:07:01.959Z</time></trkpt><trkpt lat="43.8022693" lon="7.6284439"><ele>13.0</ele><time>2026-04-18T09:07:02.959Z</time></trkpt><trkpt lat="43.8021185" lon="7.6284874"><ele>13.0</ele><time>2026-04-18T09:07:03.959Z</time></trkpt><trkpt lat="43.8019462" lon="7.6285187"><ele>13.0</ele><time>2026-04-18T09:07:04.959Z</time></trkpt><trkpt lat="43.8017676" lon="7.628542"><ele>13.0</ele><time>2026-04-18T09:07:05.959Z</time></trkpt><trkpt lat="43.8015921" lon="7.6285692"><ele>13.333333333333332</ele><time>2026-04-18T09:07:06.959Z</time></trkpt><trkpt lat="43.8014131" lon="7.6285985"><ele>13.666666666666668</ele><time>2026-04-18T09:07:07.959Z</time></trkpt><trkpt lat="43.8012356" lon="7.6286208"><ele>14.0</ele><time>2026-04-18T09:07:08.959Z</time></trkpt><trkpt lat="43.8010559" lon="7.6286462"><ele>14.0</ele><time>2026-04-18T09:07:09.959Z</time></trkpt><trkpt lat="43.8008809" lon="7.6286762"><ele>14.0</ele><time>2026-04-18T09:07:10.959Z</time></trkpt><trkpt lat="43.8007052" lon="7.6287189"><ele>14.0</ele><time>2026-04-18T09:07:11.959Z</time></trkpt><trkpt lat="43.800534" lon="7.6287563"><ele>14.0</ele><time>2026-04-18T09:07:12.959Z</time></trkpt><trkpt lat="43.8003733" lon="7.628791"><ele>14.0</ele><time>2026-04-18T09:07:13.959Z</time></trkpt><trkpt lat="43.8002187" lon="7.6288234"><ele>14.0</ele><time>2026-04-18T09:07:14.958Z</time></trkpt><trkpt lat="43.8000654" lon="7.6288589"><ele>13.0</ele><time>2026-04-18T09:07:15.959Z</time></trkpt><trkpt lat="43.7999148" lon="7.6289262"><ele>12.0</ele><time>2026-04-18T09:07:16.959Z</time></trkpt><trkpt lat="43.7997639" lon="7.6290127"><ele>11.0</ele><time>2026-04-18T09:07:17.959Z</time></trkpt><trkpt lat="43.7996178" lon="7.6291276"><ele>11.0</ele><time>2026-04-18T09:07:18.959Z</time></trkpt><trkpt lat="43.7994759" lon="7.6292499"><ele>11.0</ele><time>2026-04-18T09:07:19.959Z</time></trkpt><trkpt lat="43.7993437" lon="7.6293603"><ele>11.0</ele><time>2026-04-18T09:07:20.959Z</time></trkpt><trkpt lat="43.7992168" lon="7.6294613"><ele>11.0</ele><time>2026-04-18T09:07:21.959Z</time></trkpt><trkpt lat="43.7990869" lon="7.6295566"><ele>11.0</ele><time>2026-04-18T09:07:22.959Z</time></trkpt><trkpt lat="43.7989622" lon="7.6296491"><ele>11.0</ele><time>2026-04-18T09:07:23.959Z</time></trkpt><trkpt lat="43.7988489" lon="7.6297375"><ele>11.0</ele><time>2026-04-18T09:07:24.959Z</time></trkpt><trkpt lat="43.7987463" lon="7.629822"><ele>11.0</ele><time>2026-04-18T09:07:25.959Z</time></trkpt><trkpt lat="43.7986508" lon="7.6298974"><ele>11.0</ele><time>2026-04-18T09:07:26.959Z</time></trkpt><trkpt lat="43.7985563" lon="7.6299758"><ele>11.0</ele><time>2026-04-18T09:07:27.959Z</time></trkpt><trkpt lat="43.7984589" lon="7.6300489"><ele>11.0</ele><time>2026-04-18T09:07:28.959Z</time></trkpt><trkpt lat="43.7983582" lon="7.6301171"><ele>11.0</ele><time>2026-04-18T09:07:29.959Z</time></trkpt><trkpt lat="43.7982486" lon="7.6301889"><ele>11.0</ele><time>2026-04-18T09:07:30.959Z</time></trkpt><trkpt lat="43.7981314" lon="7.6302643"><ele>11.0</ele><time>2026-04-18T09:07:31.959Z</time></trkpt><trkpt lat="43.7980283" lon="7.6303387"><ele>11.0</ele><time>2026-04-18T09:07:32.959Z</time></trkpt><trkpt lat="43.7979253" lon="7.6303985"><ele>11.0</ele><time>2026-04-18T09:07:33.959Z</time></trkpt><trkpt lat="43.7978224" lon="7.6304546"><ele>10.75</ele><time>2026-04-18T09:07:34.959Z</time></trkpt><trkpt lat="43.7977192" lon="7.6305116"><ele>10.5</ele><time>2026-04-18T09:07:35.959Z</time></trkpt><trkpt lat="43.7976169" lon="7.630573"><ele>10.25</ele><time>2026-04-18T09:07:36.959Z</time></trkpt><trkpt lat="43.7974999" lon="7.6306308"><ele>10.0</ele><time>2026-04-18T09:07:37.959Z</time></trkpt><trkpt lat="43.7973866" lon="7.6306913"><ele>9.8</ele><time>2026-04-18T09:07:38.959Z</time></trkpt><trkpt lat="43.7972821" lon="7.630747"><ele>9.6</ele><time>2026-04-18T09:07:39.959Z</time></trkpt><trkpt lat="43.7971834" lon="7.6307971"><ele>9.4</ele><time>2026-04-18T09:07:40.959Z</time></trkpt><trkpt lat="43.7970837" lon="7.630855"><ele>9.2</ele><time>2026-04-18T09:07:41.959Z</time></trkpt><trkpt lat="43.7969866" lon="7.6309283"><ele>9.0</ele><time>2026-04-18T09:07:42.959Z</time></trkpt><trkpt lat="43.7969009" lon="7.6310178"><ele>9.0</ele><time>2026-04-18T09:07:43.959Z</time></trkpt><trkpt lat="43.7968236" lon="7.631121"><ele>9.0</ele><time>2026-04-18T09:07:44.959Z</time></trkpt><trkpt lat="43.7967515" lon="7.6312331"><ele>9.0</ele><time>2026-04-18T09:07:45.959Z</time></trkpt><trkpt lat="43.7966795" lon="7.6313537"><ele>9.0</ele><time>2026-04-18T09:07:46.959Z</time></trkpt><trkpt lat="43.7966147" lon="7.6314653"><ele>9.0</ele><time>2026-04-18T09:07:47.958Z</time></trkpt><trkpt lat="43.7965491" lon="7.6315671"><ele>9.0</ele><time>2026-04-18T09:07:48.959Z</time></trkpt><trkpt lat="43.7964714" lon="7.6316661"><ele>9.0</ele><time>2026-04-18T09:07:49.959Z</time></trkpt><trkpt lat="43.7963886" lon="7.6317581"><ele>9.0</ele><time>2026-04-18T09:07:50.959Z</time></trkpt><trkpt lat="43.7963029" lon="7.6318469"><ele>9.0</ele><time>2026-04-18T09:07:51.959Z</time></trkpt><trkpt lat="43.796216" lon="7.6319436"><ele>9.0</ele><time>2026-04-18T09:07:52.959Z</time></trkpt><trkpt lat="43.7961295" lon="7.632036"><ele>9.0</ele><time>2026-04-18T09:07:53.959Z</time></trkpt><trkpt lat="43.7960444" lon="7.63212"><ele>9.0</ele><time>2026-04-18T09:07:54.959Z</time></trkpt><trkpt lat="43.7959624" lon="7.6322024"><ele>9.0</ele><time>2026-04-18T09:07:55.959Z</time></trkpt><trkpt lat="43.7958806" lon="7.6322859"><ele>9.0</ele><time>2026-04-18T09:07:56.959Z</time></trkpt><trkpt lat="43.795806" lon="7.632377"><ele>9.0</ele><time>2026-04-18T09:07:57.959Z</time></trkpt><trkpt lat="43.7957287" lon="7.632461"><ele>9.0</ele><time>2026-04-18T09:07:58.959Z</time></trkpt><trkpt lat="43.7956471" lon="7.6325474"><ele>9.0</ele><time>2026-04-18T09:07:59.959Z</time></trkpt><trkpt lat="43.7955661" lon="7.6326267"><ele>9.0</ele><time>2026-04-18T09:08:00.959Z</time></trkpt><trkpt lat="43.795477" lon="7.6327018"><ele>9.0</ele><time>2026-04-18T09:08:01.959Z</time></trkpt><trkpt lat="43.7953778" lon="7.6327634"><ele>9.0</ele><time>2026-04-18T09:08:02.959Z</time></trkpt><trkpt lat="43.7952758" lon="7.6328077"><ele>9.0</ele><time>2026-04-18T09:08:03.959Z</time></trkpt><trkpt lat="43.795171" lon="7.6328548"><ele>9.0</ele><time>2026-04-18T09:08:04.959Z</time></trkpt><trkpt lat="43.7950686" lon="7.6328964"><ele>9.0</ele><time>2026-04-18T09:08:05.959Z</time></trkpt><trkpt lat="43.7949748" lon="7.6329369"><ele>9.0</ele><time>2026-04-18T09:08:06.959Z</time></trkpt><trkpt lat="43.7948838" lon="7.6329881"><ele>9.0</ele><time>2026-04-18T09:08:07.959Z</time></trkpt><trkpt lat="43.794791" lon="7.6330562"><ele>9.0</ele><time>2026-04-18T09:08:08.959Z</time></trkpt><trkpt lat="43.7946964" lon="7.6331437"><ele>9.0</ele><time>2026-04-18T09:08:09.959Z</time></trkpt><trkpt lat="43.794601" lon="7.6332419"><ele>9.0</ele><time>2026-04-18T09:08:10.959Z</time></trkpt><trkpt lat="43.7945058" lon="7.6333414"><ele>9.0</ele><time>2026-04-18T09:08:11.959Z</time></trkpt><trkpt lat="43.7944066" lon="7.6334378"><ele>9.0</ele><time>2026-04-18T09:08:12.958Z</time></trkpt><trkpt lat="43.7943025" lon="7.6335184"><ele>9.0</ele><time>2026-04-18T09:08:13.959Z</time></trkpt><trkpt lat="43.7942042" lon="7.633591"><ele>9.0</ele><time>2026-04-18T09:08:14.959Z</time></trkpt><trkpt lat="43.7941278" lon="7.6336714"><ele>9.0</ele><time>2026-04-18T09:08:15.959Z</time></trkpt><trkpt lat="43.7940515" lon="7.6337576"><ele>9.0</ele><time>2026-04-18T09:08:16.959Z</time></trkpt><trkpt lat="43.7939637" lon="7.6338459"><ele>9.0</ele><time>2026-04-18T09:08:17.959Z</time></trkpt><trkpt lat="43.7938822" lon="7.633936"><ele>9.0</ele><time>2026-04-18T09:08:18.959Z</time></trkpt><trkpt lat="43.7937842" lon="7.6340141"><ele>9.0</ele><time>2026-04-18T09:08:19.959Z</time></trkpt><trkpt lat="43.7936838" lon="7.6340768"><ele>9.0</ele><time>2026-04-18T09:08:20.959Z</time></trkpt><trkpt lat="43.7935707" lon="7.6341215"><ele>9.0</ele><time>2026-04-18T09:08:21.959Z</time></trkpt><trkpt lat="43.7934629" lon="7.6341456"><ele>8.8</ele><time>2026-04-18T09:08:22.959Z</time></trkpt><trkpt lat="43.7933558" lon="7.6341646"><ele>8.600000000000001</ele><time>2026-04-18T09:08:23.958Z</time></trkpt><trkpt lat="43.7932507" lon="7.6341751"><ele>8.4</ele><time>2026-04-18T09:08:24.959Z</time></trkpt><trkpt lat="43.7931476" lon="7.6341791"><ele>8.200000000000001</ele><time>2026-04-18T09:08:25.959Z</time></trkpt><trkpt lat="43.7930481" lon="7.6341793"><ele>8.0</ele><time>2026-04-18T09:08:26.959Z</time></trkpt><trkpt lat="43.7929461" lon="7.6341808"><ele>8.0</ele><time>2026-04-18T09:08:27.959Z</time></trkpt><trkpt lat="43.7928431" lon="7.6341784"><ele>8.0</ele><time>2026-04-18T09:08:28.959Z</time></trkpt><trkpt lat="43.7927306" lon="7.6341739"><ele>8.0</ele><time>2026-04-18T09:08:29.959Z</time></trkpt><trkpt lat="43.7926154" lon="7.6341689"><ele>8.0</ele><time>2026-04-18T09:08:30.959Z</time></trkpt><trkpt lat="43.7925076" lon="7.6341611"><ele>8.0</ele><time>2026-04-18T09:08:31.959Z</time></trkpt><trkpt lat="43.7924059" lon="7.6341504"><ele>7.666666666666666</ele><time>2026-04-18T09:08:32.959Z</time></trkpt><trkpt lat="43.7923061" lon="7.6341496"><ele>7.333333333333333</ele><time>2026-04-18T09:08:33.959Z</time></trkpt><trkpt lat="43.7922147" lon="7.6341399"><ele>7.0</ele><time>2026-04-18T09:08:34.959Z</time></trkpt><trkpt lat="43.7921205" lon="7.6341342"><ele>6.666666666666666</ele><time>2026-04-18T09:08:35.959Z</time></trkpt><trkpt lat="43.7920453" lon="7.6341331"><ele>6.333333333333333</ele><time>2026-04-18T09:08:36.959Z</time></trkpt><trkpt lat="43.7919745" lon="7.6341317"><ele>6.0</ele><time>2026-04-18T09:08:37.959Z</time></trkpt><trkpt lat="43.7919069" lon="7.6341386"><ele>6.0</ele><time>2026-04-18T09:08:38.959Z</time></trkpt><trkpt lat="43.7918422" lon="7.6341455"><ele>6.0</ele><time>2026-04-18T09:08:39.959Z</time></trkpt><trkpt lat="43.7917173" lon="7.634156"><ele>6.0</ele><time>2026-04-18T09:08:41.959Z</time></trkpt><trkpt lat="43.7916506" lon="7.6341641"><ele>6.0</ele><time>2026-04-18T09:08:42.959Z</time></trkpt><trkpt lat="43.7915857" lon="7.6341722"><ele>6.0</ele><time>2026-04-18T09:08:43.959Z</time></trkpt><trkpt lat="43.7915164" lon="7.6341766"><ele>6.0</ele><time>2026-04-18T09:08:44.958Z</time></trkpt><trkpt lat="43.7914464" lon="7.6341795"><ele>5.833333333333333</ele><time>2026-04-18T09:08:45.959Z</time></trkpt><trkpt lat="43.7913363" lon="7.6341879"><ele>5.666666666666667</ele><time>2026-04-18T09:08:47.959Z</time></trkpt><trkpt lat="43.7912619" lon="7.63419"><ele>5.5</ele><time>2026-04-18T09:08:49.959Z</time></trkpt><trkpt lat="43.7911923" lon="7.6341935"><ele>5.333333333333334</ele><time>2026-04-18T09:08:53.959Z</time></trkpt><trkpt lat="43.7911013" lon="7.6342093"><ele>5.166666666666667</ele><time>2026-04-18T09:08:56.959Z</time></trkpt><trkpt lat="43.7910372" lon="7.634206"><ele>5.0</ele><time>2026-04-18T09:08:57.959Z</time></trkpt><trkpt lat="43.7909639" lon="7.6342016"><ele>5.333333333333334</ele><time>2026-04-18T09:08:58.959Z</time></trkpt><trkpt lat="43.7908966" lon="7.6341936"><ele>5.666666666666667</ele><time>2026-04-18T09:08:59.958Z</time></trkpt><trkpt lat="43.7908194" lon="7.6341803"><ele>6.0</ele><time>2026-04-18T09:09:01.959Z</time></trkpt><trkpt lat="43.7907543" lon="7.6341675"><ele>6.333333333333334</ele><time>2026-04-18T09:09:03.959Z</time></trkpt><trkpt lat="43.7906705" lon="7.634209"><ele>6.666666666666667</ele><time>2026-04-18T09:09:05.959Z</time></trkpt><trkpt lat="43.7906395" lon="7.6344045"><ele>7.0</ele><time>2026-04-18T09:09:07.959Z</time></trkpt><trkpt lat="43.7906292" lon="7.634504"><ele>7.166666666666667</ele><time>2026-04-18T09:09:08.959Z</time></trkpt><trkpt lat="43.7906178" lon="7.6345927"><ele>7.333333333333334</ele><time>2026-04-18T09:09:09.959Z</time></trkpt><trkpt lat="43.7905954" lon="7.6346802"><ele>7.5</ele><time>2026-04-18T09:09:10.959Z</time></trkpt><trkpt lat="43.790563" lon="7.6347585"><ele>7.666666666666666</ele><time>2026-04-18T09:09:11.959Z</time></trkpt><trkpt lat="43.7904863" lon="7.6348577"><ele>7.833333333333333</ele><time>2026-04-18T09:09:13.959Z</time></trkpt><trkpt lat="43.7904365" lon="7.6349351"><ele>8.0</ele><time>2026-04-18T09:09:15.958Z</time></trkpt><trkpt lat="43.7904324" lon="7.6350594"><ele>7.999999999999999</ele><time>2026-04-18T09:09:17.959Z</time></trkpt><trkpt lat="43.7904046" lon="7.6351958"><ele>8.0</ele><time>2026-04-18T09:09:19.959Z</time></trkpt><trkpt lat="43.7903675" lon="7.6353351"><ele>8.0</ele><time>2026-04-18T09:09:21.959Z</time></trkpt><trkpt lat="43.7903528" lon="7.6354217"><ele>8.0</ele><time>2026-04-18T09:09:22.959Z</time></trkpt><trkpt lat="43.7903422" lon="7.6355082"><ele>7.999999999999999</ele><time>2026-04-18T09:09:23.958Z</time></trkpt><trkpt lat="43.7903409" lon="7.6356064"><ele>8.0</ele><time>2026-04-18T09:09:24.959Z</time></trkpt><trkpt lat="43.7903483" lon="7.6357282"><ele>8.0</ele><time>2026-04-18T09:09:25.959Z</time></trkpt><trkpt lat="43.7903624" lon="7.6358669"><ele>8.0</ele><time>2026-04-18T09:09:26.959Z</time></trkpt><trkpt lat="43.7903833" lon="7.6360225"><ele>8.0</ele><time>2026-04-18T09:09:27.959Z</time></trkpt><trkpt lat="43.7904051" lon="7.636186"><ele>8.0</ele><time>2026-04-18T09:09:28.958Z</time></trkpt><trkpt lat="43.7904209" lon="7.6363415"><ele>8.0</ele><time>2026-04-18T09:09:29.959Z</time></trkpt><trkpt lat="43.7904254" lon="7.6364923"><ele>8.8</ele><time>2026-04-18T09:09:30.959Z</time></trkpt><trkpt lat="43.7904076" lon="7.6366345"><ele>9.600000000000001</ele><time>2026-04-18T09:09:31.959Z</time></trkpt><trkpt lat="43.7903645" lon="7.636766"><ele>10.399999999999999</ele><time>2026-04-18T09:09:32.959Z</time></trkpt><trkpt lat="43.7903183" lon="7.6369027"><ele>11.2</ele><time>2026-04-18T09:09:33.959Z</time></trkpt><trkpt lat="43.790269" lon="7.6370453"><ele>12.0</ele><time>2026-04-18T09:09:34.959Z</time></trkpt><trkpt lat="43.7902192" lon="7.6371755"><ele>12.166666666666666</ele><time>2026-04-18T09:09:35.959Z</time></trkpt><trkpt lat="43.7901763" lon="7.6372906"><ele>12.333333333333332</ele><time>2026-04-18T09:09:36.959Z</time></trkpt><trkpt lat="43.7901456" lon="7.6373784"><ele>12.5</ele><time>2026-04-18T09:09:37.959Z</time></trkpt><trkpt lat="43.7900808" lon="7.6375148"><ele>12.666666666666666</ele><time>2026-04-18T09:09:39.959Z</time></trkpt><trkpt lat="43.7900377" lon="7.6376001"><ele>12.833333333333332</ele><time>2026-04-18T09:09:41.959Z</time></trkpt><trkpt lat="43.7900254" lon="7.637686"><ele>13.0</ele><time>2026-04-18T09:09:43.959Z</time></trkpt><trkpt lat="43.7900037" lon="7.6378381"><ele>13.166666666666666</ele><time>2026-04-18T09:09:45.959Z</time></trkpt><trkpt lat="43.7899921" lon="7.6379426"><ele>13.333333333333332</ele><time>2026-04-18T09:09:46.959Z</time></trkpt><trkpt lat="43.7899775" lon="7.638058"><ele>13.5</ele><time>2026-04-18T09:09:47.959Z</time></trkpt><trkpt lat="43.7899717" lon="7.6381751"><ele>13.666666666666668</ele><time>2026-04-18T09:09:48.959Z</time></trkpt><trkpt lat="43.7899555" lon="7.6382984"><ele>13.833333333333334</ele><time>2026-04-18T09:09:49.959Z</time></trkpt><trkpt lat="43.7899403" lon="7.6384175"><ele>14.0</ele><time>2026-04-18T09:09:50.959Z</time></trkpt><trkpt lat="43.7899269" lon="7.6385395"><ele>14.166666666666668</ele><time>2026-04-18T09:09:51.959Z</time></trkpt><trkpt lat="43.7899139" lon="7.6386562"><ele>14.333333333333334</ele><time>2026-04-18T09:09:52.959Z</time></trkpt><trkpt lat="43.7899002" lon="7.6387707"><ele>14.5</ele><time>2026-04-18T09:09:53.959Z</time></trkpt><trkpt lat="43.7898901" lon="7.6388894"><ele>14.666666666666668</ele><time>2026-04-18T09:09:54.959Z</time></trkpt><trkpt lat="43.789871" lon="7.6390062"><ele>14.833333333333334</ele><time>2026-04-18T09:09:55.959Z</time></trkpt><trkpt lat="43.7898529" lon="7.6391117"><ele>15.0</ele><time>2026-04-18T09:09:56.959Z</time></trkpt><trkpt lat="43.7898314" lon="7.6392168"><ele>15.0</ele><time>2026-04-18T09:09:57.959Z</time></trkpt><trkpt lat="43.7898094" lon="7.6393224"><ele>15.0</ele><time>2026-04-18T09:09:58.959Z</time></trkpt><trkpt lat="43.7897919" lon="7.6394264"><ele>15.0</ele><time>2026-04-18T09:09:59.958Z</time></trkpt><trkpt lat="43.789776" lon="7.6395316"><ele>15.0</ele><time>2026-04-18T09:10:00.959Z</time></trkpt><trkpt lat="43.7897621" lon="7.6396289"><ele>15.0</ele><time>2026-04-18T09:10:01.959Z</time></trkpt><trkpt lat="43.789748" lon="7.6397343"><ele>15.0</ele><time>2026-04-18T09:10:02.959Z</time></trkpt><trkpt lat="43.789731" lon="7.639859"><ele>15.0</ele><time>2026-04-18T09:10:03.959Z</time></trkpt><trkpt lat="43.7897057" lon="7.6400026"><ele>15.0</ele><time>2026-04-18T09:10:04.959Z</time></trkpt><trkpt lat="43.7896762" lon="7.6401414"><ele>15.0</ele><time>2026-04-18T09:10:05.958Z</time></trkpt><trkpt lat="43.789652" lon="7.6402525"><ele>15.0</ele><time>2026-04-18T09:10:06.959Z</time></trkpt><trkpt lat="43.7896302" lon="7.6403932"><ele>15.0</ele><time>2026-04-18T09:10:08.958Z</time></trkpt><trkpt lat="43.7896195" lon="7.6405"><ele>15.0</ele><time>2026-04-18T09:10:11.959Z</time></trkpt><trkpt lat="43.7896197" lon="7.6406552"><ele>15.0</ele><time>2026-04-18T09:10:14.959Z</time></trkpt><trkpt lat="43.7896205" lon="7.640754"><ele>15.0</ele><time>2026-04-18T09:10:15.959Z</time></trkpt><trkpt lat="43.7896207" lon="7.6408943"><ele>15.0</ele><time>2026-04-18T09:10:16.959Z</time></trkpt><trkpt lat="43.7896194" lon="7.6410252"><ele>15.0</ele><time>2026-04-18T09:10:17.958Z</time></trkpt><trkpt lat="43.7896179" lon="7.6411353"><ele>14.833333333333334</ele><time>2026-04-18T09:10:18.959Z</time></trkpt><trkpt lat="43.7896132" lon="7.6412428"><ele>14.666666666666668</ele><time>2026-04-18T09:10:19.959Z</time></trkpt><trkpt lat="43.7896139" lon="7.6413492"><ele>14.5</ele><time>2026-04-18T09:10:20.959Z</time></trkpt><trkpt lat="43.7896227" lon="7.6414606"><ele>14.333333333333334</ele><time>2026-04-18T09:10:21.959Z</time></trkpt><trkpt lat="43.7896294" lon="7.6415845"><ele>14.166666666666668</ele><time>2026-04-18T09:10:22.959Z</time></trkpt><trkpt lat="43.789639" lon="7.6417174"><ele>14.0</ele><time>2026-04-18T09:10:23.959Z</time></trkpt><trkpt lat="43.7896556" lon="7.6418563"><ele>14.000000000000002</ele><time>2026-04-18T09:10:24.959Z</time></trkpt><trkpt lat="43.7896727" lon="7.6419853"><ele>14.0</ele><time>2026-04-18T09:10:25.959Z</time></trkpt><trkpt lat="43.7896896" lon="7.6420889"><ele>14.0</ele><time>2026-04-18T09:10:26.959Z</time></trkpt><trkpt lat="43.7897049" lon="7.6421814"><ele>14.0</ele><time>2026-04-18T09:10:27.959Z</time></trkpt><trkpt lat="43.7897143" lon="7.6423313"><ele>14.000000000000002</ele><time>2026-04-18T09:10:29.959Z</time></trkpt><trkpt lat="43.7897205" lon="7.6424328"><ele>14.0</ele><time>2026-04-18T09:10:31.959Z</time></trkpt><trkpt lat="43.7896749" lon="7.6425351"><ele>14.000000000000002</ele><time>2026-04-18T09:10:33.959Z</time></trkpt><trkpt lat="43.7895513" lon="7.6425679"><ele>14.0</ele><time>2026-04-18T09:10:35.959Z</time></trkpt><trkpt lat="43.7894791" lon="7.6425338"><ele>14.0</ele><time>2026-04-18T09:10:36.959Z</time></trkpt><trkpt lat="43.7894109" lon="7.6424827"><ele>14.0</ele><time>2026-04-18T09:10:37.959Z</time></trkpt><trkpt lat="43.7893532" lon="7.6424363"><ele>14.000000000000002</ele><time>2026-04-18T09:10:38.958Z</time></trkpt><trkpt lat="43.7892726" lon="7.6423755"><ele>14.0</ele><time>2026-04-18T09:10:40.959Z</time></trkpt><trkpt lat="43.7892156" lon="7.6423215"><ele>13.500000000000002</ele><time>2026-04-18T09:10:42.959Z</time></trkpt><trkpt lat="43.7892093" lon="7.6422008"><ele>13.0</ele><time>2026-04-18T09:10:45.959Z</time></trkpt><trkpt lat="43.7892445" lon="7.6421093"><ele>12.5</ele><time>2026-04-18T09:10:48.959Z</time></trkpt><trkpt lat="43.789213" lon="7.6420324"><ele>12.0</ele><time>2026-04-18T09:11:26.958Z</time></trkpt><trkpt lat="43.7891315" lon="7.6420828"><ele>11.5</ele><time>2026-04-18T09:11:29.959Z</time></trkpt><trkpt lat="43.7890683" lon="7.6420561"><ele>11.0</ele><time>2026-04-18T09:11:30.958Z</time></trkpt><trkpt lat="43.7890005" lon="7.6420338"><ele>11.0</ele><time>2026-04-18T09:11:31.959Z</time></trkpt><trkpt lat="43.7889276" lon="7.6420125"><ele>11.0</ele><time>2026-04-18T09:11:32.959Z</time></trkpt><trkpt lat="43.7888525" lon="7.6419791"><ele>11.0</ele><time>2026-04-18T09:11:33.959Z</time></trkpt><trkpt lat="43.7887787" lon="7.6419533"><ele>11.0</ele><time>2026-04-18T09:11:34.959Z</time></trkpt><trkpt lat="43.7887158" lon="7.6419397"><ele>11.0</ele><time>2026-04-18T09:11:35.959Z</time></trkpt><trkpt lat="43.7886185" lon="7.6419458"><ele>11.0</ele><time>2026-04-18T09:11:37.959Z</time></trkpt><trkpt lat="43.7885884" lon="7.6420423"><ele>11.0</ele><time>2026-04-18T09:11:40.959Z</time></trkpt><trkpt lat="43.7886451" lon="7.64215"><ele>11.0</ele><time>2026-04-18T09:11:48.959Z</time></trkpt><trkpt lat="43.7887224" lon="7.6421761"><ele>11.0</ele><time>2026-04-18T09:11:49.959Z</time></trkpt><trkpt lat="43.7888177" lon="7.6422025"><ele>11.0</ele><time>2026-04-18T09:11:50.959Z</time></trkpt><trkpt lat="43.7889193" lon="7.6422244"><ele>11.0</ele><time>2026-04-18T09:11:51.959Z</time></trkpt><trkpt lat="43.7890412" lon="7.642289"><ele>11.0</ele><time>2026-04-18T09:11:52.959Z</time></trkpt><trkpt lat="43.7891578" lon="7.6423733"><ele>11.0</ele><time>2026-04-18T09:11:53.959Z</time></trkpt><trkpt lat="43.7892661" lon="7.6424387"><ele>11.0</ele><time>2026-04-18T09:11:54.959Z</time></trkpt><trkpt lat="43.7893534" lon="7.6424986"><ele>11.0</ele><time>2026-04-18T09:11:55.958Z</time></trkpt><trkpt lat="43.7894302" lon="7.642546"><ele>11.0</ele><time>2026-04-18T09:11:56.959Z</time></trkpt><trkpt lat="43.789495" lon="7.6426007"><ele>11.333333333333332</ele><time>2026-04-18T09:11:57.959Z</time></trkpt><trkpt lat="43.7895927" lon="7.642678"><ele>11.666666666666666</ele><time>2026-04-18T09:11:59.959Z</time></trkpt><trkpt lat="43.7896466" lon="7.642742"><ele>12.0</ele><time>2026-04-18T09:12:02.959Z</time></trkpt><trkpt lat="43.7896836" lon="7.6429014"><ele>12.333333333333332</ele><time>2026-04-18T09:12:05.959Z</time></trkpt><trkpt lat="43.7896796" lon="7.6430079"><ele>12.666666666666666</ele><time>2026-04-18T09:12:06.959Z</time></trkpt><trkpt lat="43.7896774" lon="7.6430993"><ele>13.0</ele><time>2026-04-18T09:12:07.959Z</time></trkpt><trkpt lat="43.7896774" lon="7.643236"><ele>12.999999999999998</ele><time>2026-04-18T09:12:09.959Z</time></trkpt><trkpt lat="43.7896693" lon="7.6433869"><ele>13.0</ele><time>2026-04-18T09:12:11.959Z</time></trkpt><trkpt lat="43.7896639" lon="7.6434809"><ele>13.0</ele><time>2026-04-18T09:12:12.959Z</time></trkpt><trkpt lat="43.7896616" lon="7.6435707"><ele>13.0</ele><time>2026-04-18T09:12:13.959Z</time></trkpt><trkpt lat="43.7896587" lon="7.6436646"><ele>12.999999999999998</ele><time>2026-04-18T09:12:14.959Z</time></trkpt><trkpt lat="43.7896543" lon="7.643755"><ele>13.0</ele><time>2026-04-18T09:12:15.959Z</time></trkpt><trkpt lat="43.7896422" lon="7.6438902"><ele>13.2</ele><time>2026-04-18T09:12:17.959Z</time></trkpt><trkpt lat="43.7896362" lon="7.6440363"><ele>13.4</ele><time>2026-04-18T09:12:19.959Z</time></trkpt><trkpt lat="43.7896256" lon="7.6441917"><ele>13.599999999999998</ele><time>2026-04-18T09:12:21.959Z</time></trkpt><trkpt lat="43.7896202" lon="7.6442853"><ele>13.799999999999999</ele><time>2026-04-18T09:12:22.959Z</time></trkpt><trkpt lat="43.789615" lon="7.6444456"><ele>14.0</ele><time>2026-04-18T09:12:24.959Z</time></trkpt><trkpt lat="43.789584" lon="7.6446061"><ele>14.0</ele><time>2026-04-18T09:12:26.958Z</time></trkpt><trkpt lat="43.7895621" lon="7.6446955"><ele>14.0</ele><time>2026-04-18T09:12:27.958Z</time></trkpt><trkpt lat="43.7895356" lon="7.6447884"><ele>14.0</ele><time>2026-04-18T09:12:28.959Z</time></trkpt><trkpt lat="43.7895061" lon="7.6448834"><ele>14.0</ele><time>2026-04-18T09:12:29.959Z</time></trkpt><trkpt lat="43.7894767" lon="7.6449726"><ele>14.0</ele><time>2026-04-18T09:12:30.959Z</time></trkpt><trkpt lat="43.7894446" lon="7.6450618"><ele>14.0</ele><time>2026-04-18T09:12:31.959Z</time></trkpt><trkpt lat="43.7894105" lon="7.6451536"><ele>14.0</ele><time>2026-04-18T09:12:32.958Z</time></trkpt><trkpt lat="43.7893805" lon="7.6452411"><ele>14.333333333333334</ele><time>2026-04-18T09:12:33.959Z</time></trkpt><trkpt lat="43.7893481" lon="7.6453278"><ele>14.666666666666668</ele><time>2026-04-18T09:12:34.959Z</time></trkpt><trkpt lat="43.7893216" lon="7.6454244"><ele>15.0</ele><time>2026-04-18T09:12:35.959Z</time></trkpt><trkpt lat="43.7892941" lon="7.645513"><ele>15.333333333333332</ele><time>2026-04-18T09:12:36.958Z</time></trkpt><trkpt lat="43.7892533" lon="7.6456587"><ele>15.666666666666666</ele><time>2026-04-18T09:12:38.959Z</time></trkpt><trkpt lat="43.7892077" lon="7.6458143"><ele>16.0</ele><time>2026-04-18T09:12:40.959Z</time></trkpt><trkpt lat="43.7892145" lon="7.6459056"><ele>15.999999999999998</ele><time>2026-04-18T09:12:41.959Z</time></trkpt><trkpt lat="43.7892214" lon="7.6459974"><ele>16.0</ele><time>2026-04-18T09:12:42.959Z</time></trkpt><trkpt lat="43.7892289" lon="7.6461045"><ele>16.0</ele><time>2026-04-18T09:12:43.959Z</time></trkpt><trkpt lat="43.7892268" lon="7.6462141"><ele>16.0</ele><time>2026-04-18T09:12:44.959Z</time></trkpt><trkpt lat="43.7892201" lon="7.6463257"><ele>15.999999999999998</ele><time>2026-04-18T09:12:45.959Z</time></trkpt><trkpt lat="43.7892103" lon="7.646431"><ele>16.0</ele><time>2026-04-18T09:12:46.959Z</time></trkpt><trkpt lat="43.7892085" lon="7.6465283"><ele>17.0</ele><time>2026-04-18T09:12:47.959Z</time></trkpt><trkpt lat="43.7892006" lon="7.6466218"><ele>18.0</ele><time>2026-04-18T09:12:48.959Z</time></trkpt><trkpt lat="43.7891958" lon="7.6467158"><ele>19.0</ele><time>2026-04-18T09:12:49.959Z</time></trkpt><trkpt lat="43.7891879" lon="7.6468245"><ele>20.0</ele><time>2026-04-18T09:12:50.959Z</time></trkpt><trkpt lat="43.7891676" lon="7.6469497"><ele>21.0</ele><time>2026-04-18T09:12:51.959Z</time></trkpt><trkpt lat="43.7891463" lon="7.6470881"><ele>22.0</ele><time>2026-04-18T09:12:52.959Z</time></trkpt><trkpt lat="43.7891184" lon="7.6472173"><ele>23.400000000000002</ele><time>2026-04-18T09:12:53.959Z</time></trkpt><trkpt lat="43.7890833" lon="7.6473431"><ele>24.8</ele><time>2026-04-18T09:12:54.959Z</time></trkpt><trkpt lat="43.789049" lon="7.6474741"><ele>26.2</ele><time>2026-04-18T09:12:55.959Z</time></trkpt><trkpt lat="43.7890133" lon="7.6476037"><ele>27.6</ele><time>2026-04-18T09:12:56.959Z</time></trkpt><trkpt lat="43.7889754" lon="7.6477471"><ele>29.0</ele><time>2026-04-18T09:12:57.959Z</time></trkpt><trkpt lat="43.7889308" lon="7.6479047"><ele>31.0</ele><time>2026-04-18T09:12:58.959Z</time></trkpt><trkpt lat="43.7888715" lon="7.6480914"><ele>33.0</ele><time>2026-04-18T09:12:59.959Z</time></trkpt><trkpt lat="43.788797" lon="7.6482948"><ele>35.0</ele><time>2026-04-18T09:13:00.959Z</time></trkpt><trkpt lat="43.788721" lon="7.6484937"><ele>36.4</ele><time>2026-04-18T09:13:01.959Z</time></trkpt><trkpt lat="43.7886578" lon="7.6486681"><ele>37.8</ele><time>2026-04-18T09:13:02.959Z</time></trkpt><trkpt lat="43.7886134" lon="7.6488145"><ele>39.2</ele><time>2026-04-18T09:13:03.959Z</time></trkpt><trkpt lat="43.7885743" lon="7.64894"><ele>40.6</ele><time>2026-04-18T09:13:04.959Z</time></trkpt><trkpt lat="43.7885374" lon="7.6490593"><ele>42.0</ele><time>2026-04-18T09:13:05.959Z</time></trkpt><trkpt lat="43.7885035" lon="7.6491752"><ele>39.857142857142854</ele><time>2026-04-18T09:13:06.959Z</time></trkpt><trkpt lat="43.7884769" lon="7.6492758"><ele>37.714285714285715</ele><time>2026-04-18T09:13:07.959Z</time></trkpt><trkpt lat="43.7884538" lon="7.6493664"><ele>35.57142857142857</ele><time>2026-04-18T09:13:08.959Z</time></trkpt><trkpt lat="43.7884274" lon="7.6494469"><ele>33.42857142857143</ele><time>2026-04-18T09:13:09.959Z</time></trkpt><trkpt lat="43.7884004" lon="7.6495337"><ele>31.285714285714285</ele><time>2026-04-18T09:13:10.958Z</time></trkpt><trkpt lat="43.7883658" lon="7.6496297"><ele>29.142857142857142</ele><time>2026-04-18T09:13:11.959Z</time></trkpt><trkpt lat="43.7883288" lon="7.6497364"><ele>27.0</ele><time>2026-04-18T09:13:12.959Z</time></trkpt><trkpt lat="43.7882883" lon="7.6498534"><ele>27.0</ele><time>2026-04-18T09:13:13.959Z</time></trkpt><trkpt lat="43.7882392" lon="7.6499969"><ele>27.0</ele><time>2026-04-18T09:13:14.959Z</time></trkpt><trkpt lat="43.7881833" lon="7.6501621"><ele>27.0</ele><time>2026-04-18T09:13:15.959Z</time></trkpt><trkpt lat="43.7881312" lon="7.6503351"><ele>27.0</ele><time>2026-04-18T09:13:16.959Z</time></trkpt><trkpt lat="43.7881003" lon="7.6505079"><ele>27.5</ele><time>2026-04-18T09:13:17.959Z</time></trkpt><trkpt lat="43.788095" lon="7.6506855"><ele>28.0</ele><time>2026-04-18T09:13:18.959Z</time></trkpt><trkpt lat="43.7880978" lon="7.6508593"><ele>28.5</ele><time>2026-04-18T09:13:19.959Z</time></trkpt><trkpt lat="43.7881031" lon="7.6510093"><ele>29.0</ele><time>2026-04-18T09:13:20.959Z</time></trkpt><trkpt lat="43.7881046" lon="7.6511366"><ele>30.166666666666664</ele><time>2026-04-18T09:13:21.959Z</time></trkpt><trkpt lat="43.7881008" lon="7.6512696"><ele>31.333333333333332</ele><time>2026-04-18T09:13:22.959Z</time></trkpt><trkpt lat="43.788084" lon="7.6513929"><ele>32.5</ele><time>2026-04-18T09:13:23.959Z</time></trkpt><trkpt lat="43.7880613" lon="7.651506"><ele>33.666666666666664</ele><time>2026-04-18T09:13:24.959Z</time></trkpt><trkpt lat="43.7880293" lon="7.6516239"><ele>34.833333333333336</ele><time>2026-04-18T09:13:25.959Z</time></trkpt><trkpt lat="43.7879971" lon="7.6517318"><ele>36.0</ele><time>2026-04-18T09:13:26.958Z</time></trkpt><trkpt lat="43.78796" lon="7.6518403"><ele>39.0</ele><time>2026-04-18T09:13:27.959Z</time></trkpt><trkpt lat="43.7879174" lon="7.6519618"><ele>42.0</ele><time>2026-04-18T09:13:28.959Z</time></trkpt><trkpt lat="43.7878778" lon="7.6520801"><ele>45.0</ele><time>2026-04-18T09:13:29.959Z</time></trkpt><trkpt lat="43.7878395" lon="7.652197"><ele>48.0</ele><time>2026-04-18T09:13:30.959Z</time></trkpt><trkpt lat="43.7877955" lon="7.6523271"><ele>51.0</ele><time>2026-04-18T09:13:31.959Z</time></trkpt><trkpt lat="43.7877498" lon="7.6524577"><ele>51.0</ele><time>2026-04-18T09:13:32.959Z</time></trkpt><trkpt lat="43.7877028" lon="7.6525858"><ele>51.0</ele><time>2026-04-18T09:13:33.959Z</time></trkpt><trkpt lat="43.7876617" lon="7.6527189"><ele>51.0</ele><time>2026-04-18T09:13:34.959Z</time></trkpt><trkpt lat="43.7876085" lon="7.652853"><ele>51.0</ele><time>2026-04-18T09:13:35.959Z</time></trkpt><trkpt lat="43.7875594" lon="7.6529956"><ele>51.0</ele><time>2026-04-18T09:13:36.959Z</time></trkpt><trkpt lat="43.7874995" lon="7.653152"><ele>45.333333333333336</ele><time>2026-04-18T09:13:37.959Z</time></trkpt><trkpt lat="43.7874333" lon="7.6533256"><ele>39.66666666666667</ele><time>2026-04-18T09:13:38.959Z</time></trkpt><trkpt lat="43.7873532" lon="7.6535305"><ele>34.0</ele><time>2026-04-18T09:13:39.959Z</time></trkpt><trkpt lat="43.7872762" lon="7.6537373"><ele>34.0</ele><time>2026-04-18T09:13:40.959Z</time></trkpt><trkpt lat="43.7872194" lon="7.6539467"><ele>34.0</ele><time>2026-04-18T09:13:41.959Z</time></trkpt><trkpt lat="43.787185" lon="7.6541572"><ele>34.0</ele><time>2026-04-18T09:13:42.959Z</time></trkpt><trkpt lat="43.7871664" lon="7.654349"><ele>34.2</ele><time>2026-04-18T09:13:43.959Z</time></trkpt><trkpt lat="43.7871467" lon="7.6545319"><ele>34.4</ele><time>2026-04-18T09:13:44.959Z</time></trkpt><trkpt lat="43.7871313" lon="7.6546904"><ele>34.6</ele><time>2026-04-18T09:13:45.959Z</time></trkpt><trkpt lat="43.7871109" lon="7.6548338"><ele>34.8</ele><time>2026-04-18T09:13:46.958Z</time></trkpt><trkpt lat="43.787092" lon="7.654953"><ele>35.0</ele><time>2026-04-18T09:13:47.959Z</time></trkpt><trkpt lat="43.787061" lon="7.6550641"><ele>35.0</ele><time>2026-04-18T09:13:48.959Z</time></trkpt><trkpt lat="43.7870161" lon="7.6551515"><ele>35.0</ele><time>2026-04-18T09:13:49.959Z</time></trkpt><trkpt lat="43.7869425" lon="7.6551985"><ele>35.0</ele><time>2026-04-18T09:13:50.959Z</time></trkpt><trkpt lat="43.7868502" lon="7.6552194"><ele>35.0</ele><time>2026-04-18T09:13:51.959Z</time></trkpt><trkpt lat="43.7867406" lon="7.6552287"><ele>35.0</ele><time>2026-04-18T09:13:52.959Z</time></trkpt><trkpt lat="43.7866249" lon="7.6552371"><ele>31.25</ele><time>2026-04-18T09:13:53.959Z</time></trkpt><trkpt lat="43.7864945" lon="7.6552738"><ele>27.5</ele><time>2026-04-18T09:13:54.959Z</time></trkpt><trkpt lat="43.786372" lon="7.6553171"><ele>23.75</ele><time>2026-04-18T09:13:55.959Z</time></trkpt><trkpt lat="43.7862576" lon="7.6553704"><ele>20.0</ele><time>2026-04-18T09:13:56.959Z</time></trkpt><trkpt lat="43.7861505" lon="7.6554329"><ele>19.6</ele><time>2026-04-18T09:13:57.958Z</time></trkpt><trkpt lat="43.7860596" lon="7.6555066"><ele>19.2</ele><time>2026-04-18T09:13:58.959Z</time></trkpt><trkpt lat="43.7859683" lon="7.6555932"><ele>18.8</ele><time>2026-04-18T09:13:59.959Z</time></trkpt><trkpt lat="43.7858866" lon="7.6556927"><ele>18.4</ele><time>2026-04-18T09:14:00.959Z</time></trkpt><trkpt lat="43.7858193" lon="7.6557907"><ele>18.0</ele><time>2026-04-18T09:14:01.959Z</time></trkpt><trkpt lat="43.7857668" lon="7.6558863"><ele>17.666666666666668</ele><time>2026-04-18T09:14:02.959Z</time></trkpt><trkpt lat="43.7857299" lon="7.6559718"><ele>17.333333333333332</ele><time>2026-04-18T09:14:03.959Z</time></trkpt><trkpt lat="43.7856772" lon="7.6560993"><ele>17.0</ele><time>2026-04-18T09:14:05.959Z</time></trkpt><trkpt lat="43.7856465" lon="7.6561774"><ele>16.666666666666664</ele><time>2026-04-18T09:14:07.958Z</time></trkpt><trkpt lat="43.7856169" lon="7.6562613"><ele>16.333333333333332</ele><time>2026-04-18T09:14:10.959Z</time></trkpt><trkpt lat="43.7855734" lon="7.6563428"><ele>16.0</ele><time>2026-04-18T09:14:13.959Z</time></trkpt><trkpt lat="43.7855213" lon="7.656413"><ele>15.8</ele><time>2026-04-18T09:14:21.959Z</time></trkpt><trkpt lat="43.7854363" lon="7.6564974"><ele>15.600000000000001</ele><time>2026-04-18T09:14:23.959Z</time></trkpt><trkpt lat="43.785409" lon="7.6566578"><ele>15.4</ele><time>2026-04-18T09:14:25.958Z</time></trkpt><trkpt lat="43.785405" lon="7.6567669"><ele>15.2</ele><time>2026-04-18T09:14:26.958Z</time></trkpt><trkpt lat="43.7853758" lon="7.6568776"><ele>15.0</ele><time>2026-04-18T09:14:27.959Z</time></trkpt><trkpt lat="43.7853316" lon="7.6570068"><ele>15.0</ele><time>2026-04-18T09:14:28.958Z</time></trkpt><trkpt lat="43.7852757" lon="7.6571502"><ele>15.0</ele><time>2026-04-18T09:14:29.959Z</time></trkpt><trkpt lat="43.7852184" lon="7.6572975"><ele>15.0</ele><time>2026-04-18T09:14:30.959Z</time></trkpt><trkpt lat="43.7851666" lon="7.6574443"><ele>15.0</ele><time>2026-04-18T09:14:31.959Z</time></trkpt><trkpt lat="43.7851115" lon="7.6576088"><ele>15.666666666666668</ele><time>2026-04-18T09:14:32.959Z</time></trkpt><trkpt lat="43.7850507" lon="7.6577866"><ele>16.333333333333336</ele><time>2026-04-18T09:14:33.959Z</time></trkpt><trkpt lat="43.7849828" lon="7.6579847"><ele>17.0</ele><time>2026-04-18T09:14:34.959Z</time></trkpt><trkpt lat="43.7849075" lon="7.658188"><ele>17.0</ele><time>2026-04-18T09:14:35.959Z</time></trkpt><trkpt lat="43.784848" lon="7.658362"><ele>17.0</ele><time>2026-04-18T09:14:36.959Z</time></trkpt><trkpt lat="43.7847966" lon="7.6585231"><ele>17.0</ele><time>2026-04-18T09:14:37.959Z</time></trkpt><trkpt lat="43.7847497" lon="7.6586688"><ele>17.0</ele><time>2026-04-18T09:14:38.959Z</time></trkpt><trkpt lat="43.7847006" lon="7.6588029"><ele>17.4</ele><time>2026-04-18T09:14:39.959Z</time></trkpt><trkpt lat="43.7846504" lon="7.6589338"><ele>17.799999999999997</ele><time>2026-04-18T09:14:40.959Z</time></trkpt><trkpt lat="43.7846094" lon="7.6590592"><ele>18.2</ele><time>2026-04-18T09:14:41.959Z</time></trkpt><trkpt lat="43.7845736" lon="7.6591623"><ele>18.599999999999998</ele><time>2026-04-18T09:14:42.959Z</time></trkpt><trkpt lat="43.7845296" lon="7.6593065"><ele>19.0</ele><time>2026-04-18T09:14:44.958Z</time></trkpt><trkpt lat="43.7844907" lon="7.6594858"><ele>19.75</ele><time>2026-04-18T09:14:46.959Z</time></trkpt><trkpt lat="43.7844793" lon="7.6596191"><ele>20.5</ele><time>2026-04-18T09:14:47.959Z</time></trkpt><trkpt lat="43.7844607" lon="7.6597765"><ele>21.25</ele><time>2026-04-18T09:14:48.959Z</time></trkpt><trkpt lat="43.7844127" lon="7.6599879"><ele>22.0</ele><time>2026-04-18T09:14:49.958Z</time></trkpt><trkpt lat="43.784362" lon="7.660209"><ele>19.666666666666664</ele><time>2026-04-18T09:14:50.959Z</time></trkpt><trkpt lat="43.7843064" lon="7.6604321"><ele>17.333333333333332</ele><time>2026-04-18T09:14:51.959Z</time></trkpt><trkpt lat="43.7842356" lon="7.6606595"><ele>15.0</ele><time>2026-04-18T09:14:52.959Z</time></trkpt><trkpt lat="43.7841569" lon="7.6608664"><ele>15.0</ele><time>2026-04-18T09:14:53.959Z</time></trkpt><trkpt lat="43.7840652" lon="7.6610826"><ele>15.0</ele><time>2026-04-18T09:14:54.959Z</time></trkpt><trkpt lat="43.7839619" lon="7.6613011"><ele>15.0</ele><time>2026-04-18T09:14:55.959Z</time></trkpt><trkpt lat="43.7838719" lon="7.6614998"><ele>16.333333333333332</ele><time>2026-04-18T09:14:56.959Z</time></trkpt><trkpt lat="43.7837899" lon="7.6616954"><ele>17.666666666666664</ele><time>2026-04-18T09:14:57.959Z</time></trkpt><trkpt lat="43.7837194" lon="7.6618863"><ele>19.0</ele><time>2026-04-18T09:14:58.959Z</time></trkpt><trkpt lat="43.7836809" lon="7.6620661"><ele>20.75</ele><time>2026-04-18T09:14:59.959Z</time></trkpt><trkpt lat="43.7836514" lon="7.662253"><ele>22.5</ele><time>2026-04-18T09:15:00.959Z</time></trkpt><trkpt lat="43.7836272" lon="7.6624535"><ele>24.25</ele><time>2026-04-18T09:15:01.959Z</time></trkpt><trkpt lat="43.7836261" lon="7.6626713"><ele>26.0</ele><time>2026-04-18T09:15:02.959Z</time></trkpt><trkpt lat="43.7836242" lon="7.6628999"><ele>27.666666666666664</ele><time>2026-04-18T09:15:03.959Z</time></trkpt><trkpt lat="43.7836212" lon="7.6631443"><ele>29.333333333333336</ele><time>2026-04-18T09:15:04.959Z</time></trkpt><trkpt lat="43.7836164" lon="7.6633944"><ele>31.0</ele><time>2026-04-18T09:15:05.959Z</time></trkpt><trkpt lat="43.7836022" lon="7.6636368"><ele>31.75</ele><time>2026-04-18T09:15:06.959Z</time></trkpt><trkpt lat="43.7835983" lon="7.6638491"><ele>32.5</ele><time>2026-04-18T09:15:07.959Z</time></trkpt><trkpt lat="43.7835874" lon="7.6640446"><ele>33.25</ele><time>2026-04-18T09:15:08.959Z</time></trkpt><trkpt lat="43.7835849" lon="7.6642301"><ele>34.0</ele><time>2026-04-18T09:15:09.959Z</time></trkpt><trkpt lat="43.7835632" lon="7.6644471"><ele>34.66666666666667</ele><time>2026-04-18T09:15:10.959Z</time></trkpt><trkpt lat="43.7835282" lon="7.6646458"><ele>35.333333333333336</ele><time>2026-04-18T09:15:11.959Z</time></trkpt><trkpt lat="43.7834816" lon="7.6648542"><ele>36.0</ele><time>2026-04-18T09:15:12.959Z</time></trkpt><trkpt lat="43.7834254" lon="7.6650609"><ele>34.5</ele><time>2026-04-18T09:15:13.959Z</time></trkpt><trkpt lat="43.7833646" lon="7.6652543"><ele>33.0</ele><time>2026-04-18T09:15:14.958Z</time></trkpt><trkpt lat="43.7833072" lon="7.665423"><ele>31.5</ele><time>2026-04-18T09:15:15.959Z</time></trkpt><trkpt lat="43.7832545" lon="7.6655834"><ele>30.0</ele><time>2026-04-18T09:15:16.959Z</time></trkpt><trkpt lat="43.7832118" lon="7.6657265"><ele>30.0</ele><time>2026-04-18T09:15:17.959Z</time></trkpt><trkpt lat="43.7831678" lon="7.6658595"><ele>30.0</ele><time>2026-04-18T09:15:18.959Z</time></trkpt><trkpt lat="43.7831334" lon="7.6659684"><ele>30.0</ele><time>2026-04-18T09:15:19.959Z</time></trkpt><trkpt lat="43.7831031" lon="7.6660564"><ele>30.0</ele><time>2026-04-18T09:15:20.959Z</time></trkpt><trkpt lat="43.7830662" lon="7.6661274"><ele>30.0</ele><time>2026-04-18T09:15:21.959Z</time></trkpt><trkpt lat="43.7829576" lon="7.6661423"><ele>30.0</ele><time>2026-04-18T09:15:23.959Z</time></trkpt><trkpt lat="43.7828912" lon="7.6660969"><ele>30.0</ele><time>2026-04-18T09:15:24.959Z</time></trkpt><trkpt lat="43.7828021" lon="7.6660398"><ele>30.0</ele><time>2026-04-18T09:15:25.959Z</time></trkpt><trkpt lat="43.7826969" lon="7.6659808"><ele>30.0</ele><time>2026-04-18T09:15:26.959Z</time></trkpt><trkpt lat="43.7825837" lon="7.6659126"><ele>30.0</ele><time>2026-04-18T09:15:27.958Z</time></trkpt><trkpt lat="43.7824714" lon="7.6658483"><ele>27.5</ele><time>2026-04-18T09:15:28.959Z</time></trkpt><trkpt lat="43.7823623" lon="7.6657806"><ele>25.0</ele><time>2026-04-18T09:15:29.959Z</time></trkpt><trkpt lat="43.7822501" lon="7.6657179"><ele>22.5</ele><time>2026-04-18T09:15:30.958Z</time></trkpt><trkpt lat="43.7821414" lon="7.6656583"><ele>20.0</ele><time>2026-04-18T09:15:31.958Z</time></trkpt><trkpt lat="43.7820376" lon="7.6655973"><ele>20.0</ele><time>2026-04-18T09:15:32.958Z</time></trkpt><trkpt lat="43.7819299" lon="7.6655395"><ele>20.0</ele><time>2026-04-18T09:15:33.959Z</time></trkpt><trkpt lat="43.781819" lon="7.6654769"><ele>20.0</ele><time>2026-04-18T09:15:34.959Z</time></trkpt><trkpt lat="43.7817109" lon="7.6654189"><ele>20.0</ele><time>2026-04-18T09:15:35.959Z</time></trkpt><trkpt lat="43.7816142" lon="7.6653606"><ele>18.8</ele><time>2026-04-18T09:15:36.959Z</time></trkpt><trkpt lat="43.7815222" lon="7.6653073"><ele>17.6</ele><time>2026-04-18T09:15:37.959Z</time></trkpt><trkpt lat="43.7814322" lon="7.6652571"><ele>16.4</ele><time>2026-04-18T09:15:38.958Z</time></trkpt><trkpt lat="43.7813579" lon="7.6652072"><ele>15.2</ele><time>2026-04-18T09:15:39.959Z</time></trkpt><trkpt lat="43.7812871" lon="7.6651743"><ele>14.0</ele><time>2026-04-18T09:15:40.959Z</time></trkpt><trkpt lat="43.7811848" lon="7.6651832"><ele>14.0</ele><time>2026-04-18T09:15:42.959Z</time></trkpt><trkpt lat="43.7811413" lon="7.6652999"><ele>14.0</ele><time>2026-04-18T09:15:44.959Z</time></trkpt><trkpt lat="43.7811007" lon="7.6654589"><ele>14.0</ele><time>2026-04-18T09:15:46.959Z</time></trkpt><trkpt lat="43.7810604" lon="7.6656138"><ele>14.0</ele><time>2026-04-18T09:15:48.959Z</time></trkpt><trkpt lat="43.7810089" lon="7.6657754"><ele>13.857142857142858</ele><time>2026-04-18T09:15:50.959Z</time></trkpt><trkpt lat="43.7809806" lon="7.6658614"><ele>13.714285714285715</ele><time>2026-04-18T09:15:51.959Z</time></trkpt><trkpt lat="43.7809504" lon="7.6659529"><ele>13.571428571428571</ele><time>2026-04-18T09:15:52.959Z</time></trkpt><trkpt lat="43.7809263" lon="7.6660346"><ele>13.428571428571429</ele><time>2026-04-18T09:15:53.959Z</time></trkpt><trkpt lat="43.780902" lon="7.6661155"><ele>13.285714285714286</ele><time>2026-04-18T09:15:54.959Z</time></trkpt><trkpt lat="43.7808714" lon="7.6661997"><ele>13.142857142857142</ele><time>2026-04-18T09:15:55.959Z</time></trkpt><trkpt lat="43.7808364" lon="7.6662977"><ele>13.0</ele><time>2026-04-18T09:15:56.959Z</time></trkpt><trkpt lat="43.7807996" lon="7.6664014"><ele>13.0</ele><time>2026-04-18T09:15:57.959Z</time></trkpt><trkpt lat="43.7807668" lon="7.6665105"><ele>13.0</ele><time>2026-04-18T09:15:58.958Z</time></trkpt><trkpt lat="43.7807321" lon="7.6666153"><ele>13.0</ele><time>2026-04-18T09:15:59.958Z</time></trkpt><trkpt lat="43.7806933" lon="7.6667201"><ele>13.0</ele><time>2026-04-18T09:16:00.958Z</time></trkpt><trkpt lat="43.7806593" lon="7.6668166"><ele>13.0</ele><time>2026-04-18T09:16:01.959Z</time></trkpt><trkpt lat="43.780611" lon="7.6669888"><ele>12.999999999999998</ele><time>2026-04-18T09:16:03.959Z</time></trkpt><trkpt lat="43.7805812" lon="7.667084"><ele>13.0</ele><time>2026-04-18T09:16:04.959Z</time></trkpt><trkpt lat="43.7805553" lon="7.667174"><ele>13.0</ele><time>2026-04-18T09:16:05.959Z</time></trkpt><trkpt lat="43.7805092" lon="7.6673196"><ele>13.0</ele><time>2026-04-18T09:16:07.959Z</time></trkpt><trkpt lat="43.7804694" lon="7.6674328"><ele>12.999999999999998</ele><time>2026-04-18T09:16:09.959Z</time></trkpt><trkpt lat="43.7804266" lon="7.6675232"><ele>13.0</ele><time>2026-04-18T09:16:11.959Z</time></trkpt><trkpt lat="43.7803573" lon="7.6675691"><ele>12.999999999999998</ele><time>2026-04-18T09:16:13.959Z</time></trkpt><trkpt lat="43.7802762" lon="7.6675539"><ele>13.0</ele><time>2026-04-18T09:16:15.959Z</time></trkpt><trkpt lat="43.7802206" lon="7.6675127"><ele>13.0</ele><time>2026-04-18T09:16:16.959Z</time></trkpt><trkpt lat="43.7801581" lon="7.6674711"><ele>13.0</ele><time>2026-04-18T09:16:17.959Z</time></trkpt><trkpt lat="43.7800852" lon="7.6674279"><ele>12.999999999999998</ele><time>2026-04-18T09:16:18.958Z</time></trkpt><trkpt lat="43.7800059" lon="7.6673857"><ele>13.0</ele><time>2026-04-18T09:16:19.959Z</time></trkpt><trkpt lat="43.77992" lon="7.6673307"><ele>12.666666666666666</ele><time>2026-04-18T09:16:20.958Z</time></trkpt><trkpt lat="43.7798301" lon="7.6672745"><ele>12.333333333333332</ele><time>2026-04-18T09:16:21.958Z</time></trkpt><trkpt lat="43.7797447" lon="7.6672236"><ele>12.0</ele><time>2026-04-18T09:16:22.959Z</time></trkpt><trkpt lat="43.7796663" lon="7.6671772"><ele>11.666666666666666</ele><time>2026-04-18T09:16:23.959Z</time></trkpt><trkpt lat="43.7795904" lon="7.6671361"><ele>11.333333333333332</ele><time>2026-04-18T09:16:24.959Z</time></trkpt><trkpt lat="43.7795119" lon="7.6670958"><ele>11.0</ele><time>2026-04-18T09:16:25.959Z</time></trkpt><trkpt lat="43.7794393" lon="7.6670505"><ele>11.0</ele><time>2026-04-18T09:16:26.959Z</time></trkpt><trkpt lat="43.779372" lon="7.6670009"><ele>11.0</ele><time>2026-04-18T09:16:27.959Z</time></trkpt><trkpt lat="43.7793085" lon="7.6669546"><ele>11.0</ele><time>2026-04-18T09:16:28.959Z</time></trkpt><trkpt lat="43.7791946" lon="7.666881"><ele>11.0</ele><time>2026-04-18T09:16:30.959Z</time></trkpt><trkpt lat="43.7791024" lon="7.6668189"><ele>11.0</ele><time>2026-04-18T09:16:32.959Z</time></trkpt><trkpt lat="43.7790294" lon="7.6667753"><ele>11.4</ele><time>2026-04-18T09:16:34.959Z</time></trkpt><trkpt lat="43.7790616" lon="7.6666494"><ele>11.8</ele><time>2026-04-18T09:16:37.959Z</time></trkpt><trkpt lat="43.7790961" lon="7.6665062"><ele>12.200000000000001</ele><time>2026-04-18T09:16:39.959Z</time></trkpt><trkpt lat="43.7791443" lon="7.6664181"><ele>12.600000000000001</ele><time>2026-04-18T09:16:41.959Z</time></trkpt><trkpt lat="43.7792521" lon="7.6663968"><ele>13.0</ele><time>2026-04-18T09:16:47.959Z</time></trkpt><trkpt lat="43.7792891" lon="7.6665"><ele>13.0</ele><time>2026-04-18T09:16:49.959Z</time></trkpt><trkpt lat="43.7793009" lon="7.6666048"><ele>13.0</ele><time>2026-04-18T09:16:53.958Z</time></trkpt><trkpt lat="43.7793619" lon="7.6666377"><ele>11.0</ele><time>2026-04-18T09:17:05.959Z</time></trkpt><trkpt lat="43.7793328" lon="7.6667296"><ele>13.0</ele><time>2026-04-18T09:17:33.959Z</time></trkpt><trkpt lat="43.779151" lon="7.6668342"><ele>13.0</ele><time>2026-04-18T09:20:30.959Z</time></trkpt></trkseg></trk></gpx>